<?xml version="1.0" encoding="UTF-8" standalone="no" ?>
<gpx xmlns="http://www.topografix.com/GPX/1/1" xmlns:xsi="http://www.w3.org/2001/XMLSchema-instance" xsi:schemaLocation="http://www.topografix.com/GPX/1/1 http://www.topografix.com/GPX/1/1/gpx.xsd" version="1.1" creator="VisuGPX - https://www.visugpx.com">
  <metadata>
    <name>Tour Vercors etape 3/5</name>
  </metadata>
  <trk>
    <name><![CDATA[Tour Vercors etape 3/5_1]]></name>
    <trkseg>
      <trkpt lat="44.94893" lon="5.32265">
        <ele>1081</ele>
        <time>2021-10-08T07:44:18Z</time>
      </trkpt>
      <trkpt lat="44.94865" lon="5.32253">
        <ele>1081</ele>
        <time>2021-10-08T07:45:38Z</time>
      </trkpt>
      <trkpt lat="44.94864" lon="5.32254">
        <ele>1081</ele>
        <time>2021-10-08T07:45:39Z</time>
      </trkpt>
      <trkpt lat="44.94862" lon="5.32255">
        <ele>1081</ele>
        <time>2021-10-08T07:45:40Z</time>
      </trkpt>
      <trkpt lat="44.9486" lon="5.32256">
        <ele>1080.8</ele>
        <time>2021-10-08T07:45:41Z</time>
      </trkpt>
      <trkpt lat="44.94857" lon="5.32257">
        <ele>1080.4</ele>
        <time>2021-10-08T07:45:42Z</time>
      </trkpt>
      <trkpt lat="44.94855" lon="5.32258">
        <ele>1080.4</ele>
        <time>2021-10-08T07:45:43Z</time>
      </trkpt>
      <trkpt lat="44.94853" lon="5.32259">
        <ele>1080.4</ele>
        <time>2021-10-08T07:45:44Z</time>
      </trkpt>
      <trkpt lat="44.94851" lon="5.3226">
        <ele>1080.4</ele>
        <time>2021-10-08T07:45:45Z</time>
      </trkpt>
      <trkpt lat="44.94849" lon="5.3226">
        <ele>1081</ele>
        <time>2021-10-08T07:45:46Z</time>
      </trkpt>
      <trkpt lat="44.94846" lon="5.32261">
        <ele>1081</ele>
        <time>2021-10-08T07:45:47Z</time>
      </trkpt>
      <trkpt lat="44.94844" lon="5.32262">
        <ele>1081</ele>
        <time>2021-10-08T07:45:48Z</time>
      </trkpt>
      <trkpt lat="44.94843" lon="5.32263">
        <ele>1081</ele>
        <time>2021-10-08T07:45:49Z</time>
      </trkpt>
      <trkpt lat="44.94841" lon="5.32263">
        <ele>1080.6</ele>
        <time>2021-10-08T07:45:50Z</time>
      </trkpt>
      <trkpt lat="44.94839" lon="5.32264">
        <ele>1080.6</ele>
        <time>2021-10-08T07:45:51Z</time>
      </trkpt>
      <trkpt lat="44.94837" lon="5.32264">
        <ele>1080.6</ele>
        <time>2021-10-08T07:45:52Z</time>
      </trkpt>
      <trkpt lat="44.94836" lon="5.32265">
        <ele>1080.6</ele>
        <time>2021-10-08T07:45:53Z</time>
      </trkpt>
      <trkpt lat="44.94834" lon="5.32265">
        <ele>1079.8</ele>
        <time>2021-10-08T07:45:54Z</time>
      </trkpt>
      <trkpt lat="44.94833" lon="5.32266">
        <ele>1079.8</ele>
        <time>2021-10-08T07:45:55Z</time>
      </trkpt>
      <trkpt lat="44.94832" lon="5.32267">
        <ele>1079.8</ele>
        <time>2021-10-08T07:45:56Z</time>
      </trkpt>
      <trkpt lat="44.94831" lon="5.32267">
        <ele>1080.6</ele>
        <time>2021-10-08T07:45:57Z</time>
      </trkpt>
      <trkpt lat="44.94831" lon="5.32267">
        <ele>1080.2</ele>
        <time>2021-10-08T07:45:58Z</time>
      </trkpt>
      <trkpt lat="44.94831" lon="5.32267">
        <ele>1080.2</ele>
        <time>2021-10-08T07:45:59Z</time>
      </trkpt>
      <trkpt lat="44.94829" lon="5.32268">
        <ele>1080.6</ele>
        <time>2021-10-08T07:50:59Z</time>
      </trkpt>
      <trkpt lat="44.94826" lon="5.32269">
        <ele>1080.6</ele>
        <time>2021-10-08T07:51:00Z</time>
      </trkpt>
      <trkpt lat="44.94823" lon="5.32271">
        <ele>1079.6</ele>
        <time>2021-10-08T07:51:01Z</time>
      </trkpt>
      <trkpt lat="44.9482" lon="5.32272">
        <ele>1079</ele>
        <time>2021-10-08T07:51:02Z</time>
      </trkpt>
      <trkpt lat="44.94817" lon="5.32274">
        <ele>1079</ele>
        <time>2021-10-08T07:51:03Z</time>
      </trkpt>
      <trkpt lat="44.94813" lon="5.32276">
        <ele>1079</ele>
        <time>2021-10-08T07:51:04Z</time>
      </trkpt>
      <trkpt lat="44.9481" lon="5.32278">
        <ele>1079</ele>
        <time>2021-10-08T07:51:05Z</time>
      </trkpt>
      <trkpt lat="44.94807" lon="5.3228">
        <ele>1079</ele>
        <time>2021-10-08T07:51:06Z</time>
      </trkpt>
      <trkpt lat="44.94803" lon="5.32282">
        <ele>1079</ele>
        <time>2021-10-08T07:51:07Z</time>
      </trkpt>
      <trkpt lat="44.948" lon="5.32285">
        <ele>1079</ele>
        <time>2021-10-08T07:51:08Z</time>
      </trkpt>
      <trkpt lat="44.94797" lon="5.32287">
        <ele>1078.8</ele>
        <time>2021-10-08T07:51:09Z</time>
      </trkpt>
      <trkpt lat="44.94793" lon="5.32289">
        <ele>1078.8</ele>
        <time>2021-10-08T07:51:10Z</time>
      </trkpt>
      <trkpt lat="44.9479" lon="5.32292">
        <ele>1078.8</ele>
        <time>2021-10-08T07:51:11Z</time>
      </trkpt>
      <trkpt lat="44.94787" lon="5.32294">
        <ele>1078.8</ele>
        <time>2021-10-08T07:51:12Z</time>
      </trkpt>
      <trkpt lat="44.94783" lon="5.32297">
        <ele>1078.8</ele>
        <time>2021-10-08T07:51:13Z</time>
      </trkpt>
      <trkpt lat="44.9478" lon="5.32299">
        <ele>1079.2</ele>
        <time>2021-10-08T07:51:14Z</time>
      </trkpt>
      <trkpt lat="44.94777" lon="5.32301">
        <ele>1079.2</ele>
        <time>2021-10-08T07:51:15Z</time>
      </trkpt>
      <trkpt lat="44.94774" lon="5.32304">
        <ele>1079.2</ele>
        <time>2021-10-08T07:51:16Z</time>
      </trkpt>
      <trkpt lat="44.94771" lon="5.32306">
        <ele>1079.2</ele>
        <time>2021-10-08T07:51:17Z</time>
      </trkpt>
      <trkpt lat="44.94768" lon="5.32309">
        <ele>1079.8</ele>
        <time>2021-10-08T07:51:18Z</time>
      </trkpt>
      <trkpt lat="44.94766" lon="5.32311">
        <ele>1079.8</ele>
        <time>2021-10-08T07:51:19Z</time>
      </trkpt>
      <trkpt lat="44.94763" lon="5.32314">
        <ele>1079.8</ele>
        <time>2021-10-08T07:51:20Z</time>
      </trkpt>
      <trkpt lat="44.9476" lon="5.32316">
        <ele>1080.4</ele>
        <time>2021-10-08T07:51:21Z</time>
      </trkpt>
      <trkpt lat="44.94758" lon="5.32319">
        <ele>1080.2</ele>
        <time>2021-10-08T07:51:22Z</time>
      </trkpt>
      <trkpt lat="44.94755" lon="5.32321">
        <ele>1080.2</ele>
        <time>2021-10-08T07:51:23Z</time>
      </trkpt>
      <trkpt lat="44.94752" lon="5.32323">
        <ele>1080.2</ele>
        <time>2021-10-08T07:51:24Z</time>
      </trkpt>
      <trkpt lat="44.9475" lon="5.32326">
        <ele>1080.6</ele>
        <time>2021-10-08T07:51:25Z</time>
      </trkpt>
      <trkpt lat="44.94747" lon="5.32328">
        <ele>1080.6</ele>
        <time>2021-10-08T07:51:26Z</time>
      </trkpt>
      <trkpt lat="44.94744" lon="5.3233">
        <ele>1080.6</ele>
        <time>2021-10-08T07:51:27Z</time>
      </trkpt>
      <trkpt lat="44.94742" lon="5.32333">
        <ele>1080.6</ele>
        <time>2021-10-08T07:51:28Z</time>
      </trkpt>
      <trkpt lat="44.94739" lon="5.32335">
        <ele>1080.6</ele>
        <time>2021-10-08T07:51:29Z</time>
      </trkpt>
      <trkpt lat="44.94737" lon="5.32338">
        <ele>1081.4</ele>
        <time>2021-10-08T07:51:30Z</time>
      </trkpt>
      <trkpt lat="44.94734" lon="5.32341">
        <ele>1081.4</ele>
        <time>2021-10-08T07:51:31Z</time>
      </trkpt>
      <trkpt lat="44.94732" lon="5.32343">
        <ele>1081.4</ele>
        <time>2021-10-08T07:51:32Z</time>
      </trkpt>
      <trkpt lat="44.94729" lon="5.32346">
        <ele>1081.2</ele>
        <time>2021-10-08T07:51:33Z</time>
      </trkpt>
      <trkpt lat="44.94727" lon="5.32349">
        <ele>1081.6</ele>
        <time>2021-10-08T07:51:34Z</time>
      </trkpt>
      <trkpt lat="44.94724" lon="5.32352">
        <ele>1081.6</ele>
        <time>2021-10-08T07:51:35Z</time>
      </trkpt>
      <trkpt lat="44.94722" lon="5.32355">
        <ele>1081.6</ele>
        <time>2021-10-08T07:51:36Z</time>
      </trkpt>
      <trkpt lat="44.94719" lon="5.32359">
        <ele>1081.2</ele>
        <time>2021-10-08T07:51:37Z</time>
      </trkpt>
      <trkpt lat="44.94717" lon="5.32362">
        <ele>1081.6</ele>
        <time>2021-10-08T07:51:38Z</time>
      </trkpt>
      <trkpt lat="44.94715" lon="5.32366">
        <ele>1081.6</ele>
        <time>2021-10-08T07:51:39Z</time>
      </trkpt>
      <trkpt lat="44.94712" lon="5.3237">
        <ele>1081.6</ele>
        <time>2021-10-08T07:51:40Z</time>
      </trkpt>
      <trkpt lat="44.9471" lon="5.32373">
        <ele>1081.6</ele>
        <time>2021-10-08T07:51:41Z</time>
      </trkpt>
      <trkpt lat="44.94708" lon="5.32377">
        <ele>1081.8</ele>
        <time>2021-10-08T07:51:42Z</time>
      </trkpt>
      <trkpt lat="44.94706" lon="5.32381">
        <ele>1081.8</ele>
        <time>2021-10-08T07:51:43Z</time>
      </trkpt>
      <trkpt lat="44.94704" lon="5.32385">
        <ele>1081.8</ele>
        <time>2021-10-08T07:51:44Z</time>
      </trkpt>
      <trkpt lat="44.94702" lon="5.32389">
        <ele>1081.8</ele>
        <time>2021-10-08T07:51:45Z</time>
      </trkpt>
      <trkpt lat="44.94701" lon="5.32392">
        <ele>1082.8</ele>
        <time>2021-10-08T07:51:46Z</time>
      </trkpt>
      <trkpt lat="44.947" lon="5.32396">
        <ele>1082.8</ele>
        <time>2021-10-08T07:51:47Z</time>
      </trkpt>
      <trkpt lat="44.94698" lon="5.32399">
        <ele>1082.8</ele>
        <time>2021-10-08T07:51:48Z</time>
      </trkpt>
      <trkpt lat="44.94697" lon="5.32402">
        <ele>1083.6</ele>
        <time>2021-10-08T07:51:49Z</time>
      </trkpt>
      <trkpt lat="44.94696" lon="5.32405">
        <ele>1083.8</ele>
        <time>2021-10-08T07:51:50Z</time>
      </trkpt>
      <trkpt lat="44.94695" lon="5.32408">
        <ele>1083.8</ele>
        <time>2021-10-08T07:51:51Z</time>
      </trkpt>
      <trkpt lat="44.94694" lon="5.32411">
        <ele>1083.8</ele>
        <time>2021-10-08T07:51:52Z</time>
      </trkpt>
      <trkpt lat="44.94693" lon="5.32414">
        <ele>1084.8</ele>
        <time>2021-10-08T07:51:53Z</time>
      </trkpt>
      <trkpt lat="44.94692" lon="5.32417">
        <ele>1085.4</ele>
        <time>2021-10-08T07:51:54Z</time>
      </trkpt>
      <trkpt lat="44.94691" lon="5.32419">
        <ele>1085.4</ele>
        <time>2021-10-08T07:51:55Z</time>
      </trkpt>
      <trkpt lat="44.9469" lon="5.32422">
        <ele>1085.4</ele>
        <time>2021-10-08T07:51:56Z</time>
      </trkpt>
      <trkpt lat="44.94689" lon="5.32424">
        <ele>1086</ele>
        <time>2021-10-08T07:51:57Z</time>
      </trkpt>
      <trkpt lat="44.94688" lon="5.32426">
        <ele>1086.2</ele>
        <time>2021-10-08T07:51:58Z</time>
      </trkpt>
      <trkpt lat="44.94687" lon="5.32427">
        <ele>1086.2</ele>
        <time>2021-10-08T07:51:59Z</time>
      </trkpt>
      <trkpt lat="44.94687" lon="5.32428">
        <ele>1086.2</ele>
        <time>2021-10-08T07:52:00Z</time>
      </trkpt>
      <trkpt lat="44.94686" lon="5.32429">
        <ele>1086.2</ele>
        <time>2021-10-08T07:52:01Z</time>
      </trkpt>
      <trkpt lat="44.94685" lon="5.32431">
        <ele>1087</ele>
        <time>2021-10-08T07:52:02Z</time>
      </trkpt>
      <trkpt lat="44.94684" lon="5.32434">
        <ele>1087</ele>
        <time>2021-10-08T07:52:03Z</time>
      </trkpt>
      <trkpt lat="44.94683" lon="5.32436">
        <ele>1087</ele>
        <time>2021-10-08T07:52:04Z</time>
      </trkpt>
      <trkpt lat="44.94682" lon="5.32439">
        <ele>1087</ele>
        <time>2021-10-08T07:52:05Z</time>
      </trkpt>
      <trkpt lat="44.9468" lon="5.32441">
        <ele>1087.2</ele>
        <time>2021-10-08T07:52:06Z</time>
      </trkpt>
      <trkpt lat="44.94678" lon="5.32443">
        <ele>1087.2</ele>
        <time>2021-10-08T07:52:07Z</time>
      </trkpt>
      <trkpt lat="44.94676" lon="5.32444">
        <ele>1087.2</ele>
        <time>2021-10-08T07:52:08Z</time>
      </trkpt>
      <trkpt lat="44.94674" lon="5.32446">
        <ele>1088</ele>
        <time>2021-10-08T07:52:09Z</time>
      </trkpt>
      <trkpt lat="44.94671" lon="5.32448">
        <ele>1087.4</ele>
        <time>2021-10-08T07:52:10Z</time>
      </trkpt>
      <trkpt lat="44.94669" lon="5.32449">
        <ele>1087.4</ele>
        <time>2021-10-08T07:52:11Z</time>
      </trkpt>
      <trkpt lat="44.94668" lon="5.32451">
        <ele>1087.4</ele>
        <time>2021-10-08T07:52:12Z</time>
      </trkpt>
      <trkpt lat="44.94666" lon="5.32453">
        <ele>1087.6</ele>
        <time>2021-10-08T07:52:13Z</time>
      </trkpt>
      <trkpt lat="44.94664" lon="5.32455">
        <ele>1087.4</ele>
        <time>2021-10-08T07:52:14Z</time>
      </trkpt>
      <trkpt lat="44.94663" lon="5.32458">
        <ele>1087.4</ele>
        <time>2021-10-08T07:52:15Z</time>
      </trkpt>
      <trkpt lat="44.94662" lon="5.32461">
        <ele>1087.4</ele>
        <time>2021-10-08T07:52:16Z</time>
      </trkpt>
      <trkpt lat="44.94661" lon="5.32463">
        <ele>1087.4</ele>
        <time>2021-10-08T07:52:17Z</time>
      </trkpt>
      <trkpt lat="44.9466" lon="5.32465">
        <ele>1087.8</ele>
        <time>2021-10-08T07:52:18Z</time>
      </trkpt>
      <trkpt lat="44.9466" lon="5.32468">
        <ele>1087.8</ele>
        <time>2021-10-08T07:52:19Z</time>
      </trkpt>
      <trkpt lat="44.9466" lon="5.3247">
        <ele>1087.8</ele>
        <time>2021-10-08T07:52:20Z</time>
      </trkpt>
      <trkpt lat="44.9466" lon="5.32472">
        <ele>1087.8</ele>
        <time>2021-10-08T07:52:21Z</time>
      </trkpt>
      <trkpt lat="44.9466" lon="5.32474">
        <ele>1088</ele>
        <time>2021-10-08T07:52:22Z</time>
      </trkpt>
      <trkpt lat="44.94661" lon="5.32477">
        <ele>1088</ele>
        <time>2021-10-08T07:52:23Z</time>
      </trkpt>
      <trkpt lat="44.94663" lon="5.32479">
        <ele>1088</ele>
        <time>2021-10-08T07:52:24Z</time>
      </trkpt>
      <trkpt lat="44.94665" lon="5.32481">
        <ele>1088</ele>
        <time>2021-10-08T07:52:25Z</time>
      </trkpt>
      <trkpt lat="44.94666" lon="5.32483">
        <ele>1088.8</ele>
        <time>2021-10-08T07:52:26Z</time>
      </trkpt>
      <trkpt lat="44.94668" lon="5.32485">
        <ele>1088.8</ele>
        <time>2021-10-08T07:52:27Z</time>
      </trkpt>
      <trkpt lat="44.9467" lon="5.32487">
        <ele>1088.8</ele>
        <time>2021-10-08T07:52:28Z</time>
      </trkpt>
      <trkpt lat="44.94671" lon="5.32488">
        <ele>1089.8</ele>
        <time>2021-10-08T07:52:29Z</time>
      </trkpt>
      <trkpt lat="44.94672" lon="5.32489">
        <ele>1090</ele>
        <time>2021-10-08T07:52:30Z</time>
      </trkpt>
      <trkpt lat="44.94672" lon="5.32491">
        <ele>1090</ele>
        <time>2021-10-08T07:52:31Z</time>
      </trkpt>
      <trkpt lat="44.94673" lon="5.32492">
        <ele>1090</ele>
        <time>2021-10-08T07:52:32Z</time>
      </trkpt>
      <trkpt lat="44.94673" lon="5.32493">
        <ele>1090.6</ele>
        <time>2021-10-08T07:52:33Z</time>
      </trkpt>
      <trkpt lat="44.94674" lon="5.32493">
        <ele>1090.4</ele>
        <time>2021-10-08T07:52:34Z</time>
      </trkpt>
      <trkpt lat="44.94674" lon="5.32493">
        <ele>1090.4</ele>
        <time>2021-10-08T07:52:35Z</time>
      </trkpt>
      <trkpt lat="44.94658" lon="5.32517">
        <ele>1090.2</ele>
        <time>2021-10-08T07:53:49Z</time>
      </trkpt>
      <trkpt lat="44.94658" lon="5.32518">
        <ele>1091</ele>
        <time>2021-10-08T07:53:50Z</time>
      </trkpt>
      <trkpt lat="44.94658" lon="5.3252">
        <ele>1091</ele>
        <time>2021-10-08T07:53:51Z</time>
      </trkpt>
      <trkpt lat="44.94659" lon="5.32521">
        <ele>1091</ele>
        <time>2021-10-08T07:53:52Z</time>
      </trkpt>
      <trkpt lat="44.94659" lon="5.32522">
        <ele>1091</ele>
        <time>2021-10-08T07:53:53Z</time>
      </trkpt>
      <trkpt lat="44.9466" lon="5.32523">
        <ele>1092</ele>
        <time>2021-10-08T07:53:54Z</time>
      </trkpt>
      <trkpt lat="44.9466" lon="5.32523">
        <ele>1092</ele>
        <time>2021-10-08T07:53:55Z</time>
      </trkpt>
      <trkpt lat="44.94661" lon="5.32524">
        <ele>1092</ele>
        <time>2021-10-08T07:53:56Z</time>
      </trkpt>
      <trkpt lat="44.94661" lon="5.32524">
        <ele>1092.4</ele>
        <time>2021-10-08T07:53:57Z</time>
      </trkpt>
      <trkpt lat="44.94661" lon="5.32524">
        <ele>1092.2</ele>
        <time>2021-10-08T07:53:58Z</time>
      </trkpt>
      <trkpt lat="44.94661" lon="5.3256">
        <ele>1096.6</ele>
        <time>2021-10-08T07:55:01Z</time>
      </trkpt>
      <trkpt lat="44.9466" lon="5.32557">
        <ele>1095.4</ele>
        <time>2021-10-08T07:55:02Z</time>
      </trkpt>
      <trkpt lat="44.94659" lon="5.32555">
        <ele>1095.4</ele>
        <time>2021-10-08T07:55:03Z</time>
      </trkpt>
      <trkpt lat="44.94658" lon="5.32554">
        <ele>1095.4</ele>
        <time>2021-10-08T07:55:04Z</time>
      </trkpt>
      <trkpt lat="44.94657" lon="5.32552">
        <ele>1095.4</ele>
        <time>2021-10-08T07:55:05Z</time>
      </trkpt>
      <trkpt lat="44.94656" lon="5.3255">
        <ele>1094.8</ele>
        <time>2021-10-08T07:55:06Z</time>
      </trkpt>
      <trkpt lat="44.94655" lon="5.32549">
        <ele>1094.8</ele>
        <time>2021-10-08T07:55:07Z</time>
      </trkpt>
      <trkpt lat="44.94655" lon="5.32549">
        <ele>1094.8</ele>
        <time>2021-10-08T07:55:08Z</time>
      </trkpt>
      <trkpt lat="44.94655" lon="5.32549">
        <ele>1094.8</ele>
        <time>2021-10-08T07:55:09Z</time>
      </trkpt>
      <trkpt lat="44.94653" lon="5.32546">
        <ele>1093.4</ele>
        <time>2021-10-08T07:55:17Z</time>
      </trkpt>
      <trkpt lat="44.94651" lon="5.32545">
        <ele>1093</ele>
        <time>2021-10-08T07:55:18Z</time>
      </trkpt>
      <trkpt lat="44.94649" lon="5.32544">
        <ele>1093</ele>
        <time>2021-10-08T07:55:19Z</time>
      </trkpt>
      <trkpt lat="44.94646" lon="5.32544">
        <ele>1093</ele>
        <time>2021-10-08T07:55:20Z</time>
      </trkpt>
      <trkpt lat="44.94644" lon="5.32543">
        <ele>1092</ele>
        <time>2021-10-08T07:55:21Z</time>
      </trkpt>
      <trkpt lat="44.94641" lon="5.32543">
        <ele>1091.8</ele>
        <time>2021-10-08T07:55:22Z</time>
      </trkpt>
      <trkpt lat="44.94639" lon="5.32543">
        <ele>1091.8</ele>
        <time>2021-10-08T07:55:23Z</time>
      </trkpt>
      <trkpt lat="44.94637" lon="5.32544">
        <ele>1091.8</ele>
        <time>2021-10-08T07:55:24Z</time>
      </trkpt>
      <trkpt lat="44.94635" lon="5.32546">
        <ele>1090.8</ele>
        <time>2021-10-08T07:55:25Z</time>
      </trkpt>
      <trkpt lat="44.94633" lon="5.32548">
        <ele>1090.8</ele>
        <time>2021-10-08T07:55:26Z</time>
      </trkpt>
      <trkpt lat="44.94631" lon="5.32547">
        <ele>1090.4</ele>
        <time>2021-10-08T07:55:27Z</time>
      </trkpt>
      <trkpt lat="44.94629" lon="5.32546">
        <ele>1090.4</ele>
        <time>2021-10-08T07:55:28Z</time>
      </trkpt>
      <trkpt lat="44.94627" lon="5.32545">
        <ele>1090.4</ele>
        <time>2021-10-08T07:55:29Z</time>
      </trkpt>
      <trkpt lat="44.94624" lon="5.32543">
        <ele>1089.8</ele>
        <time>2021-10-08T07:55:30Z</time>
      </trkpt>
      <trkpt lat="44.94622" lon="5.32541">
        <ele>1089.8</ele>
        <time>2021-10-08T07:55:31Z</time>
      </trkpt>
      <trkpt lat="44.9462" lon="5.32539">
        <ele>1089.8</ele>
        <time>2021-10-08T07:55:32Z</time>
      </trkpt>
      <trkpt lat="44.94618" lon="5.32537">
        <ele>1088.8</ele>
        <time>2021-10-08T07:55:33Z</time>
      </trkpt>
      <trkpt lat="44.94616" lon="5.32535">
        <ele>1088.2</ele>
        <time>2021-10-08T07:55:34Z</time>
      </trkpt>
      <trkpt lat="44.94614" lon="5.32534">
        <ele>1088.2</ele>
        <time>2021-10-08T07:55:35Z</time>
      </trkpt>
      <trkpt lat="44.94612" lon="5.32531">
        <ele>1088.2</ele>
        <time>2021-10-08T07:55:36Z</time>
      </trkpt>
      <trkpt lat="44.94611" lon="5.32527">
        <ele>1087.2</ele>
        <time>2021-10-08T07:55:37Z</time>
      </trkpt>
      <trkpt lat="44.94609" lon="5.32523">
        <ele>1086.2</ele>
        <time>2021-10-08T07:55:38Z</time>
      </trkpt>
      <trkpt lat="44.94607" lon="5.3252">
        <ele>1086.2</ele>
        <time>2021-10-08T07:55:39Z</time>
      </trkpt>
      <trkpt lat="44.94605" lon="5.32518">
        <ele>1086.2</ele>
        <time>2021-10-08T07:55:40Z</time>
      </trkpt>
      <trkpt lat="44.94604" lon="5.32516">
        <ele>1086.2</ele>
        <time>2021-10-08T07:55:41Z</time>
      </trkpt>
      <trkpt lat="44.94604" lon="5.32514">
        <ele>1086</ele>
        <time>2021-10-08T07:55:42Z</time>
      </trkpt>
      <trkpt lat="44.94603" lon="5.32512">
        <ele>1086</ele>
        <time>2021-10-08T07:55:43Z</time>
      </trkpt>
      <trkpt lat="44.94602" lon="5.3251">
        <ele>1086</ele>
        <time>2021-10-08T07:55:44Z</time>
      </trkpt>
      <trkpt lat="44.94601" lon="5.32509">
        <ele>1086</ele>
        <time>2021-10-08T07:55:45Z</time>
      </trkpt>
      <trkpt lat="44.94599" lon="5.32508">
        <ele>1086</ele>
        <time>2021-10-08T07:55:46Z</time>
      </trkpt>
      <trkpt lat="44.94598" lon="5.32508">
        <ele>1086</ele>
        <time>2021-10-08T07:55:47Z</time>
      </trkpt>
      <trkpt lat="44.94596" lon="5.32508">
        <ele>1086</ele>
        <time>2021-10-08T07:55:48Z</time>
      </trkpt>
      <trkpt lat="44.94594" lon="5.32508">
        <ele>1086</ele>
        <time>2021-10-08T07:55:49Z</time>
      </trkpt>
      <trkpt lat="44.94593" lon="5.32508">
        <ele>1085.8</ele>
        <time>2021-10-08T07:55:50Z</time>
      </trkpt>
      <trkpt lat="44.94591" lon="5.32508">
        <ele>1085.8</ele>
        <time>2021-10-08T07:55:51Z</time>
      </trkpt>
      <trkpt lat="44.94589" lon="5.32508">
        <ele>1085.8</ele>
        <time>2021-10-08T07:55:52Z</time>
      </trkpt>
      <trkpt lat="44.94587" lon="5.32508">
        <ele>1086.4</ele>
        <time>2021-10-08T07:55:53Z</time>
      </trkpt>
      <trkpt lat="44.94585" lon="5.32508">
        <ele>1086</ele>
        <time>2021-10-08T07:55:54Z</time>
      </trkpt>
      <trkpt lat="44.94583" lon="5.32508">
        <ele>1086</ele>
        <time>2021-10-08T07:55:55Z</time>
      </trkpt>
      <trkpt lat="44.94581" lon="5.32508">
        <ele>1086</ele>
        <time>2021-10-08T07:55:56Z</time>
      </trkpt>
      <trkpt lat="44.94579" lon="5.32508">
        <ele>1086</ele>
        <time>2021-10-08T07:55:57Z</time>
      </trkpt>
      <trkpt lat="44.94577" lon="5.32508">
        <ele>1086</ele>
        <time>2021-10-08T07:55:58Z</time>
      </trkpt>
      <trkpt lat="44.94575" lon="5.32508">
        <ele>1086</ele>
        <time>2021-10-08T07:55:59Z</time>
      </trkpt>
      <trkpt lat="44.94573" lon="5.32508">
        <ele>1086</ele>
        <time>2021-10-08T07:56:00Z</time>
      </trkpt>
      <trkpt lat="44.94571" lon="5.32508">
        <ele>1086</ele>
        <time>2021-10-08T07:56:01Z</time>
      </trkpt>
      <trkpt lat="44.94569" lon="5.32508">
        <ele>1086</ele>
        <time>2021-10-08T07:56:02Z</time>
      </trkpt>
      <trkpt lat="44.94568" lon="5.32509">
        <ele>1086</ele>
        <time>2021-10-08T07:56:03Z</time>
      </trkpt>
      <trkpt lat="44.94567" lon="5.32509">
        <ele>1086</ele>
        <time>2021-10-08T07:56:04Z</time>
      </trkpt>
      <trkpt lat="44.94567" lon="5.32509">
        <ele>1086.8</ele>
        <time>2021-10-08T07:56:05Z</time>
      </trkpt>
      <trkpt lat="44.94567" lon="5.32509">
        <ele>1087</ele>
        <time>2021-10-08T07:56:06Z</time>
      </trkpt>
      <trkpt lat="44.94562" lon="5.32509">
        <ele>1086.6</ele>
        <time>2021-10-08T07:57:02Z</time>
      </trkpt>
      <trkpt lat="44.9456" lon="5.32508">
        <ele>1086.6</ele>
        <time>2021-10-08T07:57:03Z</time>
      </trkpt>
      <trkpt lat="44.94558" lon="5.32507">
        <ele>1086.6</ele>
        <time>2021-10-08T07:57:04Z</time>
      </trkpt>
      <trkpt lat="44.94557" lon="5.32507">
        <ele>1087</ele>
        <time>2021-10-08T07:57:05Z</time>
      </trkpt>
      <trkpt lat="44.94555" lon="5.32507">
        <ele>1086.8</ele>
        <time>2021-10-08T07:57:06Z</time>
      </trkpt>
      <trkpt lat="44.94553" lon="5.32507">
        <ele>1086.8</ele>
        <time>2021-10-08T07:57:07Z</time>
      </trkpt>
      <trkpt lat="44.94552" lon="5.32506">
        <ele>1086.8</ele>
        <time>2021-10-08T07:57:08Z</time>
      </trkpt>
      <trkpt lat="44.9455" lon="5.32506">
        <ele>1087</ele>
        <time>2021-10-08T07:57:09Z</time>
      </trkpt>
      <trkpt lat="44.94548" lon="5.32506">
        <ele>1087</ele>
        <time>2021-10-08T07:57:10Z</time>
      </trkpt>
      <trkpt lat="44.94547" lon="5.32505">
        <ele>1087</ele>
        <time>2021-10-08T07:57:11Z</time>
      </trkpt>
      <trkpt lat="44.94545" lon="5.32504">
        <ele>1087</ele>
        <time>2021-10-08T07:57:12Z</time>
      </trkpt>
      <trkpt lat="44.94543" lon="5.32504">
        <ele>1087</ele>
        <time>2021-10-08T07:57:13Z</time>
      </trkpt>
      <trkpt lat="44.94541" lon="5.32504">
        <ele>1087.4</ele>
        <time>2021-10-08T07:57:14Z</time>
      </trkpt>
      <trkpt lat="44.9454" lon="5.32504">
        <ele>1087.4</ele>
        <time>2021-10-08T07:57:15Z</time>
      </trkpt>
      <trkpt lat="44.94538" lon="5.32503">
        <ele>1087.4</ele>
        <time>2021-10-08T07:57:16Z</time>
      </trkpt>
      <trkpt lat="44.94537" lon="5.32503">
        <ele>1087.4</ele>
        <time>2021-10-08T07:57:17Z</time>
      </trkpt>
      <trkpt lat="44.94535" lon="5.32502">
        <ele>1087.6</ele>
        <time>2021-10-08T07:57:18Z</time>
      </trkpt>
      <trkpt lat="44.94534" lon="5.32502">
        <ele>1087.6</ele>
        <time>2021-10-08T07:57:19Z</time>
      </trkpt>
      <trkpt lat="44.94532" lon="5.32501">
        <ele>1087.6</ele>
        <time>2021-10-08T07:57:20Z</time>
      </trkpt>
      <trkpt lat="44.94531" lon="5.32501">
        <ele>1087.6</ele>
        <time>2021-10-08T07:57:21Z</time>
      </trkpt>
      <trkpt lat="44.94529" lon="5.325">
        <ele>1087.6</ele>
        <time>2021-10-08T07:57:22Z</time>
      </trkpt>
      <trkpt lat="44.94528" lon="5.32499">
        <ele>1087.6</ele>
        <time>2021-10-08T07:57:23Z</time>
      </trkpt>
      <trkpt lat="44.94527" lon="5.32498">
        <ele>1087.6</ele>
        <time>2021-10-08T07:57:24Z</time>
      </trkpt>
      <trkpt lat="44.94525" lon="5.32498">
        <ele>1088</ele>
        <time>2021-10-08T07:57:25Z</time>
      </trkpt>
      <trkpt lat="44.94524" lon="5.32497">
        <ele>1088</ele>
        <time>2021-10-08T07:57:26Z</time>
      </trkpt>
      <trkpt lat="44.94522" lon="5.32497">
        <ele>1088</ele>
        <time>2021-10-08T07:57:27Z</time>
      </trkpt>
      <trkpt lat="44.94521" lon="5.32496">
        <ele>1088</ele>
        <time>2021-10-08T07:57:28Z</time>
      </trkpt>
      <trkpt lat="44.94519" lon="5.32496">
        <ele>1088</ele>
        <time>2021-10-08T07:57:29Z</time>
      </trkpt>
      <trkpt lat="44.94518" lon="5.32495">
        <ele>1088.2</ele>
        <time>2021-10-08T07:57:30Z</time>
      </trkpt>
      <trkpt lat="44.94517" lon="5.32494">
        <ele>1088.2</ele>
        <time>2021-10-08T07:57:31Z</time>
      </trkpt>
      <trkpt lat="44.94515" lon="5.32493">
        <ele>1088.2</ele>
        <time>2021-10-08T07:57:32Z</time>
      </trkpt>
      <trkpt lat="44.94514" lon="5.32493">
        <ele>1088.2</ele>
        <time>2021-10-08T07:57:33Z</time>
      </trkpt>
      <trkpt lat="44.94513" lon="5.32492">
        <ele>1088.2</ele>
        <time>2021-10-08T07:57:34Z</time>
      </trkpt>
      <trkpt lat="44.94512" lon="5.32491">
        <ele>1088.2</ele>
        <time>2021-10-08T07:57:35Z</time>
      </trkpt>
      <trkpt lat="44.9451" lon="5.32491">
        <ele>1088.2</ele>
        <time>2021-10-08T07:57:36Z</time>
      </trkpt>
      <trkpt lat="44.94509" lon="5.3249">
        <ele>1088.2</ele>
        <time>2021-10-08T07:57:37Z</time>
      </trkpt>
      <trkpt lat="44.94508" lon="5.32489">
        <ele>1088.4</ele>
        <time>2021-10-08T07:57:38Z</time>
      </trkpt>
      <trkpt lat="44.94506" lon="5.32489">
        <ele>1088.4</ele>
        <time>2021-10-08T07:57:39Z</time>
      </trkpt>
      <trkpt lat="44.94505" lon="5.32488">
        <ele>1088.4</ele>
        <time>2021-10-08T07:57:40Z</time>
      </trkpt>
      <trkpt lat="44.94504" lon="5.32487">
        <ele>1088.4</ele>
        <time>2021-10-08T07:57:41Z</time>
      </trkpt>
      <trkpt lat="44.94503" lon="5.32487">
        <ele>1088.4</ele>
        <time>2021-10-08T07:57:42Z</time>
      </trkpt>
      <trkpt lat="44.94502" lon="5.32486">
        <ele>1088.4</ele>
        <time>2021-10-08T07:57:43Z</time>
      </trkpt>
      <trkpt lat="44.945" lon="5.32485">
        <ele>1088.4</ele>
        <time>2021-10-08T07:57:44Z</time>
      </trkpt>
      <trkpt lat="44.94499" lon="5.32484">
        <ele>1089</ele>
        <time>2021-10-08T07:57:45Z</time>
      </trkpt>
      <trkpt lat="44.94498" lon="5.32484">
        <ele>1089.4</ele>
        <time>2021-10-08T07:57:46Z</time>
      </trkpt>
      <trkpt lat="44.94497" lon="5.32484">
        <ele>1089.4</ele>
        <time>2021-10-08T07:57:47Z</time>
      </trkpt>
      <trkpt lat="44.94495" lon="5.32483">
        <ele>1089.4</ele>
        <time>2021-10-08T07:57:48Z</time>
      </trkpt>
      <trkpt lat="44.94494" lon="5.32482">
        <ele>1089.4</ele>
        <time>2021-10-08T07:57:49Z</time>
      </trkpt>
      <trkpt lat="44.94493" lon="5.32481">
        <ele>1089.4</ele>
        <time>2021-10-08T07:57:50Z</time>
      </trkpt>
      <trkpt lat="44.94491" lon="5.3248">
        <ele>1089.4</ele>
        <time>2021-10-08T07:57:51Z</time>
      </trkpt>
      <trkpt lat="44.9449" lon="5.3248">
        <ele>1089.4</ele>
        <time>2021-10-08T07:57:52Z</time>
      </trkpt>
      <trkpt lat="44.94488" lon="5.32479">
        <ele>1089.4</ele>
        <time>2021-10-08T07:57:53Z</time>
      </trkpt>
      <trkpt lat="44.94487" lon="5.32478">
        <ele>1089.6</ele>
        <time>2021-10-08T07:57:54Z</time>
      </trkpt>
      <trkpt lat="44.94485" lon="5.32477">
        <ele>1089.6</ele>
        <time>2021-10-08T07:57:55Z</time>
      </trkpt>
      <trkpt lat="44.94483" lon="5.32477">
        <ele>1089.6</ele>
        <time>2021-10-08T07:57:56Z</time>
      </trkpt>
      <trkpt lat="44.94481" lon="5.32476">
        <ele>1089.6</ele>
        <time>2021-10-08T07:57:57Z</time>
      </trkpt>
      <trkpt lat="44.94479" lon="5.32475">
        <ele>1089.6</ele>
        <time>2021-10-08T07:57:58Z</time>
      </trkpt>
      <trkpt lat="44.94477" lon="5.32474">
        <ele>1089.6</ele>
        <time>2021-10-08T07:57:59Z</time>
      </trkpt>
      <trkpt lat="44.94475" lon="5.32473">
        <ele>1089.6</ele>
        <time>2021-10-08T07:58:00Z</time>
      </trkpt>
      <trkpt lat="44.94474" lon="5.32472">
        <ele>1089.6</ele>
        <time>2021-10-08T07:58:01Z</time>
      </trkpt>
      <trkpt lat="44.94472" lon="5.32472">
        <ele>1090.2</ele>
        <time>2021-10-08T07:58:02Z</time>
      </trkpt>
      <trkpt lat="44.9447" lon="5.32471">
        <ele>1090.2</ele>
        <time>2021-10-08T07:58:03Z</time>
      </trkpt>
      <trkpt lat="44.94468" lon="5.32469">
        <ele>1090.2</ele>
        <time>2021-10-08T07:58:04Z</time>
      </trkpt>
      <trkpt lat="44.94466" lon="5.32468">
        <ele>1090.2</ele>
        <time>2021-10-08T07:58:05Z</time>
      </trkpt>
      <trkpt lat="44.94465" lon="5.32467">
        <ele>1090</ele>
        <time>2021-10-08T07:58:06Z</time>
      </trkpt>
      <trkpt lat="44.94463" lon="5.32466">
        <ele>1090</ele>
        <time>2021-10-08T07:58:07Z</time>
      </trkpt>
      <trkpt lat="44.94461" lon="5.32465">
        <ele>1090</ele>
        <time>2021-10-08T07:58:08Z</time>
      </trkpt>
      <trkpt lat="44.94459" lon="5.32464">
        <ele>1090.4</ele>
        <time>2021-10-08T07:58:09Z</time>
      </trkpt>
      <trkpt lat="44.94457" lon="5.32462">
        <ele>1090.2</ele>
        <time>2021-10-08T07:58:10Z</time>
      </trkpt>
      <trkpt lat="44.94455" lon="5.32461">
        <ele>1090.2</ele>
        <time>2021-10-08T07:58:11Z</time>
      </trkpt>
      <trkpt lat="44.94453" lon="5.3246">
        <ele>1090.2</ele>
        <time>2021-10-08T07:58:12Z</time>
      </trkpt>
      <trkpt lat="44.94451" lon="5.3246">
        <ele>1091</ele>
        <time>2021-10-08T07:58:13Z</time>
      </trkpt>
      <trkpt lat="44.94449" lon="5.32458">
        <ele>1090.6</ele>
        <time>2021-10-08T07:58:14Z</time>
      </trkpt>
      <trkpt lat="44.94447" lon="5.32457">
        <ele>1090.6</ele>
        <time>2021-10-08T07:58:15Z</time>
      </trkpt>
      <trkpt lat="44.94445" lon="5.32456">
        <ele>1090.6</ele>
        <time>2021-10-08T07:58:16Z</time>
      </trkpt>
      <trkpt lat="44.94443" lon="5.32455">
        <ele>1090.6</ele>
        <time>2021-10-08T07:58:17Z</time>
      </trkpt>
      <trkpt lat="44.94442" lon="5.32454">
        <ele>1090.8</ele>
        <time>2021-10-08T07:58:18Z</time>
      </trkpt>
      <trkpt lat="44.9444" lon="5.32453">
        <ele>1090.8</ele>
        <time>2021-10-08T07:58:19Z</time>
      </trkpt>
      <trkpt lat="44.94438" lon="5.32452">
        <ele>1090.8</ele>
        <time>2021-10-08T07:58:20Z</time>
      </trkpt>
      <trkpt lat="44.94436" lon="5.32451">
        <ele>1091.2</ele>
        <time>2021-10-08T07:58:21Z</time>
      </trkpt>
      <trkpt lat="44.94434" lon="5.3245">
        <ele>1091.2</ele>
        <time>2021-10-08T07:58:22Z</time>
      </trkpt>
      <trkpt lat="44.94432" lon="5.32448">
        <ele>1091.2</ele>
        <time>2021-10-08T07:58:23Z</time>
      </trkpt>
      <trkpt lat="44.9443" lon="5.32447">
        <ele>1091.2</ele>
        <time>2021-10-08T07:58:24Z</time>
      </trkpt>
      <trkpt lat="44.94428" lon="5.32446">
        <ele>1090.8</ele>
        <time>2021-10-08T07:58:25Z</time>
      </trkpt>
      <trkpt lat="44.94426" lon="5.32445">
        <ele>1090.8</ele>
        <time>2021-10-08T07:58:26Z</time>
      </trkpt>
      <trkpt lat="44.94424" lon="5.32444">
        <ele>1090.8</ele>
        <time>2021-10-08T07:58:27Z</time>
      </trkpt>
      <trkpt lat="44.94422" lon="5.32442">
        <ele>1090.8</ele>
        <time>2021-10-08T07:58:28Z</time>
      </trkpt>
      <trkpt lat="44.94421" lon="5.3244">
        <ele>1090.8</ele>
        <time>2021-10-08T07:58:29Z</time>
      </trkpt>
      <trkpt lat="44.94418" lon="5.32439">
        <ele>1091.4</ele>
        <time>2021-10-08T07:58:30Z</time>
      </trkpt>
      <trkpt lat="44.94416" lon="5.32438">
        <ele>1091.4</ele>
        <time>2021-10-08T07:58:31Z</time>
      </trkpt>
      <trkpt lat="44.94414" lon="5.32437">
        <ele>1091.4</ele>
        <time>2021-10-08T07:58:32Z</time>
      </trkpt>
      <trkpt lat="44.94413" lon="5.32436">
        <ele>1092</ele>
        <time>2021-10-08T07:58:33Z</time>
      </trkpt>
      <trkpt lat="44.94411" lon="5.32435">
        <ele>1091.8</ele>
        <time>2021-10-08T07:58:34Z</time>
      </trkpt>
      <trkpt lat="44.94409" lon="5.32434">
        <ele>1091.8</ele>
        <time>2021-10-08T07:58:35Z</time>
      </trkpt>
      <trkpt lat="44.94407" lon="5.32432">
        <ele>1091.8</ele>
        <time>2021-10-08T07:58:36Z</time>
      </trkpt>
      <trkpt lat="44.94405" lon="5.32431">
        <ele>1092.4</ele>
        <time>2021-10-08T07:58:37Z</time>
      </trkpt>
      <trkpt lat="44.94403" lon="5.3243">
        <ele>1092.6</ele>
        <time>2021-10-08T07:58:38Z</time>
      </trkpt>
      <trkpt lat="44.94401" lon="5.32428">
        <ele>1092.6</ele>
        <time>2021-10-08T07:58:39Z</time>
      </trkpt>
      <trkpt lat="44.94399" lon="5.32427">
        <ele>1092.6</ele>
        <time>2021-10-08T07:58:40Z</time>
      </trkpt>
      <trkpt lat="44.94397" lon="5.32426">
        <ele>1092.6</ele>
        <time>2021-10-08T07:58:41Z</time>
      </trkpt>
      <trkpt lat="44.94394" lon="5.32424">
        <ele>1092.4</ele>
        <time>2021-10-08T07:58:42Z</time>
      </trkpt>
      <trkpt lat="44.94392" lon="5.32423">
        <ele>1092.4</ele>
        <time>2021-10-08T07:58:43Z</time>
      </trkpt>
      <trkpt lat="44.9439" lon="5.32422">
        <ele>1092.4</ele>
        <time>2021-10-08T07:58:44Z</time>
      </trkpt>
      <trkpt lat="44.94388" lon="5.32421">
        <ele>1093</ele>
        <time>2021-10-08T07:58:45Z</time>
      </trkpt>
      <trkpt lat="44.94386" lon="5.3242">
        <ele>1093.2</ele>
        <time>2021-10-08T07:58:46Z</time>
      </trkpt>
      <trkpt lat="44.94384" lon="5.32419">
        <ele>1093.2</ele>
        <time>2021-10-08T07:58:47Z</time>
      </trkpt>
      <trkpt lat="44.94382" lon="5.32418">
        <ele>1093.2</ele>
        <time>2021-10-08T07:58:48Z</time>
      </trkpt>
      <trkpt lat="44.9438" lon="5.32417">
        <ele>1093.2</ele>
        <time>2021-10-08T07:58:49Z</time>
      </trkpt>
      <trkpt lat="44.94378" lon="5.32415">
        <ele>1093.6</ele>
        <time>2021-10-08T07:58:50Z</time>
      </trkpt>
      <trkpt lat="44.94376" lon="5.32414">
        <ele>1093.6</ele>
        <time>2021-10-08T07:58:51Z</time>
      </trkpt>
      <trkpt lat="44.94374" lon="5.32413">
        <ele>1093.6</ele>
        <time>2021-10-08T07:58:52Z</time>
      </trkpt>
      <trkpt lat="44.94372" lon="5.32412">
        <ele>1094</ele>
        <time>2021-10-08T07:58:53Z</time>
      </trkpt>
      <trkpt lat="44.9437" lon="5.32411">
        <ele>1094.2</ele>
        <time>2021-10-08T07:58:54Z</time>
      </trkpt>
      <trkpt lat="44.94368" lon="5.32409">
        <ele>1094.2</ele>
        <time>2021-10-08T07:58:55Z</time>
      </trkpt>
      <trkpt lat="44.94367" lon="5.32408">
        <ele>1094.2</ele>
        <time>2021-10-08T07:58:56Z</time>
      </trkpt>
      <trkpt lat="44.94365" lon="5.32407">
        <ele>1094.6</ele>
        <time>2021-10-08T07:58:57Z</time>
      </trkpt>
      <trkpt lat="44.94362" lon="5.32406">
        <ele>1095.2</ele>
        <time>2021-10-08T07:58:58Z</time>
      </trkpt>
      <trkpt lat="44.94361" lon="5.32405">
        <ele>1095.2</ele>
        <time>2021-10-08T07:58:59Z</time>
      </trkpt>
      <trkpt lat="44.94359" lon="5.32404">
        <ele>1095.2</ele>
        <time>2021-10-08T07:59:00Z</time>
      </trkpt>
      <trkpt lat="44.94357" lon="5.32402">
        <ele>1095.2</ele>
        <time>2021-10-08T07:59:01Z</time>
      </trkpt>
      <trkpt lat="44.94355" lon="5.32401">
        <ele>1095.4</ele>
        <time>2021-10-08T07:59:02Z</time>
      </trkpt>
      <trkpt lat="44.94353" lon="5.324">
        <ele>1095.4</ele>
        <time>2021-10-08T07:59:03Z</time>
      </trkpt>
      <trkpt lat="44.94351" lon="5.32399">
        <ele>1095.4</ele>
        <time>2021-10-08T07:59:04Z</time>
      </trkpt>
      <trkpt lat="44.94349" lon="5.32398">
        <ele>1095.6</ele>
        <time>2021-10-08T07:59:05Z</time>
      </trkpt>
      <trkpt lat="44.94348" lon="5.32396">
        <ele>1095.4</ele>
        <time>2021-10-08T07:59:06Z</time>
      </trkpt>
      <trkpt lat="44.94346" lon="5.32395">
        <ele>1095.4</ele>
        <time>2021-10-08T07:59:07Z</time>
      </trkpt>
      <trkpt lat="44.94344" lon="5.32394">
        <ele>1095.4</ele>
        <time>2021-10-08T07:59:08Z</time>
      </trkpt>
      <trkpt lat="44.94342" lon="5.32393">
        <ele>1096.4</ele>
        <time>2021-10-08T07:59:09Z</time>
      </trkpt>
      <trkpt lat="44.9434" lon="5.32392">
        <ele>1096.2</ele>
        <time>2021-10-08T07:59:10Z</time>
      </trkpt>
      <trkpt lat="44.94338" lon="5.32391">
        <ele>1096.2</ele>
        <time>2021-10-08T07:59:11Z</time>
      </trkpt>
      <trkpt lat="44.94336" lon="5.32389">
        <ele>1096.2</ele>
        <time>2021-10-08T07:59:12Z</time>
      </trkpt>
      <trkpt lat="44.94335" lon="5.32388">
        <ele>1096.8</ele>
        <time>2021-10-08T07:59:13Z</time>
      </trkpt>
      <trkpt lat="44.94333" lon="5.32387">
        <ele>1096.6</ele>
        <time>2021-10-08T07:59:14Z</time>
      </trkpt>
      <trkpt lat="44.94331" lon="5.32386">
        <ele>1096.6</ele>
        <time>2021-10-08T07:59:15Z</time>
      </trkpt>
      <trkpt lat="44.94329" lon="5.32385">
        <ele>1096.6</ele>
        <time>2021-10-08T07:59:16Z</time>
      </trkpt>
      <trkpt lat="44.94327" lon="5.32383">
        <ele>1096.6</ele>
        <time>2021-10-08T07:59:17Z</time>
      </trkpt>
      <trkpt lat="44.94325" lon="5.32382">
        <ele>1097.2</ele>
        <time>2021-10-08T07:59:18Z</time>
      </trkpt>
      <trkpt lat="44.94324" lon="5.32381">
        <ele>1097.2</ele>
        <time>2021-10-08T07:59:19Z</time>
      </trkpt>
      <trkpt lat="44.94322" lon="5.3238">
        <ele>1097.2</ele>
        <time>2021-10-08T07:59:20Z</time>
      </trkpt>
      <trkpt lat="44.9432" lon="5.32378">
        <ele>1097.2</ele>
        <time>2021-10-08T07:59:21Z</time>
      </trkpt>
      <trkpt lat="44.94318" lon="5.32377">
        <ele>1097.6</ele>
        <time>2021-10-08T07:59:22Z</time>
      </trkpt>
      <trkpt lat="44.94316" lon="5.32376">
        <ele>1097.6</ele>
        <time>2021-10-08T07:59:23Z</time>
      </trkpt>
      <trkpt lat="44.94315" lon="5.32375">
        <ele>1097.6</ele>
        <time>2021-10-08T07:59:24Z</time>
      </trkpt>
      <trkpt lat="44.94313" lon="5.32373">
        <ele>1097.6</ele>
        <time>2021-10-08T07:59:25Z</time>
      </trkpt>
      <trkpt lat="44.94311" lon="5.32372">
        <ele>1098.6</ele>
        <time>2021-10-08T07:59:26Z</time>
      </trkpt>
      <trkpt lat="44.94309" lon="5.32371">
        <ele>1098.6</ele>
        <time>2021-10-08T07:59:27Z</time>
      </trkpt>
      <trkpt lat="44.94308" lon="5.32369">
        <ele>1098.6</ele>
        <time>2021-10-08T07:59:28Z</time>
      </trkpt>
      <trkpt lat="44.94306" lon="5.32368">
        <ele>1098.4</ele>
        <time>2021-10-08T07:59:29Z</time>
      </trkpt>
      <trkpt lat="44.94304" lon="5.32367">
        <ele>1099</ele>
        <time>2021-10-08T07:59:30Z</time>
      </trkpt>
      <trkpt lat="44.94302" lon="5.32365">
        <ele>1099</ele>
        <time>2021-10-08T07:59:31Z</time>
      </trkpt>
      <trkpt lat="44.943" lon="5.32364">
        <ele>1099</ele>
        <time>2021-10-08T07:59:32Z</time>
      </trkpt>
      <trkpt lat="44.94298" lon="5.32363">
        <ele>1099</ele>
        <time>2021-10-08T07:59:33Z</time>
      </trkpt>
      <trkpt lat="44.94296" lon="5.32362">
        <ele>1099.2</ele>
        <time>2021-10-08T07:59:34Z</time>
      </trkpt>
      <trkpt lat="44.94294" lon="5.3236">
        <ele>1099.2</ele>
        <time>2021-10-08T07:59:35Z</time>
      </trkpt>
      <trkpt lat="44.94292" lon="5.32359">
        <ele>1099.2</ele>
        <time>2021-10-08T07:59:36Z</time>
      </trkpt>
      <trkpt lat="44.94291" lon="5.32358">
        <ele>1099.2</ele>
        <time>2021-10-08T07:59:37Z</time>
      </trkpt>
      <trkpt lat="44.94289" lon="5.32357">
        <ele>1099.6</ele>
        <time>2021-10-08T07:59:38Z</time>
      </trkpt>
      <trkpt lat="44.94286" lon="5.32356">
        <ele>1099.6</ele>
        <time>2021-10-08T07:59:39Z</time>
      </trkpt>
      <trkpt lat="44.94284" lon="5.32355">
        <ele>1099.6</ele>
        <time>2021-10-08T07:59:40Z</time>
      </trkpt>
      <trkpt lat="44.94282" lon="5.32353">
        <ele>1099.6</ele>
        <time>2021-10-08T07:59:41Z</time>
      </trkpt>
      <trkpt lat="44.9428" lon="5.32352">
        <ele>1100</ele>
        <time>2021-10-08T07:59:42Z</time>
      </trkpt>
      <trkpt lat="44.94278" lon="5.32351">
        <ele>1100</ele>
        <time>2021-10-08T07:59:43Z</time>
      </trkpt>
      <trkpt lat="44.94276" lon="5.32351">
        <ele>1100</ele>
        <time>2021-10-08T07:59:44Z</time>
      </trkpt>
      <trkpt lat="44.94274" lon="5.3235">
        <ele>1100</ele>
        <time>2021-10-08T07:59:45Z</time>
      </trkpt>
      <trkpt lat="44.94272" lon="5.32349">
        <ele>1100.2</ele>
        <time>2021-10-08T07:59:46Z</time>
      </trkpt>
      <trkpt lat="44.9427" lon="5.32348">
        <ele>1100.2</ele>
        <time>2021-10-08T07:59:47Z</time>
      </trkpt>
      <trkpt lat="44.94269" lon="5.32347">
        <ele>1100.2</ele>
        <time>2021-10-08T07:59:48Z</time>
      </trkpt>
      <trkpt lat="44.94267" lon="5.32346">
        <ele>1100.8</ele>
        <time>2021-10-08T07:59:49Z</time>
      </trkpt>
      <trkpt lat="44.94265" lon="5.32345">
        <ele>1100.8</ele>
        <time>2021-10-08T07:59:50Z</time>
      </trkpt>
      <trkpt lat="44.94263" lon="5.32343">
        <ele>1100.8</ele>
        <time>2021-10-08T07:59:51Z</time>
      </trkpt>
      <trkpt lat="44.94261" lon="5.32342">
        <ele>1100.8</ele>
        <time>2021-10-08T07:59:52Z</time>
      </trkpt>
      <trkpt lat="44.94259" lon="5.32341">
        <ele>1101.2</ele>
        <time>2021-10-08T07:59:53Z</time>
      </trkpt>
      <trkpt lat="44.94257" lon="5.3234">
        <ele>1100.8</ele>
        <time>2021-10-08T07:59:54Z</time>
      </trkpt>
      <trkpt lat="44.94255" lon="5.32339">
        <ele>1100.8</ele>
        <time>2021-10-08T07:59:55Z</time>
      </trkpt>
      <trkpt lat="44.94253" lon="5.32338">
        <ele>1100.8</ele>
        <time>2021-10-08T07:59:56Z</time>
      </trkpt>
      <trkpt lat="44.94251" lon="5.32337">
        <ele>1101</ele>
        <time>2021-10-08T07:59:57Z</time>
      </trkpt>
      <trkpt lat="44.94249" lon="5.32335">
        <ele>1101.4</ele>
        <time>2021-10-08T07:59:58Z</time>
      </trkpt>
      <trkpt lat="44.94247" lon="5.32334">
        <ele>1101.4</ele>
        <time>2021-10-08T07:59:59Z</time>
      </trkpt>
      <trkpt lat="44.94244" lon="5.32333">
        <ele>1101.4</ele>
        <time>2021-10-08T08:00:00Z</time>
      </trkpt>
      <trkpt lat="44.94242" lon="5.32332">
        <ele>1101.4</ele>
        <time>2021-10-08T08:00:01Z</time>
      </trkpt>
      <trkpt lat="44.9424" lon="5.32331">
        <ele>1101.2</ele>
        <time>2021-10-08T08:00:02Z</time>
      </trkpt>
      <trkpt lat="44.94238" lon="5.32329">
        <ele>1101.2</ele>
        <time>2021-10-08T08:00:03Z</time>
      </trkpt>
      <trkpt lat="44.94236" lon="5.32328">
        <ele>1101.2</ele>
        <time>2021-10-08T08:00:04Z</time>
      </trkpt>
      <trkpt lat="44.94234" lon="5.32327">
        <ele>1101.8</ele>
        <time>2021-10-08T08:00:05Z</time>
      </trkpt>
      <trkpt lat="44.94232" lon="5.32326">
        <ele>1101.6</ele>
        <time>2021-10-08T08:00:06Z</time>
      </trkpt>
      <trkpt lat="44.9423" lon="5.32325">
        <ele>1101.6</ele>
        <time>2021-10-08T08:00:07Z</time>
      </trkpt>
      <trkpt lat="44.94228" lon="5.32324">
        <ele>1101.6</ele>
        <time>2021-10-08T08:00:08Z</time>
      </trkpt>
      <trkpt lat="44.94226" lon="5.32322">
        <ele>1102.2</ele>
        <time>2021-10-08T08:00:09Z</time>
      </trkpt>
      <trkpt lat="44.94224" lon="5.32321">
        <ele>1102.2</ele>
        <time>2021-10-08T08:00:10Z</time>
      </trkpt>
      <trkpt lat="44.94221" lon="5.3232">
        <ele>1102.2</ele>
        <time>2021-10-08T08:00:11Z</time>
      </trkpt>
      <trkpt lat="44.94219" lon="5.32319">
        <ele>1102.2</ele>
        <time>2021-10-08T08:00:12Z</time>
      </trkpt>
      <trkpt lat="44.94217" lon="5.32318">
        <ele>1102.2</ele>
        <time>2021-10-08T08:00:13Z</time>
      </trkpt>
      <trkpt lat="44.94215" lon="5.32317">
        <ele>1102.6</ele>
        <time>2021-10-08T08:00:14Z</time>
      </trkpt>
      <trkpt lat="44.94213" lon="5.32316">
        <ele>1102.6</ele>
        <time>2021-10-08T08:00:15Z</time>
      </trkpt>
      <trkpt lat="44.94211" lon="5.32314">
        <ele>1102.6</ele>
        <time>2021-10-08T08:00:16Z</time>
      </trkpt>
      <trkpt lat="44.94209" lon="5.32313">
        <ele>1103</ele>
        <time>2021-10-08T08:00:17Z</time>
      </trkpt>
      <trkpt lat="44.94207" lon="5.32312">
        <ele>1102.4</ele>
        <time>2021-10-08T08:00:18Z</time>
      </trkpt>
      <trkpt lat="44.94205" lon="5.32311">
        <ele>1102.4</ele>
        <time>2021-10-08T08:00:19Z</time>
      </trkpt>
      <trkpt lat="44.94203" lon="5.3231">
        <ele>1102.4</ele>
        <time>2021-10-08T08:00:20Z</time>
      </trkpt>
      <trkpt lat="44.94201" lon="5.32309">
        <ele>1103.2</ele>
        <time>2021-10-08T08:00:21Z</time>
      </trkpt>
      <trkpt lat="44.94198" lon="5.32308">
        <ele>1103.2</ele>
        <time>2021-10-08T08:00:22Z</time>
      </trkpt>
      <trkpt lat="44.94196" lon="5.32306">
        <ele>1103.2</ele>
        <time>2021-10-08T08:00:23Z</time>
      </trkpt>
      <trkpt lat="44.94194" lon="5.32305">
        <ele>1103.2</ele>
        <time>2021-10-08T08:00:24Z</time>
      </trkpt>
      <trkpt lat="44.94192" lon="5.32304">
        <ele>1103.2</ele>
        <time>2021-10-08T08:00:25Z</time>
      </trkpt>
      <trkpt lat="44.9419" lon="5.32302">
        <ele>1103.6</ele>
        <time>2021-10-08T08:00:26Z</time>
      </trkpt>
      <trkpt lat="44.94188" lon="5.32301">
        <ele>1103.6</ele>
        <time>2021-10-08T08:00:27Z</time>
      </trkpt>
      <trkpt lat="44.94187" lon="5.323">
        <ele>1103.6</ele>
        <time>2021-10-08T08:00:28Z</time>
      </trkpt>
      <trkpt lat="44.94185" lon="5.32299">
        <ele>1104.4</ele>
        <time>2021-10-08T08:00:29Z</time>
      </trkpt>
      <trkpt lat="44.94183" lon="5.32297">
        <ele>1104.2</ele>
        <time>2021-10-08T08:00:30Z</time>
      </trkpt>
      <trkpt lat="44.94181" lon="5.32296">
        <ele>1104.2</ele>
        <time>2021-10-08T08:00:31Z</time>
      </trkpt>
      <trkpt lat="44.94179" lon="5.32295">
        <ele>1104.2</ele>
        <time>2021-10-08T08:00:32Z</time>
      </trkpt>
      <trkpt lat="44.94177" lon="5.32294">
        <ele>1104.2</ele>
        <time>2021-10-08T08:00:33Z</time>
      </trkpt>
      <trkpt lat="44.94175" lon="5.32292">
        <ele>1105.2</ele>
        <time>2021-10-08T08:00:34Z</time>
      </trkpt>
      <trkpt lat="44.94174" lon="5.32291">
        <ele>1105.2</ele>
        <time>2021-10-08T08:00:35Z</time>
      </trkpt>
      <trkpt lat="44.94172" lon="5.3229">
        <ele>1105.2</ele>
        <time>2021-10-08T08:00:36Z</time>
      </trkpt>
      <trkpt lat="44.9417" lon="5.32289">
        <ele>1105.2</ele>
        <time>2021-10-08T08:00:37Z</time>
      </trkpt>
      <trkpt lat="44.94168" lon="5.32287">
        <ele>1105.4</ele>
        <time>2021-10-08T08:00:38Z</time>
      </trkpt>
      <trkpt lat="44.94166" lon="5.32286">
        <ele>1105.4</ele>
        <time>2021-10-08T08:00:39Z</time>
      </trkpt>
      <trkpt lat="44.94164" lon="5.32285">
        <ele>1105.4</ele>
        <time>2021-10-08T08:00:40Z</time>
      </trkpt>
      <trkpt lat="44.94162" lon="5.32283">
        <ele>1105.4</ele>
        <time>2021-10-08T08:00:41Z</time>
      </trkpt>
      <trkpt lat="44.94161" lon="5.32282">
        <ele>1105.4</ele>
        <time>2021-10-08T08:00:42Z</time>
      </trkpt>
      <trkpt lat="44.94159" lon="5.32281">
        <ele>1105.4</ele>
        <time>2021-10-08T08:00:43Z</time>
      </trkpt>
      <trkpt lat="44.94157" lon="5.3228">
        <ele>1105.4</ele>
        <time>2021-10-08T08:00:44Z</time>
      </trkpt>
      <trkpt lat="44.94155" lon="5.32278">
        <ele>1106.4</ele>
        <time>2021-10-08T08:00:45Z</time>
      </trkpt>
      <trkpt lat="44.94153" lon="5.32277">
        <ele>1106.6</ele>
        <time>2021-10-08T08:00:46Z</time>
      </trkpt>
      <trkpt lat="44.94152" lon="5.32276">
        <ele>1106.6</ele>
        <time>2021-10-08T08:00:47Z</time>
      </trkpt>
      <trkpt lat="44.9415" lon="5.32275">
        <ele>1106.6</ele>
        <time>2021-10-08T08:00:48Z</time>
      </trkpt>
      <trkpt lat="44.94148" lon="5.32274">
        <ele>1106.6</ele>
        <time>2021-10-08T08:00:49Z</time>
      </trkpt>
      <trkpt lat="44.94147" lon="5.32273">
        <ele>1106.8</ele>
        <time>2021-10-08T08:00:50Z</time>
      </trkpt>
      <trkpt lat="44.94146" lon="5.32272">
        <ele>1106.8</ele>
        <time>2021-10-08T08:00:51Z</time>
      </trkpt>
      <trkpt lat="44.94145" lon="5.32271">
        <ele>1106.8</ele>
        <time>2021-10-08T08:00:52Z</time>
      </trkpt>
      <trkpt lat="44.94145" lon="5.32271">
        <ele>1107.4</ele>
        <time>2021-10-08T08:00:53Z</time>
      </trkpt>
      <trkpt lat="44.94131" lon="5.32262">
        <ele>1108.2</ele>
        <time>2021-10-08T08:01:35Z</time>
      </trkpt>
      <trkpt lat="44.94129" lon="5.32261">
        <ele>1108.2</ele>
        <time>2021-10-08T08:01:36Z</time>
      </trkpt>
      <trkpt lat="44.94128" lon="5.3226">
        <ele>1108.2</ele>
        <time>2021-10-08T08:01:37Z</time>
      </trkpt>
      <trkpt lat="44.94126" lon="5.32259">
        <ele>1108.6</ele>
        <time>2021-10-08T08:01:38Z</time>
      </trkpt>
      <trkpt lat="44.94124" lon="5.32258">
        <ele>1108.6</ele>
        <time>2021-10-08T08:01:39Z</time>
      </trkpt>
      <trkpt lat="44.94122" lon="5.32256">
        <ele>1108.6</ele>
        <time>2021-10-08T08:01:40Z</time>
      </trkpt>
      <trkpt lat="44.9412" lon="5.32255">
        <ele>1108.6</ele>
        <time>2021-10-08T08:01:41Z</time>
      </trkpt>
      <trkpt lat="44.94118" lon="5.32254">
        <ele>1109.4</ele>
        <time>2021-10-08T08:01:42Z</time>
      </trkpt>
      <trkpt lat="44.94116" lon="5.32252">
        <ele>1109.4</ele>
        <time>2021-10-08T08:01:43Z</time>
      </trkpt>
      <trkpt lat="44.94115" lon="5.32251">
        <ele>1109.4</ele>
        <time>2021-10-08T08:01:44Z</time>
      </trkpt>
      <trkpt lat="44.94113" lon="5.3225">
        <ele>1109.4</ele>
        <time>2021-10-08T08:01:45Z</time>
      </trkpt>
      <trkpt lat="44.94111" lon="5.32249">
        <ele>1110</ele>
        <time>2021-10-08T08:01:46Z</time>
      </trkpt>
      <trkpt lat="44.94109" lon="5.32248">
        <ele>1110</ele>
        <time>2021-10-08T08:01:47Z</time>
      </trkpt>
      <trkpt lat="44.94107" lon="5.32247">
        <ele>1110</ele>
        <time>2021-10-08T08:01:48Z</time>
      </trkpt>
      <trkpt lat="44.94105" lon="5.32246">
        <ele>1110</ele>
        <time>2021-10-08T08:01:49Z</time>
      </trkpt>
      <trkpt lat="44.94103" lon="5.32245">
        <ele>1110.4</ele>
        <time>2021-10-08T08:01:50Z</time>
      </trkpt>
      <trkpt lat="44.94101" lon="5.32244">
        <ele>1110.4</ele>
        <time>2021-10-08T08:01:51Z</time>
      </trkpt>
      <trkpt lat="44.94099" lon="5.32243">
        <ele>1110.4</ele>
        <time>2021-10-08T08:01:52Z</time>
      </trkpt>
      <trkpt lat="44.94097" lon="5.32242">
        <ele>1110.4</ele>
        <time>2021-10-08T08:01:53Z</time>
      </trkpt>
      <trkpt lat="44.94095" lon="5.32241">
        <ele>1110.6</ele>
        <time>2021-10-08T08:01:54Z</time>
      </trkpt>
      <trkpt lat="44.94093" lon="5.3224">
        <ele>1110.6</ele>
        <time>2021-10-08T08:01:55Z</time>
      </trkpt>
      <trkpt lat="44.94092" lon="5.32239">
        <ele>1110.6</ele>
        <time>2021-10-08T08:01:56Z</time>
      </trkpt>
      <trkpt lat="44.9409" lon="5.32238">
        <ele>1110.6</ele>
        <time>2021-10-08T08:01:57Z</time>
      </trkpt>
      <trkpt lat="44.94088" lon="5.32237">
        <ele>1110.8</ele>
        <time>2021-10-08T08:01:58Z</time>
      </trkpt>
      <trkpt lat="44.94086" lon="5.32237">
        <ele>1110.8</ele>
        <time>2021-10-08T08:01:59Z</time>
      </trkpt>
      <trkpt lat="44.94084" lon="5.32236">
        <ele>1110.8</ele>
        <time>2021-10-08T08:02:00Z</time>
      </trkpt>
      <trkpt lat="44.94082" lon="5.32236">
        <ele>1111.2</ele>
        <time>2021-10-08T08:02:01Z</time>
      </trkpt>
      <trkpt lat="44.9408" lon="5.32235">
        <ele>1111.6</ele>
        <time>2021-10-08T08:02:02Z</time>
      </trkpt>
      <trkpt lat="44.94078" lon="5.32234">
        <ele>1111.6</ele>
        <time>2021-10-08T08:02:03Z</time>
      </trkpt>
      <trkpt lat="44.94076" lon="5.32233">
        <ele>1111.6</ele>
        <time>2021-10-08T08:02:04Z</time>
      </trkpt>
      <trkpt lat="44.94074" lon="5.32232">
        <ele>1111.8</ele>
        <time>2021-10-08T08:02:05Z</time>
      </trkpt>
      <trkpt lat="44.94072" lon="5.32231">
        <ele>1111.8</ele>
        <time>2021-10-08T08:02:06Z</time>
      </trkpt>
      <trkpt lat="44.9407" lon="5.3223">
        <ele>1111.8</ele>
        <time>2021-10-08T08:02:07Z</time>
      </trkpt>
      <trkpt lat="44.94068" lon="5.32229">
        <ele>1111.8</ele>
        <time>2021-10-08T08:02:08Z</time>
      </trkpt>
      <trkpt lat="44.94067" lon="5.32228">
        <ele>1112.2</ele>
        <time>2021-10-08T08:02:09Z</time>
      </trkpt>
      <trkpt lat="44.94065" lon="5.32227">
        <ele>1112</ele>
        <time>2021-10-08T08:02:10Z</time>
      </trkpt>
      <trkpt lat="44.94063" lon="5.32226">
        <ele>1112</ele>
        <time>2021-10-08T08:02:11Z</time>
      </trkpt>
      <trkpt lat="44.94061" lon="5.32225">
        <ele>1112</ele>
        <time>2021-10-08T08:02:12Z</time>
      </trkpt>
      <trkpt lat="44.94059" lon="5.32224">
        <ele>1112.6</ele>
        <time>2021-10-08T08:02:13Z</time>
      </trkpt>
      <trkpt lat="44.94057" lon="5.32224">
        <ele>1112.6</ele>
        <time>2021-10-08T08:02:14Z</time>
      </trkpt>
      <trkpt lat="44.94055" lon="5.32223">
        <ele>1112.6</ele>
        <time>2021-10-08T08:02:15Z</time>
      </trkpt>
      <trkpt lat="44.94054" lon="5.32222">
        <ele>1112.6</ele>
        <time>2021-10-08T08:02:16Z</time>
      </trkpt>
      <trkpt lat="44.94052" lon="5.32221">
        <ele>1112.6</ele>
        <time>2021-10-08T08:02:17Z</time>
      </trkpt>
      <trkpt lat="44.9405" lon="5.3222">
        <ele>1113</ele>
        <time>2021-10-08T08:02:18Z</time>
      </trkpt>
      <trkpt lat="44.94048" lon="5.32219">
        <ele>1113</ele>
        <time>2021-10-08T08:02:19Z</time>
      </trkpt>
      <trkpt lat="44.94046" lon="5.32218">
        <ele>1113</ele>
        <time>2021-10-08T08:02:20Z</time>
      </trkpt>
      <trkpt lat="44.94044" lon="5.32217">
        <ele>1113</ele>
        <time>2021-10-08T08:02:21Z</time>
      </trkpt>
      <trkpt lat="44.94042" lon="5.32216">
        <ele>1113.2</ele>
        <time>2021-10-08T08:02:22Z</time>
      </trkpt>
      <trkpt lat="44.9404" lon="5.32215">
        <ele>1113.2</ele>
        <time>2021-10-08T08:02:23Z</time>
      </trkpt>
      <trkpt lat="44.94038" lon="5.32214">
        <ele>1113.2</ele>
        <time>2021-10-08T08:02:24Z</time>
      </trkpt>
      <trkpt lat="44.94036" lon="5.32212">
        <ele>1113.2</ele>
        <time>2021-10-08T08:02:25Z</time>
      </trkpt>
      <trkpt lat="44.94034" lon="5.32211">
        <ele>1113.8</ele>
        <time>2021-10-08T08:02:26Z</time>
      </trkpt>
      <trkpt lat="44.94032" lon="5.3221">
        <ele>1113.8</ele>
        <time>2021-10-08T08:02:27Z</time>
      </trkpt>
      <trkpt lat="44.94031" lon="5.32209">
        <ele>1113.8</ele>
        <time>2021-10-08T08:02:28Z</time>
      </trkpt>
      <trkpt lat="44.94029" lon="5.32208">
        <ele>1113.8</ele>
        <time>2021-10-08T08:02:29Z</time>
      </trkpt>
      <trkpt lat="44.94028" lon="5.32207">
        <ele>1114</ele>
        <time>2021-10-08T08:02:30Z</time>
      </trkpt>
      <trkpt lat="44.94026" lon="5.32206">
        <ele>1114</ele>
        <time>2021-10-08T08:02:31Z</time>
      </trkpt>
      <trkpt lat="44.94025" lon="5.32205">
        <ele>1114</ele>
        <time>2021-10-08T08:02:32Z</time>
      </trkpt>
      <trkpt lat="44.94023" lon="5.32205">
        <ele>1114</ele>
        <time>2021-10-08T08:02:33Z</time>
      </trkpt>
      <trkpt lat="44.94021" lon="5.32204">
        <ele>1114</ele>
        <time>2021-10-08T08:02:34Z</time>
      </trkpt>
      <trkpt lat="44.9402" lon="5.32204">
        <ele>1114</ele>
        <time>2021-10-08T08:02:35Z</time>
      </trkpt>
      <trkpt lat="44.94018" lon="5.32203">
        <ele>1114</ele>
        <time>2021-10-08T08:02:36Z</time>
      </trkpt>
      <trkpt lat="44.94017" lon="5.32203">
        <ele>1114</ele>
        <time>2021-10-08T08:02:37Z</time>
      </trkpt>
      <trkpt lat="44.94015" lon="5.32203">
        <ele>1114.2</ele>
        <time>2021-10-08T08:02:38Z</time>
      </trkpt>
      <trkpt lat="44.94014" lon="5.32203">
        <ele>1114.2</ele>
        <time>2021-10-08T08:02:39Z</time>
      </trkpt>
      <trkpt lat="44.94012" lon="5.32203">
        <ele>1114.2</ele>
        <time>2021-10-08T08:02:40Z</time>
      </trkpt>
      <trkpt lat="44.94011" lon="5.32203">
        <ele>1114.2</ele>
        <time>2021-10-08T08:02:41Z</time>
      </trkpt>
      <trkpt lat="44.94009" lon="5.32202">
        <ele>1114.2</ele>
        <time>2021-10-08T08:02:42Z</time>
      </trkpt>
      <trkpt lat="44.94007" lon="5.32202">
        <ele>1114.2</ele>
        <time>2021-10-08T08:02:43Z</time>
      </trkpt>
      <trkpt lat="44.94005" lon="5.32202">
        <ele>1114.2</ele>
        <time>2021-10-08T08:02:44Z</time>
      </trkpt>
      <trkpt lat="44.94004" lon="5.32201">
        <ele>1114.4</ele>
        <time>2021-10-08T08:02:45Z</time>
      </trkpt>
      <trkpt lat="44.94002" lon="5.32201">
        <ele>1114.6</ele>
        <time>2021-10-08T08:02:46Z</time>
      </trkpt>
      <trkpt lat="44.94" lon="5.32201">
        <ele>1114.6</ele>
        <time>2021-10-08T08:02:47Z</time>
      </trkpt>
      <trkpt lat="44.93998" lon="5.32201">
        <ele>1114.6</ele>
        <time>2021-10-08T08:02:48Z</time>
      </trkpt>
      <trkpt lat="44.93996" lon="5.32201">
        <ele>1114.6</ele>
        <time>2021-10-08T08:02:49Z</time>
      </trkpt>
      <trkpt lat="44.93994" lon="5.322">
        <ele>1114.6</ele>
        <time>2021-10-08T08:02:50Z</time>
      </trkpt>
      <trkpt lat="44.93992" lon="5.32199">
        <ele>1114.6</ele>
        <time>2021-10-08T08:02:51Z</time>
      </trkpt>
      <trkpt lat="44.9399" lon="5.32199">
        <ele>1114.6</ele>
        <time>2021-10-08T08:02:52Z</time>
      </trkpt>
      <trkpt lat="44.93988" lon="5.32198">
        <ele>1114.6</ele>
        <time>2021-10-08T08:02:53Z</time>
      </trkpt>
      <trkpt lat="44.93986" lon="5.32198">
        <ele>1114.4</ele>
        <time>2021-10-08T08:02:54Z</time>
      </trkpt>
      <trkpt lat="44.93985" lon="5.32198">
        <ele>1114.4</ele>
        <time>2021-10-08T08:02:55Z</time>
      </trkpt>
      <trkpt lat="44.93982" lon="5.32198">
        <ele>1114.4</ele>
        <time>2021-10-08T08:02:56Z</time>
      </trkpt>
      <trkpt lat="44.9398" lon="5.32198">
        <ele>1115.2</ele>
        <time>2021-10-08T08:02:57Z</time>
      </trkpt>
      <trkpt lat="44.93978" lon="5.32197">
        <ele>1115</ele>
        <time>2021-10-08T08:02:58Z</time>
      </trkpt>
      <trkpt lat="44.93976" lon="5.32197">
        <ele>1115</ele>
        <time>2021-10-08T08:02:59Z</time>
      </trkpt>
      <trkpt lat="44.93975" lon="5.32196">
        <ele>1115</ele>
        <time>2021-10-08T08:03:00Z</time>
      </trkpt>
      <trkpt lat="44.93973" lon="5.32196">
        <ele>1115.4</ele>
        <time>2021-10-08T08:03:01Z</time>
      </trkpt>
      <trkpt lat="44.93971" lon="5.32197">
        <ele>1115.6</ele>
        <time>2021-10-08T08:03:02Z</time>
      </trkpt>
      <trkpt lat="44.9397" lon="5.32196">
        <ele>1115.6</ele>
        <time>2021-10-08T08:03:03Z</time>
      </trkpt>
      <trkpt lat="44.93969" lon="5.32195">
        <ele>1115.6</ele>
        <time>2021-10-08T08:03:04Z</time>
      </trkpt>
      <trkpt lat="44.93968" lon="5.32195">
        <ele>1115.6</ele>
        <time>2021-10-08T08:03:05Z</time>
      </trkpt>
      <trkpt lat="44.93967" lon="5.32194">
        <ele>1115.8</ele>
        <time>2021-10-08T08:03:06Z</time>
      </trkpt>
      <trkpt lat="44.93966" lon="5.32194">
        <ele>1115.8</ele>
        <time>2021-10-08T08:03:07Z</time>
      </trkpt>
      <trkpt lat="44.93961" lon="5.32195">
        <ele>1115.4</ele>
        <time>2021-10-08T08:04:13Z</time>
      </trkpt>
      <trkpt lat="44.93959" lon="5.32194">
        <ele>1115.2</ele>
        <time>2021-10-08T08:04:14Z</time>
      </trkpt>
      <trkpt lat="44.93957" lon="5.32193">
        <ele>1115.2</ele>
        <time>2021-10-08T08:04:15Z</time>
      </trkpt>
      <trkpt lat="44.93954" lon="5.32192">
        <ele>1115.2</ele>
        <time>2021-10-08T08:04:16Z</time>
      </trkpt>
      <trkpt lat="44.93951" lon="5.32192">
        <ele>1115.2</ele>
        <time>2021-10-08T08:04:17Z</time>
      </trkpt>
      <trkpt lat="44.93949" lon="5.32192">
        <ele>1115.2</ele>
        <time>2021-10-08T08:04:18Z</time>
      </trkpt>
      <trkpt lat="44.93946" lon="5.32192">
        <ele>1115.2</ele>
        <time>2021-10-08T08:04:19Z</time>
      </trkpt>
      <trkpt lat="44.93943" lon="5.32192">
        <ele>1115.2</ele>
        <time>2021-10-08T08:04:20Z</time>
      </trkpt>
      <trkpt lat="44.9394" lon="5.32191">
        <ele>1116</ele>
        <time>2021-10-08T08:04:21Z</time>
      </trkpt>
      <trkpt lat="44.93937" lon="5.32191">
        <ele>1115.6</ele>
        <time>2021-10-08T08:04:22Z</time>
      </trkpt>
      <trkpt lat="44.93935" lon="5.3219">
        <ele>1115.6</ele>
        <time>2021-10-08T08:04:23Z</time>
      </trkpt>
      <trkpt lat="44.93931" lon="5.3219">
        <ele>1115.6</ele>
        <time>2021-10-08T08:04:24Z</time>
      </trkpt>
      <trkpt lat="44.93928" lon="5.32189">
        <ele>1115.6</ele>
        <time>2021-10-08T08:04:25Z</time>
      </trkpt>
      <trkpt lat="44.93925" lon="5.32189">
        <ele>1115.4</ele>
        <time>2021-10-08T08:04:26Z</time>
      </trkpt>
      <trkpt lat="44.93922" lon="5.32189">
        <ele>1115.4</ele>
        <time>2021-10-08T08:04:27Z</time>
      </trkpt>
      <trkpt lat="44.93919" lon="5.32188">
        <ele>1115.4</ele>
        <time>2021-10-08T08:04:28Z</time>
      </trkpt>
      <trkpt lat="44.93916" lon="5.32188">
        <ele>1115.4</ele>
        <time>2021-10-08T08:04:29Z</time>
      </trkpt>
      <trkpt lat="44.93913" lon="5.32188">
        <ele>1115.4</ele>
        <time>2021-10-08T08:04:30Z</time>
      </trkpt>
      <trkpt lat="44.93909" lon="5.32187">
        <ele>1115.4</ele>
        <time>2021-10-08T08:04:31Z</time>
      </trkpt>
      <trkpt lat="44.93906" lon="5.32187">
        <ele>1115.4</ele>
        <time>2021-10-08T08:04:32Z</time>
      </trkpt>
      <trkpt lat="44.93903" lon="5.32187">
        <ele>1115.4</ele>
        <time>2021-10-08T08:04:33Z</time>
      </trkpt>
      <trkpt lat="44.939" lon="5.32187">
        <ele>1115.6</ele>
        <time>2021-10-08T08:04:34Z</time>
      </trkpt>
      <trkpt lat="44.93897" lon="5.32187">
        <ele>1115.6</ele>
        <time>2021-10-08T08:04:35Z</time>
      </trkpt>
      <trkpt lat="44.93893" lon="5.32187">
        <ele>1115.6</ele>
        <time>2021-10-08T08:04:36Z</time>
      </trkpt>
      <trkpt lat="44.9389" lon="5.32186">
        <ele>1116.2</ele>
        <time>2021-10-08T08:04:37Z</time>
      </trkpt>
      <trkpt lat="44.93887" lon="5.32186">
        <ele>1116.4</ele>
        <time>2021-10-08T08:04:38Z</time>
      </trkpt>
      <trkpt lat="44.93884" lon="5.32185">
        <ele>1116.4</ele>
        <time>2021-10-08T08:04:39Z</time>
      </trkpt>
      <trkpt lat="44.93881" lon="5.32185">
        <ele>1116.4</ele>
        <time>2021-10-08T08:04:40Z</time>
      </trkpt>
      <trkpt lat="44.93878" lon="5.32184">
        <ele>1116.8</ele>
        <time>2021-10-08T08:04:41Z</time>
      </trkpt>
      <trkpt lat="44.93875" lon="5.32184">
        <ele>1117</ele>
        <time>2021-10-08T08:04:42Z</time>
      </trkpt>
      <trkpt lat="44.93873" lon="5.32183">
        <ele>1117</ele>
        <time>2021-10-08T08:04:43Z</time>
      </trkpt>
      <trkpt lat="44.9387" lon="5.32183">
        <ele>1117</ele>
        <time>2021-10-08T08:04:44Z</time>
      </trkpt>
      <trkpt lat="44.93867" lon="5.32182">
        <ele>1117</ele>
        <time>2021-10-08T08:04:45Z</time>
      </trkpt>
      <trkpt lat="44.93864" lon="5.32182">
        <ele>1117</ele>
        <time>2021-10-08T08:04:46Z</time>
      </trkpt>
      <trkpt lat="44.93861" lon="5.32181">
        <ele>1117</ele>
        <time>2021-10-08T08:04:47Z</time>
      </trkpt>
      <trkpt lat="44.93859" lon="5.32181">
        <ele>1117</ele>
        <time>2021-10-08T08:04:48Z</time>
      </trkpt>
      <trkpt lat="44.93856" lon="5.3218">
        <ele>1117</ele>
        <time>2021-10-08T08:04:49Z</time>
      </trkpt>
      <trkpt lat="44.93853" lon="5.3218">
        <ele>1117.4</ele>
        <time>2021-10-08T08:04:50Z</time>
      </trkpt>
      <trkpt lat="44.93851" lon="5.3218">
        <ele>1117.4</ele>
        <time>2021-10-08T08:04:51Z</time>
      </trkpt>
      <trkpt lat="44.93849" lon="5.32179">
        <ele>1117.4</ele>
        <time>2021-10-08T08:04:52Z</time>
      </trkpt>
      <trkpt lat="44.93846" lon="5.32179">
        <ele>1117.6</ele>
        <time>2021-10-08T08:04:53Z</time>
      </trkpt>
      <trkpt lat="44.93844" lon="5.32178">
        <ele>1117.2</ele>
        <time>2021-10-08T08:04:54Z</time>
      </trkpt>
      <trkpt lat="44.93841" lon="5.32178">
        <ele>1117.2</ele>
        <time>2021-10-08T08:04:55Z</time>
      </trkpt>
      <trkpt lat="44.93839" lon="5.32177">
        <ele>1117.2</ele>
        <time>2021-10-08T08:04:56Z</time>
      </trkpt>
      <trkpt lat="44.93837" lon="5.32177">
        <ele>1117.4</ele>
        <time>2021-10-08T08:04:57Z</time>
      </trkpt>
      <trkpt lat="44.93834" lon="5.32177">
        <ele>1117.4</ele>
        <time>2021-10-08T08:04:58Z</time>
      </trkpt>
      <trkpt lat="44.93832" lon="5.32176">
        <ele>1117.4</ele>
        <time>2021-10-08T08:04:59Z</time>
      </trkpt>
      <trkpt lat="44.9383" lon="5.32176">
        <ele>1117.4</ele>
        <time>2021-10-08T08:05:00Z</time>
      </trkpt>
      <trkpt lat="44.93828" lon="5.32175">
        <ele>1117.8</ele>
        <time>2021-10-08T08:05:01Z</time>
      </trkpt>
      <trkpt lat="44.93826" lon="5.32174">
        <ele>1118.2</ele>
        <time>2021-10-08T08:05:02Z</time>
      </trkpt>
      <trkpt lat="44.93825" lon="5.32174">
        <ele>1118.2</ele>
        <time>2021-10-08T08:05:03Z</time>
      </trkpt>
      <trkpt lat="44.93823" lon="5.32173">
        <ele>1118.2</ele>
        <time>2021-10-08T08:05:04Z</time>
      </trkpt>
      <trkpt lat="44.93823" lon="5.32172">
        <ele>1118.2</ele>
        <time>2021-10-08T08:05:05Z</time>
      </trkpt>
      <trkpt lat="44.93823" lon="5.32172">
        <ele>1118</ele>
        <time>2021-10-08T08:05:06Z</time>
      </trkpt>
      <trkpt lat="44.9381" lon="5.32173">
        <ele>1118.4</ele>
        <time>2021-10-08T08:05:46Z</time>
      </trkpt>
      <trkpt lat="44.93808" lon="5.32173">
        <ele>1118.4</ele>
        <time>2021-10-08T08:05:47Z</time>
      </trkpt>
      <trkpt lat="44.93806" lon="5.32173">
        <ele>1118.4</ele>
        <time>2021-10-08T08:05:48Z</time>
      </trkpt>
      <trkpt lat="44.93805" lon="5.32174">
        <ele>1118.4</ele>
        <time>2021-10-08T08:05:49Z</time>
      </trkpt>
      <trkpt lat="44.93803" lon="5.32173">
        <ele>1118.6</ele>
        <time>2021-10-08T08:05:50Z</time>
      </trkpt>
      <trkpt lat="44.93801" lon="5.32173">
        <ele>1118.6</ele>
        <time>2021-10-08T08:05:51Z</time>
      </trkpt>
      <trkpt lat="44.938" lon="5.32174">
        <ele>1118.6</ele>
        <time>2021-10-08T08:05:52Z</time>
      </trkpt>
      <trkpt lat="44.93797" lon="5.32174">
        <ele>1118.6</ele>
        <time>2021-10-08T08:05:53Z</time>
      </trkpt>
      <trkpt lat="44.93795" lon="5.32175">
        <ele>1118.8</ele>
        <time>2021-10-08T08:05:54Z</time>
      </trkpt>
      <trkpt lat="44.93793" lon="5.32175">
        <ele>1118.8</ele>
        <time>2021-10-08T08:05:55Z</time>
      </trkpt>
      <trkpt lat="44.9379" lon="5.32176">
        <ele>1118.8</ele>
        <time>2021-10-08T08:05:56Z</time>
      </trkpt>
      <trkpt lat="44.93788" lon="5.32177">
        <ele>1119.6</ele>
        <time>2021-10-08T08:05:57Z</time>
      </trkpt>
      <trkpt lat="44.93786" lon="5.32178">
        <ele>1119.8</ele>
        <time>2021-10-08T08:05:58Z</time>
      </trkpt>
      <trkpt lat="44.93784" lon="5.32178">
        <ele>1119.8</ele>
        <time>2021-10-08T08:05:59Z</time>
      </trkpt>
      <trkpt lat="44.93782" lon="5.32178">
        <ele>1119.8</ele>
        <time>2021-10-08T08:06:00Z</time>
      </trkpt>
      <trkpt lat="44.93779" lon="5.32179">
        <ele>1119.8</ele>
        <time>2021-10-08T08:06:01Z</time>
      </trkpt>
      <trkpt lat="44.93778" lon="5.32178">
        <ele>1120</ele>
        <time>2021-10-08T08:06:02Z</time>
      </trkpt>
      <trkpt lat="44.93776" lon="5.32179">
        <ele>1120</ele>
        <time>2021-10-08T08:06:03Z</time>
      </trkpt>
      <trkpt lat="44.93773" lon="5.32178">
        <ele>1120</ele>
        <time>2021-10-08T08:06:04Z</time>
      </trkpt>
      <trkpt lat="44.93771" lon="5.32177">
        <ele>1120.8</ele>
        <time>2021-10-08T08:06:05Z</time>
      </trkpt>
      <trkpt lat="44.93769" lon="5.32177">
        <ele>1120.8</ele>
        <time>2021-10-08T08:06:06Z</time>
      </trkpt>
      <trkpt lat="44.93765" lon="5.32176">
        <ele>1120.8</ele>
        <time>2021-10-08T08:06:07Z</time>
      </trkpt>
      <trkpt lat="44.93763" lon="5.32176">
        <ele>1120.8</ele>
        <time>2021-10-08T08:06:08Z</time>
      </trkpt>
      <trkpt lat="44.93761" lon="5.32174">
        <ele>1121.4</ele>
        <time>2021-10-08T08:06:09Z</time>
      </trkpt>
      <trkpt lat="44.9376" lon="5.32174">
        <ele>1121.6</ele>
        <time>2021-10-08T08:06:10Z</time>
      </trkpt>
      <trkpt lat="44.93759" lon="5.32173">
        <ele>1121.6</ele>
        <time>2021-10-08T08:06:11Z</time>
      </trkpt>
      <trkpt lat="44.93757" lon="5.32172">
        <ele>1121.6</ele>
        <time>2021-10-08T08:06:12Z</time>
      </trkpt>
      <trkpt lat="44.93755" lon="5.32171">
        <ele>1121.6</ele>
        <time>2021-10-08T08:06:13Z</time>
      </trkpt>
      <trkpt lat="44.93753" lon="5.3217">
        <ele>1121.2</ele>
        <time>2021-10-08T08:06:14Z</time>
      </trkpt>
      <trkpt lat="44.9375" lon="5.32169">
        <ele>1121.2</ele>
        <time>2021-10-08T08:06:15Z</time>
      </trkpt>
      <trkpt lat="44.93748" lon="5.32167">
        <ele>1121.2</ele>
        <time>2021-10-08T08:06:16Z</time>
      </trkpt>
      <trkpt lat="44.93745" lon="5.32165">
        <ele>1122.2</ele>
        <time>2021-10-08T08:06:17Z</time>
      </trkpt>
      <trkpt lat="44.93742" lon="5.32165">
        <ele>1121.8</ele>
        <time>2021-10-08T08:06:18Z</time>
      </trkpt>
      <trkpt lat="44.93739" lon="5.32165">
        <ele>1121.8</ele>
        <time>2021-10-08T08:06:19Z</time>
      </trkpt>
      <trkpt lat="44.93737" lon="5.32165">
        <ele>1121.8</ele>
        <time>2021-10-08T08:06:20Z</time>
      </trkpt>
      <trkpt lat="44.93734" lon="5.32165">
        <ele>1122.8</ele>
        <time>2021-10-08T08:06:21Z</time>
      </trkpt>
      <trkpt lat="44.93732" lon="5.32165">
        <ele>1122.4</ele>
        <time>2021-10-08T08:06:22Z</time>
      </trkpt>
      <trkpt lat="44.93729" lon="5.32163">
        <ele>1122.4</ele>
        <time>2021-10-08T08:06:23Z</time>
      </trkpt>
      <trkpt lat="44.93727" lon="5.32162">
        <ele>1122.4</ele>
        <time>2021-10-08T08:06:24Z</time>
      </trkpt>
      <trkpt lat="44.93725" lon="5.32161">
        <ele>1122.4</ele>
        <time>2021-10-08T08:06:25Z</time>
      </trkpt>
      <trkpt lat="44.93722" lon="5.3216">
        <ele>1122.6</ele>
        <time>2021-10-08T08:06:26Z</time>
      </trkpt>
      <trkpt lat="44.9372" lon="5.32159">
        <ele>1122.6</ele>
        <time>2021-10-08T08:06:27Z</time>
      </trkpt>
      <trkpt lat="44.93718" lon="5.32159">
        <ele>1122.6</ele>
        <time>2021-10-08T08:06:28Z</time>
      </trkpt>
      <trkpt lat="44.93716" lon="5.32158">
        <ele>1123</ele>
        <time>2021-10-08T08:06:29Z</time>
      </trkpt>
      <trkpt lat="44.93714" lon="5.32158">
        <ele>1123.6</ele>
        <time>2021-10-08T08:06:30Z</time>
      </trkpt>
      <trkpt lat="44.93711" lon="5.32159">
        <ele>1123.6</ele>
        <time>2021-10-08T08:06:31Z</time>
      </trkpt>
      <trkpt lat="44.93709" lon="5.32159">
        <ele>1123.6</ele>
        <time>2021-10-08T08:06:32Z</time>
      </trkpt>
      <trkpt lat="44.93707" lon="5.32158">
        <ele>1123.6</ele>
        <time>2021-10-08T08:06:33Z</time>
      </trkpt>
      <trkpt lat="44.93705" lon="5.32157">
        <ele>1124</ele>
        <time>2021-10-08T08:06:34Z</time>
      </trkpt>
      <trkpt lat="44.93703" lon="5.32157">
        <ele>1124</ele>
        <time>2021-10-08T08:06:35Z</time>
      </trkpt>
      <trkpt lat="44.93701" lon="5.32156">
        <ele>1124</ele>
        <time>2021-10-08T08:06:36Z</time>
      </trkpt>
      <trkpt lat="44.93699" lon="5.32155">
        <ele>1125</ele>
        <time>2021-10-08T08:06:37Z</time>
      </trkpt>
      <trkpt lat="44.93696" lon="5.32155">
        <ele>1124.2</ele>
        <time>2021-10-08T08:06:38Z</time>
      </trkpt>
      <trkpt lat="44.93694" lon="5.32155">
        <ele>1124.2</ele>
        <time>2021-10-08T08:06:39Z</time>
      </trkpt>
      <trkpt lat="44.93692" lon="5.32154">
        <ele>1124.2</ele>
        <time>2021-10-08T08:06:40Z</time>
      </trkpt>
      <trkpt lat="44.9369" lon="5.32154">
        <ele>1124.2</ele>
        <time>2021-10-08T08:06:41Z</time>
      </trkpt>
      <trkpt lat="44.93688" lon="5.32153">
        <ele>1124.2</ele>
        <time>2021-10-08T08:06:42Z</time>
      </trkpt>
      <trkpt lat="44.93686" lon="5.32153">
        <ele>1124.2</ele>
        <time>2021-10-08T08:06:43Z</time>
      </trkpt>
      <trkpt lat="44.93684" lon="5.32153">
        <ele>1124.2</ele>
        <time>2021-10-08T08:06:44Z</time>
      </trkpt>
      <trkpt lat="44.93683" lon="5.32152">
        <ele>1124.8</ele>
        <time>2021-10-08T08:06:45Z</time>
      </trkpt>
      <trkpt lat="44.93681" lon="5.32151">
        <ele>1125.4</ele>
        <time>2021-10-08T08:06:46Z</time>
      </trkpt>
      <trkpt lat="44.93679" lon="5.32151">
        <ele>1125.4</ele>
        <time>2021-10-08T08:06:47Z</time>
      </trkpt>
      <trkpt lat="44.93677" lon="5.3215">
        <ele>1125.4</ele>
        <time>2021-10-08T08:06:48Z</time>
      </trkpt>
      <trkpt lat="44.93675" lon="5.3215">
        <ele>1124.6</ele>
        <time>2021-10-08T08:06:49Z</time>
      </trkpt>
      <trkpt lat="44.93673" lon="5.3215">
        <ele>1125.2</ele>
        <time>2021-10-08T08:06:50Z</time>
      </trkpt>
      <trkpt lat="44.93672" lon="5.32149">
        <ele>1125.2</ele>
        <time>2021-10-08T08:06:51Z</time>
      </trkpt>
      <trkpt lat="44.9367" lon="5.32149">
        <ele>1125.2</ele>
        <time>2021-10-08T08:06:52Z</time>
      </trkpt>
      <trkpt lat="44.93668" lon="5.32149">
        <ele>1125.2</ele>
        <time>2021-10-08T08:06:53Z</time>
      </trkpt>
      <trkpt lat="44.93666" lon="5.32148">
        <ele>1125.4</ele>
        <time>2021-10-08T08:06:54Z</time>
      </trkpt>
      <trkpt lat="44.93665" lon="5.32148">
        <ele>1125.4</ele>
        <time>2021-10-08T08:06:55Z</time>
      </trkpt>
      <trkpt lat="44.93664" lon="5.32148">
        <ele>1125.4</ele>
        <time>2021-10-08T08:06:56Z</time>
      </trkpt>
      <trkpt lat="44.93662" lon="5.32148">
        <ele>1125.8</ele>
        <time>2021-10-08T08:06:57Z</time>
      </trkpt>
      <trkpt lat="44.93661" lon="5.32148">
        <ele>1126.8</ele>
        <time>2021-10-08T08:06:58Z</time>
      </trkpt>
      <trkpt lat="44.93659" lon="5.32146">
        <ele>1126.8</ele>
        <time>2021-10-08T08:06:59Z</time>
      </trkpt>
      <trkpt lat="44.93658" lon="5.32145">
        <ele>1126.8</ele>
        <time>2021-10-08T08:07:00Z</time>
      </trkpt>
      <trkpt lat="44.93656" lon="5.32144">
        <ele>1126.8</ele>
        <time>2021-10-08T08:07:01Z</time>
      </trkpt>
      <trkpt lat="44.93654" lon="5.32143">
        <ele>1127.4</ele>
        <time>2021-10-08T08:07:02Z</time>
      </trkpt>
      <trkpt lat="44.93652" lon="5.32142">
        <ele>1127.4</ele>
        <time>2021-10-08T08:07:03Z</time>
      </trkpt>
      <trkpt lat="44.93651" lon="5.32142">
        <ele>1127.4</ele>
        <time>2021-10-08T08:07:04Z</time>
      </trkpt>
      <trkpt lat="44.93649" lon="5.32141">
        <ele>1127.2</ele>
        <time>2021-10-08T08:07:05Z</time>
      </trkpt>
      <trkpt lat="44.93647" lon="5.32141">
        <ele>1126.8</ele>
        <time>2021-10-08T08:07:06Z</time>
      </trkpt>
      <trkpt lat="44.93645" lon="5.32141">
        <ele>1126.8</ele>
        <time>2021-10-08T08:07:07Z</time>
      </trkpt>
      <trkpt lat="44.93643" lon="5.3214">
        <ele>1126.8</ele>
        <time>2021-10-08T08:07:08Z</time>
      </trkpt>
      <trkpt lat="44.93642" lon="5.3214">
        <ele>1127.8</ele>
        <time>2021-10-08T08:07:09Z</time>
      </trkpt>
      <trkpt lat="44.9364" lon="5.32139">
        <ele>1127.6</ele>
        <time>2021-10-08T08:07:10Z</time>
      </trkpt>
      <trkpt lat="44.93638" lon="5.32139">
        <ele>1127.6</ele>
        <time>2021-10-08T08:07:11Z</time>
      </trkpt>
      <trkpt lat="44.93637" lon="5.32138">
        <ele>1127.6</ele>
        <time>2021-10-08T08:07:12Z</time>
      </trkpt>
      <trkpt lat="44.93635" lon="5.32137">
        <ele>1128</ele>
        <time>2021-10-08T08:07:13Z</time>
      </trkpt>
      <trkpt lat="44.93633" lon="5.32136">
        <ele>1127.8</ele>
        <time>2021-10-08T08:07:14Z</time>
      </trkpt>
      <trkpt lat="44.9363" lon="5.32134">
        <ele>1127.8</ele>
        <time>2021-10-08T08:07:15Z</time>
      </trkpt>
      <trkpt lat="44.93629" lon="5.32134">
        <ele>1127.8</ele>
        <time>2021-10-08T08:07:16Z</time>
      </trkpt>
      <trkpt lat="44.93627" lon="5.32134">
        <ele>1127.8</ele>
        <time>2021-10-08T08:07:17Z</time>
      </trkpt>
      <trkpt lat="44.93625" lon="5.32134">
        <ele>1128.2</ele>
        <time>2021-10-08T08:07:18Z</time>
      </trkpt>
      <trkpt lat="44.93623" lon="5.32133">
        <ele>1128.2</ele>
        <time>2021-10-08T08:07:19Z</time>
      </trkpt>
      <trkpt lat="44.93621" lon="5.32132">
        <ele>1128.2</ele>
        <time>2021-10-08T08:07:20Z</time>
      </trkpt>
      <trkpt lat="44.93619" lon="5.32132">
        <ele>1128.8</ele>
        <time>2021-10-08T08:07:21Z</time>
      </trkpt>
      <trkpt lat="44.93617" lon="5.32132">
        <ele>1129.2</ele>
        <time>2021-10-08T08:07:22Z</time>
      </trkpt>
      <trkpt lat="44.93615" lon="5.32132">
        <ele>1129.2</ele>
        <time>2021-10-08T08:07:23Z</time>
      </trkpt>
      <trkpt lat="44.93613" lon="5.32131">
        <ele>1129.2</ele>
        <time>2021-10-08T08:07:24Z</time>
      </trkpt>
      <trkpt lat="44.93612" lon="5.32131">
        <ele>1130</ele>
        <time>2021-10-08T08:07:25Z</time>
      </trkpt>
      <trkpt lat="44.9361" lon="5.32131">
        <ele>1129.8</ele>
        <time>2021-10-08T08:07:26Z</time>
      </trkpt>
      <trkpt lat="44.93609" lon="5.32131">
        <ele>1129.8</ele>
        <time>2021-10-08T08:07:27Z</time>
      </trkpt>
      <trkpt lat="44.93607" lon="5.32131">
        <ele>1129.8</ele>
        <time>2021-10-08T08:07:28Z</time>
      </trkpt>
      <trkpt lat="44.93605" lon="5.3213">
        <ele>1129.8</ele>
        <time>2021-10-08T08:07:29Z</time>
      </trkpt>
      <trkpt lat="44.93603" lon="5.3213">
        <ele>1130</ele>
        <time>2021-10-08T08:07:30Z</time>
      </trkpt>
      <trkpt lat="44.936" lon="5.32129">
        <ele>1130</ele>
        <time>2021-10-08T08:07:31Z</time>
      </trkpt>
      <trkpt lat="44.93598" lon="5.32128">
        <ele>1130</ele>
        <time>2021-10-08T08:07:32Z</time>
      </trkpt>
      <trkpt lat="44.93596" lon="5.32127">
        <ele>1131</ele>
        <time>2021-10-08T08:07:33Z</time>
      </trkpt>
      <trkpt lat="44.93595" lon="5.32127">
        <ele>1131.8</ele>
        <time>2021-10-08T08:07:34Z</time>
      </trkpt>
      <trkpt lat="44.93593" lon="5.32126">
        <ele>1131.8</ele>
        <time>2021-10-08T08:07:35Z</time>
      </trkpt>
      <trkpt lat="44.93591" lon="5.32126">
        <ele>1131.8</ele>
        <time>2021-10-08T08:07:36Z</time>
      </trkpt>
      <trkpt lat="44.93589" lon="5.32125">
        <ele>1131.8</ele>
        <time>2021-10-08T08:07:37Z</time>
      </trkpt>
      <trkpt lat="44.93588" lon="5.32125">
        <ele>1132.4</ele>
        <time>2021-10-08T08:07:38Z</time>
      </trkpt>
      <trkpt lat="44.93586" lon="5.32124">
        <ele>1132.4</ele>
        <time>2021-10-08T08:07:39Z</time>
      </trkpt>
      <trkpt lat="44.93585" lon="5.32123">
        <ele>1132.4</ele>
        <time>2021-10-08T08:07:40Z</time>
      </trkpt>
      <trkpt lat="44.93583" lon="5.32123">
        <ele>1132.4</ele>
        <time>2021-10-08T08:07:41Z</time>
      </trkpt>
      <trkpt lat="44.93582" lon="5.32122">
        <ele>1133</ele>
        <time>2021-10-08T08:07:42Z</time>
      </trkpt>
      <trkpt lat="44.9358" lon="5.32122">
        <ele>1133</ele>
        <time>2021-10-08T08:07:43Z</time>
      </trkpt>
      <trkpt lat="44.93578" lon="5.32121">
        <ele>1133</ele>
        <time>2021-10-08T08:07:44Z</time>
      </trkpt>
      <trkpt lat="44.93576" lon="5.3212">
        <ele>1133.2</ele>
        <time>2021-10-08T08:07:45Z</time>
      </trkpt>
      <trkpt lat="44.93575" lon="5.3212">
        <ele>1133.6</ele>
        <time>2021-10-08T08:07:46Z</time>
      </trkpt>
      <trkpt lat="44.93573" lon="5.32119">
        <ele>1133.6</ele>
        <time>2021-10-08T08:07:47Z</time>
      </trkpt>
      <trkpt lat="44.93571" lon="5.32119">
        <ele>1133.6</ele>
        <time>2021-10-08T08:07:48Z</time>
      </trkpt>
      <trkpt lat="44.93569" lon="5.32118">
        <ele>1133.6</ele>
        <time>2021-10-08T08:07:49Z</time>
      </trkpt>
      <trkpt lat="44.93568" lon="5.32115">
        <ele>1133.6</ele>
        <time>2021-10-08T08:07:50Z</time>
      </trkpt>
      <trkpt lat="44.93566" lon="5.32114">
        <ele>1133.6</ele>
        <time>2021-10-08T08:07:51Z</time>
      </trkpt>
      <trkpt lat="44.93565" lon="5.32113">
        <ele>1133.6</ele>
        <time>2021-10-08T08:07:52Z</time>
      </trkpt>
      <trkpt lat="44.93563" lon="5.32112">
        <ele>1133.6</ele>
        <time>2021-10-08T08:07:53Z</time>
      </trkpt>
      <trkpt lat="44.93562" lon="5.3211">
        <ele>1134.8</ele>
        <time>2021-10-08T08:07:54Z</time>
      </trkpt>
      <trkpt lat="44.93561" lon="5.32109">
        <ele>1134.8</ele>
        <time>2021-10-08T08:07:55Z</time>
      </trkpt>
      <trkpt lat="44.9356" lon="5.32109">
        <ele>1134.8</ele>
        <time>2021-10-08T08:07:56Z</time>
      </trkpt>
      <trkpt lat="44.93558" lon="5.32108">
        <ele>1134.8</ele>
        <time>2021-10-08T08:07:57Z</time>
      </trkpt>
      <trkpt lat="44.93557" lon="5.32108">
        <ele>1135.4</ele>
        <time>2021-10-08T08:07:58Z</time>
      </trkpt>
      <trkpt lat="44.93555" lon="5.32107">
        <ele>1135.4</ele>
        <time>2021-10-08T08:07:59Z</time>
      </trkpt>
      <trkpt lat="44.93553" lon="5.32106">
        <ele>1135.4</ele>
        <time>2021-10-08T08:08:00Z</time>
      </trkpt>
      <trkpt lat="44.93553" lon="5.32106">
        <ele>1135.4</ele>
        <time>2021-10-08T08:08:01Z</time>
      </trkpt>
      <trkpt lat="44.93551" lon="5.32104">
        <ele>1135.4</ele>
        <time>2021-10-08T08:08:02Z</time>
      </trkpt>
      <trkpt lat="44.93549" lon="5.32103">
        <ele>1135.4</ele>
        <time>2021-10-08T08:08:03Z</time>
      </trkpt>
      <trkpt lat="44.93548" lon="5.32103">
        <ele>1135.4</ele>
        <time>2021-10-08T08:08:04Z</time>
      </trkpt>
      <trkpt lat="44.93547" lon="5.32102">
        <ele>1135.4</ele>
        <time>2021-10-08T08:08:05Z</time>
      </trkpt>
      <trkpt lat="44.93545" lon="5.32101">
        <ele>1136</ele>
        <time>2021-10-08T08:08:06Z</time>
      </trkpt>
      <trkpt lat="44.93543" lon="5.321">
        <ele>1136</ele>
        <time>2021-10-08T08:08:07Z</time>
      </trkpt>
      <trkpt lat="44.93541" lon="5.321">
        <ele>1136</ele>
        <time>2021-10-08T08:08:08Z</time>
      </trkpt>
      <trkpt lat="44.9354" lon="5.32099">
        <ele>1136</ele>
        <time>2021-10-08T08:08:09Z</time>
      </trkpt>
      <trkpt lat="44.93537" lon="5.32099">
        <ele>1135.8</ele>
        <time>2021-10-08T08:08:10Z</time>
      </trkpt>
      <trkpt lat="44.93535" lon="5.32099">
        <ele>1135.8</ele>
        <time>2021-10-08T08:08:11Z</time>
      </trkpt>
      <trkpt lat="44.93533" lon="5.32099">
        <ele>1135.8</ele>
        <time>2021-10-08T08:08:12Z</time>
      </trkpt>
      <trkpt lat="44.93531" lon="5.32099">
        <ele>1136.8</ele>
        <time>2021-10-08T08:08:13Z</time>
      </trkpt>
      <trkpt lat="44.9353" lon="5.32099">
        <ele>1136.2</ele>
        <time>2021-10-08T08:08:14Z</time>
      </trkpt>
      <trkpt lat="44.93528" lon="5.321">
        <ele>1136.2</ele>
        <time>2021-10-08T08:08:15Z</time>
      </trkpt>
      <trkpt lat="44.93526" lon="5.321">
        <ele>1136.2</ele>
        <time>2021-10-08T08:08:16Z</time>
      </trkpt>
      <trkpt lat="44.93524" lon="5.32101">
        <ele>1136.2</ele>
        <time>2021-10-08T08:08:17Z</time>
      </trkpt>
      <trkpt lat="44.93521" lon="5.32101">
        <ele>1136.8</ele>
        <time>2021-10-08T08:08:18Z</time>
      </trkpt>
      <trkpt lat="44.93519" lon="5.32103">
        <ele>1136.8</ele>
        <time>2021-10-08T08:08:19Z</time>
      </trkpt>
      <trkpt lat="44.93517" lon="5.32103">
        <ele>1136.8</ele>
        <time>2021-10-08T08:08:20Z</time>
      </trkpt>
      <trkpt lat="44.93516" lon="5.32104">
        <ele>1136.8</ele>
        <time>2021-10-08T08:08:21Z</time>
      </trkpt>
      <trkpt lat="44.93514" lon="5.32105">
        <ele>1136.8</ele>
        <time>2021-10-08T08:08:22Z</time>
      </trkpt>
      <trkpt lat="44.93512" lon="5.32106">
        <ele>1136.8</ele>
        <time>2021-10-08T08:08:23Z</time>
      </trkpt>
      <trkpt lat="44.9351" lon="5.32106">
        <ele>1136.8</ele>
        <time>2021-10-08T08:08:24Z</time>
      </trkpt>
      <trkpt lat="44.93509" lon="5.32106">
        <ele>1137.8</ele>
        <time>2021-10-08T08:08:25Z</time>
      </trkpt>
      <trkpt lat="44.93507" lon="5.32107">
        <ele>1138.6</ele>
        <time>2021-10-08T08:08:26Z</time>
      </trkpt>
      <trkpt lat="44.93505" lon="5.32107">
        <ele>1138.6</ele>
        <time>2021-10-08T08:08:27Z</time>
      </trkpt>
      <trkpt lat="44.93504" lon="5.32107">
        <ele>1138.6</ele>
        <time>2021-10-08T08:08:28Z</time>
      </trkpt>
      <trkpt lat="44.93502" lon="5.32107">
        <ele>1138.6</ele>
        <time>2021-10-08T08:08:29Z</time>
      </trkpt>
      <trkpt lat="44.93501" lon="5.32107">
        <ele>1138.8</ele>
        <time>2021-10-08T08:08:30Z</time>
      </trkpt>
      <trkpt lat="44.93499" lon="5.32107">
        <ele>1138.8</ele>
        <time>2021-10-08T08:08:31Z</time>
      </trkpt>
      <trkpt lat="44.93498" lon="5.32107">
        <ele>1138.8</ele>
        <time>2021-10-08T08:08:32Z</time>
      </trkpt>
      <trkpt lat="44.93496" lon="5.32106">
        <ele>1139.2</ele>
        <time>2021-10-08T08:08:33Z</time>
      </trkpt>
      <trkpt lat="44.93495" lon="5.32105">
        <ele>1139.4</ele>
        <time>2021-10-08T08:08:34Z</time>
      </trkpt>
      <trkpt lat="44.93493" lon="5.32104">
        <ele>1139.4</ele>
        <time>2021-10-08T08:08:35Z</time>
      </trkpt>
      <trkpt lat="44.93491" lon="5.32104">
        <ele>1139.4</ele>
        <time>2021-10-08T08:08:36Z</time>
      </trkpt>
      <trkpt lat="44.93489" lon="5.32104">
        <ele>1139.4</ele>
        <time>2021-10-08T08:08:37Z</time>
      </trkpt>
      <trkpt lat="44.93488" lon="5.32104">
        <ele>1139.8</ele>
        <time>2021-10-08T08:08:38Z</time>
      </trkpt>
      <trkpt lat="44.93486" lon="5.32104">
        <ele>1139.8</ele>
        <time>2021-10-08T08:08:39Z</time>
      </trkpt>
      <trkpt lat="44.93485" lon="5.32103">
        <ele>1139.8</ele>
        <time>2021-10-08T08:08:40Z</time>
      </trkpt>
      <trkpt lat="44.93484" lon="5.32102">
        <ele>1139.8</ele>
        <time>2021-10-08T08:08:41Z</time>
      </trkpt>
      <trkpt lat="44.93482" lon="5.32102">
        <ele>1140.2</ele>
        <time>2021-10-08T08:08:42Z</time>
      </trkpt>
      <trkpt lat="44.9348" lon="5.32101">
        <ele>1140.2</ele>
        <time>2021-10-08T08:08:43Z</time>
      </trkpt>
      <trkpt lat="44.93478" lon="5.32101">
        <ele>1140.2</ele>
        <time>2021-10-08T08:08:44Z</time>
      </trkpt>
      <trkpt lat="44.93476" lon="5.32099">
        <ele>1140.2</ele>
        <time>2021-10-08T08:08:45Z</time>
      </trkpt>
      <trkpt lat="44.93474" lon="5.32099">
        <ele>1140.8</ele>
        <time>2021-10-08T08:08:46Z</time>
      </trkpt>
      <trkpt lat="44.93473" lon="5.32099">
        <ele>1140.8</ele>
        <time>2021-10-08T08:08:47Z</time>
      </trkpt>
      <trkpt lat="44.93471" lon="5.32099">
        <ele>1140.8</ele>
        <time>2021-10-08T08:08:48Z</time>
      </trkpt>
      <trkpt lat="44.9347" lon="5.32098">
        <ele>1140.8</ele>
        <time>2021-10-08T08:08:49Z</time>
      </trkpt>
      <trkpt lat="44.93468" lon="5.32098">
        <ele>1141.4</ele>
        <time>2021-10-08T08:08:50Z</time>
      </trkpt>
      <trkpt lat="44.93466" lon="5.32098">
        <ele>1141.4</ele>
        <time>2021-10-08T08:08:51Z</time>
      </trkpt>
      <trkpt lat="44.93465" lon="5.32097">
        <ele>1141.4</ele>
        <time>2021-10-08T08:08:52Z</time>
      </trkpt>
      <trkpt lat="44.93464" lon="5.32096">
        <ele>1141.4</ele>
        <time>2021-10-08T08:08:53Z</time>
      </trkpt>
      <trkpt lat="44.93463" lon="5.32096">
        <ele>1142</ele>
        <time>2021-10-08T08:08:54Z</time>
      </trkpt>
      <trkpt lat="44.93461" lon="5.32095">
        <ele>1142</ele>
        <time>2021-10-08T08:08:55Z</time>
      </trkpt>
      <trkpt lat="44.9346" lon="5.32095">
        <ele>1142</ele>
        <time>2021-10-08T08:08:56Z</time>
      </trkpt>
      <trkpt lat="44.93458" lon="5.32094">
        <ele>1142</ele>
        <time>2021-10-08T08:08:57Z</time>
      </trkpt>
      <trkpt lat="44.93457" lon="5.32094">
        <ele>1142</ele>
        <time>2021-10-08T08:08:58Z</time>
      </trkpt>
      <trkpt lat="44.93454" lon="5.32094">
        <ele>1142</ele>
        <time>2021-10-08T08:08:59Z</time>
      </trkpt>
      <trkpt lat="44.93453" lon="5.32093">
        <ele>1142</ele>
        <time>2021-10-08T08:09:00Z</time>
      </trkpt>
      <trkpt lat="44.93451" lon="5.32091">
        <ele>1142</ele>
        <time>2021-10-08T08:09:01Z</time>
      </trkpt>
      <trkpt lat="44.93449" lon="5.32089">
        <ele>1142.2</ele>
        <time>2021-10-08T08:09:02Z</time>
      </trkpt>
      <trkpt lat="44.93446" lon="5.32087">
        <ele>1142.2</ele>
        <time>2021-10-08T08:09:03Z</time>
      </trkpt>
      <trkpt lat="44.93445" lon="5.32086">
        <ele>1142.2</ele>
        <time>2021-10-08T08:09:04Z</time>
      </trkpt>
      <trkpt lat="44.93444" lon="5.32084">
        <ele>1142.8</ele>
        <time>2021-10-08T08:09:05Z</time>
      </trkpt>
      <trkpt lat="44.93442" lon="5.32083">
        <ele>1143</ele>
        <time>2021-10-08T08:09:06Z</time>
      </trkpt>
      <trkpt lat="44.93441" lon="5.32081">
        <ele>1143</ele>
        <time>2021-10-08T08:09:07Z</time>
      </trkpt>
      <trkpt lat="44.9344" lon="5.3208">
        <ele>1143</ele>
        <time>2021-10-08T08:09:08Z</time>
      </trkpt>
      <trkpt lat="44.93438" lon="5.32078">
        <ele>1143.2</ele>
        <time>2021-10-08T08:09:09Z</time>
      </trkpt>
      <trkpt lat="44.93437" lon="5.32077">
        <ele>1143.2</ele>
        <time>2021-10-08T08:09:10Z</time>
      </trkpt>
      <trkpt lat="44.93437" lon="5.32077">
        <ele>1143.2</ele>
        <time>2021-10-08T08:09:11Z</time>
      </trkpt>
      <trkpt lat="44.93436" lon="5.32075">
        <ele>1143.2</ele>
        <time>2021-10-08T08:09:12Z</time>
      </trkpt>
      <trkpt lat="44.93435" lon="5.32074">
        <ele>1143.6</ele>
        <time>2021-10-08T08:09:13Z</time>
      </trkpt>
      <trkpt lat="44.93435" lon="5.32073">
        <ele>1143.6</ele>
        <time>2021-10-08T08:09:14Z</time>
      </trkpt>
      <trkpt lat="44.93433" lon="5.32071">
        <ele>1143.6</ele>
        <time>2021-10-08T08:09:15Z</time>
      </trkpt>
      <trkpt lat="44.93431" lon="5.3207">
        <ele>1143.6</ele>
        <time>2021-10-08T08:09:16Z</time>
      </trkpt>
      <trkpt lat="44.93429" lon="5.32069">
        <ele>1144.2</ele>
        <time>2021-10-08T08:09:17Z</time>
      </trkpt>
      <trkpt lat="44.93428" lon="5.32068">
        <ele>1144.2</ele>
        <time>2021-10-08T08:09:18Z</time>
      </trkpt>
      <trkpt lat="44.93427" lon="5.32067">
        <ele>1144.2</ele>
        <time>2021-10-08T08:09:19Z</time>
      </trkpt>
      <trkpt lat="44.93425" lon="5.32067">
        <ele>1144.2</ele>
        <time>2021-10-08T08:09:20Z</time>
      </trkpt>
      <trkpt lat="44.93423" lon="5.32066">
        <ele>1144.8</ele>
        <time>2021-10-08T08:09:21Z</time>
      </trkpt>
      <trkpt lat="44.93422" lon="5.32067">
        <ele>1145.2</ele>
        <time>2021-10-08T08:09:22Z</time>
      </trkpt>
      <trkpt lat="44.93421" lon="5.32068">
        <ele>1145.2</ele>
        <time>2021-10-08T08:09:23Z</time>
      </trkpt>
      <trkpt lat="44.9342" lon="5.32069">
        <ele>1145.2</ele>
        <time>2021-10-08T08:09:24Z</time>
      </trkpt>
      <trkpt lat="44.93419" lon="5.32069">
        <ele>1145.2</ele>
        <time>2021-10-08T08:09:25Z</time>
      </trkpt>
      <trkpt lat="44.93417" lon="5.3207">
        <ele>1145.6</ele>
        <time>2021-10-08T08:09:26Z</time>
      </trkpt>
      <trkpt lat="44.93416" lon="5.32071">
        <ele>1145.6</ele>
        <time>2021-10-08T08:09:27Z</time>
      </trkpt>
      <trkpt lat="44.93414" lon="5.32071">
        <ele>1145.6</ele>
        <time>2021-10-08T08:09:28Z</time>
      </trkpt>
      <trkpt lat="44.93412" lon="5.32069">
        <ele>1146.4</ele>
        <time>2021-10-08T08:09:29Z</time>
      </trkpt>
      <trkpt lat="44.9341" lon="5.32068">
        <ele>1146.4</ele>
        <time>2021-10-08T08:09:30Z</time>
      </trkpt>
      <trkpt lat="44.93408" lon="5.32066">
        <ele>1146.4</ele>
        <time>2021-10-08T08:09:31Z</time>
      </trkpt>
      <trkpt lat="44.93407" lon="5.32065">
        <ele>1146.4</ele>
        <time>2021-10-08T08:09:32Z</time>
      </trkpt>
      <trkpt lat="44.93405" lon="5.32063">
        <ele>1146.4</ele>
        <time>2021-10-08T08:09:33Z</time>
      </trkpt>
      <trkpt lat="44.93402" lon="5.32063">
        <ele>1146.4</ele>
        <time>2021-10-08T08:09:34Z</time>
      </trkpt>
      <trkpt lat="44.93401" lon="5.32063">
        <ele>1146.4</ele>
        <time>2021-10-08T08:09:35Z</time>
      </trkpt>
      <trkpt lat="44.93399" lon="5.32062">
        <ele>1146.4</ele>
        <time>2021-10-08T08:09:36Z</time>
      </trkpt>
      <trkpt lat="44.93398" lon="5.32062">
        <ele>1147.4</ele>
        <time>2021-10-08T08:09:37Z</time>
      </trkpt>
      <trkpt lat="44.93397" lon="5.3206">
        <ele>1147.2</ele>
        <time>2021-10-08T08:09:38Z</time>
      </trkpt>
      <trkpt lat="44.93395" lon="5.3206">
        <ele>1147.2</ele>
        <time>2021-10-08T08:09:39Z</time>
      </trkpt>
      <trkpt lat="44.93394" lon="5.3206">
        <ele>1147.2</ele>
        <time>2021-10-08T08:09:40Z</time>
      </trkpt>
      <trkpt lat="44.93392" lon="5.32059">
        <ele>1148.2</ele>
        <time>2021-10-08T08:09:41Z</time>
      </trkpt>
      <trkpt lat="44.93391" lon="5.32059">
        <ele>1148.4</ele>
        <time>2021-10-08T08:09:42Z</time>
      </trkpt>
      <trkpt lat="44.9339" lon="5.32058">
        <ele>1148.4</ele>
        <time>2021-10-08T08:09:43Z</time>
      </trkpt>
      <trkpt lat="44.93389" lon="5.32058">
        <ele>1148.4</ele>
        <time>2021-10-08T08:09:44Z</time>
      </trkpt>
      <trkpt lat="44.93387" lon="5.32058">
        <ele>1148.4</ele>
        <time>2021-10-08T08:09:45Z</time>
      </trkpt>
      <trkpt lat="44.93386" lon="5.32058">
        <ele>1148.8</ele>
        <time>2021-10-08T08:09:46Z</time>
      </trkpt>
      <trkpt lat="44.93384" lon="5.32057">
        <ele>1148.8</ele>
        <time>2021-10-08T08:09:47Z</time>
      </trkpt>
      <trkpt lat="44.93382" lon="5.32056">
        <ele>1148.8</ele>
        <time>2021-10-08T08:09:48Z</time>
      </trkpt>
      <trkpt lat="44.9338" lon="5.32057">
        <ele>1148.8</ele>
        <time>2021-10-08T08:09:49Z</time>
      </trkpt>
      <trkpt lat="44.93379" lon="5.32056">
        <ele>1150</ele>
        <time>2021-10-08T08:09:50Z</time>
      </trkpt>
      <trkpt lat="44.93377" lon="5.32056">
        <ele>1150</ele>
        <time>2021-10-08T08:09:51Z</time>
      </trkpt>
      <trkpt lat="44.93375" lon="5.32055">
        <ele>1150</ele>
        <time>2021-10-08T08:09:52Z</time>
      </trkpt>
      <trkpt lat="44.93374" lon="5.32054">
        <ele>1150</ele>
        <time>2021-10-08T08:09:53Z</time>
      </trkpt>
      <trkpt lat="44.93372" lon="5.32054">
        <ele>1149.8</ele>
        <time>2021-10-08T08:09:54Z</time>
      </trkpt>
      <trkpt lat="44.93371" lon="5.32053">
        <ele>1149.8</ele>
        <time>2021-10-08T08:09:55Z</time>
      </trkpt>
      <trkpt lat="44.93369" lon="5.32052">
        <ele>1149.8</ele>
        <time>2021-10-08T08:09:56Z</time>
      </trkpt>
      <trkpt lat="44.93368" lon="5.32052">
        <ele>1150.6</ele>
        <time>2021-10-08T08:09:57Z</time>
      </trkpt>
      <trkpt lat="44.93367" lon="5.32052">
        <ele>1151</ele>
        <time>2021-10-08T08:09:58Z</time>
      </trkpt>
      <trkpt lat="44.93365" lon="5.32053">
        <ele>1151</ele>
        <time>2021-10-08T08:09:59Z</time>
      </trkpt>
      <trkpt lat="44.93364" lon="5.32053">
        <ele>1151</ele>
        <time>2021-10-08T08:10:00Z</time>
      </trkpt>
      <trkpt lat="44.93362" lon="5.32053">
        <ele>1151.2</ele>
        <time>2021-10-08T08:10:01Z</time>
      </trkpt>
      <trkpt lat="44.93361" lon="5.32054">
        <ele>1151.8</ele>
        <time>2021-10-08T08:10:02Z</time>
      </trkpt>
      <trkpt lat="44.93359" lon="5.32054">
        <ele>1151.8</ele>
        <time>2021-10-08T08:10:03Z</time>
      </trkpt>
      <trkpt lat="44.93358" lon="5.32054">
        <ele>1151.8</ele>
        <time>2021-10-08T08:10:04Z</time>
      </trkpt>
      <trkpt lat="44.93357" lon="5.32055">
        <ele>1151.8</ele>
        <time>2021-10-08T08:10:05Z</time>
      </trkpt>
      <trkpt lat="44.93356" lon="5.32056">
        <ele>1152</ele>
        <time>2021-10-08T08:10:06Z</time>
      </trkpt>
      <trkpt lat="44.93355" lon="5.32056">
        <ele>1152</ele>
        <time>2021-10-08T08:10:07Z</time>
      </trkpt>
      <trkpt lat="44.93354" lon="5.32057">
        <ele>1152</ele>
        <time>2021-10-08T08:10:08Z</time>
      </trkpt>
      <trkpt lat="44.93354" lon="5.32058">
        <ele>1153</ele>
        <time>2021-10-08T08:10:09Z</time>
      </trkpt>
      <trkpt lat="44.93353" lon="5.32058">
        <ele>1153.4</ele>
        <time>2021-10-08T08:10:10Z</time>
      </trkpt>
      <trkpt lat="44.93352" lon="5.32058">
        <ele>1153.4</ele>
        <time>2021-10-08T08:10:11Z</time>
      </trkpt>
      <trkpt lat="44.93351" lon="5.32058">
        <ele>1153.4</ele>
        <time>2021-10-08T08:10:12Z</time>
      </trkpt>
      <trkpt lat="44.9335" lon="5.32059">
        <ele>1153.4</ele>
        <time>2021-10-08T08:10:13Z</time>
      </trkpt>
      <trkpt lat="44.93349" lon="5.3206">
        <ele>1153.2</ele>
        <time>2021-10-08T08:10:14Z</time>
      </trkpt>
      <trkpt lat="44.93348" lon="5.32061">
        <ele>1153.2</ele>
        <time>2021-10-08T08:10:15Z</time>
      </trkpt>
      <trkpt lat="44.93347" lon="5.32061">
        <ele>1153.2</ele>
        <time>2021-10-08T08:10:16Z</time>
      </trkpt>
      <trkpt lat="44.93347" lon="5.32061">
        <ele>1153.2</ele>
        <time>2021-10-08T08:10:17Z</time>
      </trkpt>
      <trkpt lat="44.93346" lon="5.32062">
        <ele>1154</ele>
        <time>2021-10-08T08:10:18Z</time>
      </trkpt>
      <trkpt lat="44.93345" lon="5.32062">
        <ele>1154</ele>
        <time>2021-10-08T08:10:19Z</time>
      </trkpt>
      <trkpt lat="44.93343" lon="5.32063">
        <ele>1154</ele>
        <time>2021-10-08T08:10:20Z</time>
      </trkpt>
      <trkpt lat="44.93283" lon="5.32053">
        <ele>1160.4</ele>
        <time>2021-10-08T08:13:02Z</time>
      </trkpt>
      <trkpt lat="44.93281" lon="5.32052">
        <ele>1160.4</ele>
        <time>2021-10-08T08:13:03Z</time>
      </trkpt>
      <trkpt lat="44.9328" lon="5.32052">
        <ele>1160.4</ele>
        <time>2021-10-08T08:13:04Z</time>
      </trkpt>
      <trkpt lat="44.93279" lon="5.32052">
        <ele>1161.2</ele>
        <time>2021-10-08T08:13:05Z</time>
      </trkpt>
      <trkpt lat="44.93278" lon="5.32051">
        <ele>1161.2</ele>
        <time>2021-10-08T08:13:06Z</time>
      </trkpt>
      <trkpt lat="44.93276" lon="5.32051">
        <ele>1161.2</ele>
        <time>2021-10-08T08:13:07Z</time>
      </trkpt>
      <trkpt lat="44.93274" lon="5.3205">
        <ele>1161.2</ele>
        <time>2021-10-08T08:13:08Z</time>
      </trkpt>
      <trkpt lat="44.93272" lon="5.3205">
        <ele>1161.2</ele>
        <time>2021-10-08T08:13:09Z</time>
      </trkpt>
      <trkpt lat="44.9327" lon="5.32049">
        <ele>1161.2</ele>
        <time>2021-10-08T08:13:10Z</time>
      </trkpt>
      <trkpt lat="44.93269" lon="5.32048">
        <ele>1161.2</ele>
        <time>2021-10-08T08:13:11Z</time>
      </trkpt>
      <trkpt lat="44.93267" lon="5.32048">
        <ele>1161.2</ele>
        <time>2021-10-08T08:13:12Z</time>
      </trkpt>
      <trkpt lat="44.93265" lon="5.32047">
        <ele>1161.2</ele>
        <time>2021-10-08T08:13:13Z</time>
      </trkpt>
      <trkpt lat="44.93263" lon="5.32047">
        <ele>1161.2</ele>
        <time>2021-10-08T08:13:14Z</time>
      </trkpt>
      <trkpt lat="44.93261" lon="5.32047">
        <ele>1161.2</ele>
        <time>2021-10-08T08:13:15Z</time>
      </trkpt>
      <trkpt lat="44.93259" lon="5.32047">
        <ele>1161.2</ele>
        <time>2021-10-08T08:13:16Z</time>
      </trkpt>
      <trkpt lat="44.93258" lon="5.32046">
        <ele>1161.2</ele>
        <time>2021-10-08T08:13:17Z</time>
      </trkpt>
      <trkpt lat="44.93257" lon="5.32045">
        <ele>1161.8</ele>
        <time>2021-10-08T08:13:18Z</time>
      </trkpt>
      <trkpt lat="44.93256" lon="5.32045">
        <ele>1161.8</ele>
        <time>2021-10-08T08:13:19Z</time>
      </trkpt>
      <trkpt lat="44.93254" lon="5.32044">
        <ele>1161.8</ele>
        <time>2021-10-08T08:13:20Z</time>
      </trkpt>
      <trkpt lat="44.93253" lon="5.32044">
        <ele>1161.8</ele>
        <time>2021-10-08T08:13:21Z</time>
      </trkpt>
      <trkpt lat="44.93252" lon="5.32043">
        <ele>1161.8</ele>
        <time>2021-10-08T08:13:22Z</time>
      </trkpt>
      <trkpt lat="44.93251" lon="5.32043">
        <ele>1161.8</ele>
        <time>2021-10-08T08:13:23Z</time>
      </trkpt>
      <trkpt lat="44.93249" lon="5.32043">
        <ele>1161.8</ele>
        <time>2021-10-08T08:13:24Z</time>
      </trkpt>
      <trkpt lat="44.93248" lon="5.32042">
        <ele>1162.2</ele>
        <time>2021-10-08T08:13:25Z</time>
      </trkpt>
      <trkpt lat="44.93246" lon="5.32041">
        <ele>1162.6</ele>
        <time>2021-10-08T08:13:26Z</time>
      </trkpt>
      <trkpt lat="44.93245" lon="5.32041">
        <ele>1162.6</ele>
        <time>2021-10-08T08:13:27Z</time>
      </trkpt>
      <trkpt lat="44.93243" lon="5.32039">
        <ele>1162.6</ele>
        <time>2021-10-08T08:13:28Z</time>
      </trkpt>
      <trkpt lat="44.93242" lon="5.32038">
        <ele>1162.6</ele>
        <time>2021-10-08T08:13:29Z</time>
      </trkpt>
      <trkpt lat="44.9324" lon="5.32036">
        <ele>1162.6</ele>
        <time>2021-10-08T08:13:30Z</time>
      </trkpt>
      <trkpt lat="44.93238" lon="5.32035">
        <ele>1162.6</ele>
        <time>2021-10-08T08:13:31Z</time>
      </trkpt>
      <trkpt lat="44.93237" lon="5.32035">
        <ele>1162.6</ele>
        <time>2021-10-08T08:13:32Z</time>
      </trkpt>
      <trkpt lat="44.93236" lon="5.32035">
        <ele>1163.6</ele>
        <time>2021-10-08T08:13:33Z</time>
      </trkpt>
      <trkpt lat="44.93236" lon="5.32034">
        <ele>1163.6</ele>
        <time>2021-10-08T08:13:34Z</time>
      </trkpt>
      <trkpt lat="44.93235" lon="5.32034">
        <ele>1163.6</ele>
        <time>2021-10-08T08:13:35Z</time>
      </trkpt>
      <trkpt lat="44.93234" lon="5.32033">
        <ele>1163.6</ele>
        <time>2021-10-08T08:13:36Z</time>
      </trkpt>
      <trkpt lat="44.93233" lon="5.32033">
        <ele>1164.2</ele>
        <time>2021-10-08T08:13:37Z</time>
      </trkpt>
      <trkpt lat="44.93232" lon="5.32033">
        <ele>1164</ele>
        <time>2021-10-08T08:13:38Z</time>
      </trkpt>
      <trkpt lat="44.93171" lon="5.32007">
        <ele>1171.8</ele>
        <time>2021-10-08T08:14:49Z</time>
      </trkpt>
      <trkpt lat="44.9317" lon="5.32007">
        <ele>1172</ele>
        <time>2021-10-08T08:14:50Z</time>
      </trkpt>
      <trkpt lat="44.93168" lon="5.32008">
        <ele>1172</ele>
        <time>2021-10-08T08:14:51Z</time>
      </trkpt>
      <trkpt lat="44.93167" lon="5.32009">
        <ele>1172</ele>
        <time>2021-10-08T08:14:52Z</time>
      </trkpt>
      <trkpt lat="44.93165" lon="5.3201">
        <ele>1172</ele>
        <time>2021-10-08T08:14:53Z</time>
      </trkpt>
      <trkpt lat="44.93164" lon="5.3201">
        <ele>1172.6</ele>
        <time>2021-10-08T08:14:54Z</time>
      </trkpt>
      <trkpt lat="44.93162" lon="5.32011">
        <ele>1172.6</ele>
        <time>2021-10-08T08:14:55Z</time>
      </trkpt>
      <trkpt lat="44.93161" lon="5.32011">
        <ele>1172.6</ele>
        <time>2021-10-08T08:14:56Z</time>
      </trkpt>
      <trkpt lat="44.9316" lon="5.32012">
        <ele>1172.6</ele>
        <time>2021-10-08T08:14:57Z</time>
      </trkpt>
      <trkpt lat="44.93158" lon="5.32013">
        <ele>1172.6</ele>
        <time>2021-10-08T08:14:58Z</time>
      </trkpt>
      <trkpt lat="44.93157" lon="5.32014">
        <ele>1172.6</ele>
        <time>2021-10-08T08:14:59Z</time>
      </trkpt>
      <trkpt lat="44.93155" lon="5.32016">
        <ele>1172.6</ele>
        <time>2021-10-08T08:15:00Z</time>
      </trkpt>
      <trkpt lat="44.93154" lon="5.32017">
        <ele>1172.6</ele>
        <time>2021-10-08T08:15:01Z</time>
      </trkpt>
      <trkpt lat="44.93153" lon="5.32019">
        <ele>1172.6</ele>
        <time>2021-10-08T08:15:02Z</time>
      </trkpt>
      <trkpt lat="44.93152" lon="5.3202">
        <ele>1172.6</ele>
        <time>2021-10-08T08:15:03Z</time>
      </trkpt>
      <trkpt lat="44.9315" lon="5.32021">
        <ele>1172.6</ele>
        <time>2021-10-08T08:15:04Z</time>
      </trkpt>
      <trkpt lat="44.93149" lon="5.32022">
        <ele>1172.2</ele>
        <time>2021-10-08T08:15:05Z</time>
      </trkpt>
      <trkpt lat="44.93147" lon="5.32022">
        <ele>1172.6</ele>
        <time>2021-10-08T08:15:06Z</time>
      </trkpt>
      <trkpt lat="44.93145" lon="5.32024">
        <ele>1172.6</ele>
        <time>2021-10-08T08:15:07Z</time>
      </trkpt>
      <trkpt lat="44.93143" lon="5.32025">
        <ele>1172.6</ele>
        <time>2021-10-08T08:15:08Z</time>
      </trkpt>
      <trkpt lat="44.93142" lon="5.32026">
        <ele>1172.2</ele>
        <time>2021-10-08T08:15:09Z</time>
      </trkpt>
      <trkpt lat="44.9314" lon="5.32025">
        <ele>1172</ele>
        <time>2021-10-08T08:15:10Z</time>
      </trkpt>
      <trkpt lat="44.93138" lon="5.32026">
        <ele>1172</ele>
        <time>2021-10-08T08:15:11Z</time>
      </trkpt>
      <trkpt lat="44.93137" lon="5.32027">
        <ele>1172</ele>
        <time>2021-10-08T08:15:12Z</time>
      </trkpt>
      <trkpt lat="44.93136" lon="5.32027">
        <ele>1172.2</ele>
        <time>2021-10-08T08:15:13Z</time>
      </trkpt>
      <trkpt lat="44.93133" lon="5.32026">
        <ele>1172.6</ele>
        <time>2021-10-08T08:15:14Z</time>
      </trkpt>
      <trkpt lat="44.93132" lon="5.32026">
        <ele>1172.6</ele>
        <time>2021-10-08T08:15:15Z</time>
      </trkpt>
      <trkpt lat="44.9313" lon="5.32026">
        <ele>1172.6</ele>
        <time>2021-10-08T08:15:16Z</time>
      </trkpt>
      <trkpt lat="44.93128" lon="5.32027">
        <ele>1172.6</ele>
        <time>2021-10-08T08:15:17Z</time>
      </trkpt>
      <trkpt lat="44.93127" lon="5.32027">
        <ele>1173.2</ele>
        <time>2021-10-08T08:15:18Z</time>
      </trkpt>
      <trkpt lat="44.93126" lon="5.32027">
        <ele>1173.2</ele>
        <time>2021-10-08T08:15:19Z</time>
      </trkpt>
      <trkpt lat="44.93125" lon="5.32027">
        <ele>1173.2</ele>
        <time>2021-10-08T08:15:20Z</time>
      </trkpt>
      <trkpt lat="44.93125" lon="5.32027">
        <ele>1172.8</ele>
        <time>2021-10-08T08:15:21Z</time>
      </trkpt>
      <trkpt lat="44.93106" lon="5.32022">
        <ele>1172</ele>
        <time>2021-10-08T08:16:09Z</time>
      </trkpt>
      <trkpt lat="44.93104" lon="5.32021">
        <ele>1171.6</ele>
        <time>2021-10-08T08:16:10Z</time>
      </trkpt>
      <trkpt lat="44.93103" lon="5.32021">
        <ele>1171.6</ele>
        <time>2021-10-08T08:16:11Z</time>
      </trkpt>
      <trkpt lat="44.93102" lon="5.3202">
        <ele>1171.6</ele>
        <time>2021-10-08T08:16:12Z</time>
      </trkpt>
      <trkpt lat="44.93101" lon="5.32019">
        <ele>1171.6</ele>
        <time>2021-10-08T08:16:13Z</time>
      </trkpt>
      <trkpt lat="44.931" lon="5.32017">
        <ele>1171</ele>
        <time>2021-10-08T08:16:14Z</time>
      </trkpt>
      <trkpt lat="44.93098" lon="5.32017">
        <ele>1171</ele>
        <time>2021-10-08T08:16:15Z</time>
      </trkpt>
      <trkpt lat="44.93098" lon="5.32016">
        <ele>1171</ele>
        <time>2021-10-08T08:16:16Z</time>
      </trkpt>
      <trkpt lat="44.93097" lon="5.32015">
        <ele>1171</ele>
        <time>2021-10-08T08:16:17Z</time>
      </trkpt>
      <trkpt lat="44.93096" lon="5.32014">
        <ele>1171.2</ele>
        <time>2021-10-08T08:16:18Z</time>
      </trkpt>
      <trkpt lat="44.93097" lon="5.32013">
        <ele>1171.2</ele>
        <time>2021-10-08T08:16:19Z</time>
      </trkpt>
      <trkpt lat="44.93096" lon="5.32013">
        <ele>1171.2</ele>
        <time>2021-10-08T08:16:20Z</time>
      </trkpt>
      <trkpt lat="44.93095" lon="5.32012">
        <ele>1170.6</ele>
        <time>2021-10-08T08:16:21Z</time>
      </trkpt>
      <trkpt lat="44.93094" lon="5.32011">
        <ele>1170.4</ele>
        <time>2021-10-08T08:16:22Z</time>
      </trkpt>
      <trkpt lat="44.93094" lon="5.32009">
        <ele>1170.4</ele>
        <time>2021-10-08T08:16:23Z</time>
      </trkpt>
      <trkpt lat="44.93093" lon="5.32008">
        <ele>1170.4</ele>
        <time>2021-10-08T08:16:24Z</time>
      </trkpt>
      <trkpt lat="44.93092" lon="5.32007">
        <ele>1169.6</ele>
        <time>2021-10-08T08:16:25Z</time>
      </trkpt>
      <trkpt lat="44.9309" lon="5.32006">
        <ele>1169.4</ele>
        <time>2021-10-08T08:16:26Z</time>
      </trkpt>
      <trkpt lat="44.93088" lon="5.32004">
        <ele>1169.4</ele>
        <time>2021-10-08T08:16:27Z</time>
      </trkpt>
      <trkpt lat="44.93086" lon="5.32003">
        <ele>1169.4</ele>
        <time>2021-10-08T08:16:28Z</time>
      </trkpt>
      <trkpt lat="44.93085" lon="5.32002">
        <ele>1168.6</ele>
        <time>2021-10-08T08:16:29Z</time>
      </trkpt>
      <trkpt lat="44.93083" lon="5.32001">
        <ele>1168.4</ele>
        <time>2021-10-08T08:16:30Z</time>
      </trkpt>
      <trkpt lat="44.93082" lon="5.31999">
        <ele>1168.4</ele>
        <time>2021-10-08T08:16:31Z</time>
      </trkpt>
      <trkpt lat="44.93081" lon="5.31998">
        <ele>1168.4</ele>
        <time>2021-10-08T08:16:32Z</time>
      </trkpt>
      <trkpt lat="44.9308" lon="5.31996">
        <ele>1167.6</ele>
        <time>2021-10-08T08:16:33Z</time>
      </trkpt>
      <trkpt lat="44.93079" lon="5.31995">
        <ele>1167.8</ele>
        <time>2021-10-08T08:16:34Z</time>
      </trkpt>
      <trkpt lat="44.93078" lon="5.31994">
        <ele>1167.8</ele>
        <time>2021-10-08T08:16:35Z</time>
      </trkpt>
      <trkpt lat="44.93078" lon="5.31994">
        <ele>1167.8</ele>
        <time>2021-10-08T08:16:36Z</time>
      </trkpt>
      <trkpt lat="44.93078" lon="5.31994">
        <ele>1167.8</ele>
        <time>2021-10-08T08:16:37Z</time>
      </trkpt>
      <trkpt lat="44.93077" lon="5.31993">
        <ele>1167.6</ele>
        <time>2021-10-08T08:16:38Z</time>
      </trkpt>
      <trkpt lat="44.93075" lon="5.31992">
        <ele>1167.6</ele>
        <time>2021-10-08T08:16:39Z</time>
      </trkpt>
      <trkpt lat="44.93074" lon="5.31991">
        <ele>1167.6</ele>
        <time>2021-10-08T08:16:40Z</time>
      </trkpt>
      <trkpt lat="44.93073" lon="5.3199">
        <ele>1168.4</ele>
        <time>2021-10-08T08:16:41Z</time>
      </trkpt>
      <trkpt lat="44.93072" lon="5.31988">
        <ele>1168.6</ele>
        <time>2021-10-08T08:16:42Z</time>
      </trkpt>
      <trkpt lat="44.93071" lon="5.31988">
        <ele>1168.6</ele>
        <time>2021-10-08T08:16:43Z</time>
      </trkpt>
      <trkpt lat="44.92933" lon="5.32032">
        <ele>1183.8</ele>
        <time>2021-10-08T08:23:47Z</time>
      </trkpt>
      <trkpt lat="44.92932" lon="5.32033">
        <ele>1183.8</ele>
        <time>2021-10-08T08:23:48Z</time>
      </trkpt>
      <trkpt lat="44.9293" lon="5.32034">
        <ele>1183.8</ele>
        <time>2021-10-08T08:23:49Z</time>
      </trkpt>
      <trkpt lat="44.92929" lon="5.32035">
        <ele>1184.4</ele>
        <time>2021-10-08T08:23:50Z</time>
      </trkpt>
      <trkpt lat="44.92928" lon="5.32035">
        <ele>1184.4</ele>
        <time>2021-10-08T08:23:51Z</time>
      </trkpt>
      <trkpt lat="44.92927" lon="5.32036">
        <ele>1184.4</ele>
        <time>2021-10-08T08:23:52Z</time>
      </trkpt>
      <trkpt lat="44.92925" lon="5.32037">
        <ele>1184.4</ele>
        <time>2021-10-08T08:23:53Z</time>
      </trkpt>
      <trkpt lat="44.92924" lon="5.32039">
        <ele>1184.4</ele>
        <time>2021-10-08T08:23:54Z</time>
      </trkpt>
      <trkpt lat="44.92922" lon="5.3204">
        <ele>1184.4</ele>
        <time>2021-10-08T08:23:55Z</time>
      </trkpt>
      <trkpt lat="44.92921" lon="5.32041">
        <ele>1184.4</ele>
        <time>2021-10-08T08:23:56Z</time>
      </trkpt>
      <trkpt lat="44.92919" lon="5.32042">
        <ele>1184.6</ele>
        <time>2021-10-08T08:23:57Z</time>
      </trkpt>
      <trkpt lat="44.92918" lon="5.32042">
        <ele>1184.6</ele>
        <time>2021-10-08T08:23:58Z</time>
      </trkpt>
      <trkpt lat="44.92916" lon="5.32043">
        <ele>1184.6</ele>
        <time>2021-10-08T08:23:59Z</time>
      </trkpt>
      <trkpt lat="44.92914" lon="5.32043">
        <ele>1184.6</ele>
        <time>2021-10-08T08:24:00Z</time>
      </trkpt>
      <trkpt lat="44.92913" lon="5.32043">
        <ele>1184.8</ele>
        <time>2021-10-08T08:24:01Z</time>
      </trkpt>
      <trkpt lat="44.92911" lon="5.32044">
        <ele>1184.8</ele>
        <time>2021-10-08T08:24:02Z</time>
      </trkpt>
      <trkpt lat="44.92909" lon="5.32044">
        <ele>1184.8</ele>
        <time>2021-10-08T08:24:03Z</time>
      </trkpt>
      <trkpt lat="44.92908" lon="5.32045">
        <ele>1184.8</ele>
        <time>2021-10-08T08:24:04Z</time>
      </trkpt>
      <trkpt lat="44.92906" lon="5.32046">
        <ele>1184.8</ele>
        <time>2021-10-08T08:24:05Z</time>
      </trkpt>
      <trkpt lat="44.92904" lon="5.32048">
        <ele>1185.6</ele>
        <time>2021-10-08T08:24:06Z</time>
      </trkpt>
      <trkpt lat="44.92903" lon="5.32049">
        <ele>1185.6</ele>
        <time>2021-10-08T08:24:07Z</time>
      </trkpt>
      <trkpt lat="44.92901" lon="5.32049">
        <ele>1185.6</ele>
        <time>2021-10-08T08:24:08Z</time>
      </trkpt>
      <trkpt lat="44.929" lon="5.3205">
        <ele>1185.6</ele>
        <time>2021-10-08T08:24:09Z</time>
      </trkpt>
      <trkpt lat="44.92898" lon="5.32051">
        <ele>1185.8</ele>
        <time>2021-10-08T08:24:10Z</time>
      </trkpt>
      <trkpt lat="44.92896" lon="5.32051">
        <ele>1185.8</ele>
        <time>2021-10-08T08:24:11Z</time>
      </trkpt>
      <trkpt lat="44.92895" lon="5.32052">
        <ele>1185.8</ele>
        <time>2021-10-08T08:24:12Z</time>
      </trkpt>
      <trkpt lat="44.92893" lon="5.32053">
        <ele>1185.6</ele>
        <time>2021-10-08T08:24:13Z</time>
      </trkpt>
      <trkpt lat="44.92891" lon="5.32053">
        <ele>1185.6</ele>
        <time>2021-10-08T08:24:14Z</time>
      </trkpt>
      <trkpt lat="44.92889" lon="5.32053">
        <ele>1185.6</ele>
        <time>2021-10-08T08:24:15Z</time>
      </trkpt>
      <trkpt lat="44.92887" lon="5.32054">
        <ele>1185.6</ele>
        <time>2021-10-08T08:24:16Z</time>
      </trkpt>
      <trkpt lat="44.92885" lon="5.32054">
        <ele>1185.6</ele>
        <time>2021-10-08T08:24:17Z</time>
      </trkpt>
      <trkpt lat="44.92883" lon="5.32054">
        <ele>1185.6</ele>
        <time>2021-10-08T08:24:18Z</time>
      </trkpt>
      <trkpt lat="44.92881" lon="5.32055">
        <ele>1185.6</ele>
        <time>2021-10-08T08:24:19Z</time>
      </trkpt>
      <trkpt lat="44.92879" lon="5.32056">
        <ele>1185.6</ele>
        <time>2021-10-08T08:24:20Z</time>
      </trkpt>
      <trkpt lat="44.92878" lon="5.32056">
        <ele>1185.8</ele>
        <time>2021-10-08T08:24:21Z</time>
      </trkpt>
      <trkpt lat="44.92876" lon="5.32058">
        <ele>1186.2</ele>
        <time>2021-10-08T08:24:22Z</time>
      </trkpt>
      <trkpt lat="44.92874" lon="5.32059">
        <ele>1186.2</ele>
        <time>2021-10-08T08:24:23Z</time>
      </trkpt>
      <trkpt lat="44.92873" lon="5.3206">
        <ele>1186.2</ele>
        <time>2021-10-08T08:24:24Z</time>
      </trkpt>
      <trkpt lat="44.92871" lon="5.32061">
        <ele>1186.2</ele>
        <time>2021-10-08T08:24:25Z</time>
      </trkpt>
      <trkpt lat="44.92869" lon="5.32062">
        <ele>1186.2</ele>
        <time>2021-10-08T08:24:26Z</time>
      </trkpt>
      <trkpt lat="44.92868" lon="5.32062">
        <ele>1186.2</ele>
        <time>2021-10-08T08:24:27Z</time>
      </trkpt>
      <trkpt lat="44.92866" lon="5.32063">
        <ele>1186.2</ele>
        <time>2021-10-08T08:24:28Z</time>
      </trkpt>
      <trkpt lat="44.92864" lon="5.32064">
        <ele>1186.2</ele>
        <time>2021-10-08T08:24:29Z</time>
      </trkpt>
      <trkpt lat="44.92862" lon="5.32065">
        <ele>1186.8</ele>
        <time>2021-10-08T08:24:30Z</time>
      </trkpt>
      <trkpt lat="44.92861" lon="5.32067">
        <ele>1186.8</ele>
        <time>2021-10-08T08:24:31Z</time>
      </trkpt>
      <trkpt lat="44.92859" lon="5.32068">
        <ele>1186.8</ele>
        <time>2021-10-08T08:24:32Z</time>
      </trkpt>
      <trkpt lat="44.92858" lon="5.32069">
        <ele>1186.8</ele>
        <time>2021-10-08T08:24:33Z</time>
      </trkpt>
      <trkpt lat="44.92856" lon="5.32071">
        <ele>1186.8</ele>
        <time>2021-10-08T08:24:34Z</time>
      </trkpt>
      <trkpt lat="44.92855" lon="5.32072">
        <ele>1186.8</ele>
        <time>2021-10-08T08:24:35Z</time>
      </trkpt>
      <trkpt lat="44.92853" lon="5.32074">
        <ele>1186.8</ele>
        <time>2021-10-08T08:24:36Z</time>
      </trkpt>
      <trkpt lat="44.92852" lon="5.32075">
        <ele>1187.6</ele>
        <time>2021-10-08T08:24:37Z</time>
      </trkpt>
      <trkpt lat="44.92851" lon="5.32077">
        <ele>1187.4</ele>
        <time>2021-10-08T08:24:38Z</time>
      </trkpt>
      <trkpt lat="44.9285" lon="5.32078">
        <ele>1187.4</ele>
        <time>2021-10-08T08:24:39Z</time>
      </trkpt>
      <trkpt lat="44.92849" lon="5.3208">
        <ele>1187.4</ele>
        <time>2021-10-08T08:24:40Z</time>
      </trkpt>
      <trkpt lat="44.92847" lon="5.32082">
        <ele>1188</ele>
        <time>2021-10-08T08:24:41Z</time>
      </trkpt>
      <trkpt lat="44.92846" lon="5.32084">
        <ele>1188.2</ele>
        <time>2021-10-08T08:24:42Z</time>
      </trkpt>
      <trkpt lat="44.92845" lon="5.32085">
        <ele>1188.2</ele>
        <time>2021-10-08T08:24:43Z</time>
      </trkpt>
      <trkpt lat="44.92844" lon="5.32087">
        <ele>1188.2</ele>
        <time>2021-10-08T08:24:44Z</time>
      </trkpt>
      <trkpt lat="44.92843" lon="5.32089">
        <ele>1188.2</ele>
        <time>2021-10-08T08:24:45Z</time>
      </trkpt>
      <trkpt lat="44.92843" lon="5.32091">
        <ele>1189</ele>
        <time>2021-10-08T08:24:46Z</time>
      </trkpt>
      <trkpt lat="44.92844" lon="5.32092">
        <ele>1189</ele>
        <time>2021-10-08T08:24:47Z</time>
      </trkpt>
      <trkpt lat="44.92844" lon="5.32094">
        <ele>1189</ele>
        <time>2021-10-08T08:24:48Z</time>
      </trkpt>
      <trkpt lat="44.92846" lon="5.32095">
        <ele>1189</ele>
        <time>2021-10-08T08:24:49Z</time>
      </trkpt>
      <trkpt lat="44.92847" lon="5.32095">
        <ele>1189.2</ele>
        <time>2021-10-08T08:24:50Z</time>
      </trkpt>
      <trkpt lat="44.92849" lon="5.32094">
        <ele>1189.2</ele>
        <time>2021-10-08T08:24:51Z</time>
      </trkpt>
      <trkpt lat="44.92851" lon="5.32093">
        <ele>1189.2</ele>
        <time>2021-10-08T08:24:52Z</time>
      </trkpt>
      <trkpt lat="44.92853" lon="5.32092">
        <ele>1189.4</ele>
        <time>2021-10-08T08:24:53Z</time>
      </trkpt>
      <trkpt lat="44.92855" lon="5.32091">
        <ele>1189.2</ele>
        <time>2021-10-08T08:24:54Z</time>
      </trkpt>
      <trkpt lat="44.92856" lon="5.3209">
        <ele>1189.2</ele>
        <time>2021-10-08T08:24:55Z</time>
      </trkpt>
      <trkpt lat="44.92858" lon="5.3209">
        <ele>1189.2</ele>
        <time>2021-10-08T08:24:56Z</time>
      </trkpt>
      <trkpt lat="44.9286" lon="5.32089">
        <ele>1189.2</ele>
        <time>2021-10-08T08:24:57Z</time>
      </trkpt>
      <trkpt lat="44.92862" lon="5.32088">
        <ele>1189.8</ele>
        <time>2021-10-08T08:24:58Z</time>
      </trkpt>
      <trkpt lat="44.92863" lon="5.32088">
        <ele>1189.8</ele>
        <time>2021-10-08T08:24:59Z</time>
      </trkpt>
      <trkpt lat="44.92865" lon="5.32087">
        <ele>1189.8</ele>
        <time>2021-10-08T08:25:00Z</time>
      </trkpt>
      <trkpt lat="44.92867" lon="5.32088">
        <ele>1189.8</ele>
        <time>2021-10-08T08:25:01Z</time>
      </trkpt>
      <trkpt lat="44.92868" lon="5.32088">
        <ele>1189.6</ele>
        <time>2021-10-08T08:25:02Z</time>
      </trkpt>
      <trkpt lat="44.9287" lon="5.32088">
        <ele>1189.6</ele>
        <time>2021-10-08T08:25:03Z</time>
      </trkpt>
      <trkpt lat="44.92872" lon="5.32087">
        <ele>1189.6</ele>
        <time>2021-10-08T08:25:04Z</time>
      </trkpt>
      <trkpt lat="44.92873" lon="5.32086">
        <ele>1189.6</ele>
        <time>2021-10-08T08:25:05Z</time>
      </trkpt>
      <trkpt lat="44.92876" lon="5.32086">
        <ele>1189.6</ele>
        <time>2021-10-08T08:25:06Z</time>
      </trkpt>
      <trkpt lat="44.92878" lon="5.32085">
        <ele>1189.6</ele>
        <time>2021-10-08T08:25:07Z</time>
      </trkpt>
      <trkpt lat="44.9288" lon="5.32085">
        <ele>1189.6</ele>
        <time>2021-10-08T08:25:08Z</time>
      </trkpt>
      <trkpt lat="44.92882" lon="5.32083">
        <ele>1189.8</ele>
        <time>2021-10-08T08:25:09Z</time>
      </trkpt>
      <trkpt lat="44.92885" lon="5.32083">
        <ele>1190</ele>
        <time>2021-10-08T08:25:10Z</time>
      </trkpt>
      <trkpt lat="44.92887" lon="5.32082">
        <ele>1190</ele>
        <time>2021-10-08T08:25:11Z</time>
      </trkpt>
      <trkpt lat="44.9289" lon="5.32081">
        <ele>1190</ele>
        <time>2021-10-08T08:25:12Z</time>
      </trkpt>
      <trkpt lat="44.92892" lon="5.32081">
        <ele>1190</ele>
        <time>2021-10-08T08:25:13Z</time>
      </trkpt>
      <trkpt lat="44.92894" lon="5.3208">
        <ele>1190.4</ele>
        <time>2021-10-08T08:25:14Z</time>
      </trkpt>
      <trkpt lat="44.92897" lon="5.32079">
        <ele>1190.4</ele>
        <time>2021-10-08T08:25:15Z</time>
      </trkpt>
      <trkpt lat="44.92899" lon="5.32078">
        <ele>1190.4</ele>
        <time>2021-10-08T08:25:16Z</time>
      </trkpt>
      <trkpt lat="44.92902" lon="5.32078">
        <ele>1190.8</ele>
        <time>2021-10-08T08:25:17Z</time>
      </trkpt>
      <trkpt lat="44.92904" lon="5.32077">
        <ele>1190.8</ele>
        <time>2021-10-08T08:25:18Z</time>
      </trkpt>
      <trkpt lat="44.92907" lon="5.32076">
        <ele>1190.8</ele>
        <time>2021-10-08T08:25:19Z</time>
      </trkpt>
      <trkpt lat="44.92909" lon="5.32076">
        <ele>1190.8</ele>
        <time>2021-10-08T08:25:20Z</time>
      </trkpt>
      <trkpt lat="44.92912" lon="5.32075">
        <ele>1191</ele>
        <time>2021-10-08T08:25:21Z</time>
      </trkpt>
      <trkpt lat="44.92914" lon="5.32074">
        <ele>1191.2</ele>
        <time>2021-10-08T08:25:22Z</time>
      </trkpt>
      <trkpt lat="44.92916" lon="5.32074">
        <ele>1191.2</ele>
        <time>2021-10-08T08:25:23Z</time>
      </trkpt>
      <trkpt lat="44.92919" lon="5.32074">
        <ele>1191.2</ele>
        <time>2021-10-08T08:25:24Z</time>
      </trkpt>
      <trkpt lat="44.92921" lon="5.32074">
        <ele>1191.8</ele>
        <time>2021-10-08T08:25:25Z</time>
      </trkpt>
      <trkpt lat="44.92924" lon="5.32074">
        <ele>1192</ele>
        <time>2021-10-08T08:25:26Z</time>
      </trkpt>
      <trkpt lat="44.92926" lon="5.32074">
        <ele>1192</ele>
        <time>2021-10-08T08:25:27Z</time>
      </trkpt>
      <trkpt lat="44.92928" lon="5.32074">
        <ele>1192</ele>
        <time>2021-10-08T08:25:28Z</time>
      </trkpt>
      <trkpt lat="44.92931" lon="5.32075">
        <ele>1192</ele>
        <time>2021-10-08T08:25:29Z</time>
      </trkpt>
      <trkpt lat="44.92934" lon="5.32075">
        <ele>1192.4</ele>
        <time>2021-10-08T08:25:30Z</time>
      </trkpt>
      <trkpt lat="44.92936" lon="5.32075">
        <ele>1192.4</ele>
        <time>2021-10-08T08:25:31Z</time>
      </trkpt>
      <trkpt lat="44.92939" lon="5.32075">
        <ele>1192.4</ele>
        <time>2021-10-08T08:25:32Z</time>
      </trkpt>
      <trkpt lat="44.92942" lon="5.32075">
        <ele>1192.4</ele>
        <time>2021-10-08T08:25:33Z</time>
      </trkpt>
      <trkpt lat="44.92944" lon="5.32075">
        <ele>1192.2</ele>
        <time>2021-10-08T08:25:34Z</time>
      </trkpt>
      <trkpt lat="44.92947" lon="5.32075">
        <ele>1192.2</ele>
        <time>2021-10-08T08:25:35Z</time>
      </trkpt>
      <trkpt lat="44.9295" lon="5.32076">
        <ele>1192.2</ele>
        <time>2021-10-08T08:25:36Z</time>
      </trkpt>
      <trkpt lat="44.92953" lon="5.32076">
        <ele>1192.8</ele>
        <time>2021-10-08T08:25:37Z</time>
      </trkpt>
      <trkpt lat="44.92955" lon="5.32077">
        <ele>1192.8</ele>
        <time>2021-10-08T08:25:38Z</time>
      </trkpt>
      <trkpt lat="44.92958" lon="5.32078">
        <ele>1192.8</ele>
        <time>2021-10-08T08:25:39Z</time>
      </trkpt>
      <trkpt lat="44.92961" lon="5.32078">
        <ele>1192.8</ele>
        <time>2021-10-08T08:25:40Z</time>
      </trkpt>
      <trkpt lat="44.92963" lon="5.32079">
        <ele>1193.6</ele>
        <time>2021-10-08T08:25:41Z</time>
      </trkpt>
      <trkpt lat="44.92966" lon="5.32079">
        <ele>1193.6</ele>
        <time>2021-10-08T08:25:42Z</time>
      </trkpt>
      <trkpt lat="44.92968" lon="5.3208">
        <ele>1193.6</ele>
        <time>2021-10-08T08:25:43Z</time>
      </trkpt>
      <trkpt lat="44.92971" lon="5.32081">
        <ele>1193.6</ele>
        <time>2021-10-08T08:25:44Z</time>
      </trkpt>
      <trkpt lat="44.92973" lon="5.32081">
        <ele>1193.4</ele>
        <time>2021-10-08T08:25:45Z</time>
      </trkpt>
      <trkpt lat="44.92976" lon="5.32082">
        <ele>1193.4</ele>
        <time>2021-10-08T08:25:46Z</time>
      </trkpt>
      <trkpt lat="44.92978" lon="5.32083">
        <ele>1193.4</ele>
        <time>2021-10-08T08:25:47Z</time>
      </trkpt>
      <trkpt lat="44.92981" lon="5.32084">
        <ele>1193.4</ele>
        <time>2021-10-08T08:25:48Z</time>
      </trkpt>
      <trkpt lat="44.92984" lon="5.32084">
        <ele>1194</ele>
        <time>2021-10-08T08:25:49Z</time>
      </trkpt>
      <trkpt lat="44.92986" lon="5.32085">
        <ele>1194</ele>
        <time>2021-10-08T08:25:50Z</time>
      </trkpt>
      <trkpt lat="44.92989" lon="5.32085">
        <ele>1194</ele>
        <time>2021-10-08T08:25:51Z</time>
      </trkpt>
      <trkpt lat="44.92992" lon="5.32085">
        <ele>1194</ele>
        <time>2021-10-08T08:25:52Z</time>
      </trkpt>
      <trkpt lat="44.92994" lon="5.32085">
        <ele>1194.6</ele>
        <time>2021-10-08T08:25:53Z</time>
      </trkpt>
      <trkpt lat="44.92997" lon="5.32085">
        <ele>1194.6</ele>
        <time>2021-10-08T08:25:54Z</time>
      </trkpt>
      <trkpt lat="44.92999" lon="5.32086">
        <ele>1194.6</ele>
        <time>2021-10-08T08:25:55Z</time>
      </trkpt>
      <trkpt lat="44.93002" lon="5.32086">
        <ele>1194.6</ele>
        <time>2021-10-08T08:25:56Z</time>
      </trkpt>
      <trkpt lat="44.93004" lon="5.32088">
        <ele>1194.6</ele>
        <time>2021-10-08T08:25:57Z</time>
      </trkpt>
      <trkpt lat="44.93007" lon="5.32089">
        <ele>1194.8</ele>
        <time>2021-10-08T08:25:58Z</time>
      </trkpt>
      <trkpt lat="44.93009" lon="5.3209">
        <ele>1194.8</ele>
        <time>2021-10-08T08:25:59Z</time>
      </trkpt>
      <trkpt lat="44.93012" lon="5.3209">
        <ele>1194.8</ele>
        <time>2021-10-08T08:26:00Z</time>
      </trkpt>
      <trkpt lat="44.93015" lon="5.32091">
        <ele>1195.4</ele>
        <time>2021-10-08T08:26:01Z</time>
      </trkpt>
      <trkpt lat="44.93017" lon="5.32092">
        <ele>1195.4</ele>
        <time>2021-10-08T08:26:02Z</time>
      </trkpt>
      <trkpt lat="44.9302" lon="5.32093">
        <ele>1195.4</ele>
        <time>2021-10-08T08:26:03Z</time>
      </trkpt>
      <trkpt lat="44.93023" lon="5.32093">
        <ele>1195.4</ele>
        <time>2021-10-08T08:26:04Z</time>
      </trkpt>
      <trkpt lat="44.93026" lon="5.32093">
        <ele>1195.4</ele>
        <time>2021-10-08T08:26:05Z</time>
      </trkpt>
      <trkpt lat="44.93028" lon="5.32094">
        <ele>1195.8</ele>
        <time>2021-10-08T08:26:06Z</time>
      </trkpt>
      <trkpt lat="44.93031" lon="5.32095">
        <ele>1195.8</ele>
        <time>2021-10-08T08:26:07Z</time>
      </trkpt>
      <trkpt lat="44.93034" lon="5.32096">
        <ele>1195.8</ele>
        <time>2021-10-08T08:26:08Z</time>
      </trkpt>
      <trkpt lat="44.93036" lon="5.32096">
        <ele>1195.8</ele>
        <time>2021-10-08T08:26:09Z</time>
      </trkpt>
      <trkpt lat="44.93039" lon="5.32097">
        <ele>1196</ele>
        <time>2021-10-08T08:26:10Z</time>
      </trkpt>
      <trkpt lat="44.93041" lon="5.32098">
        <ele>1196</ele>
        <time>2021-10-08T08:26:11Z</time>
      </trkpt>
      <trkpt lat="44.93043" lon="5.32098">
        <ele>1196</ele>
        <time>2021-10-08T08:26:12Z</time>
      </trkpt>
      <trkpt lat="44.93046" lon="5.32099">
        <ele>1196.6</ele>
        <time>2021-10-08T08:26:13Z</time>
      </trkpt>
      <trkpt lat="44.93049" lon="5.321">
        <ele>1196.6</ele>
        <time>2021-10-08T08:26:14Z</time>
      </trkpt>
      <trkpt lat="44.93052" lon="5.32101">
        <ele>1196.6</ele>
        <time>2021-10-08T08:26:15Z</time>
      </trkpt>
      <trkpt lat="44.93054" lon="5.32102">
        <ele>1196.6</ele>
        <time>2021-10-08T08:26:16Z</time>
      </trkpt>
      <trkpt lat="44.93057" lon="5.32104">
        <ele>1197</ele>
        <time>2021-10-08T08:26:17Z</time>
      </trkpt>
      <trkpt lat="44.9306" lon="5.32104">
        <ele>1197</ele>
        <time>2021-10-08T08:26:18Z</time>
      </trkpt>
      <trkpt lat="44.93062" lon="5.32105">
        <ele>1197</ele>
        <time>2021-10-08T08:26:19Z</time>
      </trkpt>
      <trkpt lat="44.93065" lon="5.32106">
        <ele>1197</ele>
        <time>2021-10-08T08:26:20Z</time>
      </trkpt>
      <trkpt lat="44.93067" lon="5.32107">
        <ele>1197</ele>
        <time>2021-10-08T08:26:21Z</time>
      </trkpt>
      <trkpt lat="44.9307" lon="5.32108">
        <ele>1197.2</ele>
        <time>2021-10-08T08:26:22Z</time>
      </trkpt>
      <trkpt lat="44.93072" lon="5.32108">
        <ele>1197.2</ele>
        <time>2021-10-08T08:26:23Z</time>
      </trkpt>
      <trkpt lat="44.93075" lon="5.32109">
        <ele>1197.2</ele>
        <time>2021-10-08T08:26:24Z</time>
      </trkpt>
      <trkpt lat="44.93077" lon="5.32111">
        <ele>1197.4</ele>
        <time>2021-10-08T08:26:25Z</time>
      </trkpt>
      <trkpt lat="44.9308" lon="5.32113">
        <ele>1197.8</ele>
        <time>2021-10-08T08:26:26Z</time>
      </trkpt>
      <trkpt lat="44.93082" lon="5.32114">
        <ele>1197.8</ele>
        <time>2021-10-08T08:26:27Z</time>
      </trkpt>
      <trkpt lat="44.93084" lon="5.32115">
        <ele>1197.8</ele>
        <time>2021-10-08T08:26:28Z</time>
      </trkpt>
      <trkpt lat="44.93085" lon="5.32115">
        <ele>1197.8</ele>
        <time>2021-10-08T08:26:29Z</time>
      </trkpt>
      <trkpt lat="44.93088" lon="5.32116">
        <ele>1198</ele>
        <time>2021-10-08T08:26:30Z</time>
      </trkpt>
      <trkpt lat="44.9309" lon="5.32117">
        <ele>1198</ele>
        <time>2021-10-08T08:26:31Z</time>
      </trkpt>
      <trkpt lat="44.93093" lon="5.32119">
        <ele>1198</ele>
        <time>2021-10-08T08:26:32Z</time>
      </trkpt>
      <trkpt lat="44.93094" lon="5.3212">
        <ele>1198.6</ele>
        <time>2021-10-08T08:26:33Z</time>
      </trkpt>
      <trkpt lat="44.93097" lon="5.32121">
        <ele>1198.6</ele>
        <time>2021-10-08T08:26:34Z</time>
      </trkpt>
      <trkpt lat="44.93099" lon="5.32122">
        <ele>1198.6</ele>
        <time>2021-10-08T08:26:35Z</time>
      </trkpt>
      <trkpt lat="44.93102" lon="5.32123">
        <ele>1198.6</ele>
        <time>2021-10-08T08:26:36Z</time>
      </trkpt>
      <trkpt lat="44.93104" lon="5.32125">
        <ele>1198.6</ele>
        <time>2021-10-08T08:26:37Z</time>
      </trkpt>
      <trkpt lat="44.93107" lon="5.32127">
        <ele>1198.8</ele>
        <time>2021-10-08T08:26:38Z</time>
      </trkpt>
      <trkpt lat="44.9311" lon="5.32129">
        <ele>1198.8</ele>
        <time>2021-10-08T08:26:39Z</time>
      </trkpt>
      <trkpt lat="44.93112" lon="5.3213">
        <ele>1198.8</ele>
        <time>2021-10-08T08:26:40Z</time>
      </trkpt>
      <trkpt lat="44.93114" lon="5.32132">
        <ele>1199.6</ele>
        <time>2021-10-08T08:26:41Z</time>
      </trkpt>
      <trkpt lat="44.93117" lon="5.32134">
        <ele>1199.6</ele>
        <time>2021-10-08T08:26:42Z</time>
      </trkpt>
      <trkpt lat="44.93119" lon="5.32135">
        <ele>1199.6</ele>
        <time>2021-10-08T08:26:43Z</time>
      </trkpt>
      <trkpt lat="44.93122" lon="5.32137">
        <ele>1199.6</ele>
        <time>2021-10-08T08:26:44Z</time>
      </trkpt>
      <trkpt lat="44.93123" lon="5.32139">
        <ele>1199.6</ele>
        <time>2021-10-08T08:26:45Z</time>
      </trkpt>
      <trkpt lat="44.93126" lon="5.32141">
        <ele>1200</ele>
        <time>2021-10-08T08:26:46Z</time>
      </trkpt>
      <trkpt lat="44.93128" lon="5.32143">
        <ele>1200</ele>
        <time>2021-10-08T08:26:47Z</time>
      </trkpt>
      <trkpt lat="44.9313" lon="5.32146">
        <ele>1200</ele>
        <time>2021-10-08T08:26:48Z</time>
      </trkpt>
      <trkpt lat="44.93132" lon="5.32149">
        <ele>1200.2</ele>
        <time>2021-10-08T08:26:49Z</time>
      </trkpt>
      <trkpt lat="44.93135" lon="5.32153">
        <ele>1200.4</ele>
        <time>2021-10-08T08:26:50Z</time>
      </trkpt>
      <trkpt lat="44.93137" lon="5.32156">
        <ele>1200.4</ele>
        <time>2021-10-08T08:26:51Z</time>
      </trkpt>
      <trkpt lat="44.93139" lon="5.32159">
        <ele>1200.4</ele>
        <time>2021-10-08T08:26:52Z</time>
      </trkpt>
      <trkpt lat="44.93141" lon="5.32162">
        <ele>1200.4</ele>
        <time>2021-10-08T08:26:53Z</time>
      </trkpt>
      <trkpt lat="44.93143" lon="5.32166">
        <ele>1200.8</ele>
        <time>2021-10-08T08:26:54Z</time>
      </trkpt>
      <trkpt lat="44.93144" lon="5.32169">
        <ele>1200.8</ele>
        <time>2021-10-08T08:26:55Z</time>
      </trkpt>
      <trkpt lat="44.93146" lon="5.32172">
        <ele>1200.8</ele>
        <time>2021-10-08T08:26:56Z</time>
      </trkpt>
      <trkpt lat="44.93147" lon="5.32175">
        <ele>1200.8</ele>
        <time>2021-10-08T08:26:57Z</time>
      </trkpt>
      <trkpt lat="44.93148" lon="5.32178">
        <ele>1201.2</ele>
        <time>2021-10-08T08:26:58Z</time>
      </trkpt>
      <trkpt lat="44.9315" lon="5.32182">
        <ele>1201.2</ele>
        <time>2021-10-08T08:26:59Z</time>
      </trkpt>
      <trkpt lat="44.9315" lon="5.32185">
        <ele>1201.2</ele>
        <time>2021-10-08T08:27:00Z</time>
      </trkpt>
      <trkpt lat="44.93151" lon="5.32188">
        <ele>1202.2</ele>
        <time>2021-10-08T08:27:01Z</time>
      </trkpt>
      <trkpt lat="44.93152" lon="5.32191">
        <ele>1201.8</ele>
        <time>2021-10-08T08:27:02Z</time>
      </trkpt>
      <trkpt lat="44.93152" lon="5.32195">
        <ele>1201.8</ele>
        <time>2021-10-08T08:27:03Z</time>
      </trkpt>
      <trkpt lat="44.93153" lon="5.32198">
        <ele>1201.8</ele>
        <time>2021-10-08T08:27:04Z</time>
      </trkpt>
      <trkpt lat="44.93153" lon="5.32201">
        <ele>1201.8</ele>
        <time>2021-10-08T08:27:05Z</time>
      </trkpt>
      <trkpt lat="44.93154" lon="5.32205">
        <ele>1202.4</ele>
        <time>2021-10-08T08:27:06Z</time>
      </trkpt>
      <trkpt lat="44.93154" lon="5.32208">
        <ele>1202.4</ele>
        <time>2021-10-08T08:27:07Z</time>
      </trkpt>
      <trkpt lat="44.93154" lon="5.32212">
        <ele>1202.4</ele>
        <time>2021-10-08T08:27:08Z</time>
      </trkpt>
      <trkpt lat="44.93155" lon="5.32215">
        <ele>1202.8</ele>
        <time>2021-10-08T08:27:09Z</time>
      </trkpt>
      <trkpt lat="44.93156" lon="5.32219">
        <ele>1203</ele>
        <time>2021-10-08T08:27:10Z</time>
      </trkpt>
      <trkpt lat="44.93156" lon="5.32222">
        <ele>1203</ele>
        <time>2021-10-08T08:27:11Z</time>
      </trkpt>
      <trkpt lat="44.93157" lon="5.32226">
        <ele>1203</ele>
        <time>2021-10-08T08:27:12Z</time>
      </trkpt>
      <trkpt lat="44.93157" lon="5.32229">
        <ele>1203</ele>
        <time>2021-10-08T08:27:13Z</time>
      </trkpt>
      <trkpt lat="44.93158" lon="5.32233">
        <ele>1203.2</ele>
        <time>2021-10-08T08:27:14Z</time>
      </trkpt>
      <trkpt lat="44.93158" lon="5.32237">
        <ele>1203.2</ele>
        <time>2021-10-08T08:27:15Z</time>
      </trkpt>
      <trkpt lat="44.93159" lon="5.32241">
        <ele>1203.2</ele>
        <time>2021-10-08T08:27:16Z</time>
      </trkpt>
      <trkpt lat="44.9316" lon="5.32244">
        <ele>1203.2</ele>
        <time>2021-10-08T08:27:17Z</time>
      </trkpt>
      <trkpt lat="44.9316" lon="5.32248">
        <ele>1203.8</ele>
        <time>2021-10-08T08:27:18Z</time>
      </trkpt>
      <trkpt lat="44.93161" lon="5.32251">
        <ele>1203.8</ele>
        <time>2021-10-08T08:27:19Z</time>
      </trkpt>
      <trkpt lat="44.93162" lon="5.32254">
        <ele>1203.8</ele>
        <time>2021-10-08T08:27:20Z</time>
      </trkpt>
      <trkpt lat="44.93163" lon="5.32258">
        <ele>1204</ele>
        <time>2021-10-08T08:27:21Z</time>
      </trkpt>
      <trkpt lat="44.93164" lon="5.32261">
        <ele>1204</ele>
        <time>2021-10-08T08:27:22Z</time>
      </trkpt>
      <trkpt lat="44.93165" lon="5.32264">
        <ele>1204</ele>
        <time>2021-10-08T08:27:23Z</time>
      </trkpt>
      <trkpt lat="44.93166" lon="5.32267">
        <ele>1204</ele>
        <time>2021-10-08T08:27:24Z</time>
      </trkpt>
      <trkpt lat="44.93166" lon="5.32271">
        <ele>1204.4</ele>
        <time>2021-10-08T08:27:25Z</time>
      </trkpt>
      <trkpt lat="44.93167" lon="5.32275">
        <ele>1204.2</ele>
        <time>2021-10-08T08:27:26Z</time>
      </trkpt>
      <trkpt lat="44.93168" lon="5.32278">
        <ele>1204.2</ele>
        <time>2021-10-08T08:27:27Z</time>
      </trkpt>
      <trkpt lat="44.93169" lon="5.32281">
        <ele>1204.2</ele>
        <time>2021-10-08T08:27:28Z</time>
      </trkpt>
      <trkpt lat="44.93171" lon="5.32284">
        <ele>1205</ele>
        <time>2021-10-08T08:27:29Z</time>
      </trkpt>
      <trkpt lat="44.93172" lon="5.32287">
        <ele>1205</ele>
        <time>2021-10-08T08:27:30Z</time>
      </trkpt>
      <trkpt lat="44.93174" lon="5.3229">
        <ele>1205</ele>
        <time>2021-10-08T08:27:31Z</time>
      </trkpt>
      <trkpt lat="44.93175" lon="5.32293">
        <ele>1205</ele>
        <time>2021-10-08T08:27:32Z</time>
      </trkpt>
      <trkpt lat="44.93176" lon="5.32296">
        <ele>1205</ele>
        <time>2021-10-08T08:27:33Z</time>
      </trkpt>
      <trkpt lat="44.93179" lon="5.32299">
        <ele>1206</ele>
        <time>2021-10-08T08:27:34Z</time>
      </trkpt>
      <trkpt lat="44.93181" lon="5.32301">
        <ele>1206</ele>
        <time>2021-10-08T08:27:35Z</time>
      </trkpt>
      <trkpt lat="44.93183" lon="5.32304">
        <ele>1206</ele>
        <time>2021-10-08T08:27:36Z</time>
      </trkpt>
      <trkpt lat="44.93185" lon="5.32306">
        <ele>1206</ele>
        <time>2021-10-08T08:27:37Z</time>
      </trkpt>
      <trkpt lat="44.93187" lon="5.32308">
        <ele>1206.4</ele>
        <time>2021-10-08T08:27:38Z</time>
      </trkpt>
      <trkpt lat="44.9319" lon="5.32311">
        <ele>1206.4</ele>
        <time>2021-10-08T08:27:39Z</time>
      </trkpt>
      <trkpt lat="44.93192" lon="5.32313">
        <ele>1206.4</ele>
        <time>2021-10-08T08:27:40Z</time>
      </trkpt>
      <trkpt lat="44.93194" lon="5.32315">
        <ele>1206.4</ele>
        <time>2021-10-08T08:27:41Z</time>
      </trkpt>
      <trkpt lat="44.93197" lon="5.32317">
        <ele>1206.4</ele>
        <time>2021-10-08T08:27:42Z</time>
      </trkpt>
      <trkpt lat="44.93199" lon="5.32319">
        <ele>1206.4</ele>
        <time>2021-10-08T08:27:43Z</time>
      </trkpt>
      <trkpt lat="44.93201" lon="5.32321">
        <ele>1206.4</ele>
        <time>2021-10-08T08:27:44Z</time>
      </trkpt>
      <trkpt lat="44.93205" lon="5.32322">
        <ele>1206.8</ele>
        <time>2021-10-08T08:27:45Z</time>
      </trkpt>
      <trkpt lat="44.93208" lon="5.32324">
        <ele>1207.4</ele>
        <time>2021-10-08T08:27:46Z</time>
      </trkpt>
      <trkpt lat="44.93211" lon="5.32324">
        <ele>1207.4</ele>
        <time>2021-10-08T08:27:47Z</time>
      </trkpt>
      <trkpt lat="44.93213" lon="5.32325">
        <ele>1207.4</ele>
        <time>2021-10-08T08:27:48Z</time>
      </trkpt>
      <trkpt lat="44.93216" lon="5.32326">
        <ele>1207.4</ele>
        <time>2021-10-08T08:27:49Z</time>
      </trkpt>
      <trkpt lat="44.93219" lon="5.32325">
        <ele>1207.6</ele>
        <time>2021-10-08T08:27:50Z</time>
      </trkpt>
      <trkpt lat="44.93222" lon="5.32326">
        <ele>1207.6</ele>
        <time>2021-10-08T08:27:51Z</time>
      </trkpt>
      <trkpt lat="44.93224" lon="5.32326">
        <ele>1207.6</ele>
        <time>2021-10-08T08:27:52Z</time>
      </trkpt>
      <trkpt lat="44.93227" lon="5.32327">
        <ele>1207.6</ele>
        <time>2021-10-08T08:27:53Z</time>
      </trkpt>
      <trkpt lat="44.9323" lon="5.32326">
        <ele>1207.6</ele>
        <time>2021-10-08T08:27:54Z</time>
      </trkpt>
      <trkpt lat="44.93232" lon="5.32326">
        <ele>1207.6</ele>
        <time>2021-10-08T08:27:55Z</time>
      </trkpt>
      <trkpt lat="44.93235" lon="5.32325">
        <ele>1207.6</ele>
        <time>2021-10-08T08:27:56Z</time>
      </trkpt>
      <trkpt lat="44.93238" lon="5.32326">
        <ele>1208</ele>
        <time>2021-10-08T08:27:57Z</time>
      </trkpt>
      <trkpt lat="44.9324" lon="5.32325">
        <ele>1208.2</ele>
        <time>2021-10-08T08:27:58Z</time>
      </trkpt>
      <trkpt lat="44.93243" lon="5.32324">
        <ele>1208.2</ele>
        <time>2021-10-08T08:27:59Z</time>
      </trkpt>
      <trkpt lat="44.93246" lon="5.32323">
        <ele>1208.2</ele>
        <time>2021-10-08T08:28:00Z</time>
      </trkpt>
      <trkpt lat="44.93249" lon="5.32322">
        <ele>1208.2</ele>
        <time>2021-10-08T08:28:01Z</time>
      </trkpt>
      <trkpt lat="44.93252" lon="5.32321">
        <ele>1208.4</ele>
        <time>2021-10-08T08:28:02Z</time>
      </trkpt>
      <trkpt lat="44.93255" lon="5.3232">
        <ele>1208.4</ele>
        <time>2021-10-08T08:28:03Z</time>
      </trkpt>
      <trkpt lat="44.93258" lon="5.3232">
        <ele>1208.4</ele>
        <time>2021-10-08T08:28:04Z</time>
      </trkpt>
      <trkpt lat="44.9326" lon="5.3232">
        <ele>1208.8</ele>
        <time>2021-10-08T08:28:05Z</time>
      </trkpt>
      <trkpt lat="44.93263" lon="5.3232">
        <ele>1209</ele>
        <time>2021-10-08T08:28:06Z</time>
      </trkpt>
      <trkpt lat="44.93266" lon="5.3232">
        <ele>1209</ele>
        <time>2021-10-08T08:28:07Z</time>
      </trkpt>
      <trkpt lat="44.93269" lon="5.32319">
        <ele>1209</ele>
        <time>2021-10-08T08:28:08Z</time>
      </trkpt>
      <trkpt lat="44.93272" lon="5.32319">
        <ele>1209.4</ele>
        <time>2021-10-08T08:28:09Z</time>
      </trkpt>
      <trkpt lat="44.93275" lon="5.32318">
        <ele>1209.4</ele>
        <time>2021-10-08T08:28:10Z</time>
      </trkpt>
      <trkpt lat="44.93277" lon="5.32319">
        <ele>1209.4</ele>
        <time>2021-10-08T08:28:11Z</time>
      </trkpt>
      <trkpt lat="44.9328" lon="5.32318">
        <ele>1209.4</ele>
        <time>2021-10-08T08:28:12Z</time>
      </trkpt>
      <trkpt lat="44.93283" lon="5.32318">
        <ele>1210</ele>
        <time>2021-10-08T08:28:13Z</time>
      </trkpt>
      <trkpt lat="44.93286" lon="5.32319">
        <ele>1210</ele>
        <time>2021-10-08T08:28:14Z</time>
      </trkpt>
      <trkpt lat="44.93288" lon="5.32319">
        <ele>1210</ele>
        <time>2021-10-08T08:28:15Z</time>
      </trkpt>
      <trkpt lat="44.93291" lon="5.32319">
        <ele>1210</ele>
        <time>2021-10-08T08:28:16Z</time>
      </trkpt>
      <trkpt lat="44.93294" lon="5.32319">
        <ele>1210</ele>
        <time>2021-10-08T08:28:17Z</time>
      </trkpt>
      <trkpt lat="44.93296" lon="5.3232">
        <ele>1210.6</ele>
        <time>2021-10-08T08:28:18Z</time>
      </trkpt>
      <trkpt lat="44.93299" lon="5.32321">
        <ele>1210.6</ele>
        <time>2021-10-08T08:28:19Z</time>
      </trkpt>
      <trkpt lat="44.93301" lon="5.32321">
        <ele>1210.6</ele>
        <time>2021-10-08T08:28:20Z</time>
      </trkpt>
      <trkpt lat="44.93304" lon="5.32322">
        <ele>1210.4</ele>
        <time>2021-10-08T08:28:21Z</time>
      </trkpt>
      <trkpt lat="44.93306" lon="5.32323">
        <ele>1210.6</ele>
        <time>2021-10-08T08:28:22Z</time>
      </trkpt>
      <trkpt lat="44.93308" lon="5.32323">
        <ele>1210.6</ele>
        <time>2021-10-08T08:28:23Z</time>
      </trkpt>
      <trkpt lat="44.9331" lon="5.32324">
        <ele>1210.6</ele>
        <time>2021-10-08T08:28:24Z</time>
      </trkpt>
      <trkpt lat="44.93312" lon="5.32325">
        <ele>1211</ele>
        <time>2021-10-08T08:28:25Z</time>
      </trkpt>
      <trkpt lat="44.93314" lon="5.32325">
        <ele>1211.4</ele>
        <time>2021-10-08T08:28:26Z</time>
      </trkpt>
      <trkpt lat="44.93315" lon="5.32326">
        <ele>1211.4</ele>
        <time>2021-10-08T08:28:27Z</time>
      </trkpt>
      <trkpt lat="44.93317" lon="5.32327">
        <ele>1211.4</ele>
        <time>2021-10-08T08:28:28Z</time>
      </trkpt>
      <trkpt lat="44.93318" lon="5.32328">
        <ele>1211.4</ele>
        <time>2021-10-08T08:28:29Z</time>
      </trkpt>
      <trkpt lat="44.93319" lon="5.32329">
        <ele>1211.4</ele>
        <time>2021-10-08T08:28:30Z</time>
      </trkpt>
      <trkpt lat="44.9332" lon="5.3233">
        <ele>1211.4</ele>
        <time>2021-10-08T08:28:31Z</time>
      </trkpt>
      <trkpt lat="44.93321" lon="5.32331">
        <ele>1211.4</ele>
        <time>2021-10-08T08:28:32Z</time>
      </trkpt>
      <trkpt lat="44.93322" lon="5.32333">
        <ele>1211.4</ele>
        <time>2021-10-08T08:28:33Z</time>
      </trkpt>
      <trkpt lat="44.93323" lon="5.32334">
        <ele>1211.4</ele>
        <time>2021-10-08T08:28:34Z</time>
      </trkpt>
      <trkpt lat="44.93323" lon="5.32336">
        <ele>1211.4</ele>
        <time>2021-10-08T08:28:35Z</time>
      </trkpt>
      <trkpt lat="44.93323" lon="5.32339">
        <ele>1211.4</ele>
        <time>2021-10-08T08:28:36Z</time>
      </trkpt>
      <trkpt lat="44.93321" lon="5.32341">
        <ele>1211.4</ele>
        <time>2021-10-08T08:28:37Z</time>
      </trkpt>
      <trkpt lat="44.93319" lon="5.32343">
        <ele>1211.6</ele>
        <time>2021-10-08T08:28:38Z</time>
      </trkpt>
      <trkpt lat="44.93317" lon="5.32343">
        <ele>1211.6</ele>
        <time>2021-10-08T08:28:39Z</time>
      </trkpt>
      <trkpt lat="44.93315" lon="5.32343">
        <ele>1211.6</ele>
        <time>2021-10-08T08:28:40Z</time>
      </trkpt>
      <trkpt lat="44.93312" lon="5.32343">
        <ele>1212.6</ele>
        <time>2021-10-08T08:28:41Z</time>
      </trkpt>
      <trkpt lat="44.9331" lon="5.32343">
        <ele>1212.6</ele>
        <time>2021-10-08T08:28:42Z</time>
      </trkpt>
      <trkpt lat="44.93308" lon="5.32342">
        <ele>1212.6</ele>
        <time>2021-10-08T08:28:43Z</time>
      </trkpt>
      <trkpt lat="44.93306" lon="5.32342">
        <ele>1212.6</ele>
        <time>2021-10-08T08:28:44Z</time>
      </trkpt>
      <trkpt lat="44.93303" lon="5.32341">
        <ele>1212.6</ele>
        <time>2021-10-08T08:28:45Z</time>
      </trkpt>
      <trkpt lat="44.93301" lon="5.32341">
        <ele>1212.8</ele>
        <time>2021-10-08T08:28:46Z</time>
      </trkpt>
      <trkpt lat="44.93298" lon="5.3234">
        <ele>1212.8</ele>
        <time>2021-10-08T08:28:47Z</time>
      </trkpt>
      <trkpt lat="44.93296" lon="5.3234">
        <ele>1212.8</ele>
        <time>2021-10-08T08:28:48Z</time>
      </trkpt>
      <trkpt lat="44.93294" lon="5.32339">
        <ele>1213.8</ele>
        <time>2021-10-08T08:28:49Z</time>
      </trkpt>
      <trkpt lat="44.93291" lon="5.32339">
        <ele>1213.8</ele>
        <time>2021-10-08T08:28:50Z</time>
      </trkpt>
      <trkpt lat="44.93289" lon="5.32339">
        <ele>1213.8</ele>
        <time>2021-10-08T08:28:51Z</time>
      </trkpt>
      <trkpt lat="44.93287" lon="5.32338">
        <ele>1213.8</ele>
        <time>2021-10-08T08:28:52Z</time>
      </trkpt>
      <trkpt lat="44.93284" lon="5.32338">
        <ele>1213.8</ele>
        <time>2021-10-08T08:28:53Z</time>
      </trkpt>
      <trkpt lat="44.93281" lon="5.32338">
        <ele>1214</ele>
        <time>2021-10-08T08:28:54Z</time>
      </trkpt>
      <trkpt lat="44.93279" lon="5.32339">
        <ele>1214</ele>
        <time>2021-10-08T08:28:55Z</time>
      </trkpt>
      <trkpt lat="44.93276" lon="5.32339">
        <ele>1214</ele>
        <time>2021-10-08T08:28:56Z</time>
      </trkpt>
      <trkpt lat="44.93274" lon="5.3234">
        <ele>1214</ele>
        <time>2021-10-08T08:28:57Z</time>
      </trkpt>
      <trkpt lat="44.93272" lon="5.3234">
        <ele>1214.4</ele>
        <time>2021-10-08T08:28:58Z</time>
      </trkpt>
      <trkpt lat="44.93269" lon="5.3234">
        <ele>1214.4</ele>
        <time>2021-10-08T08:28:59Z</time>
      </trkpt>
      <trkpt lat="44.93267" lon="5.32341">
        <ele>1214.4</ele>
        <time>2021-10-08T08:29:00Z</time>
      </trkpt>
      <trkpt lat="44.93264" lon="5.32341">
        <ele>1215.2</ele>
        <time>2021-10-08T08:29:01Z</time>
      </trkpt>
      <trkpt lat="44.93262" lon="5.32342">
        <ele>1215</ele>
        <time>2021-10-08T08:29:02Z</time>
      </trkpt>
      <trkpt lat="44.9326" lon="5.32342">
        <ele>1215</ele>
        <time>2021-10-08T08:29:03Z</time>
      </trkpt>
      <trkpt lat="44.93257" lon="5.32343">
        <ele>1215</ele>
        <time>2021-10-08T08:29:04Z</time>
      </trkpt>
      <trkpt lat="44.93255" lon="5.32343">
        <ele>1216</ele>
        <time>2021-10-08T08:29:05Z</time>
      </trkpt>
      <trkpt lat="44.93253" lon="5.32344">
        <ele>1216</ele>
        <time>2021-10-08T08:29:06Z</time>
      </trkpt>
      <trkpt lat="44.93251" lon="5.32345">
        <ele>1216</ele>
        <time>2021-10-08T08:29:07Z</time>
      </trkpt>
      <trkpt lat="44.93248" lon="5.32345">
        <ele>1216</ele>
        <time>2021-10-08T08:29:08Z</time>
      </trkpt>
      <trkpt lat="44.93247" lon="5.32347">
        <ele>1217</ele>
        <time>2021-10-08T08:29:09Z</time>
      </trkpt>
      <trkpt lat="44.93245" lon="5.32347">
        <ele>1217</ele>
        <time>2021-10-08T08:29:10Z</time>
      </trkpt>
      <trkpt lat="44.93243" lon="5.32348">
        <ele>1217</ele>
        <time>2021-10-08T08:29:11Z</time>
      </trkpt>
      <trkpt lat="44.9324" lon="5.32348">
        <ele>1217</ele>
        <time>2021-10-08T08:29:12Z</time>
      </trkpt>
      <trkpt lat="44.93238" lon="5.32348">
        <ele>1217.8</ele>
        <time>2021-10-08T08:29:13Z</time>
      </trkpt>
      <trkpt lat="44.93236" lon="5.32349">
        <ele>1217.8</ele>
        <time>2021-10-08T08:29:14Z</time>
      </trkpt>
      <trkpt lat="44.93234" lon="5.32349">
        <ele>1217.8</ele>
        <time>2021-10-08T08:29:15Z</time>
      </trkpt>
      <trkpt lat="44.93232" lon="5.32349">
        <ele>1217.8</ele>
        <time>2021-10-08T08:29:16Z</time>
      </trkpt>
      <trkpt lat="44.93229" lon="5.3235">
        <ele>1217.8</ele>
        <time>2021-10-08T08:29:17Z</time>
      </trkpt>
      <trkpt lat="44.93227" lon="5.3235">
        <ele>1218.6</ele>
        <time>2021-10-08T08:29:18Z</time>
      </trkpt>
      <trkpt lat="44.93225" lon="5.3235">
        <ele>1218.6</ele>
        <time>2021-10-08T08:29:19Z</time>
      </trkpt>
      <trkpt lat="44.93223" lon="5.3235">
        <ele>1218.6</ele>
        <time>2021-10-08T08:29:20Z</time>
      </trkpt>
      <trkpt lat="44.9322" lon="5.32351">
        <ele>1219</ele>
        <time>2021-10-08T08:29:21Z</time>
      </trkpt>
      <trkpt lat="44.93218" lon="5.32351">
        <ele>1219</ele>
        <time>2021-10-08T08:29:22Z</time>
      </trkpt>
      <trkpt lat="44.93216" lon="5.32351">
        <ele>1219</ele>
        <time>2021-10-08T08:29:23Z</time>
      </trkpt>
      <trkpt lat="44.93214" lon="5.3235">
        <ele>1219</ele>
        <time>2021-10-08T08:29:24Z</time>
      </trkpt>
      <trkpt lat="44.93211" lon="5.3235">
        <ele>1219</ele>
        <time>2021-10-08T08:29:25Z</time>
      </trkpt>
      <trkpt lat="44.93209" lon="5.32349">
        <ele>1219.6</ele>
        <time>2021-10-08T08:29:26Z</time>
      </trkpt>
      <trkpt lat="44.93207" lon="5.32349">
        <ele>1219.6</ele>
        <time>2021-10-08T08:29:27Z</time>
      </trkpt>
      <trkpt lat="44.93204" lon="5.32348">
        <ele>1219.6</ele>
        <time>2021-10-08T08:29:28Z</time>
      </trkpt>
      <trkpt lat="44.93202" lon="5.32348">
        <ele>1220</ele>
        <time>2021-10-08T08:29:29Z</time>
      </trkpt>
      <trkpt lat="44.93199" lon="5.32347">
        <ele>1220.2</ele>
        <time>2021-10-08T08:29:30Z</time>
      </trkpt>
      <trkpt lat="44.93197" lon="5.32346">
        <ele>1220.2</ele>
        <time>2021-10-08T08:29:31Z</time>
      </trkpt>
      <trkpt lat="44.93194" lon="5.32345">
        <ele>1220.2</ele>
        <time>2021-10-08T08:29:32Z</time>
      </trkpt>
      <trkpt lat="44.93192" lon="5.32345">
        <ele>1220.2</ele>
        <time>2021-10-08T08:29:33Z</time>
      </trkpt>
      <trkpt lat="44.9319" lon="5.32344">
        <ele>1220.8</ele>
        <time>2021-10-08T08:29:34Z</time>
      </trkpt>
      <trkpt lat="44.93187" lon="5.32343">
        <ele>1220.8</ele>
        <time>2021-10-08T08:29:35Z</time>
      </trkpt>
      <trkpt lat="44.93185" lon="5.32342">
        <ele>1220.8</ele>
        <time>2021-10-08T08:29:36Z</time>
      </trkpt>
      <trkpt lat="44.93182" lon="5.32341">
        <ele>1221.4</ele>
        <time>2021-10-08T08:29:37Z</time>
      </trkpt>
      <trkpt lat="44.93179" lon="5.3234">
        <ele>1221.6</ele>
        <time>2021-10-08T08:29:38Z</time>
      </trkpt>
      <trkpt lat="44.93177" lon="5.32339">
        <ele>1221.6</ele>
        <time>2021-10-08T08:29:39Z</time>
      </trkpt>
      <trkpt lat="44.93174" lon="5.32338">
        <ele>1221.6</ele>
        <time>2021-10-08T08:29:40Z</time>
      </trkpt>
      <trkpt lat="44.93172" lon="5.32337">
        <ele>1221.6</ele>
        <time>2021-10-08T08:29:41Z</time>
      </trkpt>
      <trkpt lat="44.93169" lon="5.32336">
        <ele>1221.8</ele>
        <time>2021-10-08T08:29:42Z</time>
      </trkpt>
      <trkpt lat="44.93167" lon="5.32336">
        <ele>1221.8</ele>
        <time>2021-10-08T08:29:43Z</time>
      </trkpt>
      <trkpt lat="44.93164" lon="5.32335">
        <ele>1221.8</ele>
        <time>2021-10-08T08:29:44Z</time>
      </trkpt>
      <trkpt lat="44.93162" lon="5.32334">
        <ele>1221.8</ele>
        <time>2021-10-08T08:29:45Z</time>
      </trkpt>
      <trkpt lat="44.93159" lon="5.32334">
        <ele>1222.8</ele>
        <time>2021-10-08T08:29:46Z</time>
      </trkpt>
      <trkpt lat="44.93157" lon="5.32333">
        <ele>1222.8</ele>
        <time>2021-10-08T08:29:47Z</time>
      </trkpt>
      <trkpt lat="44.93155" lon="5.32332">
        <ele>1222.8</ele>
        <time>2021-10-08T08:29:48Z</time>
      </trkpt>
      <trkpt lat="44.93152" lon="5.32331">
        <ele>1222.8</ele>
        <time>2021-10-08T08:29:49Z</time>
      </trkpt>
      <trkpt lat="44.9315" lon="5.32331">
        <ele>1223.2</ele>
        <time>2021-10-08T08:29:50Z</time>
      </trkpt>
      <trkpt lat="44.93147" lon="5.32331">
        <ele>1223.2</ele>
        <time>2021-10-08T08:29:51Z</time>
      </trkpt>
      <trkpt lat="44.93145" lon="5.3233">
        <ele>1223.2</ele>
        <time>2021-10-08T08:29:52Z</time>
      </trkpt>
      <trkpt lat="44.93143" lon="5.32329">
        <ele>1223.4</ele>
        <time>2021-10-08T08:29:53Z</time>
      </trkpt>
      <trkpt lat="44.93141" lon="5.32328">
        <ele>1223.6</ele>
        <time>2021-10-08T08:29:54Z</time>
      </trkpt>
      <trkpt lat="44.93139" lon="5.32326">
        <ele>1223.6</ele>
        <time>2021-10-08T08:29:55Z</time>
      </trkpt>
      <trkpt lat="44.93136" lon="5.32325">
        <ele>1223.6</ele>
        <time>2021-10-08T08:29:56Z</time>
      </trkpt>
      <trkpt lat="44.93134" lon="5.32323">
        <ele>1223.6</ele>
        <time>2021-10-08T08:29:57Z</time>
      </trkpt>
      <trkpt lat="44.93132" lon="5.32321">
        <ele>1224.6</ele>
        <time>2021-10-08T08:29:58Z</time>
      </trkpt>
      <trkpt lat="44.9313" lon="5.32319">
        <ele>1224.6</ele>
        <time>2021-10-08T08:29:59Z</time>
      </trkpt>
      <trkpt lat="44.93128" lon="5.32317">
        <ele>1224.6</ele>
        <time>2021-10-08T08:30:00Z</time>
      </trkpt>
      <trkpt lat="44.93126" lon="5.32315">
        <ele>1224.6</ele>
        <time>2021-10-08T08:30:01Z</time>
      </trkpt>
      <trkpt lat="44.93124" lon="5.32313">
        <ele>1225.2</ele>
        <time>2021-10-08T08:30:02Z</time>
      </trkpt>
      <trkpt lat="44.93122" lon="5.32311">
        <ele>1225.2</ele>
        <time>2021-10-08T08:30:03Z</time>
      </trkpt>
      <trkpt lat="44.9312" lon="5.32308">
        <ele>1225.2</ele>
        <time>2021-10-08T08:30:04Z</time>
      </trkpt>
      <trkpt lat="44.93118" lon="5.32306">
        <ele>1225.2</ele>
        <time>2021-10-08T08:30:05Z</time>
      </trkpt>
      <trkpt lat="44.93117" lon="5.32303">
        <ele>1226</ele>
        <time>2021-10-08T08:30:06Z</time>
      </trkpt>
      <trkpt lat="44.93115" lon="5.323">
        <ele>1226</ele>
        <time>2021-10-08T08:30:07Z</time>
      </trkpt>
      <trkpt lat="44.93113" lon="5.32298">
        <ele>1226</ele>
        <time>2021-10-08T08:30:08Z</time>
      </trkpt>
      <trkpt lat="44.93112" lon="5.32295">
        <ele>1226.2</ele>
        <time>2021-10-08T08:30:09Z</time>
      </trkpt>
      <trkpt lat="44.9311" lon="5.32293">
        <ele>1226.4</ele>
        <time>2021-10-08T08:30:10Z</time>
      </trkpt>
      <trkpt lat="44.93108" lon="5.3229">
        <ele>1226.4</ele>
        <time>2021-10-08T08:30:11Z</time>
      </trkpt>
      <trkpt lat="44.93107" lon="5.32288">
        <ele>1226.4</ele>
        <time>2021-10-08T08:30:12Z</time>
      </trkpt>
      <trkpt lat="44.93105" lon="5.32285">
        <ele>1227.4</ele>
        <time>2021-10-08T08:30:13Z</time>
      </trkpt>
      <trkpt lat="44.93103" lon="5.32282">
        <ele>1227.6</ele>
        <time>2021-10-08T08:30:14Z</time>
      </trkpt>
      <trkpt lat="44.93101" lon="5.3228">
        <ele>1227.6</ele>
        <time>2021-10-08T08:30:15Z</time>
      </trkpt>
      <trkpt lat="44.931" lon="5.32277">
        <ele>1227.6</ele>
        <time>2021-10-08T08:30:16Z</time>
      </trkpt>
      <trkpt lat="44.93098" lon="5.32275">
        <ele>1227.6</ele>
        <time>2021-10-08T08:30:17Z</time>
      </trkpt>
      <trkpt lat="44.93096" lon="5.32272">
        <ele>1228</ele>
        <time>2021-10-08T08:30:18Z</time>
      </trkpt>
      <trkpt lat="44.93095" lon="5.32269">
        <ele>1228</ele>
        <time>2021-10-08T08:30:19Z</time>
      </trkpt>
      <trkpt lat="44.93094" lon="5.32267">
        <ele>1228</ele>
        <time>2021-10-08T08:30:20Z</time>
      </trkpt>
      <trkpt lat="44.93092" lon="5.32264">
        <ele>1228</ele>
        <time>2021-10-08T08:30:21Z</time>
      </trkpt>
      <trkpt lat="44.9309" lon="5.32262">
        <ele>1228.4</ele>
        <time>2021-10-08T08:30:22Z</time>
      </trkpt>
      <trkpt lat="44.93089" lon="5.32259">
        <ele>1228.4</ele>
        <time>2021-10-08T08:30:23Z</time>
      </trkpt>
      <trkpt lat="44.93087" lon="5.32257">
        <ele>1228.4</ele>
        <time>2021-10-08T08:30:24Z</time>
      </trkpt>
      <trkpt lat="44.93085" lon="5.32255">
        <ele>1228.8</ele>
        <time>2021-10-08T08:30:25Z</time>
      </trkpt>
      <trkpt lat="44.93083" lon="5.32253">
        <ele>1229</ele>
        <time>2021-10-08T08:30:26Z</time>
      </trkpt>
      <trkpt lat="44.93081" lon="5.32251">
        <ele>1229</ele>
        <time>2021-10-08T08:30:27Z</time>
      </trkpt>
      <trkpt lat="44.93079" lon="5.32249">
        <ele>1229</ele>
        <time>2021-10-08T08:30:28Z</time>
      </trkpt>
      <trkpt lat="44.93077" lon="5.32247">
        <ele>1229</ele>
        <time>2021-10-08T08:30:29Z</time>
      </trkpt>
      <trkpt lat="44.93075" lon="5.32246">
        <ele>1229</ele>
        <time>2021-10-08T08:30:30Z</time>
      </trkpt>
      <trkpt lat="44.93073" lon="5.32244">
        <ele>1229.4</ele>
        <time>2021-10-08T08:30:31Z</time>
      </trkpt>
      <trkpt lat="44.9307" lon="5.32243">
        <ele>1229.4</ele>
        <time>2021-10-08T08:30:32Z</time>
      </trkpt>
      <trkpt lat="44.93068" lon="5.32241">
        <ele>1230.2</ele>
        <time>2021-10-08T08:30:33Z</time>
      </trkpt>
      <trkpt lat="44.93066" lon="5.3224">
        <ele>1230.2</ele>
        <time>2021-10-08T08:30:34Z</time>
      </trkpt>
      <trkpt lat="44.93064" lon="5.32239">
        <ele>1230.2</ele>
        <time>2021-10-08T08:30:35Z</time>
      </trkpt>
      <trkpt lat="44.93062" lon="5.32238">
        <ele>1230.2</ele>
        <time>2021-10-08T08:30:36Z</time>
      </trkpt>
      <trkpt lat="44.93059" lon="5.32237">
        <ele>1230.8</ele>
        <time>2021-10-08T08:30:37Z</time>
      </trkpt>
      <trkpt lat="44.93057" lon="5.32236">
        <ele>1231.6</ele>
        <time>2021-10-08T08:30:38Z</time>
      </trkpt>
      <trkpt lat="44.93055" lon="5.32235">
        <ele>1231.6</ele>
        <time>2021-10-08T08:30:39Z</time>
      </trkpt>
      <trkpt lat="44.93053" lon="5.32235">
        <ele>1231.6</ele>
        <time>2021-10-08T08:30:40Z</time>
      </trkpt>
      <trkpt lat="44.9305" lon="5.32234">
        <ele>1231.6</ele>
        <time>2021-10-08T08:30:41Z</time>
      </trkpt>
      <trkpt lat="44.93048" lon="5.32234">
        <ele>1231.8</ele>
        <time>2021-10-08T08:30:42Z</time>
      </trkpt>
      <trkpt lat="44.93046" lon="5.32233">
        <ele>1231.8</ele>
        <time>2021-10-08T08:30:43Z</time>
      </trkpt>
      <trkpt lat="44.93044" lon="5.32233">
        <ele>1231.8</ele>
        <time>2021-10-08T08:30:44Z</time>
      </trkpt>
      <trkpt lat="44.93041" lon="5.32232">
        <ele>1232.8</ele>
        <time>2021-10-08T08:30:45Z</time>
      </trkpt>
      <trkpt lat="44.93039" lon="5.32233">
        <ele>1232.6</ele>
        <time>2021-10-08T08:30:46Z</time>
      </trkpt>
      <trkpt lat="44.93037" lon="5.32233">
        <ele>1232.6</ele>
        <time>2021-10-08T08:30:47Z</time>
      </trkpt>
      <trkpt lat="44.93035" lon="5.32233">
        <ele>1232.6</ele>
        <time>2021-10-08T08:30:48Z</time>
      </trkpt>
      <trkpt lat="44.93033" lon="5.32233">
        <ele>1233.6</ele>
        <time>2021-10-08T08:30:49Z</time>
      </trkpt>
      <trkpt lat="44.9303" lon="5.32233">
        <ele>1233.6</ele>
        <time>2021-10-08T08:30:50Z</time>
      </trkpt>
      <trkpt lat="44.93028" lon="5.32234">
        <ele>1233.6</ele>
        <time>2021-10-08T08:30:51Z</time>
      </trkpt>
      <trkpt lat="44.93026" lon="5.32234">
        <ele>1233.6</ele>
        <time>2021-10-08T08:30:52Z</time>
      </trkpt>
      <trkpt lat="44.93024" lon="5.32234">
        <ele>1233.8</ele>
        <time>2021-10-08T08:30:53Z</time>
      </trkpt>
      <trkpt lat="44.93022" lon="5.32235">
        <ele>1233.8</ele>
        <time>2021-10-08T08:30:54Z</time>
      </trkpt>
      <trkpt lat="44.93019" lon="5.32236">
        <ele>1233.8</ele>
        <time>2021-10-08T08:30:55Z</time>
      </trkpt>
      <trkpt lat="44.93017" lon="5.32236">
        <ele>1233.8</ele>
        <time>2021-10-08T08:30:56Z</time>
      </trkpt>
      <trkpt lat="44.93015" lon="5.32237">
        <ele>1234.4</ele>
        <time>2021-10-08T08:30:57Z</time>
      </trkpt>
      <trkpt lat="44.93013" lon="5.32237">
        <ele>1234.6</ele>
        <time>2021-10-08T08:30:58Z</time>
      </trkpt>
      <trkpt lat="44.9301" lon="5.32238">
        <ele>1234.6</ele>
        <time>2021-10-08T08:30:59Z</time>
      </trkpt>
      <trkpt lat="44.93008" lon="5.32238">
        <ele>1234.6</ele>
        <time>2021-10-08T08:31:00Z</time>
      </trkpt>
      <trkpt lat="44.93006" lon="5.32239">
        <ele>1234.6</ele>
        <time>2021-10-08T08:31:01Z</time>
      </trkpt>
      <trkpt lat="44.93004" lon="5.32239">
        <ele>1235</ele>
        <time>2021-10-08T08:31:02Z</time>
      </trkpt>
      <trkpt lat="44.93001" lon="5.32239">
        <ele>1235</ele>
        <time>2021-10-08T08:31:03Z</time>
      </trkpt>
      <trkpt lat="44.92999" lon="5.3224">
        <ele>1235</ele>
        <time>2021-10-08T08:31:04Z</time>
      </trkpt>
      <trkpt lat="44.92997" lon="5.32241">
        <ele>1235.2</ele>
        <time>2021-10-08T08:31:05Z</time>
      </trkpt>
      <trkpt lat="44.92995" lon="5.32242">
        <ele>1235.8</ele>
        <time>2021-10-08T08:31:06Z</time>
      </trkpt>
      <trkpt lat="44.92993" lon="5.32242">
        <ele>1235.8</ele>
        <time>2021-10-08T08:31:07Z</time>
      </trkpt>
      <trkpt lat="44.92991" lon="5.32243">
        <ele>1235.8</ele>
        <time>2021-10-08T08:31:08Z</time>
      </trkpt>
      <trkpt lat="44.92988" lon="5.32244">
        <ele>1235.8</ele>
        <time>2021-10-08T08:31:09Z</time>
      </trkpt>
      <trkpt lat="44.92986" lon="5.32244">
        <ele>1236.2</ele>
        <time>2021-10-08T08:31:10Z</time>
      </trkpt>
      <trkpt lat="44.92984" lon="5.32244">
        <ele>1236.2</ele>
        <time>2021-10-08T08:31:11Z</time>
      </trkpt>
      <trkpt lat="44.92982" lon="5.32245">
        <ele>1236.2</ele>
        <time>2021-10-08T08:31:12Z</time>
      </trkpt>
      <trkpt lat="44.9298" lon="5.32245">
        <ele>1236.4</ele>
        <time>2021-10-08T08:31:13Z</time>
      </trkpt>
      <trkpt lat="44.92978" lon="5.32245">
        <ele>1236.8</ele>
        <time>2021-10-08T08:31:14Z</time>
      </trkpt>
      <trkpt lat="44.92976" lon="5.32246">
        <ele>1236.8</ele>
        <time>2021-10-08T08:31:15Z</time>
      </trkpt>
      <trkpt lat="44.92974" lon="5.32247">
        <ele>1236.8</ele>
        <time>2021-10-08T08:31:16Z</time>
      </trkpt>
      <trkpt lat="44.92972" lon="5.32247">
        <ele>1237.4</ele>
        <time>2021-10-08T08:31:17Z</time>
      </trkpt>
      <trkpt lat="44.9297" lon="5.32248">
        <ele>1237.4</ele>
        <time>2021-10-08T08:31:18Z</time>
      </trkpt>
      <trkpt lat="44.92968" lon="5.32248">
        <ele>1237.4</ele>
        <time>2021-10-08T08:31:19Z</time>
      </trkpt>
      <trkpt lat="44.92965" lon="5.32249">
        <ele>1237.4</ele>
        <time>2021-10-08T08:31:20Z</time>
      </trkpt>
      <trkpt lat="44.92963" lon="5.3225">
        <ele>1237.8</ele>
        <time>2021-10-08T08:31:21Z</time>
      </trkpt>
      <trkpt lat="44.92961" lon="5.3225">
        <ele>1238</ele>
        <time>2021-10-08T08:31:22Z</time>
      </trkpt>
      <trkpt lat="44.92959" lon="5.32251">
        <ele>1238</ele>
        <time>2021-10-08T08:31:23Z</time>
      </trkpt>
      <trkpt lat="44.92957" lon="5.32251">
        <ele>1238</ele>
        <time>2021-10-08T08:31:24Z</time>
      </trkpt>
      <trkpt lat="44.92955" lon="5.32252">
        <ele>1238</ele>
        <time>2021-10-08T08:31:25Z</time>
      </trkpt>
      <trkpt lat="44.92953" lon="5.32252">
        <ele>1238.6</ele>
        <time>2021-10-08T08:31:26Z</time>
      </trkpt>
      <trkpt lat="44.92951" lon="5.32253">
        <ele>1238.6</ele>
        <time>2021-10-08T08:31:27Z</time>
      </trkpt>
      <trkpt lat="44.92949" lon="5.32254">
        <ele>1238.6</ele>
        <time>2021-10-08T08:31:28Z</time>
      </trkpt>
      <trkpt lat="44.92946" lon="5.32254">
        <ele>1239.6</ele>
        <time>2021-10-08T08:31:29Z</time>
      </trkpt>
      <trkpt lat="44.92944" lon="5.32255">
        <ele>1239.4</ele>
        <time>2021-10-08T08:31:30Z</time>
      </trkpt>
      <trkpt lat="44.92942" lon="5.32255">
        <ele>1239.4</ele>
        <time>2021-10-08T08:31:31Z</time>
      </trkpt>
      <trkpt lat="44.92939" lon="5.32256">
        <ele>1239.4</ele>
        <time>2021-10-08T08:31:32Z</time>
      </trkpt>
      <trkpt lat="44.92937" lon="5.32256">
        <ele>1240.2</ele>
        <time>2021-10-08T08:31:33Z</time>
      </trkpt>
      <trkpt lat="44.92935" lon="5.32257">
        <ele>1240</ele>
        <time>2021-10-08T08:31:34Z</time>
      </trkpt>
      <trkpt lat="44.92933" lon="5.32258">
        <ele>1240</ele>
        <time>2021-10-08T08:31:35Z</time>
      </trkpt>
      <trkpt lat="44.92931" lon="5.32259">
        <ele>1240</ele>
        <time>2021-10-08T08:31:36Z</time>
      </trkpt>
      <trkpt lat="44.92928" lon="5.3226">
        <ele>1240.6</ele>
        <time>2021-10-08T08:31:37Z</time>
      </trkpt>
      <trkpt lat="44.92926" lon="5.3226">
        <ele>1240.6</ele>
        <time>2021-10-08T08:31:38Z</time>
      </trkpt>
      <trkpt lat="44.92924" lon="5.32261">
        <ele>1240.6</ele>
        <time>2021-10-08T08:31:39Z</time>
      </trkpt>
      <trkpt lat="44.92921" lon="5.32261">
        <ele>1240.6</ele>
        <time>2021-10-08T08:31:40Z</time>
      </trkpt>
      <trkpt lat="44.92919" lon="5.32262">
        <ele>1241.4</ele>
        <time>2021-10-08T08:31:41Z</time>
      </trkpt>
      <trkpt lat="44.92917" lon="5.32263">
        <ele>1241.2</ele>
        <time>2021-10-08T08:31:42Z</time>
      </trkpt>
      <trkpt lat="44.92914" lon="5.32263">
        <ele>1241.2</ele>
        <time>2021-10-08T08:31:43Z</time>
      </trkpt>
      <trkpt lat="44.92912" lon="5.32264">
        <ele>1241.2</ele>
        <time>2021-10-08T08:31:44Z</time>
      </trkpt>
      <trkpt lat="44.9291" lon="5.32265">
        <ele>1241.8</ele>
        <time>2021-10-08T08:31:45Z</time>
      </trkpt>
      <trkpt lat="44.92908" lon="5.32266">
        <ele>1241.8</ele>
        <time>2021-10-08T08:31:46Z</time>
      </trkpt>
      <trkpt lat="44.92905" lon="5.32267">
        <ele>1241.8</ele>
        <time>2021-10-08T08:31:47Z</time>
      </trkpt>
      <trkpt lat="44.92903" lon="5.32268">
        <ele>1241.8</ele>
        <time>2021-10-08T08:31:48Z</time>
      </trkpt>
      <trkpt lat="44.929" lon="5.32269">
        <ele>1242.2</ele>
        <time>2021-10-08T08:31:49Z</time>
      </trkpt>
      <trkpt lat="44.92898" lon="5.3227">
        <ele>1242.2</ele>
        <time>2021-10-08T08:31:50Z</time>
      </trkpt>
      <trkpt lat="44.92896" lon="5.3227">
        <ele>1242.2</ele>
        <time>2021-10-08T08:31:51Z</time>
      </trkpt>
      <trkpt lat="44.92893" lon="5.32272">
        <ele>1242.2</ele>
        <time>2021-10-08T08:31:52Z</time>
      </trkpt>
      <trkpt lat="44.92891" lon="5.32273">
        <ele>1242.8</ele>
        <time>2021-10-08T08:31:53Z</time>
      </trkpt>
      <trkpt lat="44.92889" lon="5.32274">
        <ele>1243</ele>
        <time>2021-10-08T08:31:54Z</time>
      </trkpt>
      <trkpt lat="44.92887" lon="5.32274">
        <ele>1243</ele>
        <time>2021-10-08T08:31:55Z</time>
      </trkpt>
      <trkpt lat="44.92884" lon="5.32276">
        <ele>1243</ele>
        <time>2021-10-08T08:31:56Z</time>
      </trkpt>
      <trkpt lat="44.92882" lon="5.32277">
        <ele>1243.2</ele>
        <time>2021-10-08T08:31:57Z</time>
      </trkpt>
      <trkpt lat="44.9288" lon="5.32278">
        <ele>1243.4</ele>
        <time>2021-10-08T08:31:58Z</time>
      </trkpt>
      <trkpt lat="44.92878" lon="5.32278">
        <ele>1243.4</ele>
        <time>2021-10-08T08:31:59Z</time>
      </trkpt>
      <trkpt lat="44.92875" lon="5.32279">
        <ele>1243.4</ele>
        <time>2021-10-08T08:32:00Z</time>
      </trkpt>
      <trkpt lat="44.92873" lon="5.3228">
        <ele>1243.4</ele>
        <time>2021-10-08T08:32:01Z</time>
      </trkpt>
      <trkpt lat="44.92871" lon="5.32281">
        <ele>1244.4</ele>
        <time>2021-10-08T08:32:02Z</time>
      </trkpt>
      <trkpt lat="44.92869" lon="5.32282">
        <ele>1244.4</ele>
        <time>2021-10-08T08:32:03Z</time>
      </trkpt>
      <trkpt lat="44.92867" lon="5.32282">
        <ele>1244.4</ele>
        <time>2021-10-08T08:32:04Z</time>
      </trkpt>
      <trkpt lat="44.92865" lon="5.32283">
        <ele>1244.4</ele>
        <time>2021-10-08T08:32:05Z</time>
      </trkpt>
      <trkpt lat="44.92862" lon="5.32284">
        <ele>1244.6</ele>
        <time>2021-10-08T08:32:06Z</time>
      </trkpt>
      <trkpt lat="44.9286" lon="5.32284">
        <ele>1244.6</ele>
        <time>2021-10-08T08:32:07Z</time>
      </trkpt>
      <trkpt lat="44.92858" lon="5.32286">
        <ele>1244.6</ele>
        <time>2021-10-08T08:32:08Z</time>
      </trkpt>
      <trkpt lat="44.92856" lon="5.32286">
        <ele>1245.2</ele>
        <time>2021-10-08T08:32:09Z</time>
      </trkpt>
      <trkpt lat="44.92854" lon="5.32288">
        <ele>1245.6</ele>
        <time>2021-10-08T08:32:10Z</time>
      </trkpt>
      <trkpt lat="44.92852" lon="5.32289">
        <ele>1245.6</ele>
        <time>2021-10-08T08:32:11Z</time>
      </trkpt>
      <trkpt lat="44.9285" lon="5.32291">
        <ele>1245.6</ele>
        <time>2021-10-08T08:32:12Z</time>
      </trkpt>
      <trkpt lat="44.92848" lon="5.32293">
        <ele>1245.6</ele>
        <time>2021-10-08T08:32:13Z</time>
      </trkpt>
      <trkpt lat="44.92846" lon="5.32294">
        <ele>1246</ele>
        <time>2021-10-08T08:32:14Z</time>
      </trkpt>
      <trkpt lat="44.92844" lon="5.32296">
        <ele>1246</ele>
        <time>2021-10-08T08:32:15Z</time>
      </trkpt>
      <trkpt lat="44.92842" lon="5.32297">
        <ele>1246</ele>
        <time>2021-10-08T08:32:16Z</time>
      </trkpt>
      <trkpt lat="44.9284" lon="5.32299">
        <ele>1246</ele>
        <time>2021-10-08T08:32:17Z</time>
      </trkpt>
      <trkpt lat="44.92839" lon="5.323">
        <ele>1246.6</ele>
        <time>2021-10-08T08:32:18Z</time>
      </trkpt>
      <trkpt lat="44.92837" lon="5.32302">
        <ele>1246.6</ele>
        <time>2021-10-08T08:32:19Z</time>
      </trkpt>
      <trkpt lat="44.92835" lon="5.32303">
        <ele>1246.6</ele>
        <time>2021-10-08T08:32:20Z</time>
      </trkpt>
      <trkpt lat="44.92833" lon="5.32305">
        <ele>1246.8</ele>
        <time>2021-10-08T08:32:21Z</time>
      </trkpt>
      <trkpt lat="44.92831" lon="5.32307">
        <ele>1247.4</ele>
        <time>2021-10-08T08:32:22Z</time>
      </trkpt>
      <trkpt lat="44.92829" lon="5.32309">
        <ele>1247.4</ele>
        <time>2021-10-08T08:32:23Z</time>
      </trkpt>
      <trkpt lat="44.92828" lon="5.3231">
        <ele>1247.4</ele>
        <time>2021-10-08T08:32:24Z</time>
      </trkpt>
      <trkpt lat="44.92826" lon="5.32312">
        <ele>1247.4</ele>
        <time>2021-10-08T08:32:25Z</time>
      </trkpt>
      <trkpt lat="44.92824" lon="5.32313">
        <ele>1248.4</ele>
        <time>2021-10-08T08:32:26Z</time>
      </trkpt>
      <trkpt lat="44.92822" lon="5.32315">
        <ele>1248.4</ele>
        <time>2021-10-08T08:32:27Z</time>
      </trkpt>
      <trkpt lat="44.9282" lon="5.32317">
        <ele>1248.4</ele>
        <time>2021-10-08T08:32:28Z</time>
      </trkpt>
      <trkpt lat="44.92819" lon="5.32318">
        <ele>1248.4</ele>
        <time>2021-10-08T08:32:29Z</time>
      </trkpt>
      <trkpt lat="44.92817" lon="5.3232">
        <ele>1248.4</ele>
        <time>2021-10-08T08:32:30Z</time>
      </trkpt>
      <trkpt lat="44.92815" lon="5.32322">
        <ele>1248.4</ele>
        <time>2021-10-08T08:32:31Z</time>
      </trkpt>
      <trkpt lat="44.92813" lon="5.32324">
        <ele>1248.4</ele>
        <time>2021-10-08T08:32:32Z</time>
      </trkpt>
      <trkpt lat="44.92812" lon="5.32325">
        <ele>1248.8</ele>
        <time>2021-10-08T08:32:33Z</time>
      </trkpt>
      <trkpt lat="44.9281" lon="5.32327">
        <ele>1249.2</ele>
        <time>2021-10-08T08:32:34Z</time>
      </trkpt>
      <trkpt lat="44.92808" lon="5.32329">
        <ele>1249.2</ele>
        <time>2021-10-08T08:32:35Z</time>
      </trkpt>
      <trkpt lat="44.92806" lon="5.32331">
        <ele>1249.2</ele>
        <time>2021-10-08T08:32:36Z</time>
      </trkpt>
      <trkpt lat="44.92804" lon="5.32333">
        <ele>1250</ele>
        <time>2021-10-08T08:32:37Z</time>
      </trkpt>
      <trkpt lat="44.92803" lon="5.32335">
        <ele>1249.8</ele>
        <time>2021-10-08T08:32:38Z</time>
      </trkpt>
      <trkpt lat="44.92801" lon="5.32337">
        <ele>1249.8</ele>
        <time>2021-10-08T08:32:39Z</time>
      </trkpt>
      <trkpt lat="44.92799" lon="5.32339">
        <ele>1249.8</ele>
        <time>2021-10-08T08:32:40Z</time>
      </trkpt>
      <trkpt lat="44.92798" lon="5.32341">
        <ele>1250</ele>
        <time>2021-10-08T08:32:41Z</time>
      </trkpt>
      <trkpt lat="44.92796" lon="5.32343">
        <ele>1250.4</ele>
        <time>2021-10-08T08:32:42Z</time>
      </trkpt>
      <trkpt lat="44.92794" lon="5.32346">
        <ele>1250.4</ele>
        <time>2021-10-08T08:32:43Z</time>
      </trkpt>
      <trkpt lat="44.92792" lon="5.32347">
        <ele>1250.4</ele>
        <time>2021-10-08T08:32:44Z</time>
      </trkpt>
      <trkpt lat="44.9279" lon="5.3235">
        <ele>1250.8</ele>
        <time>2021-10-08T08:32:45Z</time>
      </trkpt>
      <trkpt lat="44.92789" lon="5.32352">
        <ele>1251</ele>
        <time>2021-10-08T08:32:46Z</time>
      </trkpt>
      <trkpt lat="44.92787" lon="5.32354">
        <ele>1251</ele>
        <time>2021-10-08T08:32:47Z</time>
      </trkpt>
      <trkpt lat="44.92785" lon="5.32356">
        <ele>1251</ele>
        <time>2021-10-08T08:32:48Z</time>
      </trkpt>
      <trkpt lat="44.92783" lon="5.32358">
        <ele>1251</ele>
        <time>2021-10-08T08:32:49Z</time>
      </trkpt>
      <trkpt lat="44.92782" lon="5.32361">
        <ele>1251.6</ele>
        <time>2021-10-08T08:32:50Z</time>
      </trkpt>
      <trkpt lat="44.9278" lon="5.32363">
        <ele>1251.6</ele>
        <time>2021-10-08T08:32:51Z</time>
      </trkpt>
      <trkpt lat="44.92778" lon="5.32365">
        <ele>1251.6</ele>
        <time>2021-10-08T08:32:52Z</time>
      </trkpt>
      <trkpt lat="44.92776" lon="5.32367">
        <ele>1252.2</ele>
        <time>2021-10-08T08:32:53Z</time>
      </trkpt>
      <trkpt lat="44.92775" lon="5.3237">
        <ele>1251.8</ele>
        <time>2021-10-08T08:32:54Z</time>
      </trkpt>
      <trkpt lat="44.92773" lon="5.32372">
        <ele>1251.8</ele>
        <time>2021-10-08T08:32:55Z</time>
      </trkpt>
      <trkpt lat="44.92771" lon="5.32374">
        <ele>1251.8</ele>
        <time>2021-10-08T08:32:56Z</time>
      </trkpt>
      <trkpt lat="44.92769" lon="5.32376">
        <ele>1252.4</ele>
        <time>2021-10-08T08:32:57Z</time>
      </trkpt>
      <trkpt lat="44.92768" lon="5.32379">
        <ele>1252.6</ele>
        <time>2021-10-08T08:32:58Z</time>
      </trkpt>
      <trkpt lat="44.92766" lon="5.32381">
        <ele>1252.6</ele>
        <time>2021-10-08T08:32:59Z</time>
      </trkpt>
      <trkpt lat="44.92764" lon="5.32383">
        <ele>1252.6</ele>
        <time>2021-10-08T08:33:00Z</time>
      </trkpt>
      <trkpt lat="44.92762" lon="5.32386">
        <ele>1252.6</ele>
        <time>2021-10-08T08:33:01Z</time>
      </trkpt>
      <trkpt lat="44.92761" lon="5.32388">
        <ele>1252.8</ele>
        <time>2021-10-08T08:33:02Z</time>
      </trkpt>
      <trkpt lat="44.92759" lon="5.3239">
        <ele>1252.8</ele>
        <time>2021-10-08T08:33:03Z</time>
      </trkpt>
      <trkpt lat="44.92757" lon="5.32392">
        <ele>1252.8</ele>
        <time>2021-10-08T08:33:04Z</time>
      </trkpt>
      <trkpt lat="44.92755" lon="5.32395">
        <ele>1252.8</ele>
        <time>2021-10-08T08:33:05Z</time>
      </trkpt>
      <trkpt lat="44.92754" lon="5.32397">
        <ele>1253.6</ele>
        <time>2021-10-08T08:33:06Z</time>
      </trkpt>
      <trkpt lat="44.92752" lon="5.32399">
        <ele>1253.6</ele>
        <time>2021-10-08T08:33:07Z</time>
      </trkpt>
      <trkpt lat="44.92751" lon="5.32401">
        <ele>1253.6</ele>
        <time>2021-10-08T08:33:08Z</time>
      </trkpt>
      <trkpt lat="44.92749" lon="5.32404">
        <ele>1253.6</ele>
        <time>2021-10-08T08:33:09Z</time>
      </trkpt>
      <trkpt lat="44.92747" lon="5.32406">
        <ele>1254</ele>
        <time>2021-10-08T08:33:10Z</time>
      </trkpt>
      <trkpt lat="44.92746" lon="5.32408">
        <ele>1254</ele>
        <time>2021-10-08T08:33:11Z</time>
      </trkpt>
      <trkpt lat="44.92744" lon="5.3241">
        <ele>1254</ele>
        <time>2021-10-08T08:33:12Z</time>
      </trkpt>
      <trkpt lat="44.92742" lon="5.32413">
        <ele>1255</ele>
        <time>2021-10-08T08:33:13Z</time>
      </trkpt>
      <trkpt lat="44.92741" lon="5.32415">
        <ele>1254.8</ele>
        <time>2021-10-08T08:33:14Z</time>
      </trkpt>
      <trkpt lat="44.92739" lon="5.32417">
        <ele>1254.8</ele>
        <time>2021-10-08T08:33:15Z</time>
      </trkpt>
      <trkpt lat="44.92738" lon="5.3242">
        <ele>1254.8</ele>
        <time>2021-10-08T08:33:16Z</time>
      </trkpt>
      <trkpt lat="44.92736" lon="5.32422">
        <ele>1254.8</ele>
        <time>2021-10-08T08:33:17Z</time>
      </trkpt>
      <trkpt lat="44.92735" lon="5.32425">
        <ele>1255.2</ele>
        <time>2021-10-08T08:33:18Z</time>
      </trkpt>
      <trkpt lat="44.92733" lon="5.32426">
        <ele>1255.2</ele>
        <time>2021-10-08T08:33:19Z</time>
      </trkpt>
      <trkpt lat="44.92731" lon="5.32428">
        <ele>1255.2</ele>
        <time>2021-10-08T08:33:20Z</time>
      </trkpt>
      <trkpt lat="44.9273" lon="5.32431">
        <ele>1255.8</ele>
        <time>2021-10-08T08:33:21Z</time>
      </trkpt>
      <trkpt lat="44.92729" lon="5.32433">
        <ele>1256.2</ele>
        <time>2021-10-08T08:33:22Z</time>
      </trkpt>
      <trkpt lat="44.92727" lon="5.32436">
        <ele>1256.2</ele>
        <time>2021-10-08T08:33:23Z</time>
      </trkpt>
      <trkpt lat="44.92725" lon="5.32438">
        <ele>1256.2</ele>
        <time>2021-10-08T08:33:24Z</time>
      </trkpt>
      <trkpt lat="44.92724" lon="5.3244">
        <ele>1256.8</ele>
        <time>2021-10-08T08:33:25Z</time>
      </trkpt>
      <trkpt lat="44.92723" lon="5.32443">
        <ele>1257</ele>
        <time>2021-10-08T08:33:26Z</time>
      </trkpt>
      <trkpt lat="44.92721" lon="5.32445">
        <ele>1257</ele>
        <time>2021-10-08T08:33:27Z</time>
      </trkpt>
      <trkpt lat="44.92719" lon="5.32448">
        <ele>1257</ele>
        <time>2021-10-08T08:33:28Z</time>
      </trkpt>
      <trkpt lat="44.92718" lon="5.3245">
        <ele>1257</ele>
        <time>2021-10-08T08:33:29Z</time>
      </trkpt>
      <trkpt lat="44.92716" lon="5.32452">
        <ele>1257.6</ele>
        <time>2021-10-08T08:33:30Z</time>
      </trkpt>
      <trkpt lat="44.92715" lon="5.32455">
        <ele>1257.6</ele>
        <time>2021-10-08T08:33:31Z</time>
      </trkpt>
      <trkpt lat="44.92713" lon="5.32457">
        <ele>1257.6</ele>
        <time>2021-10-08T08:33:32Z</time>
      </trkpt>
      <trkpt lat="44.92712" lon="5.32459">
        <ele>1258.2</ele>
        <time>2021-10-08T08:33:33Z</time>
      </trkpt>
      <trkpt lat="44.9271" lon="5.32461">
        <ele>1258.2</ele>
        <time>2021-10-08T08:33:34Z</time>
      </trkpt>
      <trkpt lat="44.92708" lon="5.32463">
        <ele>1258.2</ele>
        <time>2021-10-08T08:33:35Z</time>
      </trkpt>
      <trkpt lat="44.92706" lon="5.32465">
        <ele>1258.2</ele>
        <time>2021-10-08T08:33:36Z</time>
      </trkpt>
      <trkpt lat="44.92704" lon="5.32468">
        <ele>1258.2</ele>
        <time>2021-10-08T08:33:37Z</time>
      </trkpt>
      <trkpt lat="44.92701" lon="5.3247">
        <ele>1258.8</ele>
        <time>2021-10-08T08:33:38Z</time>
      </trkpt>
      <trkpt lat="44.927" lon="5.32472">
        <ele>1258.8</ele>
        <time>2021-10-08T08:33:39Z</time>
      </trkpt>
      <trkpt lat="44.92698" lon="5.32475">
        <ele>1258.8</ele>
        <time>2021-10-08T08:33:40Z</time>
      </trkpt>
      <trkpt lat="44.92696" lon="5.32477">
        <ele>1258.8</ele>
        <time>2021-10-08T08:33:41Z</time>
      </trkpt>
      <trkpt lat="44.92693" lon="5.32479">
        <ele>1258.8</ele>
        <time>2021-10-08T08:33:42Z</time>
      </trkpt>
      <trkpt lat="44.92691" lon="5.32481">
        <ele>1258.8</ele>
        <time>2021-10-08T08:33:43Z</time>
      </trkpt>
      <trkpt lat="44.92689" lon="5.32482">
        <ele>1258.8</ele>
        <time>2021-10-08T08:33:44Z</time>
      </trkpt>
      <trkpt lat="44.92687" lon="5.32484">
        <ele>1259.8</ele>
        <time>2021-10-08T08:33:45Z</time>
      </trkpt>
      <trkpt lat="44.92684" lon="5.32485">
        <ele>1260.2</ele>
        <time>2021-10-08T08:33:46Z</time>
      </trkpt>
      <trkpt lat="44.92682" lon="5.32486">
        <ele>1260.2</ele>
        <time>2021-10-08T08:33:47Z</time>
      </trkpt>
      <trkpt lat="44.92679" lon="5.32486">
        <ele>1260.2</ele>
        <time>2021-10-08T08:33:48Z</time>
      </trkpt>
      <trkpt lat="44.92677" lon="5.32487">
        <ele>1260.4</ele>
        <time>2021-10-08T08:33:49Z</time>
      </trkpt>
      <trkpt lat="44.92675" lon="5.32487">
        <ele>1260.4</ele>
        <time>2021-10-08T08:33:50Z</time>
      </trkpt>
      <trkpt lat="44.92672" lon="5.32487">
        <ele>1260.4</ele>
        <time>2021-10-08T08:33:51Z</time>
      </trkpt>
      <trkpt lat="44.9267" lon="5.32486">
        <ele>1260.4</ele>
        <time>2021-10-08T08:33:52Z</time>
      </trkpt>
      <trkpt lat="44.92667" lon="5.32486">
        <ele>1261.2</ele>
        <time>2021-10-08T08:33:53Z</time>
      </trkpt>
      <trkpt lat="44.92665" lon="5.32485">
        <ele>1261.6</ele>
        <time>2021-10-08T08:33:54Z</time>
      </trkpt>
      <trkpt lat="44.92663" lon="5.32484">
        <ele>1261.6</ele>
        <time>2021-10-08T08:33:55Z</time>
      </trkpt>
      <trkpt lat="44.9266" lon="5.32483">
        <ele>1261.6</ele>
        <time>2021-10-08T08:33:56Z</time>
      </trkpt>
      <trkpt lat="44.92658" lon="5.32482">
        <ele>1261.6</ele>
        <time>2021-10-08T08:33:57Z</time>
      </trkpt>
      <trkpt lat="44.92656" lon="5.32481">
        <ele>1262</ele>
        <time>2021-10-08T08:33:58Z</time>
      </trkpt>
      <trkpt lat="44.92654" lon="5.3248">
        <ele>1262</ele>
        <time>2021-10-08T08:33:59Z</time>
      </trkpt>
      <trkpt lat="44.92651" lon="5.32479">
        <ele>1262</ele>
        <time>2021-10-08T08:34:00Z</time>
      </trkpt>
      <trkpt lat="44.92649" lon="5.32478">
        <ele>1262.4</ele>
        <time>2021-10-08T08:34:01Z</time>
      </trkpt>
      <trkpt lat="44.92647" lon="5.32477">
        <ele>1262.6</ele>
        <time>2021-10-08T08:34:02Z</time>
      </trkpt>
      <trkpt lat="44.92645" lon="5.32477">
        <ele>1262.6</ele>
        <time>2021-10-08T08:34:03Z</time>
      </trkpt>
      <trkpt lat="44.92643" lon="5.32476">
        <ele>1262.6</ele>
        <time>2021-10-08T08:34:04Z</time>
      </trkpt>
      <trkpt lat="44.9264" lon="5.32476">
        <ele>1262.6</ele>
        <time>2021-10-08T08:34:05Z</time>
      </trkpt>
      <trkpt lat="44.92638" lon="5.32475">
        <ele>1263.2</ele>
        <time>2021-10-08T08:34:06Z</time>
      </trkpt>
      <trkpt lat="44.92636" lon="5.32475">
        <ele>1263.2</ele>
        <time>2021-10-08T08:34:07Z</time>
      </trkpt>
      <trkpt lat="44.92634" lon="5.32475">
        <ele>1263.2</ele>
        <time>2021-10-08T08:34:08Z</time>
      </trkpt>
      <trkpt lat="44.92631" lon="5.32475">
        <ele>1263.8</ele>
        <time>2021-10-08T08:34:09Z</time>
      </trkpt>
      <trkpt lat="44.92629" lon="5.32475">
        <ele>1263.6</ele>
        <time>2021-10-08T08:34:10Z</time>
      </trkpt>
      <trkpt lat="44.92626" lon="5.32475">
        <ele>1263.6</ele>
        <time>2021-10-08T08:34:11Z</time>
      </trkpt>
      <trkpt lat="44.92624" lon="5.32475">
        <ele>1263.6</ele>
        <time>2021-10-08T08:34:12Z</time>
      </trkpt>
      <trkpt lat="44.92622" lon="5.32475">
        <ele>1264.4</ele>
        <time>2021-10-08T08:34:13Z</time>
      </trkpt>
      <trkpt lat="44.92619" lon="5.32476">
        <ele>1264.8</ele>
        <time>2021-10-08T08:34:14Z</time>
      </trkpt>
      <trkpt lat="44.92617" lon="5.32476">
        <ele>1264.8</ele>
        <time>2021-10-08T08:34:15Z</time>
      </trkpt>
      <trkpt lat="44.92615" lon="5.32477">
        <ele>1264.8</ele>
        <time>2021-10-08T08:34:16Z</time>
      </trkpt>
      <trkpt lat="44.92612" lon="5.32477">
        <ele>1264.8</ele>
        <time>2021-10-08T08:34:17Z</time>
      </trkpt>
      <trkpt lat="44.9261" lon="5.32477">
        <ele>1265.6</ele>
        <time>2021-10-08T08:34:18Z</time>
      </trkpt>
      <trkpt lat="44.92607" lon="5.32477">
        <ele>1265.6</ele>
        <time>2021-10-08T08:34:19Z</time>
      </trkpt>
      <trkpt lat="44.92604" lon="5.32477">
        <ele>1265.6</ele>
        <time>2021-10-08T08:34:20Z</time>
      </trkpt>
      <trkpt lat="44.92602" lon="5.32478">
        <ele>1265.6</ele>
        <time>2021-10-08T08:34:21Z</time>
      </trkpt>
      <trkpt lat="44.926" lon="5.32478">
        <ele>1265.8</ele>
        <time>2021-10-08T08:34:22Z</time>
      </trkpt>
      <trkpt lat="44.92597" lon="5.32479">
        <ele>1265.8</ele>
        <time>2021-10-08T08:34:23Z</time>
      </trkpt>
      <trkpt lat="44.92595" lon="5.32479">
        <ele>1265.8</ele>
        <time>2021-10-08T08:34:24Z</time>
      </trkpt>
      <trkpt lat="44.92593" lon="5.3248">
        <ele>1266.4</ele>
        <time>2021-10-08T08:34:25Z</time>
      </trkpt>
      <trkpt lat="44.92591" lon="5.3248">
        <ele>1266.8</ele>
        <time>2021-10-08T08:34:26Z</time>
      </trkpt>
      <trkpt lat="44.92588" lon="5.32481">
        <ele>1266.8</ele>
        <time>2021-10-08T08:34:27Z</time>
      </trkpt>
      <trkpt lat="44.92586" lon="5.32482">
        <ele>1266.8</ele>
        <time>2021-10-08T08:34:28Z</time>
      </trkpt>
      <trkpt lat="44.92584" lon="5.32482">
        <ele>1267</ele>
        <time>2021-10-08T08:34:29Z</time>
      </trkpt>
      <trkpt lat="44.92582" lon="5.32483">
        <ele>1267.4</ele>
        <time>2021-10-08T08:34:30Z</time>
      </trkpt>
      <trkpt lat="44.92579" lon="5.32483">
        <ele>1267.4</ele>
        <time>2021-10-08T08:34:31Z</time>
      </trkpt>
      <trkpt lat="44.92577" lon="5.32483">
        <ele>1267.4</ele>
        <time>2021-10-08T08:34:32Z</time>
      </trkpt>
      <trkpt lat="44.92575" lon="5.32484">
        <ele>1268</ele>
        <time>2021-10-08T08:34:33Z</time>
      </trkpt>
      <trkpt lat="44.92573" lon="5.32485">
        <ele>1268.2</ele>
        <time>2021-10-08T08:34:34Z</time>
      </trkpt>
      <trkpt lat="44.9257" lon="5.32485">
        <ele>1268.2</ele>
        <time>2021-10-08T08:34:35Z</time>
      </trkpt>
      <trkpt lat="44.92568" lon="5.32485">
        <ele>1268.2</ele>
        <time>2021-10-08T08:34:36Z</time>
      </trkpt>
      <trkpt lat="44.92566" lon="5.32486">
        <ele>1268.8</ele>
        <time>2021-10-08T08:34:37Z</time>
      </trkpt>
      <trkpt lat="44.92564" lon="5.32486">
        <ele>1268.6</ele>
        <time>2021-10-08T08:34:38Z</time>
      </trkpt>
      <trkpt lat="44.92561" lon="5.32487">
        <ele>1268.6</ele>
        <time>2021-10-08T08:34:39Z</time>
      </trkpt>
      <trkpt lat="44.92559" lon="5.32487">
        <ele>1268.6</ele>
        <time>2021-10-08T08:34:40Z</time>
      </trkpt>
      <trkpt lat="44.92557" lon="5.32488">
        <ele>1269.6</ele>
        <time>2021-10-08T08:34:41Z</time>
      </trkpt>
      <trkpt lat="44.92555" lon="5.32488">
        <ele>1269.2</ele>
        <time>2021-10-08T08:34:42Z</time>
      </trkpt>
      <trkpt lat="44.92552" lon="5.32488">
        <ele>1269.2</ele>
        <time>2021-10-08T08:34:43Z</time>
      </trkpt>
      <trkpt lat="44.9255" lon="5.32488">
        <ele>1269.2</ele>
        <time>2021-10-08T08:34:44Z</time>
      </trkpt>
      <trkpt lat="44.92548" lon="5.32488">
        <ele>1269.2</ele>
        <time>2021-10-08T08:34:45Z</time>
      </trkpt>
      <trkpt lat="44.92545" lon="5.32488">
        <ele>1269.2</ele>
        <time>2021-10-08T08:34:46Z</time>
      </trkpt>
      <trkpt lat="44.92543" lon="5.32488">
        <ele>1269.6</ele>
        <time>2021-10-08T08:34:47Z</time>
      </trkpt>
      <trkpt lat="44.92541" lon="5.32488">
        <ele>1269.6</ele>
        <time>2021-10-08T08:34:48Z</time>
      </trkpt>
      <trkpt lat="44.92539" lon="5.32488">
        <ele>1270.2</ele>
        <time>2021-10-08T08:34:49Z</time>
      </trkpt>
      <trkpt lat="44.92536" lon="5.32488">
        <ele>1270.4</ele>
        <time>2021-10-08T08:34:50Z</time>
      </trkpt>
      <trkpt lat="44.92534" lon="5.32488">
        <ele>1270.4</ele>
        <time>2021-10-08T08:34:51Z</time>
      </trkpt>
      <trkpt lat="44.92531" lon="5.32487">
        <ele>1270.4</ele>
        <time>2021-10-08T08:34:52Z</time>
      </trkpt>
      <trkpt lat="44.92529" lon="5.32487">
        <ele>1271</ele>
        <time>2021-10-08T08:34:53Z</time>
      </trkpt>
      <trkpt lat="44.92527" lon="5.32487">
        <ele>1271</ele>
        <time>2021-10-08T08:34:54Z</time>
      </trkpt>
      <trkpt lat="44.92525" lon="5.32486">
        <ele>1271</ele>
        <time>2021-10-08T08:34:55Z</time>
      </trkpt>
      <trkpt lat="44.92522" lon="5.32486">
        <ele>1271</ele>
        <time>2021-10-08T08:34:56Z</time>
      </trkpt>
      <trkpt lat="44.9252" lon="5.32485">
        <ele>1272</ele>
        <time>2021-10-08T08:34:57Z</time>
      </trkpt>
      <trkpt lat="44.92518" lon="5.32484">
        <ele>1272.2</ele>
        <time>2021-10-08T08:34:58Z</time>
      </trkpt>
      <trkpt lat="44.92516" lon="5.32484">
        <ele>1272.2</ele>
        <time>2021-10-08T08:34:59Z</time>
      </trkpt>
      <trkpt lat="44.92514" lon="5.32483">
        <ele>1272.2</ele>
        <time>2021-10-08T08:35:00Z</time>
      </trkpt>
      <trkpt lat="44.92512" lon="5.32483">
        <ele>1272.2</ele>
        <time>2021-10-08T08:35:01Z</time>
      </trkpt>
      <trkpt lat="44.9251" lon="5.32482">
        <ele>1272.6</ele>
        <time>2021-10-08T08:35:02Z</time>
      </trkpt>
      <trkpt lat="44.92508" lon="5.32481">
        <ele>1272.6</ele>
        <time>2021-10-08T08:35:03Z</time>
      </trkpt>
      <trkpt lat="44.92506" lon="5.3248">
        <ele>1272.6</ele>
        <time>2021-10-08T08:35:04Z</time>
      </trkpt>
      <trkpt lat="44.92503" lon="5.32479">
        <ele>1273.2</ele>
        <time>2021-10-08T08:35:05Z</time>
      </trkpt>
      <trkpt lat="44.92501" lon="5.32478">
        <ele>1273.4</ele>
        <time>2021-10-08T08:35:06Z</time>
      </trkpt>
      <trkpt lat="44.92499" lon="5.32477">
        <ele>1273.4</ele>
        <time>2021-10-08T08:35:07Z</time>
      </trkpt>
      <trkpt lat="44.92497" lon="5.32476">
        <ele>1273.4</ele>
        <time>2021-10-08T08:35:08Z</time>
      </trkpt>
      <trkpt lat="44.92495" lon="5.32475">
        <ele>1274.2</ele>
        <time>2021-10-08T08:35:09Z</time>
      </trkpt>
      <trkpt lat="44.92493" lon="5.32474">
        <ele>1274.2</ele>
        <time>2021-10-08T08:35:10Z</time>
      </trkpt>
      <trkpt lat="44.92491" lon="5.32473">
        <ele>1274.2</ele>
        <time>2021-10-08T08:35:11Z</time>
      </trkpt>
      <trkpt lat="44.92489" lon="5.32472">
        <ele>1274.2</ele>
        <time>2021-10-08T08:35:12Z</time>
      </trkpt>
      <trkpt lat="44.92487" lon="5.32471">
        <ele>1274.6</ele>
        <time>2021-10-08T08:35:13Z</time>
      </trkpt>
      <trkpt lat="44.92485" lon="5.32469">
        <ele>1274.8</ele>
        <time>2021-10-08T08:35:14Z</time>
      </trkpt>
      <trkpt lat="44.92483" lon="5.32468">
        <ele>1274.8</ele>
        <time>2021-10-08T08:35:15Z</time>
      </trkpt>
      <trkpt lat="44.92481" lon="5.32466">
        <ele>1274.8</ele>
        <time>2021-10-08T08:35:16Z</time>
      </trkpt>
      <trkpt lat="44.92479" lon="5.32465">
        <ele>1274.8</ele>
        <time>2021-10-08T08:35:17Z</time>
      </trkpt>
      <trkpt lat="44.92477" lon="5.32463">
        <ele>1275.4</ele>
        <time>2021-10-08T08:35:18Z</time>
      </trkpt>
      <trkpt lat="44.92475" lon="5.32462">
        <ele>1275.4</ele>
        <time>2021-10-08T08:35:19Z</time>
      </trkpt>
      <trkpt lat="44.92472" lon="5.32461">
        <ele>1275.4</ele>
        <time>2021-10-08T08:35:20Z</time>
      </trkpt>
      <trkpt lat="44.9247" lon="5.32459">
        <ele>1275.8</ele>
        <time>2021-10-08T08:35:21Z</time>
      </trkpt>
      <trkpt lat="44.92468" lon="5.32458">
        <ele>1276</ele>
        <time>2021-10-08T08:35:22Z</time>
      </trkpt>
      <trkpt lat="44.92466" lon="5.32457">
        <ele>1276</ele>
        <time>2021-10-08T08:35:23Z</time>
      </trkpt>
      <trkpt lat="44.92464" lon="5.32456">
        <ele>1276</ele>
        <time>2021-10-08T08:35:24Z</time>
      </trkpt>
      <trkpt lat="44.92462" lon="5.32455">
        <ele>1276.6</ele>
        <time>2021-10-08T08:35:25Z</time>
      </trkpt>
      <trkpt lat="44.9246" lon="5.32454">
        <ele>1276.8</ele>
        <time>2021-10-08T08:35:26Z</time>
      </trkpt>
      <trkpt lat="44.92457" lon="5.32452">
        <ele>1276.8</ele>
        <time>2021-10-08T08:35:27Z</time>
      </trkpt>
      <trkpt lat="44.92455" lon="5.32451">
        <ele>1276.8</ele>
        <time>2021-10-08T08:35:28Z</time>
      </trkpt>
      <trkpt lat="44.92453" lon="5.3245">
        <ele>1277.2</ele>
        <time>2021-10-08T08:35:29Z</time>
      </trkpt>
      <trkpt lat="44.92451" lon="5.32448">
        <ele>1277.4</ele>
        <time>2021-10-08T08:35:30Z</time>
      </trkpt>
      <trkpt lat="44.92449" lon="5.32447">
        <ele>1277.4</ele>
        <time>2021-10-08T08:35:31Z</time>
      </trkpt>
      <trkpt lat="44.92447" lon="5.32446">
        <ele>1277.4</ele>
        <time>2021-10-08T08:35:32Z</time>
      </trkpt>
      <trkpt lat="44.92445" lon="5.32445">
        <ele>1277.4</ele>
        <time>2021-10-08T08:35:33Z</time>
      </trkpt>
      <trkpt lat="44.92443" lon="5.32444">
        <ele>1278</ele>
        <time>2021-10-08T08:35:34Z</time>
      </trkpt>
      <trkpt lat="44.92441" lon="5.32442">
        <ele>1278</ele>
        <time>2021-10-08T08:35:35Z</time>
      </trkpt>
      <trkpt lat="44.92439" lon="5.32441">
        <ele>1278</ele>
        <time>2021-10-08T08:35:36Z</time>
      </trkpt>
      <trkpt lat="44.92437" lon="5.3244">
        <ele>1278.2</ele>
        <time>2021-10-08T08:35:37Z</time>
      </trkpt>
      <trkpt lat="44.92434" lon="5.32439">
        <ele>1278.4</ele>
        <time>2021-10-08T08:35:38Z</time>
      </trkpt>
      <trkpt lat="44.92432" lon="5.32438">
        <ele>1278.4</ele>
        <time>2021-10-08T08:35:39Z</time>
      </trkpt>
      <trkpt lat="44.9243" lon="5.32437">
        <ele>1278.4</ele>
        <time>2021-10-08T08:35:40Z</time>
      </trkpt>
      <trkpt lat="44.92428" lon="5.32437">
        <ele>1279</ele>
        <time>2021-10-08T08:35:41Z</time>
      </trkpt>
      <trkpt lat="44.92426" lon="5.32436">
        <ele>1279</ele>
        <time>2021-10-08T08:35:42Z</time>
      </trkpt>
      <trkpt lat="44.92423" lon="5.32435">
        <ele>1279</ele>
        <time>2021-10-08T08:35:43Z</time>
      </trkpt>
      <trkpt lat="44.92421" lon="5.32435">
        <ele>1279</ele>
        <time>2021-10-08T08:35:44Z</time>
      </trkpt>
      <trkpt lat="44.92419" lon="5.32434">
        <ele>1279.6</ele>
        <time>2021-10-08T08:35:45Z</time>
      </trkpt>
      <trkpt lat="44.92417" lon="5.32434">
        <ele>1279.8</ele>
        <time>2021-10-08T08:35:46Z</time>
      </trkpt>
      <trkpt lat="44.92415" lon="5.32433">
        <ele>1279.8</ele>
        <time>2021-10-08T08:35:47Z</time>
      </trkpt>
      <trkpt lat="44.92412" lon="5.32433">
        <ele>1279.8</ele>
        <time>2021-10-08T08:35:48Z</time>
      </trkpt>
      <trkpt lat="44.9241" lon="5.32433">
        <ele>1279.8</ele>
        <time>2021-10-08T08:35:49Z</time>
      </trkpt>
      <trkpt lat="44.92408" lon="5.32432">
        <ele>1280.2</ele>
        <time>2021-10-08T08:35:50Z</time>
      </trkpt>
      <trkpt lat="44.92406" lon="5.32432">
        <ele>1280.2</ele>
        <time>2021-10-08T08:35:51Z</time>
      </trkpt>
      <trkpt lat="44.92404" lon="5.32432">
        <ele>1280.2</ele>
        <time>2021-10-08T08:35:52Z</time>
      </trkpt>
      <trkpt lat="44.92402" lon="5.32431">
        <ele>1280.8</ele>
        <time>2021-10-08T08:35:53Z</time>
      </trkpt>
      <trkpt lat="44.92399" lon="5.32431">
        <ele>1281.2</ele>
        <time>2021-10-08T08:35:54Z</time>
      </trkpt>
      <trkpt lat="44.92397" lon="5.32431">
        <ele>1281.2</ele>
        <time>2021-10-08T08:35:55Z</time>
      </trkpt>
      <trkpt lat="44.92395" lon="5.32431">
        <ele>1281.2</ele>
        <time>2021-10-08T08:35:56Z</time>
      </trkpt>
      <trkpt lat="44.92392" lon="5.32431">
        <ele>1281.2</ele>
        <time>2021-10-08T08:35:57Z</time>
      </trkpt>
      <trkpt lat="44.9239" lon="5.32431">
        <ele>1281.8</ele>
        <time>2021-10-08T08:35:58Z</time>
      </trkpt>
      <trkpt lat="44.92388" lon="5.32431">
        <ele>1281.8</ele>
        <time>2021-10-08T08:35:59Z</time>
      </trkpt>
      <trkpt lat="44.92385" lon="5.32431">
        <ele>1281.8</ele>
        <time>2021-10-08T08:36:00Z</time>
      </trkpt>
      <trkpt lat="44.92383" lon="5.32431">
        <ele>1282.4</ele>
        <time>2021-10-08T08:36:01Z</time>
      </trkpt>
      <trkpt lat="44.92381" lon="5.32431">
        <ele>1282.6</ele>
        <time>2021-10-08T08:36:02Z</time>
      </trkpt>
      <trkpt lat="44.92378" lon="5.32431">
        <ele>1282.6</ele>
        <time>2021-10-08T08:36:03Z</time>
      </trkpt>
      <trkpt lat="44.92376" lon="5.32431">
        <ele>1282.6</ele>
        <time>2021-10-08T08:36:04Z</time>
      </trkpt>
      <trkpt lat="44.92374" lon="5.32431">
        <ele>1282.8</ele>
        <time>2021-10-08T08:36:05Z</time>
      </trkpt>
      <trkpt lat="44.92371" lon="5.32431">
        <ele>1283.2</ele>
        <time>2021-10-08T08:36:06Z</time>
      </trkpt>
      <trkpt lat="44.92369" lon="5.32431">
        <ele>1283.2</ele>
        <time>2021-10-08T08:36:07Z</time>
      </trkpt>
      <trkpt lat="44.92367" lon="5.32432">
        <ele>1283.2</ele>
        <time>2021-10-08T08:36:08Z</time>
      </trkpt>
      <trkpt lat="44.92365" lon="5.32432">
        <ele>1283.6</ele>
        <time>2021-10-08T08:36:09Z</time>
      </trkpt>
      <trkpt lat="44.92363" lon="5.32432">
        <ele>1284</ele>
        <time>2021-10-08T08:36:10Z</time>
      </trkpt>
      <trkpt lat="44.92361" lon="5.32432">
        <ele>1284</ele>
        <time>2021-10-08T08:36:11Z</time>
      </trkpt>
      <trkpt lat="44.92358" lon="5.32431">
        <ele>1284</ele>
        <time>2021-10-08T08:36:12Z</time>
      </trkpt>
      <trkpt lat="44.92356" lon="5.32431">
        <ele>1284.2</ele>
        <time>2021-10-08T08:36:13Z</time>
      </trkpt>
      <trkpt lat="44.92354" lon="5.32432">
        <ele>1284.4</ele>
        <time>2021-10-08T08:36:14Z</time>
      </trkpt>
      <trkpt lat="44.92352" lon="5.32432">
        <ele>1284.4</ele>
        <time>2021-10-08T08:36:15Z</time>
      </trkpt>
      <trkpt lat="44.92349" lon="5.32433">
        <ele>1284.4</ele>
        <time>2021-10-08T08:36:16Z</time>
      </trkpt>
      <trkpt lat="44.92347" lon="5.32432">
        <ele>1284.8</ele>
        <time>2021-10-08T08:36:17Z</time>
      </trkpt>
      <trkpt lat="44.92345" lon="5.32432">
        <ele>1284.8</ele>
        <time>2021-10-08T08:36:18Z</time>
      </trkpt>
      <trkpt lat="44.92342" lon="5.32433">
        <ele>1285</ele>
        <time>2021-10-08T08:36:19Z</time>
      </trkpt>
      <trkpt lat="44.9234" lon="5.32433">
        <ele>1285</ele>
        <time>2021-10-08T08:36:20Z</time>
      </trkpt>
      <trkpt lat="44.92338" lon="5.32433">
        <ele>1285.6</ele>
        <time>2021-10-08T08:36:21Z</time>
      </trkpt>
      <trkpt lat="44.92336" lon="5.32434">
        <ele>1285.8</ele>
        <time>2021-10-08T08:36:22Z</time>
      </trkpt>
      <trkpt lat="44.92333" lon="5.32434">
        <ele>1285.8</ele>
        <time>2021-10-08T08:36:23Z</time>
      </trkpt>
      <trkpt lat="44.92331" lon="5.32434">
        <ele>1285.8</ele>
        <time>2021-10-08T08:36:24Z</time>
      </trkpt>
      <trkpt lat="44.92328" lon="5.32434">
        <ele>1286.4</ele>
        <time>2021-10-08T08:36:25Z</time>
      </trkpt>
      <trkpt lat="44.92326" lon="5.32434">
        <ele>1286.4</ele>
        <time>2021-10-08T08:36:26Z</time>
      </trkpt>
      <trkpt lat="44.92323" lon="5.32435">
        <ele>1286.4</ele>
        <time>2021-10-08T08:36:27Z</time>
      </trkpt>
      <trkpt lat="44.92321" lon="5.32435">
        <ele>1286.4</ele>
        <time>2021-10-08T08:36:28Z</time>
      </trkpt>
      <trkpt lat="44.92319" lon="5.32435">
        <ele>1287</ele>
        <time>2021-10-08T08:36:29Z</time>
      </trkpt>
      <trkpt lat="44.92316" lon="5.32435">
        <ele>1287</ele>
        <time>2021-10-08T08:36:30Z</time>
      </trkpt>
      <trkpt lat="44.92314" lon="5.32435">
        <ele>1287</ele>
        <time>2021-10-08T08:36:31Z</time>
      </trkpt>
      <trkpt lat="44.92312" lon="5.32436">
        <ele>1287</ele>
        <time>2021-10-08T08:36:32Z</time>
      </trkpt>
      <trkpt lat="44.92309" lon="5.32436">
        <ele>1287</ele>
        <time>2021-10-08T08:36:33Z</time>
      </trkpt>
      <trkpt lat="44.92307" lon="5.32436">
        <ele>1287.4</ele>
        <time>2021-10-08T08:36:34Z</time>
      </trkpt>
      <trkpt lat="44.92305" lon="5.32436">
        <ele>1287.4</ele>
        <time>2021-10-08T08:36:35Z</time>
      </trkpt>
      <trkpt lat="44.92302" lon="5.32437">
        <ele>1287.4</ele>
        <time>2021-10-08T08:36:36Z</time>
      </trkpt>
      <trkpt lat="44.923" lon="5.32437">
        <ele>1287.8</ele>
        <time>2021-10-08T08:36:37Z</time>
      </trkpt>
      <trkpt lat="44.92298" lon="5.32437">
        <ele>1287.8</ele>
        <time>2021-10-08T08:36:38Z</time>
      </trkpt>
      <trkpt lat="44.92295" lon="5.32437">
        <ele>1287.8</ele>
        <time>2021-10-08T08:36:39Z</time>
      </trkpt>
      <trkpt lat="44.92293" lon="5.32437">
        <ele>1287.8</ele>
        <time>2021-10-08T08:36:40Z</time>
      </trkpt>
      <trkpt lat="44.9229" lon="5.32437">
        <ele>1288.2</ele>
        <time>2021-10-08T08:36:41Z</time>
      </trkpt>
      <trkpt lat="44.92288" lon="5.32437">
        <ele>1288.4</ele>
        <time>2021-10-08T08:36:42Z</time>
      </trkpt>
      <trkpt lat="44.92286" lon="5.32438">
        <ele>1288.4</ele>
        <time>2021-10-08T08:36:43Z</time>
      </trkpt>
      <trkpt lat="44.92283" lon="5.32438">
        <ele>1288.4</ele>
        <time>2021-10-08T08:36:44Z</time>
      </trkpt>
      <trkpt lat="44.92281" lon="5.32438">
        <ele>1288.8</ele>
        <time>2021-10-08T08:36:45Z</time>
      </trkpt>
      <trkpt lat="44.92279" lon="5.32438">
        <ele>1288.8</ele>
        <time>2021-10-08T08:36:46Z</time>
      </trkpt>
      <trkpt lat="44.92276" lon="5.32438">
        <ele>1288.8</ele>
        <time>2021-10-08T08:36:47Z</time>
      </trkpt>
      <trkpt lat="44.92274" lon="5.32439">
        <ele>1288.8</ele>
        <time>2021-10-08T08:36:48Z</time>
      </trkpt>
      <trkpt lat="44.92271" lon="5.32439">
        <ele>1289.2</ele>
        <time>2021-10-08T08:36:49Z</time>
      </trkpt>
      <trkpt lat="44.92269" lon="5.32439">
        <ele>1289.2</ele>
        <time>2021-10-08T08:36:50Z</time>
      </trkpt>
      <trkpt lat="44.92267" lon="5.32439">
        <ele>1289.2</ele>
        <time>2021-10-08T08:36:51Z</time>
      </trkpt>
      <trkpt lat="44.92264" lon="5.32439">
        <ele>1289.2</ele>
        <time>2021-10-08T08:36:52Z</time>
      </trkpt>
      <trkpt lat="44.92262" lon="5.32439">
        <ele>1289.8</ele>
        <time>2021-10-08T08:36:53Z</time>
      </trkpt>
      <trkpt lat="44.9226" lon="5.3244">
        <ele>1290.2</ele>
        <time>2021-10-08T08:36:54Z</time>
      </trkpt>
      <trkpt lat="44.92258" lon="5.32439">
        <ele>1290.2</ele>
        <time>2021-10-08T08:36:55Z</time>
      </trkpt>
      <trkpt lat="44.92256" lon="5.32439">
        <ele>1290.2</ele>
        <time>2021-10-08T08:36:56Z</time>
      </trkpt>
      <trkpt lat="44.92253" lon="5.32439">
        <ele>1290.2</ele>
        <time>2021-10-08T08:36:57Z</time>
      </trkpt>
      <trkpt lat="44.92251" lon="5.32438">
        <ele>1290.4</ele>
        <time>2021-10-08T08:36:58Z</time>
      </trkpt>
      <trkpt lat="44.92248" lon="5.32438">
        <ele>1290.4</ele>
        <time>2021-10-08T08:36:59Z</time>
      </trkpt>
      <trkpt lat="44.92246" lon="5.32437">
        <ele>1290.4</ele>
        <time>2021-10-08T08:37:00Z</time>
      </trkpt>
      <trkpt lat="44.92244" lon="5.32436">
        <ele>1290.8</ele>
        <time>2021-10-08T08:37:01Z</time>
      </trkpt>
      <trkpt lat="44.92241" lon="5.32436">
        <ele>1290.8</ele>
        <time>2021-10-08T08:37:02Z</time>
      </trkpt>
      <trkpt lat="44.92239" lon="5.32435">
        <ele>1290.8</ele>
        <time>2021-10-08T08:37:03Z</time>
      </trkpt>
      <trkpt lat="44.92237" lon="5.32434">
        <ele>1290.8</ele>
        <time>2021-10-08T08:37:04Z</time>
      </trkpt>
      <trkpt lat="44.92235" lon="5.32433">
        <ele>1291.8</ele>
        <time>2021-10-08T08:37:05Z</time>
      </trkpt>
      <trkpt lat="44.92232" lon="5.32432">
        <ele>1292</ele>
        <time>2021-10-08T08:37:06Z</time>
      </trkpt>
      <trkpt lat="44.9223" lon="5.32431">
        <ele>1292</ele>
        <time>2021-10-08T08:37:07Z</time>
      </trkpt>
      <trkpt lat="44.92228" lon="5.3243">
        <ele>1292</ele>
        <time>2021-10-08T08:37:08Z</time>
      </trkpt>
      <trkpt lat="44.92226" lon="5.32428">
        <ele>1292</ele>
        <time>2021-10-08T08:37:09Z</time>
      </trkpt>
      <trkpt lat="44.92223" lon="5.32428">
        <ele>1292.4</ele>
        <time>2021-10-08T08:37:10Z</time>
      </trkpt>
      <trkpt lat="44.92221" lon="5.32426">
        <ele>1292.4</ele>
        <time>2021-10-08T08:37:11Z</time>
      </trkpt>
      <trkpt lat="44.92219" lon="5.32425">
        <ele>1292.4</ele>
        <time>2021-10-08T08:37:12Z</time>
      </trkpt>
      <trkpt lat="44.92217" lon="5.32424">
        <ele>1292.4</ele>
        <time>2021-10-08T08:37:13Z</time>
      </trkpt>
      <trkpt lat="44.92214" lon="5.32423">
        <ele>1293</ele>
        <time>2021-10-08T08:37:14Z</time>
      </trkpt>
      <trkpt lat="44.92212" lon="5.32422">
        <ele>1293</ele>
        <time>2021-10-08T08:37:15Z</time>
      </trkpt>
      <trkpt lat="44.9221" lon="5.32421">
        <ele>1293</ele>
        <time>2021-10-08T08:37:16Z</time>
      </trkpt>
      <trkpt lat="44.92208" lon="5.3242">
        <ele>1293</ele>
        <time>2021-10-08T08:37:17Z</time>
      </trkpt>
      <trkpt lat="44.92206" lon="5.32419">
        <ele>1293.2</ele>
        <time>2021-10-08T08:37:18Z</time>
      </trkpt>
      <trkpt lat="44.92203" lon="5.32417">
        <ele>1293.2</ele>
        <time>2021-10-08T08:37:19Z</time>
      </trkpt>
      <trkpt lat="44.92201" lon="5.32416">
        <ele>1293.2</ele>
        <time>2021-10-08T08:37:20Z</time>
      </trkpt>
      <trkpt lat="44.92199" lon="5.32415">
        <ele>1294.2</ele>
        <time>2021-10-08T08:37:21Z</time>
      </trkpt>
      <trkpt lat="44.92196" lon="5.32414">
        <ele>1294.4</ele>
        <time>2021-10-08T08:37:22Z</time>
      </trkpt>
      <trkpt lat="44.92194" lon="5.32412">
        <ele>1294.4</ele>
        <time>2021-10-08T08:37:23Z</time>
      </trkpt>
      <trkpt lat="44.92192" lon="5.32411">
        <ele>1294.4</ele>
        <time>2021-10-08T08:37:24Z</time>
      </trkpt>
      <trkpt lat="44.9219" lon="5.3241">
        <ele>1294.4</ele>
        <time>2021-10-08T08:37:25Z</time>
      </trkpt>
      <trkpt lat="44.92187" lon="5.32408">
        <ele>1295</ele>
        <time>2021-10-08T08:37:26Z</time>
      </trkpt>
      <trkpt lat="44.92185" lon="5.32407">
        <ele>1295</ele>
        <time>2021-10-08T08:37:27Z</time>
      </trkpt>
      <trkpt lat="44.92182" lon="5.32406">
        <ele>1295</ele>
        <time>2021-10-08T08:37:28Z</time>
      </trkpt>
      <trkpt lat="44.9218" lon="5.32405">
        <ele>1295.4</ele>
        <time>2021-10-08T08:37:29Z</time>
      </trkpt>
      <trkpt lat="44.92178" lon="5.32404">
        <ele>1295.6</ele>
        <time>2021-10-08T08:37:30Z</time>
      </trkpt>
      <trkpt lat="44.92176" lon="5.32402">
        <ele>1295.6</ele>
        <time>2021-10-08T08:37:31Z</time>
      </trkpt>
      <trkpt lat="44.92173" lon="5.32401">
        <ele>1295.6</ele>
        <time>2021-10-08T08:37:32Z</time>
      </trkpt>
      <trkpt lat="44.92171" lon="5.324">
        <ele>1295.8</ele>
        <time>2021-10-08T08:37:33Z</time>
      </trkpt>
      <trkpt lat="44.92168" lon="5.32399">
        <ele>1296</ele>
        <time>2021-10-08T08:37:34Z</time>
      </trkpt>
      <trkpt lat="44.92166" lon="5.32398">
        <ele>1296</ele>
        <time>2021-10-08T08:37:35Z</time>
      </trkpt>
      <trkpt lat="44.92164" lon="5.32397">
        <ele>1296</ele>
        <time>2021-10-08T08:37:36Z</time>
      </trkpt>
      <trkpt lat="44.92161" lon="5.32396">
        <ele>1296</ele>
        <time>2021-10-08T08:37:37Z</time>
      </trkpt>
      <trkpt lat="44.92159" lon="5.32395">
        <ele>1296</ele>
        <time>2021-10-08T08:37:38Z</time>
      </trkpt>
      <trkpt lat="44.92157" lon="5.32394">
        <ele>1296</ele>
        <time>2021-10-08T08:37:39Z</time>
      </trkpt>
      <trkpt lat="44.92154" lon="5.32393">
        <ele>1296</ele>
        <time>2021-10-08T08:37:40Z</time>
      </trkpt>
      <trkpt lat="44.92152" lon="5.32392">
        <ele>1296</ele>
        <time>2021-10-08T08:37:41Z</time>
      </trkpt>
      <trkpt lat="44.9215" lon="5.32391">
        <ele>1296.6</ele>
        <time>2021-10-08T08:37:42Z</time>
      </trkpt>
      <trkpt lat="44.92147" lon="5.3239">
        <ele>1296.6</ele>
        <time>2021-10-08T08:37:43Z</time>
      </trkpt>
      <trkpt lat="44.92145" lon="5.32389">
        <ele>1296.6</ele>
        <time>2021-10-08T08:37:44Z</time>
      </trkpt>
      <trkpt lat="44.92143" lon="5.32388">
        <ele>1296.6</ele>
        <time>2021-10-08T08:37:45Z</time>
      </trkpt>
      <trkpt lat="44.9214" lon="5.32387">
        <ele>1297.2</ele>
        <time>2021-10-08T08:37:46Z</time>
      </trkpt>
      <trkpt lat="44.92138" lon="5.32387">
        <ele>1297.2</ele>
        <time>2021-10-08T08:37:47Z</time>
      </trkpt>
      <trkpt lat="44.92136" lon="5.32386">
        <ele>1297.2</ele>
        <time>2021-10-08T08:37:48Z</time>
      </trkpt>
      <trkpt lat="44.92133" lon="5.32385">
        <ele>1297.2</ele>
        <time>2021-10-08T08:37:49Z</time>
      </trkpt>
      <trkpt lat="44.92131" lon="5.32384">
        <ele>1298</ele>
        <time>2021-10-08T08:37:50Z</time>
      </trkpt>
      <trkpt lat="44.92129" lon="5.32384">
        <ele>1298</ele>
        <time>2021-10-08T08:37:51Z</time>
      </trkpt>
      <trkpt lat="44.92126" lon="5.32383">
        <ele>1298</ele>
        <time>2021-10-08T08:37:52Z</time>
      </trkpt>
      <trkpt lat="44.92124" lon="5.32382">
        <ele>1298</ele>
        <time>2021-10-08T08:37:53Z</time>
      </trkpt>
      <trkpt lat="44.92121" lon="5.32382">
        <ele>1298.4</ele>
        <time>2021-10-08T08:37:54Z</time>
      </trkpt>
      <trkpt lat="44.92119" lon="5.32381">
        <ele>1298.4</ele>
        <time>2021-10-08T08:37:55Z</time>
      </trkpt>
      <trkpt lat="44.92117" lon="5.32381">
        <ele>1298.4</ele>
        <time>2021-10-08T08:37:56Z</time>
      </trkpt>
      <trkpt lat="44.92115" lon="5.3238">
        <ele>1298.8</ele>
        <time>2021-10-08T08:37:57Z</time>
      </trkpt>
      <trkpt lat="44.92112" lon="5.3238">
        <ele>1299</ele>
        <time>2021-10-08T08:37:58Z</time>
      </trkpt>
      <trkpt lat="44.9211" lon="5.32379">
        <ele>1299</ele>
        <time>2021-10-08T08:37:59Z</time>
      </trkpt>
      <trkpt lat="44.92108" lon="5.32378">
        <ele>1299</ele>
        <time>2021-10-08T08:38:00Z</time>
      </trkpt>
      <trkpt lat="44.92106" lon="5.32378">
        <ele>1299</ele>
        <time>2021-10-08T08:38:01Z</time>
      </trkpt>
      <trkpt lat="44.92103" lon="5.32377">
        <ele>1299.8</ele>
        <time>2021-10-08T08:38:02Z</time>
      </trkpt>
      <trkpt lat="44.92101" lon="5.32377">
        <ele>1299.8</ele>
        <time>2021-10-08T08:38:03Z</time>
      </trkpt>
      <trkpt lat="44.92099" lon="5.32376">
        <ele>1299.8</ele>
        <time>2021-10-08T08:38:04Z</time>
      </trkpt>
      <trkpt lat="44.92096" lon="5.32376">
        <ele>1300.4</ele>
        <time>2021-10-08T08:38:05Z</time>
      </trkpt>
      <trkpt lat="44.92094" lon="5.32375">
        <ele>1301</ele>
        <time>2021-10-08T08:38:06Z</time>
      </trkpt>
      <trkpt lat="44.92092" lon="5.32375">
        <ele>1301</ele>
        <time>2021-10-08T08:38:07Z</time>
      </trkpt>
      <trkpt lat="44.9209" lon="5.32374">
        <ele>1301</ele>
        <time>2021-10-08T08:38:08Z</time>
      </trkpt>
      <trkpt lat="44.92087" lon="5.32374">
        <ele>1301</ele>
        <time>2021-10-08T08:38:09Z</time>
      </trkpt>
      <trkpt lat="44.92085" lon="5.32374">
        <ele>1301.4</ele>
        <time>2021-10-08T08:38:10Z</time>
      </trkpt>
      <trkpt lat="44.92083" lon="5.32373">
        <ele>1301.4</ele>
        <time>2021-10-08T08:38:11Z</time>
      </trkpt>
      <trkpt lat="44.9208" lon="5.32373">
        <ele>1301.4</ele>
        <time>2021-10-08T08:38:12Z</time>
      </trkpt>
      <trkpt lat="44.92078" lon="5.32373">
        <ele>1302</ele>
        <time>2021-10-08T08:38:13Z</time>
      </trkpt>
      <trkpt lat="44.92076" lon="5.32373">
        <ele>1302.2</ele>
        <time>2021-10-08T08:38:14Z</time>
      </trkpt>
      <trkpt lat="44.92073" lon="5.32373">
        <ele>1302.2</ele>
        <time>2021-10-08T08:38:15Z</time>
      </trkpt>
      <trkpt lat="44.92071" lon="5.32373">
        <ele>1302.2</ele>
        <time>2021-10-08T08:38:16Z</time>
      </trkpt>
      <trkpt lat="44.92069" lon="5.32373">
        <ele>1302.2</ele>
        <time>2021-10-08T08:38:17Z</time>
      </trkpt>
      <trkpt lat="44.92066" lon="5.32374">
        <ele>1302.6</ele>
        <time>2021-10-08T08:38:18Z</time>
      </trkpt>
      <trkpt lat="44.92064" lon="5.32375">
        <ele>1302.6</ele>
        <time>2021-10-08T08:38:19Z</time>
      </trkpt>
      <trkpt lat="44.92062" lon="5.32376">
        <ele>1302.6</ele>
        <time>2021-10-08T08:38:20Z</time>
      </trkpt>
      <trkpt lat="44.92059" lon="5.32377">
        <ele>1303</ele>
        <time>2021-10-08T08:38:21Z</time>
      </trkpt>
      <trkpt lat="44.92057" lon="5.32378">
        <ele>1303</ele>
        <time>2021-10-08T08:38:22Z</time>
      </trkpt>
      <trkpt lat="44.92055" lon="5.3238">
        <ele>1303</ele>
        <time>2021-10-08T08:38:23Z</time>
      </trkpt>
      <trkpt lat="44.92053" lon="5.32381">
        <ele>1303</ele>
        <time>2021-10-08T08:38:24Z</time>
      </trkpt>
      <trkpt lat="44.92051" lon="5.32384">
        <ele>1303.2</ele>
        <time>2021-10-08T08:38:25Z</time>
      </trkpt>
      <trkpt lat="44.92049" lon="5.32386">
        <ele>1303.4</ele>
        <time>2021-10-08T08:38:26Z</time>
      </trkpt>
      <trkpt lat="44.92047" lon="5.32388">
        <ele>1303.4</ele>
        <time>2021-10-08T08:38:27Z</time>
      </trkpt>
      <trkpt lat="44.92046" lon="5.32391">
        <ele>1303.4</ele>
        <time>2021-10-08T08:38:28Z</time>
      </trkpt>
      <trkpt lat="44.92044" lon="5.32393">
        <ele>1303.8</ele>
        <time>2021-10-08T08:38:29Z</time>
      </trkpt>
      <trkpt lat="44.92043" lon="5.32396">
        <ele>1303.6</ele>
        <time>2021-10-08T08:38:30Z</time>
      </trkpt>
      <trkpt lat="44.92041" lon="5.32399">
        <ele>1303.6</ele>
        <time>2021-10-08T08:38:31Z</time>
      </trkpt>
      <trkpt lat="44.9204" lon="5.32402">
        <ele>1303.6</ele>
        <time>2021-10-08T08:38:32Z</time>
      </trkpt>
      <trkpt lat="44.92038" lon="5.32405">
        <ele>1303.6</ele>
        <time>2021-10-08T08:38:33Z</time>
      </trkpt>
      <trkpt lat="44.92037" lon="5.32408">
        <ele>1303.8</ele>
        <time>2021-10-08T08:38:34Z</time>
      </trkpt>
      <trkpt lat="44.92035" lon="5.32412">
        <ele>1303.8</ele>
        <time>2021-10-08T08:38:35Z</time>
      </trkpt>
      <trkpt lat="44.92034" lon="5.32415">
        <ele>1303.8</ele>
        <time>2021-10-08T08:38:36Z</time>
      </trkpt>
      <trkpt lat="44.92033" lon="5.32419">
        <ele>1304</ele>
        <time>2021-10-08T08:38:37Z</time>
      </trkpt>
      <trkpt lat="44.92031" lon="5.32422">
        <ele>1304</ele>
        <time>2021-10-08T08:38:38Z</time>
      </trkpt>
      <trkpt lat="44.9203" lon="5.32426">
        <ele>1303.8</ele>
        <time>2021-10-08T08:38:39Z</time>
      </trkpt>
      <trkpt lat="44.92028" lon="5.32429">
        <ele>1303.8</ele>
        <time>2021-10-08T08:38:40Z</time>
      </trkpt>
      <trkpt lat="44.92026" lon="5.32433">
        <ele>1303.8</ele>
        <time>2021-10-08T08:38:41Z</time>
      </trkpt>
      <trkpt lat="44.92024" lon="5.32437">
        <ele>1304</ele>
        <time>2021-10-08T08:38:42Z</time>
      </trkpt>
      <trkpt lat="44.92023" lon="5.3244">
        <ele>1304</ele>
        <time>2021-10-08T08:38:43Z</time>
      </trkpt>
      <trkpt lat="44.92021" lon="5.32444">
        <ele>1304</ele>
        <time>2021-10-08T08:38:44Z</time>
      </trkpt>
      <trkpt lat="44.9202" lon="5.32448">
        <ele>1304.2</ele>
        <time>2021-10-08T08:38:45Z</time>
      </trkpt>
      <trkpt lat="44.92018" lon="5.32452">
        <ele>1304.4</ele>
        <time>2021-10-08T08:38:46Z</time>
      </trkpt>
      <trkpt lat="44.92017" lon="5.32456">
        <ele>1304.4</ele>
        <time>2021-10-08T08:38:47Z</time>
      </trkpt>
      <trkpt lat="44.92015" lon="5.32459">
        <ele>1304.4</ele>
        <time>2021-10-08T08:38:48Z</time>
      </trkpt>
      <trkpt lat="44.92013" lon="5.32463">
        <ele>1304.4</ele>
        <time>2021-10-08T08:38:49Z</time>
      </trkpt>
      <trkpt lat="44.9201" lon="5.32466">
        <ele>1305</ele>
        <time>2021-10-08T08:38:50Z</time>
      </trkpt>
      <trkpt lat="44.92008" lon="5.32469">
        <ele>1305</ele>
        <time>2021-10-08T08:38:51Z</time>
      </trkpt>
      <trkpt lat="44.92006" lon="5.32472">
        <ele>1305</ele>
        <time>2021-10-08T08:38:52Z</time>
      </trkpt>
      <trkpt lat="44.92004" lon="5.32475">
        <ele>1305</ele>
        <time>2021-10-08T08:38:53Z</time>
      </trkpt>
      <trkpt lat="44.92001" lon="5.32478">
        <ele>1305.4</ele>
        <time>2021-10-08T08:38:54Z</time>
      </trkpt>
      <trkpt lat="44.91999" lon="5.3248">
        <ele>1305.4</ele>
        <time>2021-10-08T08:38:55Z</time>
      </trkpt>
      <trkpt lat="44.91996" lon="5.32483">
        <ele>1305.4</ele>
        <time>2021-10-08T08:38:56Z</time>
      </trkpt>
      <trkpt lat="44.91994" lon="5.32485">
        <ele>1305.8</ele>
        <time>2021-10-08T08:38:57Z</time>
      </trkpt>
      <trkpt lat="44.91991" lon="5.32488">
        <ele>1306.2</ele>
        <time>2021-10-08T08:38:58Z</time>
      </trkpt>
      <trkpt lat="44.91988" lon="5.3249">
        <ele>1306.2</ele>
        <time>2021-10-08T08:38:59Z</time>
      </trkpt>
      <trkpt lat="44.91985" lon="5.32492">
        <ele>1306.2</ele>
        <time>2021-10-08T08:39:00Z</time>
      </trkpt>
      <trkpt lat="44.91983" lon="5.32494">
        <ele>1306.2</ele>
        <time>2021-10-08T08:39:01Z</time>
      </trkpt>
      <trkpt lat="44.9198" lon="5.32495">
        <ele>1306.8</ele>
        <time>2021-10-08T08:39:02Z</time>
      </trkpt>
      <trkpt lat="44.91978" lon="5.32497">
        <ele>1306.8</ele>
        <time>2021-10-08T08:39:03Z</time>
      </trkpt>
      <trkpt lat="44.91975" lon="5.32499">
        <ele>1306.8</ele>
        <time>2021-10-08T08:39:04Z</time>
      </trkpt>
      <trkpt lat="44.91973" lon="5.325">
        <ele>1306.8</ele>
        <time>2021-10-08T08:39:05Z</time>
      </trkpt>
      <trkpt lat="44.91971" lon="5.32502">
        <ele>1307.6</ele>
        <time>2021-10-08T08:39:06Z</time>
      </trkpt>
      <trkpt lat="44.9197" lon="5.32503">
        <ele>1307.6</ele>
        <time>2021-10-08T08:39:07Z</time>
      </trkpt>
      <trkpt lat="44.91968" lon="5.32505">
        <ele>1307.6</ele>
        <time>2021-10-08T08:39:08Z</time>
      </trkpt>
      <trkpt lat="44.91966" lon="5.32506">
        <ele>1307.6</ele>
        <time>2021-10-08T08:39:09Z</time>
      </trkpt>
      <trkpt lat="44.91964" lon="5.32508">
        <ele>1308</ele>
        <time>2021-10-08T08:39:10Z</time>
      </trkpt>
      <trkpt lat="44.91962" lon="5.3251">
        <ele>1308</ele>
        <time>2021-10-08T08:39:11Z</time>
      </trkpt>
      <trkpt lat="44.9196" lon="5.32511">
        <ele>1308</ele>
        <time>2021-10-08T08:39:12Z</time>
      </trkpt>
      <trkpt lat="44.91958" lon="5.32513">
        <ele>1308.6</ele>
        <time>2021-10-08T08:39:13Z</time>
      </trkpt>
      <trkpt lat="44.91956" lon="5.32514">
        <ele>1308.8</ele>
        <time>2021-10-08T08:39:14Z</time>
      </trkpt>
      <trkpt lat="44.91954" lon="5.32515">
        <ele>1308.8</ele>
        <time>2021-10-08T08:39:15Z</time>
      </trkpt>
      <trkpt lat="44.91952" lon="5.32517">
        <ele>1308.8</ele>
        <time>2021-10-08T08:39:16Z</time>
      </trkpt>
      <trkpt lat="44.9195" lon="5.32518">
        <ele>1309.4</ele>
        <time>2021-10-08T08:39:17Z</time>
      </trkpt>
      <trkpt lat="44.91948" lon="5.3252">
        <ele>1309.6</ele>
        <time>2021-10-08T08:39:18Z</time>
      </trkpt>
      <trkpt lat="44.91946" lon="5.32521">
        <ele>1309.6</ele>
        <time>2021-10-08T08:39:19Z</time>
      </trkpt>
      <trkpt lat="44.91944" lon="5.32521">
        <ele>1309.6</ele>
        <time>2021-10-08T08:39:20Z</time>
      </trkpt>
      <trkpt lat="44.91942" lon="5.32521">
        <ele>1310</ele>
        <time>2021-10-08T08:39:21Z</time>
      </trkpt>
      <trkpt lat="44.91939" lon="5.32522">
        <ele>1310.2</ele>
        <time>2021-10-08T08:39:22Z</time>
      </trkpt>
      <trkpt lat="44.91938" lon="5.32523">
        <ele>1310.2</ele>
        <time>2021-10-08T08:39:23Z</time>
      </trkpt>
      <trkpt lat="44.91935" lon="5.32523">
        <ele>1310.2</ele>
        <time>2021-10-08T08:39:24Z</time>
      </trkpt>
      <trkpt lat="44.91933" lon="5.32523">
        <ele>1311</ele>
        <time>2021-10-08T08:39:25Z</time>
      </trkpt>
      <trkpt lat="44.9193" lon="5.32524">
        <ele>1311</ele>
        <time>2021-10-08T08:39:26Z</time>
      </trkpt>
      <trkpt lat="44.91928" lon="5.32524">
        <ele>1310.8</ele>
        <time>2021-10-08T08:39:27Z</time>
      </trkpt>
      <trkpt lat="44.91926" lon="5.32523">
        <ele>1310.8</ele>
        <time>2021-10-08T08:39:28Z</time>
      </trkpt>
      <trkpt lat="44.91924" lon="5.32523">
        <ele>1311.6</ele>
        <time>2021-10-08T08:39:29Z</time>
      </trkpt>
      <trkpt lat="44.91922" lon="5.32524">
        <ele>1311.8</ele>
        <time>2021-10-08T08:39:30Z</time>
      </trkpt>
      <trkpt lat="44.91919" lon="5.32524">
        <ele>1311.8</ele>
        <time>2021-10-08T08:39:31Z</time>
      </trkpt>
      <trkpt lat="44.91917" lon="5.32524">
        <ele>1311.8</ele>
        <time>2021-10-08T08:39:32Z</time>
      </trkpt>
      <trkpt lat="44.91915" lon="5.32524">
        <ele>1311.8</ele>
        <time>2021-10-08T08:39:33Z</time>
      </trkpt>
      <trkpt lat="44.91913" lon="5.32523">
        <ele>1312.4</ele>
        <time>2021-10-08T08:39:34Z</time>
      </trkpt>
      <trkpt lat="44.91911" lon="5.32523">
        <ele>1312.4</ele>
        <time>2021-10-08T08:39:35Z</time>
      </trkpt>
      <trkpt lat="44.91908" lon="5.32522">
        <ele>1312.4</ele>
        <time>2021-10-08T08:39:36Z</time>
      </trkpt>
      <trkpt lat="44.91906" lon="5.32522">
        <ele>1312.4</ele>
        <time>2021-10-08T08:39:37Z</time>
      </trkpt>
      <trkpt lat="44.91904" lon="5.32521">
        <ele>1312.8</ele>
        <time>2021-10-08T08:39:38Z</time>
      </trkpt>
      <trkpt lat="44.91901" lon="5.32521">
        <ele>1312.8</ele>
        <time>2021-10-08T08:39:39Z</time>
      </trkpt>
      <trkpt lat="44.91899" lon="5.3252">
        <ele>1312.8</ele>
        <time>2021-10-08T08:39:40Z</time>
      </trkpt>
      <trkpt lat="44.91897" lon="5.3252">
        <ele>1313.4</ele>
        <time>2021-10-08T08:39:41Z</time>
      </trkpt>
      <trkpt lat="44.91895" lon="5.32519">
        <ele>1313.6</ele>
        <time>2021-10-08T08:39:42Z</time>
      </trkpt>
      <trkpt lat="44.91892" lon="5.32519">
        <ele>1313.6</ele>
        <time>2021-10-08T08:39:43Z</time>
      </trkpt>
      <trkpt lat="44.9189" lon="5.32518">
        <ele>1313.6</ele>
        <time>2021-10-08T08:39:44Z</time>
      </trkpt>
      <trkpt lat="44.91888" lon="5.32518">
        <ele>1314.2</ele>
        <time>2021-10-08T08:39:45Z</time>
      </trkpt>
      <trkpt lat="44.91886" lon="5.32517">
        <ele>1314.2</ele>
        <time>2021-10-08T08:39:46Z</time>
      </trkpt>
      <trkpt lat="44.91883" lon="5.32517">
        <ele>1314.2</ele>
        <time>2021-10-08T08:39:47Z</time>
      </trkpt>
      <trkpt lat="44.91881" lon="5.32516">
        <ele>1314.2</ele>
        <time>2021-10-08T08:39:48Z</time>
      </trkpt>
      <trkpt lat="44.91879" lon="5.32515">
        <ele>1314.2</ele>
        <time>2021-10-08T08:39:49Z</time>
      </trkpt>
      <trkpt lat="44.91877" lon="5.32515">
        <ele>1314.6</ele>
        <time>2021-10-08T08:39:50Z</time>
      </trkpt>
      <trkpt lat="44.91875" lon="5.32514">
        <ele>1314.6</ele>
        <time>2021-10-08T08:39:51Z</time>
      </trkpt>
      <trkpt lat="44.91873" lon="5.32513">
        <ele>1314.6</ele>
        <time>2021-10-08T08:39:52Z</time>
      </trkpt>
      <trkpt lat="44.91871" lon="5.32513">
        <ele>1314.6</ele>
        <time>2021-10-08T08:39:53Z</time>
      </trkpt>
      <trkpt lat="44.91869" lon="5.32512">
        <ele>1315.2</ele>
        <time>2021-10-08T08:39:54Z</time>
      </trkpt>
      <trkpt lat="44.91867" lon="5.32512">
        <ele>1315.2</ele>
        <time>2021-10-08T08:39:55Z</time>
      </trkpt>
      <trkpt lat="44.91865" lon="5.32511">
        <ele>1315.2</ele>
        <time>2021-10-08T08:39:56Z</time>
      </trkpt>
      <trkpt lat="44.91863" lon="5.3251">
        <ele>1315.2</ele>
        <time>2021-10-08T08:39:57Z</time>
      </trkpt>
      <trkpt lat="44.91861" lon="5.3251">
        <ele>1315.6</ele>
        <time>2021-10-08T08:39:58Z</time>
      </trkpt>
      <trkpt lat="44.91859" lon="5.32509">
        <ele>1315.6</ele>
        <time>2021-10-08T08:39:59Z</time>
      </trkpt>
      <trkpt lat="44.91857" lon="5.32508">
        <ele>1315.6</ele>
        <time>2021-10-08T08:40:00Z</time>
      </trkpt>
      <trkpt lat="44.91854" lon="5.32508">
        <ele>1315.6</ele>
        <time>2021-10-08T08:40:01Z</time>
      </trkpt>
      <trkpt lat="44.91852" lon="5.32508">
        <ele>1316.2</ele>
        <time>2021-10-08T08:40:02Z</time>
      </trkpt>
      <trkpt lat="44.9185" lon="5.32507">
        <ele>1316.2</ele>
        <time>2021-10-08T08:40:03Z</time>
      </trkpt>
      <trkpt lat="44.91848" lon="5.32507">
        <ele>1316.2</ele>
        <time>2021-10-08T08:40:04Z</time>
      </trkpt>
      <trkpt lat="44.91846" lon="5.32506">
        <ele>1316.2</ele>
        <time>2021-10-08T08:40:05Z</time>
      </trkpt>
      <trkpt lat="44.91844" lon="5.32506">
        <ele>1316.8</ele>
        <time>2021-10-08T08:40:06Z</time>
      </trkpt>
      <trkpt lat="44.91842" lon="5.32506">
        <ele>1316.8</ele>
        <time>2021-10-08T08:40:07Z</time>
      </trkpt>
      <trkpt lat="44.9184" lon="5.32505">
        <ele>1316.8</ele>
        <time>2021-10-08T08:40:08Z</time>
      </trkpt>
      <trkpt lat="44.91838" lon="5.32505">
        <ele>1317.2</ele>
        <time>2021-10-08T08:40:09Z</time>
      </trkpt>
      <trkpt lat="44.91836" lon="5.32505">
        <ele>1317.2</ele>
        <time>2021-10-08T08:40:10Z</time>
      </trkpt>
      <trkpt lat="44.91833" lon="5.32505">
        <ele>1317.2</ele>
        <time>2021-10-08T08:40:11Z</time>
      </trkpt>
      <trkpt lat="44.91831" lon="5.32505">
        <ele>1317.2</ele>
        <time>2021-10-08T08:40:12Z</time>
      </trkpt>
      <trkpt lat="44.91829" lon="5.32505">
        <ele>1318</ele>
        <time>2021-10-08T08:40:13Z</time>
      </trkpt>
      <trkpt lat="44.91827" lon="5.32505">
        <ele>1318.2</ele>
        <time>2021-10-08T08:40:14Z</time>
      </trkpt>
      <trkpt lat="44.91825" lon="5.32505">
        <ele>1318.2</ele>
        <time>2021-10-08T08:40:15Z</time>
      </trkpt>
      <trkpt lat="44.91823" lon="5.32505">
        <ele>1318.2</ele>
        <time>2021-10-08T08:40:16Z</time>
      </trkpt>
      <trkpt lat="44.9182" lon="5.32505">
        <ele>1318.4</ele>
        <time>2021-10-08T08:40:17Z</time>
      </trkpt>
      <trkpt lat="44.91818" lon="5.32505">
        <ele>1318.8</ele>
        <time>2021-10-08T08:40:18Z</time>
      </trkpt>
      <trkpt lat="44.91816" lon="5.32505">
        <ele>1318.8</ele>
        <time>2021-10-08T08:40:19Z</time>
      </trkpt>
      <trkpt lat="44.91814" lon="5.32505">
        <ele>1318.8</ele>
        <time>2021-10-08T08:40:20Z</time>
      </trkpt>
      <trkpt lat="44.91812" lon="5.32506">
        <ele>1318.8</ele>
        <time>2021-10-08T08:40:21Z</time>
      </trkpt>
      <trkpt lat="44.91809" lon="5.32506">
        <ele>1319</ele>
        <time>2021-10-08T08:40:22Z</time>
      </trkpt>
      <trkpt lat="44.91808" lon="5.32507">
        <ele>1319</ele>
        <time>2021-10-08T08:40:23Z</time>
      </trkpt>
      <trkpt lat="44.91805" lon="5.32507">
        <ele>1319</ele>
        <time>2021-10-08T08:40:24Z</time>
      </trkpt>
      <trkpt lat="44.91803" lon="5.32508">
        <ele>1319.4</ele>
        <time>2021-10-08T08:40:25Z</time>
      </trkpt>
      <trkpt lat="44.91801" lon="5.32508">
        <ele>1319.6</ele>
        <time>2021-10-08T08:40:26Z</time>
      </trkpt>
      <trkpt lat="44.91799" lon="5.32508">
        <ele>1319.6</ele>
        <time>2021-10-08T08:40:27Z</time>
      </trkpt>
      <trkpt lat="44.91797" lon="5.32509">
        <ele>1319.6</ele>
        <time>2021-10-08T08:40:28Z</time>
      </trkpt>
      <trkpt lat="44.91795" lon="5.32509">
        <ele>1319.6</ele>
        <time>2021-10-08T08:40:29Z</time>
      </trkpt>
      <trkpt lat="44.91793" lon="5.3251">
        <ele>1320.2</ele>
        <time>2021-10-08T08:40:30Z</time>
      </trkpt>
      <trkpt lat="44.91791" lon="5.3251">
        <ele>1320.2</ele>
        <time>2021-10-08T08:40:31Z</time>
      </trkpt>
      <trkpt lat="44.91789" lon="5.32511">
        <ele>1320.2</ele>
        <time>2021-10-08T08:40:32Z</time>
      </trkpt>
      <trkpt lat="44.91787" lon="5.32511">
        <ele>1320.6</ele>
        <time>2021-10-08T08:40:33Z</time>
      </trkpt>
      <trkpt lat="44.91785" lon="5.32512">
        <ele>1321</ele>
        <time>2021-10-08T08:40:34Z</time>
      </trkpt>
      <trkpt lat="44.91783" lon="5.32513">
        <ele>1321</ele>
        <time>2021-10-08T08:40:35Z</time>
      </trkpt>
      <trkpt lat="44.91781" lon="5.32514">
        <ele>1321</ele>
        <time>2021-10-08T08:40:36Z</time>
      </trkpt>
      <trkpt lat="44.91779" lon="5.32515">
        <ele>1321.4</ele>
        <time>2021-10-08T08:40:37Z</time>
      </trkpt>
      <trkpt lat="44.91777" lon="5.32515">
        <ele>1322.2</ele>
        <time>2021-10-08T08:40:38Z</time>
      </trkpt>
      <trkpt lat="44.91775" lon="5.32516">
        <ele>1322.2</ele>
        <time>2021-10-08T08:40:39Z</time>
      </trkpt>
      <trkpt lat="44.91773" lon="5.32517">
        <ele>1322.2</ele>
        <time>2021-10-08T08:40:40Z</time>
      </trkpt>
      <trkpt lat="44.91771" lon="5.32518">
        <ele>1322.2</ele>
        <time>2021-10-08T08:40:41Z</time>
      </trkpt>
      <trkpt lat="44.91769" lon="5.32519">
        <ele>1322.8</ele>
        <time>2021-10-08T08:40:42Z</time>
      </trkpt>
      <trkpt lat="44.91767" lon="5.32519">
        <ele>1322.8</ele>
        <time>2021-10-08T08:40:43Z</time>
      </trkpt>
      <trkpt lat="44.91765" lon="5.3252">
        <ele>1322.8</ele>
        <time>2021-10-08T08:40:44Z</time>
      </trkpt>
      <trkpt lat="44.91763" lon="5.32521">
        <ele>1322.8</ele>
        <time>2021-10-08T08:40:45Z</time>
      </trkpt>
      <trkpt lat="44.91761" lon="5.32521">
        <ele>1323</ele>
        <time>2021-10-08T08:40:46Z</time>
      </trkpt>
      <trkpt lat="44.91759" lon="5.32522">
        <ele>1323</ele>
        <time>2021-10-08T08:40:47Z</time>
      </trkpt>
      <trkpt lat="44.91757" lon="5.32522">
        <ele>1323</ele>
        <time>2021-10-08T08:40:48Z</time>
      </trkpt>
      <trkpt lat="44.91754" lon="5.32522">
        <ele>1323</ele>
        <time>2021-10-08T08:40:49Z</time>
      </trkpt>
      <trkpt lat="44.91752" lon="5.32523">
        <ele>1323.8</ele>
        <time>2021-10-08T08:40:50Z</time>
      </trkpt>
      <trkpt lat="44.9175" lon="5.32524">
        <ele>1323.8</ele>
        <time>2021-10-08T08:40:51Z</time>
      </trkpt>
      <trkpt lat="44.91748" lon="5.32525">
        <ele>1323.8</ele>
        <time>2021-10-08T08:40:52Z</time>
      </trkpt>
      <trkpt lat="44.91746" lon="5.32525">
        <ele>1324.2</ele>
        <time>2021-10-08T08:40:53Z</time>
      </trkpt>
      <trkpt lat="44.91743" lon="5.32525">
        <ele>1324.4</ele>
        <time>2021-10-08T08:40:54Z</time>
      </trkpt>
      <trkpt lat="44.91741" lon="5.32526">
        <ele>1324.4</ele>
        <time>2021-10-08T08:40:55Z</time>
      </trkpt>
      <trkpt lat="44.91739" lon="5.32527">
        <ele>1324.4</ele>
        <time>2021-10-08T08:40:56Z</time>
      </trkpt>
      <trkpt lat="44.91737" lon="5.32527">
        <ele>1325</ele>
        <time>2021-10-08T08:40:57Z</time>
      </trkpt>
      <trkpt lat="44.91735" lon="5.32528">
        <ele>1325.2</ele>
        <time>2021-10-08T08:40:58Z</time>
      </trkpt>
      <trkpt lat="44.91733" lon="5.32528">
        <ele>1325.2</ele>
        <time>2021-10-08T08:40:59Z</time>
      </trkpt>
      <trkpt lat="44.91731" lon="5.32528">
        <ele>1325.2</ele>
        <time>2021-10-08T08:41:00Z</time>
      </trkpt>
      <trkpt lat="44.91729" lon="5.32529">
        <ele>1325.2</ele>
        <time>2021-10-08T08:41:01Z</time>
      </trkpt>
      <trkpt lat="44.91727" lon="5.32529">
        <ele>1325.6</ele>
        <time>2021-10-08T08:41:02Z</time>
      </trkpt>
      <trkpt lat="44.91725" lon="5.32529">
        <ele>1325.6</ele>
        <time>2021-10-08T08:41:03Z</time>
      </trkpt>
      <trkpt lat="44.91723" lon="5.32529">
        <ele>1325.6</ele>
        <time>2021-10-08T08:41:04Z</time>
      </trkpt>
      <trkpt lat="44.91721" lon="5.32528">
        <ele>1325.8</ele>
        <time>2021-10-08T08:41:05Z</time>
      </trkpt>
      <trkpt lat="44.91719" lon="5.32528">
        <ele>1326</ele>
        <time>2021-10-08T08:41:06Z</time>
      </trkpt>
      <trkpt lat="44.91717" lon="5.32527">
        <ele>1326</ele>
        <time>2021-10-08T08:41:07Z</time>
      </trkpt>
      <trkpt lat="44.91715" lon="5.32526">
        <ele>1326</ele>
        <time>2021-10-08T08:41:08Z</time>
      </trkpt>
      <trkpt lat="44.91713" lon="5.32525">
        <ele>1326.6</ele>
        <time>2021-10-08T08:41:09Z</time>
      </trkpt>
      <trkpt lat="44.91712" lon="5.32524">
        <ele>1326.8</ele>
        <time>2021-10-08T08:41:10Z</time>
      </trkpt>
      <trkpt lat="44.9171" lon="5.32523">
        <ele>1326.8</ele>
        <time>2021-10-08T08:41:11Z</time>
      </trkpt>
      <trkpt lat="44.91708" lon="5.32521">
        <ele>1326.8</ele>
        <time>2021-10-08T08:41:12Z</time>
      </trkpt>
      <trkpt lat="44.91707" lon="5.3252">
        <ele>1327.4</ele>
        <time>2021-10-08T08:41:13Z</time>
      </trkpt>
      <trkpt lat="44.91705" lon="5.32519">
        <ele>1327.2</ele>
        <time>2021-10-08T08:41:14Z</time>
      </trkpt>
      <trkpt lat="44.91704" lon="5.32517">
        <ele>1327.2</ele>
        <time>2021-10-08T08:41:15Z</time>
      </trkpt>
      <trkpt lat="44.91703" lon="5.32516">
        <ele>1327.2</ele>
        <time>2021-10-08T08:41:16Z</time>
      </trkpt>
      <trkpt lat="44.91701" lon="5.32515">
        <ele>1327.8</ele>
        <time>2021-10-08T08:41:17Z</time>
      </trkpt>
      <trkpt lat="44.91699" lon="5.32513">
        <ele>1328.2</ele>
        <time>2021-10-08T08:41:18Z</time>
      </trkpt>
      <trkpt lat="44.91697" lon="5.32512">
        <ele>1328.2</ele>
        <time>2021-10-08T08:41:19Z</time>
      </trkpt>
      <trkpt lat="44.91696" lon="5.3251">
        <ele>1328.2</ele>
        <time>2021-10-08T08:41:20Z</time>
      </trkpt>
      <trkpt lat="44.91694" lon="5.32508">
        <ele>1328.2</ele>
        <time>2021-10-08T08:41:21Z</time>
      </trkpt>
      <trkpt lat="44.91692" lon="5.32507">
        <ele>1328.2</ele>
        <time>2021-10-08T08:41:22Z</time>
      </trkpt>
      <trkpt lat="44.91691" lon="5.32505">
        <ele>1328.6</ele>
        <time>2021-10-08T08:41:23Z</time>
      </trkpt>
      <trkpt lat="44.91689" lon="5.32504">
        <ele>1328.6</ele>
        <time>2021-10-08T08:41:24Z</time>
      </trkpt>
      <trkpt lat="44.91687" lon="5.32503">
        <ele>1328.6</ele>
        <time>2021-10-08T08:41:25Z</time>
      </trkpt>
      <trkpt lat="44.91685" lon="5.32502">
        <ele>1329</ele>
        <time>2021-10-08T08:41:26Z</time>
      </trkpt>
      <trkpt lat="44.91683" lon="5.32501">
        <ele>1329</ele>
        <time>2021-10-08T08:41:27Z</time>
      </trkpt>
      <trkpt lat="44.91681" lon="5.325">
        <ele>1329</ele>
        <time>2021-10-08T08:41:28Z</time>
      </trkpt>
      <trkpt lat="44.9168" lon="5.32499">
        <ele>1330</ele>
        <time>2021-10-08T08:41:29Z</time>
      </trkpt>
      <trkpt lat="44.91678" lon="5.32498">
        <ele>1330</ele>
        <time>2021-10-08T08:41:30Z</time>
      </trkpt>
      <trkpt lat="44.91676" lon="5.32497">
        <ele>1330</ele>
        <time>2021-10-08T08:41:31Z</time>
      </trkpt>
      <trkpt lat="44.91674" lon="5.32496">
        <ele>1330</ele>
        <time>2021-10-08T08:41:32Z</time>
      </trkpt>
      <trkpt lat="44.91672" lon="5.32495">
        <ele>1330</ele>
        <time>2021-10-08T08:41:33Z</time>
      </trkpt>
      <trkpt lat="44.9167" lon="5.32494">
        <ele>1330.4</ele>
        <time>2021-10-08T08:41:34Z</time>
      </trkpt>
      <trkpt lat="44.91668" lon="5.32493">
        <ele>1330.4</ele>
        <time>2021-10-08T08:41:35Z</time>
      </trkpt>
      <trkpt lat="44.91667" lon="5.32492">
        <ele>1330.4</ele>
        <time>2021-10-08T08:41:36Z</time>
      </trkpt>
      <trkpt lat="44.91665" lon="5.32491">
        <ele>1331</ele>
        <time>2021-10-08T08:41:37Z</time>
      </trkpt>
      <trkpt lat="44.91664" lon="5.3249">
        <ele>1331</ele>
        <time>2021-10-08T08:41:38Z</time>
      </trkpt>
      <trkpt lat="44.91662" lon="5.3249">
        <ele>1331</ele>
        <time>2021-10-08T08:41:39Z</time>
      </trkpt>
      <trkpt lat="44.9166" lon="5.32489">
        <ele>1331</ele>
        <time>2021-10-08T08:41:40Z</time>
      </trkpt>
      <trkpt lat="44.91658" lon="5.32488">
        <ele>1331.2</ele>
        <time>2021-10-08T08:41:41Z</time>
      </trkpt>
      <trkpt lat="44.91657" lon="5.32488">
        <ele>1331.2</ele>
        <time>2021-10-08T08:41:42Z</time>
      </trkpt>
      <trkpt lat="44.91655" lon="5.32487">
        <ele>1331.2</ele>
        <time>2021-10-08T08:41:43Z</time>
      </trkpt>
      <trkpt lat="44.91653" lon="5.32486">
        <ele>1331.2</ele>
        <time>2021-10-08T08:41:44Z</time>
      </trkpt>
      <trkpt lat="44.91651" lon="5.32486">
        <ele>1331.6</ele>
        <time>2021-10-08T08:41:45Z</time>
      </trkpt>
      <trkpt lat="44.91649" lon="5.32485">
        <ele>1332</ele>
        <time>2021-10-08T08:41:46Z</time>
      </trkpt>
      <trkpt lat="44.91647" lon="5.32485">
        <ele>1332</ele>
        <time>2021-10-08T08:41:47Z</time>
      </trkpt>
      <trkpt lat="44.91646" lon="5.32484">
        <ele>1332</ele>
        <time>2021-10-08T08:41:48Z</time>
      </trkpt>
      <trkpt lat="44.91644" lon="5.32483">
        <ele>1332</ele>
        <time>2021-10-08T08:41:49Z</time>
      </trkpt>
      <trkpt lat="44.91643" lon="5.32483">
        <ele>1332.6</ele>
        <time>2021-10-08T08:41:50Z</time>
      </trkpt>
      <trkpt lat="44.91641" lon="5.32482">
        <ele>1332.6</ele>
        <time>2021-10-08T08:41:51Z</time>
      </trkpt>
      <trkpt lat="44.91639" lon="5.32482">
        <ele>1332.6</ele>
        <time>2021-10-08T08:41:52Z</time>
      </trkpt>
      <trkpt lat="44.91637" lon="5.32481">
        <ele>1332.6</ele>
        <time>2021-10-08T08:41:53Z</time>
      </trkpt>
      <trkpt lat="44.91636" lon="5.32481">
        <ele>1333</ele>
        <time>2021-10-08T08:41:54Z</time>
      </trkpt>
      <trkpt lat="44.91634" lon="5.32481">
        <ele>1333</ele>
        <time>2021-10-08T08:41:55Z</time>
      </trkpt>
      <trkpt lat="44.91632" lon="5.32481">
        <ele>1333</ele>
        <time>2021-10-08T08:41:56Z</time>
      </trkpt>
      <trkpt lat="44.91631" lon="5.3248">
        <ele>1333.8</ele>
        <time>2021-10-08T08:41:57Z</time>
      </trkpt>
      <trkpt lat="44.91629" lon="5.3248">
        <ele>1333.8</ele>
        <time>2021-10-08T08:41:58Z</time>
      </trkpt>
      <trkpt lat="44.91628" lon="5.3248">
        <ele>1333.8</ele>
        <time>2021-10-08T08:41:59Z</time>
      </trkpt>
      <trkpt lat="44.91627" lon="5.32479">
        <ele>1333.8</ele>
        <time>2021-10-08T08:42:00Z</time>
      </trkpt>
      <trkpt lat="44.91626" lon="5.32479">
        <ele>1334.2</ele>
        <time>2021-10-08T08:42:01Z</time>
      </trkpt>
      <trkpt lat="44.91625" lon="5.32479">
        <ele>1334.4</ele>
        <time>2021-10-08T08:42:02Z</time>
      </trkpt>
      <trkpt lat="44.91624" lon="5.32479">
        <ele>1334.4</ele>
        <time>2021-10-08T08:42:03Z</time>
      </trkpt>
      <trkpt lat="44.91623" lon="5.32479">
        <ele>1334.4</ele>
        <time>2021-10-08T08:42:04Z</time>
      </trkpt>
      <trkpt lat="44.91623" lon="5.32479">
        <ele>1334.4</ele>
        <time>2021-10-08T08:42:05Z</time>
      </trkpt>
      <trkpt lat="44.91621" lon="5.32478">
        <ele>1334.2</ele>
        <time>2021-10-08T08:42:06Z</time>
      </trkpt>
      <trkpt lat="44.91616" lon="5.32483">
        <ele>1334.8</ele>
        <time>2021-10-08T08:42:59Z</time>
      </trkpt>
      <trkpt lat="44.91614" lon="5.32482">
        <ele>1334.8</ele>
        <time>2021-10-08T08:43:00Z</time>
      </trkpt>
      <trkpt lat="44.91612" lon="5.32482">
        <ele>1334.8</ele>
        <time>2021-10-08T08:43:01Z</time>
      </trkpt>
      <trkpt lat="44.9161" lon="5.32482">
        <ele>1335</ele>
        <time>2021-10-08T08:43:02Z</time>
      </trkpt>
      <trkpt lat="44.91608" lon="5.32483">
        <ele>1335</ele>
        <time>2021-10-08T08:43:03Z</time>
      </trkpt>
      <trkpt lat="44.91606" lon="5.32484">
        <ele>1335</ele>
        <time>2021-10-08T08:43:04Z</time>
      </trkpt>
      <trkpt lat="44.91603" lon="5.32485">
        <ele>1335</ele>
        <time>2021-10-08T08:43:05Z</time>
      </trkpt>
      <trkpt lat="44.91601" lon="5.32486">
        <ele>1335.4</ele>
        <time>2021-10-08T08:43:06Z</time>
      </trkpt>
      <trkpt lat="44.91599" lon="5.32487">
        <ele>1335.4</ele>
        <time>2021-10-08T08:43:07Z</time>
      </trkpt>
      <trkpt lat="44.91597" lon="5.32488">
        <ele>1335.4</ele>
        <time>2021-10-08T08:43:08Z</time>
      </trkpt>
      <trkpt lat="44.91594" lon="5.32489">
        <ele>1336.4</ele>
        <time>2021-10-08T08:43:09Z</time>
      </trkpt>
      <trkpt lat="44.91592" lon="5.3249">
        <ele>1336.4</ele>
        <time>2021-10-08T08:43:10Z</time>
      </trkpt>
      <trkpt lat="44.9159" lon="5.32491">
        <ele>1336.4</ele>
        <time>2021-10-08T08:43:11Z</time>
      </trkpt>
      <trkpt lat="44.91587" lon="5.32492">
        <ele>1336.4</ele>
        <time>2021-10-08T08:43:12Z</time>
      </trkpt>
      <trkpt lat="44.91585" lon="5.32493">
        <ele>1336.4</ele>
        <time>2021-10-08T08:43:13Z</time>
      </trkpt>
      <trkpt lat="44.91583" lon="5.32495">
        <ele>1337.2</ele>
        <time>2021-10-08T08:43:14Z</time>
      </trkpt>
      <trkpt lat="44.91581" lon="5.32496">
        <ele>1337.2</ele>
        <time>2021-10-08T08:43:15Z</time>
      </trkpt>
      <trkpt lat="44.91579" lon="5.32497">
        <ele>1337.2</ele>
        <time>2021-10-08T08:43:16Z</time>
      </trkpt>
      <trkpt lat="44.91577" lon="5.32499">
        <ele>1337.2</ele>
        <time>2021-10-08T08:43:17Z</time>
      </trkpt>
      <trkpt lat="44.91575" lon="5.32499">
        <ele>1337.8</ele>
        <time>2021-10-08T08:43:18Z</time>
      </trkpt>
      <trkpt lat="44.91573" lon="5.325">
        <ele>1337.8</ele>
        <time>2021-10-08T08:43:19Z</time>
      </trkpt>
      <trkpt lat="44.91571" lon="5.32501">
        <ele>1337.8</ele>
        <time>2021-10-08T08:43:20Z</time>
      </trkpt>
      <trkpt lat="44.91569" lon="5.32503">
        <ele>1338.8</ele>
        <time>2021-10-08T08:43:21Z</time>
      </trkpt>
      <trkpt lat="44.91566" lon="5.32504">
        <ele>1339</ele>
        <time>2021-10-08T08:43:22Z</time>
      </trkpt>
      <trkpt lat="44.91564" lon="5.32505">
        <ele>1339</ele>
        <time>2021-10-08T08:43:23Z</time>
      </trkpt>
      <trkpt lat="44.91563" lon="5.32506">
        <ele>1339</ele>
        <time>2021-10-08T08:43:24Z</time>
      </trkpt>
      <trkpt lat="44.9156" lon="5.32506">
        <ele>1339</ele>
        <time>2021-10-08T08:43:25Z</time>
      </trkpt>
      <trkpt lat="44.91558" lon="5.32508">
        <ele>1338.8</ele>
        <time>2021-10-08T08:43:26Z</time>
      </trkpt>
      <trkpt lat="44.91556" lon="5.32508">
        <ele>1338.8</ele>
        <time>2021-10-08T08:43:27Z</time>
      </trkpt>
      <trkpt lat="44.91553" lon="5.32509">
        <ele>1338.8</ele>
        <time>2021-10-08T08:43:28Z</time>
      </trkpt>
      <trkpt lat="44.91551" lon="5.32511">
        <ele>1339.8</ele>
        <time>2021-10-08T08:43:29Z</time>
      </trkpt>
      <trkpt lat="44.91549" lon="5.32512">
        <ele>1339.8</ele>
        <time>2021-10-08T08:43:30Z</time>
      </trkpt>
      <trkpt lat="44.91547" lon="5.32513">
        <ele>1339.8</ele>
        <time>2021-10-08T08:43:31Z</time>
      </trkpt>
      <trkpt lat="44.91545" lon="5.32514">
        <ele>1339.8</ele>
        <time>2021-10-08T08:43:32Z</time>
      </trkpt>
      <trkpt lat="44.91543" lon="5.32514">
        <ele>1339.8</ele>
        <time>2021-10-08T08:43:33Z</time>
      </trkpt>
      <trkpt lat="44.9154" lon="5.32515">
        <ele>1340.4</ele>
        <time>2021-10-08T08:43:34Z</time>
      </trkpt>
      <trkpt lat="44.91538" lon="5.32516">
        <ele>1340.4</ele>
        <time>2021-10-08T08:43:35Z</time>
      </trkpt>
      <trkpt lat="44.91535" lon="5.32517">
        <ele>1340.4</ele>
        <time>2021-10-08T08:43:36Z</time>
      </trkpt>
      <trkpt lat="44.91533" lon="5.32517">
        <ele>1341</ele>
        <time>2021-10-08T08:43:37Z</time>
      </trkpt>
      <trkpt lat="44.9153" lon="5.32518">
        <ele>1341.2</ele>
        <time>2021-10-08T08:43:38Z</time>
      </trkpt>
      <trkpt lat="44.91528" lon="5.32519">
        <ele>1341.2</ele>
        <time>2021-10-08T08:43:39Z</time>
      </trkpt>
      <trkpt lat="44.91525" lon="5.3252">
        <ele>1341.2</ele>
        <time>2021-10-08T08:43:40Z</time>
      </trkpt>
      <trkpt lat="44.91523" lon="5.3252">
        <ele>1341.2</ele>
        <time>2021-10-08T08:43:41Z</time>
      </trkpt>
      <trkpt lat="44.91521" lon="5.32521">
        <ele>1341.6</ele>
        <time>2021-10-08T08:43:42Z</time>
      </trkpt>
      <trkpt lat="44.91518" lon="5.32522">
        <ele>1341.6</ele>
        <time>2021-10-08T08:43:43Z</time>
      </trkpt>
      <trkpt lat="44.91516" lon="5.32523">
        <ele>1341.6</ele>
        <time>2021-10-08T08:43:44Z</time>
      </trkpt>
      <trkpt lat="44.91514" lon="5.32524">
        <ele>1342.6</ele>
        <time>2021-10-08T08:43:45Z</time>
      </trkpt>
      <trkpt lat="44.91511" lon="5.32524">
        <ele>1342.6</ele>
        <time>2021-10-08T08:43:46Z</time>
      </trkpt>
      <trkpt lat="44.91509" lon="5.32525">
        <ele>1342.4</ele>
        <time>2021-10-08T08:43:47Z</time>
      </trkpt>
      <trkpt lat="44.91506" lon="5.32526">
        <ele>1342.4</ele>
        <time>2021-10-08T08:43:48Z</time>
      </trkpt>
      <trkpt lat="44.91504" lon="5.32526">
        <ele>1342.4</ele>
        <time>2021-10-08T08:43:49Z</time>
      </trkpt>
      <trkpt lat="44.91501" lon="5.32527">
        <ele>1342.6</ele>
        <time>2021-10-08T08:43:50Z</time>
      </trkpt>
      <trkpt lat="44.91499" lon="5.32528">
        <ele>1342.6</ele>
        <time>2021-10-08T08:43:51Z</time>
      </trkpt>
      <trkpt lat="44.91497" lon="5.32528">
        <ele>1342.6</ele>
        <time>2021-10-08T08:43:52Z</time>
      </trkpt>
      <trkpt lat="44.91494" lon="5.32529">
        <ele>1343.2</ele>
        <time>2021-10-08T08:43:53Z</time>
      </trkpt>
      <trkpt lat="44.91492" lon="5.32529">
        <ele>1343.8</ele>
        <time>2021-10-08T08:43:54Z</time>
      </trkpt>
      <trkpt lat="44.91489" lon="5.3253">
        <ele>1343.8</ele>
        <time>2021-10-08T08:43:55Z</time>
      </trkpt>
      <trkpt lat="44.91487" lon="5.3253">
        <ele>1343.8</ele>
        <time>2021-10-08T08:43:56Z</time>
      </trkpt>
      <trkpt lat="44.91485" lon="5.32531">
        <ele>1343.8</ele>
        <time>2021-10-08T08:43:57Z</time>
      </trkpt>
      <trkpt lat="44.91483" lon="5.32532">
        <ele>1344</ele>
        <time>2021-10-08T08:43:58Z</time>
      </trkpt>
      <trkpt lat="44.9148" lon="5.32533">
        <ele>1344</ele>
        <time>2021-10-08T08:43:59Z</time>
      </trkpt>
      <trkpt lat="44.91478" lon="5.32533">
        <ele>1344</ele>
        <time>2021-10-08T08:44:00Z</time>
      </trkpt>
      <trkpt lat="44.91475" lon="5.32534">
        <ele>1344.6</ele>
        <time>2021-10-08T08:44:01Z</time>
      </trkpt>
      <trkpt lat="44.91473" lon="5.32535">
        <ele>1344.4</ele>
        <time>2021-10-08T08:44:02Z</time>
      </trkpt>
      <trkpt lat="44.91471" lon="5.32535">
        <ele>1344.4</ele>
        <time>2021-10-08T08:44:03Z</time>
      </trkpt>
      <trkpt lat="44.91468" lon="5.32536">
        <ele>1344.4</ele>
        <time>2021-10-08T08:44:04Z</time>
      </trkpt>
      <trkpt lat="44.91466" lon="5.32537">
        <ele>1345.4</ele>
        <time>2021-10-08T08:44:05Z</time>
      </trkpt>
      <trkpt lat="44.91463" lon="5.32538">
        <ele>1345.8</ele>
        <time>2021-10-08T08:44:06Z</time>
      </trkpt>
      <trkpt lat="44.91461" lon="5.32539">
        <ele>1345.8</ele>
        <time>2021-10-08T08:44:07Z</time>
      </trkpt>
      <trkpt lat="44.91458" lon="5.32539">
        <ele>1345.8</ele>
        <time>2021-10-08T08:44:08Z</time>
      </trkpt>
      <trkpt lat="44.91456" lon="5.3254">
        <ele>1345.8</ele>
        <time>2021-10-08T08:44:09Z</time>
      </trkpt>
      <trkpt lat="44.91453" lon="5.3254">
        <ele>1345.8</ele>
        <time>2021-10-08T08:44:10Z</time>
      </trkpt>
      <trkpt lat="44.91451" lon="5.32541">
        <ele>1345.8</ele>
        <time>2021-10-08T08:44:11Z</time>
      </trkpt>
      <trkpt lat="44.91448" lon="5.32541">
        <ele>1345.8</ele>
        <time>2021-10-08T08:44:12Z</time>
      </trkpt>
      <trkpt lat="44.91446" lon="5.32542">
        <ele>1345.8</ele>
        <time>2021-10-08T08:44:13Z</time>
      </trkpt>
      <trkpt lat="44.91443" lon="5.32542">
        <ele>1346.4</ele>
        <time>2021-10-08T08:44:14Z</time>
      </trkpt>
      <trkpt lat="44.91441" lon="5.32543">
        <ele>1346.4</ele>
        <time>2021-10-08T08:44:15Z</time>
      </trkpt>
      <trkpt lat="44.91439" lon="5.32543">
        <ele>1346.4</ele>
        <time>2021-10-08T08:44:16Z</time>
      </trkpt>
      <trkpt lat="44.91436" lon="5.32543">
        <ele>1347.2</ele>
        <time>2021-10-08T08:44:17Z</time>
      </trkpt>
      <trkpt lat="44.91434" lon="5.32544">
        <ele>1348</ele>
        <time>2021-10-08T08:44:18Z</time>
      </trkpt>
      <trkpt lat="44.91432" lon="5.32544">
        <ele>1348</ele>
        <time>2021-10-08T08:44:19Z</time>
      </trkpt>
      <trkpt lat="44.9143" lon="5.32545">
        <ele>1348</ele>
        <time>2021-10-08T08:44:20Z</time>
      </trkpt>
      <trkpt lat="44.91427" lon="5.32545">
        <ele>1348</ele>
        <time>2021-10-08T08:44:21Z</time>
      </trkpt>
      <trkpt lat="44.91425" lon="5.32545">
        <ele>1348.2</ele>
        <time>2021-10-08T08:44:22Z</time>
      </trkpt>
      <trkpt lat="44.91423" lon="5.32545">
        <ele>1348.2</ele>
        <time>2021-10-08T08:44:23Z</time>
      </trkpt>
      <trkpt lat="44.91421" lon="5.32546">
        <ele>1348.2</ele>
        <time>2021-10-08T08:44:24Z</time>
      </trkpt>
      <trkpt lat="44.91419" lon="5.32546">
        <ele>1348.2</ele>
        <time>2021-10-08T08:44:25Z</time>
      </trkpt>
      <trkpt lat="44.91416" lon="5.32546">
        <ele>1348.8</ele>
        <time>2021-10-08T08:44:26Z</time>
      </trkpt>
      <trkpt lat="44.91414" lon="5.32546">
        <ele>1348.8</ele>
        <time>2021-10-08T08:44:27Z</time>
      </trkpt>
      <trkpt lat="44.91412" lon="5.32546">
        <ele>1348.8</ele>
        <time>2021-10-08T08:44:28Z</time>
      </trkpt>
      <trkpt lat="44.91409" lon="5.32545">
        <ele>1349.6</ele>
        <time>2021-10-08T08:44:29Z</time>
      </trkpt>
      <trkpt lat="44.91407" lon="5.32545">
        <ele>1350</ele>
        <time>2021-10-08T08:44:30Z</time>
      </trkpt>
      <trkpt lat="44.91404" lon="5.32544">
        <ele>1350</ele>
        <time>2021-10-08T08:44:31Z</time>
      </trkpt>
      <trkpt lat="44.91402" lon="5.32543">
        <ele>1350</ele>
        <time>2021-10-08T08:44:32Z</time>
      </trkpt>
      <trkpt lat="44.914" lon="5.32542">
        <ele>1350.2</ele>
        <time>2021-10-08T08:44:33Z</time>
      </trkpt>
      <trkpt lat="44.91398" lon="5.32541">
        <ele>1351</ele>
        <time>2021-10-08T08:44:34Z</time>
      </trkpt>
      <trkpt lat="44.91395" lon="5.3254">
        <ele>1351</ele>
        <time>2021-10-08T08:44:35Z</time>
      </trkpt>
      <trkpt lat="44.91393" lon="5.32539">
        <ele>1351</ele>
        <time>2021-10-08T08:44:36Z</time>
      </trkpt>
      <trkpt lat="44.91391" lon="5.32538">
        <ele>1351</ele>
        <time>2021-10-08T08:44:37Z</time>
      </trkpt>
      <trkpt lat="44.91389" lon="5.32537">
        <ele>1351.2</ele>
        <time>2021-10-08T08:44:38Z</time>
      </trkpt>
      <trkpt lat="44.91387" lon="5.32536">
        <ele>1351.2</ele>
        <time>2021-10-08T08:44:39Z</time>
      </trkpt>
      <trkpt lat="44.91384" lon="5.32535">
        <ele>1351.2</ele>
        <time>2021-10-08T08:44:40Z</time>
      </trkpt>
      <trkpt lat="44.91382" lon="5.32534">
        <ele>1351.2</ele>
        <time>2021-10-08T08:44:41Z</time>
      </trkpt>
      <trkpt lat="44.9138" lon="5.32533">
        <ele>1351.8</ele>
        <time>2021-10-08T08:44:42Z</time>
      </trkpt>
      <trkpt lat="44.91378" lon="5.32532">
        <ele>1351.8</ele>
        <time>2021-10-08T08:44:43Z</time>
      </trkpt>
      <trkpt lat="44.91376" lon="5.32531">
        <ele>1351.8</ele>
        <time>2021-10-08T08:44:44Z</time>
      </trkpt>
      <trkpt lat="44.91374" lon="5.32531">
        <ele>1352.8</ele>
        <time>2021-10-08T08:44:45Z</time>
      </trkpt>
      <trkpt lat="44.91371" lon="5.3253">
        <ele>1352.6</ele>
        <time>2021-10-08T08:44:46Z</time>
      </trkpt>
      <trkpt lat="44.91369" lon="5.32529">
        <ele>1352.6</ele>
        <time>2021-10-08T08:44:47Z</time>
      </trkpt>
      <trkpt lat="44.91367" lon="5.32528">
        <ele>1352.6</ele>
        <time>2021-10-08T08:44:48Z</time>
      </trkpt>
      <trkpt lat="44.91365" lon="5.32527">
        <ele>1353.2</ele>
        <time>2021-10-08T08:44:49Z</time>
      </trkpt>
      <trkpt lat="44.91362" lon="5.32526">
        <ele>1353.2</ele>
        <time>2021-10-08T08:44:50Z</time>
      </trkpt>
      <trkpt lat="44.9136" lon="5.32525">
        <ele>1353.2</ele>
        <time>2021-10-08T08:44:51Z</time>
      </trkpt>
      <trkpt lat="44.91358" lon="5.32524">
        <ele>1353.2</ele>
        <time>2021-10-08T08:44:52Z</time>
      </trkpt>
      <trkpt lat="44.91355" lon="5.32523">
        <ele>1353.6</ele>
        <time>2021-10-08T08:44:53Z</time>
      </trkpt>
      <trkpt lat="44.91353" lon="5.32523">
        <ele>1353.8</ele>
        <time>2021-10-08T08:44:54Z</time>
      </trkpt>
      <trkpt lat="44.91351" lon="5.32522">
        <ele>1353.8</ele>
        <time>2021-10-08T08:44:55Z</time>
      </trkpt>
      <trkpt lat="44.91348" lon="5.32521">
        <ele>1353.8</ele>
        <time>2021-10-08T08:44:56Z</time>
      </trkpt>
      <trkpt lat="44.91346" lon="5.3252">
        <ele>1354.4</ele>
        <time>2021-10-08T08:44:57Z</time>
      </trkpt>
      <trkpt lat="44.91344" lon="5.32519">
        <ele>1354.6</ele>
        <time>2021-10-08T08:44:58Z</time>
      </trkpt>
      <trkpt lat="44.91341" lon="5.32518">
        <ele>1354.6</ele>
        <time>2021-10-08T08:44:59Z</time>
      </trkpt>
      <trkpt lat="44.91339" lon="5.32517">
        <ele>1354.6</ele>
        <time>2021-10-08T08:45:00Z</time>
      </trkpt>
      <trkpt lat="44.91337" lon="5.32516">
        <ele>1355.4</ele>
        <time>2021-10-08T08:45:01Z</time>
      </trkpt>
      <trkpt lat="44.91334" lon="5.32516">
        <ele>1355.4</ele>
        <time>2021-10-08T08:45:02Z</time>
      </trkpt>
      <trkpt lat="44.91332" lon="5.32515">
        <ele>1355.4</ele>
        <time>2021-10-08T08:45:03Z</time>
      </trkpt>
      <trkpt lat="44.91329" lon="5.32514">
        <ele>1355.4</ele>
        <time>2021-10-08T08:45:04Z</time>
      </trkpt>
      <trkpt lat="44.91327" lon="5.32514">
        <ele>1355.4</ele>
        <time>2021-10-08T08:45:05Z</time>
      </trkpt>
      <trkpt lat="44.91324" lon="5.32513">
        <ele>1356.2</ele>
        <time>2021-10-08T08:45:06Z</time>
      </trkpt>
      <trkpt lat="44.91322" lon="5.32513">
        <ele>1356.2</ele>
        <time>2021-10-08T08:45:07Z</time>
      </trkpt>
      <trkpt lat="44.91319" lon="5.32512">
        <ele>1356.2</ele>
        <time>2021-10-08T08:45:08Z</time>
      </trkpt>
      <trkpt lat="44.91316" lon="5.32512">
        <ele>1356.6</ele>
        <time>2021-10-08T08:45:09Z</time>
      </trkpt>
      <trkpt lat="44.91313" lon="5.32512">
        <ele>1356.8</ele>
        <time>2021-10-08T08:45:10Z</time>
      </trkpt>
      <trkpt lat="44.91311" lon="5.32512">
        <ele>1356.8</ele>
        <time>2021-10-08T08:45:11Z</time>
      </trkpt>
      <trkpt lat="44.91308" lon="5.32512">
        <ele>1356.8</ele>
        <time>2021-10-08T08:45:12Z</time>
      </trkpt>
      <trkpt lat="44.91306" lon="5.32512">
        <ele>1357.4</ele>
        <time>2021-10-08T08:45:13Z</time>
      </trkpt>
      <trkpt lat="44.91303" lon="5.32512">
        <ele>1357.8</ele>
        <time>2021-10-08T08:45:14Z</time>
      </trkpt>
      <trkpt lat="44.91301" lon="5.32513">
        <ele>1357.8</ele>
        <time>2021-10-08T08:45:15Z</time>
      </trkpt>
      <trkpt lat="44.91298" lon="5.32513">
        <ele>1357.8</ele>
        <time>2021-10-08T08:45:16Z</time>
      </trkpt>
      <trkpt lat="44.91296" lon="5.32513">
        <ele>1357.8</ele>
        <time>2021-10-08T08:45:17Z</time>
      </trkpt>
      <trkpt lat="44.91293" lon="5.32514">
        <ele>1358.4</ele>
        <time>2021-10-08T08:45:18Z</time>
      </trkpt>
      <trkpt lat="44.91291" lon="5.32515">
        <ele>1358.4</ele>
        <time>2021-10-08T08:45:19Z</time>
      </trkpt>
      <trkpt lat="44.91288" lon="5.32515">
        <ele>1358.4</ele>
        <time>2021-10-08T08:45:20Z</time>
      </trkpt>
      <trkpt lat="44.91286" lon="5.32515">
        <ele>1358.8</ele>
        <time>2021-10-08T08:45:21Z</time>
      </trkpt>
      <trkpt lat="44.91284" lon="5.32516">
        <ele>1359</ele>
        <time>2021-10-08T08:45:22Z</time>
      </trkpt>
      <trkpt lat="44.91282" lon="5.32517">
        <ele>1359</ele>
        <time>2021-10-08T08:45:23Z</time>
      </trkpt>
      <trkpt lat="44.9128" lon="5.32517">
        <ele>1359</ele>
        <time>2021-10-08T08:45:24Z</time>
      </trkpt>
      <trkpt lat="44.91277" lon="5.32518">
        <ele>1359</ele>
        <time>2021-10-08T08:45:25Z</time>
      </trkpt>
      <trkpt lat="44.91275" lon="5.32518">
        <ele>1359.2</ele>
        <time>2021-10-08T08:45:26Z</time>
      </trkpt>
      <trkpt lat="44.91273" lon="5.32518">
        <ele>1359.2</ele>
        <time>2021-10-08T08:45:27Z</time>
      </trkpt>
      <trkpt lat="44.91271" lon="5.32519">
        <ele>1359.2</ele>
        <time>2021-10-08T08:45:28Z</time>
      </trkpt>
      <trkpt lat="44.91268" lon="5.32519">
        <ele>1360.2</ele>
        <time>2021-10-08T08:45:29Z</time>
      </trkpt>
      <trkpt lat="44.91266" lon="5.3252">
        <ele>1360</ele>
        <time>2021-10-08T08:45:30Z</time>
      </trkpt>
      <trkpt lat="44.91264" lon="5.3252">
        <ele>1360</ele>
        <time>2021-10-08T08:45:31Z</time>
      </trkpt>
      <trkpt lat="44.91261" lon="5.3252">
        <ele>1360</ele>
        <time>2021-10-08T08:45:32Z</time>
      </trkpt>
      <trkpt lat="44.91259" lon="5.3252">
        <ele>1360.6</ele>
        <time>2021-10-08T08:45:33Z</time>
      </trkpt>
      <trkpt lat="44.91257" lon="5.3252">
        <ele>1360.8</ele>
        <time>2021-10-08T08:45:34Z</time>
      </trkpt>
      <trkpt lat="44.91254" lon="5.3252">
        <ele>1360.8</ele>
        <time>2021-10-08T08:45:35Z</time>
      </trkpt>
      <trkpt lat="44.91252" lon="5.3252">
        <ele>1360.8</ele>
        <time>2021-10-08T08:45:36Z</time>
      </trkpt>
      <trkpt lat="44.9125" lon="5.3252">
        <ele>1360.8</ele>
        <time>2021-10-08T08:45:37Z</time>
      </trkpt>
      <trkpt lat="44.91247" lon="5.3252">
        <ele>1361.4</ele>
        <time>2021-10-08T08:45:38Z</time>
      </trkpt>
      <trkpt lat="44.91245" lon="5.3252">
        <ele>1361.4</ele>
        <time>2021-10-08T08:45:39Z</time>
      </trkpt>
      <trkpt lat="44.91243" lon="5.32521">
        <ele>1361.4</ele>
        <time>2021-10-08T08:45:40Z</time>
      </trkpt>
      <trkpt lat="44.9124" lon="5.3252">
        <ele>1362.4</ele>
        <time>2021-10-08T08:45:41Z</time>
      </trkpt>
      <trkpt lat="44.91238" lon="5.32521">
        <ele>1362</ele>
        <time>2021-10-08T08:45:42Z</time>
      </trkpt>
      <trkpt lat="44.91236" lon="5.32521">
        <ele>1362</ele>
        <time>2021-10-08T08:45:43Z</time>
      </trkpt>
      <trkpt lat="44.91234" lon="5.32521">
        <ele>1362</ele>
        <time>2021-10-08T08:45:44Z</time>
      </trkpt>
      <trkpt lat="44.91232" lon="5.32521">
        <ele>1362.4</ele>
        <time>2021-10-08T08:45:45Z</time>
      </trkpt>
      <trkpt lat="44.91229" lon="5.32521">
        <ele>1362.6</ele>
        <time>2021-10-08T08:45:46Z</time>
      </trkpt>
      <trkpt lat="44.91227" lon="5.32521">
        <ele>1362.6</ele>
        <time>2021-10-08T08:45:47Z</time>
      </trkpt>
      <trkpt lat="44.91225" lon="5.32521">
        <ele>1362.6</ele>
        <time>2021-10-08T08:45:48Z</time>
      </trkpt>
      <trkpt lat="44.91223" lon="5.32521">
        <ele>1363.2</ele>
        <time>2021-10-08T08:45:49Z</time>
      </trkpt>
      <trkpt lat="44.9122" lon="5.32521">
        <ele>1363.4</ele>
        <time>2021-10-08T08:45:50Z</time>
      </trkpt>
      <trkpt lat="44.91218" lon="5.32521">
        <ele>1363.4</ele>
        <time>2021-10-08T08:45:51Z</time>
      </trkpt>
      <trkpt lat="44.91216" lon="5.32521">
        <ele>1363.4</ele>
        <time>2021-10-08T08:45:52Z</time>
      </trkpt>
      <trkpt lat="44.91214" lon="5.32521">
        <ele>1363.4</ele>
        <time>2021-10-08T08:45:53Z</time>
      </trkpt>
      <trkpt lat="44.91212" lon="5.32521">
        <ele>1364</ele>
        <time>2021-10-08T08:45:54Z</time>
      </trkpt>
      <trkpt lat="44.91209" lon="5.32521">
        <ele>1364</ele>
        <time>2021-10-08T08:45:55Z</time>
      </trkpt>
      <trkpt lat="44.91207" lon="5.32522">
        <ele>1364</ele>
        <time>2021-10-08T08:45:56Z</time>
      </trkpt>
      <trkpt lat="44.91204" lon="5.32522">
        <ele>1364</ele>
        <time>2021-10-08T08:45:57Z</time>
      </trkpt>
      <trkpt lat="44.91202" lon="5.32522">
        <ele>1364.2</ele>
        <time>2021-10-08T08:45:58Z</time>
      </trkpt>
      <trkpt lat="44.912" lon="5.32522">
        <ele>1364.2</ele>
        <time>2021-10-08T08:45:59Z</time>
      </trkpt>
      <trkpt lat="44.91197" lon="5.32522">
        <ele>1364.2</ele>
        <time>2021-10-08T08:46:00Z</time>
      </trkpt>
      <trkpt lat="44.91195" lon="5.32522">
        <ele>1365.2</ele>
        <time>2021-10-08T08:46:01Z</time>
      </trkpt>
      <trkpt lat="44.91193" lon="5.32522">
        <ele>1365</ele>
        <time>2021-10-08T08:46:02Z</time>
      </trkpt>
      <trkpt lat="44.9119" lon="5.32521">
        <ele>1365</ele>
        <time>2021-10-08T08:46:03Z</time>
      </trkpt>
      <trkpt lat="44.91188" lon="5.32521">
        <ele>1365</ele>
        <time>2021-10-08T08:46:04Z</time>
      </trkpt>
      <trkpt lat="44.91185" lon="5.32521">
        <ele>1365.4</ele>
        <time>2021-10-08T08:46:05Z</time>
      </trkpt>
      <trkpt lat="44.91183" lon="5.32521">
        <ele>1365.8</ele>
        <time>2021-10-08T08:46:06Z</time>
      </trkpt>
      <trkpt lat="44.9118" lon="5.32521">
        <ele>1365.8</ele>
        <time>2021-10-08T08:46:07Z</time>
      </trkpt>
      <trkpt lat="44.91178" lon="5.32521">
        <ele>1365.8</ele>
        <time>2021-10-08T08:46:08Z</time>
      </trkpt>
      <trkpt lat="44.91176" lon="5.32521">
        <ele>1366.4</ele>
        <time>2021-10-08T08:46:09Z</time>
      </trkpt>
      <trkpt lat="44.91173" lon="5.32521">
        <ele>1366.8</ele>
        <time>2021-10-08T08:46:10Z</time>
      </trkpt>
      <trkpt lat="44.91171" lon="5.32521">
        <ele>1366.8</ele>
        <time>2021-10-08T08:46:11Z</time>
      </trkpt>
      <trkpt lat="44.91168" lon="5.32521">
        <ele>1366.8</ele>
        <time>2021-10-08T08:46:12Z</time>
      </trkpt>
      <trkpt lat="44.91166" lon="5.32521">
        <ele>1366.8</ele>
        <time>2021-10-08T08:46:13Z</time>
      </trkpt>
      <trkpt lat="44.91164" lon="5.32521">
        <ele>1367.4</ele>
        <time>2021-10-08T08:46:14Z</time>
      </trkpt>
      <trkpt lat="44.91161" lon="5.32521">
        <ele>1367.4</ele>
        <time>2021-10-08T08:46:15Z</time>
      </trkpt>
      <trkpt lat="44.91159" lon="5.32521">
        <ele>1367.4</ele>
        <time>2021-10-08T08:46:16Z</time>
      </trkpt>
      <trkpt lat="44.91156" lon="5.3252">
        <ele>1368.2</ele>
        <time>2021-10-08T08:46:17Z</time>
      </trkpt>
      <trkpt lat="44.91154" lon="5.3252">
        <ele>1368</ele>
        <time>2021-10-08T08:46:18Z</time>
      </trkpt>
      <trkpt lat="44.91152" lon="5.3252">
        <ele>1368</ele>
        <time>2021-10-08T08:46:19Z</time>
      </trkpt>
      <trkpt lat="44.91149" lon="5.3252">
        <ele>1368</ele>
        <time>2021-10-08T08:46:20Z</time>
      </trkpt>
      <trkpt lat="44.91147" lon="5.3252">
        <ele>1368</ele>
        <time>2021-10-08T08:46:21Z</time>
      </trkpt>
      <trkpt lat="44.91145" lon="5.3252">
        <ele>1368.6</ele>
        <time>2021-10-08T08:46:22Z</time>
      </trkpt>
      <trkpt lat="44.91142" lon="5.3252">
        <ele>1368.6</ele>
        <time>2021-10-08T08:46:23Z</time>
      </trkpt>
      <trkpt lat="44.9114" lon="5.3252">
        <ele>1368.6</ele>
        <time>2021-10-08T08:46:24Z</time>
      </trkpt>
      <trkpt lat="44.91138" lon="5.3252">
        <ele>1369</ele>
        <time>2021-10-08T08:46:25Z</time>
      </trkpt>
      <trkpt lat="44.91135" lon="5.3252">
        <ele>1369.4</ele>
        <time>2021-10-08T08:46:26Z</time>
      </trkpt>
      <trkpt lat="44.91132" lon="5.3252">
        <ele>1369.4</ele>
        <time>2021-10-08T08:46:27Z</time>
      </trkpt>
      <trkpt lat="44.9113" lon="5.3252">
        <ele>1369.4</ele>
        <time>2021-10-08T08:46:28Z</time>
      </trkpt>
      <trkpt lat="44.91128" lon="5.3252">
        <ele>1369.4</ele>
        <time>2021-10-08T08:46:29Z</time>
      </trkpt>
      <trkpt lat="44.91125" lon="5.32519">
        <ele>1370</ele>
        <time>2021-10-08T08:46:30Z</time>
      </trkpt>
      <trkpt lat="44.91123" lon="5.32519">
        <ele>1370</ele>
        <time>2021-10-08T08:46:31Z</time>
      </trkpt>
      <trkpt lat="44.9112" lon="5.32519">
        <ele>1370</ele>
        <time>2021-10-08T08:46:32Z</time>
      </trkpt>
      <trkpt lat="44.91118" lon="5.32519">
        <ele>1370</ele>
        <time>2021-10-08T08:46:33Z</time>
      </trkpt>
      <trkpt lat="44.91115" lon="5.32518">
        <ele>1369.8</ele>
        <time>2021-10-08T08:46:34Z</time>
      </trkpt>
      <trkpt lat="44.91113" lon="5.32518">
        <ele>1369.8</ele>
        <time>2021-10-08T08:46:35Z</time>
      </trkpt>
      <trkpt lat="44.9111" lon="5.32518">
        <ele>1369.8</ele>
        <time>2021-10-08T08:46:36Z</time>
      </trkpt>
      <trkpt lat="44.91108" lon="5.32518">
        <ele>1370.8</ele>
        <time>2021-10-08T08:46:37Z</time>
      </trkpt>
      <trkpt lat="44.91106" lon="5.32518">
        <ele>1371.4</ele>
        <time>2021-10-08T08:46:38Z</time>
      </trkpt>
      <trkpt lat="44.91103" lon="5.32518">
        <ele>1371.4</ele>
        <time>2021-10-08T08:46:39Z</time>
      </trkpt>
      <trkpt lat="44.91101" lon="5.32517">
        <ele>1371.4</ele>
        <time>2021-10-08T08:46:40Z</time>
      </trkpt>
      <trkpt lat="44.91098" lon="5.32517">
        <ele>1371.8</ele>
        <time>2021-10-08T08:46:41Z</time>
      </trkpt>
      <trkpt lat="44.91096" lon="5.32517">
        <ele>1372.2</ele>
        <time>2021-10-08T08:46:42Z</time>
      </trkpt>
      <trkpt lat="44.91093" lon="5.32517">
        <ele>1372.2</ele>
        <time>2021-10-08T08:46:43Z</time>
      </trkpt>
      <trkpt lat="44.91091" lon="5.32517">
        <ele>1372.2</ele>
        <time>2021-10-08T08:46:44Z</time>
      </trkpt>
      <trkpt lat="44.91088" lon="5.32517">
        <ele>1372.2</ele>
        <time>2021-10-08T08:46:45Z</time>
      </trkpt>
      <trkpt lat="44.91086" lon="5.32517">
        <ele>1372.6</ele>
        <time>2021-10-08T08:46:46Z</time>
      </trkpt>
      <trkpt lat="44.91083" lon="5.32517">
        <ele>1372.6</ele>
        <time>2021-10-08T08:46:47Z</time>
      </trkpt>
      <trkpt lat="44.91081" lon="5.32516">
        <ele>1372.6</ele>
        <time>2021-10-08T08:46:48Z</time>
      </trkpt>
      <trkpt lat="44.91078" lon="5.32516">
        <ele>1373</ele>
        <time>2021-10-08T08:46:49Z</time>
      </trkpt>
      <trkpt lat="44.91075" lon="5.32516">
        <ele>1373.2</ele>
        <time>2021-10-08T08:46:50Z</time>
      </trkpt>
      <trkpt lat="44.91073" lon="5.32516">
        <ele>1373.2</ele>
        <time>2021-10-08T08:46:51Z</time>
      </trkpt>
      <trkpt lat="44.91071" lon="5.32516">
        <ele>1373.2</ele>
        <time>2021-10-08T08:46:52Z</time>
      </trkpt>
      <trkpt lat="44.91068" lon="5.32515">
        <ele>1373.6</ele>
        <time>2021-10-08T08:46:53Z</time>
      </trkpt>
      <trkpt lat="44.91066" lon="5.32515">
        <ele>1373.8</ele>
        <time>2021-10-08T08:46:54Z</time>
      </trkpt>
      <trkpt lat="44.91063" lon="5.32515">
        <ele>1373.8</ele>
        <time>2021-10-08T08:46:55Z</time>
      </trkpt>
      <trkpt lat="44.91061" lon="5.32515">
        <ele>1373.8</ele>
        <time>2021-10-08T08:46:56Z</time>
      </trkpt>
      <trkpt lat="44.91059" lon="5.32516">
        <ele>1374.6</ele>
        <time>2021-10-08T08:46:57Z</time>
      </trkpt>
      <trkpt lat="44.91056" lon="5.32516">
        <ele>1374.4</ele>
        <time>2021-10-08T08:46:58Z</time>
      </trkpt>
      <trkpt lat="44.91054" lon="5.32516">
        <ele>1374.4</ele>
        <time>2021-10-08T08:46:59Z</time>
      </trkpt>
      <trkpt lat="44.91052" lon="5.32517">
        <ele>1374.4</ele>
        <time>2021-10-08T08:47:00Z</time>
      </trkpt>
      <trkpt lat="44.91049" lon="5.32517">
        <ele>1375.4</ele>
        <time>2021-10-08T08:47:01Z</time>
      </trkpt>
      <trkpt lat="44.91047" lon="5.32518">
        <ele>1375.4</ele>
        <time>2021-10-08T08:47:02Z</time>
      </trkpt>
      <trkpt lat="44.91045" lon="5.32519">
        <ele>1375.4</ele>
        <time>2021-10-08T08:47:03Z</time>
      </trkpt>
      <trkpt lat="44.91042" lon="5.3252">
        <ele>1375.4</ele>
        <time>2021-10-08T08:47:04Z</time>
      </trkpt>
      <trkpt lat="44.9104" lon="5.32521">
        <ele>1375.4</ele>
        <time>2021-10-08T08:47:05Z</time>
      </trkpt>
      <trkpt lat="44.91038" lon="5.32522">
        <ele>1376.4</ele>
        <time>2021-10-08T08:47:06Z</time>
      </trkpt>
      <trkpt lat="44.91035" lon="5.32524">
        <ele>1376.4</ele>
        <time>2021-10-08T08:47:07Z</time>
      </trkpt>
      <trkpt lat="44.91033" lon="5.32525">
        <ele>1376.4</ele>
        <time>2021-10-08T08:47:08Z</time>
      </trkpt>
      <trkpt lat="44.91031" lon="5.32527">
        <ele>1376.6</ele>
        <time>2021-10-08T08:47:09Z</time>
      </trkpt>
      <trkpt lat="44.91029" lon="5.32528">
        <ele>1377</ele>
        <time>2021-10-08T08:47:10Z</time>
      </trkpt>
      <trkpt lat="44.91027" lon="5.3253">
        <ele>1377</ele>
        <time>2021-10-08T08:47:11Z</time>
      </trkpt>
      <trkpt lat="44.91025" lon="5.32532">
        <ele>1377</ele>
        <time>2021-10-08T08:47:12Z</time>
      </trkpt>
      <trkpt lat="44.91023" lon="5.32534">
        <ele>1377</ele>
        <time>2021-10-08T08:47:13Z</time>
      </trkpt>
      <trkpt lat="44.91021" lon="5.32536">
        <ele>1377.6</ele>
        <time>2021-10-08T08:47:14Z</time>
      </trkpt>
      <trkpt lat="44.91019" lon="5.32538">
        <ele>1377.6</ele>
        <time>2021-10-08T08:47:15Z</time>
      </trkpt>
      <trkpt lat="44.91017" lon="5.3254">
        <ele>1377.6</ele>
        <time>2021-10-08T08:47:16Z</time>
      </trkpt>
      <trkpt lat="44.91015" lon="5.32543">
        <ele>1378.2</ele>
        <time>2021-10-08T08:47:17Z</time>
      </trkpt>
      <trkpt lat="44.91013" lon="5.32545">
        <ele>1378.4</ele>
        <time>2021-10-08T08:47:18Z</time>
      </trkpt>
      <trkpt lat="44.91012" lon="5.32548">
        <ele>1378.4</ele>
        <time>2021-10-08T08:47:19Z</time>
      </trkpt>
      <trkpt lat="44.9101" lon="5.32551">
        <ele>1378.4</ele>
        <time>2021-10-08T08:47:20Z</time>
      </trkpt>
      <trkpt lat="44.91009" lon="5.32554">
        <ele>1379</ele>
        <time>2021-10-08T08:47:21Z</time>
      </trkpt>
      <trkpt lat="44.91007" lon="5.32557">
        <ele>1379</ele>
        <time>2021-10-08T08:47:22Z</time>
      </trkpt>
      <trkpt lat="44.91006" lon="5.3256">
        <ele>1379</ele>
        <time>2021-10-08T08:47:23Z</time>
      </trkpt>
      <trkpt lat="44.91004" lon="5.32562">
        <ele>1379</ele>
        <time>2021-10-08T08:47:24Z</time>
      </trkpt>
      <trkpt lat="44.91003" lon="5.32565">
        <ele>1379.8</ele>
        <time>2021-10-08T08:47:25Z</time>
      </trkpt>
      <trkpt lat="44.91002" lon="5.32568">
        <ele>1379.8</ele>
        <time>2021-10-08T08:47:26Z</time>
      </trkpt>
      <trkpt lat="44.91" lon="5.32571">
        <ele>1379.8</ele>
        <time>2021-10-08T08:47:27Z</time>
      </trkpt>
      <trkpt lat="44.90999" lon="5.32574">
        <ele>1379.8</ele>
        <time>2021-10-08T08:47:28Z</time>
      </trkpt>
      <trkpt lat="44.90998" lon="5.32577">
        <ele>1380</ele>
        <time>2021-10-08T08:47:29Z</time>
      </trkpt>
      <trkpt lat="44.90997" lon="5.3258">
        <ele>1380</ele>
        <time>2021-10-08T08:47:30Z</time>
      </trkpt>
      <trkpt lat="44.90995" lon="5.32584">
        <ele>1380</ele>
        <time>2021-10-08T08:47:31Z</time>
      </trkpt>
      <trkpt lat="44.90994" lon="5.32587">
        <ele>1380</ele>
        <time>2021-10-08T08:47:32Z</time>
      </trkpt>
      <trkpt lat="44.90993" lon="5.3259">
        <ele>1380.6</ele>
        <time>2021-10-08T08:47:33Z</time>
      </trkpt>
      <trkpt lat="44.90992" lon="5.32593">
        <ele>1381.2</ele>
        <time>2021-10-08T08:47:34Z</time>
      </trkpt>
      <trkpt lat="44.90991" lon="5.32596">
        <ele>1381.2</ele>
        <time>2021-10-08T08:47:35Z</time>
      </trkpt>
      <trkpt lat="44.9099" lon="5.32599">
        <ele>1381.2</ele>
        <time>2021-10-08T08:47:36Z</time>
      </trkpt>
      <trkpt lat="44.90989" lon="5.32602">
        <ele>1381.2</ele>
        <time>2021-10-08T08:47:37Z</time>
      </trkpt>
      <trkpt lat="44.90987" lon="5.32605">
        <ele>1381.4</ele>
        <time>2021-10-08T08:47:38Z</time>
      </trkpt>
      <trkpt lat="44.90986" lon="5.32607">
        <ele>1381.4</ele>
        <time>2021-10-08T08:47:39Z</time>
      </trkpt>
      <trkpt lat="44.90984" lon="5.3261">
        <ele>1381.4</ele>
        <time>2021-10-08T08:47:40Z</time>
      </trkpt>
      <trkpt lat="44.90983" lon="5.32612">
        <ele>1382</ele>
        <time>2021-10-08T08:47:41Z</time>
      </trkpt>
      <trkpt lat="44.90981" lon="5.32615">
        <ele>1382.6</ele>
        <time>2021-10-08T08:47:42Z</time>
      </trkpt>
      <trkpt lat="44.9098" lon="5.32617">
        <ele>1382.6</ele>
        <time>2021-10-08T08:47:43Z</time>
      </trkpt>
      <trkpt lat="44.90978" lon="5.3262">
        <ele>1382.6</ele>
        <time>2021-10-08T08:47:44Z</time>
      </trkpt>
      <trkpt lat="44.90977" lon="5.32623">
        <ele>1383.6</ele>
        <time>2021-10-08T08:47:45Z</time>
      </trkpt>
      <trkpt lat="44.90975" lon="5.32625">
        <ele>1383.4</ele>
        <time>2021-10-08T08:47:46Z</time>
      </trkpt>
      <trkpt lat="44.90974" lon="5.32628">
        <ele>1383.4</ele>
        <time>2021-10-08T08:47:47Z</time>
      </trkpt>
      <trkpt lat="44.90972" lon="5.32631">
        <ele>1383.4</ele>
        <time>2021-10-08T08:47:48Z</time>
      </trkpt>
      <trkpt lat="44.90971" lon="5.32634">
        <ele>1384</ele>
        <time>2021-10-08T08:47:49Z</time>
      </trkpt>
      <trkpt lat="44.9097" lon="5.32637">
        <ele>1384</ele>
        <time>2021-10-08T08:47:50Z</time>
      </trkpt>
      <trkpt lat="44.90968" lon="5.3264">
        <ele>1384</ele>
        <time>2021-10-08T08:47:51Z</time>
      </trkpt>
      <trkpt lat="44.90967" lon="5.32643">
        <ele>1384</ele>
        <time>2021-10-08T08:47:52Z</time>
      </trkpt>
      <trkpt lat="44.90966" lon="5.32646">
        <ele>1384.8</ele>
        <time>2021-10-08T08:47:53Z</time>
      </trkpt>
      <trkpt lat="44.90965" lon="5.32649">
        <ele>1384.8</ele>
        <time>2021-10-08T08:47:54Z</time>
      </trkpt>
      <trkpt lat="44.90964" lon="5.32653">
        <ele>1384.8</ele>
        <time>2021-10-08T08:47:55Z</time>
      </trkpt>
      <trkpt lat="44.90963" lon="5.32656">
        <ele>1384.8</ele>
        <time>2021-10-08T08:47:56Z</time>
      </trkpt>
      <trkpt lat="44.90963" lon="5.32659">
        <ele>1385.4</ele>
        <time>2021-10-08T08:47:57Z</time>
      </trkpt>
      <trkpt lat="44.90963" lon="5.32663">
        <ele>1385.4</ele>
        <time>2021-10-08T08:47:58Z</time>
      </trkpt>
      <trkpt lat="44.90962" lon="5.32666">
        <ele>1385.4</ele>
        <time>2021-10-08T08:47:59Z</time>
      </trkpt>
      <trkpt lat="44.90962" lon="5.3267">
        <ele>1385.4</ele>
        <time>2021-10-08T08:48:00Z</time>
      </trkpt>
      <trkpt lat="44.90962" lon="5.32674">
        <ele>1386.2</ele>
        <time>2021-10-08T08:48:01Z</time>
      </trkpt>
      <trkpt lat="44.90962" lon="5.32677">
        <ele>1386.4</ele>
        <time>2021-10-08T08:48:02Z</time>
      </trkpt>
      <trkpt lat="44.90962" lon="5.3268">
        <ele>1386.4</ele>
        <time>2021-10-08T08:48:03Z</time>
      </trkpt>
      <trkpt lat="44.90963" lon="5.32684">
        <ele>1386.4</ele>
        <time>2021-10-08T08:48:04Z</time>
      </trkpt>
      <trkpt lat="44.90963" lon="5.32687">
        <ele>1386.4</ele>
        <time>2021-10-08T08:48:05Z</time>
      </trkpt>
      <trkpt lat="44.90964" lon="5.32691">
        <ele>1386.4</ele>
        <time>2021-10-08T08:48:06Z</time>
      </trkpt>
      <trkpt lat="44.90965" lon="5.32694">
        <ele>1386.4</ele>
        <time>2021-10-08T08:48:07Z</time>
      </trkpt>
      <trkpt lat="44.90965" lon="5.32698">
        <ele>1386.4</ele>
        <time>2021-10-08T08:48:08Z</time>
      </trkpt>
      <trkpt lat="44.90966" lon="5.32701">
        <ele>1387.2</ele>
        <time>2021-10-08T08:48:09Z</time>
      </trkpt>
      <trkpt lat="44.90967" lon="5.32705">
        <ele>1387.4</ele>
        <time>2021-10-08T08:48:10Z</time>
      </trkpt>
      <trkpt lat="44.90968" lon="5.32709">
        <ele>1387.4</ele>
        <time>2021-10-08T08:48:11Z</time>
      </trkpt>
      <trkpt lat="44.90969" lon="5.32712">
        <ele>1387.4</ele>
        <time>2021-10-08T08:48:12Z</time>
      </trkpt>
      <trkpt lat="44.9097" lon="5.32715">
        <ele>1388</ele>
        <time>2021-10-08T08:48:13Z</time>
      </trkpt>
      <trkpt lat="44.90971" lon="5.32719">
        <ele>1388.2</ele>
        <time>2021-10-08T08:48:14Z</time>
      </trkpt>
      <trkpt lat="44.90972" lon="5.32722">
        <ele>1388.2</ele>
        <time>2021-10-08T08:48:15Z</time>
      </trkpt>
      <trkpt lat="44.90973" lon="5.32726">
        <ele>1388.2</ele>
        <time>2021-10-08T08:48:16Z</time>
      </trkpt>
      <trkpt lat="44.90974" lon="5.32729">
        <ele>1388.2</ele>
        <time>2021-10-08T08:48:17Z</time>
      </trkpt>
      <trkpt lat="44.90975" lon="5.32733">
        <ele>1389</ele>
        <time>2021-10-08T08:48:18Z</time>
      </trkpt>
      <trkpt lat="44.90976" lon="5.32736">
        <ele>1389</ele>
        <time>2021-10-08T08:48:19Z</time>
      </trkpt>
      <trkpt lat="44.90977" lon="5.32739">
        <ele>1389</ele>
        <time>2021-10-08T08:48:20Z</time>
      </trkpt>
      <trkpt lat="44.90979" lon="5.32742">
        <ele>1389.2</ele>
        <time>2021-10-08T08:48:21Z</time>
      </trkpt>
      <trkpt lat="44.9098" lon="5.32745">
        <ele>1389.6</ele>
        <time>2021-10-08T08:48:22Z</time>
      </trkpt>
      <trkpt lat="44.90981" lon="5.32748">
        <ele>1389.6</ele>
        <time>2021-10-08T08:48:23Z</time>
      </trkpt>
      <trkpt lat="44.90983" lon="5.32751">
        <ele>1389.6</ele>
        <time>2021-10-08T08:48:24Z</time>
      </trkpt>
      <trkpt lat="44.90985" lon="5.32754">
        <ele>1389.6</ele>
        <time>2021-10-08T08:48:25Z</time>
      </trkpt>
      <trkpt lat="44.90987" lon="5.32757">
        <ele>1390.4</ele>
        <time>2021-10-08T08:48:26Z</time>
      </trkpt>
      <trkpt lat="44.90988" lon="5.3276">
        <ele>1390.4</ele>
        <time>2021-10-08T08:48:27Z</time>
      </trkpt>
      <trkpt lat="44.9099" lon="5.32763">
        <ele>1390.4</ele>
        <time>2021-10-08T08:48:28Z</time>
      </trkpt>
      <trkpt lat="44.90992" lon="5.32766">
        <ele>1390.4</ele>
        <time>2021-10-08T08:48:29Z</time>
      </trkpt>
      <trkpt lat="44.90994" lon="5.32769">
        <ele>1390.6</ele>
        <time>2021-10-08T08:48:30Z</time>
      </trkpt>
      <trkpt lat="44.90995" lon="5.32772">
        <ele>1390.6</ele>
        <time>2021-10-08T08:48:31Z</time>
      </trkpt>
      <trkpt lat="44.90997" lon="5.32775">
        <ele>1390.6</ele>
        <time>2021-10-08T08:48:32Z</time>
      </trkpt>
      <trkpt lat="44.90999" lon="5.32777">
        <ele>1390.6</ele>
        <time>2021-10-08T08:48:33Z</time>
      </trkpt>
      <trkpt lat="44.91001" lon="5.3278">
        <ele>1391</ele>
        <time>2021-10-08T08:48:34Z</time>
      </trkpt>
      <trkpt lat="44.91003" lon="5.32783">
        <ele>1391</ele>
        <time>2021-10-08T08:48:35Z</time>
      </trkpt>
      <trkpt lat="44.91005" lon="5.32786">
        <ele>1391</ele>
        <time>2021-10-08T08:48:36Z</time>
      </trkpt>
      <trkpt lat="44.91007" lon="5.32789">
        <ele>1391</ele>
        <time>2021-10-08T08:48:37Z</time>
      </trkpt>
      <trkpt lat="44.91009" lon="5.32792">
        <ele>1391.6</ele>
        <time>2021-10-08T08:48:38Z</time>
      </trkpt>
      <trkpt lat="44.91011" lon="5.32794">
        <ele>1391.6</ele>
        <time>2021-10-08T08:48:39Z</time>
      </trkpt>
      <trkpt lat="44.91013" lon="5.32797">
        <ele>1391.6</ele>
        <time>2021-10-08T08:48:40Z</time>
      </trkpt>
      <trkpt lat="44.91015" lon="5.328">
        <ele>1391.6</ele>
        <time>2021-10-08T08:48:41Z</time>
      </trkpt>
      <trkpt lat="44.91017" lon="5.32803">
        <ele>1392.2</ele>
        <time>2021-10-08T08:48:42Z</time>
      </trkpt>
      <trkpt lat="44.91019" lon="5.32806">
        <ele>1392.2</ele>
        <time>2021-10-08T08:48:43Z</time>
      </trkpt>
      <trkpt lat="44.91021" lon="5.3281">
        <ele>1392.2</ele>
        <time>2021-10-08T08:48:44Z</time>
      </trkpt>
      <trkpt lat="44.91023" lon="5.32813">
        <ele>1392</ele>
        <time>2021-10-08T08:48:45Z</time>
      </trkpt>
      <trkpt lat="44.91024" lon="5.32816">
        <ele>1392.4</ele>
        <time>2021-10-08T08:48:46Z</time>
      </trkpt>
      <trkpt lat="44.91026" lon="5.3282">
        <ele>1392.4</ele>
        <time>2021-10-08T08:48:47Z</time>
      </trkpt>
      <trkpt lat="44.91028" lon="5.32823">
        <ele>1392.4</ele>
        <time>2021-10-08T08:48:48Z</time>
      </trkpt>
      <trkpt lat="44.91029" lon="5.32827">
        <ele>1392.4</ele>
        <time>2021-10-08T08:48:49Z</time>
      </trkpt>
      <trkpt lat="44.9103" lon="5.32831">
        <ele>1392.4</ele>
        <time>2021-10-08T08:48:50Z</time>
      </trkpt>
      <trkpt lat="44.91032" lon="5.32835">
        <ele>1392.4</ele>
        <time>2021-10-08T08:48:51Z</time>
      </trkpt>
      <trkpt lat="44.91033" lon="5.32839">
        <ele>1392.4</ele>
        <time>2021-10-08T08:48:52Z</time>
      </trkpt>
      <trkpt lat="44.91034" lon="5.32843">
        <ele>1393</ele>
        <time>2021-10-08T08:48:53Z</time>
      </trkpt>
      <trkpt lat="44.91035" lon="5.32846">
        <ele>1393</ele>
        <time>2021-10-08T08:48:54Z</time>
      </trkpt>
      <trkpt lat="44.91036" lon="5.3285">
        <ele>1393</ele>
        <time>2021-10-08T08:48:55Z</time>
      </trkpt>
      <trkpt lat="44.91038" lon="5.32854">
        <ele>1393</ele>
        <time>2021-10-08T08:48:56Z</time>
      </trkpt>
      <trkpt lat="44.91039" lon="5.32859">
        <ele>1393</ele>
        <time>2021-10-08T08:48:57Z</time>
      </trkpt>
      <trkpt lat="44.9104" lon="5.32863">
        <ele>1393.8</ele>
        <time>2021-10-08T08:48:58Z</time>
      </trkpt>
      <trkpt lat="44.91041" lon="5.32867">
        <ele>1393.8</ele>
        <time>2021-10-08T08:48:59Z</time>
      </trkpt>
      <trkpt lat="44.91042" lon="5.32871">
        <ele>1393.8</ele>
        <time>2021-10-08T08:49:00Z</time>
      </trkpt>
      <trkpt lat="44.91043" lon="5.32875">
        <ele>1394.8</ele>
        <time>2021-10-08T08:49:01Z</time>
      </trkpt>
      <trkpt lat="44.91044" lon="5.32879">
        <ele>1394.6</ele>
        <time>2021-10-08T08:49:02Z</time>
      </trkpt>
      <trkpt lat="44.91046" lon="5.32883">
        <ele>1394.6</ele>
        <time>2021-10-08T08:49:03Z</time>
      </trkpt>
      <trkpt lat="44.91047" lon="5.32887">
        <ele>1394.6</ele>
        <time>2021-10-08T08:49:04Z</time>
      </trkpt>
      <trkpt lat="44.91048" lon="5.32891">
        <ele>1394.6</ele>
        <time>2021-10-08T08:49:05Z</time>
      </trkpt>
      <trkpt lat="44.91049" lon="5.32895">
        <ele>1394.4</ele>
        <time>2021-10-08T08:49:06Z</time>
      </trkpt>
      <trkpt lat="44.9105" lon="5.32899">
        <ele>1394.4</ele>
        <time>2021-10-08T08:49:07Z</time>
      </trkpt>
      <trkpt lat="44.91051" lon="5.32903">
        <ele>1394.4</ele>
        <time>2021-10-08T08:49:08Z</time>
      </trkpt>
      <trkpt lat="44.91052" lon="5.32907">
        <ele>1395.2</ele>
        <time>2021-10-08T08:49:09Z</time>
      </trkpt>
      <trkpt lat="44.91053" lon="5.32912">
        <ele>1395.2</ele>
        <time>2021-10-08T08:49:10Z</time>
      </trkpt>
      <trkpt lat="44.91055" lon="5.32916">
        <ele>1395.2</ele>
        <time>2021-10-08T08:49:11Z</time>
      </trkpt>
      <trkpt lat="44.91056" lon="5.3292">
        <ele>1395.2</ele>
        <time>2021-10-08T08:49:12Z</time>
      </trkpt>
      <trkpt lat="44.91057" lon="5.32924">
        <ele>1395.2</ele>
        <time>2021-10-08T08:49:13Z</time>
      </trkpt>
      <trkpt lat="44.91058" lon="5.32928">
        <ele>1395.6</ele>
        <time>2021-10-08T08:49:14Z</time>
      </trkpt>
      <trkpt lat="44.9106" lon="5.32933">
        <ele>1395.6</ele>
        <time>2021-10-08T08:49:15Z</time>
      </trkpt>
      <trkpt lat="44.91061" lon="5.32937">
        <ele>1395.6</ele>
        <time>2021-10-08T08:49:16Z</time>
      </trkpt>
      <trkpt lat="44.91062" lon="5.32941">
        <ele>1395.6</ele>
        <time>2021-10-08T08:49:17Z</time>
      </trkpt>
      <trkpt lat="44.91064" lon="5.32945">
        <ele>1396.2</ele>
        <time>2021-10-08T08:49:18Z</time>
      </trkpt>
      <trkpt lat="44.91065" lon="5.32949">
        <ele>1396.2</ele>
        <time>2021-10-08T08:49:19Z</time>
      </trkpt>
      <trkpt lat="44.91066" lon="5.32953">
        <ele>1396.2</ele>
        <time>2021-10-08T08:49:20Z</time>
      </trkpt>
      <trkpt lat="44.91068" lon="5.32957">
        <ele>1396.8</ele>
        <time>2021-10-08T08:49:21Z</time>
      </trkpt>
      <trkpt lat="44.91069" lon="5.32961">
        <ele>1397</ele>
        <time>2021-10-08T08:49:22Z</time>
      </trkpt>
      <trkpt lat="44.9107" lon="5.32965">
        <ele>1397</ele>
        <time>2021-10-08T08:49:23Z</time>
      </trkpt>
      <trkpt lat="44.91072" lon="5.32969">
        <ele>1397</ele>
        <time>2021-10-08T08:49:24Z</time>
      </trkpt>
      <trkpt lat="44.91073" lon="5.32973">
        <ele>1397.6</ele>
        <time>2021-10-08T08:49:25Z</time>
      </trkpt>
      <trkpt lat="44.91074" lon="5.32977">
        <ele>1397.8</ele>
        <time>2021-10-08T08:49:26Z</time>
      </trkpt>
      <trkpt lat="44.91076" lon="5.32981">
        <ele>1397.8</ele>
        <time>2021-10-08T08:49:27Z</time>
      </trkpt>
      <trkpt lat="44.91077" lon="5.32986">
        <ele>1397.8</ele>
        <time>2021-10-08T08:49:28Z</time>
      </trkpt>
      <trkpt lat="44.91078" lon="5.3299">
        <ele>1397.8</ele>
        <time>2021-10-08T08:49:29Z</time>
      </trkpt>
      <trkpt lat="44.9108" lon="5.32994">
        <ele>1398.2</ele>
        <time>2021-10-08T08:49:30Z</time>
      </trkpt>
      <trkpt lat="44.91082" lon="5.32998">
        <ele>1398.2</ele>
        <time>2021-10-08T08:49:31Z</time>
      </trkpt>
      <trkpt lat="44.91083" lon="5.33002">
        <ele>1398.2</ele>
        <time>2021-10-08T08:49:32Z</time>
      </trkpt>
      <trkpt lat="44.91084" lon="5.33007">
        <ele>1398.2</ele>
        <time>2021-10-08T08:49:33Z</time>
      </trkpt>
      <trkpt lat="44.91086" lon="5.33011">
        <ele>1398.8</ele>
        <time>2021-10-08T08:49:34Z</time>
      </trkpt>
      <trkpt lat="44.91087" lon="5.33015">
        <ele>1398.8</ele>
        <time>2021-10-08T08:49:35Z</time>
      </trkpt>
      <trkpt lat="44.91088" lon="5.33019">
        <ele>1398.8</ele>
        <time>2021-10-08T08:49:36Z</time>
      </trkpt>
      <trkpt lat="44.91089" lon="5.33023">
        <ele>1398.8</ele>
        <time>2021-10-08T08:49:37Z</time>
      </trkpt>
      <trkpt lat="44.9109" lon="5.33028">
        <ele>1399.2</ele>
        <time>2021-10-08T08:49:38Z</time>
      </trkpt>
      <trkpt lat="44.9109" lon="5.33032">
        <ele>1399.2</ele>
        <time>2021-10-08T08:49:39Z</time>
      </trkpt>
      <trkpt lat="44.91091" lon="5.33037">
        <ele>1399.2</ele>
        <time>2021-10-08T08:49:40Z</time>
      </trkpt>
      <trkpt lat="44.91092" lon="5.33041">
        <ele>1399.2</ele>
        <time>2021-10-08T08:49:41Z</time>
      </trkpt>
      <trkpt lat="44.91092" lon="5.33046">
        <ele>1399.6</ele>
        <time>2021-10-08T08:49:42Z</time>
      </trkpt>
      <trkpt lat="44.91093" lon="5.33051">
        <ele>1399.6</ele>
        <time>2021-10-08T08:49:43Z</time>
      </trkpt>
      <trkpt lat="44.91093" lon="5.33055">
        <ele>1399.6</ele>
        <time>2021-10-08T08:49:44Z</time>
      </trkpt>
      <trkpt lat="44.91093" lon="5.3306">
        <ele>1399.6</ele>
        <time>2021-10-08T08:49:45Z</time>
      </trkpt>
      <trkpt lat="44.91093" lon="5.33065">
        <ele>1399.4</ele>
        <time>2021-10-08T08:49:46Z</time>
      </trkpt>
      <trkpt lat="44.91092" lon="5.3307">
        <ele>1399.4</ele>
        <time>2021-10-08T08:49:47Z</time>
      </trkpt>
      <trkpt lat="44.91092" lon="5.33074">
        <ele>1399.4</ele>
        <time>2021-10-08T08:49:48Z</time>
      </trkpt>
      <trkpt lat="44.91092" lon="5.33078">
        <ele>1399.4</ele>
        <time>2021-10-08T08:49:49Z</time>
      </trkpt>
      <trkpt lat="44.91091" lon="5.33083">
        <ele>1399.4</ele>
        <time>2021-10-08T08:49:50Z</time>
      </trkpt>
      <trkpt lat="44.91091" lon="5.33087">
        <ele>1399.4</ele>
        <time>2021-10-08T08:49:51Z</time>
      </trkpt>
      <trkpt lat="44.9109" lon="5.33091">
        <ele>1399.4</ele>
        <time>2021-10-08T08:49:52Z</time>
      </trkpt>
      <trkpt lat="44.9109" lon="5.33095">
        <ele>1400.2</ele>
        <time>2021-10-08T08:49:53Z</time>
      </trkpt>
      <trkpt lat="44.9109" lon="5.331">
        <ele>1400.4</ele>
        <time>2021-10-08T08:49:54Z</time>
      </trkpt>
      <trkpt lat="44.91089" lon="5.33104">
        <ele>1400.4</ele>
        <time>2021-10-08T08:49:55Z</time>
      </trkpt>
      <trkpt lat="44.91088" lon="5.33108">
        <ele>1400.4</ele>
        <time>2021-10-08T08:49:56Z</time>
      </trkpt>
      <trkpt lat="44.91088" lon="5.33113">
        <ele>1400.4</ele>
        <time>2021-10-08T08:49:57Z</time>
      </trkpt>
      <trkpt lat="44.91087" lon="5.33117">
        <ele>1400.4</ele>
        <time>2021-10-08T08:49:58Z</time>
      </trkpt>
      <trkpt lat="44.91086" lon="5.33121">
        <ele>1400.6</ele>
        <time>2021-10-08T08:49:59Z</time>
      </trkpt>
      <trkpt lat="44.91085" lon="5.33126">
        <ele>1400.6</ele>
        <time>2021-10-08T08:50:00Z</time>
      </trkpt>
      <trkpt lat="44.91084" lon="5.3313">
        <ele>1400.8</ele>
        <time>2021-10-08T08:50:01Z</time>
      </trkpt>
      <trkpt lat="44.91083" lon="5.33134">
        <ele>1401</ele>
        <time>2021-10-08T08:50:02Z</time>
      </trkpt>
      <trkpt lat="44.91082" lon="5.33138">
        <ele>1401</ele>
        <time>2021-10-08T08:50:03Z</time>
      </trkpt>
      <trkpt lat="44.91081" lon="5.33143">
        <ele>1401</ele>
        <time>2021-10-08T08:50:04Z</time>
      </trkpt>
      <trkpt lat="44.9108" lon="5.33147">
        <ele>1401.2</ele>
        <time>2021-10-08T08:50:05Z</time>
      </trkpt>
      <trkpt lat="44.91078" lon="5.3315">
        <ele>1401.6</ele>
        <time>2021-10-08T08:50:06Z</time>
      </trkpt>
      <trkpt lat="44.91077" lon="5.33154">
        <ele>1401.6</ele>
        <time>2021-10-08T08:50:07Z</time>
      </trkpt>
      <trkpt lat="44.91075" lon="5.33157">
        <ele>1401.6</ele>
        <time>2021-10-08T08:50:08Z</time>
      </trkpt>
      <trkpt lat="44.91072" lon="5.33161">
        <ele>1402.2</ele>
        <time>2021-10-08T08:50:09Z</time>
      </trkpt>
      <trkpt lat="44.9107" lon="5.33164">
        <ele>1401.8</ele>
        <time>2021-10-08T08:50:10Z</time>
      </trkpt>
      <trkpt lat="44.91068" lon="5.33167">
        <ele>1401.8</ele>
        <time>2021-10-08T08:50:11Z</time>
      </trkpt>
      <trkpt lat="44.91065" lon="5.33169">
        <ele>1401.8</ele>
        <time>2021-10-08T08:50:12Z</time>
      </trkpt>
      <trkpt lat="44.91062" lon="5.33171">
        <ele>1402.8</ele>
        <time>2021-10-08T08:50:13Z</time>
      </trkpt>
      <trkpt lat="44.91059" lon="5.33173">
        <ele>1403.2</ele>
        <time>2021-10-08T08:50:14Z</time>
      </trkpt>
      <trkpt lat="44.91056" lon="5.33174">
        <ele>1403.2</ele>
        <time>2021-10-08T08:50:15Z</time>
      </trkpt>
      <trkpt lat="44.91053" lon="5.33176">
        <ele>1403.2</ele>
        <time>2021-10-08T08:50:16Z</time>
      </trkpt>
      <trkpt lat="44.91049" lon="5.33176">
        <ele>1403.4</ele>
        <time>2021-10-08T08:50:17Z</time>
      </trkpt>
      <trkpt lat="44.91046" lon="5.33177">
        <ele>1403.6</ele>
        <time>2021-10-08T08:50:18Z</time>
      </trkpt>
      <trkpt lat="44.91042" lon="5.33178">
        <ele>1403.6</ele>
        <time>2021-10-08T08:50:19Z</time>
      </trkpt>
      <trkpt lat="44.91039" lon="5.3318">
        <ele>1403.6</ele>
        <time>2021-10-08T08:50:20Z</time>
      </trkpt>
      <trkpt lat="44.91036" lon="5.33181">
        <ele>1404.4</ele>
        <time>2021-10-08T08:50:21Z</time>
      </trkpt>
      <trkpt lat="44.91033" lon="5.33183">
        <ele>1404.4</ele>
        <time>2021-10-08T08:50:22Z</time>
      </trkpt>
      <trkpt lat="44.91029" lon="5.33185">
        <ele>1404.4</ele>
        <time>2021-10-08T08:50:23Z</time>
      </trkpt>
      <trkpt lat="44.91026" lon="5.33187">
        <ele>1404.4</ele>
        <time>2021-10-08T08:50:24Z</time>
      </trkpt>
      <trkpt lat="44.91023" lon="5.33188">
        <ele>1405.2</ele>
        <time>2021-10-08T08:50:25Z</time>
      </trkpt>
      <trkpt lat="44.9102" lon="5.33191">
        <ele>1404.8</ele>
        <time>2021-10-08T08:50:26Z</time>
      </trkpt>
      <trkpt lat="44.91017" lon="5.33193">
        <ele>1404.8</ele>
        <time>2021-10-08T08:50:27Z</time>
      </trkpt>
      <trkpt lat="44.91015" lon="5.33196">
        <ele>1404.8</ele>
        <time>2021-10-08T08:50:28Z</time>
      </trkpt>
      <trkpt lat="44.91012" lon="5.33199">
        <ele>1405</ele>
        <time>2021-10-08T08:50:29Z</time>
      </trkpt>
      <trkpt lat="44.9101" lon="5.33202">
        <ele>1405.6</ele>
        <time>2021-10-08T08:50:30Z</time>
      </trkpt>
      <trkpt lat="44.91007" lon="5.33206">
        <ele>1405.6</ele>
        <time>2021-10-08T08:50:31Z</time>
      </trkpt>
      <trkpt lat="44.91005" lon="5.33209">
        <ele>1405.6</ele>
        <time>2021-10-08T08:50:32Z</time>
      </trkpt>
      <trkpt lat="44.91003" lon="5.33213">
        <ele>1405.6</ele>
        <time>2021-10-08T08:50:33Z</time>
      </trkpt>
      <trkpt lat="44.91001" lon="5.33217">
        <ele>1405.6</ele>
        <time>2021-10-08T08:50:34Z</time>
      </trkpt>
      <trkpt lat="44.91" lon="5.33221">
        <ele>1405.6</ele>
        <time>2021-10-08T08:50:35Z</time>
      </trkpt>
      <trkpt lat="44.90998" lon="5.33225">
        <ele>1405.6</ele>
        <time>2021-10-08T08:50:36Z</time>
      </trkpt>
      <trkpt lat="44.90996" lon="5.33229">
        <ele>1405.6</ele>
        <time>2021-10-08T08:50:37Z</time>
      </trkpt>
      <trkpt lat="44.90994" lon="5.33233">
        <ele>1406</ele>
        <time>2021-10-08T08:50:38Z</time>
      </trkpt>
      <trkpt lat="44.90992" lon="5.33237">
        <ele>1406</ele>
        <time>2021-10-08T08:50:39Z</time>
      </trkpt>
      <trkpt lat="44.9099" lon="5.33241">
        <ele>1406</ele>
        <time>2021-10-08T08:50:40Z</time>
      </trkpt>
      <trkpt lat="44.90988" lon="5.33245">
        <ele>1406.2</ele>
        <time>2021-10-08T08:50:41Z</time>
      </trkpt>
      <trkpt lat="44.90985" lon="5.33248">
        <ele>1406.4</ele>
        <time>2021-10-08T08:50:42Z</time>
      </trkpt>
      <trkpt lat="44.90983" lon="5.33251">
        <ele>1406.4</ele>
        <time>2021-10-08T08:50:43Z</time>
      </trkpt>
      <trkpt lat="44.9098" lon="5.33254">
        <ele>1406.4</ele>
        <time>2021-10-08T08:50:44Z</time>
      </trkpt>
      <trkpt lat="44.90977" lon="5.33255">
        <ele>1407.4</ele>
        <time>2021-10-08T08:50:45Z</time>
      </trkpt>
      <trkpt lat="44.90974" lon="5.33257">
        <ele>1407</ele>
        <time>2021-10-08T08:50:46Z</time>
      </trkpt>
      <trkpt lat="44.9097" lon="5.33258">
        <ele>1407</ele>
        <time>2021-10-08T08:50:47Z</time>
      </trkpt>
      <trkpt lat="44.90967" lon="5.33259">
        <ele>1407</ele>
        <time>2021-10-08T08:50:48Z</time>
      </trkpt>
      <trkpt lat="44.90964" lon="5.33259">
        <ele>1407.8</ele>
        <time>2021-10-08T08:50:49Z</time>
      </trkpt>
      <trkpt lat="44.90961" lon="5.33259">
        <ele>1407.8</ele>
        <time>2021-10-08T08:50:50Z</time>
      </trkpt>
      <trkpt lat="44.90957" lon="5.33258">
        <ele>1407.8</ele>
        <time>2021-10-08T08:50:51Z</time>
      </trkpt>
      <trkpt lat="44.90954" lon="5.33258">
        <ele>1407.8</ele>
        <time>2021-10-08T08:50:52Z</time>
      </trkpt>
      <trkpt lat="44.90951" lon="5.33257">
        <ele>1408.4</ele>
        <time>2021-10-08T08:50:53Z</time>
      </trkpt>
      <trkpt lat="44.90947" lon="5.33256">
        <ele>1408.4</ele>
        <time>2021-10-08T08:50:54Z</time>
      </trkpt>
      <trkpt lat="44.90944" lon="5.33255">
        <ele>1408.4</ele>
        <time>2021-10-08T08:50:55Z</time>
      </trkpt>
      <trkpt lat="44.90941" lon="5.33255">
        <ele>1408.4</ele>
        <time>2021-10-08T08:50:56Z</time>
      </trkpt>
      <trkpt lat="44.90938" lon="5.33255">
        <ele>1408.6</ele>
        <time>2021-10-08T08:50:57Z</time>
      </trkpt>
      <trkpt lat="44.90935" lon="5.33254">
        <ele>1409.4</ele>
        <time>2021-10-08T08:50:58Z</time>
      </trkpt>
      <trkpt lat="44.90931" lon="5.33254">
        <ele>1409.4</ele>
        <time>2021-10-08T08:50:59Z</time>
      </trkpt>
      <trkpt lat="44.90928" lon="5.33254">
        <ele>1409.4</ele>
        <time>2021-10-08T08:51:00Z</time>
      </trkpt>
      <trkpt lat="44.90925" lon="5.33254">
        <ele>1409.4</ele>
        <time>2021-10-08T08:51:01Z</time>
      </trkpt>
      <trkpt lat="44.90923" lon="5.33254">
        <ele>1409.4</ele>
        <time>2021-10-08T08:51:02Z</time>
      </trkpt>
      <trkpt lat="44.9092" lon="5.33254">
        <ele>1409.4</ele>
        <time>2021-10-08T08:51:03Z</time>
      </trkpt>
      <trkpt lat="44.90917" lon="5.33255">
        <ele>1409.4</ele>
        <time>2021-10-08T08:51:04Z</time>
      </trkpt>
      <trkpt lat="44.90914" lon="5.33256">
        <ele>1410.2</ele>
        <time>2021-10-08T08:51:05Z</time>
      </trkpt>
      <trkpt lat="44.90912" lon="5.33257">
        <ele>1410.4</ele>
        <time>2021-10-08T08:51:06Z</time>
      </trkpt>
      <trkpt lat="44.90909" lon="5.33259">
        <ele>1410.4</ele>
        <time>2021-10-08T08:51:07Z</time>
      </trkpt>
      <trkpt lat="44.90906" lon="5.33261">
        <ele>1410.4</ele>
        <time>2021-10-08T08:51:08Z</time>
      </trkpt>
      <trkpt lat="44.90904" lon="5.33263">
        <ele>1411.4</ele>
        <time>2021-10-08T08:51:09Z</time>
      </trkpt>
      <trkpt lat="44.90901" lon="5.33265">
        <ele>1411</ele>
        <time>2021-10-08T08:51:10Z</time>
      </trkpt>
      <trkpt lat="44.90899" lon="5.33268">
        <ele>1411</ele>
        <time>2021-10-08T08:51:11Z</time>
      </trkpt>
      <trkpt lat="44.90897" lon="5.33271">
        <ele>1411</ele>
        <time>2021-10-08T08:51:12Z</time>
      </trkpt>
      <trkpt lat="44.90894" lon="5.33274">
        <ele>1411.2</ele>
        <time>2021-10-08T08:51:13Z</time>
      </trkpt>
      <trkpt lat="44.90892" lon="5.33277">
        <ele>1411.4</ele>
        <time>2021-10-08T08:51:14Z</time>
      </trkpt>
      <trkpt lat="44.9089" lon="5.3328">
        <ele>1411.4</ele>
        <time>2021-10-08T08:51:15Z</time>
      </trkpt>
      <trkpt lat="44.90887" lon="5.33284">
        <ele>1411.4</ele>
        <time>2021-10-08T08:51:16Z</time>
      </trkpt>
      <trkpt lat="44.90885" lon="5.33288">
        <ele>1411.8</ele>
        <time>2021-10-08T08:51:17Z</time>
      </trkpt>
      <trkpt lat="44.90883" lon="5.33291">
        <ele>1412</ele>
        <time>2021-10-08T08:51:18Z</time>
      </trkpt>
      <trkpt lat="44.90882" lon="5.33295">
        <ele>1412</ele>
        <time>2021-10-08T08:51:19Z</time>
      </trkpt>
      <trkpt lat="44.9088" lon="5.33299">
        <ele>1412</ele>
        <time>2021-10-08T08:51:20Z</time>
      </trkpt>
      <trkpt lat="44.90879" lon="5.33303">
        <ele>1412</ele>
        <time>2021-10-08T08:51:21Z</time>
      </trkpt>
      <trkpt lat="44.90878" lon="5.33307">
        <ele>1412.8</ele>
        <time>2021-10-08T08:51:22Z</time>
      </trkpt>
      <trkpt lat="44.90876" lon="5.33312">
        <ele>1412.8</ele>
        <time>2021-10-08T08:51:23Z</time>
      </trkpt>
      <trkpt lat="44.90875" lon="5.33316">
        <ele>1412.8</ele>
        <time>2021-10-08T08:51:24Z</time>
      </trkpt>
      <trkpt lat="44.90874" lon="5.3332">
        <ele>1412.8</ele>
        <time>2021-10-08T08:51:25Z</time>
      </trkpt>
      <trkpt lat="44.90873" lon="5.33325">
        <ele>1413</ele>
        <time>2021-10-08T08:51:26Z</time>
      </trkpt>
      <trkpt lat="44.90871" lon="5.33329">
        <ele>1413</ele>
        <time>2021-10-08T08:51:27Z</time>
      </trkpt>
      <trkpt lat="44.9087" lon="5.33333">
        <ele>1413</ele>
        <time>2021-10-08T08:51:28Z</time>
      </trkpt>
      <trkpt lat="44.90868" lon="5.33337">
        <ele>1413</ele>
        <time>2021-10-08T08:51:29Z</time>
      </trkpt>
      <trkpt lat="44.90866" lon="5.33341">
        <ele>1413.2</ele>
        <time>2021-10-08T08:51:30Z</time>
      </trkpt>
      <trkpt lat="44.90864" lon="5.33344">
        <ele>1413.2</ele>
        <time>2021-10-08T08:51:31Z</time>
      </trkpt>
      <trkpt lat="44.90862" lon="5.33348">
        <ele>1413.2</ele>
        <time>2021-10-08T08:51:32Z</time>
      </trkpt>
      <trkpt lat="44.9086" lon="5.33351">
        <ele>1413.2</ele>
        <time>2021-10-08T08:51:33Z</time>
      </trkpt>
      <trkpt lat="44.90858" lon="5.33354">
        <ele>1413.6</ele>
        <time>2021-10-08T08:51:34Z</time>
      </trkpt>
      <trkpt lat="44.90856" lon="5.33357">
        <ele>1413.6</ele>
        <time>2021-10-08T08:51:35Z</time>
      </trkpt>
      <trkpt lat="44.90854" lon="5.3336">
        <ele>1413.6</ele>
        <time>2021-10-08T08:51:36Z</time>
      </trkpt>
      <trkpt lat="44.90852" lon="5.33362">
        <ele>1414.4</ele>
        <time>2021-10-08T08:51:37Z</time>
      </trkpt>
      <trkpt lat="44.90851" lon="5.33363">
        <ele>1414.6</ele>
        <time>2021-10-08T08:51:38Z</time>
      </trkpt>
      <trkpt lat="44.90849" lon="5.33364">
        <ele>1414.6</ele>
        <time>2021-10-08T08:51:39Z</time>
      </trkpt>
      <trkpt lat="44.90847" lon="5.33364">
        <ele>1414.6</ele>
        <time>2021-10-08T08:51:40Z</time>
      </trkpt>
      <trkpt lat="44.90846" lon="5.33365">
        <ele>1414.6</ele>
        <time>2021-10-08T08:51:41Z</time>
      </trkpt>
      <trkpt lat="44.90844" lon="5.33365">
        <ele>1414.6</ele>
        <time>2021-10-08T08:51:42Z</time>
      </trkpt>
      <trkpt lat="44.90843" lon="5.33364">
        <ele>1414.6</ele>
        <time>2021-10-08T08:51:43Z</time>
      </trkpt>
      <trkpt lat="44.90842" lon="5.33364">
        <ele>1414.6</ele>
        <time>2021-10-08T08:51:44Z</time>
      </trkpt>
      <trkpt lat="44.90841" lon="5.33364">
        <ele>1414.6</ele>
        <time>2021-10-08T08:51:45Z</time>
      </trkpt>
      <trkpt lat="44.90839" lon="5.33364">
        <ele>1415</ele>
        <time>2021-10-08T08:51:46Z</time>
      </trkpt>
      <trkpt lat="44.90837" lon="5.33364">
        <ele>1415</ele>
        <time>2021-10-08T08:51:47Z</time>
      </trkpt>
      <trkpt lat="44.90836" lon="5.33364">
        <ele>1415</ele>
        <time>2021-10-08T08:51:48Z</time>
      </trkpt>
      <trkpt lat="44.90834" lon="5.33364">
        <ele>1415</ele>
        <time>2021-10-08T08:51:49Z</time>
      </trkpt>
      <trkpt lat="44.90832" lon="5.33363">
        <ele>1415.2</ele>
        <time>2021-10-08T08:51:50Z</time>
      </trkpt>
      <trkpt lat="44.90831" lon="5.33363">
        <ele>1415.2</ele>
        <time>2021-10-08T08:51:51Z</time>
      </trkpt>
      <trkpt lat="44.9083" lon="5.33362">
        <ele>1415.2</ele>
        <time>2021-10-08T08:51:52Z</time>
      </trkpt>
      <trkpt lat="44.90829" lon="5.33362">
        <ele>1415.2</ele>
        <time>2021-10-08T08:51:53Z</time>
      </trkpt>
      <trkpt lat="44.90829" lon="5.33362">
        <ele>1414.8</ele>
        <time>2021-10-08T08:51:54Z</time>
      </trkpt>
      <trkpt lat="44.90826" lon="5.33367">
        <ele>1414.4</ele>
        <time>2021-10-08T08:53:42Z</time>
      </trkpt>
      <trkpt lat="44.90824" lon="5.33367">
        <ele>1414.4</ele>
        <time>2021-10-08T08:53:43Z</time>
      </trkpt>
      <trkpt lat="44.90822" lon="5.33367">
        <ele>1414.4</ele>
        <time>2021-10-08T08:53:44Z</time>
      </trkpt>
      <trkpt lat="44.90819" lon="5.33367">
        <ele>1414.4</ele>
        <time>2021-10-08T08:53:45Z</time>
      </trkpt>
      <trkpt lat="44.90816" lon="5.33367">
        <ele>1413.8</ele>
        <time>2021-10-08T08:53:46Z</time>
      </trkpt>
      <trkpt lat="44.90814" lon="5.33368">
        <ele>1413.8</ele>
        <time>2021-10-08T08:53:47Z</time>
      </trkpt>
      <trkpt lat="44.90812" lon="5.33369">
        <ele>1413.8</ele>
        <time>2021-10-08T08:53:48Z</time>
      </trkpt>
      <trkpt lat="44.9081" lon="5.3337">
        <ele>1413.8</ele>
        <time>2021-10-08T08:53:49Z</time>
      </trkpt>
      <trkpt lat="44.90808" lon="5.33371">
        <ele>1413.8</ele>
        <time>2021-10-08T08:53:50Z</time>
      </trkpt>
      <trkpt lat="44.90806" lon="5.33371">
        <ele>1413.8</ele>
        <time>2021-10-08T08:53:51Z</time>
      </trkpt>
      <trkpt lat="44.90803" lon="5.33371">
        <ele>1413.8</ele>
        <time>2021-10-08T08:53:52Z</time>
      </trkpt>
      <trkpt lat="44.908" lon="5.33371">
        <ele>1412.8</ele>
        <time>2021-10-08T08:53:53Z</time>
      </trkpt>
      <trkpt lat="44.90796" lon="5.33371">
        <ele>1411.8</ele>
        <time>2021-10-08T08:53:54Z</time>
      </trkpt>
      <trkpt lat="44.90792" lon="5.33369">
        <ele>1411.8</ele>
        <time>2021-10-08T08:53:55Z</time>
      </trkpt>
      <trkpt lat="44.90787" lon="5.33366">
        <ele>1411.8</ele>
        <time>2021-10-08T08:53:56Z</time>
      </trkpt>
      <trkpt lat="44.90783" lon="5.33364">
        <ele>1410.8</ele>
        <time>2021-10-08T08:53:57Z</time>
      </trkpt>
      <trkpt lat="44.90779" lon="5.33362">
        <ele>1411.6</ele>
        <time>2021-10-08T08:53:58Z</time>
      </trkpt>
      <trkpt lat="44.90776" lon="5.3336">
        <ele>1411.6</ele>
        <time>2021-10-08T08:53:59Z</time>
      </trkpt>
      <trkpt lat="44.90772" lon="5.33358">
        <ele>1411.6</ele>
        <time>2021-10-08T08:54:00Z</time>
      </trkpt>
      <trkpt lat="44.90768" lon="5.33358">
        <ele>1411.6</ele>
        <time>2021-10-08T08:54:01Z</time>
      </trkpt>
      <trkpt lat="44.90764" lon="5.33356">
        <ele>1411.2</ele>
        <time>2021-10-08T08:54:02Z</time>
      </trkpt>
      <trkpt lat="44.90761" lon="5.33355">
        <ele>1411.2</ele>
        <time>2021-10-08T08:54:03Z</time>
      </trkpt>
      <trkpt lat="44.90758" lon="5.33354">
        <ele>1411.2</ele>
        <time>2021-10-08T08:54:04Z</time>
      </trkpt>
      <trkpt lat="44.90755" lon="5.33353">
        <ele>1411.2</ele>
        <time>2021-10-08T08:54:05Z</time>
      </trkpt>
      <trkpt lat="44.90752" lon="5.33352">
        <ele>1411.8</ele>
        <time>2021-10-08T08:54:06Z</time>
      </trkpt>
      <trkpt lat="44.90749" lon="5.33351">
        <ele>1411.8</ele>
        <time>2021-10-08T08:54:07Z</time>
      </trkpt>
      <trkpt lat="44.90747" lon="5.3335">
        <ele>1411.8</ele>
        <time>2021-10-08T08:54:08Z</time>
      </trkpt>
      <trkpt lat="44.90744" lon="5.33348">
        <ele>1412</ele>
        <time>2021-10-08T08:54:09Z</time>
      </trkpt>
      <trkpt lat="44.90741" lon="5.33347">
        <ele>1412.2</ele>
        <time>2021-10-08T08:54:10Z</time>
      </trkpt>
      <trkpt lat="44.90739" lon="5.33346">
        <ele>1412.2</ele>
        <time>2021-10-08T08:54:11Z</time>
      </trkpt>
      <trkpt lat="44.90736" lon="5.33345">
        <ele>1412.2</ele>
        <time>2021-10-08T08:54:12Z</time>
      </trkpt>
      <trkpt lat="44.90734" lon="5.33345">
        <ele>1412.4</ele>
        <time>2021-10-08T08:54:13Z</time>
      </trkpt>
      <trkpt lat="44.90733" lon="5.33344">
        <ele>1412.4</ele>
        <time>2021-10-08T08:54:14Z</time>
      </trkpt>
      <trkpt lat="44.90731" lon="5.33343">
        <ele>1412.4</ele>
        <time>2021-10-08T08:54:15Z</time>
      </trkpt>
      <trkpt lat="44.90731" lon="5.33342">
        <ele>1412.4</ele>
        <time>2021-10-08T08:54:16Z</time>
      </trkpt>
      <trkpt lat="44.9073" lon="5.33341">
        <ele>1412.6</ele>
        <time>2021-10-08T08:54:17Z</time>
      </trkpt>
      <trkpt lat="44.9073" lon="5.33342">
        <ele>1412.8</ele>
        <time>2021-10-08T08:54:18Z</time>
      </trkpt>
      <trkpt lat="44.90733" lon="5.33338">
        <ele>1412.4</ele>
        <time>2021-10-08T08:54:31Z</time>
      </trkpt>
      <trkpt lat="44.90735" lon="5.33337">
        <ele>1412.4</ele>
        <time>2021-10-08T08:54:32Z</time>
      </trkpt>
      <trkpt lat="44.90736" lon="5.33335">
        <ele>1411.8</ele>
        <time>2021-10-08T08:54:33Z</time>
      </trkpt>
      <trkpt lat="44.90738" lon="5.33333">
        <ele>1412</ele>
        <time>2021-10-08T08:54:34Z</time>
      </trkpt>
      <trkpt lat="44.9074" lon="5.33331">
        <ele>1412</ele>
        <time>2021-10-08T08:54:35Z</time>
      </trkpt>
      <trkpt lat="44.90742" lon="5.33329">
        <ele>1412</ele>
        <time>2021-10-08T08:54:36Z</time>
      </trkpt>
      <trkpt lat="44.90743" lon="5.33327">
        <ele>1411.8</ele>
        <time>2021-10-08T08:54:37Z</time>
      </trkpt>
      <trkpt lat="44.90745" lon="5.33325">
        <ele>1411.4</ele>
        <time>2021-10-08T08:54:38Z</time>
      </trkpt>
      <trkpt lat="44.90747" lon="5.33322">
        <ele>1411.4</ele>
        <time>2021-10-08T08:54:39Z</time>
      </trkpt>
      <trkpt lat="44.90748" lon="5.33318">
        <ele>1411.4</ele>
        <time>2021-10-08T08:54:40Z</time>
      </trkpt>
      <trkpt lat="44.90749" lon="5.33314">
        <ele>1410.4</ele>
        <time>2021-10-08T08:54:41Z</time>
      </trkpt>
      <trkpt lat="44.90751" lon="5.3331">
        <ele>1411.2</ele>
        <time>2021-10-08T08:54:42Z</time>
      </trkpt>
      <trkpt lat="44.90752" lon="5.33307">
        <ele>1411.2</ele>
        <time>2021-10-08T08:54:43Z</time>
      </trkpt>
      <trkpt lat="44.90753" lon="5.33303">
        <ele>1411.2</ele>
        <time>2021-10-08T08:54:44Z</time>
      </trkpt>
      <trkpt lat="44.90754" lon="5.33298">
        <ele>1410.2</ele>
        <time>2021-10-08T08:54:45Z</time>
      </trkpt>
      <trkpt lat="44.90754" lon="5.33294">
        <ele>1410.2</ele>
        <time>2021-10-08T08:54:46Z</time>
      </trkpt>
      <trkpt lat="44.90754" lon="5.3329">
        <ele>1410.2</ele>
        <time>2021-10-08T08:54:47Z</time>
      </trkpt>
      <trkpt lat="44.90754" lon="5.33286">
        <ele>1410.2</ele>
        <time>2021-10-08T08:54:48Z</time>
      </trkpt>
      <trkpt lat="44.90753" lon="5.33282">
        <ele>1409.8</ele>
        <time>2021-10-08T08:54:49Z</time>
      </trkpt>
      <trkpt lat="44.90752" lon="5.33277">
        <ele>1408.8</ele>
        <time>2021-10-08T08:54:50Z</time>
      </trkpt>
      <trkpt lat="44.90751" lon="5.33273">
        <ele>1408.8</ele>
        <time>2021-10-08T08:54:51Z</time>
      </trkpt>
      <trkpt lat="44.9075" lon="5.33269">
        <ele>1408.8</ele>
        <time>2021-10-08T08:54:52Z</time>
      </trkpt>
      <trkpt lat="44.90749" lon="5.33264">
        <ele>1408.4</ele>
        <time>2021-10-08T08:54:53Z</time>
      </trkpt>
      <trkpt lat="44.90748" lon="5.3326">
        <ele>1408</ele>
        <time>2021-10-08T08:54:54Z</time>
      </trkpt>
      <trkpt lat="44.90747" lon="5.33256">
        <ele>1408</ele>
        <time>2021-10-08T08:54:55Z</time>
      </trkpt>
      <trkpt lat="44.90746" lon="5.33252">
        <ele>1408</ele>
        <time>2021-10-08T08:54:56Z</time>
      </trkpt>
      <trkpt lat="44.90745" lon="5.33248">
        <ele>1407</ele>
        <time>2021-10-08T08:54:57Z</time>
      </trkpt>
      <trkpt lat="44.90743" lon="5.33244">
        <ele>1406.8</ele>
        <time>2021-10-08T08:54:58Z</time>
      </trkpt>
      <trkpt lat="44.90742" lon="5.33239">
        <ele>1406.8</ele>
        <time>2021-10-08T08:54:59Z</time>
      </trkpt>
      <trkpt lat="44.9074" lon="5.33234">
        <ele>1406.8</ele>
        <time>2021-10-08T08:55:00Z</time>
      </trkpt>
      <trkpt lat="44.90739" lon="5.33228">
        <ele>1405.8</ele>
        <time>2021-10-08T08:55:01Z</time>
      </trkpt>
      <trkpt lat="44.90737" lon="5.33223">
        <ele>1405.8</ele>
        <time>2021-10-08T08:55:02Z</time>
      </trkpt>
      <trkpt lat="44.90736" lon="5.33219">
        <ele>1404.6</ele>
        <time>2021-10-08T08:55:03Z</time>
      </trkpt>
      <trkpt lat="44.90734" lon="5.33214">
        <ele>1404.6</ele>
        <time>2021-10-08T08:55:04Z</time>
      </trkpt>
      <trkpt lat="44.90732" lon="5.33208">
        <ele>1403.6</ele>
        <time>2021-10-08T08:55:05Z</time>
      </trkpt>
      <trkpt lat="44.9073" lon="5.33202">
        <ele>1400.6</ele>
        <time>2021-10-08T08:55:06Z</time>
      </trkpt>
      <trkpt lat="44.90729" lon="5.33196">
        <ele>1400.6</ele>
        <time>2021-10-08T08:55:07Z</time>
      </trkpt>
      <trkpt lat="44.90727" lon="5.3319">
        <ele>1400.6</ele>
        <time>2021-10-08T08:55:08Z</time>
      </trkpt>
      <trkpt lat="44.90725" lon="5.33184">
        <ele>1400.6</ele>
        <time>2021-10-08T08:55:09Z</time>
      </trkpt>
      <trkpt lat="44.90723" lon="5.33178">
        <ele>1398.2</ele>
        <time>2021-10-08T08:55:10Z</time>
      </trkpt>
      <trkpt lat="44.90722" lon="5.33171">
        <ele>1398.2</ele>
        <time>2021-10-08T08:55:11Z</time>
      </trkpt>
      <trkpt lat="44.90721" lon="5.33164">
        <ele>1398.2</ele>
        <time>2021-10-08T08:55:12Z</time>
      </trkpt>
      <trkpt lat="44.9072" lon="5.33157">
        <ele>1397.2</ele>
        <time>2021-10-08T08:55:13Z</time>
      </trkpt>
      <trkpt lat="44.90721" lon="5.3315">
        <ele>1396.8</ele>
        <time>2021-10-08T08:55:14Z</time>
      </trkpt>
      <trkpt lat="44.90722" lon="5.33141">
        <ele>1396.8</ele>
        <time>2021-10-08T08:55:15Z</time>
      </trkpt>
      <trkpt lat="44.90723" lon="5.33132">
        <ele>1396.8</ele>
        <time>2021-10-08T08:55:16Z</time>
      </trkpt>
      <trkpt lat="44.90724" lon="5.33123">
        <ele>1395.8</ele>
        <time>2021-10-08T08:55:17Z</time>
      </trkpt>
      <trkpt lat="44.90725" lon="5.33113">
        <ele>1391.4</ele>
        <time>2021-10-08T08:55:18Z</time>
      </trkpt>
      <trkpt lat="44.90725" lon="5.33104">
        <ele>1391.4</ele>
        <time>2021-10-08T08:55:19Z</time>
      </trkpt>
      <trkpt lat="44.90725" lon="5.33093">
        <ele>1391.4</ele>
        <time>2021-10-08T08:55:20Z</time>
      </trkpt>
      <trkpt lat="44.90724" lon="5.33082">
        <ele>1390.4</ele>
        <time>2021-10-08T08:55:21Z</time>
      </trkpt>
      <trkpt lat="44.90723" lon="5.33072">
        <ele>1389.4</ele>
        <time>2021-10-08T08:55:22Z</time>
      </trkpt>
      <trkpt lat="44.90722" lon="5.33063">
        <ele>1389.4</ele>
        <time>2021-10-08T08:55:23Z</time>
      </trkpt>
      <trkpt lat="44.90721" lon="5.33054">
        <ele>1389.4</ele>
        <time>2021-10-08T08:55:24Z</time>
      </trkpt>
      <trkpt lat="44.90719" lon="5.33045">
        <ele>1389.4</ele>
        <time>2021-10-08T08:55:25Z</time>
      </trkpt>
      <trkpt lat="44.90717" lon="5.33037">
        <ele>1390.6</ele>
        <time>2021-10-08T08:55:26Z</time>
      </trkpt>
      <trkpt lat="44.90716" lon="5.33031">
        <ele>1390.6</ele>
        <time>2021-10-08T08:55:27Z</time>
      </trkpt>
      <trkpt lat="44.90715" lon="5.33025">
        <ele>1390.6</ele>
        <time>2021-10-08T08:55:28Z</time>
      </trkpt>
      <trkpt lat="44.90713" lon="5.3302">
        <ele>1391.6</ele>
        <time>2021-10-08T08:55:29Z</time>
      </trkpt>
      <trkpt lat="44.90713" lon="5.33015">
        <ele>1392.4</ele>
        <time>2021-10-08T08:55:30Z</time>
      </trkpt>
      <trkpt lat="44.90711" lon="5.33011">
        <ele>1392.4</ele>
        <time>2021-10-08T08:55:31Z</time>
      </trkpt>
      <trkpt lat="44.9071" lon="5.33006">
        <ele>1392.4</ele>
        <time>2021-10-08T08:55:32Z</time>
      </trkpt>
      <trkpt lat="44.90709" lon="5.33002">
        <ele>1392.4</ele>
        <time>2021-10-08T08:55:33Z</time>
      </trkpt>
      <trkpt lat="44.90708" lon="5.32997">
        <ele>1392.6</ele>
        <time>2021-10-08T08:55:34Z</time>
      </trkpt>
      <trkpt lat="44.90707" lon="5.32993">
        <ele>1392.6</ele>
        <time>2021-10-08T08:55:35Z</time>
      </trkpt>
      <trkpt lat="44.90706" lon="5.32988">
        <ele>1392.6</ele>
        <time>2021-10-08T08:55:36Z</time>
      </trkpt>
      <trkpt lat="44.90705" lon="5.32984">
        <ele>1392.6</ele>
        <time>2021-10-08T08:55:37Z</time>
      </trkpt>
      <trkpt lat="44.90704" lon="5.32979">
        <ele>1392.2</ele>
        <time>2021-10-08T08:55:38Z</time>
      </trkpt>
      <trkpt lat="44.90703" lon="5.32975">
        <ele>1392.2</ele>
        <time>2021-10-08T08:55:39Z</time>
      </trkpt>
      <trkpt lat="44.90702" lon="5.32971">
        <ele>1392.2</ele>
        <time>2021-10-08T08:55:40Z</time>
      </trkpt>
      <trkpt lat="44.90701" lon="5.32967">
        <ele>1392.8</ele>
        <time>2021-10-08T08:55:41Z</time>
      </trkpt>
      <trkpt lat="44.907" lon="5.32963">
        <ele>1393.2</ele>
        <time>2021-10-08T08:55:42Z</time>
      </trkpt>
      <trkpt lat="44.90699" lon="5.32959">
        <ele>1393.2</ele>
        <time>2021-10-08T08:55:43Z</time>
      </trkpt>
      <trkpt lat="44.90698" lon="5.32955">
        <ele>1393.2</ele>
        <time>2021-10-08T08:55:44Z</time>
      </trkpt>
      <trkpt lat="44.90697" lon="5.32951">
        <ele>1394</ele>
        <time>2021-10-08T08:55:45Z</time>
      </trkpt>
      <trkpt lat="44.90696" lon="5.32948">
        <ele>1393.4</ele>
        <time>2021-10-08T08:55:46Z</time>
      </trkpt>
      <trkpt lat="44.90695" lon="5.32944">
        <ele>1393.4</ele>
        <time>2021-10-08T08:55:47Z</time>
      </trkpt>
      <trkpt lat="44.90695" lon="5.3294">
        <ele>1393.4</ele>
        <time>2021-10-08T08:55:48Z</time>
      </trkpt>
      <trkpt lat="44.90694" lon="5.32936">
        <ele>1393.8</ele>
        <time>2021-10-08T08:55:49Z</time>
      </trkpt>
      <trkpt lat="44.90693" lon="5.32932">
        <ele>1393.8</ele>
        <time>2021-10-08T08:55:50Z</time>
      </trkpt>
      <trkpt lat="44.90692" lon="5.32928">
        <ele>1393.8</ele>
        <time>2021-10-08T08:55:51Z</time>
      </trkpt>
      <trkpt lat="44.90692" lon="5.32924">
        <ele>1393.8</ele>
        <time>2021-10-08T08:55:52Z</time>
      </trkpt>
      <trkpt lat="44.90692" lon="5.32919">
        <ele>1393.8</ele>
        <time>2021-10-08T08:55:53Z</time>
      </trkpt>
      <trkpt lat="44.90692" lon="5.32915">
        <ele>1393.8</ele>
        <time>2021-10-08T08:55:54Z</time>
      </trkpt>
      <trkpt lat="44.90692" lon="5.3291">
        <ele>1393.8</ele>
        <time>2021-10-08T08:55:55Z</time>
      </trkpt>
      <trkpt lat="44.90692" lon="5.32905">
        <ele>1393.8</ele>
        <time>2021-10-08T08:55:56Z</time>
      </trkpt>
      <trkpt lat="44.90692" lon="5.329">
        <ele>1393.8</ele>
        <time>2021-10-08T08:55:57Z</time>
      </trkpt>
      <trkpt lat="44.90692" lon="5.32895">
        <ele>1393.4</ele>
        <time>2021-10-08T08:55:58Z</time>
      </trkpt>
      <trkpt lat="44.90693" lon="5.3289">
        <ele>1393.4</ele>
        <time>2021-10-08T08:55:59Z</time>
      </trkpt>
      <trkpt lat="44.90693" lon="5.32884">
        <ele>1393.4</ele>
        <time>2021-10-08T08:56:00Z</time>
      </trkpt>
      <trkpt lat="44.90692" lon="5.32878">
        <ele>1393.4</ele>
        <time>2021-10-08T08:56:01Z</time>
      </trkpt>
      <trkpt lat="44.90692" lon="5.32872">
        <ele>1392.2</ele>
        <time>2021-10-08T08:56:02Z</time>
      </trkpt>
      <trkpt lat="44.90691" lon="5.32867">
        <ele>1392.2</ele>
        <time>2021-10-08T08:56:03Z</time>
      </trkpt>
      <trkpt lat="44.9069" lon="5.3286">
        <ele>1392.2</ele>
        <time>2021-10-08T08:56:04Z</time>
      </trkpt>
      <trkpt lat="44.90689" lon="5.32853">
        <ele>1391.2</ele>
        <time>2021-10-08T08:56:05Z</time>
      </trkpt>
      <trkpt lat="44.90689" lon="5.32847">
        <ele>1390.8</ele>
        <time>2021-10-08T08:56:06Z</time>
      </trkpt>
      <trkpt lat="44.90688" lon="5.3284">
        <ele>1390.8</ele>
        <time>2021-10-08T08:56:07Z</time>
      </trkpt>
      <trkpt lat="44.90688" lon="5.32834">
        <ele>1390.8</ele>
        <time>2021-10-08T08:56:08Z</time>
      </trkpt>
      <trkpt lat="44.90687" lon="5.32829">
        <ele>1390.8</ele>
        <time>2021-10-08T08:56:09Z</time>
      </trkpt>
      <trkpt lat="44.90686" lon="5.32822">
        <ele>1388.8</ele>
        <time>2021-10-08T08:56:10Z</time>
      </trkpt>
      <trkpt lat="44.90685" lon="5.32816">
        <ele>1388.8</ele>
        <time>2021-10-08T08:56:11Z</time>
      </trkpt>
      <trkpt lat="44.90684" lon="5.32809">
        <ele>1388.8</ele>
        <time>2021-10-08T08:56:12Z</time>
      </trkpt>
      <trkpt lat="44.90684" lon="5.32804">
        <ele>1387.8</ele>
        <time>2021-10-08T08:56:13Z</time>
      </trkpt>
      <trkpt lat="44.90683" lon="5.32798">
        <ele>1387.6</ele>
        <time>2021-10-08T08:56:14Z</time>
      </trkpt>
      <trkpt lat="44.90683" lon="5.32793">
        <ele>1387.6</ele>
        <time>2021-10-08T08:56:15Z</time>
      </trkpt>
      <trkpt lat="44.90684" lon="5.32788">
        <ele>1387.6</ele>
        <time>2021-10-08T08:56:16Z</time>
      </trkpt>
      <trkpt lat="44.90684" lon="5.32784">
        <ele>1387.6</ele>
        <time>2021-10-08T08:56:17Z</time>
      </trkpt>
      <trkpt lat="44.90684" lon="5.32781">
        <ele>1387.2</ele>
        <time>2021-10-08T08:56:18Z</time>
      </trkpt>
      <trkpt lat="44.90685" lon="5.32777">
        <ele>1387.2</ele>
        <time>2021-10-08T08:56:19Z</time>
      </trkpt>
      <trkpt lat="44.90686" lon="5.32774">
        <ele>1387.2</ele>
        <time>2021-10-08T08:56:20Z</time>
      </trkpt>
      <trkpt lat="44.90687" lon="5.3277">
        <ele>1387.2</ele>
        <time>2021-10-08T08:56:21Z</time>
      </trkpt>
      <trkpt lat="44.90688" lon="5.32766">
        <ele>1386.6</ele>
        <time>2021-10-08T08:56:22Z</time>
      </trkpt>
      <trkpt lat="44.90689" lon="5.32763">
        <ele>1386.6</ele>
        <time>2021-10-08T08:56:23Z</time>
      </trkpt>
      <trkpt lat="44.9069" lon="5.32759">
        <ele>1386.6</ele>
        <time>2021-10-08T08:56:24Z</time>
      </trkpt>
      <trkpt lat="44.90689" lon="5.32756">
        <ele>1386.6</ele>
        <time>2021-10-08T08:56:25Z</time>
      </trkpt>
      <trkpt lat="44.90688" lon="5.32754">
        <ele>1386.4</ele>
        <time>2021-10-08T08:56:26Z</time>
      </trkpt>
      <trkpt lat="44.90687" lon="5.32752">
        <ele>1386.4</ele>
        <time>2021-10-08T08:56:27Z</time>
      </trkpt>
      <trkpt lat="44.90686" lon="5.32749">
        <ele>1386.4</ele>
        <time>2021-10-08T08:56:28Z</time>
      </trkpt>
      <trkpt lat="44.90684" lon="5.32747">
        <ele>1386.4</ele>
        <time>2021-10-08T08:56:29Z</time>
      </trkpt>
      <trkpt lat="44.90682" lon="5.32746">
        <ele>1386.6</ele>
        <time>2021-10-08T08:56:30Z</time>
      </trkpt>
      <trkpt lat="44.9068" lon="5.32746">
        <ele>1386.6</ele>
        <time>2021-10-08T08:56:31Z</time>
      </trkpt>
      <trkpt lat="44.90678" lon="5.32747">
        <ele>1386.6</ele>
        <time>2021-10-08T08:56:32Z</time>
      </trkpt>
      <trkpt lat="44.90676" lon="5.32748">
        <ele>1386.6</ele>
        <time>2021-10-08T08:56:33Z</time>
      </trkpt>
      <trkpt lat="44.90675" lon="5.32749">
        <ele>1386.6</ele>
        <time>2021-10-08T08:56:34Z</time>
      </trkpt>
      <trkpt lat="44.90674" lon="5.3275">
        <ele>1387.6</ele>
        <time>2021-10-08T08:56:35Z</time>
      </trkpt>
      <trkpt lat="44.90672" lon="5.32751">
        <ele>1387.6</ele>
        <time>2021-10-08T08:56:36Z</time>
      </trkpt>
      <trkpt lat="44.90671" lon="5.32752">
        <ele>1387.6</ele>
        <time>2021-10-08T08:56:37Z</time>
      </trkpt>
      <trkpt lat="44.9067" lon="5.32753">
        <ele>1388</ele>
        <time>2021-10-08T08:56:38Z</time>
      </trkpt>
      <trkpt lat="44.90668" lon="5.32754">
        <ele>1388</ele>
        <time>2021-10-08T08:56:39Z</time>
      </trkpt>
      <trkpt lat="44.90667" lon="5.32754">
        <ele>1388</ele>
        <time>2021-10-08T08:56:40Z</time>
      </trkpt>
      <trkpt lat="44.90666" lon="5.32755">
        <ele>1388</ele>
        <time>2021-10-08T08:56:41Z</time>
      </trkpt>
      <trkpt lat="44.90664" lon="5.32756">
        <ele>1387.8</ele>
        <time>2021-10-08T08:56:42Z</time>
      </trkpt>
      <trkpt lat="44.90663" lon="5.32757">
        <ele>1387.8</ele>
        <time>2021-10-08T08:56:43Z</time>
      </trkpt>
      <trkpt lat="44.90662" lon="5.32758">
        <ele>1387.8</ele>
        <time>2021-10-08T08:56:44Z</time>
      </trkpt>
      <trkpt lat="44.90661" lon="5.3276">
        <ele>1387.8</ele>
        <time>2021-10-08T08:56:45Z</time>
      </trkpt>
      <trkpt lat="44.90659" lon="5.32761">
        <ele>1388.6</ele>
        <time>2021-10-08T08:56:46Z</time>
      </trkpt>
      <trkpt lat="44.90658" lon="5.32761">
        <ele>1388.6</ele>
        <time>2021-10-08T08:56:47Z</time>
      </trkpt>
      <trkpt lat="44.90657" lon="5.32762">
        <ele>1388.6</ele>
        <time>2021-10-08T08:56:48Z</time>
      </trkpt>
      <trkpt lat="44.90655" lon="5.32763">
        <ele>1388.4</ele>
        <time>2021-10-08T08:56:49Z</time>
      </trkpt>
      <trkpt lat="44.90654" lon="5.32764">
        <ele>1388.6</ele>
        <time>2021-10-08T08:56:50Z</time>
      </trkpt>
      <trkpt lat="44.90653" lon="5.32765">
        <ele>1388.6</ele>
        <time>2021-10-08T08:56:51Z</time>
      </trkpt>
      <trkpt lat="44.90651" lon="5.32766">
        <ele>1388.6</ele>
        <time>2021-10-08T08:56:52Z</time>
      </trkpt>
      <trkpt lat="44.9065" lon="5.32767">
        <ele>1388.6</ele>
        <time>2021-10-08T08:56:53Z</time>
      </trkpt>
      <trkpt lat="44.90648" lon="5.32769">
        <ele>1388.8</ele>
        <time>2021-10-08T08:56:54Z</time>
      </trkpt>
      <trkpt lat="44.90646" lon="5.3277">
        <ele>1388.8</ele>
        <time>2021-10-08T08:56:55Z</time>
      </trkpt>
      <trkpt lat="44.90644" lon="5.32771">
        <ele>1388.8</ele>
        <time>2021-10-08T08:56:56Z</time>
      </trkpt>
      <trkpt lat="44.90643" lon="5.32773">
        <ele>1388.8</ele>
        <time>2021-10-08T08:56:57Z</time>
      </trkpt>
      <trkpt lat="44.90641" lon="5.32774">
        <ele>1389.6</ele>
        <time>2021-10-08T08:56:58Z</time>
      </trkpt>
      <trkpt lat="44.90639" lon="5.32775">
        <ele>1389.6</ele>
        <time>2021-10-08T08:56:59Z</time>
      </trkpt>
      <trkpt lat="44.90637" lon="5.32776">
        <ele>1389.6</ele>
        <time>2021-10-08T08:57:00Z</time>
      </trkpt>
      <trkpt lat="44.90636" lon="5.32776">
        <ele>1389.6</ele>
        <time>2021-10-08T08:57:01Z</time>
      </trkpt>
      <trkpt lat="44.90634" lon="5.32778">
        <ele>1389.8</ele>
        <time>2021-10-08T08:57:02Z</time>
      </trkpt>
      <trkpt lat="44.90632" lon="5.32779">
        <ele>1389.8</ele>
        <time>2021-10-08T08:57:03Z</time>
      </trkpt>
      <trkpt lat="44.9063" lon="5.3278">
        <ele>1389.8</ele>
        <time>2021-10-08T08:57:04Z</time>
      </trkpt>
      <trkpt lat="44.90628" lon="5.3278">
        <ele>1390.6</ele>
        <time>2021-10-08T08:57:05Z</time>
      </trkpt>
      <trkpt lat="44.90627" lon="5.32781">
        <ele>1390.4</ele>
        <time>2021-10-08T08:57:06Z</time>
      </trkpt>
      <trkpt lat="44.90625" lon="5.32782">
        <ele>1390.4</ele>
        <time>2021-10-08T08:57:07Z</time>
      </trkpt>
      <trkpt lat="44.90623" lon="5.32782">
        <ele>1390.4</ele>
        <time>2021-10-08T08:57:08Z</time>
      </trkpt>
      <trkpt lat="44.90621" lon="5.32782">
        <ele>1390.4</ele>
        <time>2021-10-08T08:57:09Z</time>
      </trkpt>
      <trkpt lat="44.9062" lon="5.32782">
        <ele>1391</ele>
        <time>2021-10-08T08:57:10Z</time>
      </trkpt>
      <trkpt lat="44.90618" lon="5.32783">
        <ele>1391</ele>
        <time>2021-10-08T08:57:11Z</time>
      </trkpt>
      <trkpt lat="44.90616" lon="5.32783">
        <ele>1391</ele>
        <time>2021-10-08T08:57:12Z</time>
      </trkpt>
      <trkpt lat="44.90614" lon="5.32783">
        <ele>1392</ele>
        <time>2021-10-08T08:57:13Z</time>
      </trkpt>
      <trkpt lat="44.90613" lon="5.32783">
        <ele>1392.2</ele>
        <time>2021-10-08T08:57:14Z</time>
      </trkpt>
      <trkpt lat="44.90611" lon="5.32782">
        <ele>1392.2</ele>
        <time>2021-10-08T08:57:15Z</time>
      </trkpt>
      <trkpt lat="44.90609" lon="5.32782">
        <ele>1392.2</ele>
        <time>2021-10-08T08:57:16Z</time>
      </trkpt>
      <trkpt lat="44.90607" lon="5.32782">
        <ele>1392.2</ele>
        <time>2021-10-08T08:57:17Z</time>
      </trkpt>
      <trkpt lat="44.90606" lon="5.32781">
        <ele>1391.8</ele>
        <time>2021-10-08T08:57:18Z</time>
      </trkpt>
      <trkpt lat="44.90604" lon="5.32781">
        <ele>1391.8</ele>
        <time>2021-10-08T08:57:19Z</time>
      </trkpt>
      <trkpt lat="44.90602" lon="5.32781">
        <ele>1391.8</ele>
        <time>2021-10-08T08:57:20Z</time>
      </trkpt>
      <trkpt lat="44.906" lon="5.32781">
        <ele>1392.6</ele>
        <time>2021-10-08T08:57:21Z</time>
      </trkpt>
      <trkpt lat="44.90598" lon="5.32781">
        <ele>1392</ele>
        <time>2021-10-08T08:57:22Z</time>
      </trkpt>
      <trkpt lat="44.90596" lon="5.3278">
        <ele>1392</ele>
        <time>2021-10-08T08:57:23Z</time>
      </trkpt>
      <trkpt lat="44.90595" lon="5.3278">
        <ele>1392</ele>
        <time>2021-10-08T08:57:24Z</time>
      </trkpt>
      <trkpt lat="44.90593" lon="5.3278">
        <ele>1392.8</ele>
        <time>2021-10-08T08:57:25Z</time>
      </trkpt>
      <trkpt lat="44.90591" lon="5.32779">
        <ele>1392.8</ele>
        <time>2021-10-08T08:57:26Z</time>
      </trkpt>
      <trkpt lat="44.90589" lon="5.32779">
        <ele>1392.8</ele>
        <time>2021-10-08T08:57:27Z</time>
      </trkpt>
      <trkpt lat="44.90587" lon="5.32779">
        <ele>1392.8</ele>
        <time>2021-10-08T08:57:28Z</time>
      </trkpt>
      <trkpt lat="44.90585" lon="5.32779">
        <ele>1393.8</ele>
        <time>2021-10-08T08:57:29Z</time>
      </trkpt>
      <trkpt lat="44.90583" lon="5.32779">
        <ele>1393.8</ele>
        <time>2021-10-08T08:57:30Z</time>
      </trkpt>
      <trkpt lat="44.90582" lon="5.32779">
        <ele>1393.8</ele>
        <time>2021-10-08T08:57:31Z</time>
      </trkpt>
      <trkpt lat="44.9058" lon="5.32779">
        <ele>1393.8</ele>
        <time>2021-10-08T08:57:32Z</time>
      </trkpt>
      <trkpt lat="44.90578" lon="5.32779">
        <ele>1393.8</ele>
        <time>2021-10-08T08:57:33Z</time>
      </trkpt>
      <trkpt lat="44.90577" lon="5.32779">
        <ele>1394.6</ele>
        <time>2021-10-08T08:57:34Z</time>
      </trkpt>
      <trkpt lat="44.90575" lon="5.32778">
        <ele>1394.6</ele>
        <time>2021-10-08T08:57:35Z</time>
      </trkpt>
      <trkpt lat="44.90573" lon="5.32778">
        <ele>1394.6</ele>
        <time>2021-10-08T08:57:36Z</time>
      </trkpt>
      <trkpt lat="44.90572" lon="5.32778">
        <ele>1395.4</ele>
        <time>2021-10-08T08:57:37Z</time>
      </trkpt>
      <trkpt lat="44.90571" lon="5.32778">
        <ele>1396</ele>
        <time>2021-10-08T08:57:38Z</time>
      </trkpt>
      <trkpt lat="44.90569" lon="5.32778">
        <ele>1396</ele>
        <time>2021-10-08T08:57:39Z</time>
      </trkpt>
      <trkpt lat="44.90568" lon="5.32777">
        <ele>1396</ele>
        <time>2021-10-08T08:57:40Z</time>
      </trkpt>
      <trkpt lat="44.90566" lon="5.32777">
        <ele>1396.8</ele>
        <time>2021-10-08T08:57:41Z</time>
      </trkpt>
      <trkpt lat="44.90565" lon="5.32777">
        <ele>1396.8</ele>
        <time>2021-10-08T08:57:42Z</time>
      </trkpt>
      <trkpt lat="44.90564" lon="5.32776">
        <ele>1396.8</ele>
        <time>2021-10-08T08:57:43Z</time>
      </trkpt>
      <trkpt lat="44.90562" lon="5.32776">
        <ele>1396.8</ele>
        <time>2021-10-08T08:57:44Z</time>
      </trkpt>
      <trkpt lat="44.90561" lon="5.32776">
        <ele>1397.6</ele>
        <time>2021-10-08T08:57:45Z</time>
      </trkpt>
      <trkpt lat="44.90559" lon="5.32776">
        <ele>1397.2</ele>
        <time>2021-10-08T08:57:46Z</time>
      </trkpt>
      <trkpt lat="44.90558" lon="5.32775">
        <ele>1397.2</ele>
        <time>2021-10-08T08:57:47Z</time>
      </trkpt>
      <trkpt lat="44.90557" lon="5.32776">
        <ele>1397.2</ele>
        <time>2021-10-08T08:57:48Z</time>
      </trkpt>
      <trkpt lat="44.90555" lon="5.32776">
        <ele>1397.8</ele>
        <time>2021-10-08T08:57:49Z</time>
      </trkpt>
      <trkpt lat="44.90553" lon="5.32777">
        <ele>1397.8</ele>
        <time>2021-10-08T08:57:50Z</time>
      </trkpt>
      <trkpt lat="44.90552" lon="5.32778">
        <ele>1397.8</ele>
        <time>2021-10-08T08:57:51Z</time>
      </trkpt>
      <trkpt lat="44.9055" lon="5.32778">
        <ele>1397.8</ele>
        <time>2021-10-08T08:57:52Z</time>
      </trkpt>
      <trkpt lat="44.90548" lon="5.32778">
        <ele>1397.8</ele>
        <time>2021-10-08T08:57:53Z</time>
      </trkpt>
      <trkpt lat="44.90547" lon="5.32778">
        <ele>1398.8</ele>
        <time>2021-10-08T08:57:54Z</time>
      </trkpt>
      <trkpt lat="44.90545" lon="5.32778">
        <ele>1398.8</ele>
        <time>2021-10-08T08:57:55Z</time>
      </trkpt>
      <trkpt lat="44.90543" lon="5.32778">
        <ele>1398.8</ele>
        <time>2021-10-08T08:57:56Z</time>
      </trkpt>
      <trkpt lat="44.90542" lon="5.32778">
        <ele>1398.4</ele>
        <time>2021-10-08T08:57:57Z</time>
      </trkpt>
      <trkpt lat="44.9054" lon="5.32778">
        <ele>1398.4</ele>
        <time>2021-10-08T08:57:58Z</time>
      </trkpt>
      <trkpt lat="44.90539" lon="5.32777">
        <ele>1398.4</ele>
        <time>2021-10-08T08:57:59Z</time>
      </trkpt>
      <trkpt lat="44.90537" lon="5.32777">
        <ele>1398.4</ele>
        <time>2021-10-08T08:58:00Z</time>
      </trkpt>
      <trkpt lat="44.90536" lon="5.32776">
        <ele>1398.8</ele>
        <time>2021-10-08T08:58:01Z</time>
      </trkpt>
      <trkpt lat="44.90534" lon="5.32775">
        <ele>1398.8</ele>
        <time>2021-10-08T08:58:02Z</time>
      </trkpt>
      <trkpt lat="44.90533" lon="5.32774">
        <ele>1398.8</ele>
        <time>2021-10-08T08:58:03Z</time>
      </trkpt>
      <trkpt lat="44.90531" lon="5.32774">
        <ele>1398.8</ele>
        <time>2021-10-08T08:58:04Z</time>
      </trkpt>
      <trkpt lat="44.90529" lon="5.32773">
        <ele>1399</ele>
        <time>2021-10-08T08:58:05Z</time>
      </trkpt>
      <trkpt lat="44.90528" lon="5.32772">
        <ele>1399</ele>
        <time>2021-10-08T08:58:06Z</time>
      </trkpt>
      <trkpt lat="44.90526" lon="5.32771">
        <ele>1399</ele>
        <time>2021-10-08T08:58:07Z</time>
      </trkpt>
      <trkpt lat="44.90524" lon="5.3277">
        <ele>1399</ele>
        <time>2021-10-08T08:58:08Z</time>
      </trkpt>
      <trkpt lat="44.90523" lon="5.32769">
        <ele>1399</ele>
        <time>2021-10-08T08:58:09Z</time>
      </trkpt>
      <trkpt lat="44.90521" lon="5.32768">
        <ele>1399.4</ele>
        <time>2021-10-08T08:58:10Z</time>
      </trkpt>
      <trkpt lat="44.9052" lon="5.32767">
        <ele>1399.4</ele>
        <time>2021-10-08T08:58:11Z</time>
      </trkpt>
      <trkpt lat="44.90519" lon="5.32765">
        <ele>1399.4</ele>
        <time>2021-10-08T08:58:12Z</time>
      </trkpt>
      <trkpt lat="44.90517" lon="5.32764">
        <ele>1399.4</ele>
        <time>2021-10-08T08:58:13Z</time>
      </trkpt>
      <trkpt lat="44.90516" lon="5.32762">
        <ele>1399.8</ele>
        <time>2021-10-08T08:58:14Z</time>
      </trkpt>
      <trkpt lat="44.90515" lon="5.32761">
        <ele>1399.8</ele>
        <time>2021-10-08T08:58:15Z</time>
      </trkpt>
      <trkpt lat="44.90513" lon="5.32759">
        <ele>1399.8</ele>
        <time>2021-10-08T08:58:16Z</time>
      </trkpt>
      <trkpt lat="44.90512" lon="5.32757">
        <ele>1399.8</ele>
        <time>2021-10-08T08:58:17Z</time>
      </trkpt>
      <trkpt lat="44.90511" lon="5.32756">
        <ele>1399.6</ele>
        <time>2021-10-08T08:58:18Z</time>
      </trkpt>
      <trkpt lat="44.90509" lon="5.32754">
        <ele>1399.6</ele>
        <time>2021-10-08T08:58:19Z</time>
      </trkpt>
      <trkpt lat="44.90508" lon="5.32752">
        <ele>1399.6</ele>
        <time>2021-10-08T08:58:20Z</time>
      </trkpt>
      <trkpt lat="44.90507" lon="5.3275">
        <ele>1400.2</ele>
        <time>2021-10-08T08:58:21Z</time>
      </trkpt>
      <trkpt lat="44.90505" lon="5.32749">
        <ele>1400.4</ele>
        <time>2021-10-08T08:58:22Z</time>
      </trkpt>
      <trkpt lat="44.90504" lon="5.32747">
        <ele>1400.4</ele>
        <time>2021-10-08T08:58:23Z</time>
      </trkpt>
      <trkpt lat="44.90503" lon="5.32745">
        <ele>1400.4</ele>
        <time>2021-10-08T08:58:24Z</time>
      </trkpt>
      <trkpt lat="44.90502" lon="5.32744">
        <ele>1400.4</ele>
        <time>2021-10-08T08:58:25Z</time>
      </trkpt>
      <trkpt lat="44.90501" lon="5.32742">
        <ele>1400.6</ele>
        <time>2021-10-08T08:58:26Z</time>
      </trkpt>
      <trkpt lat="44.90499" lon="5.3274">
        <ele>1400.6</ele>
        <time>2021-10-08T08:58:27Z</time>
      </trkpt>
      <trkpt lat="44.90498" lon="5.32738">
        <ele>1400.6</ele>
        <time>2021-10-08T08:58:28Z</time>
      </trkpt>
      <trkpt lat="44.90497" lon="5.32736">
        <ele>1400.6</ele>
        <time>2021-10-08T08:58:29Z</time>
      </trkpt>
      <trkpt lat="44.90495" lon="5.32735">
        <ele>1401</ele>
        <time>2021-10-08T08:58:30Z</time>
      </trkpt>
      <trkpt lat="44.90494" lon="5.32733">
        <ele>1401</ele>
        <time>2021-10-08T08:58:31Z</time>
      </trkpt>
      <trkpt lat="44.90493" lon="5.32731">
        <ele>1401</ele>
        <time>2021-10-08T08:58:32Z</time>
      </trkpt>
      <trkpt lat="44.90491" lon="5.3273">
        <ele>1401.6</ele>
        <time>2021-10-08T08:58:33Z</time>
      </trkpt>
      <trkpt lat="44.9049" lon="5.32728">
        <ele>1401.2</ele>
        <time>2021-10-08T08:58:34Z</time>
      </trkpt>
      <trkpt lat="44.90489" lon="5.32726">
        <ele>1401.2</ele>
        <time>2021-10-08T08:58:35Z</time>
      </trkpt>
      <trkpt lat="44.90488" lon="5.32724">
        <ele>1401.2</ele>
        <time>2021-10-08T08:58:36Z</time>
      </trkpt>
      <trkpt lat="44.90487" lon="5.32723">
        <ele>1402.2</ele>
        <time>2021-10-08T08:58:37Z</time>
      </trkpt>
      <trkpt lat="44.90486" lon="5.32722">
        <ele>1402.8</ele>
        <time>2021-10-08T08:58:38Z</time>
      </trkpt>
      <trkpt lat="44.90485" lon="5.3272">
        <ele>1402.8</ele>
        <time>2021-10-08T08:58:39Z</time>
      </trkpt>
      <trkpt lat="44.90484" lon="5.32719">
        <ele>1402.8</ele>
        <time>2021-10-08T08:58:40Z</time>
      </trkpt>
      <trkpt lat="44.90483" lon="5.32717">
        <ele>1403</ele>
        <time>2021-10-08T08:58:41Z</time>
      </trkpt>
      <trkpt lat="44.90482" lon="5.32715">
        <ele>1402.8</ele>
        <time>2021-10-08T08:58:42Z</time>
      </trkpt>
      <trkpt lat="44.9048" lon="5.32714">
        <ele>1402.8</ele>
        <time>2021-10-08T08:58:43Z</time>
      </trkpt>
      <trkpt lat="44.90479" lon="5.32712">
        <ele>1402.8</ele>
        <time>2021-10-08T08:58:44Z</time>
      </trkpt>
      <trkpt lat="44.90477" lon="5.32711">
        <ele>1403</ele>
        <time>2021-10-08T08:58:45Z</time>
      </trkpt>
      <trkpt lat="44.90476" lon="5.32709">
        <ele>1403.2</ele>
        <time>2021-10-08T08:58:46Z</time>
      </trkpt>
      <trkpt lat="44.90474" lon="5.32708">
        <ele>1403.2</ele>
        <time>2021-10-08T08:58:47Z</time>
      </trkpt>
      <trkpt lat="44.90473" lon="5.32706">
        <ele>1403.2</ele>
        <time>2021-10-08T08:58:48Z</time>
      </trkpt>
      <trkpt lat="44.90471" lon="5.32705">
        <ele>1403.2</ele>
        <time>2021-10-08T08:58:49Z</time>
      </trkpt>
      <trkpt lat="44.9047" lon="5.32703">
        <ele>1403</ele>
        <time>2021-10-08T08:58:50Z</time>
      </trkpt>
      <trkpt lat="44.90468" lon="5.32702">
        <ele>1403</ele>
        <time>2021-10-08T08:58:51Z</time>
      </trkpt>
      <trkpt lat="44.90467" lon="5.327">
        <ele>1403</ele>
        <time>2021-10-08T08:58:52Z</time>
      </trkpt>
      <trkpt lat="44.90465" lon="5.32699">
        <ele>1403</ele>
        <time>2021-10-08T08:58:53Z</time>
      </trkpt>
      <trkpt lat="44.90464" lon="5.32697">
        <ele>1403.2</ele>
        <time>2021-10-08T08:58:54Z</time>
      </trkpt>
      <trkpt lat="44.90463" lon="5.32696">
        <ele>1403.2</ele>
        <time>2021-10-08T08:58:55Z</time>
      </trkpt>
      <trkpt lat="44.90461" lon="5.32694">
        <ele>1403.2</ele>
        <time>2021-10-08T08:58:56Z</time>
      </trkpt>
      <trkpt lat="44.9046" lon="5.32693">
        <ele>1403.8</ele>
        <time>2021-10-08T08:58:57Z</time>
      </trkpt>
      <trkpt lat="44.90458" lon="5.32691">
        <ele>1403.8</ele>
        <time>2021-10-08T08:58:58Z</time>
      </trkpt>
      <trkpt lat="44.90457" lon="5.3269">
        <ele>1403.8</ele>
        <time>2021-10-08T08:58:59Z</time>
      </trkpt>
      <trkpt lat="44.90456" lon="5.32688">
        <ele>1403.8</ele>
        <time>2021-10-08T08:59:00Z</time>
      </trkpt>
      <trkpt lat="44.90454" lon="5.32687">
        <ele>1404.2</ele>
        <time>2021-10-08T08:59:01Z</time>
      </trkpt>
      <trkpt lat="44.90453" lon="5.32686">
        <ele>1404.2</ele>
        <time>2021-10-08T08:59:02Z</time>
      </trkpt>
      <trkpt lat="44.90452" lon="5.32685">
        <ele>1404.2</ele>
        <time>2021-10-08T08:59:03Z</time>
      </trkpt>
      <trkpt lat="44.9045" lon="5.32683">
        <ele>1404.2</ele>
        <time>2021-10-08T08:59:04Z</time>
      </trkpt>
      <trkpt lat="44.90449" lon="5.32682">
        <ele>1404.6</ele>
        <time>2021-10-08T08:59:05Z</time>
      </trkpt>
      <trkpt lat="44.90448" lon="5.32681">
        <ele>1404.4</ele>
        <time>2021-10-08T08:59:06Z</time>
      </trkpt>
      <trkpt lat="44.90446" lon="5.32679">
        <ele>1404.4</ele>
        <time>2021-10-08T08:59:07Z</time>
      </trkpt>
      <trkpt lat="44.90445" lon="5.32678">
        <ele>1404.4</ele>
        <time>2021-10-08T08:59:08Z</time>
      </trkpt>
      <trkpt lat="44.90443" lon="5.32677">
        <ele>1405</ele>
        <time>2021-10-08T08:59:09Z</time>
      </trkpt>
      <trkpt lat="44.90442" lon="5.32675">
        <ele>1404.8</ele>
        <time>2021-10-08T08:59:10Z</time>
      </trkpt>
      <trkpt lat="44.90441" lon="5.32674">
        <ele>1404.8</ele>
        <time>2021-10-08T08:59:11Z</time>
      </trkpt>
      <trkpt lat="44.90439" lon="5.32672">
        <ele>1404.8</ele>
        <time>2021-10-08T08:59:12Z</time>
      </trkpt>
      <trkpt lat="44.90438" lon="5.32671">
        <ele>1405.6</ele>
        <time>2021-10-08T08:59:13Z</time>
      </trkpt>
      <trkpt lat="44.90436" lon="5.3267">
        <ele>1405.8</ele>
        <time>2021-10-08T08:59:14Z</time>
      </trkpt>
      <trkpt lat="44.90435" lon="5.32668">
        <ele>1405.8</ele>
        <time>2021-10-08T08:59:15Z</time>
      </trkpt>
      <trkpt lat="44.90434" lon="5.32667">
        <ele>1405.8</ele>
        <time>2021-10-08T08:59:16Z</time>
      </trkpt>
      <trkpt lat="44.90432" lon="5.32666">
        <ele>1405.8</ele>
        <time>2021-10-08T08:59:17Z</time>
      </trkpt>
      <trkpt lat="44.90431" lon="5.32664">
        <ele>1406.4</ele>
        <time>2021-10-08T08:59:18Z</time>
      </trkpt>
      <trkpt lat="44.9043" lon="5.32663">
        <ele>1406.4</ele>
        <time>2021-10-08T08:59:19Z</time>
      </trkpt>
      <trkpt lat="44.90428" lon="5.32661">
        <ele>1406.4</ele>
        <time>2021-10-08T08:59:20Z</time>
      </trkpt>
      <trkpt lat="44.90427" lon="5.3266">
        <ele>1406.4</ele>
        <time>2021-10-08T08:59:21Z</time>
      </trkpt>
      <trkpt lat="44.90426" lon="5.32659">
        <ele>1407</ele>
        <time>2021-10-08T08:59:22Z</time>
      </trkpt>
      <trkpt lat="44.90424" lon="5.32658">
        <ele>1407</ele>
        <time>2021-10-08T08:59:23Z</time>
      </trkpt>
      <trkpt lat="44.90423" lon="5.32657">
        <ele>1407</ele>
        <time>2021-10-08T08:59:24Z</time>
      </trkpt>
      <trkpt lat="44.90421" lon="5.32655">
        <ele>1407.2</ele>
        <time>2021-10-08T08:59:25Z</time>
      </trkpt>
      <trkpt lat="44.9042" lon="5.32654">
        <ele>1407.8</ele>
        <time>2021-10-08T08:59:26Z</time>
      </trkpt>
      <trkpt lat="44.90419" lon="5.32653">
        <ele>1407.8</ele>
        <time>2021-10-08T08:59:27Z</time>
      </trkpt>
      <trkpt lat="44.90418" lon="5.32651">
        <ele>1407.8</ele>
        <time>2021-10-08T08:59:28Z</time>
      </trkpt>
      <trkpt lat="44.90416" lon="5.3265">
        <ele>1408.4</ele>
        <time>2021-10-08T08:59:29Z</time>
      </trkpt>
      <trkpt lat="44.90415" lon="5.32649">
        <ele>1408.6</ele>
        <time>2021-10-08T08:59:30Z</time>
      </trkpt>
      <trkpt lat="44.90414" lon="5.32648">
        <ele>1408.6</ele>
        <time>2021-10-08T08:59:31Z</time>
      </trkpt>
      <trkpt lat="44.90412" lon="5.32647">
        <ele>1408.6</ele>
        <time>2021-10-08T08:59:32Z</time>
      </trkpt>
      <trkpt lat="44.90411" lon="5.32646">
        <ele>1408.6</ele>
        <time>2021-10-08T08:59:33Z</time>
      </trkpt>
      <trkpt lat="44.9041" lon="5.32644">
        <ele>1409</ele>
        <time>2021-10-08T08:59:34Z</time>
      </trkpt>
      <trkpt lat="44.90408" lon="5.32643">
        <ele>1409</ele>
        <time>2021-10-08T08:59:35Z</time>
      </trkpt>
      <trkpt lat="44.90407" lon="5.32641">
        <ele>1409</ele>
        <time>2021-10-08T08:59:36Z</time>
      </trkpt>
      <trkpt lat="44.90406" lon="5.3264">
        <ele>1409</ele>
        <time>2021-10-08T08:59:37Z</time>
      </trkpt>
      <trkpt lat="44.90405" lon="5.32638">
        <ele>1409</ele>
        <time>2021-10-08T08:59:38Z</time>
      </trkpt>
      <trkpt lat="44.90404" lon="5.32636">
        <ele>1409</ele>
        <time>2021-10-08T08:59:39Z</time>
      </trkpt>
      <trkpt lat="44.90402" lon="5.32635">
        <ele>1409</ele>
        <time>2021-10-08T08:59:40Z</time>
      </trkpt>
      <trkpt lat="44.90401" lon="5.32633">
        <ele>1409</ele>
        <time>2021-10-08T08:59:41Z</time>
      </trkpt>
      <trkpt lat="44.904" lon="5.32632">
        <ele>1409.8</ele>
        <time>2021-10-08T08:59:42Z</time>
      </trkpt>
      <trkpt lat="44.90399" lon="5.3263">
        <ele>1409.8</ele>
        <time>2021-10-08T08:59:43Z</time>
      </trkpt>
      <trkpt lat="44.90398" lon="5.32629">
        <ele>1409.8</ele>
        <time>2021-10-08T08:59:44Z</time>
      </trkpt>
      <trkpt lat="44.90397" lon="5.32628">
        <ele>1409.8</ele>
        <time>2021-10-08T08:59:45Z</time>
      </trkpt>
      <trkpt lat="44.90396" lon="5.32626">
        <ele>1409.8</ele>
        <time>2021-10-08T08:59:46Z</time>
      </trkpt>
      <trkpt lat="44.90395" lon="5.32625">
        <ele>1409.8</ele>
        <time>2021-10-08T08:59:47Z</time>
      </trkpt>
      <trkpt lat="44.90394" lon="5.32623">
        <ele>1409.8</ele>
        <time>2021-10-08T08:59:48Z</time>
      </trkpt>
      <trkpt lat="44.90393" lon="5.32622">
        <ele>1410.8</ele>
        <time>2021-10-08T08:59:49Z</time>
      </trkpt>
      <trkpt lat="44.90392" lon="5.3262">
        <ele>1410.8</ele>
        <time>2021-10-08T08:59:50Z</time>
      </trkpt>
      <trkpt lat="44.90391" lon="5.32618">
        <ele>1410.8</ele>
        <time>2021-10-08T08:59:51Z</time>
      </trkpt>
      <trkpt lat="44.9039" lon="5.32617">
        <ele>1410.8</ele>
        <time>2021-10-08T08:59:52Z</time>
      </trkpt>
      <trkpt lat="44.90389" lon="5.32615">
        <ele>1411.2</ele>
        <time>2021-10-08T08:59:53Z</time>
      </trkpt>
      <trkpt lat="44.90387" lon="5.32614">
        <ele>1411.4</ele>
        <time>2021-10-08T08:59:54Z</time>
      </trkpt>
      <trkpt lat="44.90386" lon="5.32613">
        <ele>1411.4</ele>
        <time>2021-10-08T08:59:55Z</time>
      </trkpt>
      <trkpt lat="44.90385" lon="5.32611">
        <ele>1411.4</ele>
        <time>2021-10-08T08:59:56Z</time>
      </trkpt>
      <trkpt lat="44.90384" lon="5.3261">
        <ele>1411.4</ele>
        <time>2021-10-08T08:59:57Z</time>
      </trkpt>
      <trkpt lat="44.90383" lon="5.32608">
        <ele>1412.2</ele>
        <time>2021-10-08T08:59:58Z</time>
      </trkpt>
      <trkpt lat="44.90382" lon="5.32608">
        <ele>1412.2</ele>
        <time>2021-10-08T08:59:59Z</time>
      </trkpt>
      <trkpt lat="44.9038" lon="5.32607">
        <ele>1412.2</ele>
        <time>2021-10-08T09:00:00Z</time>
      </trkpt>
      <trkpt lat="44.90379" lon="5.32606">
        <ele>1412.2</ele>
        <time>2021-10-08T09:00:01Z</time>
      </trkpt>
      <trkpt lat="44.90377" lon="5.32605">
        <ele>1411.8</ele>
        <time>2021-10-08T09:00:02Z</time>
      </trkpt>
      <trkpt lat="44.90376" lon="5.32604">
        <ele>1411.8</ele>
        <time>2021-10-08T09:00:03Z</time>
      </trkpt>
      <trkpt lat="44.90374" lon="5.32604">
        <ele>1411.8</ele>
        <time>2021-10-08T09:00:04Z</time>
      </trkpt>
      <trkpt lat="44.90373" lon="5.32603">
        <ele>1412.4</ele>
        <time>2021-10-08T09:00:05Z</time>
      </trkpt>
      <trkpt lat="44.90371" lon="5.32603">
        <ele>1412.6</ele>
        <time>2021-10-08T09:00:06Z</time>
      </trkpt>
      <trkpt lat="44.9037" lon="5.32603">
        <ele>1412.6</ele>
        <time>2021-10-08T09:00:07Z</time>
      </trkpt>
      <trkpt lat="44.90368" lon="5.32602">
        <ele>1412.6</ele>
        <time>2021-10-08T09:00:08Z</time>
      </trkpt>
      <trkpt lat="44.90367" lon="5.32602">
        <ele>1412.6</ele>
        <time>2021-10-08T09:00:09Z</time>
      </trkpt>
      <trkpt lat="44.90365" lon="5.32601">
        <ele>1413.2</ele>
        <time>2021-10-08T09:00:10Z</time>
      </trkpt>
      <trkpt lat="44.90364" lon="5.326">
        <ele>1413.2</ele>
        <time>2021-10-08T09:00:11Z</time>
      </trkpt>
      <trkpt lat="44.90362" lon="5.326">
        <ele>1413.2</ele>
        <time>2021-10-08T09:00:12Z</time>
      </trkpt>
      <trkpt lat="44.90361" lon="5.326">
        <ele>1413.2</ele>
        <time>2021-10-08T09:00:13Z</time>
      </trkpt>
      <trkpt lat="44.90359" lon="5.326">
        <ele>1413.6</ele>
        <time>2021-10-08T09:00:14Z</time>
      </trkpt>
      <trkpt lat="44.90357" lon="5.32599">
        <ele>1413.6</ele>
        <time>2021-10-08T09:00:15Z</time>
      </trkpt>
      <trkpt lat="44.90355" lon="5.32599">
        <ele>1413.6</ele>
        <time>2021-10-08T09:00:16Z</time>
      </trkpt>
      <trkpt lat="44.90354" lon="5.32599">
        <ele>1413.6</ele>
        <time>2021-10-08T09:00:17Z</time>
      </trkpt>
      <trkpt lat="44.90352" lon="5.32599">
        <ele>1413.8</ele>
        <time>2021-10-08T09:00:18Z</time>
      </trkpt>
      <trkpt lat="44.9035" lon="5.32599">
        <ele>1413.8</ele>
        <time>2021-10-08T09:00:19Z</time>
      </trkpt>
      <trkpt lat="44.90349" lon="5.32599">
        <ele>1413.8</ele>
        <time>2021-10-08T09:00:20Z</time>
      </trkpt>
      <trkpt lat="44.90347" lon="5.32599">
        <ele>1414.8</ele>
        <time>2021-10-08T09:00:21Z</time>
      </trkpt>
      <trkpt lat="44.90346" lon="5.32599">
        <ele>1414.6</ele>
        <time>2021-10-08T09:00:22Z</time>
      </trkpt>
      <trkpt lat="44.90344" lon="5.32599">
        <ele>1414.6</ele>
        <time>2021-10-08T09:00:23Z</time>
      </trkpt>
      <trkpt lat="44.90342" lon="5.32599">
        <ele>1414.6</ele>
        <time>2021-10-08T09:00:24Z</time>
      </trkpt>
      <trkpt lat="44.90341" lon="5.32599">
        <ele>1415</ele>
        <time>2021-10-08T09:00:25Z</time>
      </trkpt>
      <trkpt lat="44.90339" lon="5.32599">
        <ele>1415.6</ele>
        <time>2021-10-08T09:00:26Z</time>
      </trkpt>
      <trkpt lat="44.90338" lon="5.32598">
        <ele>1415.6</ele>
        <time>2021-10-08T09:00:27Z</time>
      </trkpt>
      <trkpt lat="44.90336" lon="5.32598">
        <ele>1415.6</ele>
        <time>2021-10-08T09:00:28Z</time>
      </trkpt>
      <trkpt lat="44.90335" lon="5.32598">
        <ele>1415.6</ele>
        <time>2021-10-08T09:00:29Z</time>
      </trkpt>
      <trkpt lat="44.90333" lon="5.32598">
        <ele>1416.2</ele>
        <time>2021-10-08T09:00:30Z</time>
      </trkpt>
      <trkpt lat="44.90332" lon="5.32598">
        <ele>1416.2</ele>
        <time>2021-10-08T09:00:31Z</time>
      </trkpt>
      <trkpt lat="44.9033" lon="5.32598">
        <ele>1416.2</ele>
        <time>2021-10-08T09:00:32Z</time>
      </trkpt>
      <trkpt lat="44.90329" lon="5.32597">
        <ele>1416.2</ele>
        <time>2021-10-08T09:00:33Z</time>
      </trkpt>
      <trkpt lat="44.90328" lon="5.32597">
        <ele>1417.2</ele>
        <time>2021-10-08T09:00:34Z</time>
      </trkpt>
      <trkpt lat="44.90327" lon="5.32597">
        <ele>1417.2</ele>
        <time>2021-10-08T09:00:35Z</time>
      </trkpt>
      <trkpt lat="44.90325" lon="5.32597">
        <ele>1417.2</ele>
        <time>2021-10-08T09:00:36Z</time>
      </trkpt>
      <trkpt lat="44.90324" lon="5.32597">
        <ele>1418</ele>
        <time>2021-10-08T09:00:37Z</time>
      </trkpt>
      <trkpt lat="44.90323" lon="5.32597">
        <ele>1418</ele>
        <time>2021-10-08T09:00:38Z</time>
      </trkpt>
      <trkpt lat="44.90321" lon="5.32597">
        <ele>1418</ele>
        <time>2021-10-08T09:00:39Z</time>
      </trkpt>
      <trkpt lat="44.9032" lon="5.32597">
        <ele>1418</ele>
        <time>2021-10-08T09:00:40Z</time>
      </trkpt>
      <trkpt lat="44.90319" lon="5.32597">
        <ele>1418.2</ele>
        <time>2021-10-08T09:00:41Z</time>
      </trkpt>
      <trkpt lat="44.90318" lon="5.32596">
        <ele>1418.4</ele>
        <time>2021-10-08T09:00:42Z</time>
      </trkpt>
      <trkpt lat="44.90316" lon="5.32596">
        <ele>1418.4</ele>
        <time>2021-10-08T09:00:43Z</time>
      </trkpt>
      <trkpt lat="44.90315" lon="5.32595">
        <ele>1418.4</ele>
        <time>2021-10-08T09:00:44Z</time>
      </trkpt>
      <trkpt lat="44.90314" lon="5.32595">
        <ele>1418.6</ele>
        <time>2021-10-08T09:00:45Z</time>
      </trkpt>
      <trkpt lat="44.90312" lon="5.32595">
        <ele>1419.4</ele>
        <time>2021-10-08T09:00:46Z</time>
      </trkpt>
      <trkpt lat="44.90311" lon="5.32594">
        <ele>1419.4</ele>
        <time>2021-10-08T09:00:47Z</time>
      </trkpt>
      <trkpt lat="44.9031" lon="5.32594">
        <ele>1419.4</ele>
        <time>2021-10-08T09:00:48Z</time>
      </trkpt>
      <trkpt lat="44.90309" lon="5.32592">
        <ele>1419.4</ele>
        <time>2021-10-08T09:00:49Z</time>
      </trkpt>
      <trkpt lat="44.90307" lon="5.32592">
        <ele>1419.8</ele>
        <time>2021-10-08T09:00:50Z</time>
      </trkpt>
      <trkpt lat="44.90306" lon="5.32591">
        <ele>1419.8</ele>
        <time>2021-10-08T09:00:51Z</time>
      </trkpt>
      <trkpt lat="44.90304" lon="5.3259">
        <ele>1419.8</ele>
        <time>2021-10-08T09:00:52Z</time>
      </trkpt>
      <trkpt lat="44.90303" lon="5.32589">
        <ele>1419.8</ele>
        <time>2021-10-08T09:00:53Z</time>
      </trkpt>
      <trkpt lat="44.90301" lon="5.32589">
        <ele>1420.4</ele>
        <time>2021-10-08T09:00:54Z</time>
      </trkpt>
      <trkpt lat="44.903" lon="5.32588">
        <ele>1420.4</ele>
        <time>2021-10-08T09:00:55Z</time>
      </trkpt>
      <trkpt lat="44.90298" lon="5.32588">
        <ele>1420.4</ele>
        <time>2021-10-08T09:00:56Z</time>
      </trkpt>
      <trkpt lat="44.90297" lon="5.32587">
        <ele>1420.4</ele>
        <time>2021-10-08T09:00:57Z</time>
      </trkpt>
      <trkpt lat="44.90296" lon="5.32587">
        <ele>1420.4</ele>
        <time>2021-10-08T09:00:58Z</time>
      </trkpt>
      <trkpt lat="44.90294" lon="5.32586">
        <ele>1420.4</ele>
        <time>2021-10-08T09:00:59Z</time>
      </trkpt>
      <trkpt lat="44.90293" lon="5.32586">
        <ele>1420.4</ele>
        <time>2021-10-08T09:01:00Z</time>
      </trkpt>
      <trkpt lat="44.90291" lon="5.32585">
        <ele>1421.2</ele>
        <time>2021-10-08T09:01:01Z</time>
      </trkpt>
      <trkpt lat="44.9029" lon="5.32585">
        <ele>1421.6</ele>
        <time>2021-10-08T09:01:02Z</time>
      </trkpt>
      <trkpt lat="44.90288" lon="5.32584">
        <ele>1421.6</ele>
        <time>2021-10-08T09:01:03Z</time>
      </trkpt>
      <trkpt lat="44.90287" lon="5.32584">
        <ele>1421.6</ele>
        <time>2021-10-08T09:01:04Z</time>
      </trkpt>
      <trkpt lat="44.90285" lon="5.32583">
        <ele>1421.6</ele>
        <time>2021-10-08T09:01:05Z</time>
      </trkpt>
      <trkpt lat="44.90284" lon="5.32583">
        <ele>1421.4</ele>
        <time>2021-10-08T09:01:06Z</time>
      </trkpt>
      <trkpt lat="44.90283" lon="5.32582">
        <ele>1421.4</ele>
        <time>2021-10-08T09:01:07Z</time>
      </trkpt>
      <trkpt lat="44.90281" lon="5.32582">
        <ele>1421.4</ele>
        <time>2021-10-08T09:01:08Z</time>
      </trkpt>
      <trkpt lat="44.9028" lon="5.32582">
        <ele>1422</ele>
        <time>2021-10-08T09:01:09Z</time>
      </trkpt>
      <trkpt lat="44.90279" lon="5.32581">
        <ele>1422</ele>
        <time>2021-10-08T09:01:10Z</time>
      </trkpt>
      <trkpt lat="44.90277" lon="5.3258">
        <ele>1422</ele>
        <time>2021-10-08T09:01:11Z</time>
      </trkpt>
      <trkpt lat="44.90276" lon="5.3258">
        <ele>1422</ele>
        <time>2021-10-08T09:01:12Z</time>
      </trkpt>
      <trkpt lat="44.90274" lon="5.32579">
        <ele>1422.8</ele>
        <time>2021-10-08T09:01:13Z</time>
      </trkpt>
      <trkpt lat="44.90273" lon="5.32579">
        <ele>1422.8</ele>
        <time>2021-10-08T09:01:14Z</time>
      </trkpt>
      <trkpt lat="44.90271" lon="5.32579">
        <ele>1422.8</ele>
        <time>2021-10-08T09:01:15Z</time>
      </trkpt>
      <trkpt lat="44.9027" lon="5.32578">
        <ele>1422.8</ele>
        <time>2021-10-08T09:01:16Z</time>
      </trkpt>
      <trkpt lat="44.90269" lon="5.32578">
        <ele>1423</ele>
        <time>2021-10-08T09:01:17Z</time>
      </trkpt>
      <trkpt lat="44.90267" lon="5.32578">
        <ele>1423.6</ele>
        <time>2021-10-08T09:01:18Z</time>
      </trkpt>
      <trkpt lat="44.90266" lon="5.32577">
        <ele>1423.6</ele>
        <time>2021-10-08T09:01:19Z</time>
      </trkpt>
      <trkpt lat="44.90264" lon="5.32577">
        <ele>1423.6</ele>
        <time>2021-10-08T09:01:20Z</time>
      </trkpt>
      <trkpt lat="44.90262" lon="5.32576">
        <ele>1423.4</ele>
        <time>2021-10-08T09:01:21Z</time>
      </trkpt>
      <trkpt lat="44.90261" lon="5.32576">
        <ele>1424</ele>
        <time>2021-10-08T09:01:22Z</time>
      </trkpt>
      <trkpt lat="44.90259" lon="5.32576">
        <ele>1424</ele>
        <time>2021-10-08T09:01:23Z</time>
      </trkpt>
      <trkpt lat="44.90258" lon="5.32576">
        <ele>1424</ele>
        <time>2021-10-08T09:01:24Z</time>
      </trkpt>
      <trkpt lat="44.90256" lon="5.32576">
        <ele>1424</ele>
        <time>2021-10-08T09:01:25Z</time>
      </trkpt>
      <trkpt lat="44.90255" lon="5.32575">
        <ele>1425</ele>
        <time>2021-10-08T09:01:26Z</time>
      </trkpt>
      <trkpt lat="44.90253" lon="5.32575">
        <ele>1425</ele>
        <time>2021-10-08T09:01:27Z</time>
      </trkpt>
      <trkpt lat="44.90252" lon="5.32575">
        <ele>1425</ele>
        <time>2021-10-08T09:01:28Z</time>
      </trkpt>
      <trkpt lat="44.9025" lon="5.32574">
        <ele>1425</ele>
        <time>2021-10-08T09:01:29Z</time>
      </trkpt>
      <trkpt lat="44.90249" lon="5.32574">
        <ele>1425.6</ele>
        <time>2021-10-08T09:01:30Z</time>
      </trkpt>
      <trkpt lat="44.90248" lon="5.32574">
        <ele>1425.6</ele>
        <time>2021-10-08T09:01:31Z</time>
      </trkpt>
      <trkpt lat="44.90246" lon="5.32573">
        <ele>1425.6</ele>
        <time>2021-10-08T09:01:32Z</time>
      </trkpt>
      <trkpt lat="44.90245" lon="5.32572">
        <ele>1425.8</ele>
        <time>2021-10-08T09:01:33Z</time>
      </trkpt>
      <trkpt lat="44.90244" lon="5.32572">
        <ele>1426.4</ele>
        <time>2021-10-08T09:01:34Z</time>
      </trkpt>
      <trkpt lat="44.90242" lon="5.32571">
        <ele>1426.4</ele>
        <time>2021-10-08T09:01:35Z</time>
      </trkpt>
      <trkpt lat="44.90241" lon="5.32571">
        <ele>1426.4</ele>
        <time>2021-10-08T09:01:36Z</time>
      </trkpt>
      <trkpt lat="44.9024" lon="5.3257">
        <ele>1426.4</ele>
        <time>2021-10-08T09:01:37Z</time>
      </trkpt>
      <trkpt lat="44.90238" lon="5.32569">
        <ele>1426.6</ele>
        <time>2021-10-08T09:01:38Z</time>
      </trkpt>
      <trkpt lat="44.90237" lon="5.32568">
        <ele>1426.6</ele>
        <time>2021-10-08T09:01:39Z</time>
      </trkpt>
      <trkpt lat="44.90236" lon="5.32568">
        <ele>1426.6</ele>
        <time>2021-10-08T09:01:40Z</time>
      </trkpt>
      <trkpt lat="44.90234" lon="5.32567">
        <ele>1426.6</ele>
        <time>2021-10-08T09:01:41Z</time>
      </trkpt>
      <trkpt lat="44.90233" lon="5.32567">
        <ele>1427</ele>
        <time>2021-10-08T09:01:42Z</time>
      </trkpt>
      <trkpt lat="44.90232" lon="5.32566">
        <ele>1427</ele>
        <time>2021-10-08T09:01:43Z</time>
      </trkpt>
      <trkpt lat="44.9023" lon="5.32565">
        <ele>1427</ele>
        <time>2021-10-08T09:01:44Z</time>
      </trkpt>
      <trkpt lat="44.90229" lon="5.32565">
        <ele>1427</ele>
        <time>2021-10-08T09:01:45Z</time>
      </trkpt>
      <trkpt lat="44.90227" lon="5.32564">
        <ele>1427.2</ele>
        <time>2021-10-08T09:01:46Z</time>
      </trkpt>
      <trkpt lat="44.90226" lon="5.32563">
        <ele>1427.2</ele>
        <time>2021-10-08T09:01:47Z</time>
      </trkpt>
      <trkpt lat="44.90224" lon="5.32563">
        <ele>1427.2</ele>
        <time>2021-10-08T09:01:48Z</time>
      </trkpt>
      <trkpt lat="44.90223" lon="5.32562">
        <ele>1428</ele>
        <time>2021-10-08T09:01:49Z</time>
      </trkpt>
      <trkpt lat="44.90221" lon="5.32562">
        <ele>1428</ele>
        <time>2021-10-08T09:01:50Z</time>
      </trkpt>
      <trkpt lat="44.9022" lon="5.32561">
        <ele>1428</ele>
        <time>2021-10-08T09:01:51Z</time>
      </trkpt>
      <trkpt lat="44.90218" lon="5.32561">
        <ele>1428</ele>
        <time>2021-10-08T09:01:52Z</time>
      </trkpt>
      <trkpt lat="44.90217" lon="5.3256">
        <ele>1428</ele>
        <time>2021-10-08T09:01:53Z</time>
      </trkpt>
      <trkpt lat="44.90215" lon="5.32559">
        <ele>1428.6</ele>
        <time>2021-10-08T09:01:54Z</time>
      </trkpt>
      <trkpt lat="44.90214" lon="5.32559">
        <ele>1428.6</ele>
        <time>2021-10-08T09:01:55Z</time>
      </trkpt>
      <trkpt lat="44.90212" lon="5.32558">
        <ele>1428.6</ele>
        <time>2021-10-08T09:01:56Z</time>
      </trkpt>
      <trkpt lat="44.90211" lon="5.32557">
        <ele>1429.4</ele>
        <time>2021-10-08T09:01:57Z</time>
      </trkpt>
      <trkpt lat="44.90209" lon="5.32557">
        <ele>1429.4</ele>
        <time>2021-10-08T09:01:58Z</time>
      </trkpt>
      <trkpt lat="44.90208" lon="5.32556">
        <ele>1429.4</ele>
        <time>2021-10-08T09:01:59Z</time>
      </trkpt>
      <trkpt lat="44.90207" lon="5.32555">
        <ele>1429.4</ele>
        <time>2021-10-08T09:02:00Z</time>
      </trkpt>
      <trkpt lat="44.90205" lon="5.32555">
        <ele>1430.2</ele>
        <time>2021-10-08T09:02:01Z</time>
      </trkpt>
      <trkpt lat="44.90204" lon="5.32554">
        <ele>1430.2</ele>
        <time>2021-10-08T09:02:02Z</time>
      </trkpt>
      <trkpt lat="44.90202" lon="5.32554">
        <ele>1430.2</ele>
        <time>2021-10-08T09:02:03Z</time>
      </trkpt>
      <trkpt lat="44.90201" lon="5.32553">
        <ele>1430.2</ele>
        <time>2021-10-08T09:02:04Z</time>
      </trkpt>
      <trkpt lat="44.90199" lon="5.32553">
        <ele>1430.8</ele>
        <time>2021-10-08T09:02:05Z</time>
      </trkpt>
      <trkpt lat="44.90198" lon="5.32552">
        <ele>1431</ele>
        <time>2021-10-08T09:02:06Z</time>
      </trkpt>
      <trkpt lat="44.90196" lon="5.32552">
        <ele>1431</ele>
        <time>2021-10-08T09:02:07Z</time>
      </trkpt>
      <trkpt lat="44.90195" lon="5.32551">
        <ele>1431</ele>
        <time>2021-10-08T09:02:08Z</time>
      </trkpt>
      <trkpt lat="44.90194" lon="5.32551">
        <ele>1431.2</ele>
        <time>2021-10-08T09:02:09Z</time>
      </trkpt>
      <trkpt lat="44.90192" lon="5.3255">
        <ele>1431.6</ele>
        <time>2021-10-08T09:02:10Z</time>
      </trkpt>
      <trkpt lat="44.90191" lon="5.3255">
        <ele>1431.6</ele>
        <time>2021-10-08T09:02:11Z</time>
      </trkpt>
      <trkpt lat="44.9019" lon="5.32549">
        <ele>1431.6</ele>
        <time>2021-10-08T09:02:12Z</time>
      </trkpt>
      <trkpt lat="44.90188" lon="5.32549">
        <ele>1431.6</ele>
        <time>2021-10-08T09:02:13Z</time>
      </trkpt>
      <trkpt lat="44.90187" lon="5.32548">
        <ele>1432.4</ele>
        <time>2021-10-08T09:02:14Z</time>
      </trkpt>
      <trkpt lat="44.90186" lon="5.32548">
        <ele>1432.4</ele>
        <time>2021-10-08T09:02:15Z</time>
      </trkpt>
      <trkpt lat="44.90184" lon="5.32547">
        <ele>1432.4</ele>
        <time>2021-10-08T09:02:16Z</time>
      </trkpt>
      <trkpt lat="44.90183" lon="5.32546">
        <ele>1433</ele>
        <time>2021-10-08T09:02:17Z</time>
      </trkpt>
      <trkpt lat="44.90182" lon="5.32545">
        <ele>1433</ele>
        <time>2021-10-08T09:02:18Z</time>
      </trkpt>
      <trkpt lat="44.9018" lon="5.32544">
        <ele>1433</ele>
        <time>2021-10-08T09:02:19Z</time>
      </trkpt>
      <trkpt lat="44.90179" lon="5.32543">
        <ele>1433</ele>
        <time>2021-10-08T09:02:20Z</time>
      </trkpt>
      <trkpt lat="44.90178" lon="5.32542">
        <ele>1433.2</ele>
        <time>2021-10-08T09:02:21Z</time>
      </trkpt>
      <trkpt lat="44.90177" lon="5.32542">
        <ele>1433.8</ele>
        <time>2021-10-08T09:02:22Z</time>
      </trkpt>
      <trkpt lat="44.90175" lon="5.32542">
        <ele>1433.8</ele>
        <time>2021-10-08T09:02:23Z</time>
      </trkpt>
      <trkpt lat="44.90174" lon="5.32541">
        <ele>1433.8</ele>
        <time>2021-10-08T09:02:24Z</time>
      </trkpt>
      <trkpt lat="44.90173" lon="5.32541">
        <ele>1434.8</ele>
        <time>2021-10-08T09:02:25Z</time>
      </trkpt>
      <trkpt lat="44.90172" lon="5.3254">
        <ele>1435</ele>
        <time>2021-10-08T09:02:26Z</time>
      </trkpt>
      <trkpt lat="44.90171" lon="5.3254">
        <ele>1435</ele>
        <time>2021-10-08T09:02:27Z</time>
      </trkpt>
      <trkpt lat="44.9017" lon="5.32541">
        <ele>1435</ele>
        <time>2021-10-08T09:02:28Z</time>
      </trkpt>
      <trkpt lat="44.90168" lon="5.32541">
        <ele>1435.8</ele>
        <time>2021-10-08T09:02:29Z</time>
      </trkpt>
      <trkpt lat="44.90167" lon="5.32541">
        <ele>1436</ele>
        <time>2021-10-08T09:02:30Z</time>
      </trkpt>
      <trkpt lat="44.90166" lon="5.32542">
        <ele>1436</ele>
        <time>2021-10-08T09:02:31Z</time>
      </trkpt>
      <trkpt lat="44.90165" lon="5.32541">
        <ele>1436</ele>
        <time>2021-10-08T09:02:32Z</time>
      </trkpt>
      <trkpt lat="44.90164" lon="5.3254">
        <ele>1436</ele>
        <time>2021-10-08T09:02:33Z</time>
      </trkpt>
      <trkpt lat="44.90163" lon="5.32539">
        <ele>1436.2</ele>
        <time>2021-10-08T09:02:34Z</time>
      </trkpt>
      <trkpt lat="44.90162" lon="5.32538">
        <ele>1436.2</ele>
        <time>2021-10-08T09:02:35Z</time>
      </trkpt>
      <trkpt lat="44.90162" lon="5.32538">
        <ele>1436.2</ele>
        <time>2021-10-08T09:02:36Z</time>
      </trkpt>
      <trkpt lat="44.90162" lon="5.32537">
        <ele>1436.2</ele>
        <time>2021-10-08T09:02:37Z</time>
      </trkpt>
      <trkpt lat="44.90162" lon="5.32536">
        <ele>1436.4</ele>
        <time>2021-10-08T09:02:38Z</time>
      </trkpt>
      <trkpt lat="44.90163" lon="5.32532">
        <ele>1436.2</ele>
        <time>2021-10-08T09:05:03Z</time>
      </trkpt>
      <trkpt lat="44.90163" lon="5.32529">
        <ele>1436.2</ele>
        <time>2021-10-08T09:05:04Z</time>
      </trkpt>
      <trkpt lat="44.90164" lon="5.32526">
        <ele>1437</ele>
        <time>2021-10-08T09:05:05Z</time>
      </trkpt>
      <trkpt lat="44.90164" lon="5.32524">
        <ele>1437</ele>
        <time>2021-10-08T09:05:06Z</time>
      </trkpt>
      <trkpt lat="44.90164" lon="5.32521">
        <ele>1437</ele>
        <time>2021-10-08T09:05:07Z</time>
      </trkpt>
      <trkpt lat="44.90165" lon="5.32519">
        <ele>1437</ele>
        <time>2021-10-08T09:05:08Z</time>
      </trkpt>
      <trkpt lat="44.90165" lon="5.32516">
        <ele>1437</ele>
        <time>2021-10-08T09:05:09Z</time>
      </trkpt>
      <trkpt lat="44.90166" lon="5.32513">
        <ele>1437</ele>
        <time>2021-10-08T09:05:10Z</time>
      </trkpt>
      <trkpt lat="44.90166" lon="5.32511">
        <ele>1437.6</ele>
        <time>2021-10-08T09:05:11Z</time>
      </trkpt>
      <trkpt lat="44.90166" lon="5.32508">
        <ele>1437.6</ele>
        <time>2021-10-08T09:05:12Z</time>
      </trkpt>
      <trkpt lat="44.90166" lon="5.32505">
        <ele>1438</ele>
        <time>2021-10-08T09:05:13Z</time>
      </trkpt>
      <trkpt lat="44.90166" lon="5.32502">
        <ele>1438.2</ele>
        <time>2021-10-08T09:05:14Z</time>
      </trkpt>
      <trkpt lat="44.90166" lon="5.325">
        <ele>1438.2</ele>
        <time>2021-10-08T09:05:15Z</time>
      </trkpt>
      <trkpt lat="44.90167" lon="5.32497">
        <ele>1438.2</ele>
        <time>2021-10-08T09:05:16Z</time>
      </trkpt>
      <trkpt lat="44.90167" lon="5.32495">
        <ele>1439</ele>
        <time>2021-10-08T09:05:17Z</time>
      </trkpt>
      <trkpt lat="44.90167" lon="5.32492">
        <ele>1439.8</ele>
        <time>2021-10-08T09:05:18Z</time>
      </trkpt>
      <trkpt lat="44.90167" lon="5.3249">
        <ele>1439.8</ele>
        <time>2021-10-08T09:05:19Z</time>
      </trkpt>
      <trkpt lat="44.90167" lon="5.32488">
        <ele>1439.8</ele>
        <time>2021-10-08T09:05:20Z</time>
      </trkpt>
      <trkpt lat="44.90167" lon="5.32485">
        <ele>1439.8</ele>
        <time>2021-10-08T09:05:21Z</time>
      </trkpt>
      <trkpt lat="44.90167" lon="5.32483">
        <ele>1440.6</ele>
        <time>2021-10-08T09:05:22Z</time>
      </trkpt>
      <trkpt lat="44.90167" lon="5.32481">
        <ele>1440.6</ele>
        <time>2021-10-08T09:05:23Z</time>
      </trkpt>
      <trkpt lat="44.90167" lon="5.32479">
        <ele>1440.6</ele>
        <time>2021-10-08T09:05:24Z</time>
      </trkpt>
      <trkpt lat="44.90167" lon="5.32477">
        <ele>1440.8</ele>
        <time>2021-10-08T09:05:25Z</time>
      </trkpt>
      <trkpt lat="44.90167" lon="5.32475">
        <ele>1441.2</ele>
        <time>2021-10-08T09:05:26Z</time>
      </trkpt>
      <trkpt lat="44.90167" lon="5.32472">
        <ele>1441.2</ele>
        <time>2021-10-08T09:05:27Z</time>
      </trkpt>
      <trkpt lat="44.90167" lon="5.3247">
        <ele>1441.2</ele>
        <time>2021-10-08T09:05:28Z</time>
      </trkpt>
      <trkpt lat="44.90167" lon="5.32468">
        <ele>1442.2</ele>
        <time>2021-10-08T09:05:29Z</time>
      </trkpt>
      <trkpt lat="44.90167" lon="5.32466">
        <ele>1442.4</ele>
        <time>2021-10-08T09:05:30Z</time>
      </trkpt>
      <trkpt lat="44.90167" lon="5.32464">
        <ele>1442.4</ele>
        <time>2021-10-08T09:05:31Z</time>
      </trkpt>
      <trkpt lat="44.90168" lon="5.32462">
        <ele>1442.4</ele>
        <time>2021-10-08T09:05:32Z</time>
      </trkpt>
      <trkpt lat="44.90168" lon="5.3246">
        <ele>1443</ele>
        <time>2021-10-08T09:05:33Z</time>
      </trkpt>
      <trkpt lat="44.90168" lon="5.32458">
        <ele>1444.2</ele>
        <time>2021-10-08T09:05:34Z</time>
      </trkpt>
      <trkpt lat="44.90168" lon="5.32456">
        <ele>1444.2</ele>
        <time>2021-10-08T09:05:35Z</time>
      </trkpt>
      <trkpt lat="44.90169" lon="5.32455">
        <ele>1444.2</ele>
        <time>2021-10-08T09:05:36Z</time>
      </trkpt>
      <trkpt lat="44.90169" lon="5.32453">
        <ele>1444.2</ele>
        <time>2021-10-08T09:05:37Z</time>
      </trkpt>
      <trkpt lat="44.90169" lon="5.32451">
        <ele>1445</ele>
        <time>2021-10-08T09:05:38Z</time>
      </trkpt>
      <trkpt lat="44.90169" lon="5.32449">
        <ele>1445</ele>
        <time>2021-10-08T09:05:39Z</time>
      </trkpt>
      <trkpt lat="44.90169" lon="5.32447">
        <ele>1445</ele>
        <time>2021-10-08T09:05:40Z</time>
      </trkpt>
      <trkpt lat="44.90169" lon="5.32446">
        <ele>1446</ele>
        <time>2021-10-08T09:05:41Z</time>
      </trkpt>
      <trkpt lat="44.9017" lon="5.32444">
        <ele>1446.6</ele>
        <time>2021-10-08T09:05:42Z</time>
      </trkpt>
      <trkpt lat="44.9017" lon="5.32442">
        <ele>1446.6</ele>
        <time>2021-10-08T09:05:43Z</time>
      </trkpt>
      <trkpt lat="44.9017" lon="5.3244">
        <ele>1446.6</ele>
        <time>2021-10-08T09:05:44Z</time>
      </trkpt>
      <trkpt lat="44.9017" lon="5.32439">
        <ele>1446.8</ele>
        <time>2021-10-08T09:05:45Z</time>
      </trkpt>
      <trkpt lat="44.9017" lon="5.32437">
        <ele>1447</ele>
        <time>2021-10-08T09:05:46Z</time>
      </trkpt>
      <trkpt lat="44.9017" lon="5.32435">
        <ele>1447</ele>
        <time>2021-10-08T09:05:47Z</time>
      </trkpt>
      <trkpt lat="44.90169" lon="5.32433">
        <ele>1447</ele>
        <time>2021-10-08T09:05:48Z</time>
      </trkpt>
      <trkpt lat="44.90169" lon="5.32431">
        <ele>1447.2</ele>
        <time>2021-10-08T09:05:49Z</time>
      </trkpt>
      <trkpt lat="44.90168" lon="5.32429">
        <ele>1447.4</ele>
        <time>2021-10-08T09:05:50Z</time>
      </trkpt>
      <trkpt lat="44.90167" lon="5.32427">
        <ele>1447.4</ele>
        <time>2021-10-08T09:05:51Z</time>
      </trkpt>
      <trkpt lat="44.90166" lon="5.32426">
        <ele>1447.4</ele>
        <time>2021-10-08T09:05:52Z</time>
      </trkpt>
      <trkpt lat="44.90165" lon="5.32424">
        <ele>1447.4</ele>
        <time>2021-10-08T09:05:53Z</time>
      </trkpt>
      <trkpt lat="44.90164" lon="5.32423">
        <ele>1447.8</ele>
        <time>2021-10-08T09:05:54Z</time>
      </trkpt>
      <trkpt lat="44.90164" lon="5.32422">
        <ele>1447.8</ele>
        <time>2021-10-08T09:05:55Z</time>
      </trkpt>
      <trkpt lat="44.90162" lon="5.32421">
        <ele>1447.8</ele>
        <time>2021-10-08T09:05:56Z</time>
      </trkpt>
      <trkpt lat="44.90161" lon="5.3242">
        <ele>1448.2</ele>
        <time>2021-10-08T09:05:57Z</time>
      </trkpt>
      <trkpt lat="44.9016" lon="5.32419">
        <ele>1448.2</ele>
        <time>2021-10-08T09:05:58Z</time>
      </trkpt>
      <trkpt lat="44.90159" lon="5.32418">
        <ele>1448.2</ele>
        <time>2021-10-08T09:05:59Z</time>
      </trkpt>
      <trkpt lat="44.90158" lon="5.32417">
        <ele>1448.2</ele>
        <time>2021-10-08T09:06:00Z</time>
      </trkpt>
      <trkpt lat="44.90156" lon="5.32416">
        <ele>1448.4</ele>
        <time>2021-10-08T09:06:01Z</time>
      </trkpt>
      <trkpt lat="44.90155" lon="5.32416">
        <ele>1449</ele>
        <time>2021-10-08T09:06:02Z</time>
      </trkpt>
      <trkpt lat="44.90154" lon="5.32415">
        <ele>1449</ele>
        <time>2021-10-08T09:06:03Z</time>
      </trkpt>
      <trkpt lat="44.90152" lon="5.32415">
        <ele>1449</ele>
        <time>2021-10-08T09:06:04Z</time>
      </trkpt>
      <trkpt lat="44.90151" lon="5.32414">
        <ele>1449</ele>
        <time>2021-10-08T09:06:05Z</time>
      </trkpt>
      <trkpt lat="44.9015" lon="5.32413">
        <ele>1449.2</ele>
        <time>2021-10-08T09:06:06Z</time>
      </trkpt>
      <trkpt lat="44.90149" lon="5.32412">
        <ele>1449.2</ele>
        <time>2021-10-08T09:06:07Z</time>
      </trkpt>
      <trkpt lat="44.90147" lon="5.32411">
        <ele>1449.2</ele>
        <time>2021-10-08T09:06:08Z</time>
      </trkpt>
      <trkpt lat="44.90146" lon="5.3241">
        <ele>1449.8</ele>
        <time>2021-10-08T09:06:09Z</time>
      </trkpt>
      <trkpt lat="44.90145" lon="5.32409">
        <ele>1449.6</ele>
        <time>2021-10-08T09:06:10Z</time>
      </trkpt>
      <trkpt lat="44.90144" lon="5.32408">
        <ele>1449.6</ele>
        <time>2021-10-08T09:06:11Z</time>
      </trkpt>
      <trkpt lat="44.90143" lon="5.32408">
        <ele>1449.6</ele>
        <time>2021-10-08T09:06:12Z</time>
      </trkpt>
      <trkpt lat="44.90141" lon="5.32407">
        <ele>1450.2</ele>
        <time>2021-10-08T09:06:13Z</time>
      </trkpt>
      <trkpt lat="44.9014" lon="5.32406">
        <ele>1450</ele>
        <time>2021-10-08T09:06:14Z</time>
      </trkpt>
      <trkpt lat="44.90139" lon="5.32405">
        <ele>1450</ele>
        <time>2021-10-08T09:06:15Z</time>
      </trkpt>
      <trkpt lat="44.90138" lon="5.32404">
        <ele>1450</ele>
        <time>2021-10-08T09:06:16Z</time>
      </trkpt>
      <trkpt lat="44.90136" lon="5.32403">
        <ele>1450</ele>
        <time>2021-10-08T09:06:17Z</time>
      </trkpt>
      <trkpt lat="44.90135" lon="5.32402">
        <ele>1450.4</ele>
        <time>2021-10-08T09:06:18Z</time>
      </trkpt>
      <trkpt lat="44.90134" lon="5.32401">
        <ele>1450.4</ele>
        <time>2021-10-08T09:06:19Z</time>
      </trkpt>
      <trkpt lat="44.90133" lon="5.324">
        <ele>1450.4</ele>
        <time>2021-10-08T09:06:20Z</time>
      </trkpt>
      <trkpt lat="44.90132" lon="5.32399">
        <ele>1451</ele>
        <time>2021-10-08T09:06:21Z</time>
      </trkpt>
      <trkpt lat="44.90131" lon="5.32398">
        <ele>1450.8</ele>
        <time>2021-10-08T09:06:22Z</time>
      </trkpt>
      <trkpt lat="44.9013" lon="5.32396">
        <ele>1450.8</ele>
        <time>2021-10-08T09:06:23Z</time>
      </trkpt>
      <trkpt lat="44.90128" lon="5.32395">
        <ele>1450.8</ele>
        <time>2021-10-08T09:06:24Z</time>
      </trkpt>
      <trkpt lat="44.90127" lon="5.32394">
        <ele>1450.8</ele>
        <time>2021-10-08T09:06:25Z</time>
      </trkpt>
      <trkpt lat="44.90126" lon="5.32392">
        <ele>1450.8</ele>
        <time>2021-10-08T09:06:26Z</time>
      </trkpt>
      <trkpt lat="44.90125" lon="5.32391">
        <ele>1450.8</ele>
        <time>2021-10-08T09:06:27Z</time>
      </trkpt>
      <trkpt lat="44.90124" lon="5.32389">
        <ele>1450.8</ele>
        <time>2021-10-08T09:06:28Z</time>
      </trkpt>
      <trkpt lat="44.90123" lon="5.32388">
        <ele>1450.6</ele>
        <time>2021-10-08T09:06:29Z</time>
      </trkpt>
      <trkpt lat="44.90121" lon="5.32386">
        <ele>1450.4</ele>
        <time>2021-10-08T09:06:30Z</time>
      </trkpt>
      <trkpt lat="44.9012" lon="5.32384">
        <ele>1450.4</ele>
        <time>2021-10-08T09:06:31Z</time>
      </trkpt>
      <trkpt lat="44.90119" lon="5.32383">
        <ele>1450.4</ele>
        <time>2021-10-08T09:06:32Z</time>
      </trkpt>
      <trkpt lat="44.90118" lon="5.32381">
        <ele>1450.6</ele>
        <time>2021-10-08T09:06:33Z</time>
      </trkpt>
      <trkpt lat="44.90116" lon="5.32379">
        <ele>1450.6</ele>
        <time>2021-10-08T09:06:34Z</time>
      </trkpt>
      <trkpt lat="44.90115" lon="5.32378">
        <ele>1450.6</ele>
        <time>2021-10-08T09:06:35Z</time>
      </trkpt>
      <trkpt lat="44.90113" lon="5.32376">
        <ele>1450.6</ele>
        <time>2021-10-08T09:06:36Z</time>
      </trkpt>
      <trkpt lat="44.90111" lon="5.32373">
        <ele>1450.6</ele>
        <time>2021-10-08T09:06:37Z</time>
      </trkpt>
      <trkpt lat="44.90109" lon="5.32371">
        <ele>1450</ele>
        <time>2021-10-08T09:06:38Z</time>
      </trkpt>
      <trkpt lat="44.90108" lon="5.32369">
        <ele>1450</ele>
        <time>2021-10-08T09:06:39Z</time>
      </trkpt>
      <trkpt lat="44.90106" lon="5.32367">
        <ele>1450</ele>
        <time>2021-10-08T09:06:40Z</time>
      </trkpt>
      <trkpt lat="44.90104" lon="5.32365">
        <ele>1450</ele>
        <time>2021-10-08T09:06:41Z</time>
      </trkpt>
      <trkpt lat="44.90102" lon="5.32362">
        <ele>1448.4</ele>
        <time>2021-10-08T09:06:42Z</time>
      </trkpt>
      <trkpt lat="44.901" lon="5.32361">
        <ele>1448.4</ele>
        <time>2021-10-08T09:06:43Z</time>
      </trkpt>
      <trkpt lat="44.90097" lon="5.32359">
        <ele>1448.4</ele>
        <time>2021-10-08T09:06:44Z</time>
      </trkpt>
      <trkpt lat="44.90095" lon="5.32356">
        <ele>1448.2</ele>
        <time>2021-10-08T09:06:45Z</time>
      </trkpt>
      <trkpt lat="44.90092" lon="5.32354">
        <ele>1447.2</ele>
        <time>2021-10-08T09:06:46Z</time>
      </trkpt>
      <trkpt lat="44.90089" lon="5.3235">
        <ele>1447.2</ele>
        <time>2021-10-08T09:06:47Z</time>
      </trkpt>
      <trkpt lat="44.90086" lon="5.32347">
        <ele>1447.2</ele>
        <time>2021-10-08T09:06:48Z</time>
      </trkpt>
      <trkpt lat="44.90083" lon="5.32343">
        <ele>1446.2</ele>
        <time>2021-10-08T09:06:49Z</time>
      </trkpt>
      <trkpt lat="44.9008" lon="5.32339">
        <ele>1444</ele>
        <time>2021-10-08T09:06:50Z</time>
      </trkpt>
      <trkpt lat="44.90076" lon="5.32334">
        <ele>1444</ele>
        <time>2021-10-08T09:06:51Z</time>
      </trkpt>
      <trkpt lat="44.90073" lon="5.3233">
        <ele>1444</ele>
        <time>2021-10-08T09:06:52Z</time>
      </trkpt>
      <trkpt lat="44.90069" lon="5.32326">
        <ele>1443</ele>
        <time>2021-10-08T09:06:53Z</time>
      </trkpt>
      <trkpt lat="44.90065" lon="5.32321">
        <ele>1439.2</ele>
        <time>2021-10-08T09:06:54Z</time>
      </trkpt>
      <trkpt lat="44.90061" lon="5.32316">
        <ele>1439.2</ele>
        <time>2021-10-08T09:06:55Z</time>
      </trkpt>
      <trkpt lat="44.90057" lon="5.3231">
        <ele>1439.2</ele>
        <time>2021-10-08T09:06:56Z</time>
      </trkpt>
      <trkpt lat="44.90054" lon="5.32304">
        <ele>1438.2</ele>
        <time>2021-10-08T09:06:57Z</time>
      </trkpt>
      <trkpt lat="44.9005" lon="5.323">
        <ele>1438.4</ele>
        <time>2021-10-08T09:06:58Z</time>
      </trkpt>
      <trkpt lat="44.90046" lon="5.32296">
        <ele>1438.4</ele>
        <time>2021-10-08T09:06:59Z</time>
      </trkpt>
      <trkpt lat="44.90043" lon="5.32292">
        <ele>1438.4</ele>
        <time>2021-10-08T09:07:00Z</time>
      </trkpt>
      <trkpt lat="44.9004" lon="5.32289">
        <ele>1438.6</ele>
        <time>2021-10-08T09:07:01Z</time>
      </trkpt>
      <trkpt lat="44.90037" lon="5.32286">
        <ele>1438.2</ele>
        <time>2021-10-08T09:07:02Z</time>
      </trkpt>
      <trkpt lat="44.90035" lon="5.32283">
        <ele>1438.2</ele>
        <time>2021-10-08T09:07:03Z</time>
      </trkpt>
      <trkpt lat="44.90032" lon="5.3228">
        <ele>1438.2</ele>
        <time>2021-10-08T09:07:04Z</time>
      </trkpt>
      <trkpt lat="44.9003" lon="5.32277">
        <ele>1438.2</ele>
        <time>2021-10-08T09:07:05Z</time>
      </trkpt>
      <trkpt lat="44.90028" lon="5.32274">
        <ele>1437.4</ele>
        <time>2021-10-08T09:07:06Z</time>
      </trkpt>
      <trkpt lat="44.90025" lon="5.32271">
        <ele>1437.4</ele>
        <time>2021-10-08T09:07:07Z</time>
      </trkpt>
      <trkpt lat="44.90021" lon="5.32269">
        <ele>1437.4</ele>
        <time>2021-10-08T09:07:08Z</time>
      </trkpt>
      <trkpt lat="44.90018" lon="5.32265">
        <ele>1436.4</ele>
        <time>2021-10-08T09:07:09Z</time>
      </trkpt>
      <trkpt lat="44.90015" lon="5.32262">
        <ele>1436.6</ele>
        <time>2021-10-08T09:07:10Z</time>
      </trkpt>
      <trkpt lat="44.90012" lon="5.32259">
        <ele>1436.6</ele>
        <time>2021-10-08T09:07:11Z</time>
      </trkpt>
      <trkpt lat="44.90009" lon="5.32255">
        <ele>1436.6</ele>
        <time>2021-10-08T09:07:12Z</time>
      </trkpt>
      <trkpt lat="44.90005" lon="5.32252">
        <ele>1435.6</ele>
        <time>2021-10-08T09:07:13Z</time>
      </trkpt>
      <trkpt lat="44.90002" lon="5.32248">
        <ele>1435.2</ele>
        <time>2021-10-08T09:07:14Z</time>
      </trkpt>
      <trkpt lat="44.9" lon="5.32245">
        <ele>1435.2</ele>
        <time>2021-10-08T09:07:15Z</time>
      </trkpt>
      <trkpt lat="44.89998" lon="5.32241">
        <ele>1435.2</ele>
        <time>2021-10-08T09:07:16Z</time>
      </trkpt>
      <trkpt lat="44.89995" lon="5.32238">
        <ele>1435.2</ele>
        <time>2021-10-08T09:07:17Z</time>
      </trkpt>
      <trkpt lat="44.89992" lon="5.32235">
        <ele>1435.2</ele>
        <time>2021-10-08T09:07:18Z</time>
      </trkpt>
      <trkpt lat="44.89989" lon="5.32233">
        <ele>1435.2</ele>
        <time>2021-10-08T09:07:19Z</time>
      </trkpt>
      <trkpt lat="44.89986" lon="5.32231">
        <ele>1435.2</ele>
        <time>2021-10-08T09:07:20Z</time>
      </trkpt>
      <trkpt lat="44.89983" lon="5.32229">
        <ele>1436</ele>
        <time>2021-10-08T09:07:21Z</time>
      </trkpt>
      <trkpt lat="44.8998" lon="5.32227">
        <ele>1436</ele>
        <time>2021-10-08T09:07:22Z</time>
      </trkpt>
      <trkpt lat="44.89978" lon="5.32225">
        <ele>1436</ele>
        <time>2021-10-08T09:07:23Z</time>
      </trkpt>
      <trkpt lat="44.89975" lon="5.32224">
        <ele>1436</ele>
        <time>2021-10-08T09:07:24Z</time>
      </trkpt>
      <trkpt lat="44.89973" lon="5.32222">
        <ele>1436.4</ele>
        <time>2021-10-08T09:07:25Z</time>
      </trkpt>
      <trkpt lat="44.89971" lon="5.3222">
        <ele>1436.6</ele>
        <time>2021-10-08T09:07:26Z</time>
      </trkpt>
      <trkpt lat="44.8997" lon="5.32219">
        <ele>1436.6</ele>
        <time>2021-10-08T09:07:27Z</time>
      </trkpt>
      <trkpt lat="44.89968" lon="5.32217">
        <ele>1436.6</ele>
        <time>2021-10-08T09:07:28Z</time>
      </trkpt>
      <trkpt lat="44.89966" lon="5.32216">
        <ele>1436.6</ele>
        <time>2021-10-08T09:07:29Z</time>
      </trkpt>
      <trkpt lat="44.89963" lon="5.32215">
        <ele>1436.2</ele>
        <time>2021-10-08T09:07:30Z</time>
      </trkpt>
      <trkpt lat="44.89961" lon="5.32215">
        <ele>1436.2</ele>
        <time>2021-10-08T09:07:31Z</time>
      </trkpt>
      <trkpt lat="44.89959" lon="5.32214">
        <ele>1436.2</ele>
        <time>2021-10-08T09:07:32Z</time>
      </trkpt>
      <trkpt lat="44.89956" lon="5.32214">
        <ele>1436.2</ele>
        <time>2021-10-08T09:07:33Z</time>
      </trkpt>
      <trkpt lat="44.89954" lon="5.32213">
        <ele>1436.8</ele>
        <time>2021-10-08T09:07:34Z</time>
      </trkpt>
      <trkpt lat="44.89952" lon="5.32213">
        <ele>1436.8</ele>
        <time>2021-10-08T09:07:35Z</time>
      </trkpt>
      <trkpt lat="44.89949" lon="5.32212">
        <ele>1436.8</ele>
        <time>2021-10-08T09:07:36Z</time>
      </trkpt>
      <trkpt lat="44.89947" lon="5.32213">
        <ele>1436.8</ele>
        <time>2021-10-08T09:07:37Z</time>
      </trkpt>
      <trkpt lat="44.89945" lon="5.32214">
        <ele>1436.6</ele>
        <time>2021-10-08T09:07:38Z</time>
      </trkpt>
      <trkpt lat="44.89943" lon="5.32216">
        <ele>1436.6</ele>
        <time>2021-10-08T09:07:39Z</time>
      </trkpt>
      <trkpt lat="44.89941" lon="5.32219">
        <ele>1436.6</ele>
        <time>2021-10-08T09:07:40Z</time>
      </trkpt>
      <trkpt lat="44.89939" lon="5.32222">
        <ele>1436.6</ele>
        <time>2021-10-08T09:07:41Z</time>
      </trkpt>
      <trkpt lat="44.89938" lon="5.32225">
        <ele>1436.2</ele>
        <time>2021-10-08T09:07:42Z</time>
      </trkpt>
      <trkpt lat="44.89936" lon="5.32229">
        <ele>1436.2</ele>
        <time>2021-10-08T09:07:43Z</time>
      </trkpt>
      <trkpt lat="44.89934" lon="5.32232">
        <ele>1436.2</ele>
        <time>2021-10-08T09:07:44Z</time>
      </trkpt>
      <trkpt lat="44.89933" lon="5.32236">
        <ele>1436</ele>
        <time>2021-10-08T09:07:45Z</time>
      </trkpt>
      <trkpt lat="44.89931" lon="5.32239">
        <ele>1436.4</ele>
        <time>2021-10-08T09:07:46Z</time>
      </trkpt>
      <trkpt lat="44.89929" lon="5.32242">
        <ele>1436.4</ele>
        <time>2021-10-08T09:07:47Z</time>
      </trkpt>
      <trkpt lat="44.89927" lon="5.32244">
        <ele>1436.4</ele>
        <time>2021-10-08T09:07:48Z</time>
      </trkpt>
      <trkpt lat="44.89924" lon="5.32247">
        <ele>1436.2</ele>
        <time>2021-10-08T09:07:49Z</time>
      </trkpt>
      <trkpt lat="44.89922" lon="5.3225">
        <ele>1436.4</ele>
        <time>2021-10-08T09:07:50Z</time>
      </trkpt>
      <trkpt lat="44.8992" lon="5.32252">
        <ele>1436.4</ele>
        <time>2021-10-08T09:07:51Z</time>
      </trkpt>
      <trkpt lat="44.89917" lon="5.32254">
        <ele>1436.4</ele>
        <time>2021-10-08T09:07:52Z</time>
      </trkpt>
      <trkpt lat="44.89915" lon="5.32256">
        <ele>1436.4</ele>
        <time>2021-10-08T09:07:53Z</time>
      </trkpt>
      <trkpt lat="44.89913" lon="5.32257">
        <ele>1436.6</ele>
        <time>2021-10-08T09:07:54Z</time>
      </trkpt>
      <trkpt lat="44.8991" lon="5.32258">
        <ele>1436.6</ele>
        <time>2021-10-08T09:07:55Z</time>
      </trkpt>
      <trkpt lat="44.89908" lon="5.32258">
        <ele>1436.6</ele>
        <time>2021-10-08T09:07:56Z</time>
      </trkpt>
      <trkpt lat="44.89906" lon="5.32258">
        <ele>1437</ele>
        <time>2021-10-08T09:07:57Z</time>
      </trkpt>
      <trkpt lat="44.89904" lon="5.32258">
        <ele>1436.8</ele>
        <time>2021-10-08T09:07:58Z</time>
      </trkpt>
      <trkpt lat="44.89902" lon="5.32258">
        <ele>1436.8</ele>
        <time>2021-10-08T09:07:59Z</time>
      </trkpt>
      <trkpt lat="44.899" lon="5.32259">
        <ele>1436.8</ele>
        <time>2021-10-08T09:08:00Z</time>
      </trkpt>
      <trkpt lat="44.89898" lon="5.32259">
        <ele>1437.4</ele>
        <time>2021-10-08T09:08:01Z</time>
      </trkpt>
      <trkpt lat="44.89897" lon="5.32258">
        <ele>1437.2</ele>
        <time>2021-10-08T09:08:02Z</time>
      </trkpt>
      <trkpt lat="44.89895" lon="5.32258">
        <ele>1437.2</ele>
        <time>2021-10-08T09:08:03Z</time>
      </trkpt>
      <trkpt lat="44.89893" lon="5.32259">
        <ele>1437.2</ele>
        <time>2021-10-08T09:08:04Z</time>
      </trkpt>
      <trkpt lat="44.89891" lon="5.32259">
        <ele>1437.4</ele>
        <time>2021-10-08T09:08:05Z</time>
      </trkpt>
      <trkpt lat="44.89889" lon="5.32259">
        <ele>1437.4</ele>
        <time>2021-10-08T09:08:06Z</time>
      </trkpt>
      <trkpt lat="44.89887" lon="5.32257">
        <ele>1437.4</ele>
        <time>2021-10-08T09:08:07Z</time>
      </trkpt>
      <trkpt lat="44.89886" lon="5.32256">
        <ele>1437.4</ele>
        <time>2021-10-08T09:08:08Z</time>
      </trkpt>
      <trkpt lat="44.89884" lon="5.32254">
        <ele>1437.4</ele>
        <time>2021-10-08T09:08:09Z</time>
      </trkpt>
      <trkpt lat="44.89882" lon="5.32253">
        <ele>1437.6</ele>
        <time>2021-10-08T09:08:10Z</time>
      </trkpt>
      <trkpt lat="44.89879" lon="5.32253">
        <ele>1437.6</ele>
        <time>2021-10-08T09:08:11Z</time>
      </trkpt>
      <trkpt lat="44.89877" lon="5.32252">
        <ele>1437.6</ele>
        <time>2021-10-08T09:08:12Z</time>
      </trkpt>
      <trkpt lat="44.89875" lon="5.3225">
        <ele>1437.6</ele>
        <time>2021-10-08T09:08:13Z</time>
      </trkpt>
      <trkpt lat="44.89872" lon="5.3225">
        <ele>1438</ele>
        <time>2021-10-08T09:08:14Z</time>
      </trkpt>
      <trkpt lat="44.8987" lon="5.32249">
        <ele>1438</ele>
        <time>2021-10-08T09:08:15Z</time>
      </trkpt>
      <trkpt lat="44.89868" lon="5.32248">
        <ele>1438</ele>
        <time>2021-10-08T09:08:16Z</time>
      </trkpt>
      <trkpt lat="44.89866" lon="5.32246">
        <ele>1438</ele>
        <time>2021-10-08T09:08:17Z</time>
      </trkpt>
      <trkpt lat="44.89863" lon="5.32245">
        <ele>1438.4</ele>
        <time>2021-10-08T09:08:18Z</time>
      </trkpt>
      <trkpt lat="44.89861" lon="5.32243">
        <ele>1438.4</ele>
        <time>2021-10-08T09:08:19Z</time>
      </trkpt>
      <trkpt lat="44.89859" lon="5.32241">
        <ele>1438.4</ele>
        <time>2021-10-08T09:08:20Z</time>
      </trkpt>
      <trkpt lat="44.89857" lon="5.32239">
        <ele>1438.4</ele>
        <time>2021-10-08T09:08:21Z</time>
      </trkpt>
      <trkpt lat="44.89855" lon="5.32237">
        <ele>1438.6</ele>
        <time>2021-10-08T09:08:22Z</time>
      </trkpt>
      <trkpt lat="44.89853" lon="5.32235">
        <ele>1438.6</ele>
        <time>2021-10-08T09:08:23Z</time>
      </trkpt>
      <trkpt lat="44.89851" lon="5.32233">
        <ele>1438.6</ele>
        <time>2021-10-08T09:08:24Z</time>
      </trkpt>
      <trkpt lat="44.89849" lon="5.32231">
        <ele>1438.6</ele>
        <time>2021-10-08T09:08:25Z</time>
      </trkpt>
      <trkpt lat="44.89847" lon="5.32228">
        <ele>1439</ele>
        <time>2021-10-08T09:08:26Z</time>
      </trkpt>
      <trkpt lat="44.89846" lon="5.32225">
        <ele>1439</ele>
        <time>2021-10-08T09:08:27Z</time>
      </trkpt>
      <trkpt lat="44.89844" lon="5.32222">
        <ele>1439</ele>
        <time>2021-10-08T09:08:28Z</time>
      </trkpt>
      <trkpt lat="44.89843" lon="5.32219">
        <ele>1439.4</ele>
        <time>2021-10-08T09:08:29Z</time>
      </trkpt>
      <trkpt lat="44.89841" lon="5.32216">
        <ele>1439.4</ele>
        <time>2021-10-08T09:08:30Z</time>
      </trkpt>
      <trkpt lat="44.8984" lon="5.32213">
        <ele>1439.4</ele>
        <time>2021-10-08T09:08:31Z</time>
      </trkpt>
      <trkpt lat="44.89838" lon="5.3221">
        <ele>1439.4</ele>
        <time>2021-10-08T09:08:32Z</time>
      </trkpt>
      <trkpt lat="44.89837" lon="5.32207">
        <ele>1439.4</ele>
        <time>2021-10-08T09:08:33Z</time>
      </trkpt>
      <trkpt lat="44.89836" lon="5.32203">
        <ele>1439.8</ele>
        <time>2021-10-08T09:08:34Z</time>
      </trkpt>
      <trkpt lat="44.89835" lon="5.322">
        <ele>1439.8</ele>
        <time>2021-10-08T09:08:35Z</time>
      </trkpt>
      <trkpt lat="44.89834" lon="5.32196">
        <ele>1439.8</ele>
        <time>2021-10-08T09:08:36Z</time>
      </trkpt>
      <trkpt lat="44.89833" lon="5.32193">
        <ele>1439.8</ele>
        <time>2021-10-08T09:08:37Z</time>
      </trkpt>
      <trkpt lat="44.89832" lon="5.3219">
        <ele>1440.2</ele>
        <time>2021-10-08T09:08:38Z</time>
      </trkpt>
      <trkpt lat="44.89831" lon="5.32186">
        <ele>1440.2</ele>
        <time>2021-10-08T09:08:39Z</time>
      </trkpt>
      <trkpt lat="44.8983" lon="5.32183">
        <ele>1440.2</ele>
        <time>2021-10-08T09:08:40Z</time>
      </trkpt>
      <trkpt lat="44.89829" lon="5.32179">
        <ele>1440.2</ele>
        <time>2021-10-08T09:08:41Z</time>
      </trkpt>
      <trkpt lat="44.89828" lon="5.32176">
        <ele>1440.4</ele>
        <time>2021-10-08T09:08:42Z</time>
      </trkpt>
      <trkpt lat="44.89827" lon="5.32172">
        <ele>1440.4</ele>
        <time>2021-10-08T09:08:43Z</time>
      </trkpt>
      <trkpt lat="44.89826" lon="5.32169">
        <ele>1440.4</ele>
        <time>2021-10-08T09:08:44Z</time>
      </trkpt>
      <trkpt lat="44.89825" lon="5.32166">
        <ele>1440.6</ele>
        <time>2021-10-08T09:08:45Z</time>
      </trkpt>
      <trkpt lat="44.89825" lon="5.32162">
        <ele>1440.6</ele>
        <time>2021-10-08T09:08:46Z</time>
      </trkpt>
      <trkpt lat="44.89825" lon="5.32159">
        <ele>1440.6</ele>
        <time>2021-10-08T09:08:47Z</time>
      </trkpt>
      <trkpt lat="44.89826" lon="5.32155">
        <ele>1440.6</ele>
        <time>2021-10-08T09:08:48Z</time>
      </trkpt>
      <trkpt lat="44.89825" lon="5.32151">
        <ele>1440.6</ele>
        <time>2021-10-08T09:08:49Z</time>
      </trkpt>
      <trkpt lat="44.89825" lon="5.32148">
        <ele>1441</ele>
        <time>2021-10-08T09:08:50Z</time>
      </trkpt>
      <trkpt lat="44.89823" lon="5.32145">
        <ele>1441</ele>
        <time>2021-10-08T09:08:51Z</time>
      </trkpt>
      <trkpt lat="44.89822" lon="5.32141">
        <ele>1441</ele>
        <time>2021-10-08T09:08:52Z</time>
      </trkpt>
      <trkpt lat="44.89821" lon="5.32138">
        <ele>1441</ele>
        <time>2021-10-08T09:08:53Z</time>
      </trkpt>
      <trkpt lat="44.8982" lon="5.32135">
        <ele>1441</ele>
        <time>2021-10-08T09:08:54Z</time>
      </trkpt>
      <trkpt lat="44.8982" lon="5.32132">
        <ele>1441</ele>
        <time>2021-10-08T09:08:55Z</time>
      </trkpt>
      <trkpt lat="44.89819" lon="5.32129">
        <ele>1441</ele>
        <time>2021-10-08T09:08:56Z</time>
      </trkpt>
      <trkpt lat="44.89819" lon="5.32125">
        <ele>1441.4</ele>
        <time>2021-10-08T09:08:57Z</time>
      </trkpt>
      <trkpt lat="44.89818" lon="5.32122">
        <ele>1441.4</ele>
        <time>2021-10-08T09:08:58Z</time>
      </trkpt>
      <trkpt lat="44.89817" lon="5.32119">
        <ele>1441.4</ele>
        <time>2021-10-08T09:08:59Z</time>
      </trkpt>
      <trkpt lat="44.89817" lon="5.32115">
        <ele>1441.4</ele>
        <time>2021-10-08T09:09:00Z</time>
      </trkpt>
      <trkpt lat="44.89816" lon="5.32112">
        <ele>1441.4</ele>
        <time>2021-10-08T09:09:01Z</time>
      </trkpt>
      <trkpt lat="44.89815" lon="5.32108">
        <ele>1441.6</ele>
        <time>2021-10-08T09:09:02Z</time>
      </trkpt>
      <trkpt lat="44.89814" lon="5.32105">
        <ele>1441.6</ele>
        <time>2021-10-08T09:09:03Z</time>
      </trkpt>
      <trkpt lat="44.89813" lon="5.32102">
        <ele>1441.6</ele>
        <time>2021-10-08T09:09:04Z</time>
      </trkpt>
      <trkpt lat="44.89812" lon="5.32098">
        <ele>1441.8</ele>
        <time>2021-10-08T09:09:05Z</time>
      </trkpt>
      <trkpt lat="44.89811" lon="5.32095">
        <ele>1441.8</ele>
        <time>2021-10-08T09:09:06Z</time>
      </trkpt>
      <trkpt lat="44.8981" lon="5.32091">
        <ele>1441.8</ele>
        <time>2021-10-08T09:09:07Z</time>
      </trkpt>
      <trkpt lat="44.8981" lon="5.32088">
        <ele>1441.8</ele>
        <time>2021-10-08T09:09:08Z</time>
      </trkpt>
      <trkpt lat="44.89809" lon="5.32084">
        <ele>1442.2</ele>
        <time>2021-10-08T09:09:09Z</time>
      </trkpt>
      <trkpt lat="44.89809" lon="5.32081">
        <ele>1442.2</ele>
        <time>2021-10-08T09:09:10Z</time>
      </trkpt>
      <trkpt lat="44.89808" lon="5.32077">
        <ele>1442.2</ele>
        <time>2021-10-08T09:09:11Z</time>
      </trkpt>
      <trkpt lat="44.89807" lon="5.32074">
        <ele>1442.2</ele>
        <time>2021-10-08T09:09:12Z</time>
      </trkpt>
      <trkpt lat="44.89806" lon="5.32071">
        <ele>1442.4</ele>
        <time>2021-10-08T09:09:13Z</time>
      </trkpt>
      <trkpt lat="44.89804" lon="5.32068">
        <ele>1442.6</ele>
        <time>2021-10-08T09:09:14Z</time>
      </trkpt>
      <trkpt lat="44.89803" lon="5.32065">
        <ele>1442.6</ele>
        <time>2021-10-08T09:09:15Z</time>
      </trkpt>
      <trkpt lat="44.89802" lon="5.32061">
        <ele>1442.6</ele>
        <time>2021-10-08T09:09:16Z</time>
      </trkpt>
      <trkpt lat="44.89801" lon="5.32058">
        <ele>1442.6</ele>
        <time>2021-10-08T09:09:17Z</time>
      </trkpt>
      <trkpt lat="44.89799" lon="5.32056">
        <ele>1443</ele>
        <time>2021-10-08T09:09:18Z</time>
      </trkpt>
      <trkpt lat="44.89798" lon="5.32053">
        <ele>1443</ele>
        <time>2021-10-08T09:09:19Z</time>
      </trkpt>
      <trkpt lat="44.89796" lon="5.3205">
        <ele>1443</ele>
        <time>2021-10-08T09:09:20Z</time>
      </trkpt>
      <trkpt lat="44.89795" lon="5.32047">
        <ele>1443</ele>
        <time>2021-10-08T09:09:21Z</time>
      </trkpt>
      <trkpt lat="44.89793" lon="5.32044">
        <ele>1443</ele>
        <time>2021-10-08T09:09:22Z</time>
      </trkpt>
      <trkpt lat="44.89791" lon="5.32042">
        <ele>1443</ele>
        <time>2021-10-08T09:09:23Z</time>
      </trkpt>
      <trkpt lat="44.8979" lon="5.32039">
        <ele>1443</ele>
        <time>2021-10-08T09:09:24Z</time>
      </trkpt>
      <trkpt lat="44.89788" lon="5.32037">
        <ele>1443.2</ele>
        <time>2021-10-08T09:09:25Z</time>
      </trkpt>
      <trkpt lat="44.89787" lon="5.32034">
        <ele>1443.8</ele>
        <time>2021-10-08T09:09:26Z</time>
      </trkpt>
      <trkpt lat="44.89785" lon="5.32031">
        <ele>1443.8</ele>
        <time>2021-10-08T09:09:27Z</time>
      </trkpt>
      <trkpt lat="44.89783" lon="5.32029">
        <ele>1443.8</ele>
        <time>2021-10-08T09:09:28Z</time>
      </trkpt>
      <trkpt lat="44.89782" lon="5.32026">
        <ele>1443.8</ele>
        <time>2021-10-08T09:09:29Z</time>
      </trkpt>
      <trkpt lat="44.8978" lon="5.32024">
        <ele>1444</ele>
        <time>2021-10-08T09:09:30Z</time>
      </trkpt>
      <trkpt lat="44.89778" lon="5.32021">
        <ele>1444</ele>
        <time>2021-10-08T09:09:31Z</time>
      </trkpt>
      <trkpt lat="44.89776" lon="5.32019">
        <ele>1444</ele>
        <time>2021-10-08T09:09:32Z</time>
      </trkpt>
      <trkpt lat="44.89774" lon="5.32016">
        <ele>1444</ele>
        <time>2021-10-08T09:09:33Z</time>
      </trkpt>
      <trkpt lat="44.89772" lon="5.32014">
        <ele>1444.2</ele>
        <time>2021-10-08T09:09:34Z</time>
      </trkpt>
      <trkpt lat="44.89771" lon="5.32011">
        <ele>1444.2</ele>
        <time>2021-10-08T09:09:35Z</time>
      </trkpt>
      <trkpt lat="44.89769" lon="5.32009">
        <ele>1444.2</ele>
        <time>2021-10-08T09:09:36Z</time>
      </trkpt>
      <trkpt lat="44.89768" lon="5.32006">
        <ele>1444.2</ele>
        <time>2021-10-08T09:09:37Z</time>
      </trkpt>
      <trkpt lat="44.89766" lon="5.32003">
        <ele>1444.8</ele>
        <time>2021-10-08T09:09:38Z</time>
      </trkpt>
      <trkpt lat="44.89765" lon="5.32">
        <ele>1444.8</ele>
        <time>2021-10-08T09:09:39Z</time>
      </trkpt>
      <trkpt lat="44.89763" lon="5.31998">
        <ele>1444.8</ele>
        <time>2021-10-08T09:09:40Z</time>
      </trkpt>
      <trkpt lat="44.89762" lon="5.31995">
        <ele>1444.8</ele>
        <time>2021-10-08T09:09:41Z</time>
      </trkpt>
      <trkpt lat="44.8976" lon="5.31992">
        <ele>1444.8</ele>
        <time>2021-10-08T09:09:42Z</time>
      </trkpt>
      <trkpt lat="44.89759" lon="5.31989">
        <ele>1444.8</ele>
        <time>2021-10-08T09:09:43Z</time>
      </trkpt>
      <trkpt lat="44.89757" lon="5.31986">
        <ele>1444.8</ele>
        <time>2021-10-08T09:09:44Z</time>
      </trkpt>
      <trkpt lat="44.89755" lon="5.31983">
        <ele>1444.8</ele>
        <time>2021-10-08T09:09:45Z</time>
      </trkpt>
      <trkpt lat="44.89753" lon="5.31981">
        <ele>1445.2</ele>
        <time>2021-10-08T09:09:46Z</time>
      </trkpt>
      <trkpt lat="44.89751" lon="5.31979">
        <ele>1445.2</ele>
        <time>2021-10-08T09:09:47Z</time>
      </trkpt>
      <trkpt lat="44.89749" lon="5.31977">
        <ele>1445.2</ele>
        <time>2021-10-08T09:09:48Z</time>
      </trkpt>
      <trkpt lat="44.89747" lon="5.31975">
        <ele>1445.2</ele>
        <time>2021-10-08T09:09:49Z</time>
      </trkpt>
      <trkpt lat="44.89745" lon="5.31974">
        <ele>1445.6</ele>
        <time>2021-10-08T09:09:50Z</time>
      </trkpt>
      <trkpt lat="44.89743" lon="5.31973">
        <ele>1445.6</ele>
        <time>2021-10-08T09:09:51Z</time>
      </trkpt>
      <trkpt lat="44.8974" lon="5.31972">
        <ele>1445.6</ele>
        <time>2021-10-08T09:09:52Z</time>
      </trkpt>
      <trkpt lat="44.89738" lon="5.31971">
        <ele>1446.6</ele>
        <time>2021-10-08T09:09:53Z</time>
      </trkpt>
      <trkpt lat="44.89736" lon="5.31971">
        <ele>1446</ele>
        <time>2021-10-08T09:09:54Z</time>
      </trkpt>
      <trkpt lat="44.89734" lon="5.3197">
        <ele>1446</ele>
        <time>2021-10-08T09:09:55Z</time>
      </trkpt>
      <trkpt lat="44.89732" lon="5.31969">
        <ele>1446</ele>
        <time>2021-10-08T09:09:56Z</time>
      </trkpt>
      <trkpt lat="44.8973" lon="5.31969">
        <ele>1446.8</ele>
        <time>2021-10-08T09:09:57Z</time>
      </trkpt>
      <trkpt lat="44.89728" lon="5.31968">
        <ele>1446.8</ele>
        <time>2021-10-08T09:09:58Z</time>
      </trkpt>
      <trkpt lat="44.89726" lon="5.31968">
        <ele>1446.8</ele>
        <time>2021-10-08T09:09:59Z</time>
      </trkpt>
      <trkpt lat="44.89724" lon="5.31967">
        <ele>1446.8</ele>
        <time>2021-10-08T09:10:00Z</time>
      </trkpt>
      <trkpt lat="44.89722" lon="5.31966">
        <ele>1446.8</ele>
        <time>2021-10-08T09:10:01Z</time>
      </trkpt>
      <trkpt lat="44.8972" lon="5.31966">
        <ele>1447.2</ele>
        <time>2021-10-08T09:10:02Z</time>
      </trkpt>
      <trkpt lat="44.89718" lon="5.31966">
        <ele>1447.2</ele>
        <time>2021-10-08T09:10:03Z</time>
      </trkpt>
      <trkpt lat="44.89716" lon="5.31966">
        <ele>1447.2</ele>
        <time>2021-10-08T09:10:04Z</time>
      </trkpt>
      <trkpt lat="44.89714" lon="5.31966">
        <ele>1447.2</ele>
        <time>2021-10-08T09:10:05Z</time>
      </trkpt>
      <trkpt lat="44.89711" lon="5.31966">
        <ele>1447.8</ele>
        <time>2021-10-08T09:10:06Z</time>
      </trkpt>
      <trkpt lat="44.89709" lon="5.31966">
        <ele>1447.8</ele>
        <time>2021-10-08T09:10:07Z</time>
      </trkpt>
      <trkpt lat="44.89707" lon="5.31966">
        <ele>1447.8</ele>
        <time>2021-10-08T09:10:08Z</time>
      </trkpt>
      <trkpt lat="44.89705" lon="5.31965">
        <ele>1447.8</ele>
        <time>2021-10-08T09:10:09Z</time>
      </trkpt>
      <trkpt lat="44.89703" lon="5.31965">
        <ele>1447.8</ele>
        <time>2021-10-08T09:10:10Z</time>
      </trkpt>
      <trkpt lat="44.89701" lon="5.31965">
        <ele>1447.8</ele>
        <time>2021-10-08T09:10:11Z</time>
      </trkpt>
      <trkpt lat="44.89698" lon="5.31964">
        <ele>1447.8</ele>
        <time>2021-10-08T09:10:12Z</time>
      </trkpt>
      <trkpt lat="44.89696" lon="5.31964">
        <ele>1447.8</ele>
        <time>2021-10-08T09:10:13Z</time>
      </trkpt>
      <trkpt lat="44.89694" lon="5.31964">
        <ele>1448.4</ele>
        <time>2021-10-08T09:10:14Z</time>
      </trkpt>
      <trkpt lat="44.89692" lon="5.31964">
        <ele>1448.4</ele>
        <time>2021-10-08T09:10:15Z</time>
      </trkpt>
      <trkpt lat="44.8969" lon="5.31963">
        <ele>1448.4</ele>
        <time>2021-10-08T09:10:16Z</time>
      </trkpt>
      <trkpt lat="44.89688" lon="5.31963">
        <ele>1448.4</ele>
        <time>2021-10-08T09:10:17Z</time>
      </trkpt>
      <trkpt lat="44.89686" lon="5.31963">
        <ele>1449</ele>
        <time>2021-10-08T09:10:18Z</time>
      </trkpt>
      <trkpt lat="44.89683" lon="5.31963">
        <ele>1449</ele>
        <time>2021-10-08T09:10:19Z</time>
      </trkpt>
      <trkpt lat="44.89681" lon="5.31962">
        <ele>1449</ele>
        <time>2021-10-08T09:10:20Z</time>
      </trkpt>
      <trkpt lat="44.89679" lon="5.31962">
        <ele>1449.4</ele>
        <time>2021-10-08T09:10:21Z</time>
      </trkpt>
      <trkpt lat="44.89677" lon="5.31962">
        <ele>1449</ele>
        <time>2021-10-08T09:10:22Z</time>
      </trkpt>
      <trkpt lat="44.89675" lon="5.31962">
        <ele>1449</ele>
        <time>2021-10-08T09:10:23Z</time>
      </trkpt>
      <trkpt lat="44.89672" lon="5.31962">
        <ele>1449</ele>
        <time>2021-10-08T09:10:24Z</time>
      </trkpt>
      <trkpt lat="44.8967" lon="5.31961">
        <ele>1449</ele>
        <time>2021-10-08T09:10:25Z</time>
      </trkpt>
      <trkpt lat="44.89668" lon="5.31961">
        <ele>1449.2</ele>
        <time>2021-10-08T09:10:26Z</time>
      </trkpt>
      <trkpt lat="44.89666" lon="5.31961">
        <ele>1449.2</ele>
        <time>2021-10-08T09:10:27Z</time>
      </trkpt>
      <trkpt lat="44.89664" lon="5.31961">
        <ele>1449.2</ele>
        <time>2021-10-08T09:10:28Z</time>
      </trkpt>
      <trkpt lat="44.89662" lon="5.31961">
        <ele>1449.8</ele>
        <time>2021-10-08T09:10:29Z</time>
      </trkpt>
      <trkpt lat="44.89659" lon="5.3196">
        <ele>1450</ele>
        <time>2021-10-08T09:10:30Z</time>
      </trkpt>
      <trkpt lat="44.89657" lon="5.3196">
        <ele>1450</ele>
        <time>2021-10-08T09:10:31Z</time>
      </trkpt>
      <trkpt lat="44.89655" lon="5.3196">
        <ele>1450</ele>
        <time>2021-10-08T09:10:32Z</time>
      </trkpt>
      <trkpt lat="44.89653" lon="5.3196">
        <ele>1450</ele>
        <time>2021-10-08T09:10:33Z</time>
      </trkpt>
      <trkpt lat="44.89651" lon="5.3196">
        <ele>1451</ele>
        <time>2021-10-08T09:10:34Z</time>
      </trkpt>
      <trkpt lat="44.89649" lon="5.3196">
        <ele>1451</ele>
        <time>2021-10-08T09:10:35Z</time>
      </trkpt>
      <trkpt lat="44.89646" lon="5.31959">
        <ele>1451</ele>
        <time>2021-10-08T09:10:36Z</time>
      </trkpt>
      <trkpt lat="44.89644" lon="5.31959">
        <ele>1451</ele>
        <time>2021-10-08T09:10:37Z</time>
      </trkpt>
      <trkpt lat="44.89642" lon="5.31959">
        <ele>1450.4</ele>
        <time>2021-10-08T09:10:38Z</time>
      </trkpt>
      <trkpt lat="44.8964" lon="5.31958">
        <ele>1450.4</ele>
        <time>2021-10-08T09:10:39Z</time>
      </trkpt>
      <trkpt lat="44.89638" lon="5.31958">
        <ele>1450.4</ele>
        <time>2021-10-08T09:10:40Z</time>
      </trkpt>
      <trkpt lat="44.89636" lon="5.31958">
        <ele>1451.2</ele>
        <time>2021-10-08T09:10:41Z</time>
      </trkpt>
      <trkpt lat="44.89633" lon="5.31958">
        <ele>1451.6</ele>
        <time>2021-10-08T09:10:42Z</time>
      </trkpt>
      <trkpt lat="44.89631" lon="5.31957">
        <ele>1451.6</ele>
        <time>2021-10-08T09:10:43Z</time>
      </trkpt>
      <trkpt lat="44.89629" lon="5.31957">
        <ele>1451.6</ele>
        <time>2021-10-08T09:10:44Z</time>
      </trkpt>
      <trkpt lat="44.89627" lon="5.31957">
        <ele>1451.6</ele>
        <time>2021-10-08T09:10:45Z</time>
      </trkpt>
      <trkpt lat="44.89625" lon="5.31957">
        <ele>1452.2</ele>
        <time>2021-10-08T09:10:46Z</time>
      </trkpt>
      <trkpt lat="44.89623" lon="5.31957">
        <ele>1452.2</ele>
        <time>2021-10-08T09:10:47Z</time>
      </trkpt>
      <trkpt lat="44.89621" lon="5.31957">
        <ele>1452.2</ele>
        <time>2021-10-08T09:10:48Z</time>
      </trkpt>
      <trkpt lat="44.89618" lon="5.31957">
        <ele>1452</ele>
        <time>2021-10-08T09:10:49Z</time>
      </trkpt>
      <trkpt lat="44.89616" lon="5.31956">
        <ele>1452.8</ele>
        <time>2021-10-08T09:10:50Z</time>
      </trkpt>
      <trkpt lat="44.89614" lon="5.31956">
        <ele>1452.8</ele>
        <time>2021-10-08T09:10:51Z</time>
      </trkpt>
      <trkpt lat="44.89612" lon="5.31956">
        <ele>1452.8</ele>
        <time>2021-10-08T09:10:52Z</time>
      </trkpt>
      <trkpt lat="44.8961" lon="5.31955">
        <ele>1452.8</ele>
        <time>2021-10-08T09:10:53Z</time>
      </trkpt>
      <trkpt lat="44.89607" lon="5.31955">
        <ele>1452.4</ele>
        <time>2021-10-08T09:10:54Z</time>
      </trkpt>
      <trkpt lat="44.89605" lon="5.31955">
        <ele>1452.4</ele>
        <time>2021-10-08T09:10:55Z</time>
      </trkpt>
      <trkpt lat="44.89603" lon="5.31955">
        <ele>1452.4</ele>
        <time>2021-10-08T09:10:56Z</time>
      </trkpt>
      <trkpt lat="44.89601" lon="5.31955">
        <ele>1453.4</ele>
        <time>2021-10-08T09:10:57Z</time>
      </trkpt>
      <trkpt lat="44.89599" lon="5.31956">
        <ele>1453</ele>
        <time>2021-10-08T09:10:58Z</time>
      </trkpt>
      <trkpt lat="44.89597" lon="5.31956">
        <ele>1453</ele>
        <time>2021-10-08T09:10:59Z</time>
      </trkpt>
      <trkpt lat="44.89595" lon="5.31956">
        <ele>1453</ele>
        <time>2021-10-08T09:11:00Z</time>
      </trkpt>
      <trkpt lat="44.89593" lon="5.31957">
        <ele>1453.6</ele>
        <time>2021-10-08T09:11:01Z</time>
      </trkpt>
      <trkpt lat="44.89591" lon="5.31957">
        <ele>1453.8</ele>
        <time>2021-10-08T09:11:02Z</time>
      </trkpt>
      <trkpt lat="44.89589" lon="5.31957">
        <ele>1453.8</ele>
        <time>2021-10-08T09:11:03Z</time>
      </trkpt>
      <trkpt lat="44.89587" lon="5.31957">
        <ele>1453.8</ele>
        <time>2021-10-08T09:11:04Z</time>
      </trkpt>
      <trkpt lat="44.89585" lon="5.31958">
        <ele>1454.2</ele>
        <time>2021-10-08T09:11:05Z</time>
      </trkpt>
      <trkpt lat="44.89583" lon="5.31958">
        <ele>1454.4</ele>
        <time>2021-10-08T09:11:06Z</time>
      </trkpt>
      <trkpt lat="44.89581" lon="5.31959">
        <ele>1454.4</ele>
        <time>2021-10-08T09:11:07Z</time>
      </trkpt>
      <trkpt lat="44.89579" lon="5.3196">
        <ele>1454.4</ele>
        <time>2021-10-08T09:11:08Z</time>
      </trkpt>
      <trkpt lat="44.89577" lon="5.31961">
        <ele>1455</ele>
        <time>2021-10-08T09:11:09Z</time>
      </trkpt>
      <trkpt lat="44.89576" lon="5.31961">
        <ele>1455.6</ele>
        <time>2021-10-08T09:11:10Z</time>
      </trkpt>
      <trkpt lat="44.89574" lon="5.31962">
        <ele>1455.6</ele>
        <time>2021-10-08T09:11:11Z</time>
      </trkpt>
      <trkpt lat="44.89572" lon="5.31962">
        <ele>1455.6</ele>
        <time>2021-10-08T09:11:12Z</time>
      </trkpt>
      <trkpt lat="44.8957" lon="5.31963">
        <ele>1455.6</ele>
        <time>2021-10-08T09:11:13Z</time>
      </trkpt>
      <trkpt lat="44.89568" lon="5.31963">
        <ele>1455.8</ele>
        <time>2021-10-08T09:11:14Z</time>
      </trkpt>
      <trkpt lat="44.89567" lon="5.31964">
        <ele>1455.8</ele>
        <time>2021-10-08T09:11:15Z</time>
      </trkpt>
      <trkpt lat="44.89565" lon="5.31965">
        <ele>1455.8</ele>
        <time>2021-10-08T09:11:16Z</time>
      </trkpt>
      <trkpt lat="44.89563" lon="5.31966">
        <ele>1456.2</ele>
        <time>2021-10-08T09:11:17Z</time>
      </trkpt>
      <trkpt lat="44.89561" lon="5.31967">
        <ele>1455.6</ele>
        <time>2021-10-08T09:11:18Z</time>
      </trkpt>
      <trkpt lat="44.89559" lon="5.31968">
        <ele>1455.6</ele>
        <time>2021-10-08T09:11:19Z</time>
      </trkpt>
      <trkpt lat="44.89558" lon="5.31969">
        <ele>1455.6</ele>
        <time>2021-10-08T09:11:20Z</time>
      </trkpt>
      <trkpt lat="44.89556" lon="5.3197">
        <ele>1456.6</ele>
        <time>2021-10-08T09:11:21Z</time>
      </trkpt>
      <trkpt lat="44.89554" lon="5.3197">
        <ele>1456.6</ele>
        <time>2021-10-08T09:11:22Z</time>
      </trkpt>
      <trkpt lat="44.89553" lon="5.31971">
        <ele>1456.8</ele>
        <time>2021-10-08T09:11:23Z</time>
      </trkpt>
      <trkpt lat="44.89551" lon="5.31972">
        <ele>1456.8</ele>
        <time>2021-10-08T09:11:24Z</time>
      </trkpt>
      <trkpt lat="44.89549" lon="5.31973">
        <ele>1457.6</ele>
        <time>2021-10-08T09:11:25Z</time>
      </trkpt>
      <trkpt lat="44.89547" lon="5.31974">
        <ele>1457.2</ele>
        <time>2021-10-08T09:11:26Z</time>
      </trkpt>
      <trkpt lat="44.89545" lon="5.31975">
        <ele>1457.2</ele>
        <time>2021-10-08T09:11:27Z</time>
      </trkpt>
      <trkpt lat="44.89543" lon="5.31976">
        <ele>1457.2</ele>
        <time>2021-10-08T09:11:28Z</time>
      </trkpt>
      <trkpt lat="44.89541" lon="5.31977">
        <ele>1458</ele>
        <time>2021-10-08T09:11:29Z</time>
      </trkpt>
      <trkpt lat="44.89539" lon="5.31978">
        <ele>1457.6</ele>
        <time>2021-10-08T09:11:30Z</time>
      </trkpt>
      <trkpt lat="44.89538" lon="5.31978">
        <ele>1457.6</ele>
        <time>2021-10-08T09:11:31Z</time>
      </trkpt>
      <trkpt lat="44.89536" lon="5.31979">
        <ele>1457.6</ele>
        <time>2021-10-08T09:11:32Z</time>
      </trkpt>
      <trkpt lat="44.89534" lon="5.3198">
        <ele>1457.6</ele>
        <time>2021-10-08T09:11:33Z</time>
      </trkpt>
      <trkpt lat="44.89532" lon="5.31981">
        <ele>1458.8</ele>
        <time>2021-10-08T09:11:34Z</time>
      </trkpt>
      <trkpt lat="44.8953" lon="5.31981">
        <ele>1458.8</ele>
        <time>2021-10-08T09:11:35Z</time>
      </trkpt>
      <trkpt lat="44.89528" lon="5.31982">
        <ele>1458.8</ele>
        <time>2021-10-08T09:11:36Z</time>
      </trkpt>
      <trkpt lat="44.89526" lon="5.31983">
        <ele>1458.8</ele>
        <time>2021-10-08T09:11:37Z</time>
      </trkpt>
      <trkpt lat="44.89525" lon="5.31983">
        <ele>1458.8</ele>
        <time>2021-10-08T09:11:38Z</time>
      </trkpt>
      <trkpt lat="44.89523" lon="5.31983">
        <ele>1458.8</ele>
        <time>2021-10-08T09:11:39Z</time>
      </trkpt>
      <trkpt lat="44.89521" lon="5.31983">
        <ele>1458.8</ele>
        <time>2021-10-08T09:11:40Z</time>
      </trkpt>
      <trkpt lat="44.89519" lon="5.31984">
        <ele>1458.8</ele>
        <time>2021-10-08T09:11:41Z</time>
      </trkpt>
      <trkpt lat="44.89517" lon="5.31984">
        <ele>1459.4</ele>
        <time>2021-10-08T09:11:42Z</time>
      </trkpt>
      <trkpt lat="44.89516" lon="5.31984">
        <ele>1459.4</ele>
        <time>2021-10-08T09:11:43Z</time>
      </trkpt>
      <trkpt lat="44.89514" lon="5.31984">
        <ele>1459.4</ele>
        <time>2021-10-08T09:11:44Z</time>
      </trkpt>
      <trkpt lat="44.89512" lon="5.31985">
        <ele>1459.4</ele>
        <time>2021-10-08T09:11:45Z</time>
      </trkpt>
      <trkpt lat="44.8951" lon="5.31985">
        <ele>1460.4</ele>
        <time>2021-10-08T09:11:46Z</time>
      </trkpt>
      <trkpt lat="44.89508" lon="5.31985">
        <ele>1460.4</ele>
        <time>2021-10-08T09:11:47Z</time>
      </trkpt>
      <trkpt lat="44.89507" lon="5.31985">
        <ele>1460.4</ele>
        <time>2021-10-08T09:11:48Z</time>
      </trkpt>
      <trkpt lat="44.89505" lon="5.31986">
        <ele>1460.8</ele>
        <time>2021-10-08T09:11:49Z</time>
      </trkpt>
      <trkpt lat="44.89503" lon="5.31986">
        <ele>1461.4</ele>
        <time>2021-10-08T09:11:50Z</time>
      </trkpt>
      <trkpt lat="44.89502" lon="5.31986">
        <ele>1461.4</ele>
        <time>2021-10-08T09:11:51Z</time>
      </trkpt>
      <trkpt lat="44.895" lon="5.31987">
        <ele>1461.4</ele>
        <time>2021-10-08T09:11:52Z</time>
      </trkpt>
      <trkpt lat="44.89498" lon="5.31987">
        <ele>1461.4</ele>
        <time>2021-10-08T09:11:53Z</time>
      </trkpt>
      <trkpt lat="44.89497" lon="5.31987">
        <ele>1461.8</ele>
        <time>2021-10-08T09:11:54Z</time>
      </trkpt>
      <trkpt lat="44.89495" lon="5.31987">
        <ele>1461.8</ele>
        <time>2021-10-08T09:11:55Z</time>
      </trkpt>
      <trkpt lat="44.89494" lon="5.31988">
        <ele>1461.8</ele>
        <time>2021-10-08T09:11:56Z</time>
      </trkpt>
      <trkpt lat="44.89492" lon="5.31988">
        <ele>1462.6</ele>
        <time>2021-10-08T09:11:57Z</time>
      </trkpt>
      <trkpt lat="44.8949" lon="5.31988">
        <ele>1462.8</ele>
        <time>2021-10-08T09:11:58Z</time>
      </trkpt>
      <trkpt lat="44.89489" lon="5.31988">
        <ele>1462.8</ele>
        <time>2021-10-08T09:11:59Z</time>
      </trkpt>
      <trkpt lat="44.89487" lon="5.31988">
        <ele>1462.8</ele>
        <time>2021-10-08T09:12:00Z</time>
      </trkpt>
      <trkpt lat="44.89486" lon="5.31988">
        <ele>1463.4</ele>
        <time>2021-10-08T09:12:01Z</time>
      </trkpt>
      <trkpt lat="44.89484" lon="5.31988">
        <ele>1463.6</ele>
        <time>2021-10-08T09:12:02Z</time>
      </trkpt>
      <trkpt lat="44.89483" lon="5.31987">
        <ele>1463.6</ele>
        <time>2021-10-08T09:12:03Z</time>
      </trkpt>
      <trkpt lat="44.89481" lon="5.31987">
        <ele>1463.6</ele>
        <time>2021-10-08T09:12:04Z</time>
      </trkpt>
      <trkpt lat="44.89479" lon="5.31987">
        <ele>1464</ele>
        <time>2021-10-08T09:12:05Z</time>
      </trkpt>
      <trkpt lat="44.89478" lon="5.31987">
        <ele>1464</ele>
        <time>2021-10-08T09:12:06Z</time>
      </trkpt>
      <trkpt lat="44.89476" lon="5.31987">
        <ele>1464</ele>
        <time>2021-10-08T09:12:07Z</time>
      </trkpt>
      <trkpt lat="44.89475" lon="5.31986">
        <ele>1464</ele>
        <time>2021-10-08T09:12:08Z</time>
      </trkpt>
      <trkpt lat="44.89473" lon="5.31986">
        <ele>1464.8</ele>
        <time>2021-10-08T09:12:09Z</time>
      </trkpt>
      <trkpt lat="44.89472" lon="5.31986">
        <ele>1464.8</ele>
        <time>2021-10-08T09:12:10Z</time>
      </trkpt>
      <trkpt lat="44.8947" lon="5.31986">
        <ele>1464.8</ele>
        <time>2021-10-08T09:12:11Z</time>
      </trkpt>
      <trkpt lat="44.89469" lon="5.31985">
        <ele>1464.8</ele>
        <time>2021-10-08T09:12:12Z</time>
      </trkpt>
      <trkpt lat="44.89467" lon="5.31984">
        <ele>1464.8</ele>
        <time>2021-10-08T09:12:13Z</time>
      </trkpt>
      <trkpt lat="44.89466" lon="5.31984">
        <ele>1465</ele>
        <time>2021-10-08T09:12:14Z</time>
      </trkpt>
      <trkpt lat="44.89464" lon="5.31984">
        <ele>1465</ele>
        <time>2021-10-08T09:12:15Z</time>
      </trkpt>
      <trkpt lat="44.89463" lon="5.31983">
        <ele>1465</ele>
        <time>2021-10-08T09:12:16Z</time>
      </trkpt>
      <trkpt lat="44.89461" lon="5.31983">
        <ele>1466</ele>
        <time>2021-10-08T09:12:17Z</time>
      </trkpt>
      <trkpt lat="44.8946" lon="5.31983">
        <ele>1466</ele>
        <time>2021-10-08T09:12:18Z</time>
      </trkpt>
      <trkpt lat="44.89458" lon="5.31983">
        <ele>1466</ele>
        <time>2021-10-08T09:12:19Z</time>
      </trkpt>
      <trkpt lat="44.89457" lon="5.31983">
        <ele>1466</ele>
        <time>2021-10-08T09:12:20Z</time>
      </trkpt>
      <trkpt lat="44.89455" lon="5.31983">
        <ele>1466.4</ele>
        <time>2021-10-08T09:12:21Z</time>
      </trkpt>
      <trkpt lat="44.89453" lon="5.31983">
        <ele>1466.6</ele>
        <time>2021-10-08T09:12:22Z</time>
      </trkpt>
      <trkpt lat="44.89452" lon="5.31982">
        <ele>1466.6</ele>
        <time>2021-10-08T09:12:23Z</time>
      </trkpt>
      <trkpt lat="44.8945" lon="5.31982">
        <ele>1466.6</ele>
        <time>2021-10-08T09:12:24Z</time>
      </trkpt>
      <trkpt lat="44.89449" lon="5.31982">
        <ele>1467.2</ele>
        <time>2021-10-08T09:12:25Z</time>
      </trkpt>
      <trkpt lat="44.89447" lon="5.31982">
        <ele>1467.6</ele>
        <time>2021-10-08T09:12:26Z</time>
      </trkpt>
      <trkpt lat="44.89446" lon="5.31983">
        <ele>1467.6</ele>
        <time>2021-10-08T09:12:27Z</time>
      </trkpt>
      <trkpt lat="44.89444" lon="5.31983">
        <ele>1467.6</ele>
        <time>2021-10-08T09:12:28Z</time>
      </trkpt>
      <trkpt lat="44.89443" lon="5.31982">
        <ele>1467.6</ele>
        <time>2021-10-08T09:12:29Z</time>
      </trkpt>
      <trkpt lat="44.89441" lon="5.31983">
        <ele>1468.4</ele>
        <time>2021-10-08T09:12:30Z</time>
      </trkpt>
      <trkpt lat="44.8944" lon="5.31983">
        <ele>1468.4</ele>
        <time>2021-10-08T09:12:31Z</time>
      </trkpt>
      <trkpt lat="44.89438" lon="5.31982">
        <ele>1468.4</ele>
        <time>2021-10-08T09:12:32Z</time>
      </trkpt>
      <trkpt lat="44.89437" lon="5.31982">
        <ele>1469.2</ele>
        <time>2021-10-08T09:12:33Z</time>
      </trkpt>
      <trkpt lat="44.89436" lon="5.31982">
        <ele>1468.8</ele>
        <time>2021-10-08T09:12:34Z</time>
      </trkpt>
      <trkpt lat="44.89434" lon="5.31981">
        <ele>1468.8</ele>
        <time>2021-10-08T09:12:35Z</time>
      </trkpt>
      <trkpt lat="44.89433" lon="5.31981">
        <ele>1468.8</ele>
        <time>2021-10-08T09:12:36Z</time>
      </trkpt>
      <trkpt lat="44.89431" lon="5.31981">
        <ele>1469.2</ele>
        <time>2021-10-08T09:12:37Z</time>
      </trkpt>
      <trkpt lat="44.89429" lon="5.31981">
        <ele>1469.8</ele>
        <time>2021-10-08T09:12:38Z</time>
      </trkpt>
      <trkpt lat="44.89428" lon="5.31981">
        <ele>1469.8</ele>
        <time>2021-10-08T09:12:39Z</time>
      </trkpt>
      <trkpt lat="44.89426" lon="5.3198">
        <ele>1469.8</ele>
        <time>2021-10-08T09:12:40Z</time>
      </trkpt>
      <trkpt lat="44.89425" lon="5.3198">
        <ele>1469.8</ele>
        <time>2021-10-08T09:12:41Z</time>
      </trkpt>
      <trkpt lat="44.89423" lon="5.31979">
        <ele>1470</ele>
        <time>2021-10-08T09:12:42Z</time>
      </trkpt>
      <trkpt lat="44.89422" lon="5.31979">
        <ele>1470</ele>
        <time>2021-10-08T09:12:43Z</time>
      </trkpt>
      <trkpt lat="44.8942" lon="5.31978">
        <ele>1470</ele>
        <time>2021-10-08T09:12:44Z</time>
      </trkpt>
      <trkpt lat="44.89419" lon="5.31978">
        <ele>1471</ele>
        <time>2021-10-08T09:12:45Z</time>
      </trkpt>
      <trkpt lat="44.89417" lon="5.31977">
        <ele>1471</ele>
        <time>2021-10-08T09:12:46Z</time>
      </trkpt>
      <trkpt lat="44.89416" lon="5.31977">
        <ele>1471</ele>
        <time>2021-10-08T09:12:47Z</time>
      </trkpt>
      <trkpt lat="44.89415" lon="5.31976">
        <ele>1471</ele>
        <time>2021-10-08T09:12:48Z</time>
      </trkpt>
      <trkpt lat="44.89413" lon="5.31976">
        <ele>1472</ele>
        <time>2021-10-08T09:12:49Z</time>
      </trkpt>
      <trkpt lat="44.89412" lon="5.31976">
        <ele>1472</ele>
        <time>2021-10-08T09:12:50Z</time>
      </trkpt>
      <trkpt lat="44.8941" lon="5.31976">
        <ele>1472</ele>
        <time>2021-10-08T09:12:51Z</time>
      </trkpt>
      <trkpt lat="44.89409" lon="5.31975">
        <ele>1472</ele>
        <time>2021-10-08T09:12:52Z</time>
      </trkpt>
      <trkpt lat="44.89407" lon="5.31975">
        <ele>1472.6</ele>
        <time>2021-10-08T09:12:53Z</time>
      </trkpt>
      <trkpt lat="44.89406" lon="5.31975">
        <ele>1472.8</ele>
        <time>2021-10-08T09:12:54Z</time>
      </trkpt>
      <trkpt lat="44.89404" lon="5.31975">
        <ele>1472.8</ele>
        <time>2021-10-08T09:12:55Z</time>
      </trkpt>
      <trkpt lat="44.89403" lon="5.31975">
        <ele>1472.8</ele>
        <time>2021-10-08T09:12:56Z</time>
      </trkpt>
      <trkpt lat="44.89401" lon="5.31974">
        <ele>1473.4</ele>
        <time>2021-10-08T09:12:57Z</time>
      </trkpt>
      <trkpt lat="44.894" lon="5.31974">
        <ele>1473.8</ele>
        <time>2021-10-08T09:12:58Z</time>
      </trkpt>
      <trkpt lat="44.89398" lon="5.31974">
        <ele>1473.8</ele>
        <time>2021-10-08T09:12:59Z</time>
      </trkpt>
      <trkpt lat="44.89397" lon="5.31974">
        <ele>1473.8</ele>
        <time>2021-10-08T09:13:00Z</time>
      </trkpt>
      <trkpt lat="44.89395" lon="5.31974">
        <ele>1473.8</ele>
        <time>2021-10-08T09:13:01Z</time>
      </trkpt>
      <trkpt lat="44.89394" lon="5.31974">
        <ele>1474</ele>
        <time>2021-10-08T09:13:02Z</time>
      </trkpt>
      <trkpt lat="44.89392" lon="5.31974">
        <ele>1474</ele>
        <time>2021-10-08T09:13:03Z</time>
      </trkpt>
      <trkpt lat="44.8939" lon="5.31974">
        <ele>1474</ele>
        <time>2021-10-08T09:13:04Z</time>
      </trkpt>
      <trkpt lat="44.89389" lon="5.31974">
        <ele>1474.6</ele>
        <time>2021-10-08T09:13:05Z</time>
      </trkpt>
      <trkpt lat="44.89387" lon="5.31974">
        <ele>1475.2</ele>
        <time>2021-10-08T09:13:06Z</time>
      </trkpt>
      <trkpt lat="44.89386" lon="5.31973">
        <ele>1475.2</ele>
        <time>2021-10-08T09:13:07Z</time>
      </trkpt>
      <trkpt lat="44.89384" lon="5.31973">
        <ele>1475.2</ele>
        <time>2021-10-08T09:13:08Z</time>
      </trkpt>
      <trkpt lat="44.89383" lon="5.31973">
        <ele>1475.8</ele>
        <time>2021-10-08T09:13:09Z</time>
      </trkpt>
      <trkpt lat="44.89382" lon="5.31973">
        <ele>1475.6</ele>
        <time>2021-10-08T09:13:10Z</time>
      </trkpt>
      <trkpt lat="44.8938" lon="5.31973">
        <ele>1475.6</ele>
        <time>2021-10-08T09:13:11Z</time>
      </trkpt>
      <trkpt lat="44.89379" lon="5.31972">
        <ele>1475.6</ele>
        <time>2021-10-08T09:13:12Z</time>
      </trkpt>
      <trkpt lat="44.89378" lon="5.31972">
        <ele>1476.6</ele>
        <time>2021-10-08T09:13:13Z</time>
      </trkpt>
      <trkpt lat="44.89377" lon="5.31972">
        <ele>1476.8</ele>
        <time>2021-10-08T09:13:14Z</time>
      </trkpt>
      <trkpt lat="44.89376" lon="5.31971">
        <ele>1476.8</ele>
        <time>2021-10-08T09:13:15Z</time>
      </trkpt>
      <trkpt lat="44.89375" lon="5.31972">
        <ele>1476.8</ele>
        <time>2021-10-08T09:13:16Z</time>
      </trkpt>
      <trkpt lat="44.8937" lon="5.31975">
        <ele>1477.2</ele>
        <time>2021-10-08T09:13:45Z</time>
      </trkpt>
      <trkpt lat="44.89369" lon="5.31977">
        <ele>1476.8</ele>
        <time>2021-10-08T09:13:46Z</time>
      </trkpt>
      <trkpt lat="44.89367" lon="5.31979">
        <ele>1476.8</ele>
        <time>2021-10-08T09:13:47Z</time>
      </trkpt>
      <trkpt lat="44.89365" lon="5.3198">
        <ele>1476.8</ele>
        <time>2021-10-08T09:13:48Z</time>
      </trkpt>
      <trkpt lat="44.89364" lon="5.31982">
        <ele>1477.4</ele>
        <time>2021-10-08T09:13:49Z</time>
      </trkpt>
      <trkpt lat="44.89362" lon="5.31984">
        <ele>1477.4</ele>
        <time>2021-10-08T09:13:50Z</time>
      </trkpt>
      <trkpt lat="44.89361" lon="5.31986">
        <ele>1477.4</ele>
        <time>2021-10-08T09:13:51Z</time>
      </trkpt>
      <trkpt lat="44.8936" lon="5.31988">
        <ele>1477.4</ele>
        <time>2021-10-08T09:13:52Z</time>
      </trkpt>
      <trkpt lat="44.89359" lon="5.3199">
        <ele>1477.4</ele>
        <time>2021-10-08T09:13:53Z</time>
      </trkpt>
      <trkpt lat="44.89358" lon="5.31992">
        <ele>1477.8</ele>
        <time>2021-10-08T09:13:54Z</time>
      </trkpt>
      <trkpt lat="44.89356" lon="5.31994">
        <ele>1477.8</ele>
        <time>2021-10-08T09:13:55Z</time>
      </trkpt>
      <trkpt lat="44.89355" lon="5.31996">
        <ele>1477.8</ele>
        <time>2021-10-08T09:13:56Z</time>
      </trkpt>
      <trkpt lat="44.89354" lon="5.31998">
        <ele>1477.8</ele>
        <time>2021-10-08T09:13:57Z</time>
      </trkpt>
      <trkpt lat="44.89353" lon="5.32">
        <ele>1478.2</ele>
        <time>2021-10-08T09:13:58Z</time>
      </trkpt>
      <trkpt lat="44.89351" lon="5.32002">
        <ele>1478.2</ele>
        <time>2021-10-08T09:13:59Z</time>
      </trkpt>
      <trkpt lat="44.8935" lon="5.32004">
        <ele>1478.2</ele>
        <time>2021-10-08T09:14:00Z</time>
      </trkpt>
      <trkpt lat="44.89349" lon="5.32006">
        <ele>1478.2</ele>
        <time>2021-10-08T09:14:01Z</time>
      </trkpt>
      <trkpt lat="44.89348" lon="5.32007">
        <ele>1478.2</ele>
        <time>2021-10-08T09:14:02Z</time>
      </trkpt>
      <trkpt lat="44.89346" lon="5.32009">
        <ele>1478.2</ele>
        <time>2021-10-08T09:14:03Z</time>
      </trkpt>
      <trkpt lat="44.89344" lon="5.3201">
        <ele>1478.2</ele>
        <time>2021-10-08T09:14:04Z</time>
      </trkpt>
      <trkpt lat="44.89343" lon="5.32013">
        <ele>1478.2</ele>
        <time>2021-10-08T09:14:05Z</time>
      </trkpt>
      <trkpt lat="44.89342" lon="5.32015">
        <ele>1477.8</ele>
        <time>2021-10-08T09:14:06Z</time>
      </trkpt>
      <trkpt lat="44.89341" lon="5.32017">
        <ele>1477.8</ele>
        <time>2021-10-08T09:14:07Z</time>
      </trkpt>
      <trkpt lat="44.89339" lon="5.3202">
        <ele>1477.8</ele>
        <time>2021-10-08T09:14:08Z</time>
      </trkpt>
      <trkpt lat="44.89338" lon="5.32022">
        <ele>1478.4</ele>
        <time>2021-10-08T09:14:09Z</time>
      </trkpt>
      <trkpt lat="44.89336" lon="5.32024">
        <ele>1478.6</ele>
        <time>2021-10-08T09:14:10Z</time>
      </trkpt>
      <trkpt lat="44.89335" lon="5.32026">
        <ele>1478.6</ele>
        <time>2021-10-08T09:14:11Z</time>
      </trkpt>
      <trkpt lat="44.89334" lon="5.32028">
        <ele>1478.6</ele>
        <time>2021-10-08T09:14:12Z</time>
      </trkpt>
      <trkpt lat="44.89333" lon="5.3203">
        <ele>1478.6</ele>
        <time>2021-10-08T09:14:13Z</time>
      </trkpt>
      <trkpt lat="44.89331" lon="5.32032">
        <ele>1478.6</ele>
        <time>2021-10-08T09:14:14Z</time>
      </trkpt>
      <trkpt lat="44.8933" lon="5.32034">
        <ele>1478.6</ele>
        <time>2021-10-08T09:14:15Z</time>
      </trkpt>
      <trkpt lat="44.89329" lon="5.32036">
        <ele>1478.6</ele>
        <time>2021-10-08T09:14:16Z</time>
      </trkpt>
      <trkpt lat="44.89327" lon="5.32039">
        <ele>1478.6</ele>
        <time>2021-10-08T09:14:17Z</time>
      </trkpt>
      <trkpt lat="44.89326" lon="5.32041">
        <ele>1478.6</ele>
        <time>2021-10-08T09:14:18Z</time>
      </trkpt>
      <trkpt lat="44.89324" lon="5.32043">
        <ele>1478.6</ele>
        <time>2021-10-08T09:14:19Z</time>
      </trkpt>
      <trkpt lat="44.89323" lon="5.32045">
        <ele>1478.6</ele>
        <time>2021-10-08T09:14:20Z</time>
      </trkpt>
      <trkpt lat="44.89321" lon="5.32048">
        <ele>1478.6</ele>
        <time>2021-10-08T09:14:21Z</time>
      </trkpt>
      <trkpt lat="44.8932" lon="5.3205">
        <ele>1479.2</ele>
        <time>2021-10-08T09:14:22Z</time>
      </trkpt>
      <trkpt lat="44.89318" lon="5.32052">
        <ele>1479.2</ele>
        <time>2021-10-08T09:14:23Z</time>
      </trkpt>
      <trkpt lat="44.89317" lon="5.32054">
        <ele>1479.2</ele>
        <time>2021-10-08T09:14:24Z</time>
      </trkpt>
      <trkpt lat="44.89315" lon="5.32056">
        <ele>1479.2</ele>
        <time>2021-10-08T09:14:25Z</time>
      </trkpt>
      <trkpt lat="44.89314" lon="5.32058">
        <ele>1478.6</ele>
        <time>2021-10-08T09:14:26Z</time>
      </trkpt>
      <trkpt lat="44.89312" lon="5.3206">
        <ele>1478.6</ele>
        <time>2021-10-08T09:14:27Z</time>
      </trkpt>
      <trkpt lat="44.89311" lon="5.32061">
        <ele>1478.6</ele>
        <time>2021-10-08T09:14:28Z</time>
      </trkpt>
      <trkpt lat="44.89309" lon="5.32063">
        <ele>1478.6</ele>
        <time>2021-10-08T09:14:29Z</time>
      </trkpt>
      <trkpt lat="44.89308" lon="5.32065">
        <ele>1479</ele>
        <time>2021-10-08T09:14:30Z</time>
      </trkpt>
      <trkpt lat="44.89307" lon="5.32067">
        <ele>1479</ele>
        <time>2021-10-08T09:14:31Z</time>
      </trkpt>
      <trkpt lat="44.89305" lon="5.32069">
        <ele>1479</ele>
        <time>2021-10-08T09:14:32Z</time>
      </trkpt>
      <trkpt lat="44.89304" lon="5.32071">
        <ele>1478.8</ele>
        <time>2021-10-08T09:14:33Z</time>
      </trkpt>
      <trkpt lat="44.89302" lon="5.32073">
        <ele>1478.6</ele>
        <time>2021-10-08T09:14:34Z</time>
      </trkpt>
      <trkpt lat="44.89301" lon="5.32076">
        <ele>1478.6</ele>
        <time>2021-10-08T09:14:35Z</time>
      </trkpt>
      <trkpt lat="44.89299" lon="5.32078">
        <ele>1478.6</ele>
        <time>2021-10-08T09:14:36Z</time>
      </trkpt>
      <trkpt lat="44.89298" lon="5.3208">
        <ele>1479.2</ele>
        <time>2021-10-08T09:14:37Z</time>
      </trkpt>
      <trkpt lat="44.89296" lon="5.32082">
        <ele>1479.4</ele>
        <time>2021-10-08T09:14:38Z</time>
      </trkpt>
      <trkpt lat="44.89295" lon="5.32084">
        <ele>1479.4</ele>
        <time>2021-10-08T09:14:39Z</time>
      </trkpt>
      <trkpt lat="44.89294" lon="5.32086">
        <ele>1479.4</ele>
        <time>2021-10-08T09:14:40Z</time>
      </trkpt>
      <trkpt lat="44.89293" lon="5.32088">
        <ele>1479.8</ele>
        <time>2021-10-08T09:14:41Z</time>
      </trkpt>
      <trkpt lat="44.89292" lon="5.3209">
        <ele>1480.4</ele>
        <time>2021-10-08T09:14:42Z</time>
      </trkpt>
      <trkpt lat="44.89291" lon="5.32092">
        <ele>1480.4</ele>
        <time>2021-10-08T09:14:43Z</time>
      </trkpt>
      <trkpt lat="44.8929" lon="5.32095">
        <ele>1480.4</ele>
        <time>2021-10-08T09:14:44Z</time>
      </trkpt>
      <trkpt lat="44.89289" lon="5.32097">
        <ele>1480</ele>
        <time>2021-10-08T09:14:45Z</time>
      </trkpt>
      <trkpt lat="44.89288" lon="5.321">
        <ele>1480.6</ele>
        <time>2021-10-08T09:14:46Z</time>
      </trkpt>
      <trkpt lat="44.89287" lon="5.32102">
        <ele>1480.6</ele>
        <time>2021-10-08T09:14:47Z</time>
      </trkpt>
      <trkpt lat="44.89287" lon="5.32105">
        <ele>1480.6</ele>
        <time>2021-10-08T09:14:48Z</time>
      </trkpt>
      <trkpt lat="44.89286" lon="5.32108">
        <ele>1480.6</ele>
        <time>2021-10-08T09:14:49Z</time>
      </trkpt>
      <trkpt lat="44.89285" lon="5.3211">
        <ele>1480.6</ele>
        <time>2021-10-08T09:14:50Z</time>
      </trkpt>
      <trkpt lat="44.89285" lon="5.32113">
        <ele>1480.6</ele>
        <time>2021-10-08T09:14:51Z</time>
      </trkpt>
      <trkpt lat="44.89284" lon="5.32116">
        <ele>1480.6</ele>
        <time>2021-10-08T09:14:52Z</time>
      </trkpt>
      <trkpt lat="44.89284" lon="5.32118">
        <ele>1481</ele>
        <time>2021-10-08T09:14:53Z</time>
      </trkpt>
      <trkpt lat="44.89284" lon="5.32121">
        <ele>1481</ele>
        <time>2021-10-08T09:14:54Z</time>
      </trkpt>
      <trkpt lat="44.89283" lon="5.32124">
        <ele>1481</ele>
        <time>2021-10-08T09:14:55Z</time>
      </trkpt>
      <trkpt lat="44.89283" lon="5.32127">
        <ele>1481</ele>
        <time>2021-10-08T09:14:56Z</time>
      </trkpt>
      <trkpt lat="44.89283" lon="5.32129">
        <ele>1481.2</ele>
        <time>2021-10-08T09:14:57Z</time>
      </trkpt>
      <trkpt lat="44.89283" lon="5.32132">
        <ele>1481</ele>
        <time>2021-10-08T09:14:58Z</time>
      </trkpt>
      <trkpt lat="44.89284" lon="5.32134">
        <ele>1481</ele>
        <time>2021-10-08T09:14:59Z</time>
      </trkpt>
      <trkpt lat="44.89284" lon="5.32137">
        <ele>1481</ele>
        <time>2021-10-08T09:15:00Z</time>
      </trkpt>
      <trkpt lat="44.89284" lon="5.32139">
        <ele>1481.4</ele>
        <time>2021-10-08T09:15:01Z</time>
      </trkpt>
      <trkpt lat="44.89285" lon="5.32141">
        <ele>1481.4</ele>
        <time>2021-10-08T09:15:02Z</time>
      </trkpt>
      <trkpt lat="44.89285" lon="5.32144">
        <ele>1481.4</ele>
        <time>2021-10-08T09:15:03Z</time>
      </trkpt>
      <trkpt lat="44.89285" lon="5.32147">
        <ele>1481.4</ele>
        <time>2021-10-08T09:15:04Z</time>
      </trkpt>
      <trkpt lat="44.89286" lon="5.32149">
        <ele>1481.8</ele>
        <time>2021-10-08T09:15:05Z</time>
      </trkpt>
      <trkpt lat="44.89286" lon="5.32152">
        <ele>1481.4</ele>
        <time>2021-10-08T09:15:06Z</time>
      </trkpt>
      <trkpt lat="44.89287" lon="5.32155">
        <ele>1481.4</ele>
        <time>2021-10-08T09:15:07Z</time>
      </trkpt>
      <trkpt lat="44.89287" lon="5.32157">
        <ele>1481.4</ele>
        <time>2021-10-08T09:15:08Z</time>
      </trkpt>
      <trkpt lat="44.89287" lon="5.3216">
        <ele>1481.8</ele>
        <time>2021-10-08T09:15:09Z</time>
      </trkpt>
      <trkpt lat="44.89286" lon="5.32162">
        <ele>1482.2</ele>
        <time>2021-10-08T09:15:10Z</time>
      </trkpt>
      <trkpt lat="44.89285" lon="5.32165">
        <ele>1482.2</ele>
        <time>2021-10-08T09:15:11Z</time>
      </trkpt>
      <trkpt lat="44.89285" lon="5.32168">
        <ele>1482.2</ele>
        <time>2021-10-08T09:15:12Z</time>
      </trkpt>
      <trkpt lat="44.89284" lon="5.3217">
        <ele>1482.2</ele>
        <time>2021-10-08T09:15:13Z</time>
      </trkpt>
      <trkpt lat="44.89283" lon="5.32172">
        <ele>1482.8</ele>
        <time>2021-10-08T09:15:14Z</time>
      </trkpt>
      <trkpt lat="44.89282" lon="5.32175">
        <ele>1482.8</ele>
        <time>2021-10-08T09:15:15Z</time>
      </trkpt>
      <trkpt lat="44.89281" lon="5.32177">
        <ele>1482.8</ele>
        <time>2021-10-08T09:15:16Z</time>
      </trkpt>
      <trkpt lat="44.8928" lon="5.32178">
        <ele>1482.8</ele>
        <time>2021-10-08T09:15:17Z</time>
      </trkpt>
      <trkpt lat="44.89278" lon="5.32179">
        <ele>1483.4</ele>
        <time>2021-10-08T09:15:18Z</time>
      </trkpt>
      <trkpt lat="44.89276" lon="5.32181">
        <ele>1483.4</ele>
        <time>2021-10-08T09:15:19Z</time>
      </trkpt>
      <trkpt lat="44.89275" lon="5.32182">
        <ele>1483.4</ele>
        <time>2021-10-08T09:15:20Z</time>
      </trkpt>
      <trkpt lat="44.89273" lon="5.32183">
        <ele>1483.6</ele>
        <time>2021-10-08T09:15:21Z</time>
      </trkpt>
      <trkpt lat="44.89272" lon="5.32185">
        <ele>1484.6</ele>
        <time>2021-10-08T09:15:22Z</time>
      </trkpt>
      <trkpt lat="44.8927" lon="5.32186">
        <ele>1484.6</ele>
        <time>2021-10-08T09:15:23Z</time>
      </trkpt>
      <trkpt lat="44.89269" lon="5.32187">
        <ele>1484.6</ele>
        <time>2021-10-08T09:15:24Z</time>
      </trkpt>
      <trkpt lat="44.89267" lon="5.32187">
        <ele>1485</ele>
        <time>2021-10-08T09:15:25Z</time>
      </trkpt>
      <trkpt lat="44.89265" lon="5.32188">
        <ele>1485</ele>
        <time>2021-10-08T09:15:26Z</time>
      </trkpt>
      <trkpt lat="44.89264" lon="5.32189">
        <ele>1485</ele>
        <time>2021-10-08T09:15:27Z</time>
      </trkpt>
      <trkpt lat="44.89262" lon="5.32191">
        <ele>1485</ele>
        <time>2021-10-08T09:15:28Z</time>
      </trkpt>
      <trkpt lat="44.89261" lon="5.32191">
        <ele>1485.4</ele>
        <time>2021-10-08T09:15:29Z</time>
      </trkpt>
      <trkpt lat="44.8926" lon="5.32193">
        <ele>1485.4</ele>
        <time>2021-10-08T09:15:30Z</time>
      </trkpt>
      <trkpt lat="44.89259" lon="5.32194">
        <ele>1485.4</ele>
        <time>2021-10-08T09:15:31Z</time>
      </trkpt>
      <trkpt lat="44.89259" lon="5.32194">
        <ele>1485.4</ele>
        <time>2021-10-08T09:15:32Z</time>
      </trkpt>
      <trkpt lat="44.89259" lon="5.32194">
        <ele>1485.6</ele>
        <time>2021-10-08T09:15:33Z</time>
      </trkpt>
      <trkpt lat="44.89258" lon="5.32195">
        <ele>1486.4</ele>
        <time>2021-10-08T09:15:34Z</time>
      </trkpt>
      <trkpt lat="44.89258" lon="5.32196">
        <ele>1486.4</ele>
        <time>2021-10-08T09:15:35Z</time>
      </trkpt>
      <trkpt lat="44.89257" lon="5.32197">
        <ele>1486.4</ele>
        <time>2021-10-08T09:15:36Z</time>
      </trkpt>
      <trkpt lat="44.89256" lon="5.32197">
        <ele>1486.4</ele>
        <time>2021-10-08T09:15:37Z</time>
      </trkpt>
      <trkpt lat="44.89256" lon="5.32198">
        <ele>1486.6</ele>
        <time>2021-10-08T09:15:38Z</time>
      </trkpt>
      <trkpt lat="44.89245" lon="5.32205">
        <ele>1486.6</ele>
        <time>2021-10-08T09:16:16Z</time>
      </trkpt>
      <trkpt lat="44.89244" lon="5.32206">
        <ele>1486.6</ele>
        <time>2021-10-08T09:16:17Z</time>
      </trkpt>
      <trkpt lat="44.89242" lon="5.32208">
        <ele>1487.4</ele>
        <time>2021-10-08T09:16:18Z</time>
      </trkpt>
      <trkpt lat="44.89241" lon="5.3221">
        <ele>1487.4</ele>
        <time>2021-10-08T09:16:19Z</time>
      </trkpt>
      <trkpt lat="44.8924" lon="5.32211">
        <ele>1487.4</ele>
        <time>2021-10-08T09:16:20Z</time>
      </trkpt>
      <trkpt lat="44.89239" lon="5.32212">
        <ele>1487.4</ele>
        <time>2021-10-08T09:16:21Z</time>
      </trkpt>
      <trkpt lat="44.89238" lon="5.32213">
        <ele>1488.8</ele>
        <time>2021-10-08T09:16:22Z</time>
      </trkpt>
      <trkpt lat="44.89237" lon="5.32215">
        <ele>1488.8</ele>
        <time>2021-10-08T09:16:23Z</time>
      </trkpt>
      <trkpt lat="44.89235" lon="5.32218">
        <ele>1488.8</ele>
        <time>2021-10-08T09:16:24Z</time>
      </trkpt>
      <trkpt lat="44.89234" lon="5.32221">
        <ele>1488.8</ele>
        <time>2021-10-08T09:16:25Z</time>
      </trkpt>
      <trkpt lat="44.89232" lon="5.32223">
        <ele>1489</ele>
        <time>2021-10-08T09:16:26Z</time>
      </trkpt>
      <trkpt lat="44.8923" lon="5.32225">
        <ele>1489</ele>
        <time>2021-10-08T09:16:27Z</time>
      </trkpt>
      <trkpt lat="44.8923" lon="5.32227">
        <ele>1489</ele>
        <time>2021-10-08T09:16:28Z</time>
      </trkpt>
      <trkpt lat="44.89229" lon="5.32229">
        <ele>1489</ele>
        <time>2021-10-08T09:16:29Z</time>
      </trkpt>
      <trkpt lat="44.89228" lon="5.32232">
        <ele>1489.4</ele>
        <time>2021-10-08T09:16:30Z</time>
      </trkpt>
      <trkpt lat="44.89227" lon="5.32234">
        <ele>1489.4</ele>
        <time>2021-10-08T09:16:31Z</time>
      </trkpt>
      <trkpt lat="44.89226" lon="5.32236">
        <ele>1489.4</ele>
        <time>2021-10-08T09:16:32Z</time>
      </trkpt>
      <trkpt lat="44.89226" lon="5.32239">
        <ele>1490.2</ele>
        <time>2021-10-08T09:16:33Z</time>
      </trkpt>
      <trkpt lat="44.89226" lon="5.32242">
        <ele>1490.2</ele>
        <time>2021-10-08T09:16:34Z</time>
      </trkpt>
      <trkpt lat="44.89225" lon="5.32244">
        <ele>1490.2</ele>
        <time>2021-10-08T09:16:35Z</time>
      </trkpt>
      <trkpt lat="44.89223" lon="5.32246">
        <ele>1490.2</ele>
        <time>2021-10-08T09:16:36Z</time>
      </trkpt>
      <trkpt lat="44.89223" lon="5.32248">
        <ele>1490.6</ele>
        <time>2021-10-08T09:16:37Z</time>
      </trkpt>
      <trkpt lat="44.89222" lon="5.32251">
        <ele>1490.4</ele>
        <time>2021-10-08T09:16:38Z</time>
      </trkpt>
      <trkpt lat="44.89221" lon="5.32253">
        <ele>1490.4</ele>
        <time>2021-10-08T09:16:39Z</time>
      </trkpt>
      <trkpt lat="44.8922" lon="5.32255">
        <ele>1490.4</ele>
        <time>2021-10-08T09:16:40Z</time>
      </trkpt>
      <trkpt lat="44.89219" lon="5.32257">
        <ele>1490.4</ele>
        <time>2021-10-08T09:16:41Z</time>
      </trkpt>
      <trkpt lat="44.89218" lon="5.32259">
        <ele>1491.2</ele>
        <time>2021-10-08T09:16:42Z</time>
      </trkpt>
      <trkpt lat="44.89218" lon="5.32262">
        <ele>1491.2</ele>
        <time>2021-10-08T09:16:43Z</time>
      </trkpt>
      <trkpt lat="44.89217" lon="5.32265">
        <ele>1491.2</ele>
        <time>2021-10-08T09:16:44Z</time>
      </trkpt>
      <trkpt lat="44.89216" lon="5.32267">
        <ele>1491.2</ele>
        <time>2021-10-08T09:16:45Z</time>
      </trkpt>
      <trkpt lat="44.89216" lon="5.3227">
        <ele>1491.2</ele>
        <time>2021-10-08T09:16:46Z</time>
      </trkpt>
      <trkpt lat="44.89215" lon="5.32272">
        <ele>1491.2</ele>
        <time>2021-10-08T09:16:47Z</time>
      </trkpt>
      <trkpt lat="44.89214" lon="5.32274">
        <ele>1491.2</ele>
        <time>2021-10-08T09:16:48Z</time>
      </trkpt>
      <trkpt lat="44.89213" lon="5.32276">
        <ele>1491.8</ele>
        <time>2021-10-08T09:16:49Z</time>
      </trkpt>
      <trkpt lat="44.89213" lon="5.32279">
        <ele>1492</ele>
        <time>2021-10-08T09:16:50Z</time>
      </trkpt>
      <trkpt lat="44.89212" lon="5.32281">
        <ele>1492</ele>
        <time>2021-10-08T09:16:51Z</time>
      </trkpt>
      <trkpt lat="44.89211" lon="5.32283">
        <ele>1492</ele>
        <time>2021-10-08T09:16:52Z</time>
      </trkpt>
      <trkpt lat="44.8921" lon="5.32285">
        <ele>1492.6</ele>
        <time>2021-10-08T09:16:53Z</time>
      </trkpt>
      <trkpt lat="44.89209" lon="5.32286">
        <ele>1492.8</ele>
        <time>2021-10-08T09:16:54Z</time>
      </trkpt>
      <trkpt lat="44.89208" lon="5.32288">
        <ele>1492.8</ele>
        <time>2021-10-08T09:16:55Z</time>
      </trkpt>
      <trkpt lat="44.89206" lon="5.32289">
        <ele>1492.8</ele>
        <time>2021-10-08T09:16:56Z</time>
      </trkpt>
      <trkpt lat="44.89204" lon="5.3229">
        <ele>1492.8</ele>
        <time>2021-10-08T09:16:57Z</time>
      </trkpt>
      <trkpt lat="44.89203" lon="5.32291">
        <ele>1493.2</ele>
        <time>2021-10-08T09:16:58Z</time>
      </trkpt>
      <trkpt lat="44.89202" lon="5.32293">
        <ele>1493.2</ele>
        <time>2021-10-08T09:16:59Z</time>
      </trkpt>
      <trkpt lat="44.892" lon="5.32294">
        <ele>1493.2</ele>
        <time>2021-10-08T09:17:00Z</time>
      </trkpt>
      <trkpt lat="44.89199" lon="5.32296">
        <ele>1493.4</ele>
        <time>2021-10-08T09:17:01Z</time>
      </trkpt>
      <trkpt lat="44.89197" lon="5.32297">
        <ele>1493.6</ele>
        <time>2021-10-08T09:17:02Z</time>
      </trkpt>
      <trkpt lat="44.89196" lon="5.32298">
        <ele>1493.6</ele>
        <time>2021-10-08T09:17:03Z</time>
      </trkpt>
      <trkpt lat="44.89194" lon="5.32299">
        <ele>1493.6</ele>
        <time>2021-10-08T09:17:04Z</time>
      </trkpt>
      <trkpt lat="44.89192" lon="5.323">
        <ele>1493.6</ele>
        <time>2021-10-08T09:17:05Z</time>
      </trkpt>
      <trkpt lat="44.89191" lon="5.32301">
        <ele>1494.2</ele>
        <time>2021-10-08T09:17:06Z</time>
      </trkpt>
      <trkpt lat="44.89189" lon="5.32302">
        <ele>1494.2</ele>
        <time>2021-10-08T09:17:07Z</time>
      </trkpt>
      <trkpt lat="44.89188" lon="5.32302">
        <ele>1494.2</ele>
        <time>2021-10-08T09:17:08Z</time>
      </trkpt>
      <trkpt lat="44.89186" lon="5.32303">
        <ele>1494.8</ele>
        <time>2021-10-08T09:17:09Z</time>
      </trkpt>
      <trkpt lat="44.89185" lon="5.32304">
        <ele>1494.8</ele>
        <time>2021-10-08T09:17:10Z</time>
      </trkpt>
      <trkpt lat="44.89183" lon="5.32305">
        <ele>1494.8</ele>
        <time>2021-10-08T09:17:11Z</time>
      </trkpt>
      <trkpt lat="44.89182" lon="5.32306">
        <ele>1494.8</ele>
        <time>2021-10-08T09:17:12Z</time>
      </trkpt>
      <trkpt lat="44.8918" lon="5.32307">
        <ele>1495</ele>
        <time>2021-10-08T09:17:13Z</time>
      </trkpt>
      <trkpt lat="44.89179" lon="5.32307">
        <ele>1495.2</ele>
        <time>2021-10-08T09:17:14Z</time>
      </trkpt>
      <trkpt lat="44.89177" lon="5.32308">
        <ele>1495.2</ele>
        <time>2021-10-08T09:17:15Z</time>
      </trkpt>
      <trkpt lat="44.89175" lon="5.32309">
        <ele>1495.2</ele>
        <time>2021-10-08T09:17:16Z</time>
      </trkpt>
      <trkpt lat="44.89174" lon="5.32309">
        <ele>1496</ele>
        <time>2021-10-08T09:17:17Z</time>
      </trkpt>
      <trkpt lat="44.89172" lon="5.3231">
        <ele>1495.8</ele>
        <time>2021-10-08T09:17:18Z</time>
      </trkpt>
      <trkpt lat="44.8917" lon="5.32311">
        <ele>1495.8</ele>
        <time>2021-10-08T09:17:19Z</time>
      </trkpt>
      <trkpt lat="44.89169" lon="5.32312">
        <ele>1495.8</ele>
        <time>2021-10-08T09:17:20Z</time>
      </trkpt>
      <trkpt lat="44.89167" lon="5.32313">
        <ele>1496.6</ele>
        <time>2021-10-08T09:17:21Z</time>
      </trkpt>
      <trkpt lat="44.89166" lon="5.32313">
        <ele>1496.4</ele>
        <time>2021-10-08T09:17:22Z</time>
      </trkpt>
      <trkpt lat="44.89164" lon="5.32313">
        <ele>1496.4</ele>
        <time>2021-10-08T09:17:23Z</time>
      </trkpt>
      <trkpt lat="44.89163" lon="5.32314">
        <ele>1496.4</ele>
        <time>2021-10-08T09:17:24Z</time>
      </trkpt>
      <trkpt lat="44.89161" lon="5.32314">
        <ele>1496.8</ele>
        <time>2021-10-08T09:17:25Z</time>
      </trkpt>
      <trkpt lat="44.89159" lon="5.32315">
        <ele>1496.8</ele>
        <time>2021-10-08T09:17:26Z</time>
      </trkpt>
      <trkpt lat="44.89158" lon="5.32315">
        <ele>1496.8</ele>
        <time>2021-10-08T09:17:27Z</time>
      </trkpt>
      <trkpt lat="44.89156" lon="5.32315">
        <ele>1496.8</ele>
        <time>2021-10-08T09:17:28Z</time>
      </trkpt>
      <trkpt lat="44.89154" lon="5.32315">
        <ele>1497.4</ele>
        <time>2021-10-08T09:17:29Z</time>
      </trkpt>
      <trkpt lat="44.89153" lon="5.32315">
        <ele>1497.4</ele>
        <time>2021-10-08T09:17:30Z</time>
      </trkpt>
      <trkpt lat="44.89151" lon="5.32314">
        <ele>1497.4</ele>
        <time>2021-10-08T09:17:31Z</time>
      </trkpt>
      <trkpt lat="44.89149" lon="5.32314">
        <ele>1497.4</ele>
        <time>2021-10-08T09:17:32Z</time>
      </trkpt>
      <trkpt lat="44.89148" lon="5.32313">
        <ele>1497.4</ele>
        <time>2021-10-08T09:17:33Z</time>
      </trkpt>
      <trkpt lat="44.89146" lon="5.32312">
        <ele>1497.6</ele>
        <time>2021-10-08T09:17:34Z</time>
      </trkpt>
      <trkpt lat="44.89145" lon="5.32311">
        <ele>1497.6</ele>
        <time>2021-10-08T09:17:35Z</time>
      </trkpt>
      <trkpt lat="44.89143" lon="5.3231">
        <ele>1497.6</ele>
        <time>2021-10-08T09:17:36Z</time>
      </trkpt>
      <trkpt lat="44.89141" lon="5.32309">
        <ele>1497.6</ele>
        <time>2021-10-08T09:17:37Z</time>
      </trkpt>
      <trkpt lat="44.8914" lon="5.32308">
        <ele>1498</ele>
        <time>2021-10-08T09:17:38Z</time>
      </trkpt>
      <trkpt lat="44.89138" lon="5.32307">
        <ele>1498</ele>
        <time>2021-10-08T09:17:39Z</time>
      </trkpt>
      <trkpt lat="44.89136" lon="5.32306">
        <ele>1498</ele>
        <time>2021-10-08T09:17:40Z</time>
      </trkpt>
      <trkpt lat="44.89135" lon="5.32305">
        <ele>1498.6</ele>
        <time>2021-10-08T09:17:41Z</time>
      </trkpt>
      <trkpt lat="44.89133" lon="5.32304">
        <ele>1498.4</ele>
        <time>2021-10-08T09:17:42Z</time>
      </trkpt>
      <trkpt lat="44.89132" lon="5.32303">
        <ele>1498.4</ele>
        <time>2021-10-08T09:17:43Z</time>
      </trkpt>
      <trkpt lat="44.8913" lon="5.32301">
        <ele>1498.4</ele>
        <time>2021-10-08T09:17:44Z</time>
      </trkpt>
      <trkpt lat="44.89129" lon="5.323">
        <ele>1498.6</ele>
        <time>2021-10-08T09:17:45Z</time>
      </trkpt>
      <trkpt lat="44.89127" lon="5.32299">
        <ele>1498.8</ele>
        <time>2021-10-08T09:17:46Z</time>
      </trkpt>
      <trkpt lat="44.89126" lon="5.32298">
        <ele>1498.8</ele>
        <time>2021-10-08T09:17:47Z</time>
      </trkpt>
      <trkpt lat="44.89124" lon="5.32297">
        <ele>1498.8</ele>
        <time>2021-10-08T09:17:48Z</time>
      </trkpt>
      <trkpt lat="44.89123" lon="5.32297">
        <ele>1498.8</ele>
        <time>2021-10-08T09:17:49Z</time>
      </trkpt>
      <trkpt lat="44.89121" lon="5.32296">
        <ele>1499.4</ele>
        <time>2021-10-08T09:17:50Z</time>
      </trkpt>
      <trkpt lat="44.8912" lon="5.32294">
        <ele>1499.4</ele>
        <time>2021-10-08T09:17:51Z</time>
      </trkpt>
      <trkpt lat="44.89119" lon="5.32293">
        <ele>1499.4</ele>
        <time>2021-10-08T09:17:52Z</time>
      </trkpt>
      <trkpt lat="44.89118" lon="5.32291">
        <ele>1500</ele>
        <time>2021-10-08T09:17:53Z</time>
      </trkpt>
      <trkpt lat="44.89116" lon="5.3229">
        <ele>1499.4</ele>
        <time>2021-10-08T09:17:54Z</time>
      </trkpt>
      <trkpt lat="44.89115" lon="5.32289">
        <ele>1499.4</ele>
        <time>2021-10-08T09:17:55Z</time>
      </trkpt>
      <trkpt lat="44.89114" lon="5.32288">
        <ele>1499.4</ele>
        <time>2021-10-08T09:17:56Z</time>
      </trkpt>
      <trkpt lat="44.89112" lon="5.32287">
        <ele>1499.4</ele>
        <time>2021-10-08T09:17:57Z</time>
      </trkpt>
      <trkpt lat="44.89111" lon="5.32286">
        <ele>1500.2</ele>
        <time>2021-10-08T09:17:58Z</time>
      </trkpt>
      <trkpt lat="44.8911" lon="5.32285">
        <ele>1500.2</ele>
        <time>2021-10-08T09:17:59Z</time>
      </trkpt>
      <trkpt lat="44.89108" lon="5.32283">
        <ele>1500.2</ele>
        <time>2021-10-08T09:18:00Z</time>
      </trkpt>
      <trkpt lat="44.89107" lon="5.32282">
        <ele>1500.8</ele>
        <time>2021-10-08T09:18:01Z</time>
      </trkpt>
      <trkpt lat="44.89106" lon="5.32281">
        <ele>1501</ele>
        <time>2021-10-08T09:18:02Z</time>
      </trkpt>
      <trkpt lat="44.89104" lon="5.3228">
        <ele>1501</ele>
        <time>2021-10-08T09:18:03Z</time>
      </trkpt>
      <trkpt lat="44.89103" lon="5.32279">
        <ele>1501</ele>
        <time>2021-10-08T09:18:04Z</time>
      </trkpt>
      <trkpt lat="44.89102" lon="5.32278">
        <ele>1502</ele>
        <time>2021-10-08T09:18:05Z</time>
      </trkpt>
      <trkpt lat="44.891" lon="5.32277">
        <ele>1502</ele>
        <time>2021-10-08T09:18:06Z</time>
      </trkpt>
      <trkpt lat="44.89099" lon="5.32275">
        <ele>1502</ele>
        <time>2021-10-08T09:18:07Z</time>
      </trkpt>
      <trkpt lat="44.89098" lon="5.32274">
        <ele>1502</ele>
        <time>2021-10-08T09:18:08Z</time>
      </trkpt>
      <trkpt lat="44.89096" lon="5.32273">
        <ele>1502</ele>
        <time>2021-10-08T09:18:09Z</time>
      </trkpt>
      <trkpt lat="44.89095" lon="5.32271">
        <ele>1502.2</ele>
        <time>2021-10-08T09:18:10Z</time>
      </trkpt>
      <trkpt lat="44.89094" lon="5.3227">
        <ele>1502.2</ele>
        <time>2021-10-08T09:18:11Z</time>
      </trkpt>
      <trkpt lat="44.89092" lon="5.32268">
        <ele>1502.2</ele>
        <time>2021-10-08T09:18:12Z</time>
      </trkpt>
      <trkpt lat="44.89091" lon="5.32266">
        <ele>1502.2</ele>
        <time>2021-10-08T09:18:13Z</time>
      </trkpt>
      <trkpt lat="44.89089" lon="5.32265">
        <ele>1502.6</ele>
        <time>2021-10-08T09:18:14Z</time>
      </trkpt>
      <trkpt lat="44.89088" lon="5.32263">
        <ele>1502.6</ele>
        <time>2021-10-08T09:18:15Z</time>
      </trkpt>
      <trkpt lat="44.89087" lon="5.32262">
        <ele>1502.6</ele>
        <time>2021-10-08T09:18:16Z</time>
      </trkpt>
      <trkpt lat="44.89085" lon="5.3226">
        <ele>1503</ele>
        <time>2021-10-08T09:18:17Z</time>
      </trkpt>
      <trkpt lat="44.89084" lon="5.32259">
        <ele>1503.2</ele>
        <time>2021-10-08T09:18:18Z</time>
      </trkpt>
      <trkpt lat="44.89083" lon="5.32257">
        <ele>1503.2</ele>
        <time>2021-10-08T09:18:19Z</time>
      </trkpt>
      <trkpt lat="44.89081" lon="5.32256">
        <ele>1503.2</ele>
        <time>2021-10-08T09:18:20Z</time>
      </trkpt>
      <trkpt lat="44.8908" lon="5.32254">
        <ele>1503.2</ele>
        <time>2021-10-08T09:18:21Z</time>
      </trkpt>
      <trkpt lat="44.89079" lon="5.32253">
        <ele>1503.2</ele>
        <time>2021-10-08T09:18:22Z</time>
      </trkpt>
      <trkpt lat="44.89077" lon="5.32251">
        <ele>1503.2</ele>
        <time>2021-10-08T09:18:23Z</time>
      </trkpt>
      <trkpt lat="44.89076" lon="5.3225">
        <ele>1503.2</ele>
        <time>2021-10-08T09:18:24Z</time>
      </trkpt>
      <trkpt lat="44.89075" lon="5.32249">
        <ele>1504.2</ele>
        <time>2021-10-08T09:18:25Z</time>
      </trkpt>
      <trkpt lat="44.89074" lon="5.32248">
        <ele>1504.2</ele>
        <time>2021-10-08T09:18:26Z</time>
      </trkpt>
      <trkpt lat="44.89072" lon="5.32246">
        <ele>1504.2</ele>
        <time>2021-10-08T09:18:27Z</time>
      </trkpt>
      <trkpt lat="44.8907" lon="5.32245">
        <ele>1504.2</ele>
        <time>2021-10-08T09:18:28Z</time>
      </trkpt>
      <trkpt lat="44.89068" lon="5.32245">
        <ele>1504.6</ele>
        <time>2021-10-08T09:18:29Z</time>
      </trkpt>
      <trkpt lat="44.89067" lon="5.32244">
        <ele>1504.4</ele>
        <time>2021-10-08T09:18:30Z</time>
      </trkpt>
      <trkpt lat="44.89065" lon="5.32243">
        <ele>1504.4</ele>
        <time>2021-10-08T09:18:31Z</time>
      </trkpt>
      <trkpt lat="44.89063" lon="5.32242">
        <ele>1504.4</ele>
        <time>2021-10-08T09:18:32Z</time>
      </trkpt>
      <trkpt lat="44.89061" lon="5.32241">
        <ele>1504.4</ele>
        <time>2021-10-08T09:18:33Z</time>
      </trkpt>
      <trkpt lat="44.8906" lon="5.3224">
        <ele>1504.6</ele>
        <time>2021-10-08T09:18:34Z</time>
      </trkpt>
      <trkpt lat="44.89058" lon="5.3224">
        <ele>1504.6</ele>
        <time>2021-10-08T09:18:35Z</time>
      </trkpt>
      <trkpt lat="44.89056" lon="5.32238">
        <ele>1504.6</ele>
        <time>2021-10-08T09:18:36Z</time>
      </trkpt>
      <trkpt lat="44.89055" lon="5.32236">
        <ele>1504.6</ele>
        <time>2021-10-08T09:18:37Z</time>
      </trkpt>
      <trkpt lat="44.89053" lon="5.32235">
        <ele>1504.6</ele>
        <time>2021-10-08T09:18:38Z</time>
      </trkpt>
      <trkpt lat="44.89052" lon="5.32234">
        <ele>1505</ele>
        <time>2021-10-08T09:18:39Z</time>
      </trkpt>
      <trkpt lat="44.89051" lon="5.32232">
        <ele>1505</ele>
        <time>2021-10-08T09:18:40Z</time>
      </trkpt>
      <trkpt lat="44.89049" lon="5.32231">
        <ele>1505</ele>
        <time>2021-10-08T09:18:41Z</time>
      </trkpt>
      <trkpt lat="44.89047" lon="5.32229">
        <ele>1505</ele>
        <time>2021-10-08T09:18:42Z</time>
      </trkpt>
      <trkpt lat="44.89046" lon="5.32228">
        <ele>1505</ele>
        <time>2021-10-08T09:18:43Z</time>
      </trkpt>
      <trkpt lat="44.89044" lon="5.32226">
        <ele>1505</ele>
        <time>2021-10-08T09:18:44Z</time>
      </trkpt>
      <trkpt lat="44.89043" lon="5.32225">
        <ele>1505.2</ele>
        <time>2021-10-08T09:18:45Z</time>
      </trkpt>
      <trkpt lat="44.89041" lon="5.32224">
        <ele>1505.6</ele>
        <time>2021-10-08T09:18:46Z</time>
      </trkpt>
      <trkpt lat="44.8904" lon="5.32223">
        <ele>1505.6</ele>
        <time>2021-10-08T09:18:47Z</time>
      </trkpt>
      <trkpt lat="44.89038" lon="5.32221">
        <ele>1505.6</ele>
        <time>2021-10-08T09:18:48Z</time>
      </trkpt>
      <trkpt lat="44.89036" lon="5.3222">
        <ele>1505.6</ele>
        <time>2021-10-08T09:18:49Z</time>
      </trkpt>
      <trkpt lat="44.89035" lon="5.32219">
        <ele>1505.2</ele>
        <time>2021-10-08T09:18:50Z</time>
      </trkpt>
      <trkpt lat="44.89033" lon="5.32218">
        <ele>1505.2</ele>
        <time>2021-10-08T09:18:51Z</time>
      </trkpt>
      <trkpt lat="44.89031" lon="5.32217">
        <ele>1505.2</ele>
        <time>2021-10-08T09:18:52Z</time>
      </trkpt>
      <trkpt lat="44.89029" lon="5.32216">
        <ele>1506.2</ele>
        <time>2021-10-08T09:18:53Z</time>
      </trkpt>
      <trkpt lat="44.89028" lon="5.32215">
        <ele>1505.8</ele>
        <time>2021-10-08T09:18:54Z</time>
      </trkpt>
      <trkpt lat="44.89026" lon="5.32215">
        <ele>1505.8</ele>
        <time>2021-10-08T09:18:55Z</time>
      </trkpt>
      <trkpt lat="44.89024" lon="5.32214">
        <ele>1505.8</ele>
        <time>2021-10-08T09:18:56Z</time>
      </trkpt>
      <trkpt lat="44.89022" lon="5.32213">
        <ele>1506.4</ele>
        <time>2021-10-08T09:18:57Z</time>
      </trkpt>
      <trkpt lat="44.8902" lon="5.32212">
        <ele>1506.8</ele>
        <time>2021-10-08T09:18:58Z</time>
      </trkpt>
      <trkpt lat="44.89018" lon="5.32211">
        <ele>1506.8</ele>
        <time>2021-10-08T09:18:59Z</time>
      </trkpt>
      <trkpt lat="44.89016" lon="5.3221">
        <ele>1506.8</ele>
        <time>2021-10-08T09:19:00Z</time>
      </trkpt>
      <trkpt lat="44.89014" lon="5.3221">
        <ele>1506.8</ele>
        <time>2021-10-08T09:19:01Z</time>
      </trkpt>
      <trkpt lat="44.89012" lon="5.32209">
        <ele>1506.8</ele>
        <time>2021-10-08T09:19:02Z</time>
      </trkpt>
      <trkpt lat="44.8901" lon="5.32209">
        <ele>1506.8</ele>
        <time>2021-10-08T09:19:03Z</time>
      </trkpt>
      <trkpt lat="44.89008" lon="5.32209">
        <ele>1506.8</ele>
        <time>2021-10-08T09:19:04Z</time>
      </trkpt>
      <trkpt lat="44.89006" lon="5.32209">
        <ele>1507.8</ele>
        <time>2021-10-08T09:19:05Z</time>
      </trkpt>
      <trkpt lat="44.89005" lon="5.32208">
        <ele>1507.6</ele>
        <time>2021-10-08T09:19:06Z</time>
      </trkpt>
      <trkpt lat="44.89003" lon="5.32208">
        <ele>1507.6</ele>
        <time>2021-10-08T09:19:07Z</time>
      </trkpt>
      <trkpt lat="44.89001" lon="5.32207">
        <ele>1507.6</ele>
        <time>2021-10-08T09:19:08Z</time>
      </trkpt>
      <trkpt lat="44.88999" lon="5.32206">
        <ele>1508.2</ele>
        <time>2021-10-08T09:19:09Z</time>
      </trkpt>
      <trkpt lat="44.88997" lon="5.32206">
        <ele>1508.8</ele>
        <time>2021-10-08T09:19:10Z</time>
      </trkpt>
      <trkpt lat="44.88996" lon="5.32206">
        <ele>1508.8</ele>
        <time>2021-10-08T09:19:11Z</time>
      </trkpt>
      <trkpt lat="44.88994" lon="5.32205">
        <ele>1508.8</ele>
        <time>2021-10-08T09:19:12Z</time>
      </trkpt>
      <trkpt lat="44.88992" lon="5.32205">
        <ele>1508.8</ele>
        <time>2021-10-08T09:19:13Z</time>
      </trkpt>
      <trkpt lat="44.88991" lon="5.32204">
        <ele>1508.6</ele>
        <time>2021-10-08T09:19:14Z</time>
      </trkpt>
      <trkpt lat="44.88989" lon="5.32203">
        <ele>1508.6</ele>
        <time>2021-10-08T09:19:15Z</time>
      </trkpt>
      <trkpt lat="44.88987" lon="5.32203">
        <ele>1508.6</ele>
        <time>2021-10-08T09:19:16Z</time>
      </trkpt>
      <trkpt lat="44.88986" lon="5.32202">
        <ele>1509</ele>
        <time>2021-10-08T09:19:17Z</time>
      </trkpt>
      <trkpt lat="44.88984" lon="5.32203">
        <ele>1509.2</ele>
        <time>2021-10-08T09:19:18Z</time>
      </trkpt>
      <trkpt lat="44.88982" lon="5.32203">
        <ele>1509.2</ele>
        <time>2021-10-08T09:19:19Z</time>
      </trkpt>
      <trkpt lat="44.8898" lon="5.32204">
        <ele>1509.2</ele>
        <time>2021-10-08T09:19:20Z</time>
      </trkpt>
      <trkpt lat="44.88978" lon="5.32204">
        <ele>1509.2</ele>
        <time>2021-10-08T09:19:21Z</time>
      </trkpt>
      <trkpt lat="44.88977" lon="5.32204">
        <ele>1509.4</ele>
        <time>2021-10-08T09:19:22Z</time>
      </trkpt>
      <trkpt lat="44.88975" lon="5.32203">
        <ele>1509.4</ele>
        <time>2021-10-08T09:19:23Z</time>
      </trkpt>
      <trkpt lat="44.88973" lon="5.32203">
        <ele>1509.4</ele>
        <time>2021-10-08T09:19:24Z</time>
      </trkpt>
      <trkpt lat="44.88972" lon="5.32203">
        <ele>1509.4</ele>
        <time>2021-10-08T09:19:25Z</time>
      </trkpt>
      <trkpt lat="44.8897" lon="5.32203">
        <ele>1509.8</ele>
        <time>2021-10-08T09:19:26Z</time>
      </trkpt>
      <trkpt lat="44.88968" lon="5.32203">
        <ele>1509.8</ele>
        <time>2021-10-08T09:19:27Z</time>
      </trkpt>
      <trkpt lat="44.88966" lon="5.32204">
        <ele>1509.8</ele>
        <time>2021-10-08T09:19:28Z</time>
      </trkpt>
      <trkpt lat="44.88965" lon="5.32206">
        <ele>1510.6</ele>
        <time>2021-10-08T09:19:29Z</time>
      </trkpt>
      <trkpt lat="44.88963" lon="5.32207">
        <ele>1510.8</ele>
        <time>2021-10-08T09:19:30Z</time>
      </trkpt>
      <trkpt lat="44.88961" lon="5.32208">
        <ele>1510.8</ele>
        <time>2021-10-08T09:19:31Z</time>
      </trkpt>
      <trkpt lat="44.8896" lon="5.3221">
        <ele>1510.8</ele>
        <time>2021-10-08T09:19:32Z</time>
      </trkpt>
      <trkpt lat="44.88958" lon="5.32211">
        <ele>1510.8</ele>
        <time>2021-10-08T09:19:33Z</time>
      </trkpt>
      <trkpt lat="44.88956" lon="5.32212">
        <ele>1511</ele>
        <time>2021-10-08T09:19:34Z</time>
      </trkpt>
      <trkpt lat="44.88955" lon="5.32212">
        <ele>1511</ele>
        <time>2021-10-08T09:19:35Z</time>
      </trkpt>
      <trkpt lat="44.88953" lon="5.32211">
        <ele>1511</ele>
        <time>2021-10-08T09:19:36Z</time>
      </trkpt>
      <trkpt lat="44.88951" lon="5.32211">
        <ele>1512</ele>
        <time>2021-10-08T09:19:37Z</time>
      </trkpt>
      <trkpt lat="44.8895" lon="5.32213">
        <ele>1512.6</ele>
        <time>2021-10-08T09:19:38Z</time>
      </trkpt>
      <trkpt lat="44.8895" lon="5.32213">
        <ele>1512.6</ele>
        <time>2021-10-08T09:19:39Z</time>
      </trkpt>
      <trkpt lat="44.88949" lon="5.32214">
        <ele>1512.6</ele>
        <time>2021-10-08T09:19:40Z</time>
      </trkpt>
      <trkpt lat="44.88946" lon="5.32209">
        <ele>1512.6</ele>
        <time>2021-10-08T09:19:55Z</time>
      </trkpt>
      <trkpt lat="44.88944" lon="5.32208">
        <ele>1512.6</ele>
        <time>2021-10-08T09:19:56Z</time>
      </trkpt>
      <trkpt lat="44.88942" lon="5.32207">
        <ele>1512.4</ele>
        <time>2021-10-08T09:19:57Z</time>
      </trkpt>
      <trkpt lat="44.8894" lon="5.32207">
        <ele>1512.6</ele>
        <time>2021-10-08T09:19:58Z</time>
      </trkpt>
      <trkpt lat="44.88938" lon="5.32206">
        <ele>1512.6</ele>
        <time>2021-10-08T09:19:59Z</time>
      </trkpt>
      <trkpt lat="44.88937" lon="5.32205">
        <ele>1512.6</ele>
        <time>2021-10-08T09:20:00Z</time>
      </trkpt>
      <trkpt lat="44.88935" lon="5.32204">
        <ele>1512.6</ele>
        <time>2021-10-08T09:20:01Z</time>
      </trkpt>
      <trkpt lat="44.88933" lon="5.32204">
        <ele>1512.8</ele>
        <time>2021-10-08T09:20:02Z</time>
      </trkpt>
      <trkpt lat="44.88932" lon="5.32203">
        <ele>1512.8</ele>
        <time>2021-10-08T09:20:03Z</time>
      </trkpt>
      <trkpt lat="44.8893" lon="5.32202">
        <ele>1512.8</ele>
        <time>2021-10-08T09:20:04Z</time>
      </trkpt>
      <trkpt lat="44.88928" lon="5.32201">
        <ele>1513.2</ele>
        <time>2021-10-08T09:20:05Z</time>
      </trkpt>
      <trkpt lat="44.88927" lon="5.322">
        <ele>1513.4</ele>
        <time>2021-10-08T09:20:06Z</time>
      </trkpt>
      <trkpt lat="44.88925" lon="5.32199">
        <ele>1513.4</ele>
        <time>2021-10-08T09:20:07Z</time>
      </trkpt>
      <trkpt lat="44.88923" lon="5.32198">
        <ele>1513.4</ele>
        <time>2021-10-08T09:20:08Z</time>
      </trkpt>
      <trkpt lat="44.88921" lon="5.32198">
        <ele>1513.4</ele>
        <time>2021-10-08T09:20:09Z</time>
      </trkpt>
      <trkpt lat="44.8892" lon="5.32197">
        <ele>1513.6</ele>
        <time>2021-10-08T09:20:10Z</time>
      </trkpt>
      <trkpt lat="44.88918" lon="5.32196">
        <ele>1513.6</ele>
        <time>2021-10-08T09:20:11Z</time>
      </trkpt>
      <trkpt lat="44.88917" lon="5.32196">
        <ele>1513.6</ele>
        <time>2021-10-08T09:20:12Z</time>
      </trkpt>
      <trkpt lat="44.88915" lon="5.32196">
        <ele>1513.6</ele>
        <time>2021-10-08T09:20:13Z</time>
      </trkpt>
      <trkpt lat="44.88913" lon="5.32196">
        <ele>1513.2</ele>
        <time>2021-10-08T09:20:14Z</time>
      </trkpt>
      <trkpt lat="44.88912" lon="5.32196">
        <ele>1513.2</ele>
        <time>2021-10-08T09:20:15Z</time>
      </trkpt>
      <trkpt lat="44.8891" lon="5.32196">
        <ele>1513.2</ele>
        <time>2021-10-08T09:20:16Z</time>
      </trkpt>
      <trkpt lat="44.88909" lon="5.32196">
        <ele>1514</ele>
        <time>2021-10-08T09:20:17Z</time>
      </trkpt>
      <trkpt lat="44.88907" lon="5.32196">
        <ele>1514</ele>
        <time>2021-10-08T09:20:18Z</time>
      </trkpt>
      <trkpt lat="44.88905" lon="5.32196">
        <ele>1514</ele>
        <time>2021-10-08T09:20:19Z</time>
      </trkpt>
      <trkpt lat="44.88904" lon="5.32195">
        <ele>1514</ele>
        <time>2021-10-08T09:20:20Z</time>
      </trkpt>
      <trkpt lat="44.88903" lon="5.32195">
        <ele>1514</ele>
        <time>2021-10-08T09:20:21Z</time>
      </trkpt>
      <trkpt lat="44.88901" lon="5.32194">
        <ele>1514.8</ele>
        <time>2021-10-08T09:20:22Z</time>
      </trkpt>
      <trkpt lat="44.889" lon="5.32195">
        <ele>1514.8</ele>
        <time>2021-10-08T09:20:23Z</time>
      </trkpt>
      <trkpt lat="44.88898" lon="5.32195">
        <ele>1514.8</ele>
        <time>2021-10-08T09:20:24Z</time>
      </trkpt>
      <trkpt lat="44.88897" lon="5.32196">
        <ele>1515.6</ele>
        <time>2021-10-08T09:20:25Z</time>
      </trkpt>
      <trkpt lat="44.88895" lon="5.32196">
        <ele>1515.2</ele>
        <time>2021-10-08T09:20:26Z</time>
      </trkpt>
      <trkpt lat="44.88894" lon="5.32197">
        <ele>1515.2</ele>
        <time>2021-10-08T09:20:27Z</time>
      </trkpt>
      <trkpt lat="44.88892" lon="5.32197">
        <ele>1515.2</ele>
        <time>2021-10-08T09:20:28Z</time>
      </trkpt>
      <trkpt lat="44.88891" lon="5.32197">
        <ele>1515.2</ele>
        <time>2021-10-08T09:20:29Z</time>
      </trkpt>
      <trkpt lat="44.88889" lon="5.32198">
        <ele>1515.4</ele>
        <time>2021-10-08T09:20:30Z</time>
      </trkpt>
      <trkpt lat="44.88888" lon="5.32198">
        <ele>1515.4</ele>
        <time>2021-10-08T09:20:31Z</time>
      </trkpt>
      <trkpt lat="44.88886" lon="5.32198">
        <ele>1515.4</ele>
        <time>2021-10-08T09:20:32Z</time>
      </trkpt>
      <trkpt lat="44.88884" lon="5.32199">
        <ele>1515.4</ele>
        <time>2021-10-08T09:20:33Z</time>
      </trkpt>
      <trkpt lat="44.88883" lon="5.32201">
        <ele>1515.6</ele>
        <time>2021-10-08T09:20:34Z</time>
      </trkpt>
      <trkpt lat="44.88881" lon="5.32202">
        <ele>1515.6</ele>
        <time>2021-10-08T09:20:35Z</time>
      </trkpt>
      <trkpt lat="44.8888" lon="5.32203">
        <ele>1515.6</ele>
        <time>2021-10-08T09:20:36Z</time>
      </trkpt>
      <trkpt lat="44.88878" lon="5.32204">
        <ele>1515.6</ele>
        <time>2021-10-08T09:20:37Z</time>
      </trkpt>
      <trkpt lat="44.88876" lon="5.32204">
        <ele>1515.8</ele>
        <time>2021-10-08T09:20:38Z</time>
      </trkpt>
      <trkpt lat="44.88874" lon="5.32203">
        <ele>1515.8</ele>
        <time>2021-10-08T09:20:39Z</time>
      </trkpt>
      <trkpt lat="44.88873" lon="5.32203">
        <ele>1515.8</ele>
        <time>2021-10-08T09:20:40Z</time>
      </trkpt>
      <trkpt lat="44.88871" lon="5.32202">
        <ele>1515.8</ele>
        <time>2021-10-08T09:20:41Z</time>
      </trkpt>
      <trkpt lat="44.8887" lon="5.32201">
        <ele>1516</ele>
        <time>2021-10-08T09:20:42Z</time>
      </trkpt>
      <trkpt lat="44.88868" lon="5.32201">
        <ele>1516</ele>
        <time>2021-10-08T09:20:43Z</time>
      </trkpt>
      <trkpt lat="44.88866" lon="5.32201">
        <ele>1516</ele>
        <time>2021-10-08T09:20:44Z</time>
      </trkpt>
      <trkpt lat="44.88865" lon="5.32201">
        <ele>1516</ele>
        <time>2021-10-08T09:20:45Z</time>
      </trkpt>
      <trkpt lat="44.88863" lon="5.32202">
        <ele>1516.2</ele>
        <time>2021-10-08T09:20:46Z</time>
      </trkpt>
      <trkpt lat="44.88861" lon="5.32202">
        <ele>1516.2</ele>
        <time>2021-10-08T09:20:47Z</time>
      </trkpt>
      <trkpt lat="44.88859" lon="5.32203">
        <ele>1516.2</ele>
        <time>2021-10-08T09:20:48Z</time>
      </trkpt>
      <trkpt lat="44.88858" lon="5.32204">
        <ele>1516.2</ele>
        <time>2021-10-08T09:20:49Z</time>
      </trkpt>
      <trkpt lat="44.88857" lon="5.32206">
        <ele>1516.6</ele>
        <time>2021-10-08T09:20:50Z</time>
      </trkpt>
      <trkpt lat="44.88857" lon="5.32207">
        <ele>1516.6</ele>
        <time>2021-10-08T09:20:51Z</time>
      </trkpt>
      <trkpt lat="44.88856" lon="5.32209">
        <ele>1516.6</ele>
        <time>2021-10-08T09:20:52Z</time>
      </trkpt>
      <trkpt lat="44.88855" lon="5.32212">
        <ele>1516.6</ele>
        <time>2021-10-08T09:20:53Z</time>
      </trkpt>
      <trkpt lat="44.88854" lon="5.32214">
        <ele>1517</ele>
        <time>2021-10-08T09:20:54Z</time>
      </trkpt>
      <trkpt lat="44.88853" lon="5.32215">
        <ele>1517</ele>
        <time>2021-10-08T09:20:55Z</time>
      </trkpt>
      <trkpt lat="44.88852" lon="5.32217">
        <ele>1517</ele>
        <time>2021-10-08T09:20:56Z</time>
      </trkpt>
      <trkpt lat="44.88852" lon="5.32219">
        <ele>1517.2</ele>
        <time>2021-10-08T09:20:57Z</time>
      </trkpt>
      <trkpt lat="44.88851" lon="5.32221">
        <ele>1517.4</ele>
        <time>2021-10-08T09:20:58Z</time>
      </trkpt>
      <trkpt lat="44.88851" lon="5.32223">
        <ele>1517.4</ele>
        <time>2021-10-08T09:20:59Z</time>
      </trkpt>
      <trkpt lat="44.8885" lon="5.32225">
        <ele>1517.4</ele>
        <time>2021-10-08T09:21:00Z</time>
      </trkpt>
      <trkpt lat="44.8885" lon="5.32227">
        <ele>1517.4</ele>
        <time>2021-10-08T09:21:01Z</time>
      </trkpt>
      <trkpt lat="44.8885" lon="5.32229">
        <ele>1517.6</ele>
        <time>2021-10-08T09:21:02Z</time>
      </trkpt>
      <trkpt lat="44.88849" lon="5.32231">
        <ele>1517.6</ele>
        <time>2021-10-08T09:21:03Z</time>
      </trkpt>
      <trkpt lat="44.88848" lon="5.32234">
        <ele>1517.6</ele>
        <time>2021-10-08T09:21:04Z</time>
      </trkpt>
      <trkpt lat="44.88848" lon="5.32235">
        <ele>1517.6</ele>
        <time>2021-10-08T09:21:05Z</time>
      </trkpt>
      <trkpt lat="44.88847" lon="5.32237">
        <ele>1517.8</ele>
        <time>2021-10-08T09:21:06Z</time>
      </trkpt>
      <trkpt lat="44.88845" lon="5.32239">
        <ele>1517.8</ele>
        <time>2021-10-08T09:21:07Z</time>
      </trkpt>
      <trkpt lat="44.88844" lon="5.32241">
        <ele>1517.8</ele>
        <time>2021-10-08T09:21:08Z</time>
      </trkpt>
      <trkpt lat="44.88843" lon="5.32243">
        <ele>1518</ele>
        <time>2021-10-08T09:21:09Z</time>
      </trkpt>
      <trkpt lat="44.88843" lon="5.32244">
        <ele>1518.4</ele>
        <time>2021-10-08T09:21:10Z</time>
      </trkpt>
      <trkpt lat="44.88842" lon="5.32246">
        <ele>1518.4</ele>
        <time>2021-10-08T09:21:11Z</time>
      </trkpt>
      <trkpt lat="44.88841" lon="5.32247">
        <ele>1518.4</ele>
        <time>2021-10-08T09:21:12Z</time>
      </trkpt>
      <trkpt lat="44.8884" lon="5.32249">
        <ele>1518</ele>
        <time>2021-10-08T09:21:13Z</time>
      </trkpt>
      <trkpt lat="44.8884" lon="5.32251">
        <ele>1518.2</ele>
        <time>2021-10-08T09:21:14Z</time>
      </trkpt>
      <trkpt lat="44.88839" lon="5.32252">
        <ele>1518.2</ele>
        <time>2021-10-08T09:21:15Z</time>
      </trkpt>
      <trkpt lat="44.88838" lon="5.32254">
        <ele>1518.2</ele>
        <time>2021-10-08T09:21:16Z</time>
      </trkpt>
      <trkpt lat="44.88837" lon="5.32255">
        <ele>1518.2</ele>
        <time>2021-10-08T09:21:17Z</time>
      </trkpt>
      <trkpt lat="44.88836" lon="5.32256">
        <ele>1518.4</ele>
        <time>2021-10-08T09:21:18Z</time>
      </trkpt>
      <trkpt lat="44.88835" lon="5.32258">
        <ele>1518.4</ele>
        <time>2021-10-08T09:21:19Z</time>
      </trkpt>
      <trkpt lat="44.88834" lon="5.32259">
        <ele>1518.4</ele>
        <time>2021-10-08T09:21:20Z</time>
      </trkpt>
      <trkpt lat="44.88833" lon="5.3226">
        <ele>1518.4</ele>
        <time>2021-10-08T09:21:21Z</time>
      </trkpt>
      <trkpt lat="44.88833" lon="5.3226">
        <ele>1518.4</ele>
        <time>2021-10-08T09:21:22Z</time>
      </trkpt>
      <trkpt lat="44.88829" lon="5.32265">
        <ele>1517.4</ele>
        <time>2021-10-08T09:22:01Z</time>
      </trkpt>
      <trkpt lat="44.88828" lon="5.32267">
        <ele>1516.4</ele>
        <time>2021-10-08T09:22:02Z</time>
      </trkpt>
      <trkpt lat="44.88826" lon="5.32268">
        <ele>1516.4</ele>
        <time>2021-10-08T09:22:03Z</time>
      </trkpt>
      <trkpt lat="44.88825" lon="5.32268">
        <ele>1516.4</ele>
        <time>2021-10-08T09:22:04Z</time>
      </trkpt>
      <trkpt lat="44.88823" lon="5.32268">
        <ele>1516.2</ele>
        <time>2021-10-08T09:22:05Z</time>
      </trkpt>
      <trkpt lat="44.88822" lon="5.32269">
        <ele>1515.6</ele>
        <time>2021-10-08T09:22:06Z</time>
      </trkpt>
      <trkpt lat="44.8882" lon="5.32271">
        <ele>1515.6</ele>
        <time>2021-10-08T09:22:07Z</time>
      </trkpt>
      <trkpt lat="44.88819" lon="5.32274">
        <ele>1515.6</ele>
        <time>2021-10-08T09:22:08Z</time>
      </trkpt>
      <trkpt lat="44.88818" lon="5.32276">
        <ele>1515.6</ele>
        <time>2021-10-08T09:22:09Z</time>
      </trkpt>
      <trkpt lat="44.88816" lon="5.32279">
        <ele>1515.6</ele>
        <time>2021-10-08T09:22:10Z</time>
      </trkpt>
      <trkpt lat="44.88814" lon="5.32281">
        <ele>1515.6</ele>
        <time>2021-10-08T09:22:11Z</time>
      </trkpt>
      <trkpt lat="44.88813" lon="5.32284">
        <ele>1515.6</ele>
        <time>2021-10-08T09:22:12Z</time>
      </trkpt>
      <trkpt lat="44.88811" lon="5.32287">
        <ele>1515.6</ele>
        <time>2021-10-08T09:22:13Z</time>
      </trkpt>
      <trkpt lat="44.88809" lon="5.3229">
        <ele>1516.4</ele>
        <time>2021-10-08T09:22:14Z</time>
      </trkpt>
      <trkpt lat="44.88807" lon="5.32293">
        <ele>1516.4</ele>
        <time>2021-10-08T09:22:15Z</time>
      </trkpt>
      <trkpt lat="44.88806" lon="5.32295">
        <ele>1516.4</ele>
        <time>2021-10-08T09:22:16Z</time>
      </trkpt>
      <trkpt lat="44.88804" lon="5.32296">
        <ele>1516.4</ele>
        <time>2021-10-08T09:22:17Z</time>
      </trkpt>
      <trkpt lat="44.88803" lon="5.32297">
        <ele>1516.6</ele>
        <time>2021-10-08T09:22:18Z</time>
      </trkpt>
      <trkpt lat="44.88802" lon="5.32299">
        <ele>1516.6</ele>
        <time>2021-10-08T09:22:19Z</time>
      </trkpt>
      <trkpt lat="44.88801" lon="5.323">
        <ele>1516.6</ele>
        <time>2021-10-08T09:22:20Z</time>
      </trkpt>
      <trkpt lat="44.888" lon="5.32301">
        <ele>1516.6</ele>
        <time>2021-10-08T09:22:21Z</time>
      </trkpt>
      <trkpt lat="44.88798" lon="5.32303">
        <ele>1516.2</ele>
        <time>2021-10-08T09:22:22Z</time>
      </trkpt>
      <trkpt lat="44.88797" lon="5.32305">
        <ele>1516.2</ele>
        <time>2021-10-08T09:22:23Z</time>
      </trkpt>
      <trkpt lat="44.88795" lon="5.32306">
        <ele>1516.2</ele>
        <time>2021-10-08T09:22:24Z</time>
      </trkpt>
      <trkpt lat="44.88794" lon="5.32306">
        <ele>1516.6</ele>
        <time>2021-10-08T09:22:25Z</time>
      </trkpt>
      <trkpt lat="44.88794" lon="5.32306">
        <ele>1516.6</ele>
        <time>2021-10-08T09:22:26Z</time>
      </trkpt>
      <trkpt lat="44.88794" lon="5.32306">
        <ele>1516.6</ele>
        <time>2021-10-08T09:22:27Z</time>
      </trkpt>
      <trkpt lat="44.88792" lon="5.32308">
        <ele>1516.6</ele>
        <time>2021-10-08T09:25:11Z</time>
      </trkpt>
      <trkpt lat="44.88791" lon="5.32311">
        <ele>1516.6</ele>
        <time>2021-10-08T09:25:12Z</time>
      </trkpt>
      <trkpt lat="44.8879" lon="5.32314">
        <ele>1516</ele>
        <time>2021-10-08T09:25:13Z</time>
      </trkpt>
      <trkpt lat="44.88788" lon="5.32316">
        <ele>1516.2</ele>
        <time>2021-10-08T09:25:14Z</time>
      </trkpt>
      <trkpt lat="44.88787" lon="5.32318">
        <ele>1516.2</ele>
        <time>2021-10-08T09:25:15Z</time>
      </trkpt>
      <trkpt lat="44.88786" lon="5.32321">
        <ele>1516.2</ele>
        <time>2021-10-08T09:25:16Z</time>
      </trkpt>
      <trkpt lat="44.88785" lon="5.32323">
        <ele>1515.2</ele>
        <time>2021-10-08T09:25:17Z</time>
      </trkpt>
      <trkpt lat="44.88784" lon="5.32326">
        <ele>1514.8</ele>
        <time>2021-10-08T09:25:18Z</time>
      </trkpt>
      <trkpt lat="44.88783" lon="5.32328">
        <ele>1514.8</ele>
        <time>2021-10-08T09:25:19Z</time>
      </trkpt>
      <trkpt lat="44.88783" lon="5.32331">
        <ele>1514.8</ele>
        <time>2021-10-08T09:25:20Z</time>
      </trkpt>
      <trkpt lat="44.88782" lon="5.32333">
        <ele>1514.8</ele>
        <time>2021-10-08T09:25:21Z</time>
      </trkpt>
      <trkpt lat="44.88781" lon="5.32336">
        <ele>1514.4</ele>
        <time>2021-10-08T09:25:22Z</time>
      </trkpt>
      <trkpt lat="44.88781" lon="5.32338">
        <ele>1514.4</ele>
        <time>2021-10-08T09:25:23Z</time>
      </trkpt>
      <trkpt lat="44.8878" lon="5.3234">
        <ele>1514.4</ele>
        <time>2021-10-08T09:25:24Z</time>
      </trkpt>
      <trkpt lat="44.88779" lon="5.32342">
        <ele>1514.4</ele>
        <time>2021-10-08T09:25:25Z</time>
      </trkpt>
      <trkpt lat="44.88779" lon="5.32344">
        <ele>1514.4</ele>
        <time>2021-10-08T09:25:26Z</time>
      </trkpt>
      <trkpt lat="44.88778" lon="5.32347">
        <ele>1514.4</ele>
        <time>2021-10-08T09:25:27Z</time>
      </trkpt>
      <trkpt lat="44.88778" lon="5.32349">
        <ele>1514.4</ele>
        <time>2021-10-08T09:25:28Z</time>
      </trkpt>
      <trkpt lat="44.88777" lon="5.32352">
        <ele>1514.4</ele>
        <time>2021-10-08T09:25:29Z</time>
      </trkpt>
      <trkpt lat="44.88776" lon="5.32354">
        <ele>1514</ele>
        <time>2021-10-08T09:25:30Z</time>
      </trkpt>
      <trkpt lat="44.88775" lon="5.32357">
        <ele>1514</ele>
        <time>2021-10-08T09:25:31Z</time>
      </trkpt>
      <trkpt lat="44.88774" lon="5.32359">
        <ele>1514</ele>
        <time>2021-10-08T09:25:32Z</time>
      </trkpt>
      <trkpt lat="44.88773" lon="5.32361">
        <ele>1513.8</ele>
        <time>2021-10-08T09:25:33Z</time>
      </trkpt>
      <trkpt lat="44.88773" lon="5.32363">
        <ele>1514</ele>
        <time>2021-10-08T09:25:34Z</time>
      </trkpt>
      <trkpt lat="44.88772" lon="5.32365">
        <ele>1514</ele>
        <time>2021-10-08T09:25:35Z</time>
      </trkpt>
      <trkpt lat="44.88771" lon="5.32367">
        <ele>1514</ele>
        <time>2021-10-08T09:25:36Z</time>
      </trkpt>
      <trkpt lat="44.88771" lon="5.32369">
        <ele>1513.4</ele>
        <time>2021-10-08T09:25:37Z</time>
      </trkpt>
      <trkpt lat="44.8877" lon="5.3237">
        <ele>1513.6</ele>
        <time>2021-10-08T09:25:38Z</time>
      </trkpt>
      <trkpt lat="44.88769" lon="5.32372">
        <ele>1513.6</ele>
        <time>2021-10-08T09:25:39Z</time>
      </trkpt>
      <trkpt lat="44.88768" lon="5.32374">
        <ele>1513.6</ele>
        <time>2021-10-08T09:25:40Z</time>
      </trkpt>
      <trkpt lat="44.88768" lon="5.32376">
        <ele>1513.6</ele>
        <time>2021-10-08T09:25:41Z</time>
      </trkpt>
      <trkpt lat="44.88767" lon="5.32378">
        <ele>1513.8</ele>
        <time>2021-10-08T09:25:42Z</time>
      </trkpt>
      <trkpt lat="44.88766" lon="5.32379">
        <ele>1513.8</ele>
        <time>2021-10-08T09:25:43Z</time>
      </trkpt>
      <trkpt lat="44.88765" lon="5.32381">
        <ele>1513.8</ele>
        <time>2021-10-08T09:25:44Z</time>
      </trkpt>
      <trkpt lat="44.88764" lon="5.32382">
        <ele>1513.8</ele>
        <time>2021-10-08T09:25:45Z</time>
      </trkpt>
      <trkpt lat="44.88764" lon="5.32384">
        <ele>1513.6</ele>
        <time>2021-10-08T09:25:46Z</time>
      </trkpt>
      <trkpt lat="44.88763" lon="5.32386">
        <ele>1513.6</ele>
        <time>2021-10-08T09:25:47Z</time>
      </trkpt>
      <trkpt lat="44.88762" lon="5.32388">
        <ele>1513.6</ele>
        <time>2021-10-08T09:25:48Z</time>
      </trkpt>
      <trkpt lat="44.88761" lon="5.3239">
        <ele>1513.6</ele>
        <time>2021-10-08T09:25:49Z</time>
      </trkpt>
      <trkpt lat="44.88761" lon="5.32392">
        <ele>1514.2</ele>
        <time>2021-10-08T09:25:50Z</time>
      </trkpt>
      <trkpt lat="44.8876" lon="5.32393">
        <ele>1514.2</ele>
        <time>2021-10-08T09:25:51Z</time>
      </trkpt>
      <trkpt lat="44.88759" lon="5.32395">
        <ele>1514.2</ele>
        <time>2021-10-08T09:25:52Z</time>
      </trkpt>
      <trkpt lat="44.88758" lon="5.32396">
        <ele>1514.4</ele>
        <time>2021-10-08T09:25:53Z</time>
      </trkpt>
      <trkpt lat="44.88758" lon="5.32398">
        <ele>1513.8</ele>
        <time>2021-10-08T09:25:54Z</time>
      </trkpt>
      <trkpt lat="44.88758" lon="5.324">
        <ele>1513.8</ele>
        <time>2021-10-08T09:25:55Z</time>
      </trkpt>
      <trkpt lat="44.88758" lon="5.32402">
        <ele>1513.8</ele>
        <time>2021-10-08T09:25:56Z</time>
      </trkpt>
      <trkpt lat="44.88757" lon="5.32404">
        <ele>1513.8</ele>
        <time>2021-10-08T09:25:57Z</time>
      </trkpt>
      <trkpt lat="44.88757" lon="5.32407">
        <ele>1514.6</ele>
        <time>2021-10-08T09:25:58Z</time>
      </trkpt>
      <trkpt lat="44.88757" lon="5.32409">
        <ele>1514.6</ele>
        <time>2021-10-08T09:25:59Z</time>
      </trkpt>
      <trkpt lat="44.88757" lon="5.32412">
        <ele>1514.6</ele>
        <time>2021-10-08T09:26:00Z</time>
      </trkpt>
      <trkpt lat="44.88756" lon="5.32415">
        <ele>1513.8</ele>
        <time>2021-10-08T09:26:01Z</time>
      </trkpt>
      <trkpt lat="44.88756" lon="5.32417">
        <ele>1514</ele>
        <time>2021-10-08T09:26:02Z</time>
      </trkpt>
      <trkpt lat="44.88756" lon="5.32419">
        <ele>1514</ele>
        <time>2021-10-08T09:26:03Z</time>
      </trkpt>
      <trkpt lat="44.88755" lon="5.32421">
        <ele>1514</ele>
        <time>2021-10-08T09:26:04Z</time>
      </trkpt>
      <trkpt lat="44.88755" lon="5.32424">
        <ele>1514</ele>
        <time>2021-10-08T09:26:05Z</time>
      </trkpt>
      <trkpt lat="44.88756" lon="5.32426">
        <ele>1514</ele>
        <time>2021-10-08T09:26:06Z</time>
      </trkpt>
      <trkpt lat="44.88756" lon="5.32428">
        <ele>1514</ele>
        <time>2021-10-08T09:26:07Z</time>
      </trkpt>
      <trkpt lat="44.88757" lon="5.32431">
        <ele>1514</ele>
        <time>2021-10-08T09:26:08Z</time>
      </trkpt>
      <trkpt lat="44.88757" lon="5.32433">
        <ele>1514</ele>
        <time>2021-10-08T09:26:09Z</time>
      </trkpt>
      <trkpt lat="44.88757" lon="5.32435">
        <ele>1514.2</ele>
        <time>2021-10-08T09:26:10Z</time>
      </trkpt>
      <trkpt lat="44.88757" lon="5.32438">
        <ele>1514.2</ele>
        <time>2021-10-08T09:26:11Z</time>
      </trkpt>
      <trkpt lat="44.88757" lon="5.3244">
        <ele>1514.2</ele>
        <time>2021-10-08T09:26:12Z</time>
      </trkpt>
      <trkpt lat="44.88757" lon="5.32442">
        <ele>1514.8</ele>
        <time>2021-10-08T09:26:13Z</time>
      </trkpt>
      <trkpt lat="44.88757" lon="5.32444">
        <ele>1515.2</ele>
        <time>2021-10-08T09:26:14Z</time>
      </trkpt>
      <trkpt lat="44.88757" lon="5.32445">
        <ele>1515.2</ele>
        <time>2021-10-08T09:26:15Z</time>
      </trkpt>
      <trkpt lat="44.88757" lon="5.32447">
        <ele>1515.2</ele>
        <time>2021-10-08T09:26:16Z</time>
      </trkpt>
      <trkpt lat="44.88758" lon="5.32449">
        <ele>1515.2</ele>
        <time>2021-10-08T09:26:17Z</time>
      </trkpt>
      <trkpt lat="44.88758" lon="5.32451">
        <ele>1515.4</ele>
        <time>2021-10-08T09:26:18Z</time>
      </trkpt>
      <trkpt lat="44.88759" lon="5.32454">
        <ele>1515.4</ele>
        <time>2021-10-08T09:26:19Z</time>
      </trkpt>
      <trkpt lat="44.88758" lon="5.32455">
        <ele>1515.4</ele>
        <time>2021-10-08T09:26:20Z</time>
      </trkpt>
      <trkpt lat="44.88758" lon="5.32457">
        <ele>1515.4</ele>
        <time>2021-10-08T09:26:21Z</time>
      </trkpt>
      <trkpt lat="44.88758" lon="5.32458">
        <ele>1515.6</ele>
        <time>2021-10-08T09:26:22Z</time>
      </trkpt>
      <trkpt lat="44.88758" lon="5.32459">
        <ele>1515.6</ele>
        <time>2021-10-08T09:26:23Z</time>
      </trkpt>
      <trkpt lat="44.88758" lon="5.3246">
        <ele>1515.6</ele>
        <time>2021-10-08T09:26:24Z</time>
      </trkpt>
      <trkpt lat="44.88758" lon="5.32461">
        <ele>1515.6</ele>
        <time>2021-10-08T09:26:25Z</time>
      </trkpt>
      <trkpt lat="44.88758" lon="5.32461">
        <ele>1515.8</ele>
        <time>2021-10-08T09:26:26Z</time>
      </trkpt>
      <trkpt lat="44.88758" lon="5.32461">
        <ele>1515.8</ele>
        <time>2021-10-08T09:26:27Z</time>
      </trkpt>
      <trkpt lat="44.88757" lon="5.32462">
        <ele>1515.8</ele>
        <time>2021-10-08T09:26:28Z</time>
      </trkpt>
      <trkpt lat="44.88756" lon="5.32462">
        <ele>1515.8</ele>
        <time>2021-10-08T09:26:29Z</time>
      </trkpt>
      <trkpt lat="44.88755" lon="5.32463">
        <ele>1516.2</ele>
        <time>2021-10-08T09:26:30Z</time>
      </trkpt>
      <trkpt lat="44.88754" lon="5.32463">
        <ele>1516.2</ele>
        <time>2021-10-08T09:26:31Z</time>
      </trkpt>
      <trkpt lat="44.88753" lon="5.32464">
        <ele>1516.2</ele>
        <time>2021-10-08T09:26:32Z</time>
      </trkpt>
      <trkpt lat="44.88752" lon="5.32464">
        <ele>1516.2</ele>
        <time>2021-10-08T09:26:33Z</time>
      </trkpt>
      <trkpt lat="44.88751" lon="5.32464">
        <ele>1516.4</ele>
        <time>2021-10-08T09:26:34Z</time>
      </trkpt>
      <trkpt lat="44.8875" lon="5.32465">
        <ele>1516.4</ele>
        <time>2021-10-08T09:26:35Z</time>
      </trkpt>
      <trkpt lat="44.88748" lon="5.32466">
        <ele>1516.4</ele>
        <time>2021-10-08T09:26:36Z</time>
      </trkpt>
      <trkpt lat="44.88747" lon="5.32466">
        <ele>1516.4</ele>
        <time>2021-10-08T09:26:37Z</time>
      </trkpt>
      <trkpt lat="44.88746" lon="5.32467">
        <ele>1516.6</ele>
        <time>2021-10-08T09:26:38Z</time>
      </trkpt>
      <trkpt lat="44.88745" lon="5.32468">
        <ele>1516.6</ele>
        <time>2021-10-08T09:26:39Z</time>
      </trkpt>
      <trkpt lat="44.88744" lon="5.32469">
        <ele>1516.6</ele>
        <time>2021-10-08T09:26:40Z</time>
      </trkpt>
      <trkpt lat="44.88743" lon="5.3247">
        <ele>1516.6</ele>
        <time>2021-10-08T09:26:41Z</time>
      </trkpt>
      <trkpt lat="44.88742" lon="5.32471">
        <ele>1516.6</ele>
        <time>2021-10-08T09:26:42Z</time>
      </trkpt>
      <trkpt lat="44.88741" lon="5.32473">
        <ele>1516.6</ele>
        <time>2021-10-08T09:26:43Z</time>
      </trkpt>
      <trkpt lat="44.8874" lon="5.32474">
        <ele>1516.6</ele>
        <time>2021-10-08T09:26:44Z</time>
      </trkpt>
      <trkpt lat="44.88739" lon="5.32475">
        <ele>1516.6</ele>
        <time>2021-10-08T09:26:45Z</time>
      </trkpt>
      <trkpt lat="44.88738" lon="5.32476">
        <ele>1517.2</ele>
        <time>2021-10-08T09:26:46Z</time>
      </trkpt>
      <trkpt lat="44.88738" lon="5.32478">
        <ele>1517.2</ele>
        <time>2021-10-08T09:26:47Z</time>
      </trkpt>
      <trkpt lat="44.88737" lon="5.3248">
        <ele>1517.2</ele>
        <time>2021-10-08T09:26:48Z</time>
      </trkpt>
      <trkpt lat="44.88737" lon="5.32481">
        <ele>1517.2</ele>
        <time>2021-10-08T09:26:49Z</time>
      </trkpt>
      <trkpt lat="44.88737" lon="5.32483">
        <ele>1517.6</ele>
        <time>2021-10-08T09:26:50Z</time>
      </trkpt>
      <trkpt lat="44.88737" lon="5.32484">
        <ele>1517.6</ele>
        <time>2021-10-08T09:26:51Z</time>
      </trkpt>
      <trkpt lat="44.88736" lon="5.32485">
        <ele>1517.6</ele>
        <time>2021-10-08T09:26:52Z</time>
      </trkpt>
      <trkpt lat="44.88736" lon="5.32487">
        <ele>1517.6</ele>
        <time>2021-10-08T09:26:53Z</time>
      </trkpt>
      <trkpt lat="44.88736" lon="5.32488">
        <ele>1518.4</ele>
        <time>2021-10-08T09:26:54Z</time>
      </trkpt>
      <trkpt lat="44.88736" lon="5.32489">
        <ele>1518.4</ele>
        <time>2021-10-08T09:26:55Z</time>
      </trkpt>
      <trkpt lat="44.88735" lon="5.3249">
        <ele>1518.4</ele>
        <time>2021-10-08T09:26:56Z</time>
      </trkpt>
      <trkpt lat="44.88735" lon="5.32491">
        <ele>1519</ele>
        <time>2021-10-08T09:26:57Z</time>
      </trkpt>
      <trkpt lat="44.88735" lon="5.32492">
        <ele>1519.4</ele>
        <time>2021-10-08T09:26:58Z</time>
      </trkpt>
      <trkpt lat="44.88734" lon="5.32493">
        <ele>1519.4</ele>
        <time>2021-10-08T09:26:59Z</time>
      </trkpt>
      <trkpt lat="44.88734" lon="5.32494">
        <ele>1519.4</ele>
        <time>2021-10-08T09:27:00Z</time>
      </trkpt>
      <trkpt lat="44.88734" lon="5.32495">
        <ele>1520.4</ele>
        <time>2021-10-08T09:27:01Z</time>
      </trkpt>
      <trkpt lat="44.88733" lon="5.32497">
        <ele>1520.4</ele>
        <time>2021-10-08T09:27:02Z</time>
      </trkpt>
      <trkpt lat="44.88733" lon="5.32497">
        <ele>1520.4</ele>
        <time>2021-10-08T09:27:03Z</time>
      </trkpt>
      <trkpt lat="44.88732" lon="5.32498">
        <ele>1520.4</ele>
        <time>2021-10-08T09:27:04Z</time>
      </trkpt>
      <trkpt lat="44.88732" lon="5.32498">
        <ele>1521.4</ele>
        <time>2021-10-08T09:27:05Z</time>
      </trkpt>
      <trkpt lat="44.88731" lon="5.32499">
        <ele>1521.6</ele>
        <time>2021-10-08T09:27:06Z</time>
      </trkpt>
      <trkpt lat="44.88731" lon="5.325">
        <ele>1521.6</ele>
        <time>2021-10-08T09:27:07Z</time>
      </trkpt>
      <trkpt lat="44.8873" lon="5.32501">
        <ele>1521.6</ele>
        <time>2021-10-08T09:27:08Z</time>
      </trkpt>
      <trkpt lat="44.8873" lon="5.32502">
        <ele>1521.6</ele>
        <time>2021-10-08T09:27:09Z</time>
      </trkpt>
      <trkpt lat="44.8873" lon="5.32504">
        <ele>1521</ele>
        <time>2021-10-08T09:27:10Z</time>
      </trkpt>
      <trkpt lat="44.8873" lon="5.32505">
        <ele>1521</ele>
        <time>2021-10-08T09:27:11Z</time>
      </trkpt>
      <trkpt lat="44.8873" lon="5.32507">
        <ele>1521</ele>
        <time>2021-10-08T09:27:12Z</time>
      </trkpt>
      <trkpt lat="44.88729" lon="5.32508">
        <ele>1521.8</ele>
        <time>2021-10-08T09:27:13Z</time>
      </trkpt>
      <trkpt lat="44.88729" lon="5.32509">
        <ele>1521.4</ele>
        <time>2021-10-08T09:27:14Z</time>
      </trkpt>
      <trkpt lat="44.88728" lon="5.32509">
        <ele>1521.4</ele>
        <time>2021-10-08T09:27:15Z</time>
      </trkpt>
      <trkpt lat="44.88727" lon="5.32509">
        <ele>1521.4</ele>
        <time>2021-10-08T09:27:16Z</time>
      </trkpt>
      <trkpt lat="44.88726" lon="5.32509">
        <ele>1521.8</ele>
        <time>2021-10-08T09:27:17Z</time>
      </trkpt>
      <trkpt lat="44.88725" lon="5.32509">
        <ele>1521.2</ele>
        <time>2021-10-08T09:27:18Z</time>
      </trkpt>
      <trkpt lat="44.88724" lon="5.32509">
        <ele>1521.2</ele>
        <time>2021-10-08T09:27:19Z</time>
      </trkpt>
      <trkpt lat="44.88723" lon="5.32509">
        <ele>1521.2</ele>
        <time>2021-10-08T09:27:20Z</time>
      </trkpt>
      <trkpt lat="44.88722" lon="5.32509">
        <ele>1522</ele>
        <time>2021-10-08T09:27:21Z</time>
      </trkpt>
      <trkpt lat="44.88721" lon="5.32509">
        <ele>1522.2</ele>
        <time>2021-10-08T09:27:22Z</time>
      </trkpt>
      <trkpt lat="44.8872" lon="5.32509">
        <ele>1522.2</ele>
        <time>2021-10-08T09:27:23Z</time>
      </trkpt>
      <trkpt lat="44.88719" lon="5.32509">
        <ele>1522.2</ele>
        <time>2021-10-08T09:27:24Z</time>
      </trkpt>
      <trkpt lat="44.88718" lon="5.32509">
        <ele>1522.2</ele>
        <time>2021-10-08T09:27:25Z</time>
      </trkpt>
      <trkpt lat="44.88717" lon="5.32509">
        <ele>1523.2</ele>
        <time>2021-10-08T09:27:26Z</time>
      </trkpt>
      <trkpt lat="44.88716" lon="5.32509">
        <ele>1523.2</ele>
        <time>2021-10-08T09:27:27Z</time>
      </trkpt>
      <trkpt lat="44.88715" lon="5.32509">
        <ele>1523.2</ele>
        <time>2021-10-08T09:27:28Z</time>
      </trkpt>
      <trkpt lat="44.88713" lon="5.32509">
        <ele>1523.2</ele>
        <time>2021-10-08T09:27:29Z</time>
      </trkpt>
      <trkpt lat="44.88712" lon="5.3251">
        <ele>1523.8</ele>
        <time>2021-10-08T09:27:30Z</time>
      </trkpt>
      <trkpt lat="44.88711" lon="5.3251">
        <ele>1523.8</ele>
        <time>2021-10-08T09:27:31Z</time>
      </trkpt>
      <trkpt lat="44.88711" lon="5.32511">
        <ele>1523.8</ele>
        <time>2021-10-08T09:27:32Z</time>
      </trkpt>
      <trkpt lat="44.8871" lon="5.32512">
        <ele>1524.4</ele>
        <time>2021-10-08T09:27:33Z</time>
      </trkpt>
      <trkpt lat="44.88709" lon="5.32512">
        <ele>1524.6</ele>
        <time>2021-10-08T09:27:34Z</time>
      </trkpt>
      <trkpt lat="44.88709" lon="5.32512">
        <ele>1524.6</ele>
        <time>2021-10-08T09:27:35Z</time>
      </trkpt>
      <trkpt lat="44.88708" lon="5.32512">
        <ele>1524.6</ele>
        <time>2021-10-08T09:27:36Z</time>
      </trkpt>
      <trkpt lat="44.88707" lon="5.32513">
        <ele>1524.6</ele>
        <time>2021-10-08T09:27:37Z</time>
      </trkpt>
      <trkpt lat="44.88706" lon="5.32513">
        <ele>1524.6</ele>
        <time>2021-10-08T09:27:38Z</time>
      </trkpt>
      <trkpt lat="44.88705" lon="5.32514">
        <ele>1524.6</ele>
        <time>2021-10-08T09:27:39Z</time>
      </trkpt>
      <trkpt lat="44.88704" lon="5.32514">
        <ele>1524.6</ele>
        <time>2021-10-08T09:27:40Z</time>
      </trkpt>
      <trkpt lat="44.88704" lon="5.32513">
        <ele>1524.8</ele>
        <time>2021-10-08T09:27:41Z</time>
      </trkpt>
      <trkpt lat="44.88703" lon="5.32513">
        <ele>1525.2</ele>
        <time>2021-10-08T09:27:42Z</time>
      </trkpt>
      <trkpt lat="44.88702" lon="5.32512">
        <ele>1525.2</ele>
        <time>2021-10-08T09:27:43Z</time>
      </trkpt>
      <trkpt lat="44.88701" lon="5.32511">
        <ele>1525.2</ele>
        <time>2021-10-08T09:27:44Z</time>
      </trkpt>
      <trkpt lat="44.887" lon="5.3251">
        <ele>1525.2</ele>
        <time>2021-10-08T09:27:45Z</time>
      </trkpt>
      <trkpt lat="44.88699" lon="5.3251">
        <ele>1525.2</ele>
        <time>2021-10-08T09:27:46Z</time>
      </trkpt>
      <trkpt lat="44.88698" lon="5.32509">
        <ele>1525.2</ele>
        <time>2021-10-08T09:27:47Z</time>
      </trkpt>
      <trkpt lat="44.88697" lon="5.32509">
        <ele>1525.2</ele>
        <time>2021-10-08T09:27:48Z</time>
      </trkpt>
      <trkpt lat="44.88696" lon="5.32508">
        <ele>1526</ele>
        <time>2021-10-08T09:27:49Z</time>
      </trkpt>
      <trkpt lat="44.88695" lon="5.32508">
        <ele>1526</ele>
        <time>2021-10-08T09:27:50Z</time>
      </trkpt>
      <trkpt lat="44.88694" lon="5.32508">
        <ele>1526</ele>
        <time>2021-10-08T09:27:51Z</time>
      </trkpt>
      <trkpt lat="44.88693" lon="5.32508">
        <ele>1526</ele>
        <time>2021-10-08T09:27:52Z</time>
      </trkpt>
      <trkpt lat="44.88692" lon="5.32507">
        <ele>1526</ele>
        <time>2021-10-08T09:27:53Z</time>
      </trkpt>
      <trkpt lat="44.88691" lon="5.32507">
        <ele>1526.4</ele>
        <time>2021-10-08T09:27:54Z</time>
      </trkpt>
      <trkpt lat="44.8869" lon="5.32507">
        <ele>1526.4</ele>
        <time>2021-10-08T09:27:55Z</time>
      </trkpt>
      <trkpt lat="44.88689" lon="5.32507">
        <ele>1526.4</ele>
        <time>2021-10-08T09:27:56Z</time>
      </trkpt>
      <trkpt lat="44.88688" lon="5.32507">
        <ele>1526.4</ele>
        <time>2021-10-08T09:27:57Z</time>
      </trkpt>
      <trkpt lat="44.88687" lon="5.32506">
        <ele>1526.8</ele>
        <time>2021-10-08T09:27:58Z</time>
      </trkpt>
      <trkpt lat="44.88686" lon="5.32506">
        <ele>1526.8</ele>
        <time>2021-10-08T09:27:59Z</time>
      </trkpt>
      <trkpt lat="44.88685" lon="5.32506">
        <ele>1526.8</ele>
        <time>2021-10-08T09:28:00Z</time>
      </trkpt>
      <trkpt lat="44.88684" lon="5.32506">
        <ele>1526.8</ele>
        <time>2021-10-08T09:28:01Z</time>
      </trkpt>
      <trkpt lat="44.88682" lon="5.32506">
        <ele>1526.8</ele>
        <time>2021-10-08T09:28:02Z</time>
      </trkpt>
      <trkpt lat="44.88681" lon="5.32506">
        <ele>1526.8</ele>
        <time>2021-10-08T09:28:03Z</time>
      </trkpt>
      <trkpt lat="44.8868" lon="5.32506">
        <ele>1526.8</ele>
        <time>2021-10-08T09:28:04Z</time>
      </trkpt>
      <trkpt lat="44.88679" lon="5.32506">
        <ele>1527.2</ele>
        <time>2021-10-08T09:28:05Z</time>
      </trkpt>
      <trkpt lat="44.88678" lon="5.32506">
        <ele>1528</ele>
        <time>2021-10-08T09:28:06Z</time>
      </trkpt>
      <trkpt lat="44.88677" lon="5.32506">
        <ele>1528</ele>
        <time>2021-10-08T09:28:07Z</time>
      </trkpt>
      <trkpt lat="44.88675" lon="5.32506">
        <ele>1528</ele>
        <time>2021-10-08T09:28:08Z</time>
      </trkpt>
      <trkpt lat="44.88674" lon="5.32506">
        <ele>1528</ele>
        <time>2021-10-08T09:28:09Z</time>
      </trkpt>
      <trkpt lat="44.88673" lon="5.32506">
        <ele>1528.4</ele>
        <time>2021-10-08T09:28:10Z</time>
      </trkpt>
      <trkpt lat="44.88672" lon="5.32506">
        <ele>1528.4</ele>
        <time>2021-10-08T09:28:11Z</time>
      </trkpt>
      <trkpt lat="44.88671" lon="5.32506">
        <ele>1528.4</ele>
        <time>2021-10-08T09:28:12Z</time>
      </trkpt>
      <trkpt lat="44.8867" lon="5.32505">
        <ele>1528.4</ele>
        <time>2021-10-08T09:28:13Z</time>
      </trkpt>
      <trkpt lat="44.88669" lon="5.32505">
        <ele>1529.2</ele>
        <time>2021-10-08T09:28:14Z</time>
      </trkpt>
      <trkpt lat="44.88668" lon="5.32505">
        <ele>1529.2</ele>
        <time>2021-10-08T09:28:15Z</time>
      </trkpt>
      <trkpt lat="44.88667" lon="5.32506">
        <ele>1529.2</ele>
        <time>2021-10-08T09:28:16Z</time>
      </trkpt>
      <trkpt lat="44.88665" lon="5.32506">
        <ele>1529.2</ele>
        <time>2021-10-08T09:28:17Z</time>
      </trkpt>
      <trkpt lat="44.88664" lon="5.32506">
        <ele>1529</ele>
        <time>2021-10-08T09:28:18Z</time>
      </trkpt>
      <trkpt lat="44.88663" lon="5.32505">
        <ele>1529</ele>
        <time>2021-10-08T09:28:19Z</time>
      </trkpt>
      <trkpt lat="44.88662" lon="5.32506">
        <ele>1529</ele>
        <time>2021-10-08T09:28:20Z</time>
      </trkpt>
      <trkpt lat="44.88661" lon="5.32506">
        <ele>1530</ele>
        <time>2021-10-08T09:28:21Z</time>
      </trkpt>
      <trkpt lat="44.8866" lon="5.32506">
        <ele>1530</ele>
        <time>2021-10-08T09:28:22Z</time>
      </trkpt>
      <trkpt lat="44.88659" lon="5.32506">
        <ele>1530.2</ele>
        <time>2021-10-08T09:28:23Z</time>
      </trkpt>
      <trkpt lat="44.88658" lon="5.32506">
        <ele>1530.2</ele>
        <time>2021-10-08T09:28:24Z</time>
      </trkpt>
      <trkpt lat="44.88658" lon="5.32506">
        <ele>1530.2</ele>
        <time>2021-10-08T09:28:25Z</time>
      </trkpt>
      <trkpt lat="44.88658" lon="5.32507">
        <ele>1530.6</ele>
        <time>2021-10-08T09:28:26Z</time>
      </trkpt>
      <trkpt lat="44.88657" lon="5.32508">
        <ele>1530.6</ele>
        <time>2021-10-08T09:28:27Z</time>
      </trkpt>
      <trkpt lat="44.88656" lon="5.32508">
        <ele>1530.6</ele>
        <time>2021-10-08T09:28:28Z</time>
      </trkpt>
      <trkpt lat="44.88655" lon="5.32508">
        <ele>1530.6</ele>
        <time>2021-10-08T09:28:29Z</time>
      </trkpt>
      <trkpt lat="44.88654" lon="5.32508">
        <ele>1531.2</ele>
        <time>2021-10-08T09:28:30Z</time>
      </trkpt>
      <trkpt lat="44.88653" lon="5.32507">
        <ele>1531.2</ele>
        <time>2021-10-08T09:28:31Z</time>
      </trkpt>
      <trkpt lat="44.88652" lon="5.32507">
        <ele>1531.2</ele>
        <time>2021-10-08T09:28:32Z</time>
      </trkpt>
      <trkpt lat="44.88651" lon="5.32507">
        <ele>1532</ele>
        <time>2021-10-08T09:28:33Z</time>
      </trkpt>
      <trkpt lat="44.8865" lon="5.32506">
        <ele>1531.8</ele>
        <time>2021-10-08T09:28:34Z</time>
      </trkpt>
      <trkpt lat="44.88649" lon="5.32506">
        <ele>1531.8</ele>
        <time>2021-10-08T09:28:35Z</time>
      </trkpt>
      <trkpt lat="44.88648" lon="5.32506">
        <ele>1531.8</ele>
        <time>2021-10-08T09:28:36Z</time>
      </trkpt>
      <trkpt lat="44.88647" lon="5.32506">
        <ele>1531.8</ele>
        <time>2021-10-08T09:28:37Z</time>
      </trkpt>
      <trkpt lat="44.88646" lon="5.32506">
        <ele>1532.6</ele>
        <time>2021-10-08T09:28:38Z</time>
      </trkpt>
      <trkpt lat="44.88645" lon="5.32506">
        <ele>1532.6</ele>
        <time>2021-10-08T09:28:39Z</time>
      </trkpt>
      <trkpt lat="44.88644" lon="5.32506">
        <ele>1532.6</ele>
        <time>2021-10-08T09:28:40Z</time>
      </trkpt>
      <trkpt lat="44.88643" lon="5.32506">
        <ele>1532.6</ele>
        <time>2021-10-08T09:28:41Z</time>
      </trkpt>
      <trkpt lat="44.88642" lon="5.32506">
        <ele>1533.6</ele>
        <time>2021-10-08T09:28:42Z</time>
      </trkpt>
      <trkpt lat="44.88641" lon="5.32507">
        <ele>1533.6</ele>
        <time>2021-10-08T09:28:43Z</time>
      </trkpt>
      <trkpt lat="44.8864" lon="5.32507">
        <ele>1533.6</ele>
        <time>2021-10-08T09:28:44Z</time>
      </trkpt>
      <trkpt lat="44.88639" lon="5.32508">
        <ele>1534.6</ele>
        <time>2021-10-08T09:28:45Z</time>
      </trkpt>
      <trkpt lat="44.88638" lon="5.32508">
        <ele>1534.8</ele>
        <time>2021-10-08T09:28:46Z</time>
      </trkpt>
      <trkpt lat="44.88638" lon="5.32508">
        <ele>1534.8</ele>
        <time>2021-10-08T09:28:47Z</time>
      </trkpt>
      <trkpt lat="44.88637" lon="5.32508">
        <ele>1534.8</ele>
        <time>2021-10-08T09:28:48Z</time>
      </trkpt>
      <trkpt lat="44.88636" lon="5.32508">
        <ele>1535.6</ele>
        <time>2021-10-08T09:28:49Z</time>
      </trkpt>
      <trkpt lat="44.88635" lon="5.32508">
        <ele>1536</ele>
        <time>2021-10-08T09:28:50Z</time>
      </trkpt>
      <trkpt lat="44.88554" lon="5.32509">
        <ele>1546.4</ele>
        <time>2021-10-08T09:30:17Z</time>
      </trkpt>
      <trkpt lat="44.88552" lon="5.32509">
        <ele>1547.4</ele>
        <time>2021-10-08T09:30:18Z</time>
      </trkpt>
      <trkpt lat="44.88551" lon="5.32509">
        <ele>1547.4</ele>
        <time>2021-10-08T09:30:19Z</time>
      </trkpt>
      <trkpt lat="44.8855" lon="5.32509">
        <ele>1547.4</ele>
        <time>2021-10-08T09:30:20Z</time>
      </trkpt>
      <trkpt lat="44.88549" lon="5.32509">
        <ele>1547.2</ele>
        <time>2021-10-08T09:30:21Z</time>
      </trkpt>
      <trkpt lat="44.88548" lon="5.32509">
        <ele>1547.2</ele>
        <time>2021-10-08T09:30:22Z</time>
      </trkpt>
      <trkpt lat="44.88546" lon="5.3251">
        <ele>1547.2</ele>
        <time>2021-10-08T09:30:23Z</time>
      </trkpt>
      <trkpt lat="44.88546" lon="5.3251">
        <ele>1547.2</ele>
        <time>2021-10-08T09:30:24Z</time>
      </trkpt>
      <trkpt lat="44.88545" lon="5.3251">
        <ele>1547.4</ele>
        <time>2021-10-08T09:30:25Z</time>
      </trkpt>
      <trkpt lat="44.88543" lon="5.32509">
        <ele>1547.8</ele>
        <time>2021-10-08T09:30:26Z</time>
      </trkpt>
      <trkpt lat="44.88542" lon="5.32509">
        <ele>1547.8</ele>
        <time>2021-10-08T09:30:27Z</time>
      </trkpt>
      <trkpt lat="44.88541" lon="5.32509">
        <ele>1547.8</ele>
        <time>2021-10-08T09:30:28Z</time>
      </trkpt>
      <trkpt lat="44.88539" lon="5.3251">
        <ele>1547.6</ele>
        <time>2021-10-08T09:30:29Z</time>
      </trkpt>
      <trkpt lat="44.88538" lon="5.3251">
        <ele>1548</ele>
        <time>2021-10-08T09:30:30Z</time>
      </trkpt>
      <trkpt lat="44.88536" lon="5.3251">
        <ele>1548</ele>
        <time>2021-10-08T09:30:31Z</time>
      </trkpt>
      <trkpt lat="44.88535" lon="5.3251">
        <ele>1548</ele>
        <time>2021-10-08T09:30:32Z</time>
      </trkpt>
      <trkpt lat="44.88534" lon="5.32511">
        <ele>1547.6</ele>
        <time>2021-10-08T09:30:33Z</time>
      </trkpt>
      <trkpt lat="44.88534" lon="5.32512">
        <ele>1547.4</ele>
        <time>2021-10-08T09:30:34Z</time>
      </trkpt>
      <trkpt lat="44.88532" lon="5.32512">
        <ele>1547.4</ele>
        <time>2021-10-08T09:30:35Z</time>
      </trkpt>
      <trkpt lat="44.88531" lon="5.32512">
        <ele>1547.4</ele>
        <time>2021-10-08T09:30:36Z</time>
      </trkpt>
      <trkpt lat="44.8853" lon="5.32512">
        <ele>1547.4</ele>
        <time>2021-10-08T09:30:37Z</time>
      </trkpt>
      <trkpt lat="44.88528" lon="5.32512">
        <ele>1547.2</ele>
        <time>2021-10-08T09:30:38Z</time>
      </trkpt>
      <trkpt lat="44.88526" lon="5.32511">
        <ele>1547.2</ele>
        <time>2021-10-08T09:30:39Z</time>
      </trkpt>
      <trkpt lat="44.88525" lon="5.3251">
        <ele>1547.2</ele>
        <time>2021-10-08T09:30:40Z</time>
      </trkpt>
      <trkpt lat="44.88523" lon="5.3251">
        <ele>1547.2</ele>
        <time>2021-10-08T09:30:41Z</time>
      </trkpt>
      <trkpt lat="44.88521" lon="5.32509">
        <ele>1547.2</ele>
        <time>2021-10-08T09:30:42Z</time>
      </trkpt>
      <trkpt lat="44.8852" lon="5.32508">
        <ele>1547.2</ele>
        <time>2021-10-08T09:30:43Z</time>
      </trkpt>
      <trkpt lat="44.88518" lon="5.32507">
        <ele>1547.2</ele>
        <time>2021-10-08T09:30:44Z</time>
      </trkpt>
      <trkpt lat="44.88516" lon="5.32507">
        <ele>1547.8</ele>
        <time>2021-10-08T09:30:45Z</time>
      </trkpt>
      <trkpt lat="44.88514" lon="5.32507">
        <ele>1547.6</ele>
        <time>2021-10-08T09:30:46Z</time>
      </trkpt>
      <trkpt lat="44.88512" lon="5.32507">
        <ele>1547.6</ele>
        <time>2021-10-08T09:30:47Z</time>
      </trkpt>
      <trkpt lat="44.88511" lon="5.32506">
        <ele>1547.6</ele>
        <time>2021-10-08T09:30:48Z</time>
      </trkpt>
      <trkpt lat="44.88509" lon="5.32506">
        <ele>1547.6</ele>
        <time>2021-10-08T09:30:49Z</time>
      </trkpt>
      <trkpt lat="44.88507" lon="5.32505">
        <ele>1547.8</ele>
        <time>2021-10-08T09:30:50Z</time>
      </trkpt>
      <trkpt lat="44.88505" lon="5.32505">
        <ele>1547.8</ele>
        <time>2021-10-08T09:30:51Z</time>
      </trkpt>
      <trkpt lat="44.88503" lon="5.32504">
        <ele>1547.8</ele>
        <time>2021-10-08T09:30:52Z</time>
      </trkpt>
      <trkpt lat="44.88501" lon="5.32505">
        <ele>1548.8</ele>
        <time>2021-10-08T09:30:53Z</time>
      </trkpt>
      <trkpt lat="44.88499" lon="5.32505">
        <ele>1548.8</ele>
        <time>2021-10-08T09:30:54Z</time>
      </trkpt>
      <trkpt lat="44.88497" lon="5.32505">
        <ele>1548.8</ele>
        <time>2021-10-08T09:30:55Z</time>
      </trkpt>
      <trkpt lat="44.88495" lon="5.32505">
        <ele>1548.8</ele>
        <time>2021-10-08T09:30:56Z</time>
      </trkpt>
      <trkpt lat="44.88493" lon="5.32505">
        <ele>1548.6</ele>
        <time>2021-10-08T09:30:57Z</time>
      </trkpt>
      <trkpt lat="44.88491" lon="5.32505">
        <ele>1549</ele>
        <time>2021-10-08T09:30:58Z</time>
      </trkpt>
      <trkpt lat="44.88489" lon="5.32504">
        <ele>1549</ele>
        <time>2021-10-08T09:30:59Z</time>
      </trkpt>
      <trkpt lat="44.88488" lon="5.32504">
        <ele>1549</ele>
        <time>2021-10-08T09:31:00Z</time>
      </trkpt>
      <trkpt lat="44.88486" lon="5.32503">
        <ele>1548.6</ele>
        <time>2021-10-08T09:31:01Z</time>
      </trkpt>
      <trkpt lat="44.88485" lon="5.32502">
        <ele>1548.8</ele>
        <time>2021-10-08T09:31:02Z</time>
      </trkpt>
      <trkpt lat="44.88485" lon="5.32502">
        <ele>1548.8</ele>
        <time>2021-10-08T09:31:03Z</time>
      </trkpt>
      <trkpt lat="44.88485" lon="5.32502">
        <ele>1548.8</ele>
        <time>2021-10-08T09:31:04Z</time>
      </trkpt>
      <trkpt lat="44.88484" lon="5.32503">
        <ele>1548.8</ele>
        <time>2021-10-08T09:31:05Z</time>
      </trkpt>
      <trkpt lat="44.88484" lon="5.32503">
        <ele>1548.6</ele>
        <time>2021-10-08T09:31:06Z</time>
      </trkpt>
      <trkpt lat="44.88483" lon="5.32503">
        <ele>1548.6</ele>
        <time>2021-10-08T09:31:07Z</time>
      </trkpt>
      <trkpt lat="44.88483" lon="5.32503">
        <ele>1548.6</ele>
        <time>2021-10-08T09:31:08Z</time>
      </trkpt>
      <trkpt lat="44.8849" lon="5.3251">
        <ele>1548.4</ele>
        <time>2021-10-08T09:32:31Z</time>
      </trkpt>
      <trkpt lat="44.88492" lon="5.32511">
        <ele>1548.4</ele>
        <time>2021-10-08T09:32:32Z</time>
      </trkpt>
      <trkpt lat="44.88493" lon="5.32513">
        <ele>1548.4</ele>
        <time>2021-10-08T09:32:33Z</time>
      </trkpt>
      <trkpt lat="44.88494" lon="5.32515">
        <ele>1547.8</ele>
        <time>2021-10-08T09:32:34Z</time>
      </trkpt>
      <trkpt lat="44.88495" lon="5.32517">
        <ele>1547.8</ele>
        <time>2021-10-08T09:32:35Z</time>
      </trkpt>
      <trkpt lat="44.88496" lon="5.32518">
        <ele>1547.8</ele>
        <time>2021-10-08T09:32:36Z</time>
      </trkpt>
      <trkpt lat="44.88497" lon="5.32521">
        <ele>1547.2</ele>
        <time>2021-10-08T09:32:37Z</time>
      </trkpt>
      <trkpt lat="44.88499" lon="5.32523">
        <ele>1547.4</ele>
        <time>2021-10-08T09:32:38Z</time>
      </trkpt>
      <trkpt lat="44.88501" lon="5.32525">
        <ele>1547.4</ele>
        <time>2021-10-08T09:32:39Z</time>
      </trkpt>
      <trkpt lat="44.88502" lon="5.32528">
        <ele>1547.4</ele>
        <time>2021-10-08T09:32:40Z</time>
      </trkpt>
      <trkpt lat="44.88503" lon="5.3253">
        <ele>1547.4</ele>
        <time>2021-10-08T09:32:41Z</time>
      </trkpt>
      <trkpt lat="44.88505" lon="5.32533">
        <ele>1545.6</ele>
        <time>2021-10-08T09:32:42Z</time>
      </trkpt>
      <trkpt lat="44.88506" lon="5.32536">
        <ele>1545.6</ele>
        <time>2021-10-08T09:32:43Z</time>
      </trkpt>
      <trkpt lat="44.88508" lon="5.3254">
        <ele>1545.6</ele>
        <time>2021-10-08T09:32:44Z</time>
      </trkpt>
      <trkpt lat="44.88509" lon="5.32543">
        <ele>1545.6</ele>
        <time>2021-10-08T09:32:45Z</time>
      </trkpt>
      <trkpt lat="44.88511" lon="5.32546">
        <ele>1545.8</ele>
        <time>2021-10-08T09:32:46Z</time>
      </trkpt>
      <trkpt lat="44.88512" lon="5.32549">
        <ele>1545.8</ele>
        <time>2021-10-08T09:32:47Z</time>
      </trkpt>
      <trkpt lat="44.88514" lon="5.32553">
        <ele>1545.8</ele>
        <time>2021-10-08T09:32:48Z</time>
      </trkpt>
      <trkpt lat="44.88515" lon="5.32556">
        <ele>1545.8</ele>
        <time>2021-10-08T09:32:49Z</time>
      </trkpt>
      <trkpt lat="44.88516" lon="5.3256">
        <ele>1545.4</ele>
        <time>2021-10-08T09:32:50Z</time>
      </trkpt>
      <trkpt lat="44.88518" lon="5.32563">
        <ele>1545.4</ele>
        <time>2021-10-08T09:32:51Z</time>
      </trkpt>
      <trkpt lat="44.8852" lon="5.32566">
        <ele>1545.4</ele>
        <time>2021-10-08T09:32:52Z</time>
      </trkpt>
      <trkpt lat="44.88522" lon="5.32569">
        <ele>1544.4</ele>
        <time>2021-10-08T09:32:53Z</time>
      </trkpt>
      <trkpt lat="44.88524" lon="5.32572">
        <ele>1543</ele>
        <time>2021-10-08T09:32:54Z</time>
      </trkpt>
      <trkpt lat="44.88527" lon="5.32575">
        <ele>1543</ele>
        <time>2021-10-08T09:32:55Z</time>
      </trkpt>
      <trkpt lat="44.88529" lon="5.32579">
        <ele>1543</ele>
        <time>2021-10-08T09:32:56Z</time>
      </trkpt>
      <trkpt lat="44.88531" lon="5.32582">
        <ele>1543</ele>
        <time>2021-10-08T09:32:57Z</time>
      </trkpt>
      <trkpt lat="44.88533" lon="5.32585">
        <ele>1543.2</ele>
        <time>2021-10-08T09:32:58Z</time>
      </trkpt>
      <trkpt lat="44.88535" lon="5.32588">
        <ele>1543.2</ele>
        <time>2021-10-08T09:32:59Z</time>
      </trkpt>
      <trkpt lat="44.88537" lon="5.32591">
        <ele>1543.2</ele>
        <time>2021-10-08T09:33:00Z</time>
      </trkpt>
      <trkpt lat="44.88539" lon="5.32595">
        <ele>1542.2</ele>
        <time>2021-10-08T09:33:01Z</time>
      </trkpt>
      <trkpt lat="44.88541" lon="5.32598">
        <ele>1541.2</ele>
        <time>2021-10-08T09:33:02Z</time>
      </trkpt>
      <trkpt lat="44.88543" lon="5.326">
        <ele>1541.2</ele>
        <time>2021-10-08T09:33:03Z</time>
      </trkpt>
      <trkpt lat="44.88546" lon="5.32603">
        <ele>1541.2</ele>
        <time>2021-10-08T09:33:04Z</time>
      </trkpt>
      <trkpt lat="44.88548" lon="5.32605">
        <ele>1541.2</ele>
        <time>2021-10-08T09:33:05Z</time>
      </trkpt>
      <trkpt lat="44.8855" lon="5.32608">
        <ele>1540.4</ele>
        <time>2021-10-08T09:33:06Z</time>
      </trkpt>
      <trkpt lat="44.88552" lon="5.3261">
        <ele>1540.4</ele>
        <time>2021-10-08T09:33:07Z</time>
      </trkpt>
      <trkpt lat="44.88553" lon="5.32614">
        <ele>1540.4</ele>
        <time>2021-10-08T09:33:08Z</time>
      </trkpt>
      <trkpt lat="44.88554" lon="5.32617">
        <ele>1540.4</ele>
        <time>2021-10-08T09:33:09Z</time>
      </trkpt>
      <trkpt lat="44.88554" lon="5.3262">
        <ele>1540.4</ele>
        <time>2021-10-08T09:33:10Z</time>
      </trkpt>
      <trkpt lat="44.88555" lon="5.32623">
        <ele>1540.4</ele>
        <time>2021-10-08T09:33:11Z</time>
      </trkpt>
      <trkpt lat="44.88554" lon="5.32626">
        <ele>1540.4</ele>
        <time>2021-10-08T09:33:12Z</time>
      </trkpt>
      <trkpt lat="44.88553" lon="5.32629">
        <ele>1540.4</ele>
        <time>2021-10-08T09:33:13Z</time>
      </trkpt>
      <trkpt lat="44.88552" lon="5.32632">
        <ele>1539.6</ele>
        <time>2021-10-08T09:33:14Z</time>
      </trkpt>
      <trkpt lat="44.88551" lon="5.32635">
        <ele>1539.6</ele>
        <time>2021-10-08T09:33:15Z</time>
      </trkpt>
      <trkpt lat="44.88551" lon="5.32639">
        <ele>1539.6</ele>
        <time>2021-10-08T09:33:16Z</time>
      </trkpt>
      <trkpt lat="44.88553" lon="5.32643">
        <ele>1538.6</ele>
        <time>2021-10-08T09:33:17Z</time>
      </trkpt>
      <trkpt lat="44.88555" lon="5.32646">
        <ele>1536.4</ele>
        <time>2021-10-08T09:33:18Z</time>
      </trkpt>
      <trkpt lat="44.88556" lon="5.32649">
        <ele>1536.4</ele>
        <time>2021-10-08T09:33:19Z</time>
      </trkpt>
      <trkpt lat="44.88556" lon="5.32652">
        <ele>1536.4</ele>
        <time>2021-10-08T09:33:20Z</time>
      </trkpt>
      <trkpt lat="44.88556" lon="5.32654">
        <ele>1537.4</ele>
        <time>2021-10-08T09:33:21Z</time>
      </trkpt>
      <trkpt lat="44.88555" lon="5.32656">
        <ele>1537.4</ele>
        <time>2021-10-08T09:33:22Z</time>
      </trkpt>
      <trkpt lat="44.88553" lon="5.32657">
        <ele>1537.4</ele>
        <time>2021-10-08T09:33:23Z</time>
      </trkpt>
      <trkpt lat="44.88552" lon="5.32659">
        <ele>1537.4</ele>
        <time>2021-10-08T09:33:24Z</time>
      </trkpt>
      <trkpt lat="44.88551" lon="5.32661">
        <ele>1537.4</ele>
        <time>2021-10-08T09:33:25Z</time>
      </trkpt>
      <trkpt lat="44.8855" lon="5.32663">
        <ele>1536</ele>
        <time>2021-10-08T09:33:26Z</time>
      </trkpt>
      <trkpt lat="44.88548" lon="5.32665">
        <ele>1536</ele>
        <time>2021-10-08T09:33:27Z</time>
      </trkpt>
      <trkpt lat="44.88546" lon="5.32667">
        <ele>1536</ele>
        <time>2021-10-08T09:33:28Z</time>
      </trkpt>
      <trkpt lat="44.88545" lon="5.32669">
        <ele>1536.8</ele>
        <time>2021-10-08T09:33:29Z</time>
      </trkpt>
      <trkpt lat="44.88544" lon="5.32671">
        <ele>1537</ele>
        <time>2021-10-08T09:33:30Z</time>
      </trkpt>
      <trkpt lat="44.88542" lon="5.32673">
        <ele>1537</ele>
        <time>2021-10-08T09:33:31Z</time>
      </trkpt>
      <trkpt lat="44.88541" lon="5.32676">
        <ele>1537</ele>
        <time>2021-10-08T09:33:32Z</time>
      </trkpt>
      <trkpt lat="44.8854" lon="5.32678">
        <ele>1537</ele>
        <time>2021-10-08T09:33:33Z</time>
      </trkpt>
      <trkpt lat="44.88539" lon="5.32679">
        <ele>1536.8</ele>
        <time>2021-10-08T09:33:34Z</time>
      </trkpt>
      <trkpt lat="44.88538" lon="5.32681">
        <ele>1536.8</ele>
        <time>2021-10-08T09:33:35Z</time>
      </trkpt>
      <trkpt lat="44.88537" lon="5.32683">
        <ele>1536.8</ele>
        <time>2021-10-08T09:33:36Z</time>
      </trkpt>
      <trkpt lat="44.88536" lon="5.32684">
        <ele>1536.8</ele>
        <time>2021-10-08T09:33:37Z</time>
      </trkpt>
      <trkpt lat="44.88534" lon="5.32686">
        <ele>1536.8</ele>
        <time>2021-10-08T09:33:38Z</time>
      </trkpt>
      <trkpt lat="44.88533" lon="5.32688">
        <ele>1536.8</ele>
        <time>2021-10-08T09:33:39Z</time>
      </trkpt>
      <trkpt lat="44.88531" lon="5.32689">
        <ele>1536.8</ele>
        <time>2021-10-08T09:33:40Z</time>
      </trkpt>
      <trkpt lat="44.8853" lon="5.32691">
        <ele>1537</ele>
        <time>2021-10-08T09:33:41Z</time>
      </trkpt>
      <trkpt lat="44.88528" lon="5.32692">
        <ele>1536.6</ele>
        <time>2021-10-08T09:33:42Z</time>
      </trkpt>
      <trkpt lat="44.88526" lon="5.32693">
        <ele>1536.6</ele>
        <time>2021-10-08T09:33:43Z</time>
      </trkpt>
      <trkpt lat="44.88525" lon="5.32695">
        <ele>1536.6</ele>
        <time>2021-10-08T09:33:44Z</time>
      </trkpt>
      <trkpt lat="44.88523" lon="5.32696">
        <ele>1536.8</ele>
        <time>2021-10-08T09:33:45Z</time>
      </trkpt>
      <trkpt lat="44.88521" lon="5.32697">
        <ele>1536.8</ele>
        <time>2021-10-08T09:33:46Z</time>
      </trkpt>
      <trkpt lat="44.8852" lon="5.32698">
        <ele>1536.8</ele>
        <time>2021-10-08T09:33:47Z</time>
      </trkpt>
      <trkpt lat="44.88518" lon="5.32699">
        <ele>1536.8</ele>
        <time>2021-10-08T09:33:48Z</time>
      </trkpt>
      <trkpt lat="44.88516" lon="5.327">
        <ele>1536.8</ele>
        <time>2021-10-08T09:33:49Z</time>
      </trkpt>
      <trkpt lat="44.88515" lon="5.32702">
        <ele>1537.6</ele>
        <time>2021-10-08T09:33:50Z</time>
      </trkpt>
      <trkpt lat="44.88513" lon="5.32703">
        <ele>1537.6</ele>
        <time>2021-10-08T09:33:51Z</time>
      </trkpt>
      <trkpt lat="44.88512" lon="5.32704">
        <ele>1537.6</ele>
        <time>2021-10-08T09:33:52Z</time>
      </trkpt>
      <trkpt lat="44.88511" lon="5.32706">
        <ele>1537.6</ele>
        <time>2021-10-08T09:33:53Z</time>
      </trkpt>
      <trkpt lat="44.8851" lon="5.32707">
        <ele>1538</ele>
        <time>2021-10-08T09:33:54Z</time>
      </trkpt>
      <trkpt lat="44.88509" lon="5.32708">
        <ele>1538</ele>
        <time>2021-10-08T09:33:55Z</time>
      </trkpt>
      <trkpt lat="44.88507" lon="5.3271">
        <ele>1538</ele>
        <time>2021-10-08T09:33:56Z</time>
      </trkpt>
      <trkpt lat="44.88506" lon="5.32712">
        <ele>1538</ele>
        <time>2021-10-08T09:33:57Z</time>
      </trkpt>
      <trkpt lat="44.88505" lon="5.32714">
        <ele>1537.6</ele>
        <time>2021-10-08T09:33:58Z</time>
      </trkpt>
      <trkpt lat="44.88504" lon="5.32715">
        <ele>1537.6</ele>
        <time>2021-10-08T09:33:59Z</time>
      </trkpt>
      <trkpt lat="44.88503" lon="5.32717">
        <ele>1537.6</ele>
        <time>2021-10-08T09:34:00Z</time>
      </trkpt>
      <trkpt lat="44.88502" lon="5.32719">
        <ele>1538.4</ele>
        <time>2021-10-08T09:34:01Z</time>
      </trkpt>
      <trkpt lat="44.88501" lon="5.3272">
        <ele>1538.4</ele>
        <time>2021-10-08T09:34:02Z</time>
      </trkpt>
      <trkpt lat="44.885" lon="5.32722">
        <ele>1538.4</ele>
        <time>2021-10-08T09:34:03Z</time>
      </trkpt>
      <trkpt lat="44.88499" lon="5.32724">
        <ele>1538.4</ele>
        <time>2021-10-08T09:34:04Z</time>
      </trkpt>
      <trkpt lat="44.88498" lon="5.32726">
        <ele>1538.4</ele>
        <time>2021-10-08T09:34:05Z</time>
      </trkpt>
      <trkpt lat="44.88496" lon="5.32727">
        <ele>1538.6</ele>
        <time>2021-10-08T09:34:06Z</time>
      </trkpt>
      <trkpt lat="44.88495" lon="5.32729">
        <ele>1538.6</ele>
        <time>2021-10-08T09:34:07Z</time>
      </trkpt>
      <trkpt lat="44.88494" lon="5.32731">
        <ele>1538.6</ele>
        <time>2021-10-08T09:34:08Z</time>
      </trkpt>
      <trkpt lat="44.88493" lon="5.32733">
        <ele>1538.4</ele>
        <time>2021-10-08T09:34:09Z</time>
      </trkpt>
      <trkpt lat="44.88492" lon="5.32734">
        <ele>1538.6</ele>
        <time>2021-10-08T09:34:10Z</time>
      </trkpt>
      <trkpt lat="44.88491" lon="5.32736">
        <ele>1538.6</ele>
        <time>2021-10-08T09:34:11Z</time>
      </trkpt>
      <trkpt lat="44.88489" lon="5.32737">
        <ele>1538.6</ele>
        <time>2021-10-08T09:34:12Z</time>
      </trkpt>
      <trkpt lat="44.88488" lon="5.32739">
        <ele>1538.6</ele>
        <time>2021-10-08T09:34:13Z</time>
      </trkpt>
      <trkpt lat="44.88487" lon="5.32741">
        <ele>1538.6</ele>
        <time>2021-10-08T09:34:14Z</time>
      </trkpt>
      <trkpt lat="44.88486" lon="5.32742">
        <ele>1539</ele>
        <time>2021-10-08T09:34:15Z</time>
      </trkpt>
      <trkpt lat="44.88485" lon="5.32744">
        <ele>1539</ele>
        <time>2021-10-08T09:34:16Z</time>
      </trkpt>
      <trkpt lat="44.88483" lon="5.32745">
        <ele>1539</ele>
        <time>2021-10-08T09:34:17Z</time>
      </trkpt>
      <trkpt lat="44.88482" lon="5.32746">
        <ele>1538.8</ele>
        <time>2021-10-08T09:34:18Z</time>
      </trkpt>
      <trkpt lat="44.8848" lon="5.32747">
        <ele>1538.8</ele>
        <time>2021-10-08T09:34:19Z</time>
      </trkpt>
      <trkpt lat="44.88478" lon="5.32747">
        <ele>1538.8</ele>
        <time>2021-10-08T09:34:20Z</time>
      </trkpt>
      <trkpt lat="44.88477" lon="5.32748">
        <ele>1538.8</ele>
        <time>2021-10-08T09:34:21Z</time>
      </trkpt>
      <trkpt lat="44.88475" lon="5.32749">
        <ele>1538.6</ele>
        <time>2021-10-08T09:34:22Z</time>
      </trkpt>
      <trkpt lat="44.88473" lon="5.3275">
        <ele>1538.6</ele>
        <time>2021-10-08T09:34:23Z</time>
      </trkpt>
      <trkpt lat="44.88472" lon="5.3275">
        <ele>1538.6</ele>
        <time>2021-10-08T09:34:24Z</time>
      </trkpt>
      <trkpt lat="44.8847" lon="5.32751">
        <ele>1538.6</ele>
        <time>2021-10-08T09:34:25Z</time>
      </trkpt>
      <trkpt lat="44.88469" lon="5.32753">
        <ele>1539</ele>
        <time>2021-10-08T09:34:26Z</time>
      </trkpt>
      <trkpt lat="44.88467" lon="5.32754">
        <ele>1539</ele>
        <time>2021-10-08T09:34:27Z</time>
      </trkpt>
      <trkpt lat="44.88466" lon="5.32755">
        <ele>1539</ele>
        <time>2021-10-08T09:34:28Z</time>
      </trkpt>
      <trkpt lat="44.88464" lon="5.32756">
        <ele>1538.6</ele>
        <time>2021-10-08T09:34:29Z</time>
      </trkpt>
      <trkpt lat="44.88463" lon="5.32757">
        <ele>1538.6</ele>
        <time>2021-10-08T09:34:30Z</time>
      </trkpt>
      <trkpt lat="44.88461" lon="5.32758">
        <ele>1538.6</ele>
        <time>2021-10-08T09:34:31Z</time>
      </trkpt>
      <trkpt lat="44.88459" lon="5.32759">
        <ele>1538.6</ele>
        <time>2021-10-08T09:34:32Z</time>
      </trkpt>
      <trkpt lat="44.88458" lon="5.3276">
        <ele>1538</ele>
        <time>2021-10-08T09:34:33Z</time>
      </trkpt>
      <trkpt lat="44.88456" lon="5.32761">
        <ele>1538.4</ele>
        <time>2021-10-08T09:34:34Z</time>
      </trkpt>
      <trkpt lat="44.88455" lon="5.32762">
        <ele>1538.4</ele>
        <time>2021-10-08T09:34:35Z</time>
      </trkpt>
      <trkpt lat="44.88454" lon="5.32763">
        <ele>1538.4</ele>
        <time>2021-10-08T09:34:36Z</time>
      </trkpt>
      <trkpt lat="44.88453" lon="5.32764">
        <ele>1537.8</ele>
        <time>2021-10-08T09:34:37Z</time>
      </trkpt>
      <trkpt lat="44.88452" lon="5.32765">
        <ele>1537.6</ele>
        <time>2021-10-08T09:34:38Z</time>
      </trkpt>
      <trkpt lat="44.8845" lon="5.32766">
        <ele>1537.6</ele>
        <time>2021-10-08T09:34:39Z</time>
      </trkpt>
      <trkpt lat="44.88449" lon="5.32767">
        <ele>1537.6</ele>
        <time>2021-10-08T09:34:40Z</time>
      </trkpt>
      <trkpt lat="44.88447" lon="5.32768">
        <ele>1537.6</ele>
        <time>2021-10-08T09:34:41Z</time>
      </trkpt>
      <trkpt lat="44.88446" lon="5.32769">
        <ele>1537.6</ele>
        <time>2021-10-08T09:34:42Z</time>
      </trkpt>
      <trkpt lat="44.88444" lon="5.3277">
        <ele>1537.6</ele>
        <time>2021-10-08T09:34:43Z</time>
      </trkpt>
      <trkpt lat="44.88442" lon="5.3277">
        <ele>1537.6</ele>
        <time>2021-10-08T09:34:44Z</time>
      </trkpt>
      <trkpt lat="44.88441" lon="5.32771">
        <ele>1537.2</ele>
        <time>2021-10-08T09:34:45Z</time>
      </trkpt>
      <trkpt lat="44.88439" lon="5.32772">
        <ele>1537.2</ele>
        <time>2021-10-08T09:34:46Z</time>
      </trkpt>
      <trkpt lat="44.88438" lon="5.32773">
        <ele>1537.2</ele>
        <time>2021-10-08T09:34:47Z</time>
      </trkpt>
      <trkpt lat="44.88436" lon="5.32774">
        <ele>1537.2</ele>
        <time>2021-10-08T09:34:48Z</time>
      </trkpt>
      <trkpt lat="44.88435" lon="5.32775">
        <ele>1537.2</ele>
        <time>2021-10-08T09:34:49Z</time>
      </trkpt>
      <trkpt lat="44.88433" lon="5.32776">
        <ele>1536.8</ele>
        <time>2021-10-08T09:34:50Z</time>
      </trkpt>
      <trkpt lat="44.88431" lon="5.32776">
        <ele>1536.8</ele>
        <time>2021-10-08T09:34:51Z</time>
      </trkpt>
      <trkpt lat="44.8843" lon="5.32777">
        <ele>1536.8</ele>
        <time>2021-10-08T09:34:52Z</time>
      </trkpt>
      <trkpt lat="44.88428" lon="5.32778">
        <ele>1536.8</ele>
        <time>2021-10-08T09:34:53Z</time>
      </trkpt>
      <trkpt lat="44.88427" lon="5.32778">
        <ele>1537</ele>
        <time>2021-10-08T09:34:54Z</time>
      </trkpt>
      <trkpt lat="44.88425" lon="5.32779">
        <ele>1537</ele>
        <time>2021-10-08T09:34:55Z</time>
      </trkpt>
      <trkpt lat="44.88424" lon="5.3278">
        <ele>1537</ele>
        <time>2021-10-08T09:34:56Z</time>
      </trkpt>
      <trkpt lat="44.88423" lon="5.32781">
        <ele>1537</ele>
        <time>2021-10-08T09:34:57Z</time>
      </trkpt>
      <trkpt lat="44.88422" lon="5.32781">
        <ele>1537.4</ele>
        <time>2021-10-08T09:34:58Z</time>
      </trkpt>
      <trkpt lat="44.88421" lon="5.32782">
        <ele>1537.4</ele>
        <time>2021-10-08T09:34:59Z</time>
      </trkpt>
      <trkpt lat="44.88419" lon="5.32783">
        <ele>1537.4</ele>
        <time>2021-10-08T09:35:00Z</time>
      </trkpt>
      <trkpt lat="44.88417" lon="5.32784">
        <ele>1537</ele>
        <time>2021-10-08T09:35:01Z</time>
      </trkpt>
      <trkpt lat="44.88416" lon="5.32785">
        <ele>1536.6</ele>
        <time>2021-10-08T09:35:02Z</time>
      </trkpt>
      <trkpt lat="44.88414" lon="5.32785">
        <ele>1536.6</ele>
        <time>2021-10-08T09:35:03Z</time>
      </trkpt>
      <trkpt lat="44.88413" lon="5.32786">
        <ele>1536.6</ele>
        <time>2021-10-08T09:35:04Z</time>
      </trkpt>
      <trkpt lat="44.88412" lon="5.32786">
        <ele>1536.8</ele>
        <time>2021-10-08T09:35:05Z</time>
      </trkpt>
      <trkpt lat="44.8841" lon="5.32787">
        <ele>1536.6</ele>
        <time>2021-10-08T09:35:06Z</time>
      </trkpt>
      <trkpt lat="44.88408" lon="5.32787">
        <ele>1536.6</ele>
        <time>2021-10-08T09:35:07Z</time>
      </trkpt>
      <trkpt lat="44.88406" lon="5.32788">
        <ele>1536.6</ele>
        <time>2021-10-08T09:35:08Z</time>
      </trkpt>
      <trkpt lat="44.88404" lon="5.32789">
        <ele>1536</ele>
        <time>2021-10-08T09:35:09Z</time>
      </trkpt>
      <trkpt lat="44.88402" lon="5.3279">
        <ele>1536</ele>
        <time>2021-10-08T09:35:10Z</time>
      </trkpt>
      <trkpt lat="44.88401" lon="5.32791">
        <ele>1536</ele>
        <time>2021-10-08T09:35:11Z</time>
      </trkpt>
      <trkpt lat="44.88399" lon="5.32792">
        <ele>1536</ele>
        <time>2021-10-08T09:35:12Z</time>
      </trkpt>
      <trkpt lat="44.88397" lon="5.32793">
        <ele>1536</ele>
        <time>2021-10-08T09:35:13Z</time>
      </trkpt>
      <trkpt lat="44.88396" lon="5.32794">
        <ele>1535.4</ele>
        <time>2021-10-08T09:35:14Z</time>
      </trkpt>
      <trkpt lat="44.88396" lon="5.32794">
        <ele>1535.4</ele>
        <time>2021-10-08T09:35:15Z</time>
      </trkpt>
      <trkpt lat="44.88396" lon="5.32794">
        <ele>1535.4</ele>
        <time>2021-10-08T09:35:16Z</time>
      </trkpt>
      <trkpt lat="44.88394" lon="5.32797">
        <ele>1535.6</ele>
        <time>2021-10-08T09:36:12Z</time>
      </trkpt>
      <trkpt lat="44.88392" lon="5.32799">
        <ele>1534.6</ele>
        <time>2021-10-08T09:36:13Z</time>
      </trkpt>
      <trkpt lat="44.88391" lon="5.32803">
        <ele>1532.6</ele>
        <time>2021-10-08T09:36:14Z</time>
      </trkpt>
      <trkpt lat="44.88388" lon="5.32806">
        <ele>1532.6</ele>
        <time>2021-10-08T09:36:15Z</time>
      </trkpt>
      <trkpt lat="44.88386" lon="5.3281">
        <ele>1532.6</ele>
        <time>2021-10-08T09:36:16Z</time>
      </trkpt>
      <trkpt lat="44.88385" lon="5.32814">
        <ele>1532.6</ele>
        <time>2021-10-08T09:36:17Z</time>
      </trkpt>
      <trkpt lat="44.88383" lon="5.32819">
        <ele>1531.4</ele>
        <time>2021-10-08T09:36:18Z</time>
      </trkpt>
      <trkpt lat="44.88381" lon="5.32824">
        <ele>1531.4</ele>
        <time>2021-10-08T09:36:19Z</time>
      </trkpt>
      <trkpt lat="44.88378" lon="5.32829">
        <ele>1531.4</ele>
        <time>2021-10-08T09:36:20Z</time>
      </trkpt>
      <trkpt lat="44.88376" lon="5.32834">
        <ele>1531.4</ele>
        <time>2021-10-08T09:36:21Z</time>
      </trkpt>
      <trkpt lat="44.88373" lon="5.3284">
        <ele>1529.4</ele>
        <time>2021-10-08T09:36:22Z</time>
      </trkpt>
      <trkpt lat="44.8837" lon="5.32845">
        <ele>1529.4</ele>
        <time>2021-10-08T09:36:23Z</time>
      </trkpt>
      <trkpt lat="44.88368" lon="5.32851">
        <ele>1529.4</ele>
        <time>2021-10-08T09:36:24Z</time>
      </trkpt>
      <trkpt lat="44.88365" lon="5.32855">
        <ele>1528.6</ele>
        <time>2021-10-08T09:36:25Z</time>
      </trkpt>
      <trkpt lat="44.88363" lon="5.3286">
        <ele>1528.2</ele>
        <time>2021-10-08T09:36:26Z</time>
      </trkpt>
      <trkpt lat="44.8836" lon="5.32864">
        <ele>1528.2</ele>
        <time>2021-10-08T09:36:27Z</time>
      </trkpt>
      <trkpt lat="44.88358" lon="5.32868">
        <ele>1528.2</ele>
        <time>2021-10-08T09:36:28Z</time>
      </trkpt>
      <trkpt lat="44.88355" lon="5.32872">
        <ele>1528.2</ele>
        <time>2021-10-08T09:36:29Z</time>
      </trkpt>
      <trkpt lat="44.88353" lon="5.32876">
        <ele>1527.4</ele>
        <time>2021-10-08T09:36:30Z</time>
      </trkpt>
      <trkpt lat="44.88351" lon="5.32879">
        <ele>1527.4</ele>
        <time>2021-10-08T09:36:31Z</time>
      </trkpt>
      <trkpt lat="44.88349" lon="5.32882">
        <ele>1527.4</ele>
        <time>2021-10-08T09:36:32Z</time>
      </trkpt>
      <trkpt lat="44.88347" lon="5.32885">
        <ele>1527.8</ele>
        <time>2021-10-08T09:36:33Z</time>
      </trkpt>
      <trkpt lat="44.88345" lon="5.32888">
        <ele>1527.6</ele>
        <time>2021-10-08T09:36:34Z</time>
      </trkpt>
      <trkpt lat="44.88344" lon="5.32891">
        <ele>1527.6</ele>
        <time>2021-10-08T09:36:35Z</time>
      </trkpt>
      <trkpt lat="44.88343" lon="5.32894">
        <ele>1527.6</ele>
        <time>2021-10-08T09:36:36Z</time>
      </trkpt>
      <trkpt lat="44.88342" lon="5.32898">
        <ele>1527</ele>
        <time>2021-10-08T09:36:37Z</time>
      </trkpt>
      <trkpt lat="44.8834" lon="5.32902">
        <ele>1526.2</ele>
        <time>2021-10-08T09:36:38Z</time>
      </trkpt>
      <trkpt lat="44.88338" lon="5.32906">
        <ele>1526.2</ele>
        <time>2021-10-08T09:36:39Z</time>
      </trkpt>
      <trkpt lat="44.88337" lon="5.32911">
        <ele>1526.2</ele>
        <time>2021-10-08T09:36:40Z</time>
      </trkpt>
      <trkpt lat="44.88335" lon="5.32915">
        <ele>1526.2</ele>
        <time>2021-10-08T09:36:41Z</time>
      </trkpt>
      <trkpt lat="44.88334" lon="5.32919">
        <ele>1524.6</ele>
        <time>2021-10-08T09:36:42Z</time>
      </trkpt>
      <trkpt lat="44.88333" lon="5.32922">
        <ele>1524.6</ele>
        <time>2021-10-08T09:36:43Z</time>
      </trkpt>
      <trkpt lat="44.88332" lon="5.32926">
        <ele>1524.6</ele>
        <time>2021-10-08T09:36:44Z</time>
      </trkpt>
      <trkpt lat="44.88331" lon="5.32929">
        <ele>1524.2</ele>
        <time>2021-10-08T09:36:45Z</time>
      </trkpt>
      <trkpt lat="44.8833" lon="5.32932">
        <ele>1524</ele>
        <time>2021-10-08T09:36:46Z</time>
      </trkpt>
      <trkpt lat="44.8833" lon="5.32934">
        <ele>1524</ele>
        <time>2021-10-08T09:36:47Z</time>
      </trkpt>
      <trkpt lat="44.88329" lon="5.32936">
        <ele>1524</ele>
        <time>2021-10-08T09:36:48Z</time>
      </trkpt>
      <trkpt lat="44.88329" lon="5.32937">
        <ele>1523</ele>
        <time>2021-10-08T09:36:49Z</time>
      </trkpt>
      <trkpt lat="44.88327" lon="5.32957">
        <ele>1521.2</ele>
        <time>2021-10-08T09:37:20Z</time>
      </trkpt>
      <trkpt lat="44.88329" lon="5.32961">
        <ele>1520.2</ele>
        <time>2021-10-08T09:37:21Z</time>
      </trkpt>
      <trkpt lat="44.88331" lon="5.32965">
        <ele>1518</ele>
        <time>2021-10-08T09:37:22Z</time>
      </trkpt>
      <trkpt lat="44.88332" lon="5.3297">
        <ele>1518</ele>
        <time>2021-10-08T09:37:23Z</time>
      </trkpt>
      <trkpt lat="44.88333" lon="5.32976">
        <ele>1518</ele>
        <time>2021-10-08T09:37:24Z</time>
      </trkpt>
      <trkpt lat="44.88334" lon="5.32981">
        <ele>1518</ele>
        <time>2021-10-08T09:37:25Z</time>
      </trkpt>
      <trkpt lat="44.88335" lon="5.32987">
        <ele>1517</ele>
        <time>2021-10-08T09:37:26Z</time>
      </trkpt>
      <trkpt lat="44.88336" lon="5.32992">
        <ele>1517</ele>
        <time>2021-10-08T09:37:27Z</time>
      </trkpt>
      <trkpt lat="44.88337" lon="5.32996">
        <ele>1517</ele>
        <time>2021-10-08T09:37:28Z</time>
      </trkpt>
      <trkpt lat="44.88338" lon="5.33">
        <ele>1517.8</ele>
        <time>2021-10-08T09:37:29Z</time>
      </trkpt>
      <trkpt lat="44.88339" lon="5.33003">
        <ele>1518.6</ele>
        <time>2021-10-08T09:37:30Z</time>
      </trkpt>
      <trkpt lat="44.8834" lon="5.33006">
        <ele>1518.6</ele>
        <time>2021-10-08T09:37:31Z</time>
      </trkpt>
      <trkpt lat="44.88341" lon="5.33009">
        <ele>1518.6</ele>
        <time>2021-10-08T09:37:32Z</time>
      </trkpt>
      <trkpt lat="44.88342" lon="5.33012">
        <ele>1518.2</ele>
        <time>2021-10-08T09:37:33Z</time>
      </trkpt>
      <trkpt lat="44.88343" lon="5.33015">
        <ele>1518.4</ele>
        <time>2021-10-08T09:37:34Z</time>
      </trkpt>
      <trkpt lat="44.88344" lon="5.33018">
        <ele>1518.4</ele>
        <time>2021-10-08T09:37:35Z</time>
      </trkpt>
      <trkpt lat="44.88345" lon="5.33021">
        <ele>1518.4</ele>
        <time>2021-10-08T09:37:36Z</time>
      </trkpt>
      <trkpt lat="44.88346" lon="5.33025">
        <ele>1518.4</ele>
        <time>2021-10-08T09:37:37Z</time>
      </trkpt>
      <trkpt lat="44.88347" lon="5.33028">
        <ele>1518.6</ele>
        <time>2021-10-08T09:37:38Z</time>
      </trkpt>
      <trkpt lat="44.88348" lon="5.33031">
        <ele>1518.6</ele>
        <time>2021-10-08T09:37:39Z</time>
      </trkpt>
      <trkpt lat="44.88349" lon="5.33034">
        <ele>1518.6</ele>
        <time>2021-10-08T09:37:40Z</time>
      </trkpt>
      <trkpt lat="44.8835" lon="5.33037">
        <ele>1518.6</ele>
        <time>2021-10-08T09:37:41Z</time>
      </trkpt>
      <trkpt lat="44.88351" lon="5.3304">
        <ele>1519.2</ele>
        <time>2021-10-08T09:37:42Z</time>
      </trkpt>
      <trkpt lat="44.88352" lon="5.33043">
        <ele>1519.2</ele>
        <time>2021-10-08T09:37:43Z</time>
      </trkpt>
      <trkpt lat="44.88353" lon="5.33046">
        <ele>1519.2</ele>
        <time>2021-10-08T09:37:44Z</time>
      </trkpt>
      <trkpt lat="44.88354" lon="5.33049">
        <ele>1519.2</ele>
        <time>2021-10-08T09:37:45Z</time>
      </trkpt>
      <trkpt lat="44.88355" lon="5.33052">
        <ele>1518.6</ele>
        <time>2021-10-08T09:37:46Z</time>
      </trkpt>
      <trkpt lat="44.88356" lon="5.33055">
        <ele>1518.6</ele>
        <time>2021-10-08T09:37:47Z</time>
      </trkpt>
      <trkpt lat="44.88357" lon="5.33058">
        <ele>1518.6</ele>
        <time>2021-10-08T09:37:48Z</time>
      </trkpt>
      <trkpt lat="44.88358" lon="5.33061">
        <ele>1519.6</ele>
        <time>2021-10-08T09:37:49Z</time>
      </trkpt>
      <trkpt lat="44.88358" lon="5.33063">
        <ele>1519.2</ele>
        <time>2021-10-08T09:37:50Z</time>
      </trkpt>
      <trkpt lat="44.88359" lon="5.33066">
        <ele>1519.2</ele>
        <time>2021-10-08T09:37:51Z</time>
      </trkpt>
      <trkpt lat="44.8836" lon="5.33069">
        <ele>1519.2</ele>
        <time>2021-10-08T09:37:52Z</time>
      </trkpt>
      <trkpt lat="44.88361" lon="5.33071">
        <ele>1519.2</ele>
        <time>2021-10-08T09:37:53Z</time>
      </trkpt>
      <trkpt lat="44.88362" lon="5.33074">
        <ele>1519.8</ele>
        <time>2021-10-08T09:37:54Z</time>
      </trkpt>
      <trkpt lat="44.88363" lon="5.33077">
        <ele>1519.8</ele>
        <time>2021-10-08T09:37:55Z</time>
      </trkpt>
      <trkpt lat="44.88364" lon="5.3308">
        <ele>1519.8</ele>
        <time>2021-10-08T09:37:56Z</time>
      </trkpt>
      <trkpt lat="44.88365" lon="5.33083">
        <ele>1519.2</ele>
        <time>2021-10-08T09:37:57Z</time>
      </trkpt>
      <trkpt lat="44.88366" lon="5.33085">
        <ele>1520</ele>
        <time>2021-10-08T09:37:58Z</time>
      </trkpt>
      <trkpt lat="44.88367" lon="5.33088">
        <ele>1520</ele>
        <time>2021-10-08T09:37:59Z</time>
      </trkpt>
      <trkpt lat="44.88367" lon="5.33091">
        <ele>1520</ele>
        <time>2021-10-08T09:38:00Z</time>
      </trkpt>
      <trkpt lat="44.88368" lon="5.33093">
        <ele>1519.8</ele>
        <time>2021-10-08T09:38:01Z</time>
      </trkpt>
      <trkpt lat="44.88368" lon="5.33095">
        <ele>1520.2</ele>
        <time>2021-10-08T09:38:02Z</time>
      </trkpt>
      <trkpt lat="44.88368" lon="5.33098">
        <ele>1520.2</ele>
        <time>2021-10-08T09:38:03Z</time>
      </trkpt>
      <trkpt lat="44.88369" lon="5.331">
        <ele>1520.2</ele>
        <time>2021-10-08T09:38:04Z</time>
      </trkpt>
      <trkpt lat="44.8837" lon="5.33103">
        <ele>1520.2</ele>
        <time>2021-10-08T09:38:05Z</time>
      </trkpt>
      <trkpt lat="44.8837" lon="5.33106">
        <ele>1520</ele>
        <time>2021-10-08T09:38:06Z</time>
      </trkpt>
      <trkpt lat="44.88371" lon="5.33109">
        <ele>1520</ele>
        <time>2021-10-08T09:38:07Z</time>
      </trkpt>
      <trkpt lat="44.88371" lon="5.33111">
        <ele>1520</ele>
        <time>2021-10-08T09:38:08Z</time>
      </trkpt>
      <trkpt lat="44.88371" lon="5.33114">
        <ele>1520.8</ele>
        <time>2021-10-08T09:38:09Z</time>
      </trkpt>
      <trkpt lat="44.88371" lon="5.33117">
        <ele>1520.8</ele>
        <time>2021-10-08T09:38:10Z</time>
      </trkpt>
      <trkpt lat="44.88371" lon="5.3312">
        <ele>1520.8</ele>
        <time>2021-10-08T09:38:11Z</time>
      </trkpt>
      <trkpt lat="44.8837" lon="5.33123">
        <ele>1520.8</ele>
        <time>2021-10-08T09:38:12Z</time>
      </trkpt>
      <trkpt lat="44.8837" lon="5.33126">
        <ele>1520.8</ele>
        <time>2021-10-08T09:38:13Z</time>
      </trkpt>
      <trkpt lat="44.8837" lon="5.33129">
        <ele>1521</ele>
        <time>2021-10-08T09:38:14Z</time>
      </trkpt>
      <trkpt lat="44.8837" lon="5.33132">
        <ele>1521</ele>
        <time>2021-10-08T09:38:15Z</time>
      </trkpt>
      <trkpt lat="44.8837" lon="5.33134">
        <ele>1521</ele>
        <time>2021-10-08T09:38:16Z</time>
      </trkpt>
      <trkpt lat="44.8837" lon="5.33137">
        <ele>1521.4</ele>
        <time>2021-10-08T09:38:17Z</time>
      </trkpt>
      <trkpt lat="44.8837" lon="5.3314">
        <ele>1521.4</ele>
        <time>2021-10-08T09:38:18Z</time>
      </trkpt>
      <trkpt lat="44.8837" lon="5.33143">
        <ele>1521.4</ele>
        <time>2021-10-08T09:38:19Z</time>
      </trkpt>
      <trkpt lat="44.88369" lon="5.33146">
        <ele>1521.4</ele>
        <time>2021-10-08T09:38:20Z</time>
      </trkpt>
      <trkpt lat="44.88369" lon="5.33149">
        <ele>1521.4</ele>
        <time>2021-10-08T09:38:21Z</time>
      </trkpt>
      <trkpt lat="44.88369" lon="5.33152">
        <ele>1521.4</ele>
        <time>2021-10-08T09:38:22Z</time>
      </trkpt>
      <trkpt lat="44.88368" lon="5.33155">
        <ele>1521.4</ele>
        <time>2021-10-08T09:38:23Z</time>
      </trkpt>
      <trkpt lat="44.88368" lon="5.33158">
        <ele>1521.4</ele>
        <time>2021-10-08T09:38:24Z</time>
      </trkpt>
      <trkpt lat="44.88368" lon="5.33161">
        <ele>1521.6</ele>
        <time>2021-10-08T09:38:25Z</time>
      </trkpt>
      <trkpt lat="44.88368" lon="5.33164">
        <ele>1522.2</ele>
        <time>2021-10-08T09:38:26Z</time>
      </trkpt>
      <trkpt lat="44.88368" lon="5.33167">
        <ele>1522.2</ele>
        <time>2021-10-08T09:38:27Z</time>
      </trkpt>
      <trkpt lat="44.88367" lon="5.3317">
        <ele>1522.2</ele>
        <time>2021-10-08T09:38:28Z</time>
      </trkpt>
      <trkpt lat="44.88367" lon="5.33173">
        <ele>1522</ele>
        <time>2021-10-08T09:38:29Z</time>
      </trkpt>
      <trkpt lat="44.88367" lon="5.33176">
        <ele>1521.8</ele>
        <time>2021-10-08T09:38:30Z</time>
      </trkpt>
      <trkpt lat="44.88366" lon="5.33179">
        <ele>1521.8</ele>
        <time>2021-10-08T09:38:31Z</time>
      </trkpt>
      <trkpt lat="44.88366" lon="5.33181">
        <ele>1521.8</ele>
        <time>2021-10-08T09:38:32Z</time>
      </trkpt>
      <trkpt lat="44.88365" lon="5.33184">
        <ele>1521.8</ele>
        <time>2021-10-08T09:38:33Z</time>
      </trkpt>
      <trkpt lat="44.88365" lon="5.33187">
        <ele>1522</ele>
        <time>2021-10-08T09:38:34Z</time>
      </trkpt>
      <trkpt lat="44.88364" lon="5.3319">
        <ele>1522</ele>
        <time>2021-10-08T09:38:35Z</time>
      </trkpt>
      <trkpt lat="44.88364" lon="5.33193">
        <ele>1522</ele>
        <time>2021-10-08T09:38:36Z</time>
      </trkpt>
      <trkpt lat="44.88363" lon="5.33195">
        <ele>1522</ele>
        <time>2021-10-08T09:38:37Z</time>
      </trkpt>
      <trkpt lat="44.88362" lon="5.33197">
        <ele>1521.8</ele>
        <time>2021-10-08T09:38:38Z</time>
      </trkpt>
      <trkpt lat="44.88361" lon="5.33199">
        <ele>1521.8</ele>
        <time>2021-10-08T09:38:39Z</time>
      </trkpt>
      <trkpt lat="44.88359" lon="5.33201">
        <ele>1521.8</ele>
        <time>2021-10-08T09:38:40Z</time>
      </trkpt>
      <trkpt lat="44.88358" lon="5.33203">
        <ele>1521.8</ele>
        <time>2021-10-08T09:38:41Z</time>
      </trkpt>
      <trkpt lat="44.88357" lon="5.33205">
        <ele>1521.4</ele>
        <time>2021-10-08T09:38:42Z</time>
      </trkpt>
      <trkpt lat="44.88356" lon="5.33207">
        <ele>1521.4</ele>
        <time>2021-10-08T09:38:43Z</time>
      </trkpt>
      <trkpt lat="44.88355" lon="5.33209">
        <ele>1521.4</ele>
        <time>2021-10-08T09:38:44Z</time>
      </trkpt>
      <trkpt lat="44.88354" lon="5.33212">
        <ele>1522</ele>
        <time>2021-10-08T09:38:45Z</time>
      </trkpt>
      <trkpt lat="44.88353" lon="5.33214">
        <ele>1521.4</ele>
        <time>2021-10-08T09:38:46Z</time>
      </trkpt>
      <trkpt lat="44.88352" lon="5.33217">
        <ele>1521.4</ele>
        <time>2021-10-08T09:38:47Z</time>
      </trkpt>
      <trkpt lat="44.88352" lon="5.33222">
        <ele>1521.4</ele>
        <time>2021-10-08T09:38:48Z</time>
      </trkpt>
      <trkpt lat="44.88351" lon="5.33226">
        <ele>1521.4</ele>
        <time>2021-10-08T09:38:49Z</time>
      </trkpt>
      <trkpt lat="44.88351" lon="5.3323">
        <ele>1521.2</ele>
        <time>2021-10-08T09:38:50Z</time>
      </trkpt>
      <trkpt lat="44.8835" lon="5.33233">
        <ele>1521.2</ele>
        <time>2021-10-08T09:38:51Z</time>
      </trkpt>
      <trkpt lat="44.88349" lon="5.33236">
        <ele>1521.2</ele>
        <time>2021-10-08T09:38:52Z</time>
      </trkpt>
      <trkpt lat="44.88348" lon="5.33239">
        <ele>1521.2</ele>
        <time>2021-10-08T09:38:53Z</time>
      </trkpt>
      <trkpt lat="44.88347" lon="5.33241">
        <ele>1521.6</ele>
        <time>2021-10-08T09:38:54Z</time>
      </trkpt>
      <trkpt lat="44.88346" lon="5.33244">
        <ele>1521.6</ele>
        <time>2021-10-08T09:38:55Z</time>
      </trkpt>
      <trkpt lat="44.88345" lon="5.33246">
        <ele>1521.6</ele>
        <time>2021-10-08T09:38:56Z</time>
      </trkpt>
      <trkpt lat="44.88344" lon="5.33249">
        <ele>1521.6</ele>
        <time>2021-10-08T09:38:57Z</time>
      </trkpt>
      <trkpt lat="44.88343" lon="5.33252">
        <ele>1520.6</ele>
        <time>2021-10-08T09:38:58Z</time>
      </trkpt>
      <trkpt lat="44.88341" lon="5.33254">
        <ele>1520.6</ele>
        <time>2021-10-08T09:38:59Z</time>
      </trkpt>
      <trkpt lat="44.88339" lon="5.33257">
        <ele>1520.6</ele>
        <time>2021-10-08T09:39:00Z</time>
      </trkpt>
      <trkpt lat="44.88338" lon="5.33259">
        <ele>1521</ele>
        <time>2021-10-08T09:39:01Z</time>
      </trkpt>
      <trkpt lat="44.88337" lon="5.33262">
        <ele>1521</ele>
        <time>2021-10-08T09:39:02Z</time>
      </trkpt>
      <trkpt lat="44.88336" lon="5.33265">
        <ele>1521</ele>
        <time>2021-10-08T09:39:03Z</time>
      </trkpt>
      <trkpt lat="44.88335" lon="5.33268">
        <ele>1521</ele>
        <time>2021-10-08T09:39:04Z</time>
      </trkpt>
      <trkpt lat="44.88335" lon="5.33271">
        <ele>1520.8</ele>
        <time>2021-10-08T09:39:05Z</time>
      </trkpt>
      <trkpt lat="44.88334" lon="5.33275">
        <ele>1520.8</ele>
        <time>2021-10-08T09:39:06Z</time>
      </trkpt>
      <trkpt lat="44.88333" lon="5.33278">
        <ele>1520.4</ele>
        <time>2021-10-08T09:39:07Z</time>
      </trkpt>
      <trkpt lat="44.88333" lon="5.33281">
        <ele>1520.4</ele>
        <time>2021-10-08T09:39:08Z</time>
      </trkpt>
      <trkpt lat="44.88332" lon="5.33284">
        <ele>1520.6</ele>
        <time>2021-10-08T09:39:09Z</time>
      </trkpt>
      <trkpt lat="44.8833" lon="5.33287">
        <ele>1520.8</ele>
        <time>2021-10-08T09:39:10Z</time>
      </trkpt>
      <trkpt lat="44.88329" lon="5.3329">
        <ele>1520.8</ele>
        <time>2021-10-08T09:39:11Z</time>
      </trkpt>
      <trkpt lat="44.88327" lon="5.33294">
        <ele>1520.8</ele>
        <time>2021-10-08T09:39:12Z</time>
      </trkpt>
      <trkpt lat="44.88326" lon="5.33297">
        <ele>1520.8</ele>
        <time>2021-10-08T09:39:13Z</time>
      </trkpt>
      <trkpt lat="44.88324" lon="5.333">
        <ele>1520.4</ele>
        <time>2021-10-08T09:39:14Z</time>
      </trkpt>
      <trkpt lat="44.88323" lon="5.33303">
        <ele>1520.4</ele>
        <time>2021-10-08T09:39:15Z</time>
      </trkpt>
      <trkpt lat="44.88322" lon="5.33306">
        <ele>1520.4</ele>
        <time>2021-10-08T09:39:16Z</time>
      </trkpt>
      <trkpt lat="44.88321" lon="5.33309">
        <ele>1520.4</ele>
        <time>2021-10-08T09:39:17Z</time>
      </trkpt>
      <trkpt lat="44.8832" lon="5.33313">
        <ele>1519.8</ele>
        <time>2021-10-08T09:39:18Z</time>
      </trkpt>
      <trkpt lat="44.88318" lon="5.33316">
        <ele>1519.8</ele>
        <time>2021-10-08T09:39:19Z</time>
      </trkpt>
      <trkpt lat="44.88317" lon="5.33319">
        <ele>1519.8</ele>
        <time>2021-10-08T09:39:20Z</time>
      </trkpt>
      <trkpt lat="44.88316" lon="5.33322">
        <ele>1520</ele>
        <time>2021-10-08T09:39:21Z</time>
      </trkpt>
      <trkpt lat="44.88314" lon="5.33324">
        <ele>1520.4</ele>
        <time>2021-10-08T09:39:22Z</time>
      </trkpt>
      <trkpt lat="44.88313" lon="5.33327">
        <ele>1520.4</ele>
        <time>2021-10-08T09:39:23Z</time>
      </trkpt>
      <trkpt lat="44.88311" lon="5.3333">
        <ele>1520.4</ele>
        <time>2021-10-08T09:39:24Z</time>
      </trkpt>
      <trkpt lat="44.8831" lon="5.33333">
        <ele>1520</ele>
        <time>2021-10-08T09:39:25Z</time>
      </trkpt>
      <trkpt lat="44.88309" lon="5.33336">
        <ele>1519.8</ele>
        <time>2021-10-08T09:39:26Z</time>
      </trkpt>
      <trkpt lat="44.88307" lon="5.3334">
        <ele>1519.8</ele>
        <time>2021-10-08T09:39:27Z</time>
      </trkpt>
      <trkpt lat="44.88306" lon="5.33343">
        <ele>1519.8</ele>
        <time>2021-10-08T09:39:28Z</time>
      </trkpt>
      <trkpt lat="44.88305" lon="5.33346">
        <ele>1519</ele>
        <time>2021-10-08T09:39:29Z</time>
      </trkpt>
      <trkpt lat="44.88304" lon="5.3335">
        <ele>1519.2</ele>
        <time>2021-10-08T09:39:30Z</time>
      </trkpt>
      <trkpt lat="44.88303" lon="5.33353">
        <ele>1519.2</ele>
        <time>2021-10-08T09:39:31Z</time>
      </trkpt>
      <trkpt lat="44.88302" lon="5.33356">
        <ele>1519.2</ele>
        <time>2021-10-08T09:39:32Z</time>
      </trkpt>
      <trkpt lat="44.88301" lon="5.33358">
        <ele>1519.2</ele>
        <time>2021-10-08T09:39:33Z</time>
      </trkpt>
      <trkpt lat="44.883" lon="5.33361">
        <ele>1519.6</ele>
        <time>2021-10-08T09:39:34Z</time>
      </trkpt>
      <trkpt lat="44.88299" lon="5.33363">
        <ele>1519.6</ele>
        <time>2021-10-08T09:39:35Z</time>
      </trkpt>
      <trkpt lat="44.88298" lon="5.33366">
        <ele>1519.6</ele>
        <time>2021-10-08T09:39:36Z</time>
      </trkpt>
      <trkpt lat="44.88297" lon="5.33368">
        <ele>1519.6</ele>
        <time>2021-10-08T09:39:37Z</time>
      </trkpt>
      <trkpt lat="44.88296" lon="5.33371">
        <ele>1519.8</ele>
        <time>2021-10-08T09:39:38Z</time>
      </trkpt>
      <trkpt lat="44.88295" lon="5.33375">
        <ele>1519.8</ele>
        <time>2021-10-08T09:39:39Z</time>
      </trkpt>
      <trkpt lat="44.88293" lon="5.33378">
        <ele>1519.8</ele>
        <time>2021-10-08T09:39:40Z</time>
      </trkpt>
      <trkpt lat="44.88292" lon="5.33382">
        <ele>1519.4</ele>
        <time>2021-10-08T09:39:41Z</time>
      </trkpt>
      <trkpt lat="44.8829" lon="5.33385">
        <ele>1519.4</ele>
        <time>2021-10-08T09:39:42Z</time>
      </trkpt>
      <trkpt lat="44.88289" lon="5.33388">
        <ele>1519.4</ele>
        <time>2021-10-08T09:39:43Z</time>
      </trkpt>
      <trkpt lat="44.88288" lon="5.33391">
        <ele>1519.4</ele>
        <time>2021-10-08T09:39:44Z</time>
      </trkpt>
      <trkpt lat="44.88286" lon="5.33394">
        <ele>1519.4</ele>
        <time>2021-10-08T09:39:45Z</time>
      </trkpt>
      <trkpt lat="44.88285" lon="5.33398">
        <ele>1518.8</ele>
        <time>2021-10-08T09:39:46Z</time>
      </trkpt>
      <trkpt lat="44.88284" lon="5.33401">
        <ele>1518.8</ele>
        <time>2021-10-08T09:39:47Z</time>
      </trkpt>
      <trkpt lat="44.88282" lon="5.33405">
        <ele>1518.8</ele>
        <time>2021-10-08T09:39:48Z</time>
      </trkpt>
      <trkpt lat="44.88281" lon="5.33408">
        <ele>1519</ele>
        <time>2021-10-08T09:39:49Z</time>
      </trkpt>
      <trkpt lat="44.88279" lon="5.33412">
        <ele>1518</ele>
        <time>2021-10-08T09:39:50Z</time>
      </trkpt>
      <trkpt lat="44.88278" lon="5.33415">
        <ele>1518</ele>
        <time>2021-10-08T09:39:51Z</time>
      </trkpt>
      <trkpt lat="44.88277" lon="5.33418">
        <ele>1518</ele>
        <time>2021-10-08T09:39:52Z</time>
      </trkpt>
      <trkpt lat="44.88275" lon="5.33421">
        <ele>1518</ele>
        <time>2021-10-08T09:39:53Z</time>
      </trkpt>
      <trkpt lat="44.88275" lon="5.33423">
        <ele>1518.6</ele>
        <time>2021-10-08T09:39:54Z</time>
      </trkpt>
      <trkpt lat="44.88274" lon="5.33427">
        <ele>1518.6</ele>
        <time>2021-10-08T09:39:55Z</time>
      </trkpt>
      <trkpt lat="44.88273" lon="5.3343">
        <ele>1518.6</ele>
        <time>2021-10-08T09:39:56Z</time>
      </trkpt>
      <trkpt lat="44.88273" lon="5.33434">
        <ele>1517.8</ele>
        <time>2021-10-08T09:39:57Z</time>
      </trkpt>
      <trkpt lat="44.88271" lon="5.33437">
        <ele>1518.4</ele>
        <time>2021-10-08T09:39:58Z</time>
      </trkpt>
      <trkpt lat="44.88271" lon="5.3344">
        <ele>1518.4</ele>
        <time>2021-10-08T09:39:59Z</time>
      </trkpt>
      <trkpt lat="44.8827" lon="5.33444">
        <ele>1518.4</ele>
        <time>2021-10-08T09:40:00Z</time>
      </trkpt>
      <trkpt lat="44.88268" lon="5.33446">
        <ele>1518.4</ele>
        <time>2021-10-08T09:40:01Z</time>
      </trkpt>
      <trkpt lat="44.88267" lon="5.33449">
        <ele>1517.8</ele>
        <time>2021-10-08T09:40:02Z</time>
      </trkpt>
      <trkpt lat="44.88266" lon="5.33451">
        <ele>1517.8</ele>
        <time>2021-10-08T09:40:03Z</time>
      </trkpt>
      <trkpt lat="44.88265" lon="5.33454">
        <ele>1517.8</ele>
        <time>2021-10-08T09:40:04Z</time>
      </trkpt>
      <trkpt lat="44.88264" lon="5.33458">
        <ele>1517.8</ele>
        <time>2021-10-08T09:40:05Z</time>
      </trkpt>
      <trkpt lat="44.88263" lon="5.33461">
        <ele>1517.6</ele>
        <time>2021-10-08T09:40:06Z</time>
      </trkpt>
      <trkpt lat="44.88262" lon="5.33465">
        <ele>1517.6</ele>
        <time>2021-10-08T09:40:07Z</time>
      </trkpt>
      <trkpt lat="44.88262" lon="5.33469">
        <ele>1517.6</ele>
        <time>2021-10-08T09:40:08Z</time>
      </trkpt>
      <trkpt lat="44.88261" lon="5.33472">
        <ele>1517.6</ele>
        <time>2021-10-08T09:40:09Z</time>
      </trkpt>
      <trkpt lat="44.88261" lon="5.33476">
        <ele>1517.6</ele>
        <time>2021-10-08T09:40:10Z</time>
      </trkpt>
      <trkpt lat="44.88261" lon="5.33479">
        <ele>1517.6</ele>
        <time>2021-10-08T09:40:11Z</time>
      </trkpt>
      <trkpt lat="44.8826" lon="5.33482">
        <ele>1517.6</ele>
        <time>2021-10-08T09:40:12Z</time>
      </trkpt>
      <trkpt lat="44.88261" lon="5.33485">
        <ele>1517.6</ele>
        <time>2021-10-08T09:40:13Z</time>
      </trkpt>
      <trkpt lat="44.88261" lon="5.33489">
        <ele>1517.4</ele>
        <time>2021-10-08T09:40:14Z</time>
      </trkpt>
      <trkpt lat="44.88261" lon="5.33492">
        <ele>1517.4</ele>
        <time>2021-10-08T09:40:15Z</time>
      </trkpt>
      <trkpt lat="44.88262" lon="5.33495">
        <ele>1517.4</ele>
        <time>2021-10-08T09:40:16Z</time>
      </trkpt>
      <trkpt lat="44.88263" lon="5.33498">
        <ele>1517.4</ele>
        <time>2021-10-08T09:40:17Z</time>
      </trkpt>
      <trkpt lat="44.88264" lon="5.335">
        <ele>1517.6</ele>
        <time>2021-10-08T09:40:18Z</time>
      </trkpt>
      <trkpt lat="44.88265" lon="5.33503">
        <ele>1517.6</ele>
        <time>2021-10-08T09:40:19Z</time>
      </trkpt>
      <trkpt lat="44.88266" lon="5.33505">
        <ele>1517.6</ele>
        <time>2021-10-08T09:40:20Z</time>
      </trkpt>
      <trkpt lat="44.88268" lon="5.33507">
        <ele>1517.4</ele>
        <time>2021-10-08T09:40:21Z</time>
      </trkpt>
      <trkpt lat="44.88269" lon="5.33509">
        <ele>1517.2</ele>
        <time>2021-10-08T09:40:22Z</time>
      </trkpt>
      <trkpt lat="44.8827" lon="5.33512">
        <ele>1517.2</ele>
        <time>2021-10-08T09:40:23Z</time>
      </trkpt>
      <trkpt lat="44.88271" lon="5.33514">
        <ele>1517.2</ele>
        <time>2021-10-08T09:40:24Z</time>
      </trkpt>
      <trkpt lat="44.88272" lon="5.33517">
        <ele>1518.2</ele>
        <time>2021-10-08T09:40:25Z</time>
      </trkpt>
      <trkpt lat="44.88272" lon="5.33519">
        <ele>1518.4</ele>
        <time>2021-10-08T09:40:26Z</time>
      </trkpt>
      <trkpt lat="44.88272" lon="5.33522">
        <ele>1518.4</ele>
        <time>2021-10-08T09:40:27Z</time>
      </trkpt>
      <trkpt lat="44.88271" lon="5.33524">
        <ele>1518.4</ele>
        <time>2021-10-08T09:40:28Z</time>
      </trkpt>
      <trkpt lat="44.88271" lon="5.33527">
        <ele>1519</ele>
        <time>2021-10-08T09:40:29Z</time>
      </trkpt>
      <trkpt lat="44.8827" lon="5.33529">
        <ele>1519.4</ele>
        <time>2021-10-08T09:40:30Z</time>
      </trkpt>
      <trkpt lat="44.8827" lon="5.33531">
        <ele>1519.4</ele>
        <time>2021-10-08T09:40:31Z</time>
      </trkpt>
      <trkpt lat="44.88269" lon="5.33533">
        <ele>1519.4</ele>
        <time>2021-10-08T09:40:32Z</time>
      </trkpt>
      <trkpt lat="44.88269" lon="5.33536">
        <ele>1519.4</ele>
        <time>2021-10-08T09:40:33Z</time>
      </trkpt>
      <trkpt lat="44.88269" lon="5.33537">
        <ele>1519.8</ele>
        <time>2021-10-08T09:40:34Z</time>
      </trkpt>
      <trkpt lat="44.88268" lon="5.33539">
        <ele>1519.8</ele>
        <time>2021-10-08T09:40:35Z</time>
      </trkpt>
      <trkpt lat="44.88267" lon="5.33542">
        <ele>1519.8</ele>
        <time>2021-10-08T09:40:36Z</time>
      </trkpt>
      <trkpt lat="44.88266" lon="5.33544">
        <ele>1519.8</ele>
        <time>2021-10-08T09:40:37Z</time>
      </trkpt>
      <trkpt lat="44.88265" lon="5.33547">
        <ele>1519.6</ele>
        <time>2021-10-08T09:40:38Z</time>
      </trkpt>
      <trkpt lat="44.88265" lon="5.3355">
        <ele>1519.6</ele>
        <time>2021-10-08T09:40:39Z</time>
      </trkpt>
      <trkpt lat="44.88264" lon="5.33552">
        <ele>1519.6</ele>
        <time>2021-10-08T09:40:40Z</time>
      </trkpt>
      <trkpt lat="44.88263" lon="5.33555">
        <ele>1519.6</ele>
        <time>2021-10-08T09:40:41Z</time>
      </trkpt>
      <trkpt lat="44.88262" lon="5.33558">
        <ele>1519.2</ele>
        <time>2021-10-08T09:40:42Z</time>
      </trkpt>
      <trkpt lat="44.88262" lon="5.33561">
        <ele>1519.2</ele>
        <time>2021-10-08T09:40:43Z</time>
      </trkpt>
      <trkpt lat="44.88261" lon="5.33564">
        <ele>1519.2</ele>
        <time>2021-10-08T09:40:44Z</time>
      </trkpt>
      <trkpt lat="44.88261" lon="5.33566">
        <ele>1520</ele>
        <time>2021-10-08T09:40:45Z</time>
      </trkpt>
      <trkpt lat="44.88261" lon="5.33568">
        <ele>1520.2</ele>
        <time>2021-10-08T09:40:46Z</time>
      </trkpt>
      <trkpt lat="44.88261" lon="5.3357">
        <ele>1520.2</ele>
        <time>2021-10-08T09:40:47Z</time>
      </trkpt>
      <trkpt lat="44.8826" lon="5.33573">
        <ele>1520.2</ele>
        <time>2021-10-08T09:40:48Z</time>
      </trkpt>
      <trkpt lat="44.8826" lon="5.33575">
        <ele>1520.2</ele>
        <time>2021-10-08T09:40:49Z</time>
      </trkpt>
      <trkpt lat="44.88259" lon="5.33577">
        <ele>1521</ele>
        <time>2021-10-08T09:40:50Z</time>
      </trkpt>
      <trkpt lat="44.88259" lon="5.33579">
        <ele>1521</ele>
        <time>2021-10-08T09:40:51Z</time>
      </trkpt>
      <trkpt lat="44.88259" lon="5.33581">
        <ele>1521</ele>
        <time>2021-10-08T09:40:52Z</time>
      </trkpt>
      <trkpt lat="44.88258" lon="5.33583">
        <ele>1521</ele>
        <time>2021-10-08T09:40:53Z</time>
      </trkpt>
      <trkpt lat="44.88258" lon="5.33585">
        <ele>1521.6</ele>
        <time>2021-10-08T09:40:54Z</time>
      </trkpt>
      <trkpt lat="44.88258" lon="5.33588">
        <ele>1521.6</ele>
        <time>2021-10-08T09:40:55Z</time>
      </trkpt>
      <trkpt lat="44.88257" lon="5.3359">
        <ele>1521.6</ele>
        <time>2021-10-08T09:40:56Z</time>
      </trkpt>
      <trkpt lat="44.88257" lon="5.33593">
        <ele>1521.6</ele>
        <time>2021-10-08T09:40:57Z</time>
      </trkpt>
      <trkpt lat="44.88257" lon="5.33596">
        <ele>1521.4</ele>
        <time>2021-10-08T09:40:58Z</time>
      </trkpt>
      <trkpt lat="44.88257" lon="5.33599">
        <ele>1521.4</ele>
        <time>2021-10-08T09:40:59Z</time>
      </trkpt>
      <trkpt lat="44.88257" lon="5.33601">
        <ele>1521.4</ele>
        <time>2021-10-08T09:41:00Z</time>
      </trkpt>
      <trkpt lat="44.88256" lon="5.33604">
        <ele>1522</ele>
        <time>2021-10-08T09:41:01Z</time>
      </trkpt>
      <trkpt lat="44.88256" lon="5.33606">
        <ele>1521.8</ele>
        <time>2021-10-08T09:41:02Z</time>
      </trkpt>
      <trkpt lat="44.88256" lon="5.33609">
        <ele>1521.8</ele>
        <time>2021-10-08T09:41:03Z</time>
      </trkpt>
      <trkpt lat="44.88256" lon="5.33611">
        <ele>1521.8</ele>
        <time>2021-10-08T09:41:04Z</time>
      </trkpt>
      <trkpt lat="44.88256" lon="5.33614">
        <ele>1521.8</ele>
        <time>2021-10-08T09:41:05Z</time>
      </trkpt>
      <trkpt lat="44.88256" lon="5.33616">
        <ele>1522.4</ele>
        <time>2021-10-08T09:41:06Z</time>
      </trkpt>
      <trkpt lat="44.88256" lon="5.33619">
        <ele>1522.4</ele>
        <time>2021-10-08T09:41:07Z</time>
      </trkpt>
      <trkpt lat="44.88255" lon="5.33621">
        <ele>1522.4</ele>
        <time>2021-10-08T09:41:08Z</time>
      </trkpt>
      <trkpt lat="44.88255" lon="5.33624">
        <ele>1522.2</ele>
        <time>2021-10-08T09:41:09Z</time>
      </trkpt>
      <trkpt lat="44.88255" lon="5.33626">
        <ele>1522</ele>
        <time>2021-10-08T09:41:10Z</time>
      </trkpt>
      <trkpt lat="44.88255" lon="5.33628">
        <ele>1522</ele>
        <time>2021-10-08T09:41:11Z</time>
      </trkpt>
      <trkpt lat="44.88255" lon="5.33631">
        <ele>1522</ele>
        <time>2021-10-08T09:41:12Z</time>
      </trkpt>
      <trkpt lat="44.88255" lon="5.33634">
        <ele>1523</ele>
        <time>2021-10-08T09:41:13Z</time>
      </trkpt>
      <trkpt lat="44.88254" lon="5.33636">
        <ele>1523</ele>
        <time>2021-10-08T09:41:14Z</time>
      </trkpt>
      <trkpt lat="44.88254" lon="5.33639">
        <ele>1523</ele>
        <time>2021-10-08T09:41:15Z</time>
      </trkpt>
      <trkpt lat="44.88253" lon="5.33641">
        <ele>1523</ele>
        <time>2021-10-08T09:41:16Z</time>
      </trkpt>
      <trkpt lat="44.88253" lon="5.33644">
        <ele>1523.4</ele>
        <time>2021-10-08T09:41:17Z</time>
      </trkpt>
      <trkpt lat="44.88253" lon="5.33646">
        <ele>1523.8</ele>
        <time>2021-10-08T09:41:18Z</time>
      </trkpt>
      <trkpt lat="44.88253" lon="5.33648">
        <ele>1523.8</ele>
        <time>2021-10-08T09:41:19Z</time>
      </trkpt>
      <trkpt lat="44.88252" lon="5.3365">
        <ele>1523.8</ele>
        <time>2021-10-08T09:41:20Z</time>
      </trkpt>
      <trkpt lat="44.88252" lon="5.33652">
        <ele>1523.8</ele>
        <time>2021-10-08T09:41:21Z</time>
      </trkpt>
      <trkpt lat="44.88251" lon="5.33654">
        <ele>1524</ele>
        <time>2021-10-08T09:41:22Z</time>
      </trkpt>
      <trkpt lat="44.88251" lon="5.33656">
        <ele>1524</ele>
        <time>2021-10-08T09:41:23Z</time>
      </trkpt>
      <trkpt lat="44.88251" lon="5.33658">
        <ele>1524</ele>
        <time>2021-10-08T09:41:24Z</time>
      </trkpt>
      <trkpt lat="44.88251" lon="5.3366">
        <ele>1524</ele>
        <time>2021-10-08T09:41:25Z</time>
      </trkpt>
      <trkpt lat="44.88251" lon="5.33662">
        <ele>1524.2</ele>
        <time>2021-10-08T09:41:26Z</time>
      </trkpt>
      <trkpt lat="44.8825" lon="5.33664">
        <ele>1524.2</ele>
        <time>2021-10-08T09:41:27Z</time>
      </trkpt>
      <trkpt lat="44.8825" lon="5.33666">
        <ele>1524.2</ele>
        <time>2021-10-08T09:41:28Z</time>
      </trkpt>
      <trkpt lat="44.8825" lon="5.33668">
        <ele>1525.2</ele>
        <time>2021-10-08T09:41:29Z</time>
      </trkpt>
      <trkpt lat="44.88251" lon="5.3367">
        <ele>1525.4</ele>
        <time>2021-10-08T09:41:30Z</time>
      </trkpt>
      <trkpt lat="44.88251" lon="5.33672">
        <ele>1525.4</ele>
        <time>2021-10-08T09:41:31Z</time>
      </trkpt>
      <trkpt lat="44.88251" lon="5.33674">
        <ele>1525.4</ele>
        <time>2021-10-08T09:41:32Z</time>
      </trkpt>
      <trkpt lat="44.88251" lon="5.33675">
        <ele>1525.4</ele>
        <time>2021-10-08T09:41:33Z</time>
      </trkpt>
      <trkpt lat="44.88251" lon="5.33677">
        <ele>1526.2</ele>
        <time>2021-10-08T09:41:34Z</time>
      </trkpt>
      <trkpt lat="44.88251" lon="5.33678">
        <ele>1526.2</ele>
        <time>2021-10-08T09:41:35Z</time>
      </trkpt>
      <trkpt lat="44.88251" lon="5.33678">
        <ele>1526.2</ele>
        <time>2021-10-08T09:41:36Z</time>
      </trkpt>
      <trkpt lat="44.88251" lon="5.33678">
        <ele>1526.4</ele>
        <time>2021-10-08T09:41:37Z</time>
      </trkpt>
      <trkpt lat="44.88292" lon="5.33693">
        <ele>1534</ele>
        <time>2021-10-08T09:43:36Z</time>
      </trkpt>
      <trkpt lat="44.88293" lon="5.33693">
        <ele>1534</ele>
        <time>2021-10-08T09:43:37Z</time>
      </trkpt>
      <trkpt lat="44.88295" lon="5.33692">
        <ele>1534.4</ele>
        <time>2021-10-08T09:43:38Z</time>
      </trkpt>
      <trkpt lat="44.88297" lon="5.33692">
        <ele>1534.4</ele>
        <time>2021-10-08T09:43:39Z</time>
      </trkpt>
      <trkpt lat="44.88298" lon="5.33692">
        <ele>1534.4</ele>
        <time>2021-10-08T09:43:40Z</time>
      </trkpt>
      <trkpt lat="44.883" lon="5.33692">
        <ele>1534.4</ele>
        <time>2021-10-08T09:43:41Z</time>
      </trkpt>
      <trkpt lat="44.88302" lon="5.33692">
        <ele>1535</ele>
        <time>2021-10-08T09:43:42Z</time>
      </trkpt>
      <trkpt lat="44.88303" lon="5.33692">
        <ele>1535</ele>
        <time>2021-10-08T09:43:43Z</time>
      </trkpt>
      <trkpt lat="44.88304" lon="5.33693">
        <ele>1535</ele>
        <time>2021-10-08T09:43:44Z</time>
      </trkpt>
      <trkpt lat="44.88305" lon="5.33694">
        <ele>1535</ele>
        <time>2021-10-08T09:43:45Z</time>
      </trkpt>
      <trkpt lat="44.88306" lon="5.33695">
        <ele>1535</ele>
        <time>2021-10-08T09:43:46Z</time>
      </trkpt>
      <trkpt lat="44.88307" lon="5.33696">
        <ele>1533.6</ele>
        <time>2021-10-08T09:43:47Z</time>
      </trkpt>
      <trkpt lat="44.88309" lon="5.33697">
        <ele>1533.6</ele>
        <time>2021-10-08T09:43:48Z</time>
      </trkpt>
      <trkpt lat="44.88309" lon="5.33698">
        <ele>1534.6</ele>
        <time>2021-10-08T09:43:49Z</time>
      </trkpt>
      <trkpt lat="44.8831" lon="5.33698">
        <ele>1536</ele>
        <time>2021-10-08T09:43:50Z</time>
      </trkpt>
      <trkpt lat="44.88312" lon="5.33698">
        <ele>1536</ele>
        <time>2021-10-08T09:43:51Z</time>
      </trkpt>
      <trkpt lat="44.88312" lon="5.337">
        <ele>1536</ele>
        <time>2021-10-08T09:43:52Z</time>
      </trkpt>
      <trkpt lat="44.88313" lon="5.337">
        <ele>1536</ele>
        <time>2021-10-08T09:43:53Z</time>
      </trkpt>
      <trkpt lat="44.88314" lon="5.33701">
        <ele>1535.8</ele>
        <time>2021-10-08T09:43:54Z</time>
      </trkpt>
      <trkpt lat="44.88315" lon="5.33701">
        <ele>1535.8</ele>
        <time>2021-10-08T09:43:55Z</time>
      </trkpt>
      <trkpt lat="44.88316" lon="5.33702">
        <ele>1535.8</ele>
        <time>2021-10-08T09:43:56Z</time>
      </trkpt>
      <trkpt lat="44.88317" lon="5.33703">
        <ele>1536.6</ele>
        <time>2021-10-08T09:43:57Z</time>
      </trkpt>
      <trkpt lat="44.88318" lon="5.33703">
        <ele>1536.6</ele>
        <time>2021-10-08T09:43:58Z</time>
      </trkpt>
      <trkpt lat="44.88319" lon="5.33703">
        <ele>1536.6</ele>
        <time>2021-10-08T09:43:59Z</time>
      </trkpt>
      <trkpt lat="44.88319" lon="5.33704">
        <ele>1536.6</ele>
        <time>2021-10-08T09:44:00Z</time>
      </trkpt>
      <trkpt lat="44.88319" lon="5.33704">
        <ele>1536.6</ele>
        <time>2021-10-08T09:44:01Z</time>
      </trkpt>
      <trkpt lat="44.8832" lon="5.33704">
        <ele>1537.4</ele>
        <time>2021-10-08T09:44:02Z</time>
      </trkpt>
      <trkpt lat="44.88321" lon="5.33704">
        <ele>1537.4</ele>
        <time>2021-10-08T09:44:03Z</time>
      </trkpt>
      <trkpt lat="44.88322" lon="5.33705">
        <ele>1537.4</ele>
        <time>2021-10-08T09:44:04Z</time>
      </trkpt>
      <trkpt lat="44.88322" lon="5.33705">
        <ele>1536.8</ele>
        <time>2021-10-08T09:44:05Z</time>
      </trkpt>
      <trkpt lat="44.88323" lon="5.33705">
        <ele>1537.2</ele>
        <time>2021-10-08T09:44:06Z</time>
      </trkpt>
      <trkpt lat="44.88324" lon="5.33705">
        <ele>1537.2</ele>
        <time>2021-10-08T09:44:07Z</time>
      </trkpt>
      <trkpt lat="44.88325" lon="5.33706">
        <ele>1537.2</ele>
        <time>2021-10-08T09:44:08Z</time>
      </trkpt>
      <trkpt lat="44.88326" lon="5.33706">
        <ele>1537.4</ele>
        <time>2021-10-08T09:44:09Z</time>
      </trkpt>
      <trkpt lat="44.88326" lon="5.33706">
        <ele>1537.2</ele>
        <time>2021-10-08T09:44:10Z</time>
      </trkpt>
      <trkpt lat="44.88348" lon="5.33841">
        <ele>1548.6</ele>
        <time>2021-10-08T09:46:57Z</time>
      </trkpt>
      <trkpt lat="44.88347" lon="5.33843">
        <ele>1548.6</ele>
        <time>2021-10-08T09:46:58Z</time>
      </trkpt>
      <trkpt lat="44.88346" lon="5.33844">
        <ele>1548.6</ele>
        <time>2021-10-08T09:46:59Z</time>
      </trkpt>
      <trkpt lat="44.88346" lon="5.33846">
        <ele>1548.6</ele>
        <time>2021-10-08T09:47:00Z</time>
      </trkpt>
      <trkpt lat="44.88345" lon="5.33848">
        <ele>1548.6</ele>
        <time>2021-10-08T09:47:01Z</time>
      </trkpt>
      <trkpt lat="44.88345" lon="5.33849">
        <ele>1548.4</ele>
        <time>2021-10-08T09:47:02Z</time>
      </trkpt>
      <trkpt lat="44.88344" lon="5.33851">
        <ele>1548.4</ele>
        <time>2021-10-08T09:47:03Z</time>
      </trkpt>
      <trkpt lat="44.88344" lon="5.33853">
        <ele>1548.4</ele>
        <time>2021-10-08T09:47:04Z</time>
      </trkpt>
      <trkpt lat="44.88343" lon="5.33855">
        <ele>1548.6</ele>
        <time>2021-10-08T09:47:05Z</time>
      </trkpt>
      <trkpt lat="44.88343" lon="5.33857">
        <ele>1548.6</ele>
        <time>2021-10-08T09:47:06Z</time>
      </trkpt>
      <trkpt lat="44.88342" lon="5.3386">
        <ele>1548.6</ele>
        <time>2021-10-08T09:47:07Z</time>
      </trkpt>
      <trkpt lat="44.88342" lon="5.33862">
        <ele>1548.6</ele>
        <time>2021-10-08T09:47:08Z</time>
      </trkpt>
      <trkpt lat="44.88342" lon="5.33865">
        <ele>1548.6</ele>
        <time>2021-10-08T09:47:09Z</time>
      </trkpt>
      <trkpt lat="44.88342" lon="5.33867">
        <ele>1548.6</ele>
        <time>2021-10-08T09:47:10Z</time>
      </trkpt>
      <trkpt lat="44.88342" lon="5.33869">
        <ele>1548.6</ele>
        <time>2021-10-08T09:47:11Z</time>
      </trkpt>
      <trkpt lat="44.88342" lon="5.33871">
        <ele>1548.6</ele>
        <time>2021-10-08T09:47:12Z</time>
      </trkpt>
      <trkpt lat="44.88342" lon="5.33873">
        <ele>1548.8</ele>
        <time>2021-10-08T09:47:13Z</time>
      </trkpt>
      <trkpt lat="44.88343" lon="5.33875">
        <ele>1548.8</ele>
        <time>2021-10-08T09:47:14Z</time>
      </trkpt>
      <trkpt lat="44.88343" lon="5.33877">
        <ele>1548.8</ele>
        <time>2021-10-08T09:47:15Z</time>
      </trkpt>
      <trkpt lat="44.88344" lon="5.33879">
        <ele>1548.8</ele>
        <time>2021-10-08T09:47:16Z</time>
      </trkpt>
      <trkpt lat="44.88344" lon="5.3388">
        <ele>1548.8</ele>
        <time>2021-10-08T09:47:17Z</time>
      </trkpt>
      <trkpt lat="44.88345" lon="5.33883">
        <ele>1549</ele>
        <time>2021-10-08T09:47:18Z</time>
      </trkpt>
      <trkpt lat="44.88346" lon="5.33885">
        <ele>1549</ele>
        <time>2021-10-08T09:47:19Z</time>
      </trkpt>
      <trkpt lat="44.88346" lon="5.33887">
        <ele>1549</ele>
        <time>2021-10-08T09:47:20Z</time>
      </trkpt>
      <trkpt lat="44.88347" lon="5.33889">
        <ele>1549.8</ele>
        <time>2021-10-08T09:47:21Z</time>
      </trkpt>
      <trkpt lat="44.88347" lon="5.33891">
        <ele>1549.4</ele>
        <time>2021-10-08T09:47:22Z</time>
      </trkpt>
      <trkpt lat="44.88348" lon="5.33894">
        <ele>1549.4</ele>
        <time>2021-10-08T09:47:23Z</time>
      </trkpt>
      <trkpt lat="44.88348" lon="5.33896">
        <ele>1549.4</ele>
        <time>2021-10-08T09:47:24Z</time>
      </trkpt>
      <trkpt lat="44.88349" lon="5.33898">
        <ele>1550</ele>
        <time>2021-10-08T09:47:25Z</time>
      </trkpt>
      <trkpt lat="44.88349" lon="5.33901">
        <ele>1549.6</ele>
        <time>2021-10-08T09:47:26Z</time>
      </trkpt>
      <trkpt lat="44.88349" lon="5.33903">
        <ele>1549.6</ele>
        <time>2021-10-08T09:47:27Z</time>
      </trkpt>
      <trkpt lat="44.88349" lon="5.33906">
        <ele>1549.6</ele>
        <time>2021-10-08T09:47:28Z</time>
      </trkpt>
      <trkpt lat="44.8835" lon="5.33908">
        <ele>1549.8</ele>
        <time>2021-10-08T09:47:29Z</time>
      </trkpt>
      <trkpt lat="44.8835" lon="5.3391">
        <ele>1549.8</ele>
        <time>2021-10-08T09:47:30Z</time>
      </trkpt>
      <trkpt lat="44.88351" lon="5.33913">
        <ele>1549.8</ele>
        <time>2021-10-08T09:47:31Z</time>
      </trkpt>
      <trkpt lat="44.88351" lon="5.33916">
        <ele>1549.8</ele>
        <time>2021-10-08T09:47:32Z</time>
      </trkpt>
      <trkpt lat="44.88352" lon="5.33918">
        <ele>1549.6</ele>
        <time>2021-10-08T09:47:33Z</time>
      </trkpt>
      <trkpt lat="44.88352" lon="5.33921">
        <ele>1549.4</ele>
        <time>2021-10-08T09:47:34Z</time>
      </trkpt>
      <trkpt lat="44.88353" lon="5.33923">
        <ele>1549.4</ele>
        <time>2021-10-08T09:47:35Z</time>
      </trkpt>
      <trkpt lat="44.88353" lon="5.33926">
        <ele>1549.4</ele>
        <time>2021-10-08T09:47:36Z</time>
      </trkpt>
      <trkpt lat="44.88354" lon="5.33928">
        <ele>1550.2</ele>
        <time>2021-10-08T09:47:37Z</time>
      </trkpt>
      <trkpt lat="44.88355" lon="5.33931">
        <ele>1550</ele>
        <time>2021-10-08T09:47:38Z</time>
      </trkpt>
      <trkpt lat="44.88355" lon="5.33933">
        <ele>1550</ele>
        <time>2021-10-08T09:47:39Z</time>
      </trkpt>
      <trkpt lat="44.88356" lon="5.33936">
        <ele>1550</ele>
        <time>2021-10-08T09:47:40Z</time>
      </trkpt>
      <trkpt lat="44.88356" lon="5.33939">
        <ele>1550.4</ele>
        <time>2021-10-08T09:47:41Z</time>
      </trkpt>
      <trkpt lat="44.88357" lon="5.33941">
        <ele>1550.6</ele>
        <time>2021-10-08T09:47:42Z</time>
      </trkpt>
      <trkpt lat="44.88357" lon="5.33944">
        <ele>1550.6</ele>
        <time>2021-10-08T09:47:43Z</time>
      </trkpt>
      <trkpt lat="44.88358" lon="5.33946">
        <ele>1550.6</ele>
        <time>2021-10-08T09:47:44Z</time>
      </trkpt>
      <trkpt lat="44.88358" lon="5.33949">
        <ele>1550.6</ele>
        <time>2021-10-08T09:47:45Z</time>
      </trkpt>
      <trkpt lat="44.88358" lon="5.33951">
        <ele>1550.6</ele>
        <time>2021-10-08T09:47:46Z</time>
      </trkpt>
      <trkpt lat="44.88358" lon="5.33954">
        <ele>1550.6</ele>
        <time>2021-10-08T09:47:47Z</time>
      </trkpt>
      <trkpt lat="44.88358" lon="5.33957">
        <ele>1550.6</ele>
        <time>2021-10-08T09:47:48Z</time>
      </trkpt>
      <trkpt lat="44.88359" lon="5.33959">
        <ele>1550.6</ele>
        <time>2021-10-08T09:47:49Z</time>
      </trkpt>
      <trkpt lat="44.8836" lon="5.33961">
        <ele>1551</ele>
        <time>2021-10-08T09:47:50Z</time>
      </trkpt>
      <trkpt lat="44.8836" lon="5.33963">
        <ele>1551</ele>
        <time>2021-10-08T09:47:51Z</time>
      </trkpt>
      <trkpt lat="44.88361" lon="5.33966">
        <ele>1551</ele>
        <time>2021-10-08T09:47:52Z</time>
      </trkpt>
      <trkpt lat="44.88362" lon="5.33968">
        <ele>1551</ele>
        <time>2021-10-08T09:47:53Z</time>
      </trkpt>
      <trkpt lat="44.88362" lon="5.3397">
        <ele>1551</ele>
        <time>2021-10-08T09:47:54Z</time>
      </trkpt>
      <trkpt lat="44.88363" lon="5.33973">
        <ele>1551</ele>
        <time>2021-10-08T09:47:55Z</time>
      </trkpt>
      <trkpt lat="44.88363" lon="5.33975">
        <ele>1551</ele>
        <time>2021-10-08T09:47:56Z</time>
      </trkpt>
      <trkpt lat="44.88363" lon="5.33977">
        <ele>1551</ele>
        <time>2021-10-08T09:47:57Z</time>
      </trkpt>
      <trkpt lat="44.88363" lon="5.33979">
        <ele>1551.6</ele>
        <time>2021-10-08T09:47:58Z</time>
      </trkpt>
      <trkpt lat="44.88363" lon="5.33982">
        <ele>1551.6</ele>
        <time>2021-10-08T09:47:59Z</time>
      </trkpt>
      <trkpt lat="44.88364" lon="5.33984">
        <ele>1551.6</ele>
        <time>2021-10-08T09:48:00Z</time>
      </trkpt>
      <trkpt lat="44.88364" lon="5.33986">
        <ele>1551</ele>
        <time>2021-10-08T09:48:01Z</time>
      </trkpt>
      <trkpt lat="44.88364" lon="5.33989">
        <ele>1550.8</ele>
        <time>2021-10-08T09:48:02Z</time>
      </trkpt>
      <trkpt lat="44.88365" lon="5.33991">
        <ele>1550.8</ele>
        <time>2021-10-08T09:48:03Z</time>
      </trkpt>
      <trkpt lat="44.88366" lon="5.33993">
        <ele>1550.8</ele>
        <time>2021-10-08T09:48:04Z</time>
      </trkpt>
      <trkpt lat="44.88367" lon="5.33996">
        <ele>1550.8</ele>
        <time>2021-10-08T09:48:05Z</time>
      </trkpt>
      <trkpt lat="44.88368" lon="5.33998">
        <ele>1550.6</ele>
        <time>2021-10-08T09:48:06Z</time>
      </trkpt>
      <trkpt lat="44.88369" lon="5.34001">
        <ele>1550.6</ele>
        <time>2021-10-08T09:48:07Z</time>
      </trkpt>
      <trkpt lat="44.88371" lon="5.34003">
        <ele>1550.6</ele>
        <time>2021-10-08T09:48:08Z</time>
      </trkpt>
      <trkpt lat="44.88373" lon="5.34006">
        <ele>1550.2</ele>
        <time>2021-10-08T09:48:09Z</time>
      </trkpt>
      <trkpt lat="44.88374" lon="5.34009">
        <ele>1549.8</ele>
        <time>2021-10-08T09:48:10Z</time>
      </trkpt>
      <trkpt lat="44.88376" lon="5.34012">
        <ele>1549.8</ele>
        <time>2021-10-08T09:48:11Z</time>
      </trkpt>
      <trkpt lat="44.88377" lon="5.34014">
        <ele>1549.8</ele>
        <time>2021-10-08T09:48:12Z</time>
      </trkpt>
      <trkpt lat="44.88379" lon="5.34017">
        <ele>1549.8</ele>
        <time>2021-10-08T09:48:13Z</time>
      </trkpt>
      <trkpt lat="44.8838" lon="5.3402">
        <ele>1549.2</ele>
        <time>2021-10-08T09:48:14Z</time>
      </trkpt>
      <trkpt lat="44.88381" lon="5.34023">
        <ele>1549.2</ele>
        <time>2021-10-08T09:48:15Z</time>
      </trkpt>
      <trkpt lat="44.88383" lon="5.34026">
        <ele>1549.2</ele>
        <time>2021-10-08T09:48:16Z</time>
      </trkpt>
      <trkpt lat="44.88385" lon="5.34029">
        <ele>1549.2</ele>
        <time>2021-10-08T09:48:17Z</time>
      </trkpt>
      <trkpt lat="44.88387" lon="5.34032">
        <ele>1548.6</ele>
        <time>2021-10-08T09:48:18Z</time>
      </trkpt>
      <trkpt lat="44.88389" lon="5.34035">
        <ele>1548.6</ele>
        <time>2021-10-08T09:48:19Z</time>
      </trkpt>
      <trkpt lat="44.88391" lon="5.34038">
        <ele>1548.6</ele>
        <time>2021-10-08T09:48:20Z</time>
      </trkpt>
      <trkpt lat="44.88392" lon="5.34042">
        <ele>1548</ele>
        <time>2021-10-08T09:48:21Z</time>
      </trkpt>
      <trkpt lat="44.88394" lon="5.34045">
        <ele>1546.6</ele>
        <time>2021-10-08T09:48:22Z</time>
      </trkpt>
      <trkpt lat="44.88396" lon="5.34049">
        <ele>1546.6</ele>
        <time>2021-10-08T09:48:23Z</time>
      </trkpt>
      <trkpt lat="44.88397" lon="5.34053">
        <ele>1546.6</ele>
        <time>2021-10-08T09:48:24Z</time>
      </trkpt>
      <trkpt lat="44.88399" lon="5.34056">
        <ele>1546.6</ele>
        <time>2021-10-08T09:48:25Z</time>
      </trkpt>
      <trkpt lat="44.88402" lon="5.3406">
        <ele>1547.4</ele>
        <time>2021-10-08T09:48:26Z</time>
      </trkpt>
      <trkpt lat="44.88404" lon="5.34063">
        <ele>1547.4</ele>
        <time>2021-10-08T09:48:27Z</time>
      </trkpt>
      <trkpt lat="44.88407" lon="5.34066">
        <ele>1547.4</ele>
        <time>2021-10-08T09:48:28Z</time>
      </trkpt>
      <trkpt lat="44.88409" lon="5.34069">
        <ele>1546.4</ele>
        <time>2021-10-08T09:48:29Z</time>
      </trkpt>
      <trkpt lat="44.88412" lon="5.34072">
        <ele>1547.2</ele>
        <time>2021-10-08T09:48:30Z</time>
      </trkpt>
      <trkpt lat="44.88415" lon="5.34074">
        <ele>1547.2</ele>
        <time>2021-10-08T09:48:31Z</time>
      </trkpt>
      <trkpt lat="44.88418" lon="5.34077">
        <ele>1547.2</ele>
        <time>2021-10-08T09:48:32Z</time>
      </trkpt>
      <trkpt lat="44.8842" lon="5.34079">
        <ele>1546.2</ele>
        <time>2021-10-08T09:48:33Z</time>
      </trkpt>
      <trkpt lat="44.88423" lon="5.34081">
        <ele>1546</ele>
        <time>2021-10-08T09:48:34Z</time>
      </trkpt>
      <trkpt lat="44.88427" lon="5.34083">
        <ele>1546</ele>
        <time>2021-10-08T09:48:35Z</time>
      </trkpt>
      <trkpt lat="44.88429" lon="5.34084">
        <ele>1546</ele>
        <time>2021-10-08T09:48:36Z</time>
      </trkpt>
      <trkpt lat="44.88432" lon="5.34087">
        <ele>1545</ele>
        <time>2021-10-08T09:48:37Z</time>
      </trkpt>
      <trkpt lat="44.88435" lon="5.34088">
        <ele>1546</ele>
        <time>2021-10-08T09:48:38Z</time>
      </trkpt>
      <trkpt lat="44.88438" lon="5.3409">
        <ele>1546</ele>
        <time>2021-10-08T09:48:39Z</time>
      </trkpt>
      <trkpt lat="44.88441" lon="5.34091">
        <ele>1546</ele>
        <time>2021-10-08T09:48:40Z</time>
      </trkpt>
      <trkpt lat="44.88444" lon="5.34091">
        <ele>1545</ele>
        <time>2021-10-08T09:48:41Z</time>
      </trkpt>
      <trkpt lat="44.88446" lon="5.34092">
        <ele>1545</ele>
        <time>2021-10-08T09:48:42Z</time>
      </trkpt>
      <trkpt lat="44.88449" lon="5.34093">
        <ele>1545</ele>
        <time>2021-10-08T09:48:43Z</time>
      </trkpt>
      <trkpt lat="44.88452" lon="5.34095">
        <ele>1545</ele>
        <time>2021-10-08T09:48:44Z</time>
      </trkpt>
      <trkpt lat="44.88456" lon="5.34097">
        <ele>1544.6</ele>
        <time>2021-10-08T09:48:45Z</time>
      </trkpt>
      <trkpt lat="44.88458" lon="5.34099">
        <ele>1544</ele>
        <time>2021-10-08T09:48:46Z</time>
      </trkpt>
      <trkpt lat="44.88461" lon="5.34101">
        <ele>1544</ele>
        <time>2021-10-08T09:48:47Z</time>
      </trkpt>
      <trkpt lat="44.88462" lon="5.34103">
        <ele>1544</ele>
        <time>2021-10-08T09:48:48Z</time>
      </trkpt>
      <trkpt lat="44.88464" lon="5.34105">
        <ele>1544</ele>
        <time>2021-10-08T09:48:49Z</time>
      </trkpt>
      <trkpt lat="44.88465" lon="5.34106">
        <ele>1545</ele>
        <time>2021-10-08T09:48:50Z</time>
      </trkpt>
      <trkpt lat="44.88466" lon="5.34107">
        <ele>1545</ele>
        <time>2021-10-08T09:48:51Z</time>
      </trkpt>
      <trkpt lat="44.88466" lon="5.34108">
        <ele>1545</ele>
        <time>2021-10-08T09:48:52Z</time>
      </trkpt>
      <trkpt lat="44.88467" lon="5.34109">
        <ele>1545</ele>
        <time>2021-10-08T09:48:53Z</time>
      </trkpt>
      <trkpt lat="44.88469" lon="5.3411">
        <ele>1544.2</ele>
        <time>2021-10-08T09:48:54Z</time>
      </trkpt>
      <trkpt lat="44.88471" lon="5.34111">
        <ele>1544.2</ele>
        <time>2021-10-08T09:48:55Z</time>
      </trkpt>
      <trkpt lat="44.88473" lon="5.34112">
        <ele>1544.2</ele>
        <time>2021-10-08T09:48:56Z</time>
      </trkpt>
      <trkpt lat="44.88474" lon="5.34114">
        <ele>1544.2</ele>
        <time>2021-10-08T09:48:57Z</time>
      </trkpt>
      <trkpt lat="44.88476" lon="5.34116">
        <ele>1543.6</ele>
        <time>2021-10-08T09:48:58Z</time>
      </trkpt>
      <trkpt lat="44.88478" lon="5.34118">
        <ele>1543.6</ele>
        <time>2021-10-08T09:48:59Z</time>
      </trkpt>
      <trkpt lat="44.8848" lon="5.34119">
        <ele>1543.6</ele>
        <time>2021-10-08T09:49:00Z</time>
      </trkpt>
      <trkpt lat="44.88482" lon="5.3412">
        <ele>1543.6</ele>
        <time>2021-10-08T09:49:01Z</time>
      </trkpt>
      <trkpt lat="44.88483" lon="5.34122">
        <ele>1543.8</ele>
        <time>2021-10-08T09:49:02Z</time>
      </trkpt>
      <trkpt lat="44.88484" lon="5.34123">
        <ele>1543.8</ele>
        <time>2021-10-08T09:49:03Z</time>
      </trkpt>
      <trkpt lat="44.88485" lon="5.34125">
        <ele>1543.8</ele>
        <time>2021-10-08T09:49:04Z</time>
      </trkpt>
      <trkpt lat="44.88487" lon="5.34127">
        <ele>1543.8</ele>
        <time>2021-10-08T09:49:05Z</time>
      </trkpt>
      <trkpt lat="44.88489" lon="5.34128">
        <ele>1544</ele>
        <time>2021-10-08T09:49:06Z</time>
      </trkpt>
      <trkpt lat="44.88491" lon="5.34129">
        <ele>1544</ele>
        <time>2021-10-08T09:49:07Z</time>
      </trkpt>
      <trkpt lat="44.88492" lon="5.34131">
        <ele>1544</ele>
        <time>2021-10-08T09:49:08Z</time>
      </trkpt>
      <trkpt lat="44.88494" lon="5.34134">
        <ele>1544.8</ele>
        <time>2021-10-08T09:49:09Z</time>
      </trkpt>
      <trkpt lat="44.88495" lon="5.34135">
        <ele>1544</ele>
        <time>2021-10-08T09:49:10Z</time>
      </trkpt>
      <trkpt lat="44.88496" lon="5.34137">
        <ele>1544</ele>
        <time>2021-10-08T09:49:11Z</time>
      </trkpt>
      <trkpt lat="44.88498" lon="5.3414">
        <ele>1544</ele>
        <time>2021-10-08T09:49:12Z</time>
      </trkpt>
      <trkpt lat="44.88499" lon="5.34143">
        <ele>1544</ele>
        <time>2021-10-08T09:49:13Z</time>
      </trkpt>
      <trkpt lat="44.885" lon="5.34146">
        <ele>1544.2</ele>
        <time>2021-10-08T09:49:14Z</time>
      </trkpt>
      <trkpt lat="44.88502" lon="5.34149">
        <ele>1544.2</ele>
        <time>2021-10-08T09:49:15Z</time>
      </trkpt>
      <trkpt lat="44.88504" lon="5.34152">
        <ele>1544.2</ele>
        <time>2021-10-08T09:49:16Z</time>
      </trkpt>
      <trkpt lat="44.88506" lon="5.34155">
        <ele>1544.2</ele>
        <time>2021-10-08T09:49:17Z</time>
      </trkpt>
      <trkpt lat="44.88508" lon="5.34157">
        <ele>1543.6</ele>
        <time>2021-10-08T09:49:18Z</time>
      </trkpt>
      <trkpt lat="44.88509" lon="5.34159">
        <ele>1543.6</ele>
        <time>2021-10-08T09:49:19Z</time>
      </trkpt>
      <trkpt lat="44.88511" lon="5.34161">
        <ele>1543.6</ele>
        <time>2021-10-08T09:49:20Z</time>
      </trkpt>
      <trkpt lat="44.88513" lon="5.34162">
        <ele>1543.6</ele>
        <time>2021-10-08T09:49:21Z</time>
      </trkpt>
      <trkpt lat="44.88514" lon="5.34165">
        <ele>1543.6</ele>
        <time>2021-10-08T09:49:22Z</time>
      </trkpt>
      <trkpt lat="44.88516" lon="5.34167">
        <ele>1543.6</ele>
        <time>2021-10-08T09:49:23Z</time>
      </trkpt>
      <trkpt lat="44.88518" lon="5.34169">
        <ele>1543.6</ele>
        <time>2021-10-08T09:49:24Z</time>
      </trkpt>
      <trkpt lat="44.8852" lon="5.34172">
        <ele>1543.2</ele>
        <time>2021-10-08T09:49:25Z</time>
      </trkpt>
      <trkpt lat="44.88522" lon="5.34174">
        <ele>1543.6</ele>
        <time>2021-10-08T09:49:26Z</time>
      </trkpt>
      <trkpt lat="44.88523" lon="5.34177">
        <ele>1543.6</ele>
        <time>2021-10-08T09:49:27Z</time>
      </trkpt>
      <trkpt lat="44.88525" lon="5.34179">
        <ele>1543.6</ele>
        <time>2021-10-08T09:49:28Z</time>
      </trkpt>
      <trkpt lat="44.88526" lon="5.34182">
        <ele>1543.4</ele>
        <time>2021-10-08T09:49:29Z</time>
      </trkpt>
      <trkpt lat="44.88527" lon="5.34184">
        <ele>1543.2</ele>
        <time>2021-10-08T09:49:30Z</time>
      </trkpt>
      <trkpt lat="44.88529" lon="5.34185">
        <ele>1543.2</ele>
        <time>2021-10-08T09:49:31Z</time>
      </trkpt>
      <trkpt lat="44.88531" lon="5.34186">
        <ele>1543.2</ele>
        <time>2021-10-08T09:49:32Z</time>
      </trkpt>
      <trkpt lat="44.88532" lon="5.34188">
        <ele>1543.4</ele>
        <time>2021-10-08T09:49:33Z</time>
      </trkpt>
      <trkpt lat="44.88534" lon="5.34191">
        <ele>1543</ele>
        <time>2021-10-08T09:49:34Z</time>
      </trkpt>
      <trkpt lat="44.88535" lon="5.34193">
        <ele>1543</ele>
        <time>2021-10-08T09:49:35Z</time>
      </trkpt>
      <trkpt lat="44.88537" lon="5.34195">
        <ele>1543</ele>
        <time>2021-10-08T09:49:36Z</time>
      </trkpt>
      <trkpt lat="44.88539" lon="5.34198">
        <ele>1543</ele>
        <time>2021-10-08T09:49:37Z</time>
      </trkpt>
      <trkpt lat="44.88541" lon="5.342">
        <ele>1543</ele>
        <time>2021-10-08T09:49:38Z</time>
      </trkpt>
      <trkpt lat="44.88543" lon="5.34202">
        <ele>1543</ele>
        <time>2021-10-08T09:49:39Z</time>
      </trkpt>
      <trkpt lat="44.88544" lon="5.34206">
        <ele>1543</ele>
        <time>2021-10-08T09:49:40Z</time>
      </trkpt>
      <trkpt lat="44.88544" lon="5.34209">
        <ele>1543</ele>
        <time>2021-10-08T09:49:41Z</time>
      </trkpt>
      <trkpt lat="44.88544" lon="5.34211">
        <ele>1542.8</ele>
        <time>2021-10-08T09:49:42Z</time>
      </trkpt>
      <trkpt lat="44.88544" lon="5.34214">
        <ele>1542.8</ele>
        <time>2021-10-08T09:49:43Z</time>
      </trkpt>
      <trkpt lat="44.88544" lon="5.34218">
        <ele>1542.8</ele>
        <time>2021-10-08T09:49:44Z</time>
      </trkpt>
      <trkpt lat="44.88545" lon="5.34221">
        <ele>1542.8</ele>
        <time>2021-10-08T09:49:45Z</time>
      </trkpt>
      <trkpt lat="44.88545" lon="5.34224">
        <ele>1543</ele>
        <time>2021-10-08T09:49:46Z</time>
      </trkpt>
      <trkpt lat="44.88545" lon="5.34227">
        <ele>1543</ele>
        <time>2021-10-08T09:49:47Z</time>
      </trkpt>
      <trkpt lat="44.88546" lon="5.3423">
        <ele>1543</ele>
        <time>2021-10-08T09:49:48Z</time>
      </trkpt>
      <trkpt lat="44.88546" lon="5.34233">
        <ele>1543.4</ele>
        <time>2021-10-08T09:49:49Z</time>
      </trkpt>
      <trkpt lat="44.88547" lon="5.34236">
        <ele>1543.4</ele>
        <time>2021-10-08T09:49:50Z</time>
      </trkpt>
      <trkpt lat="44.88547" lon="5.34239">
        <ele>1543.4</ele>
        <time>2021-10-08T09:49:51Z</time>
      </trkpt>
      <trkpt lat="44.88548" lon="5.34242">
        <ele>1543.4</ele>
        <time>2021-10-08T09:49:52Z</time>
      </trkpt>
      <trkpt lat="44.88548" lon="5.34245">
        <ele>1543.4</ele>
        <time>2021-10-08T09:49:53Z</time>
      </trkpt>
      <trkpt lat="44.88548" lon="5.34247">
        <ele>1542.6</ele>
        <time>2021-10-08T09:49:54Z</time>
      </trkpt>
      <trkpt lat="44.88548" lon="5.3425">
        <ele>1542.6</ele>
        <time>2021-10-08T09:49:55Z</time>
      </trkpt>
      <trkpt lat="44.88549" lon="5.34253">
        <ele>1542.6</ele>
        <time>2021-10-08T09:49:56Z</time>
      </trkpt>
      <trkpt lat="44.88548" lon="5.34255">
        <ele>1543.2</ele>
        <time>2021-10-08T09:49:57Z</time>
      </trkpt>
      <trkpt lat="44.88547" lon="5.34257">
        <ele>1543</ele>
        <time>2021-10-08T09:49:58Z</time>
      </trkpt>
      <trkpt lat="44.88547" lon="5.3426">
        <ele>1543</ele>
        <time>2021-10-08T09:49:59Z</time>
      </trkpt>
      <trkpt lat="44.88546" lon="5.34262">
        <ele>1543</ele>
        <time>2021-10-08T09:50:00Z</time>
      </trkpt>
      <trkpt lat="44.88546" lon="5.34265">
        <ele>1542.2</ele>
        <time>2021-10-08T09:50:01Z</time>
      </trkpt>
      <trkpt lat="44.88546" lon="5.34268">
        <ele>1542.2</ele>
        <time>2021-10-08T09:50:02Z</time>
      </trkpt>
      <trkpt lat="44.88546" lon="5.34271">
        <ele>1542.2</ele>
        <time>2021-10-08T09:50:03Z</time>
      </trkpt>
      <trkpt lat="44.88545" lon="5.34274">
        <ele>1542.2</ele>
        <time>2021-10-08T09:50:04Z</time>
      </trkpt>
      <trkpt lat="44.88545" lon="5.34277">
        <ele>1542.2</ele>
        <time>2021-10-08T09:50:05Z</time>
      </trkpt>
      <trkpt lat="44.88544" lon="5.34281">
        <ele>1540.8</ele>
        <time>2021-10-08T09:50:06Z</time>
      </trkpt>
      <trkpt lat="44.88543" lon="5.34285">
        <ele>1540.8</ele>
        <time>2021-10-08T09:50:07Z</time>
      </trkpt>
      <trkpt lat="44.88543" lon="5.34289">
        <ele>1540.8</ele>
        <time>2021-10-08T09:50:08Z</time>
      </trkpt>
      <trkpt lat="44.88543" lon="5.34294">
        <ele>1540.8</ele>
        <time>2021-10-08T09:50:09Z</time>
      </trkpt>
      <trkpt lat="44.88543" lon="5.34298">
        <ele>1540.4</ele>
        <time>2021-10-08T09:50:10Z</time>
      </trkpt>
      <trkpt lat="44.88544" lon="5.34302">
        <ele>1540.4</ele>
        <time>2021-10-08T09:50:11Z</time>
      </trkpt>
      <trkpt lat="44.88544" lon="5.34304">
        <ele>1540.4</ele>
        <time>2021-10-08T09:50:12Z</time>
      </trkpt>
      <trkpt lat="44.88544" lon="5.34305">
        <ele>1541</ele>
        <time>2021-10-08T09:50:13Z</time>
      </trkpt>
      <trkpt lat="44.88547" lon="5.3432">
        <ele>1543</ele>
        <time>2021-10-08T09:50:28Z</time>
      </trkpt>
      <trkpt lat="44.88548" lon="5.34322">
        <ele>1543</ele>
        <time>2021-10-08T09:50:29Z</time>
      </trkpt>
      <trkpt lat="44.88549" lon="5.34323">
        <ele>1542.8</ele>
        <time>2021-10-08T09:50:30Z</time>
      </trkpt>
      <trkpt lat="44.88549" lon="5.34325">
        <ele>1542.8</ele>
        <time>2021-10-08T09:50:31Z</time>
      </trkpt>
      <trkpt lat="44.8855" lon="5.34326">
        <ele>1542.8</ele>
        <time>2021-10-08T09:50:32Z</time>
      </trkpt>
      <trkpt lat="44.8855" lon="5.34328">
        <ele>1543.4</ele>
        <time>2021-10-08T09:50:33Z</time>
      </trkpt>
      <trkpt lat="44.88551" lon="5.34329">
        <ele>1543.4</ele>
        <time>2021-10-08T09:50:34Z</time>
      </trkpt>
      <trkpt lat="44.88551" lon="5.3433">
        <ele>1543.4</ele>
        <time>2021-10-08T09:50:35Z</time>
      </trkpt>
      <trkpt lat="44.88552" lon="5.34331">
        <ele>1543.4</ele>
        <time>2021-10-08T09:50:36Z</time>
      </trkpt>
      <trkpt lat="44.88552" lon="5.34332">
        <ele>1543.4</ele>
        <time>2021-10-08T09:50:37Z</time>
      </trkpt>
      <trkpt lat="44.88552" lon="5.34333">
        <ele>1544.6</ele>
        <time>2021-10-08T09:50:38Z</time>
      </trkpt>
      <trkpt lat="44.88552" lon="5.34334">
        <ele>1544.6</ele>
        <time>2021-10-08T09:50:39Z</time>
      </trkpt>
      <trkpt lat="44.88552" lon="5.34335">
        <ele>1544.6</ele>
        <time>2021-10-08T09:50:40Z</time>
      </trkpt>
      <trkpt lat="44.88552" lon="5.34336">
        <ele>1544.6</ele>
        <time>2021-10-08T09:50:41Z</time>
      </trkpt>
      <trkpt lat="44.88552" lon="5.34337">
        <ele>1545.2</ele>
        <time>2021-10-08T09:50:42Z</time>
      </trkpt>
      <trkpt lat="44.88552" lon="5.34338">
        <ele>1545.2</ele>
        <time>2021-10-08T09:50:43Z</time>
      </trkpt>
      <trkpt lat="44.88552" lon="5.34339">
        <ele>1545.2</ele>
        <time>2021-10-08T09:50:44Z</time>
      </trkpt>
      <trkpt lat="44.88552" lon="5.34339">
        <ele>1545.2</ele>
        <time>2021-10-08T09:50:45Z</time>
      </trkpt>
      <trkpt lat="44.88552" lon="5.3434">
        <ele>1545.8</ele>
        <time>2021-10-08T09:50:46Z</time>
      </trkpt>
      <trkpt lat="44.88552" lon="5.34341">
        <ele>1545.8</ele>
        <time>2021-10-08T09:50:47Z</time>
      </trkpt>
      <trkpt lat="44.88551" lon="5.34342">
        <ele>1545.8</ele>
        <time>2021-10-08T09:50:48Z</time>
      </trkpt>
      <trkpt lat="44.88551" lon="5.34343">
        <ele>1545.8</ele>
        <time>2021-10-08T09:50:49Z</time>
      </trkpt>
      <trkpt lat="44.88551" lon="5.34343">
        <ele>1545.6</ele>
        <time>2021-10-08T09:50:50Z</time>
      </trkpt>
      <trkpt lat="44.8855" lon="5.34344">
        <ele>1545.6</ele>
        <time>2021-10-08T09:50:51Z</time>
      </trkpt>
      <trkpt lat="44.8855" lon="5.34345">
        <ele>1545.6</ele>
        <time>2021-10-08T09:50:52Z</time>
      </trkpt>
      <trkpt lat="44.88549" lon="5.34346">
        <ele>1545.6</ele>
        <time>2021-10-08T09:50:53Z</time>
      </trkpt>
      <trkpt lat="44.88549" lon="5.34348">
        <ele>1546</ele>
        <time>2021-10-08T09:50:54Z</time>
      </trkpt>
      <trkpt lat="44.88548" lon="5.34349">
        <ele>1546</ele>
        <time>2021-10-08T09:50:55Z</time>
      </trkpt>
      <trkpt lat="44.88545" lon="5.3436">
        <ele>1545.8</ele>
        <time>2021-10-08T09:51:04Z</time>
      </trkpt>
      <trkpt lat="44.88545" lon="5.34363">
        <ele>1545.2</ele>
        <time>2021-10-08T09:51:05Z</time>
      </trkpt>
      <trkpt lat="44.88544" lon="5.34367">
        <ele>1544.2</ele>
        <time>2021-10-08T09:51:06Z</time>
      </trkpt>
      <trkpt lat="44.88544" lon="5.34371">
        <ele>1544.2</ele>
        <time>2021-10-08T09:51:07Z</time>
      </trkpt>
      <trkpt lat="44.88545" lon="5.34374">
        <ele>1544.2</ele>
        <time>2021-10-08T09:51:08Z</time>
      </trkpt>
      <trkpt lat="44.88545" lon="5.34378">
        <ele>1543.6</ele>
        <time>2021-10-08T09:51:09Z</time>
      </trkpt>
      <trkpt lat="44.88546" lon="5.34381">
        <ele>1543.4</ele>
        <time>2021-10-08T09:51:10Z</time>
      </trkpt>
      <trkpt lat="44.88547" lon="5.34385">
        <ele>1543.4</ele>
        <time>2021-10-08T09:51:11Z</time>
      </trkpt>
      <trkpt lat="44.88548" lon="5.34389">
        <ele>1543.4</ele>
        <time>2021-10-08T09:51:12Z</time>
      </trkpt>
      <trkpt lat="44.88549" lon="5.34392">
        <ele>1543.4</ele>
        <time>2021-10-08T09:51:13Z</time>
      </trkpt>
      <trkpt lat="44.88549" lon="5.34395">
        <ele>1543.2</ele>
        <time>2021-10-08T09:51:14Z</time>
      </trkpt>
      <trkpt lat="44.8855" lon="5.34398">
        <ele>1543.2</ele>
        <time>2021-10-08T09:51:15Z</time>
      </trkpt>
      <trkpt lat="44.8855" lon="5.344">
        <ele>1543.2</ele>
        <time>2021-10-08T09:51:16Z</time>
      </trkpt>
      <trkpt lat="44.8855" lon="5.34403">
        <ele>1544</ele>
        <time>2021-10-08T09:51:17Z</time>
      </trkpt>
      <trkpt lat="44.88551" lon="5.34405">
        <ele>1543.2</ele>
        <time>2021-10-08T09:51:18Z</time>
      </trkpt>
      <trkpt lat="44.88552" lon="5.34408">
        <ele>1543.2</ele>
        <time>2021-10-08T09:51:19Z</time>
      </trkpt>
      <trkpt lat="44.88552" lon="5.34412">
        <ele>1543.2</ele>
        <time>2021-10-08T09:51:20Z</time>
      </trkpt>
      <trkpt lat="44.88552" lon="5.34414">
        <ele>1544</ele>
        <time>2021-10-08T09:51:21Z</time>
      </trkpt>
      <trkpt lat="44.88552" lon="5.34417">
        <ele>1544.6</ele>
        <time>2021-10-08T09:51:22Z</time>
      </trkpt>
      <trkpt lat="44.88551" lon="5.3442">
        <ele>1544.6</ele>
        <time>2021-10-08T09:51:23Z</time>
      </trkpt>
      <trkpt lat="44.88551" lon="5.34423">
        <ele>1544.6</ele>
        <time>2021-10-08T09:51:24Z</time>
      </trkpt>
      <trkpt lat="44.88551" lon="5.34426">
        <ele>1545.4</ele>
        <time>2021-10-08T09:51:25Z</time>
      </trkpt>
      <trkpt lat="44.88551" lon="5.34429">
        <ele>1545.4</ele>
        <time>2021-10-08T09:51:26Z</time>
      </trkpt>
      <trkpt lat="44.8855" lon="5.34431">
        <ele>1545.4</ele>
        <time>2021-10-08T09:51:27Z</time>
      </trkpt>
      <trkpt lat="44.8855" lon="5.34434">
        <ele>1545.4</ele>
        <time>2021-10-08T09:51:28Z</time>
      </trkpt>
      <trkpt lat="44.88551" lon="5.34437">
        <ele>1545.4</ele>
        <time>2021-10-08T09:51:29Z</time>
      </trkpt>
      <trkpt lat="44.88551" lon="5.34439">
        <ele>1545.4</ele>
        <time>2021-10-08T09:51:30Z</time>
      </trkpt>
      <trkpt lat="44.88551" lon="5.3444">
        <ele>1546.2</ele>
        <time>2021-10-08T09:51:31Z</time>
      </trkpt>
      <trkpt lat="44.88551" lon="5.3444">
        <ele>1546.2</ele>
        <time>2021-10-08T09:51:32Z</time>
      </trkpt>
      <trkpt lat="44.88548" lon="5.34452">
        <ele>1546.8</ele>
        <time>2021-10-08T09:51:41Z</time>
      </trkpt>
      <trkpt lat="44.88548" lon="5.34453">
        <ele>1547.2</ele>
        <time>2021-10-08T09:51:42Z</time>
      </trkpt>
      <trkpt lat="44.88548" lon="5.34455">
        <ele>1547.2</ele>
        <time>2021-10-08T09:51:43Z</time>
      </trkpt>
      <trkpt lat="44.88548" lon="5.34456">
        <ele>1547.2</ele>
        <time>2021-10-08T09:51:44Z</time>
      </trkpt>
      <trkpt lat="44.88548" lon="5.34458">
        <ele>1547.2</ele>
        <time>2021-10-08T09:51:45Z</time>
      </trkpt>
      <trkpt lat="44.88548" lon="5.3446">
        <ele>1546.8</ele>
        <time>2021-10-08T09:51:46Z</time>
      </trkpt>
      <trkpt lat="44.88548" lon="5.34461">
        <ele>1546.8</ele>
        <time>2021-10-08T09:51:47Z</time>
      </trkpt>
      <trkpt lat="44.88548" lon="5.34463">
        <ele>1546.8</ele>
        <time>2021-10-08T09:51:48Z</time>
      </trkpt>
      <trkpt lat="44.88547" lon="5.34465">
        <ele>1547.8</ele>
        <time>2021-10-08T09:51:49Z</time>
      </trkpt>
      <trkpt lat="44.88547" lon="5.34467">
        <ele>1547.6</ele>
        <time>2021-10-08T09:51:50Z</time>
      </trkpt>
      <trkpt lat="44.88547" lon="5.34469">
        <ele>1547.6</ele>
        <time>2021-10-08T09:51:51Z</time>
      </trkpt>
      <trkpt lat="44.88547" lon="5.3447">
        <ele>1547.6</ele>
        <time>2021-10-08T09:51:52Z</time>
      </trkpt>
      <trkpt lat="44.88547" lon="5.34472">
        <ele>1547.6</ele>
        <time>2021-10-08T09:51:53Z</time>
      </trkpt>
      <trkpt lat="44.88547" lon="5.34474">
        <ele>1547.6</ele>
        <time>2021-10-08T09:51:54Z</time>
      </trkpt>
      <trkpt lat="44.88547" lon="5.34475">
        <ele>1547.6</ele>
        <time>2021-10-08T09:51:55Z</time>
      </trkpt>
      <trkpt lat="44.88547" lon="5.34477">
        <ele>1547.6</ele>
        <time>2021-10-08T09:51:56Z</time>
      </trkpt>
      <trkpt lat="44.88547" lon="5.34478">
        <ele>1547.6</ele>
        <time>2021-10-08T09:51:57Z</time>
      </trkpt>
      <trkpt lat="44.88546" lon="5.3448">
        <ele>1548.4</ele>
        <time>2021-10-08T09:51:58Z</time>
      </trkpt>
      <trkpt lat="44.88545" lon="5.34481">
        <ele>1548.4</ele>
        <time>2021-10-08T09:51:59Z</time>
      </trkpt>
      <trkpt lat="44.88545" lon="5.34483">
        <ele>1548.4</ele>
        <time>2021-10-08T09:52:00Z</time>
      </trkpt>
      <trkpt lat="44.88544" lon="5.34484">
        <ele>1548.4</ele>
        <time>2021-10-08T09:52:01Z</time>
      </trkpt>
      <trkpt lat="44.88543" lon="5.34485">
        <ele>1549.4</ele>
        <time>2021-10-08T09:52:02Z</time>
      </trkpt>
      <trkpt lat="44.88543" lon="5.34486">
        <ele>1549.4</ele>
        <time>2021-10-08T09:52:03Z</time>
      </trkpt>
      <trkpt lat="44.88543" lon="5.34487">
        <ele>1549.4</ele>
        <time>2021-10-08T09:52:04Z</time>
      </trkpt>
      <trkpt lat="44.88542" lon="5.34487">
        <ele>1549.4</ele>
        <time>2021-10-08T09:52:05Z</time>
      </trkpt>
      <trkpt lat="44.88542" lon="5.34487">
        <ele>1549.4</ele>
        <time>2021-10-08T09:52:06Z</time>
      </trkpt>
      <trkpt lat="44.88453" lon="5.34596">
        <ele>1564.2</ele>
        <time>2021-10-08T09:54:13Z</time>
      </trkpt>
      <trkpt lat="44.88452" lon="5.34596">
        <ele>1564.2</ele>
        <time>2021-10-08T09:54:14Z</time>
      </trkpt>
      <trkpt lat="44.88451" lon="5.34598">
        <ele>1564.2</ele>
        <time>2021-10-08T09:54:15Z</time>
      </trkpt>
      <trkpt lat="44.88451" lon="5.346">
        <ele>1564.2</ele>
        <time>2021-10-08T09:54:16Z</time>
      </trkpt>
      <trkpt lat="44.8845" lon="5.34602">
        <ele>1564.2</ele>
        <time>2021-10-08T09:54:17Z</time>
      </trkpt>
      <trkpt lat="44.8845" lon="5.34603">
        <ele>1563.8</ele>
        <time>2021-10-08T09:54:18Z</time>
      </trkpt>
      <trkpt lat="44.88449" lon="5.34605">
        <ele>1563.8</ele>
        <time>2021-10-08T09:54:19Z</time>
      </trkpt>
      <trkpt lat="44.88448" lon="5.34606">
        <ele>1563.8</ele>
        <time>2021-10-08T09:54:20Z</time>
      </trkpt>
      <trkpt lat="44.88447" lon="5.34607">
        <ele>1563.8</ele>
        <time>2021-10-08T09:54:21Z</time>
      </trkpt>
      <trkpt lat="44.88446" lon="5.34607">
        <ele>1564</ele>
        <time>2021-10-08T09:54:22Z</time>
      </trkpt>
      <trkpt lat="44.88445" lon="5.34608">
        <ele>1564</ele>
        <time>2021-10-08T09:54:23Z</time>
      </trkpt>
      <trkpt lat="44.88444" lon="5.34608">
        <ele>1564</ele>
        <time>2021-10-08T09:54:24Z</time>
      </trkpt>
      <trkpt lat="44.88443" lon="5.34608">
        <ele>1564.6</ele>
        <time>2021-10-08T09:54:25Z</time>
      </trkpt>
      <trkpt lat="44.88442" lon="5.34609">
        <ele>1564.8</ele>
        <time>2021-10-08T09:54:26Z</time>
      </trkpt>
      <trkpt lat="44.88441" lon="5.34609">
        <ele>1564.8</ele>
        <time>2021-10-08T09:54:27Z</time>
      </trkpt>
      <trkpt lat="44.8844" lon="5.3461">
        <ele>1564.8</ele>
        <time>2021-10-08T09:54:28Z</time>
      </trkpt>
      <trkpt lat="44.8844" lon="5.3461">
        <ele>1565.8</ele>
        <time>2021-10-08T09:54:29Z</time>
      </trkpt>
      <trkpt lat="44.88439" lon="5.34611">
        <ele>1566</ele>
        <time>2021-10-08T09:54:30Z</time>
      </trkpt>
      <trkpt lat="44.88438" lon="5.34611">
        <ele>1566</ele>
        <time>2021-10-08T09:54:31Z</time>
      </trkpt>
      <trkpt lat="44.88437" lon="5.34611">
        <ele>1566</ele>
        <time>2021-10-08T09:54:32Z</time>
      </trkpt>
      <trkpt lat="44.88437" lon="5.34611">
        <ele>1566</ele>
        <time>2021-10-08T09:54:33Z</time>
      </trkpt>
      <trkpt lat="44.88436" lon="5.34611">
        <ele>1566.2</ele>
        <time>2021-10-08T09:54:34Z</time>
      </trkpt>
      <trkpt lat="44.88435" lon="5.34611">
        <ele>1566.2</ele>
        <time>2021-10-08T09:54:35Z</time>
      </trkpt>
      <trkpt lat="44.88434" lon="5.34611">
        <ele>1566.2</ele>
        <time>2021-10-08T09:54:36Z</time>
      </trkpt>
      <trkpt lat="44.88433" lon="5.34611">
        <ele>1566.8</ele>
        <time>2021-10-08T09:54:37Z</time>
      </trkpt>
      <trkpt lat="44.88432" lon="5.34611">
        <ele>1567.4</ele>
        <time>2021-10-08T09:54:38Z</time>
      </trkpt>
      <trkpt lat="44.88431" lon="5.34611">
        <ele>1567.4</ele>
        <time>2021-10-08T09:54:39Z</time>
      </trkpt>
      <trkpt lat="44.8843" lon="5.34611">
        <ele>1567.4</ele>
        <time>2021-10-08T09:54:40Z</time>
      </trkpt>
      <trkpt lat="44.8843" lon="5.34611">
        <ele>1567.4</ele>
        <time>2021-10-08T09:54:41Z</time>
      </trkpt>
      <trkpt lat="44.88429" lon="5.34611">
        <ele>1567.6</ele>
        <time>2021-10-08T09:54:42Z</time>
      </trkpt>
      <trkpt lat="44.88428" lon="5.34611">
        <ele>1567.6</ele>
        <time>2021-10-08T09:54:43Z</time>
      </trkpt>
      <trkpt lat="44.88427" lon="5.34611">
        <ele>1567.6</ele>
        <time>2021-10-08T09:54:44Z</time>
      </trkpt>
      <trkpt lat="44.88426" lon="5.34611">
        <ele>1568</ele>
        <time>2021-10-08T09:54:45Z</time>
      </trkpt>
      <trkpt lat="44.88425" lon="5.34611">
        <ele>1568</ele>
        <time>2021-10-08T09:54:46Z</time>
      </trkpt>
      <trkpt lat="44.88424" lon="5.3461">
        <ele>1568</ele>
        <time>2021-10-08T09:54:47Z</time>
      </trkpt>
      <trkpt lat="44.88423" lon="5.34609">
        <ele>1568</ele>
        <time>2021-10-08T09:54:48Z</time>
      </trkpt>
      <trkpt lat="44.88421" lon="5.34609">
        <ele>1568</ele>
        <time>2021-10-08T09:54:49Z</time>
      </trkpt>
      <trkpt lat="44.8842" lon="5.34609">
        <ele>1569</ele>
        <time>2021-10-08T09:54:50Z</time>
      </trkpt>
      <trkpt lat="44.88419" lon="5.34608">
        <ele>1569</ele>
        <time>2021-10-08T09:54:51Z</time>
      </trkpt>
      <trkpt lat="44.88418" lon="5.34608">
        <ele>1569</ele>
        <time>2021-10-08T09:54:52Z</time>
      </trkpt>
      <trkpt lat="44.88417" lon="5.34608">
        <ele>1569</ele>
        <time>2021-10-08T09:54:53Z</time>
      </trkpt>
      <trkpt lat="44.88416" lon="5.34608">
        <ele>1568.8</ele>
        <time>2021-10-08T09:54:54Z</time>
      </trkpt>
      <trkpt lat="44.88415" lon="5.34607">
        <ele>1568.8</ele>
        <time>2021-10-08T09:54:55Z</time>
      </trkpt>
      <trkpt lat="44.88414" lon="5.34607">
        <ele>1568.8</ele>
        <time>2021-10-08T09:54:56Z</time>
      </trkpt>
      <trkpt lat="44.88414" lon="5.34606">
        <ele>1568.8</ele>
        <time>2021-10-08T09:54:57Z</time>
      </trkpt>
      <trkpt lat="44.88413" lon="5.34606">
        <ele>1569.8</ele>
        <time>2021-10-08T09:54:58Z</time>
      </trkpt>
      <trkpt lat="44.88412" lon="5.34607">
        <ele>1569.8</ele>
        <time>2021-10-08T09:54:59Z</time>
      </trkpt>
      <trkpt lat="44.88411" lon="5.34608">
        <ele>1569.8</ele>
        <time>2021-10-08T09:55:00Z</time>
      </trkpt>
      <trkpt lat="44.88411" lon="5.34608">
        <ele>1569.8</ele>
        <time>2021-10-08T09:55:01Z</time>
      </trkpt>
      <trkpt lat="44.88411" lon="5.34609">
        <ele>1570</ele>
        <time>2021-10-08T09:55:02Z</time>
      </trkpt>
      <trkpt lat="44.8841" lon="5.34609">
        <ele>1570</ele>
        <time>2021-10-08T09:55:03Z</time>
      </trkpt>
      <trkpt lat="44.88409" lon="5.34609">
        <ele>1570</ele>
        <time>2021-10-08T09:55:04Z</time>
      </trkpt>
      <trkpt lat="44.88408" lon="5.3461">
        <ele>1570.8</ele>
        <time>2021-10-08T09:55:05Z</time>
      </trkpt>
      <trkpt lat="44.88407" lon="5.3461">
        <ele>1570.6</ele>
        <time>2021-10-08T09:55:06Z</time>
      </trkpt>
      <trkpt lat="44.88406" lon="5.3461">
        <ele>1570.6</ele>
        <time>2021-10-08T09:55:07Z</time>
      </trkpt>
      <trkpt lat="44.88405" lon="5.3461">
        <ele>1570.6</ele>
        <time>2021-10-08T09:55:08Z</time>
      </trkpt>
      <trkpt lat="44.88404" lon="5.34611">
        <ele>1571</ele>
        <time>2021-10-08T09:55:09Z</time>
      </trkpt>
      <trkpt lat="44.88403" lon="5.34611">
        <ele>1571</ele>
        <time>2021-10-08T09:55:10Z</time>
      </trkpt>
      <trkpt lat="44.88402" lon="5.34611">
        <ele>1571</ele>
        <time>2021-10-08T09:55:11Z</time>
      </trkpt>
      <trkpt lat="44.88401" lon="5.34611">
        <ele>1571</ele>
        <time>2021-10-08T09:55:12Z</time>
      </trkpt>
      <trkpt lat="44.884" lon="5.34611">
        <ele>1571.6</ele>
        <time>2021-10-08T09:55:13Z</time>
      </trkpt>
      <trkpt lat="44.88399" lon="5.34612">
        <ele>1571.6</ele>
        <time>2021-10-08T09:55:14Z</time>
      </trkpt>
      <trkpt lat="44.88398" lon="5.34612">
        <ele>1571.6</ele>
        <time>2021-10-08T09:55:15Z</time>
      </trkpt>
      <trkpt lat="44.88397" lon="5.34613">
        <ele>1571.6</ele>
        <time>2021-10-08T09:55:16Z</time>
      </trkpt>
      <trkpt lat="44.88396" lon="5.34613">
        <ele>1571.6</ele>
        <time>2021-10-08T09:55:17Z</time>
      </trkpt>
      <trkpt lat="44.88396" lon="5.34613">
        <ele>1572</ele>
        <time>2021-10-08T09:55:18Z</time>
      </trkpt>
      <trkpt lat="44.88395" lon="5.34614">
        <ele>1572</ele>
        <time>2021-10-08T09:55:19Z</time>
      </trkpt>
      <trkpt lat="44.88394" lon="5.34614">
        <ele>1572</ele>
        <time>2021-10-08T09:55:20Z</time>
      </trkpt>
      <trkpt lat="44.88394" lon="5.34614">
        <ele>1572.4</ele>
        <time>2021-10-08T09:55:21Z</time>
      </trkpt>
      <trkpt lat="44.88393" lon="5.34615">
        <ele>1572.6</ele>
        <time>2021-10-08T09:55:22Z</time>
      </trkpt>
      <trkpt lat="44.88392" lon="5.34615">
        <ele>1572.6</ele>
        <time>2021-10-08T09:55:23Z</time>
      </trkpt>
      <trkpt lat="44.88392" lon="5.34615">
        <ele>1572.6</ele>
        <time>2021-10-08T09:55:24Z</time>
      </trkpt>
      <trkpt lat="44.88391" lon="5.34616">
        <ele>1573.2</ele>
        <time>2021-10-08T09:55:25Z</time>
      </trkpt>
      <trkpt lat="44.8839" lon="5.34616">
        <ele>1573.6</ele>
        <time>2021-10-08T09:55:26Z</time>
      </trkpt>
      <trkpt lat="44.8839" lon="5.34616">
        <ele>1573.6</ele>
        <time>2021-10-08T09:55:27Z</time>
      </trkpt>
      <trkpt lat="44.88389" lon="5.34617">
        <ele>1573.6</ele>
        <time>2021-10-08T09:55:28Z</time>
      </trkpt>
      <trkpt lat="44.88389" lon="5.34618">
        <ele>1573.6</ele>
        <time>2021-10-08T09:55:29Z</time>
      </trkpt>
      <trkpt lat="44.88388" lon="5.34618">
        <ele>1574.4</ele>
        <time>2021-10-08T09:55:30Z</time>
      </trkpt>
      <trkpt lat="44.88387" lon="5.34619">
        <ele>1574.4</ele>
        <time>2021-10-08T09:55:31Z</time>
      </trkpt>
      <trkpt lat="44.88387" lon="5.3462">
        <ele>1574.4</ele>
        <time>2021-10-08T09:55:32Z</time>
      </trkpt>
      <trkpt lat="44.88343" lon="5.34617">
        <ele>1580.6</ele>
        <time>2021-10-08T09:56:28Z</time>
      </trkpt>
      <trkpt lat="44.88342" lon="5.34617">
        <ele>1579.8</ele>
        <time>2021-10-08T09:56:29Z</time>
      </trkpt>
      <trkpt lat="44.88341" lon="5.34616">
        <ele>1580.8</ele>
        <time>2021-10-08T09:56:30Z</time>
      </trkpt>
      <trkpt lat="44.8834" lon="5.34616">
        <ele>1580.8</ele>
        <time>2021-10-08T09:56:31Z</time>
      </trkpt>
      <trkpt lat="44.88338" lon="5.34616">
        <ele>1580.8</ele>
        <time>2021-10-08T09:56:32Z</time>
      </trkpt>
      <trkpt lat="44.88337" lon="5.34616">
        <ele>1580.8</ele>
        <time>2021-10-08T09:56:33Z</time>
      </trkpt>
      <trkpt lat="44.88336" lon="5.34615">
        <ele>1580.2</ele>
        <time>2021-10-08T09:56:34Z</time>
      </trkpt>
      <trkpt lat="44.88336" lon="5.34614">
        <ele>1580.2</ele>
        <time>2021-10-08T09:56:35Z</time>
      </trkpt>
      <trkpt lat="44.88335" lon="5.34614">
        <ele>1580.2</ele>
        <time>2021-10-08T09:56:36Z</time>
      </trkpt>
      <trkpt lat="44.88334" lon="5.34613">
        <ele>1580.6</ele>
        <time>2021-10-08T09:56:37Z</time>
      </trkpt>
      <trkpt lat="44.88333" lon="5.34613">
        <ele>1581</ele>
        <time>2021-10-08T09:56:38Z</time>
      </trkpt>
      <trkpt lat="44.88333" lon="5.34613">
        <ele>1581</ele>
        <time>2021-10-08T09:56:39Z</time>
      </trkpt>
      <trkpt lat="44.88205" lon="5.34555">
        <ele>1593.2</ele>
        <time>2021-10-08T10:00:02Z</time>
      </trkpt>
      <trkpt lat="44.88204" lon="5.34555">
        <ele>1593.2</ele>
        <time>2021-10-08T10:00:03Z</time>
      </trkpt>
      <trkpt lat="44.88203" lon="5.34555">
        <ele>1593.2</ele>
        <time>2021-10-08T10:00:04Z</time>
      </trkpt>
      <trkpt lat="44.88202" lon="5.34555">
        <ele>1593.2</ele>
        <time>2021-10-08T10:00:05Z</time>
      </trkpt>
      <trkpt lat="44.88201" lon="5.34555">
        <ele>1593</ele>
        <time>2021-10-08T10:00:06Z</time>
      </trkpt>
      <trkpt lat="44.882" lon="5.34555">
        <ele>1593</ele>
        <time>2021-10-08T10:00:07Z</time>
      </trkpt>
      <trkpt lat="44.88198" lon="5.34555">
        <ele>1593</ele>
        <time>2021-10-08T10:00:08Z</time>
      </trkpt>
      <trkpt lat="44.88197" lon="5.34555">
        <ele>1593</ele>
        <time>2021-10-08T10:00:09Z</time>
      </trkpt>
      <trkpt lat="44.88196" lon="5.34554">
        <ele>1591.4</ele>
        <time>2021-10-08T10:00:10Z</time>
      </trkpt>
      <trkpt lat="44.88195" lon="5.34553">
        <ele>1591.4</ele>
        <time>2021-10-08T10:00:11Z</time>
      </trkpt>
      <trkpt lat="44.88194" lon="5.34552">
        <ele>1591.4</ele>
        <time>2021-10-08T10:00:12Z</time>
      </trkpt>
      <trkpt lat="44.88193" lon="5.34552">
        <ele>1592.4</ele>
        <time>2021-10-08T10:00:13Z</time>
      </trkpt>
      <trkpt lat="44.88192" lon="5.34551">
        <ele>1592.2</ele>
        <time>2021-10-08T10:00:14Z</time>
      </trkpt>
      <trkpt lat="44.88191" lon="5.34551">
        <ele>1592.2</ele>
        <time>2021-10-08T10:00:15Z</time>
      </trkpt>
      <trkpt lat="44.88189" lon="5.34551">
        <ele>1592.2</ele>
        <time>2021-10-08T10:00:16Z</time>
      </trkpt>
      <trkpt lat="44.88188" lon="5.34552">
        <ele>1593</ele>
        <time>2021-10-08T10:00:17Z</time>
      </trkpt>
      <trkpt lat="44.88187" lon="5.34552">
        <ele>1592.8</ele>
        <time>2021-10-08T10:00:18Z</time>
      </trkpt>
      <trkpt lat="44.88186" lon="5.34552">
        <ele>1592.8</ele>
        <time>2021-10-08T10:00:19Z</time>
      </trkpt>
      <trkpt lat="44.88185" lon="5.34552">
        <ele>1592.8</ele>
        <time>2021-10-08T10:00:20Z</time>
      </trkpt>
      <trkpt lat="44.88184" lon="5.34551">
        <ele>1592.8</ele>
        <time>2021-10-08T10:00:21Z</time>
      </trkpt>
      <trkpt lat="44.88183" lon="5.34551">
        <ele>1593</ele>
        <time>2021-10-08T10:00:22Z</time>
      </trkpt>
      <trkpt lat="44.88182" lon="5.3455">
        <ele>1593</ele>
        <time>2021-10-08T10:00:23Z</time>
      </trkpt>
      <trkpt lat="44.88181" lon="5.3455">
        <ele>1593</ele>
        <time>2021-10-08T10:00:24Z</time>
      </trkpt>
      <trkpt lat="44.8818" lon="5.3455">
        <ele>1593.6</ele>
        <time>2021-10-08T10:00:25Z</time>
      </trkpt>
      <trkpt lat="44.88179" lon="5.34551">
        <ele>1594</ele>
        <time>2021-10-08T10:00:26Z</time>
      </trkpt>
      <trkpt lat="44.88178" lon="5.34552">
        <ele>1594</ele>
        <time>2021-10-08T10:00:27Z</time>
      </trkpt>
      <trkpt lat="44.88177" lon="5.34553">
        <ele>1594</ele>
        <time>2021-10-08T10:00:28Z</time>
      </trkpt>
      <trkpt lat="44.88176" lon="5.34554">
        <ele>1593</ele>
        <time>2021-10-08T10:00:29Z</time>
      </trkpt>
      <trkpt lat="44.88175" lon="5.34554">
        <ele>1593</ele>
        <time>2021-10-08T10:00:30Z</time>
      </trkpt>
      <trkpt lat="44.88174" lon="5.34555">
        <ele>1593</ele>
        <time>2021-10-08T10:00:31Z</time>
      </trkpt>
      <trkpt lat="44.88172" lon="5.34556">
        <ele>1593</ele>
        <time>2021-10-08T10:00:32Z</time>
      </trkpt>
      <trkpt lat="44.88171" lon="5.34556">
        <ele>1593.6</ele>
        <time>2021-10-08T10:00:33Z</time>
      </trkpt>
      <trkpt lat="44.8817" lon="5.34557">
        <ele>1593.4</ele>
        <time>2021-10-08T10:00:34Z</time>
      </trkpt>
      <trkpt lat="44.88169" lon="5.34558">
        <ele>1593.4</ele>
        <time>2021-10-08T10:00:35Z</time>
      </trkpt>
      <trkpt lat="44.88168" lon="5.34559">
        <ele>1593.4</ele>
        <time>2021-10-08T10:00:36Z</time>
      </trkpt>
      <trkpt lat="44.88167" lon="5.3456">
        <ele>1593.4</ele>
        <time>2021-10-08T10:00:37Z</time>
      </trkpt>
      <trkpt lat="44.88166" lon="5.3456">
        <ele>1594.6</ele>
        <time>2021-10-08T10:00:38Z</time>
      </trkpt>
      <trkpt lat="44.88165" lon="5.34561">
        <ele>1594.6</ele>
        <time>2021-10-08T10:00:39Z</time>
      </trkpt>
      <trkpt lat="44.88164" lon="5.34562">
        <ele>1594.6</ele>
        <time>2021-10-08T10:00:40Z</time>
      </trkpt>
      <trkpt lat="44.88163" lon="5.34563">
        <ele>1593.6</ele>
        <time>2021-10-08T10:00:41Z</time>
      </trkpt>
      <trkpt lat="44.88162" lon="5.34564">
        <ele>1594</ele>
        <time>2021-10-08T10:00:42Z</time>
      </trkpt>
      <trkpt lat="44.88162" lon="5.34564">
        <ele>1594</ele>
        <time>2021-10-08T10:00:43Z</time>
      </trkpt>
      <trkpt lat="44.88162" lon="5.34564">
        <ele>1594</ele>
        <time>2021-10-08T10:00:44Z</time>
      </trkpt>
      <trkpt lat="44.88154" lon="5.34554">
        <ele>1593.4</ele>
        <time>2021-10-08T10:04:17Z</time>
      </trkpt>
      <trkpt lat="44.88152" lon="5.34554">
        <ele>1593.2</ele>
        <time>2021-10-08T10:04:18Z</time>
      </trkpt>
      <trkpt lat="44.88151" lon="5.34555">
        <ele>1593.2</ele>
        <time>2021-10-08T10:04:19Z</time>
      </trkpt>
      <trkpt lat="44.8815" lon="5.34556">
        <ele>1593.2</ele>
        <time>2021-10-08T10:04:20Z</time>
      </trkpt>
      <trkpt lat="44.88148" lon="5.34557">
        <ele>1593.2</ele>
        <time>2021-10-08T10:04:21Z</time>
      </trkpt>
      <trkpt lat="44.88147" lon="5.34557">
        <ele>1592.8</ele>
        <time>2021-10-08T10:04:22Z</time>
      </trkpt>
      <trkpt lat="44.88146" lon="5.34556">
        <ele>1592.8</ele>
        <time>2021-10-08T10:04:23Z</time>
      </trkpt>
      <trkpt lat="44.88144" lon="5.34555">
        <ele>1592.8</ele>
        <time>2021-10-08T10:04:24Z</time>
      </trkpt>
      <trkpt lat="44.88144" lon="5.34554">
        <ele>1592.8</ele>
        <time>2021-10-08T10:04:25Z</time>
      </trkpt>
      <trkpt lat="44.88143" lon="5.34552">
        <ele>1592.4</ele>
        <time>2021-10-08T10:04:26Z</time>
      </trkpt>
      <trkpt lat="44.88143" lon="5.3455">
        <ele>1592.4</ele>
        <time>2021-10-08T10:04:27Z</time>
      </trkpt>
      <trkpt lat="44.88142" lon="5.34549">
        <ele>1592.4</ele>
        <time>2021-10-08T10:04:28Z</time>
      </trkpt>
      <trkpt lat="44.88141" lon="5.34548">
        <ele>1592.6</ele>
        <time>2021-10-08T10:04:29Z</time>
      </trkpt>
      <trkpt lat="44.8814" lon="5.34546">
        <ele>1592.6</ele>
        <time>2021-10-08T10:04:30Z</time>
      </trkpt>
      <trkpt lat="44.88139" lon="5.34545">
        <ele>1592.6</ele>
        <time>2021-10-08T10:04:31Z</time>
      </trkpt>
      <trkpt lat="44.88138" lon="5.34544">
        <ele>1592.6</ele>
        <time>2021-10-08T10:04:32Z</time>
      </trkpt>
      <trkpt lat="44.88137" lon="5.34543">
        <ele>1592</ele>
        <time>2021-10-08T10:04:33Z</time>
      </trkpt>
      <trkpt lat="44.88135" lon="5.34543">
        <ele>1592</ele>
        <time>2021-10-08T10:04:34Z</time>
      </trkpt>
      <trkpt lat="44.88133" lon="5.34544">
        <ele>1591.6</ele>
        <time>2021-10-08T10:04:35Z</time>
      </trkpt>
      <trkpt lat="44.88131" lon="5.34545">
        <ele>1591.6</ele>
        <time>2021-10-08T10:04:36Z</time>
      </trkpt>
      <trkpt lat="44.88129" lon="5.34547">
        <ele>1591.6</ele>
        <time>2021-10-08T10:04:37Z</time>
      </trkpt>
      <trkpt lat="44.88128" lon="5.34548">
        <ele>1590.4</ele>
        <time>2021-10-08T10:04:38Z</time>
      </trkpt>
      <trkpt lat="44.88127" lon="5.34549">
        <ele>1590.4</ele>
        <time>2021-10-08T10:04:39Z</time>
      </trkpt>
      <trkpt lat="44.88127" lon="5.34549">
        <ele>1590.4</ele>
        <time>2021-10-08T10:04:40Z</time>
      </trkpt>
      <trkpt lat="44.88126" lon="5.34549">
        <ele>1590.2</ele>
        <time>2021-10-08T10:04:41Z</time>
      </trkpt>
      <trkpt lat="44.88126" lon="5.34549">
        <ele>1590.2</ele>
        <time>2021-10-08T10:04:42Z</time>
      </trkpt>
      <trkpt lat="44.88125" lon="5.3455">
        <ele>1590.2</ele>
        <time>2021-10-08T10:04:43Z</time>
      </trkpt>
      <trkpt lat="44.88124" lon="5.34549">
        <ele>1590.2</ele>
        <time>2021-10-08T10:04:44Z</time>
      </trkpt>
      <trkpt lat="44.88123" lon="5.34549">
        <ele>1589.6</ele>
        <time>2021-10-08T10:04:45Z</time>
      </trkpt>
      <trkpt lat="44.88122" lon="5.34549">
        <ele>1589.2</ele>
        <time>2021-10-08T10:04:46Z</time>
      </trkpt>
      <trkpt lat="44.88122" lon="5.3455">
        <ele>1589.2</ele>
        <time>2021-10-08T10:04:47Z</time>
      </trkpt>
      <trkpt lat="44.88121" lon="5.3455">
        <ele>1589.2</ele>
        <time>2021-10-08T10:04:48Z</time>
      </trkpt>
      <trkpt lat="44.8812" lon="5.3455">
        <ele>1588.2</ele>
        <time>2021-10-08T10:04:49Z</time>
      </trkpt>
      <trkpt lat="44.88119" lon="5.3455">
        <ele>1588.4</ele>
        <time>2021-10-08T10:04:50Z</time>
      </trkpt>
      <trkpt lat="44.88118" lon="5.34551">
        <ele>1588.4</ele>
        <time>2021-10-08T10:04:51Z</time>
      </trkpt>
      <trkpt lat="44.88117" lon="5.34552">
        <ele>1588.4</ele>
        <time>2021-10-08T10:04:52Z</time>
      </trkpt>
      <trkpt lat="44.88117" lon="5.34553">
        <ele>1587.8</ele>
        <time>2021-10-08T10:04:53Z</time>
      </trkpt>
      <trkpt lat="44.88117" lon="5.34553">
        <ele>1587.6</ele>
        <time>2021-10-08T10:04:54Z</time>
      </trkpt>
      <trkpt lat="44.88107" lon="5.34557">
        <ele>1585</ele>
        <time>2021-10-08T10:05:05Z</time>
      </trkpt>
      <trkpt lat="44.88106" lon="5.34556">
        <ele>1585.2</ele>
        <time>2021-10-08T10:05:06Z</time>
      </trkpt>
      <trkpt lat="44.88104" lon="5.34556">
        <ele>1585.2</ele>
        <time>2021-10-08T10:05:07Z</time>
      </trkpt>
      <trkpt lat="44.88103" lon="5.34556">
        <ele>1585.2</ele>
        <time>2021-10-08T10:05:08Z</time>
      </trkpt>
      <trkpt lat="44.88101" lon="5.34556">
        <ele>1585.2</ele>
        <time>2021-10-08T10:05:09Z</time>
      </trkpt>
      <trkpt lat="44.88099" lon="5.34555">
        <ele>1584.8</ele>
        <time>2021-10-08T10:05:10Z</time>
      </trkpt>
      <trkpt lat="44.88098" lon="5.34555">
        <ele>1584.8</ele>
        <time>2021-10-08T10:05:11Z</time>
      </trkpt>
      <trkpt lat="44.88096" lon="5.34555">
        <ele>1584.8</ele>
        <time>2021-10-08T10:05:12Z</time>
      </trkpt>
      <trkpt lat="44.88094" lon="5.34555">
        <ele>1584.8</ele>
        <time>2021-10-08T10:05:13Z</time>
      </trkpt>
      <trkpt lat="44.88093" lon="5.34555">
        <ele>1585</ele>
        <time>2021-10-08T10:05:14Z</time>
      </trkpt>
      <trkpt lat="44.88092" lon="5.34554">
        <ele>1585</ele>
        <time>2021-10-08T10:05:15Z</time>
      </trkpt>
      <trkpt lat="44.8809" lon="5.34554">
        <ele>1585</ele>
        <time>2021-10-08T10:05:16Z</time>
      </trkpt>
      <trkpt lat="44.88089" lon="5.34553">
        <ele>1585</ele>
        <time>2021-10-08T10:05:17Z</time>
      </trkpt>
      <trkpt lat="44.88088" lon="5.34553">
        <ele>1585.4</ele>
        <time>2021-10-08T10:05:18Z</time>
      </trkpt>
      <trkpt lat="44.88087" lon="5.34552">
        <ele>1585.4</ele>
        <time>2021-10-08T10:05:19Z</time>
      </trkpt>
      <trkpt lat="44.88086" lon="5.34552">
        <ele>1585.4</ele>
        <time>2021-10-08T10:05:20Z</time>
      </trkpt>
      <trkpt lat="44.88085" lon="5.34551">
        <ele>1586.4</ele>
        <time>2021-10-08T10:05:21Z</time>
      </trkpt>
      <trkpt lat="44.88084" lon="5.3455">
        <ele>1586.4</ele>
        <time>2021-10-08T10:05:22Z</time>
      </trkpt>
      <trkpt lat="44.88083" lon="5.34549">
        <ele>1586.4</ele>
        <time>2021-10-08T10:05:23Z</time>
      </trkpt>
      <trkpt lat="44.88083" lon="5.34548">
        <ele>1586.4</ele>
        <time>2021-10-08T10:05:24Z</time>
      </trkpt>
      <trkpt lat="44.88082" lon="5.34546">
        <ele>1587.4</ele>
        <time>2021-10-08T10:05:25Z</time>
      </trkpt>
      <trkpt lat="44.88081" lon="5.34546">
        <ele>1587.4</ele>
        <time>2021-10-08T10:05:26Z</time>
      </trkpt>
      <trkpt lat="44.8808" lon="5.34545">
        <ele>1587.4</ele>
        <time>2021-10-08T10:05:27Z</time>
      </trkpt>
      <trkpt lat="44.88079" lon="5.34544">
        <ele>1587.4</ele>
        <time>2021-10-08T10:05:28Z</time>
      </trkpt>
      <trkpt lat="44.88078" lon="5.34543">
        <ele>1587.4</ele>
        <time>2021-10-08T10:05:29Z</time>
      </trkpt>
      <trkpt lat="44.88077" lon="5.34542">
        <ele>1588.2</ele>
        <time>2021-10-08T10:05:30Z</time>
      </trkpt>
      <trkpt lat="44.88076" lon="5.34541">
        <ele>1588.2</ele>
        <time>2021-10-08T10:05:31Z</time>
      </trkpt>
      <trkpt lat="44.88075" lon="5.3454">
        <ele>1588.2</ele>
        <time>2021-10-08T10:05:32Z</time>
      </trkpt>
      <trkpt lat="44.88074" lon="5.34539">
        <ele>1588.2</ele>
        <time>2021-10-08T10:05:33Z</time>
      </trkpt>
      <trkpt lat="44.88074" lon="5.34537">
        <ele>1589</ele>
        <time>2021-10-08T10:05:34Z</time>
      </trkpt>
      <trkpt lat="44.88073" lon="5.34536">
        <ele>1589</ele>
        <time>2021-10-08T10:05:35Z</time>
      </trkpt>
      <trkpt lat="44.88072" lon="5.34535">
        <ele>1589</ele>
        <time>2021-10-08T10:05:36Z</time>
      </trkpt>
      <trkpt lat="44.88071" lon="5.34534">
        <ele>1589</ele>
        <time>2021-10-08T10:05:37Z</time>
      </trkpt>
      <trkpt lat="44.8807" lon="5.34533">
        <ele>1589.6</ele>
        <time>2021-10-08T10:05:38Z</time>
      </trkpt>
      <trkpt lat="44.88069" lon="5.34532">
        <ele>1589.6</ele>
        <time>2021-10-08T10:05:39Z</time>
      </trkpt>
      <trkpt lat="44.88069" lon="5.3453">
        <ele>1589.6</ele>
        <time>2021-10-08T10:05:40Z</time>
      </trkpt>
      <trkpt lat="44.88068" lon="5.34529">
        <ele>1589.4</ele>
        <time>2021-10-08T10:05:41Z</time>
      </trkpt>
      <trkpt lat="44.88067" lon="5.34527">
        <ele>1589</ele>
        <time>2021-10-08T10:05:42Z</time>
      </trkpt>
      <trkpt lat="44.88066" lon="5.34526">
        <ele>1589</ele>
        <time>2021-10-08T10:05:43Z</time>
      </trkpt>
      <trkpt lat="44.88065" lon="5.34525">
        <ele>1589</ele>
        <time>2021-10-08T10:05:44Z</time>
      </trkpt>
      <trkpt lat="44.88064" lon="5.34524">
        <ele>1589.6</ele>
        <time>2021-10-08T10:05:45Z</time>
      </trkpt>
      <trkpt lat="44.88064" lon="5.34523">
        <ele>1589.6</ele>
        <time>2021-10-08T10:05:46Z</time>
      </trkpt>
      <trkpt lat="44.88063" lon="5.34522">
        <ele>1589.6</ele>
        <time>2021-10-08T10:05:47Z</time>
      </trkpt>
      <trkpt lat="44.88062" lon="5.34521">
        <ele>1589.6</ele>
        <time>2021-10-08T10:05:48Z</time>
      </trkpt>
      <trkpt lat="44.8806" lon="5.3452">
        <ele>1589.6</ele>
        <time>2021-10-08T10:05:49Z</time>
      </trkpt>
      <trkpt lat="44.8806" lon="5.34519">
        <ele>1589.2</ele>
        <time>2021-10-08T10:05:50Z</time>
      </trkpt>
      <trkpt lat="44.88058" lon="5.34518">
        <ele>1589.2</ele>
        <time>2021-10-08T10:05:51Z</time>
      </trkpt>
      <trkpt lat="44.88057" lon="5.34517">
        <ele>1589.2</ele>
        <time>2021-10-08T10:05:52Z</time>
      </trkpt>
      <trkpt lat="44.88056" lon="5.34516">
        <ele>1589.2</ele>
        <time>2021-10-08T10:05:53Z</time>
      </trkpt>
      <trkpt lat="44.88054" lon="5.34516">
        <ele>1589.4</ele>
        <time>2021-10-08T10:05:54Z</time>
      </trkpt>
      <trkpt lat="44.88053" lon="5.34516">
        <ele>1589.4</ele>
        <time>2021-10-08T10:05:55Z</time>
      </trkpt>
      <trkpt lat="44.88051" lon="5.34515">
        <ele>1589.4</ele>
        <time>2021-10-08T10:05:56Z</time>
      </trkpt>
      <trkpt lat="44.88049" lon="5.34515">
        <ele>1589.4</ele>
        <time>2021-10-08T10:05:57Z</time>
      </trkpt>
      <trkpt lat="44.88047" lon="5.34514">
        <ele>1589</ele>
        <time>2021-10-08T10:05:58Z</time>
      </trkpt>
      <trkpt lat="44.88046" lon="5.34513">
        <ele>1589</ele>
        <time>2021-10-08T10:05:59Z</time>
      </trkpt>
      <trkpt lat="44.88044" lon="5.34513">
        <ele>1589</ele>
        <time>2021-10-08T10:06:00Z</time>
      </trkpt>
      <trkpt lat="44.88042" lon="5.34512">
        <ele>1589.4</ele>
        <time>2021-10-08T10:06:01Z</time>
      </trkpt>
      <trkpt lat="44.8804" lon="5.34511">
        <ele>1589</ele>
        <time>2021-10-08T10:06:02Z</time>
      </trkpt>
      <trkpt lat="44.88039" lon="5.34511">
        <ele>1589</ele>
        <time>2021-10-08T10:06:03Z</time>
      </trkpt>
      <trkpt lat="44.88037" lon="5.34511">
        <ele>1589</ele>
        <time>2021-10-08T10:06:04Z</time>
      </trkpt>
      <trkpt lat="44.88035" lon="5.34511">
        <ele>1590</ele>
        <time>2021-10-08T10:06:05Z</time>
      </trkpt>
      <trkpt lat="44.88034" lon="5.3451">
        <ele>1590.2</ele>
        <time>2021-10-08T10:06:06Z</time>
      </trkpt>
      <trkpt lat="44.88032" lon="5.3451">
        <ele>1590.2</ele>
        <time>2021-10-08T10:06:07Z</time>
      </trkpt>
      <trkpt lat="44.8803" lon="5.34511">
        <ele>1590.2</ele>
        <time>2021-10-08T10:06:08Z</time>
      </trkpt>
      <trkpt lat="44.88029" lon="5.34511">
        <ele>1591.2</ele>
        <time>2021-10-08T10:06:09Z</time>
      </trkpt>
      <trkpt lat="44.88027" lon="5.34511">
        <ele>1591.4</ele>
        <time>2021-10-08T10:06:10Z</time>
      </trkpt>
      <trkpt lat="44.88025" lon="5.34511">
        <ele>1591.4</ele>
        <time>2021-10-08T10:06:11Z</time>
      </trkpt>
      <trkpt lat="44.88024" lon="5.34512">
        <ele>1591.4</ele>
        <time>2021-10-08T10:06:12Z</time>
      </trkpt>
      <trkpt lat="44.88022" lon="5.34512">
        <ele>1591.4</ele>
        <time>2021-10-08T10:06:13Z</time>
      </trkpt>
      <trkpt lat="44.88021" lon="5.34513">
        <ele>1592.4</ele>
        <time>2021-10-08T10:06:14Z</time>
      </trkpt>
      <trkpt lat="44.88019" lon="5.34513">
        <ele>1592.4</ele>
        <time>2021-10-08T10:06:15Z</time>
      </trkpt>
      <trkpt lat="44.88017" lon="5.34514">
        <ele>1592.4</ele>
        <time>2021-10-08T10:06:16Z</time>
      </trkpt>
      <trkpt lat="44.88015" lon="5.34514">
        <ele>1592.2</ele>
        <time>2021-10-08T10:06:17Z</time>
      </trkpt>
      <trkpt lat="44.88013" lon="5.34515">
        <ele>1591.8</ele>
        <time>2021-10-08T10:06:18Z</time>
      </trkpt>
      <trkpt lat="44.88012" lon="5.34515">
        <ele>1591.8</ele>
        <time>2021-10-08T10:06:19Z</time>
      </trkpt>
      <trkpt lat="44.8801" lon="5.34515">
        <ele>1591.8</ele>
        <time>2021-10-08T10:06:20Z</time>
      </trkpt>
      <trkpt lat="44.88008" lon="5.34514">
        <ele>1591.8</ele>
        <time>2021-10-08T10:06:21Z</time>
      </trkpt>
      <trkpt lat="44.88006" lon="5.34514">
        <ele>1592</ele>
        <time>2021-10-08T10:06:22Z</time>
      </trkpt>
      <trkpt lat="44.88005" lon="5.34513">
        <ele>1592</ele>
        <time>2021-10-08T10:06:23Z</time>
      </trkpt>
      <trkpt lat="44.88003" lon="5.34512">
        <ele>1592</ele>
        <time>2021-10-08T10:06:24Z</time>
      </trkpt>
      <trkpt lat="44.88001" lon="5.34511">
        <ele>1591.8</ele>
        <time>2021-10-08T10:06:25Z</time>
      </trkpt>
      <trkpt lat="44.88" lon="5.3451">
        <ele>1592.2</ele>
        <time>2021-10-08T10:06:26Z</time>
      </trkpt>
      <trkpt lat="44.87998" lon="5.34509">
        <ele>1592.2</ele>
        <time>2021-10-08T10:06:27Z</time>
      </trkpt>
      <trkpt lat="44.87997" lon="5.34507">
        <ele>1592.2</ele>
        <time>2021-10-08T10:06:28Z</time>
      </trkpt>
      <trkpt lat="44.87996" lon="5.34507">
        <ele>1592.6</ele>
        <time>2021-10-08T10:06:29Z</time>
      </trkpt>
      <trkpt lat="44.87994" lon="5.34506">
        <ele>1592.8</ele>
        <time>2021-10-08T10:06:30Z</time>
      </trkpt>
      <trkpt lat="44.87993" lon="5.34505">
        <ele>1592.8</ele>
        <time>2021-10-08T10:06:31Z</time>
      </trkpt>
      <trkpt lat="44.87992" lon="5.34505">
        <ele>1592.8</ele>
        <time>2021-10-08T10:06:32Z</time>
      </trkpt>
      <trkpt lat="44.87991" lon="5.34504">
        <ele>1592.8</ele>
        <time>2021-10-08T10:06:33Z</time>
      </trkpt>
      <trkpt lat="44.8799" lon="5.34504">
        <ele>1592.8</ele>
        <time>2021-10-08T10:06:34Z</time>
      </trkpt>
      <trkpt lat="44.87988" lon="5.34504">
        <ele>1592.8</ele>
        <time>2021-10-08T10:06:35Z</time>
      </trkpt>
      <trkpt lat="44.87987" lon="5.34503">
        <ele>1592.8</ele>
        <time>2021-10-08T10:06:36Z</time>
      </trkpt>
      <trkpt lat="44.87987" lon="5.34504">
        <ele>1592.6</ele>
        <time>2021-10-08T10:06:37Z</time>
      </trkpt>
      <trkpt lat="44.87986" lon="5.34504">
        <ele>1592.4</ele>
        <time>2021-10-08T10:06:38Z</time>
      </trkpt>
      <trkpt lat="44.87985" lon="5.34504">
        <ele>1592.4</ele>
        <time>2021-10-08T10:06:39Z</time>
      </trkpt>
      <trkpt lat="44.87984" lon="5.34505">
        <ele>1592.4</ele>
        <time>2021-10-08T10:06:40Z</time>
      </trkpt>
      <trkpt lat="44.87983" lon="5.34505">
        <ele>1591.4</ele>
        <time>2021-10-08T10:06:41Z</time>
      </trkpt>
      <trkpt lat="44.87982" lon="5.34506">
        <ele>1591.6</ele>
        <time>2021-10-08T10:06:42Z</time>
      </trkpt>
      <trkpt lat="44.8798" lon="5.34507">
        <ele>1591.6</ele>
        <time>2021-10-08T10:06:43Z</time>
      </trkpt>
      <trkpt lat="44.87979" lon="5.34508">
        <ele>1591.6</ele>
        <time>2021-10-08T10:06:44Z</time>
      </trkpt>
      <trkpt lat="44.87977" lon="5.34508">
        <ele>1591.6</ele>
        <time>2021-10-08T10:06:45Z</time>
      </trkpt>
      <trkpt lat="44.87975" lon="5.34508">
        <ele>1590.2</ele>
        <time>2021-10-08T10:06:46Z</time>
      </trkpt>
      <trkpt lat="44.87973" lon="5.34508">
        <ele>1590.2</ele>
        <time>2021-10-08T10:06:47Z</time>
      </trkpt>
      <trkpt lat="44.87972" lon="5.34507">
        <ele>1590.2</ele>
        <time>2021-10-08T10:06:48Z</time>
      </trkpt>
      <trkpt lat="44.87971" lon="5.34507">
        <ele>1590.8</ele>
        <time>2021-10-08T10:06:49Z</time>
      </trkpt>
      <trkpt lat="44.87893" lon="5.345">
        <ele>1569.4</ele>
        <time>2021-10-08T10:08:45Z</time>
      </trkpt>
      <trkpt lat="44.87891" lon="5.345">
        <ele>1568.6</ele>
        <time>2021-10-08T10:08:46Z</time>
      </trkpt>
      <trkpt lat="44.87888" lon="5.345">
        <ele>1568.6</ele>
        <time>2021-10-08T10:08:47Z</time>
      </trkpt>
      <trkpt lat="44.87885" lon="5.34499">
        <ele>1568.6</ele>
        <time>2021-10-08T10:08:48Z</time>
      </trkpt>
      <trkpt lat="44.87883" lon="5.34498">
        <ele>1567.8</ele>
        <time>2021-10-08T10:08:49Z</time>
      </trkpt>
      <trkpt lat="44.87882" lon="5.34498">
        <ele>1567.8</ele>
        <time>2021-10-08T10:08:50Z</time>
      </trkpt>
      <trkpt lat="44.87881" lon="5.34497">
        <ele>1567.8</ele>
        <time>2021-10-08T10:08:51Z</time>
      </trkpt>
      <trkpt lat="44.8788" lon="5.34497">
        <ele>1567.8</ele>
        <time>2021-10-08T10:08:52Z</time>
      </trkpt>
      <trkpt lat="44.87878" lon="5.34497">
        <ele>1566.8</ele>
        <time>2021-10-08T10:08:53Z</time>
      </trkpt>
      <trkpt lat="44.87876" lon="5.34497">
        <ele>1566.2</ele>
        <time>2021-10-08T10:08:54Z</time>
      </trkpt>
      <trkpt lat="44.87875" lon="5.34497">
        <ele>1566.2</ele>
        <time>2021-10-08T10:08:55Z</time>
      </trkpt>
      <trkpt lat="44.87871" lon="5.34497">
        <ele>1566.2</ele>
        <time>2021-10-08T10:08:56Z</time>
      </trkpt>
      <trkpt lat="44.87867" lon="5.34496">
        <ele>1565.2</ele>
        <time>2021-10-08T10:08:57Z</time>
      </trkpt>
      <trkpt lat="44.87864" lon="5.34495">
        <ele>1565.2</ele>
        <time>2021-10-08T10:08:58Z</time>
      </trkpt>
      <trkpt lat="44.87861" lon="5.34495">
        <ele>1565.2</ele>
        <time>2021-10-08T10:08:59Z</time>
      </trkpt>
      <trkpt lat="44.87858" lon="5.34494">
        <ele>1565.2</ele>
        <time>2021-10-08T10:09:00Z</time>
      </trkpt>
      <trkpt lat="44.87853" lon="5.34493">
        <ele>1564.6</ele>
        <time>2021-10-08T10:09:01Z</time>
      </trkpt>
      <trkpt lat="44.87849" lon="5.34491">
        <ele>1564.4</ele>
        <time>2021-10-08T10:09:02Z</time>
      </trkpt>
      <trkpt lat="44.87846" lon="5.3449">
        <ele>1564.4</ele>
        <time>2021-10-08T10:09:03Z</time>
      </trkpt>
      <trkpt lat="44.87843" lon="5.3449">
        <ele>1564.4</ele>
        <time>2021-10-08T10:09:04Z</time>
      </trkpt>
      <trkpt lat="44.8784" lon="5.34488">
        <ele>1564.4</ele>
        <time>2021-10-08T10:09:05Z</time>
      </trkpt>
      <trkpt lat="44.87838" lon="5.34486">
        <ele>1565.2</ele>
        <time>2021-10-08T10:09:06Z</time>
      </trkpt>
      <trkpt lat="44.87836" lon="5.34485">
        <ele>1565.2</ele>
        <time>2021-10-08T10:09:07Z</time>
      </trkpt>
      <trkpt lat="44.87836" lon="5.34485">
        <ele>1565.2</ele>
        <time>2021-10-08T10:09:08Z</time>
      </trkpt>
      <trkpt lat="44.87836" lon="5.34485">
        <ele>1565.4</ele>
        <time>2021-10-08T10:09:09Z</time>
      </trkpt>
      <trkpt lat="44.87834" lon="5.34484">
        <ele>1565.6</ele>
        <time>2021-10-08T10:09:10Z</time>
      </trkpt>
      <trkpt lat="44.87822" lon="5.34477">
        <ele>1565.4</ele>
        <time>2021-10-08T10:09:19Z</time>
      </trkpt>
      <trkpt lat="44.8782" lon="5.34476">
        <ele>1565.4</ele>
        <time>2021-10-08T10:09:20Z</time>
      </trkpt>
      <trkpt lat="44.87818" lon="5.34475">
        <ele>1565.2</ele>
        <time>2021-10-08T10:09:21Z</time>
      </trkpt>
      <trkpt lat="44.87816" lon="5.34474">
        <ele>1564.6</ele>
        <time>2021-10-08T10:09:22Z</time>
      </trkpt>
      <trkpt lat="44.87814" lon="5.34473">
        <ele>1564.6</ele>
        <time>2021-10-08T10:09:23Z</time>
      </trkpt>
      <trkpt lat="44.87811" lon="5.34472">
        <ele>1564.6</ele>
        <time>2021-10-08T10:09:24Z</time>
      </trkpt>
      <trkpt lat="44.87807" lon="5.34472">
        <ele>1563.6</ele>
        <time>2021-10-08T10:09:25Z</time>
      </trkpt>
      <trkpt lat="44.87803" lon="5.34471">
        <ele>1563.2</ele>
        <time>2021-10-08T10:09:26Z</time>
      </trkpt>
      <trkpt lat="44.878" lon="5.34471">
        <ele>1563.2</ele>
        <time>2021-10-08T10:09:27Z</time>
      </trkpt>
      <trkpt lat="44.87799" lon="5.34471">
        <ele>1563.2</ele>
        <time>2021-10-08T10:09:28Z</time>
      </trkpt>
      <trkpt lat="44.87796" lon="5.34472">
        <ele>1562.2</ele>
        <time>2021-10-08T10:09:29Z</time>
      </trkpt>
      <trkpt lat="44.87793" lon="5.34472">
        <ele>1559.4</ele>
        <time>2021-10-08T10:09:30Z</time>
      </trkpt>
      <trkpt lat="44.87789" lon="5.34472">
        <ele>1559.4</ele>
        <time>2021-10-08T10:09:31Z</time>
      </trkpt>
      <trkpt lat="44.87785" lon="5.34471">
        <ele>1559.4</ele>
        <time>2021-10-08T10:09:32Z</time>
      </trkpt>
      <trkpt lat="44.87781" lon="5.3447">
        <ele>1558.4</ele>
        <time>2021-10-08T10:09:33Z</time>
      </trkpt>
      <trkpt lat="44.87779" lon="5.3447">
        <ele>1556.8</ele>
        <time>2021-10-08T10:09:34Z</time>
      </trkpt>
      <trkpt lat="44.87774" lon="5.3447">
        <ele>1556.8</ele>
        <time>2021-10-08T10:09:35Z</time>
      </trkpt>
      <trkpt lat="44.8777" lon="5.3447">
        <ele>1556.8</ele>
        <time>2021-10-08T10:09:36Z</time>
      </trkpt>
      <trkpt lat="44.87766" lon="5.34469">
        <ele>1555.8</ele>
        <time>2021-10-08T10:09:37Z</time>
      </trkpt>
      <trkpt lat="44.87763" lon="5.34468">
        <ele>1553.8</ele>
        <time>2021-10-08T10:09:38Z</time>
      </trkpt>
      <trkpt lat="44.8776" lon="5.34467">
        <ele>1553.8</ele>
        <time>2021-10-08T10:09:39Z</time>
      </trkpt>
      <trkpt lat="44.87756" lon="5.34468">
        <ele>1553.8</ele>
        <time>2021-10-08T10:09:40Z</time>
      </trkpt>
      <trkpt lat="44.87753" lon="5.34468">
        <ele>1552.8</ele>
        <time>2021-10-08T10:09:41Z</time>
      </trkpt>
      <trkpt lat="44.87748" lon="5.34468">
        <ele>1550.6</ele>
        <time>2021-10-08T10:09:42Z</time>
      </trkpt>
      <trkpt lat="44.87745" lon="5.34467">
        <ele>1550.6</ele>
        <time>2021-10-08T10:09:43Z</time>
      </trkpt>
      <trkpt lat="44.87742" lon="5.34467">
        <ele>1550.6</ele>
        <time>2021-10-08T10:09:44Z</time>
      </trkpt>
      <trkpt lat="44.87739" lon="5.34467">
        <ele>1550</ele>
        <time>2021-10-08T10:09:45Z</time>
      </trkpt>
      <trkpt lat="44.87737" lon="5.34467">
        <ele>1549.4</ele>
        <time>2021-10-08T10:09:46Z</time>
      </trkpt>
      <trkpt lat="44.87734" lon="5.34467">
        <ele>1549.4</ele>
        <time>2021-10-08T10:09:47Z</time>
      </trkpt>
      <trkpt lat="44.87731" lon="5.34465">
        <ele>1549.4</ele>
        <time>2021-10-08T10:09:48Z</time>
      </trkpt>
      <trkpt lat="44.87729" lon="5.34466">
        <ele>1548.4</ele>
        <time>2021-10-08T10:09:49Z</time>
      </trkpt>
      <trkpt lat="44.87725" lon="5.34466">
        <ele>1547.8</ele>
        <time>2021-10-08T10:09:50Z</time>
      </trkpt>
      <trkpt lat="44.87723" lon="5.34465">
        <ele>1547.8</ele>
        <time>2021-10-08T10:09:51Z</time>
      </trkpt>
      <trkpt lat="44.8772" lon="5.34466">
        <ele>1547.8</ele>
        <time>2021-10-08T10:09:52Z</time>
      </trkpt>
      <trkpt lat="44.87717" lon="5.34467">
        <ele>1546.8</ele>
        <time>2021-10-08T10:09:53Z</time>
      </trkpt>
      <trkpt lat="44.87714" lon="5.34466">
        <ele>1545</ele>
        <time>2021-10-08T10:09:54Z</time>
      </trkpt>
      <trkpt lat="44.8771" lon="5.34464">
        <ele>1545</ele>
        <time>2021-10-08T10:09:55Z</time>
      </trkpt>
      <trkpt lat="44.87708" lon="5.34464">
        <ele>1545</ele>
        <time>2021-10-08T10:09:56Z</time>
      </trkpt>
      <trkpt lat="44.87706" lon="5.34464">
        <ele>1545</ele>
        <time>2021-10-08T10:09:57Z</time>
      </trkpt>
      <trkpt lat="44.87704" lon="5.34463">
        <ele>1544.2</ele>
        <time>2021-10-08T10:09:58Z</time>
      </trkpt>
      <trkpt lat="44.87701" lon="5.34463">
        <ele>1544.2</ele>
        <time>2021-10-08T10:09:59Z</time>
      </trkpt>
      <trkpt lat="44.87698" lon="5.34462">
        <ele>1544.2</ele>
        <time>2021-10-08T10:10:00Z</time>
      </trkpt>
      <trkpt lat="44.87696" lon="5.3446">
        <ele>1543.4</ele>
        <time>2021-10-08T10:10:01Z</time>
      </trkpt>
      <trkpt lat="44.87694" lon="5.34459">
        <ele>1543.4</ele>
        <time>2021-10-08T10:10:02Z</time>
      </trkpt>
      <trkpt lat="44.87692" lon="5.34459">
        <ele>1543.4</ele>
        <time>2021-10-08T10:10:03Z</time>
      </trkpt>
      <trkpt lat="44.87689" lon="5.3446">
        <ele>1543.4</ele>
        <time>2021-10-08T10:10:04Z</time>
      </trkpt>
      <trkpt lat="44.87686" lon="5.34458">
        <ele>1542.4</ele>
        <time>2021-10-08T10:10:05Z</time>
      </trkpt>
      <trkpt lat="44.87684" lon="5.34456">
        <ele>1542.2</ele>
        <time>2021-10-08T10:10:06Z</time>
      </trkpt>
      <trkpt lat="44.87683" lon="5.34455">
        <ele>1542.2</ele>
        <time>2021-10-08T10:10:07Z</time>
      </trkpt>
      <trkpt lat="44.87683" lon="5.34454">
        <ele>1542.2</ele>
        <time>2021-10-08T10:10:08Z</time>
      </trkpt>
      <trkpt lat="44.87681" lon="5.34453">
        <ele>1541.2</ele>
        <time>2021-10-08T10:10:09Z</time>
      </trkpt>
      <trkpt lat="44.87679" lon="5.3445">
        <ele>1541.2</ele>
        <time>2021-10-08T10:10:10Z</time>
      </trkpt>
      <trkpt lat="44.87678" lon="5.3445">
        <ele>1541.2</ele>
        <time>2021-10-08T10:10:11Z</time>
      </trkpt>
      <trkpt lat="44.87675" lon="5.34449">
        <ele>1541.2</ele>
        <time>2021-10-08T10:10:12Z</time>
      </trkpt>
      <trkpt lat="44.87673" lon="5.34448">
        <ele>1540.2</ele>
        <time>2021-10-08T10:10:13Z</time>
      </trkpt>
      <trkpt lat="44.8767" lon="5.34446">
        <ele>1537.2</ele>
        <time>2021-10-08T10:10:14Z</time>
      </trkpt>
      <trkpt lat="44.87668" lon="5.34445">
        <ele>1537.2</ele>
        <time>2021-10-08T10:10:15Z</time>
      </trkpt>
      <trkpt lat="44.87667" lon="5.34443">
        <ele>1537.2</ele>
        <time>2021-10-08T10:10:16Z</time>
      </trkpt>
      <trkpt lat="44.87664" lon="5.34442">
        <ele>1537.2</ele>
        <time>2021-10-08T10:10:17Z</time>
      </trkpt>
      <trkpt lat="44.87661" lon="5.3444">
        <ele>1535.6</ele>
        <time>2021-10-08T10:10:18Z</time>
      </trkpt>
      <trkpt lat="44.87658" lon="5.34437">
        <ele>1535.6</ele>
        <time>2021-10-08T10:10:19Z</time>
      </trkpt>
      <trkpt lat="44.87657" lon="5.34435">
        <ele>1535.6</ele>
        <time>2021-10-08T10:10:20Z</time>
      </trkpt>
      <trkpt lat="44.87656" lon="5.34434">
        <ele>1535.6</ele>
        <time>2021-10-08T10:10:21Z</time>
      </trkpt>
      <trkpt lat="44.87655" lon="5.34433">
        <ele>1535.6</ele>
        <time>2021-10-08T10:10:22Z</time>
      </trkpt>
      <trkpt lat="44.87654" lon="5.34432">
        <ele>1535.6</ele>
        <time>2021-10-08T10:10:23Z</time>
      </trkpt>
      <trkpt lat="44.87653" lon="5.34432">
        <ele>1535.6</ele>
        <time>2021-10-08T10:10:24Z</time>
      </trkpt>
      <trkpt lat="44.87651" lon="5.34431">
        <ele>1534.6</ele>
        <time>2021-10-08T10:10:25Z</time>
      </trkpt>
      <trkpt lat="44.8765" lon="5.34431">
        <ele>1534.8</ele>
        <time>2021-10-08T10:10:26Z</time>
      </trkpt>
      <trkpt lat="44.8765" lon="5.34431">
        <ele>1534.8</ele>
        <time>2021-10-08T10:10:27Z</time>
      </trkpt>
      <trkpt lat="44.87648" lon="5.34432">
        <ele>1534.8</ele>
        <time>2021-10-08T10:10:28Z</time>
      </trkpt>
      <trkpt lat="44.87646" lon="5.34431">
        <ele>1533.8</ele>
        <time>2021-10-08T10:10:29Z</time>
      </trkpt>
      <trkpt lat="44.87644" lon="5.34431">
        <ele>1532.6</ele>
        <time>2021-10-08T10:10:30Z</time>
      </trkpt>
      <trkpt lat="44.87643" lon="5.34431">
        <ele>1532.6</ele>
        <time>2021-10-08T10:10:31Z</time>
      </trkpt>
      <trkpt lat="44.87641" lon="5.34431">
        <ele>1532.6</ele>
        <time>2021-10-08T10:10:32Z</time>
      </trkpt>
      <trkpt lat="44.8764" lon="5.34431">
        <ele>1531.6</ele>
        <time>2021-10-08T10:10:33Z</time>
      </trkpt>
      <trkpt lat="44.87638" lon="5.34431">
        <ele>1531</ele>
        <time>2021-10-08T10:10:34Z</time>
      </trkpt>
      <trkpt lat="44.87635" lon="5.34431">
        <ele>1531</ele>
        <time>2021-10-08T10:10:35Z</time>
      </trkpt>
      <trkpt lat="44.87633" lon="5.3443">
        <ele>1531</ele>
        <time>2021-10-08T10:10:36Z</time>
      </trkpt>
      <trkpt lat="44.8763" lon="5.34429">
        <ele>1530</ele>
        <time>2021-10-08T10:10:37Z</time>
      </trkpt>
      <trkpt lat="44.87626" lon="5.34428">
        <ele>1528</ele>
        <time>2021-10-08T10:10:38Z</time>
      </trkpt>
      <trkpt lat="44.87623" lon="5.34428">
        <ele>1528</ele>
        <time>2021-10-08T10:10:39Z</time>
      </trkpt>
      <trkpt lat="44.87621" lon="5.34427">
        <ele>1528</ele>
        <time>2021-10-08T10:10:40Z</time>
      </trkpt>
      <trkpt lat="44.87617" lon="5.34427">
        <ele>1528</ele>
        <time>2021-10-08T10:10:41Z</time>
      </trkpt>
      <trkpt lat="44.87613" lon="5.34428">
        <ele>1524.4</ele>
        <time>2021-10-08T10:10:42Z</time>
      </trkpt>
      <trkpt lat="44.87608" lon="5.34427">
        <ele>1524.4</ele>
        <time>2021-10-08T10:10:43Z</time>
      </trkpt>
      <trkpt lat="44.87604" lon="5.34426">
        <ele>1524.4</ele>
        <time>2021-10-08T10:10:44Z</time>
      </trkpt>
      <trkpt lat="44.87599" lon="5.34426">
        <ele>1523.4</ele>
        <time>2021-10-08T10:10:45Z</time>
      </trkpt>
      <trkpt lat="44.87596" lon="5.34426">
        <ele>1521.8</ele>
        <time>2021-10-08T10:10:46Z</time>
      </trkpt>
      <trkpt lat="44.87595" lon="5.34424">
        <ele>1521.8</ele>
        <time>2021-10-08T10:10:47Z</time>
      </trkpt>
      <trkpt lat="44.87592" lon="5.34422">
        <ele>1521.8</ele>
        <time>2021-10-08T10:10:48Z</time>
      </trkpt>
      <trkpt lat="44.87588" lon="5.34422">
        <ele>1521.8</ele>
        <time>2021-10-08T10:10:49Z</time>
      </trkpt>
      <trkpt lat="44.87586" lon="5.3442">
        <ele>1519.4</ele>
        <time>2021-10-08T10:10:50Z</time>
      </trkpt>
      <trkpt lat="44.87584" lon="5.3442">
        <ele>1519.4</ele>
        <time>2021-10-08T10:10:51Z</time>
      </trkpt>
      <trkpt lat="44.87581" lon="5.34419">
        <ele>1519.4</ele>
        <time>2021-10-08T10:10:52Z</time>
      </trkpt>
      <trkpt lat="44.87578" lon="5.34418">
        <ele>1518.4</ele>
        <time>2021-10-08T10:10:53Z</time>
      </trkpt>
      <trkpt lat="44.87576" lon="5.34417">
        <ele>1517.6</ele>
        <time>2021-10-08T10:10:54Z</time>
      </trkpt>
      <trkpt lat="44.87575" lon="5.34416">
        <ele>1517.6</ele>
        <time>2021-10-08T10:10:55Z</time>
      </trkpt>
      <trkpt lat="44.87573" lon="5.34417">
        <ele>1517.6</ele>
        <time>2021-10-08T10:10:56Z</time>
      </trkpt>
      <trkpt lat="44.87571" lon="5.34418">
        <ele>1517.6</ele>
        <time>2021-10-08T10:10:57Z</time>
      </trkpt>
      <trkpt lat="44.87567" lon="5.34419">
        <ele>1515</ele>
        <time>2021-10-08T10:10:58Z</time>
      </trkpt>
      <trkpt lat="44.87563" lon="5.34417">
        <ele>1515</ele>
        <time>2021-10-08T10:10:59Z</time>
      </trkpt>
      <trkpt lat="44.87559" lon="5.34417">
        <ele>1515</ele>
        <time>2021-10-08T10:11:00Z</time>
      </trkpt>
      <trkpt lat="44.87556" lon="5.34418">
        <ele>1514</ele>
        <time>2021-10-08T10:11:01Z</time>
      </trkpt>
      <trkpt lat="44.87552" lon="5.34417">
        <ele>1511.4</ele>
        <time>2021-10-08T10:11:02Z</time>
      </trkpt>
      <trkpt lat="44.87548" lon="5.34417">
        <ele>1511.4</ele>
        <time>2021-10-08T10:11:03Z</time>
      </trkpt>
      <trkpt lat="44.87543" lon="5.34417">
        <ele>1511.4</ele>
        <time>2021-10-08T10:11:04Z</time>
      </trkpt>
      <trkpt lat="44.87538" lon="5.34414">
        <ele>1511.4</ele>
        <time>2021-10-08T10:11:05Z</time>
      </trkpt>
      <trkpt lat="44.87532" lon="5.34414">
        <ele>1509.4</ele>
        <time>2021-10-08T10:11:06Z</time>
      </trkpt>
      <trkpt lat="44.87527" lon="5.34415">
        <ele>1509.4</ele>
        <time>2021-10-08T10:11:07Z</time>
      </trkpt>
      <trkpt lat="44.87521" lon="5.34414">
        <ele>1509.4</ele>
        <time>2021-10-08T10:11:08Z</time>
      </trkpt>
      <trkpt lat="44.87517" lon="5.34411">
        <ele>1510.2</ele>
        <time>2021-10-08T10:11:09Z</time>
      </trkpt>
      <trkpt lat="44.87513" lon="5.34412">
        <ele>1510.4</ele>
        <time>2021-10-08T10:11:10Z</time>
      </trkpt>
      <trkpt lat="44.87511" lon="5.34413">
        <ele>1510.4</ele>
        <time>2021-10-08T10:11:11Z</time>
      </trkpt>
      <trkpt lat="44.87509" lon="5.34412">
        <ele>1510.4</ele>
        <time>2021-10-08T10:11:12Z</time>
      </trkpt>
      <trkpt lat="44.87507" lon="5.34412">
        <ele>1510.4</ele>
        <time>2021-10-08T10:11:13Z</time>
      </trkpt>
      <trkpt lat="44.87505" lon="5.34413">
        <ele>1508</ele>
        <time>2021-10-08T10:11:14Z</time>
      </trkpt>
      <trkpt lat="44.87502" lon="5.34412">
        <ele>1508</ele>
        <time>2021-10-08T10:11:15Z</time>
      </trkpt>
      <trkpt lat="44.87499" lon="5.34411">
        <ele>1508</ele>
        <time>2021-10-08T10:11:16Z</time>
      </trkpt>
      <trkpt lat="44.87496" lon="5.34411">
        <ele>1507</ele>
        <time>2021-10-08T10:11:17Z</time>
      </trkpt>
      <trkpt lat="44.87494" lon="5.3441">
        <ele>1506</ele>
        <time>2021-10-08T10:11:18Z</time>
      </trkpt>
      <trkpt lat="44.87493" lon="5.3441">
        <ele>1506</ele>
        <time>2021-10-08T10:11:19Z</time>
      </trkpt>
      <trkpt lat="44.8749" lon="5.3441">
        <ele>1506</ele>
        <time>2021-10-08T10:11:20Z</time>
      </trkpt>
      <trkpt lat="44.87487" lon="5.3441">
        <ele>1505</ele>
        <time>2021-10-08T10:11:21Z</time>
      </trkpt>
      <trkpt lat="44.87484" lon="5.34408">
        <ele>1503.4</ele>
        <time>2021-10-08T10:11:22Z</time>
      </trkpt>
      <trkpt lat="44.87482" lon="5.34406">
        <ele>1503.4</ele>
        <time>2021-10-08T10:11:23Z</time>
      </trkpt>
      <trkpt lat="44.8748" lon="5.34406">
        <ele>1503.4</ele>
        <time>2021-10-08T10:11:24Z</time>
      </trkpt>
      <trkpt lat="44.87478" lon="5.34405">
        <ele>1502.4</ele>
        <time>2021-10-08T10:11:25Z</time>
      </trkpt>
      <trkpt lat="44.87476" lon="5.34404">
        <ele>1501.8</ele>
        <time>2021-10-08T10:11:26Z</time>
      </trkpt>
      <trkpt lat="44.87474" lon="5.34404">
        <ele>1501.8</ele>
        <time>2021-10-08T10:11:27Z</time>
      </trkpt>
      <trkpt lat="44.87472" lon="5.34403">
        <ele>1501.8</ele>
        <time>2021-10-08T10:11:28Z</time>
      </trkpt>
      <trkpt lat="44.8747" lon="5.34403">
        <ele>1501.8</ele>
        <time>2021-10-08T10:11:29Z</time>
      </trkpt>
      <trkpt lat="44.87468" lon="5.34403">
        <ele>1500.4</ele>
        <time>2021-10-08T10:11:30Z</time>
      </trkpt>
      <trkpt lat="44.87466" lon="5.34402">
        <ele>1500.4</ele>
        <time>2021-10-08T10:11:31Z</time>
      </trkpt>
      <trkpt lat="44.87464" lon="5.34402">
        <ele>1500.4</ele>
        <time>2021-10-08T10:11:32Z</time>
      </trkpt>
      <trkpt lat="44.87462" lon="5.34401">
        <ele>1499.4</ele>
        <time>2021-10-08T10:11:33Z</time>
      </trkpt>
      <trkpt lat="44.87461" lon="5.34401">
        <ele>1498.6</ele>
        <time>2021-10-08T10:11:34Z</time>
      </trkpt>
      <trkpt lat="44.8746" lon="5.34401">
        <ele>1498.6</ele>
        <time>2021-10-08T10:11:35Z</time>
      </trkpt>
      <trkpt lat="44.87459" lon="5.344">
        <ele>1498.6</ele>
        <time>2021-10-08T10:11:36Z</time>
      </trkpt>
      <trkpt lat="44.87459" lon="5.344">
        <ele>1498.6</ele>
        <time>2021-10-08T10:11:37Z</time>
      </trkpt>
      <trkpt lat="44.87458" lon="5.344">
        <ele>1497.2</ele>
        <time>2021-10-08T10:11:38Z</time>
      </trkpt>
      <trkpt lat="44.87456" lon="5.34399">
        <ele>1497.2</ele>
        <time>2021-10-08T10:11:39Z</time>
      </trkpt>
      <trkpt lat="44.87455" lon="5.34399">
        <ele>1497.2</ele>
        <time>2021-10-08T10:11:40Z</time>
      </trkpt>
      <trkpt lat="44.87453" lon="5.34399">
        <ele>1496.2</ele>
        <time>2021-10-08T10:11:41Z</time>
      </trkpt>
      <trkpt lat="44.87451" lon="5.34399">
        <ele>1494.6</ele>
        <time>2021-10-08T10:11:42Z</time>
      </trkpt>
      <trkpt lat="44.87449" lon="5.34399">
        <ele>1494.6</ele>
        <time>2021-10-08T10:11:43Z</time>
      </trkpt>
      <trkpt lat="44.87448" lon="5.34398">
        <ele>1494.6</ele>
        <time>2021-10-08T10:11:44Z</time>
      </trkpt>
      <trkpt lat="44.87446" lon="5.34397">
        <ele>1493.6</ele>
        <time>2021-10-08T10:11:45Z</time>
      </trkpt>
      <trkpt lat="44.87446" lon="5.34396">
        <ele>1493.4</ele>
        <time>2021-10-08T10:11:46Z</time>
      </trkpt>
      <trkpt lat="44.87444" lon="5.34395">
        <ele>1493.4</ele>
        <time>2021-10-08T10:11:47Z</time>
      </trkpt>
      <trkpt lat="44.87443" lon="5.34394">
        <ele>1493.4</ele>
        <time>2021-10-08T10:11:48Z</time>
      </trkpt>
      <trkpt lat="44.87442" lon="5.34393">
        <ele>1493</ele>
        <time>2021-10-08T10:11:49Z</time>
      </trkpt>
      <trkpt lat="44.87442" lon="5.34393">
        <ele>1493</ele>
        <time>2021-10-08T10:11:50Z</time>
      </trkpt>
      <trkpt lat="44.87441" lon="5.34392">
        <ele>1493</ele>
        <time>2021-10-08T10:11:51Z</time>
      </trkpt>
      <trkpt lat="44.8744" lon="5.34392">
        <ele>1493</ele>
        <time>2021-10-08T10:11:52Z</time>
      </trkpt>
      <trkpt lat="44.87383" lon="5.34379">
        <ele>1478.2</ele>
        <time>2021-10-08T10:12:56Z</time>
      </trkpt>
      <trkpt lat="44.87381" lon="5.34377">
        <ele>1478.2</ele>
        <time>2021-10-08T10:12:57Z</time>
      </trkpt>
      <trkpt lat="44.87378" lon="5.34376">
        <ele>1475.8</ele>
        <time>2021-10-08T10:12:58Z</time>
      </trkpt>
      <trkpt lat="44.87374" lon="5.34375">
        <ele>1475.8</ele>
        <time>2021-10-08T10:12:59Z</time>
      </trkpt>
      <trkpt lat="44.8737" lon="5.34373">
        <ele>1475.8</ele>
        <time>2021-10-08T10:13:00Z</time>
      </trkpt>
      <trkpt lat="44.87366" lon="5.34371">
        <ele>1475.8</ele>
        <time>2021-10-08T10:13:01Z</time>
      </trkpt>
      <trkpt lat="44.87362" lon="5.3437">
        <ele>1476.6</ele>
        <time>2021-10-08T10:13:02Z</time>
      </trkpt>
      <trkpt lat="44.87358" lon="5.34369">
        <ele>1476.6</ele>
        <time>2021-10-08T10:13:03Z</time>
      </trkpt>
      <trkpt lat="44.87356" lon="5.34369">
        <ele>1476.6</ele>
        <time>2021-10-08T10:13:04Z</time>
      </trkpt>
      <trkpt lat="44.87353" lon="5.34368">
        <ele>1476.6</ele>
        <time>2021-10-08T10:13:05Z</time>
      </trkpt>
      <trkpt lat="44.8735" lon="5.34367">
        <ele>1477</ele>
        <time>2021-10-08T10:13:06Z</time>
      </trkpt>
      <trkpt lat="44.87347" lon="5.34366">
        <ele>1477</ele>
        <time>2021-10-08T10:13:07Z</time>
      </trkpt>
      <trkpt lat="44.87344" lon="5.34365">
        <ele>1477</ele>
        <time>2021-10-08T10:13:08Z</time>
      </trkpt>
      <trkpt lat="44.87341" lon="5.34365">
        <ele>1477</ele>
        <time>2021-10-08T10:13:09Z</time>
      </trkpt>
      <trkpt lat="44.87338" lon="5.34364">
        <ele>1477.2</ele>
        <time>2021-10-08T10:13:10Z</time>
      </trkpt>
      <trkpt lat="44.87335" lon="5.34363">
        <ele>1477.2</ele>
        <time>2021-10-08T10:13:11Z</time>
      </trkpt>
      <trkpt lat="44.87332" lon="5.34363">
        <ele>1477.2</ele>
        <time>2021-10-08T10:13:12Z</time>
      </trkpt>
      <trkpt lat="44.8733" lon="5.34363">
        <ele>1476.8</ele>
        <time>2021-10-08T10:13:13Z</time>
      </trkpt>
      <trkpt lat="44.87328" lon="5.34363">
        <ele>1476.4</ele>
        <time>2021-10-08T10:13:14Z</time>
      </trkpt>
      <trkpt lat="44.87326" lon="5.34362">
        <ele>1476.4</ele>
        <time>2021-10-08T10:13:15Z</time>
      </trkpt>
      <trkpt lat="44.87324" lon="5.34362">
        <ele>1476.4</ele>
        <time>2021-10-08T10:13:16Z</time>
      </trkpt>
      <trkpt lat="44.87323" lon="5.34362">
        <ele>1476.4</ele>
        <time>2021-10-08T10:13:17Z</time>
      </trkpt>
      <trkpt lat="44.87323" lon="5.34362">
        <ele>1476.8</ele>
        <time>2021-10-08T10:13:18Z</time>
      </trkpt>
      <trkpt lat="44.87323" lon="5.34362">
        <ele>1476.8</ele>
        <time>2021-10-08T10:13:19Z</time>
      </trkpt>
      <trkpt lat="44.87308" lon="5.34359">
        <ele>1477</ele>
        <time>2021-10-08T10:13:30Z</time>
      </trkpt>
      <trkpt lat="44.87306" lon="5.34359">
        <ele>1477</ele>
        <time>2021-10-08T10:13:31Z</time>
      </trkpt>
      <trkpt lat="44.87303" lon="5.34358">
        <ele>1477</ele>
        <time>2021-10-08T10:13:32Z</time>
      </trkpt>
      <trkpt lat="44.87301" lon="5.34357">
        <ele>1477.2</ele>
        <time>2021-10-08T10:13:33Z</time>
      </trkpt>
      <trkpt lat="44.87298" lon="5.34357">
        <ele>1477.6</ele>
        <time>2021-10-08T10:13:34Z</time>
      </trkpt>
      <trkpt lat="44.87296" lon="5.34356">
        <ele>1477.6</ele>
        <time>2021-10-08T10:13:35Z</time>
      </trkpt>
      <trkpt lat="44.87295" lon="5.34356">
        <ele>1477.6</ele>
        <time>2021-10-08T10:13:36Z</time>
      </trkpt>
      <trkpt lat="44.87294" lon="5.34356">
        <ele>1478.4</ele>
        <time>2021-10-08T10:13:37Z</time>
      </trkpt>
      <trkpt lat="44.87292" lon="5.34356">
        <ele>1478.8</ele>
        <time>2021-10-08T10:13:38Z</time>
      </trkpt>
      <trkpt lat="44.87291" lon="5.34356">
        <ele>1478.8</ele>
        <time>2021-10-08T10:13:39Z</time>
      </trkpt>
      <trkpt lat="44.87288" lon="5.34358">
        <ele>1478.8</ele>
        <time>2021-10-08T10:13:40Z</time>
      </trkpt>
      <trkpt lat="44.87286" lon="5.34358">
        <ele>1478.2</ele>
        <time>2021-10-08T10:13:41Z</time>
      </trkpt>
      <trkpt lat="44.87285" lon="5.34357">
        <ele>1478.4</ele>
        <time>2021-10-08T10:13:42Z</time>
      </trkpt>
      <trkpt lat="44.87283" lon="5.34357">
        <ele>1478.4</ele>
        <time>2021-10-08T10:13:43Z</time>
      </trkpt>
      <trkpt lat="44.87281" lon="5.34356">
        <ele>1478.4</ele>
        <time>2021-10-08T10:13:44Z</time>
      </trkpt>
      <trkpt lat="44.87279" lon="5.34356">
        <ele>1479.2</ele>
        <time>2021-10-08T10:13:45Z</time>
      </trkpt>
      <trkpt lat="44.87277" lon="5.34355">
        <ele>1479.4</ele>
        <time>2021-10-08T10:13:46Z</time>
      </trkpt>
      <trkpt lat="44.87275" lon="5.34355">
        <ele>1479.4</ele>
        <time>2021-10-08T10:13:47Z</time>
      </trkpt>
      <trkpt lat="44.87273" lon="5.34355">
        <ele>1479.4</ele>
        <time>2021-10-08T10:13:48Z</time>
      </trkpt>
      <trkpt lat="44.87271" lon="5.34354">
        <ele>1479.4</ele>
        <time>2021-10-08T10:13:49Z</time>
      </trkpt>
      <trkpt lat="44.87269" lon="5.34353">
        <ele>1479.6</ele>
        <time>2021-10-08T10:13:50Z</time>
      </trkpt>
      <trkpt lat="44.87266" lon="5.34352">
        <ele>1479.6</ele>
        <time>2021-10-08T10:13:51Z</time>
      </trkpt>
      <trkpt lat="44.87265" lon="5.34352">
        <ele>1479.6</ele>
        <time>2021-10-08T10:13:52Z</time>
      </trkpt>
      <trkpt lat="44.87263" lon="5.34351">
        <ele>1479.6</ele>
        <time>2021-10-08T10:13:53Z</time>
      </trkpt>
      <trkpt lat="44.87261" lon="5.3435">
        <ele>1480.2</ele>
        <time>2021-10-08T10:13:54Z</time>
      </trkpt>
      <trkpt lat="44.87259" lon="5.34349">
        <ele>1480.2</ele>
        <time>2021-10-08T10:13:55Z</time>
      </trkpt>
      <trkpt lat="44.87258" lon="5.34348">
        <ele>1480.2</ele>
        <time>2021-10-08T10:13:56Z</time>
      </trkpt>
      <trkpt lat="44.87256" lon="5.34347">
        <ele>1480</ele>
        <time>2021-10-08T10:13:57Z</time>
      </trkpt>
      <trkpt lat="44.87255" lon="5.34348">
        <ele>1480</ele>
        <time>2021-10-08T10:13:58Z</time>
      </trkpt>
      <trkpt lat="44.87253" lon="5.34348">
        <ele>1480</ele>
        <time>2021-10-08T10:13:59Z</time>
      </trkpt>
      <trkpt lat="44.87251" lon="5.34347">
        <ele>1480</ele>
        <time>2021-10-08T10:14:00Z</time>
      </trkpt>
      <trkpt lat="44.8725" lon="5.34348">
        <ele>1480</ele>
        <time>2021-10-08T10:14:01Z</time>
      </trkpt>
      <trkpt lat="44.87249" lon="5.34348">
        <ele>1480</ele>
        <time>2021-10-08T10:14:02Z</time>
      </trkpt>
      <trkpt lat="44.87247" lon="5.34349">
        <ele>1480</ele>
        <time>2021-10-08T10:14:03Z</time>
      </trkpt>
      <trkpt lat="44.87245" lon="5.34349">
        <ele>1480</ele>
        <time>2021-10-08T10:14:04Z</time>
      </trkpt>
      <trkpt lat="44.87243" lon="5.3435">
        <ele>1479.4</ele>
        <time>2021-10-08T10:14:05Z</time>
      </trkpt>
      <trkpt lat="44.87241" lon="5.34351">
        <ele>1479.4</ele>
        <time>2021-10-08T10:14:06Z</time>
      </trkpt>
      <trkpt lat="44.87238" lon="5.34352">
        <ele>1479.4</ele>
        <time>2021-10-08T10:14:07Z</time>
      </trkpt>
      <trkpt lat="44.87237" lon="5.34352">
        <ele>1479.4</ele>
        <time>2021-10-08T10:14:08Z</time>
      </trkpt>
      <trkpt lat="44.87235" lon="5.34353">
        <ele>1479.4</ele>
        <time>2021-10-08T10:14:09Z</time>
      </trkpt>
      <trkpt lat="44.87232" lon="5.34354">
        <ele>1479</ele>
        <time>2021-10-08T10:14:10Z</time>
      </trkpt>
      <trkpt lat="44.8723" lon="5.34356">
        <ele>1479</ele>
        <time>2021-10-08T10:14:11Z</time>
      </trkpt>
      <trkpt lat="44.87228" lon="5.34358">
        <ele>1479</ele>
        <time>2021-10-08T10:14:12Z</time>
      </trkpt>
      <trkpt lat="44.87226" lon="5.34359">
        <ele>1478</ele>
        <time>2021-10-08T10:14:13Z</time>
      </trkpt>
      <trkpt lat="44.87224" lon="5.3436">
        <ele>1477.8</ele>
        <time>2021-10-08T10:14:14Z</time>
      </trkpt>
      <trkpt lat="44.87222" lon="5.34361">
        <ele>1477.8</ele>
        <time>2021-10-08T10:14:15Z</time>
      </trkpt>
      <trkpt lat="44.87219" lon="5.34362">
        <ele>1477.8</ele>
        <time>2021-10-08T10:14:16Z</time>
      </trkpt>
      <trkpt lat="44.87216" lon="5.34363">
        <ele>1478</ele>
        <time>2021-10-08T10:14:17Z</time>
      </trkpt>
      <trkpt lat="44.87212" lon="5.34363">
        <ele>1478</ele>
        <time>2021-10-08T10:14:18Z</time>
      </trkpt>
      <trkpt lat="44.87209" lon="5.34363">
        <ele>1478</ele>
        <time>2021-10-08T10:14:19Z</time>
      </trkpt>
      <trkpt lat="44.87206" lon="5.34363">
        <ele>1478</ele>
        <time>2021-10-08T10:14:20Z</time>
      </trkpt>
      <trkpt lat="44.87202" lon="5.34362">
        <ele>1478</ele>
        <time>2021-10-08T10:14:21Z</time>
      </trkpt>
      <trkpt lat="44.87198" lon="5.34363">
        <ele>1477.2</ele>
        <time>2021-10-08T10:14:22Z</time>
      </trkpt>
      <trkpt lat="44.87195" lon="5.34363">
        <ele>1477.2</ele>
        <time>2021-10-08T10:14:23Z</time>
      </trkpt>
      <trkpt lat="44.87192" lon="5.34363">
        <ele>1477.2</ele>
        <time>2021-10-08T10:14:24Z</time>
      </trkpt>
      <trkpt lat="44.8719" lon="5.34362">
        <ele>1477.2</ele>
        <time>2021-10-08T10:14:25Z</time>
      </trkpt>
      <trkpt lat="44.87188" lon="5.34362">
        <ele>1476.4</ele>
        <time>2021-10-08T10:14:26Z</time>
      </trkpt>
      <trkpt lat="44.87186" lon="5.34364">
        <ele>1476.4</ele>
        <time>2021-10-08T10:14:27Z</time>
      </trkpt>
      <trkpt lat="44.87184" lon="5.34365">
        <ele>1476.4</ele>
        <time>2021-10-08T10:14:28Z</time>
      </trkpt>
      <trkpt lat="44.87182" lon="5.34367">
        <ele>1475.8</ele>
        <time>2021-10-08T10:14:29Z</time>
      </trkpt>
      <trkpt lat="44.8718" lon="5.34368">
        <ele>1475</ele>
        <time>2021-10-08T10:14:30Z</time>
      </trkpt>
      <trkpt lat="44.87178" lon="5.34369">
        <ele>1475</ele>
        <time>2021-10-08T10:14:31Z</time>
      </trkpt>
      <trkpt lat="44.87176" lon="5.34369">
        <ele>1475</ele>
        <time>2021-10-08T10:14:32Z</time>
      </trkpt>
      <trkpt lat="44.87173" lon="5.3437">
        <ele>1475</ele>
        <time>2021-10-08T10:14:33Z</time>
      </trkpt>
      <trkpt lat="44.87172" lon="5.34371">
        <ele>1473.4</ele>
        <time>2021-10-08T10:14:34Z</time>
      </trkpt>
      <trkpt lat="44.8717" lon="5.34372">
        <ele>1473.4</ele>
        <time>2021-10-08T10:14:35Z</time>
      </trkpt>
      <trkpt lat="44.87168" lon="5.34373">
        <ele>1473.4</ele>
        <time>2021-10-08T10:14:36Z</time>
      </trkpt>
      <trkpt lat="44.87167" lon="5.34374">
        <ele>1472.4</ele>
        <time>2021-10-08T10:14:37Z</time>
      </trkpt>
      <trkpt lat="44.87165" lon="5.34375">
        <ele>1470.6</ele>
        <time>2021-10-08T10:14:38Z</time>
      </trkpt>
      <trkpt lat="44.87163" lon="5.34377">
        <ele>1470.6</ele>
        <time>2021-10-08T10:14:39Z</time>
      </trkpt>
      <trkpt lat="44.87161" lon="5.34379">
        <ele>1470.6</ele>
        <time>2021-10-08T10:14:40Z</time>
      </trkpt>
      <trkpt lat="44.87159" lon="5.3438">
        <ele>1469.6</ele>
        <time>2021-10-08T10:14:41Z</time>
      </trkpt>
      <trkpt lat="44.87158" lon="5.34383">
        <ele>1468.6</ele>
        <time>2021-10-08T10:14:42Z</time>
      </trkpt>
      <trkpt lat="44.87156" lon="5.34385">
        <ele>1468.6</ele>
        <time>2021-10-08T10:14:43Z</time>
      </trkpt>
      <trkpt lat="44.87155" lon="5.34387">
        <ele>1468.6</ele>
        <time>2021-10-08T10:14:44Z</time>
      </trkpt>
      <trkpt lat="44.87153" lon="5.34389">
        <ele>1467.6</ele>
        <time>2021-10-08T10:14:45Z</time>
      </trkpt>
      <trkpt lat="44.87151" lon="5.34391">
        <ele>1466.4</ele>
        <time>2021-10-08T10:14:46Z</time>
      </trkpt>
      <trkpt lat="44.87149" lon="5.34392">
        <ele>1466.4</ele>
        <time>2021-10-08T10:14:47Z</time>
      </trkpt>
      <trkpt lat="44.87147" lon="5.34393">
        <ele>1466.4</ele>
        <time>2021-10-08T10:14:48Z</time>
      </trkpt>
      <trkpt lat="44.87145" lon="5.34396">
        <ele>1465.4</ele>
        <time>2021-10-08T10:14:49Z</time>
      </trkpt>
      <trkpt lat="44.87142" lon="5.34398">
        <ele>1463</ele>
        <time>2021-10-08T10:14:50Z</time>
      </trkpt>
      <trkpt lat="44.8714" lon="5.34401">
        <ele>1463</ele>
        <time>2021-10-08T10:14:51Z</time>
      </trkpt>
      <trkpt lat="44.87138" lon="5.34404">
        <ele>1463</ele>
        <time>2021-10-08T10:14:52Z</time>
      </trkpt>
      <trkpt lat="44.87135" lon="5.34406">
        <ele>1462</ele>
        <time>2021-10-08T10:14:53Z</time>
      </trkpt>
      <trkpt lat="44.87133" lon="5.34408">
        <ele>1460.8</ele>
        <time>2021-10-08T10:14:54Z</time>
      </trkpt>
      <trkpt lat="44.87131" lon="5.3441">
        <ele>1460.8</ele>
        <time>2021-10-08T10:14:55Z</time>
      </trkpt>
      <trkpt lat="44.87131" lon="5.34412">
        <ele>1460.8</ele>
        <time>2021-10-08T10:14:56Z</time>
      </trkpt>
      <trkpt lat="44.8713" lon="5.34416">
        <ele>1459.8</ele>
        <time>2021-10-08T10:14:57Z</time>
      </trkpt>
      <trkpt lat="44.87128" lon="5.34419">
        <ele>1459</ele>
        <time>2021-10-08T10:14:58Z</time>
      </trkpt>
      <trkpt lat="44.87127" lon="5.34422">
        <ele>1459</ele>
        <time>2021-10-08T10:14:59Z</time>
      </trkpt>
      <trkpt lat="44.87126" lon="5.34425">
        <ele>1459</ele>
        <time>2021-10-08T10:15:00Z</time>
      </trkpt>
      <trkpt lat="44.87124" lon="5.34429">
        <ele>1459</ele>
        <time>2021-10-08T10:15:01Z</time>
      </trkpt>
      <trkpt lat="44.87121" lon="5.34431">
        <ele>1457.8</ele>
        <time>2021-10-08T10:15:02Z</time>
      </trkpt>
      <trkpt lat="44.87118" lon="5.34434">
        <ele>1457.8</ele>
        <time>2021-10-08T10:15:03Z</time>
      </trkpt>
      <trkpt lat="44.87115" lon="5.34435">
        <ele>1457.8</ele>
        <time>2021-10-08T10:15:04Z</time>
      </trkpt>
      <trkpt lat="44.87112" lon="5.34435">
        <ele>1457.8</ele>
        <time>2021-10-08T10:15:05Z</time>
      </trkpt>
      <trkpt lat="44.8711" lon="5.34435">
        <ele>1458</ele>
        <time>2021-10-08T10:15:06Z</time>
      </trkpt>
      <trkpt lat="44.87108" lon="5.34435">
        <ele>1458</ele>
        <time>2021-10-08T10:15:07Z</time>
      </trkpt>
      <trkpt lat="44.87105" lon="5.34435">
        <ele>1458</ele>
        <time>2021-10-08T10:15:08Z</time>
      </trkpt>
      <trkpt lat="44.87103" lon="5.34435">
        <ele>1457.4</ele>
        <time>2021-10-08T10:15:09Z</time>
      </trkpt>
      <trkpt lat="44.87101" lon="5.34435">
        <ele>1458</ele>
        <time>2021-10-08T10:15:10Z</time>
      </trkpt>
      <trkpt lat="44.87098" lon="5.34435">
        <ele>1458</ele>
        <time>2021-10-08T10:15:11Z</time>
      </trkpt>
      <trkpt lat="44.87096" lon="5.34435">
        <ele>1458</ele>
        <time>2021-10-08T10:15:12Z</time>
      </trkpt>
      <trkpt lat="44.87094" lon="5.34435">
        <ele>1458</ele>
        <time>2021-10-08T10:15:13Z</time>
      </trkpt>
      <trkpt lat="44.87092" lon="5.34435">
        <ele>1457.4</ele>
        <time>2021-10-08T10:15:14Z</time>
      </trkpt>
      <trkpt lat="44.8709" lon="5.34435">
        <ele>1457.4</ele>
        <time>2021-10-08T10:15:15Z</time>
      </trkpt>
      <trkpt lat="44.87088" lon="5.34435">
        <ele>1457.4</ele>
        <time>2021-10-08T10:15:16Z</time>
      </trkpt>
      <trkpt lat="44.87088" lon="5.34435">
        <ele>1457.4</ele>
        <time>2021-10-08T10:15:17Z</time>
      </trkpt>
      <trkpt lat="44.87086" lon="5.34436">
        <ele>1456.8</ele>
        <time>2021-10-08T10:16:06Z</time>
      </trkpt>
      <trkpt lat="44.87084" lon="5.34436">
        <ele>1456.8</ele>
        <time>2021-10-08T10:16:07Z</time>
      </trkpt>
      <trkpt lat="44.87082" lon="5.34436">
        <ele>1456.8</ele>
        <time>2021-10-08T10:16:08Z</time>
      </trkpt>
      <trkpt lat="44.8708" lon="5.34436">
        <ele>1457</ele>
        <time>2021-10-08T10:16:09Z</time>
      </trkpt>
      <trkpt lat="44.87077" lon="5.34436">
        <ele>1455.2</ele>
        <time>2021-10-08T10:16:10Z</time>
      </trkpt>
      <trkpt lat="44.87073" lon="5.34435">
        <ele>1455.2</ele>
        <time>2021-10-08T10:16:11Z</time>
      </trkpt>
      <trkpt lat="44.8707" lon="5.34435">
        <ele>1455.2</ele>
        <time>2021-10-08T10:16:12Z</time>
      </trkpt>
      <trkpt lat="44.87067" lon="5.34434">
        <ele>1456</ele>
        <time>2021-10-08T10:16:13Z</time>
      </trkpt>
      <trkpt lat="44.87063" lon="5.34434">
        <ele>1456.4</ele>
        <time>2021-10-08T10:16:14Z</time>
      </trkpt>
      <trkpt lat="44.8706" lon="5.34434">
        <ele>1456.4</ele>
        <time>2021-10-08T10:16:15Z</time>
      </trkpt>
      <trkpt lat="44.87056" lon="5.34434">
        <ele>1456.4</ele>
        <time>2021-10-08T10:16:16Z</time>
      </trkpt>
      <trkpt lat="44.87053" lon="5.34434">
        <ele>1455.4</ele>
        <time>2021-10-08T10:16:17Z</time>
      </trkpt>
      <trkpt lat="44.87049" lon="5.34433">
        <ele>1455.6</ele>
        <time>2021-10-08T10:16:18Z</time>
      </trkpt>
      <trkpt lat="44.87045" lon="5.34433">
        <ele>1455.6</ele>
        <time>2021-10-08T10:16:19Z</time>
      </trkpt>
      <trkpt lat="44.87042" lon="5.34434">
        <ele>1455.6</ele>
        <time>2021-10-08T10:16:20Z</time>
      </trkpt>
      <trkpt lat="44.87038" lon="5.34435">
        <ele>1455</ele>
        <time>2021-10-08T10:16:21Z</time>
      </trkpt>
      <trkpt lat="44.87034" lon="5.34436">
        <ele>1455.8</ele>
        <time>2021-10-08T10:16:22Z</time>
      </trkpt>
      <trkpt lat="44.8703" lon="5.34437">
        <ele>1455.8</ele>
        <time>2021-10-08T10:16:23Z</time>
      </trkpt>
      <trkpt lat="44.87025" lon="5.34438">
        <ele>1455.8</ele>
        <time>2021-10-08T10:16:24Z</time>
      </trkpt>
      <trkpt lat="44.8702" lon="5.3444">
        <ele>1454.8</ele>
        <time>2021-10-08T10:16:25Z</time>
      </trkpt>
      <trkpt lat="44.87015" lon="5.34442">
        <ele>1451</ele>
        <time>2021-10-08T10:16:26Z</time>
      </trkpt>
      <trkpt lat="44.8701" lon="5.34443">
        <ele>1451</ele>
        <time>2021-10-08T10:16:27Z</time>
      </trkpt>
      <trkpt lat="44.87005" lon="5.34444">
        <ele>1451</ele>
        <time>2021-10-08T10:16:28Z</time>
      </trkpt>
      <trkpt lat="44.87" lon="5.34444">
        <ele>1451</ele>
        <time>2021-10-08T10:16:29Z</time>
      </trkpt>
      <trkpt lat="44.86995" lon="5.34446">
        <ele>1447</ele>
        <time>2021-10-08T10:16:30Z</time>
      </trkpt>
      <trkpt lat="44.86991" lon="5.34447">
        <ele>1447</ele>
        <time>2021-10-08T10:16:31Z</time>
      </trkpt>
      <trkpt lat="44.86987" lon="5.34449">
        <ele>1447</ele>
        <time>2021-10-08T10:16:32Z</time>
      </trkpt>
      <trkpt lat="44.86983" lon="5.34449">
        <ele>1448</ele>
        <time>2021-10-08T10:16:33Z</time>
      </trkpt>
      <trkpt lat="44.86978" lon="5.34449">
        <ele>1445.2</ele>
        <time>2021-10-08T10:16:34Z</time>
      </trkpt>
      <trkpt lat="44.86972" lon="5.34449">
        <ele>1445.2</ele>
        <time>2021-10-08T10:16:35Z</time>
      </trkpt>
      <trkpt lat="44.86967" lon="5.34449">
        <ele>1445.2</ele>
        <time>2021-10-08T10:16:36Z</time>
      </trkpt>
      <trkpt lat="44.8696" lon="5.34449">
        <ele>1445.2</ele>
        <time>2021-10-08T10:16:37Z</time>
      </trkpt>
      <trkpt lat="44.86955" lon="5.3445">
        <ele>1444.6</ele>
        <time>2021-10-08T10:16:38Z</time>
      </trkpt>
      <trkpt lat="44.86948" lon="5.34452">
        <ele>1444.6</ele>
        <time>2021-10-08T10:16:39Z</time>
      </trkpt>
      <trkpt lat="44.86942" lon="5.34453">
        <ele>1444.6</ele>
        <time>2021-10-08T10:16:40Z</time>
      </trkpt>
      <trkpt lat="44.86935" lon="5.34454">
        <ele>1443.6</ele>
        <time>2021-10-08T10:16:41Z</time>
      </trkpt>
      <trkpt lat="44.86928" lon="5.34455">
        <ele>1439</ele>
        <time>2021-10-08T10:16:42Z</time>
      </trkpt>
      <trkpt lat="44.86922" lon="5.34457">
        <ele>1439</ele>
        <time>2021-10-08T10:16:43Z</time>
      </trkpt>
      <trkpt lat="44.86916" lon="5.34459">
        <ele>1439</ele>
        <time>2021-10-08T10:16:44Z</time>
      </trkpt>
      <trkpt lat="44.8691" lon="5.3446">
        <ele>1439</ele>
        <time>2021-10-08T10:16:45Z</time>
      </trkpt>
      <trkpt lat="44.86905" lon="5.3446">
        <ele>1440.2</ele>
        <time>2021-10-08T10:16:46Z</time>
      </trkpt>
      <trkpt lat="44.86898" lon="5.34462">
        <ele>1440.2</ele>
        <time>2021-10-08T10:16:47Z</time>
      </trkpt>
      <trkpt lat="44.8689" lon="5.34464">
        <ele>1440.2</ele>
        <time>2021-10-08T10:16:48Z</time>
      </trkpt>
      <trkpt lat="44.86882" lon="5.34465">
        <ele>1439.2</ele>
        <time>2021-10-08T10:16:49Z</time>
      </trkpt>
      <trkpt lat="44.86874" lon="5.34467">
        <ele>1435</ele>
        <time>2021-10-08T10:16:50Z</time>
      </trkpt>
      <trkpt lat="44.86865" lon="5.34467">
        <ele>1435</ele>
        <time>2021-10-08T10:16:51Z</time>
      </trkpt>
      <trkpt lat="44.86857" lon="5.34467">
        <ele>1435</ele>
        <time>2021-10-08T10:16:52Z</time>
      </trkpt>
      <trkpt lat="44.86847" lon="5.34468">
        <ele>1435</ele>
        <time>2021-10-08T10:16:53Z</time>
      </trkpt>
      <trkpt lat="44.86838" lon="5.34468">
        <ele>1434.2</ele>
        <time>2021-10-08T10:16:54Z</time>
      </trkpt>
      <trkpt lat="44.86829" lon="5.34467">
        <ele>1434.2</ele>
        <time>2021-10-08T10:16:55Z</time>
      </trkpt>
      <trkpt lat="44.86821" lon="5.34466">
        <ele>1434.2</ele>
        <time>2021-10-08T10:16:56Z</time>
      </trkpt>
      <trkpt lat="44.86812" lon="5.34467">
        <ele>1433.2</ele>
        <time>2021-10-08T10:16:57Z</time>
      </trkpt>
      <trkpt lat="44.86805" lon="5.34467">
        <ele>1434.4</ele>
        <time>2021-10-08T10:16:58Z</time>
      </trkpt>
      <trkpt lat="44.86799" lon="5.34467">
        <ele>1434.4</ele>
        <time>2021-10-08T10:16:59Z</time>
      </trkpt>
      <trkpt lat="44.86793" lon="5.34467">
        <ele>1434.4</ele>
        <time>2021-10-08T10:17:00Z</time>
      </trkpt>
      <trkpt lat="44.86788" lon="5.34467">
        <ele>1433.4</ele>
        <time>2021-10-08T10:17:01Z</time>
      </trkpt>
      <trkpt lat="44.86783" lon="5.34466">
        <ele>1432</ele>
        <time>2021-10-08T10:17:02Z</time>
      </trkpt>
      <trkpt lat="44.86779" lon="5.34464">
        <ele>1432</ele>
        <time>2021-10-08T10:17:03Z</time>
      </trkpt>
      <trkpt lat="44.86775" lon="5.34463">
        <ele>1432</ele>
        <time>2021-10-08T10:17:04Z</time>
      </trkpt>
      <trkpt lat="44.86771" lon="5.34463">
        <ele>1432</ele>
        <time>2021-10-08T10:17:05Z</time>
      </trkpt>
      <trkpt lat="44.86768" lon="5.34462">
        <ele>1430.4</ele>
        <time>2021-10-08T10:17:06Z</time>
      </trkpt>
      <trkpt lat="44.86765" lon="5.34461">
        <ele>1430.4</ele>
        <time>2021-10-08T10:17:07Z</time>
      </trkpt>
      <trkpt lat="44.86762" lon="5.34461">
        <ele>1430.4</ele>
        <time>2021-10-08T10:17:08Z</time>
      </trkpt>
      <trkpt lat="44.8676" lon="5.34462">
        <ele>1429.4</ele>
        <time>2021-10-08T10:17:09Z</time>
      </trkpt>
      <trkpt lat="44.86757" lon="5.34461">
        <ele>1426</ele>
        <time>2021-10-08T10:17:10Z</time>
      </trkpt>
      <trkpt lat="44.86754" lon="5.3446">
        <ele>1426</ele>
        <time>2021-10-08T10:17:11Z</time>
      </trkpt>
      <trkpt lat="44.8675" lon="5.34459">
        <ele>1426</ele>
        <time>2021-10-08T10:17:12Z</time>
      </trkpt>
      <trkpt lat="44.86747" lon="5.34459">
        <ele>1426</ele>
        <time>2021-10-08T10:17:13Z</time>
      </trkpt>
      <trkpt lat="44.86744" lon="5.34459">
        <ele>1424</ele>
        <time>2021-10-08T10:17:14Z</time>
      </trkpt>
      <trkpt lat="44.86741" lon="5.34458">
        <ele>1424</ele>
        <time>2021-10-08T10:17:15Z</time>
      </trkpt>
      <trkpt lat="44.86739" lon="5.34456">
        <ele>1424</ele>
        <time>2021-10-08T10:17:16Z</time>
      </trkpt>
      <trkpt lat="44.86737" lon="5.34455">
        <ele>1423</ele>
        <time>2021-10-08T10:17:17Z</time>
      </trkpt>
      <trkpt lat="44.86733" lon="5.34455">
        <ele>1420.6</ele>
        <time>2021-10-08T10:17:18Z</time>
      </trkpt>
      <trkpt lat="44.86729" lon="5.34455">
        <ele>1420.6</ele>
        <time>2021-10-08T10:17:19Z</time>
      </trkpt>
      <trkpt lat="44.86725" lon="5.34455">
        <ele>1420.6</ele>
        <time>2021-10-08T10:17:20Z</time>
      </trkpt>
      <trkpt lat="44.86721" lon="5.34454">
        <ele>1419.6</ele>
        <time>2021-10-08T10:17:21Z</time>
      </trkpt>
      <trkpt lat="44.86717" lon="5.34451">
        <ele>1417.4</ele>
        <time>2021-10-08T10:17:22Z</time>
      </trkpt>
      <trkpt lat="44.86714" lon="5.34449">
        <ele>1417.4</ele>
        <time>2021-10-08T10:17:23Z</time>
      </trkpt>
      <trkpt lat="44.86709" lon="5.34446">
        <ele>1417.4</ele>
        <time>2021-10-08T10:17:24Z</time>
      </trkpt>
      <trkpt lat="44.86705" lon="5.34443">
        <ele>1417.4</ele>
        <time>2021-10-08T10:17:25Z</time>
      </trkpt>
      <trkpt lat="44.867" lon="5.34441">
        <ele>1414.2</ele>
        <time>2021-10-08T10:17:26Z</time>
      </trkpt>
      <trkpt lat="44.86695" lon="5.34438">
        <ele>1414.2</ele>
        <time>2021-10-08T10:17:27Z</time>
      </trkpt>
      <trkpt lat="44.86691" lon="5.34436">
        <ele>1414.2</ele>
        <time>2021-10-08T10:17:28Z</time>
      </trkpt>
      <trkpt lat="44.86687" lon="5.34435">
        <ele>1414.2</ele>
        <time>2021-10-08T10:17:29Z</time>
      </trkpt>
      <trkpt lat="44.86681" lon="5.34435">
        <ele>1411.8</ele>
        <time>2021-10-08T10:17:30Z</time>
      </trkpt>
      <trkpt lat="44.86675" lon="5.34435">
        <ele>1411.8</ele>
        <time>2021-10-08T10:17:31Z</time>
      </trkpt>
      <trkpt lat="44.8667" lon="5.34433">
        <ele>1411.8</ele>
        <time>2021-10-08T10:17:32Z</time>
      </trkpt>
      <trkpt lat="44.86662" lon="5.34432">
        <ele>1411.8</ele>
        <time>2021-10-08T10:17:33Z</time>
      </trkpt>
      <trkpt lat="44.86656" lon="5.34431">
        <ele>1409.2</ele>
        <time>2021-10-08T10:17:34Z</time>
      </trkpt>
      <trkpt lat="44.8665" lon="5.34429">
        <ele>1409.2</ele>
        <time>2021-10-08T10:17:35Z</time>
      </trkpt>
      <trkpt lat="44.86644" lon="5.34428">
        <ele>1409.2</ele>
        <time>2021-10-08T10:17:36Z</time>
      </trkpt>
      <trkpt lat="44.86638" lon="5.34428">
        <ele>1409.2</ele>
        <time>2021-10-08T10:17:37Z</time>
      </trkpt>
      <trkpt lat="44.86632" lon="5.34428">
        <ele>1408.4</ele>
        <time>2021-10-08T10:17:38Z</time>
      </trkpt>
      <trkpt lat="44.86625" lon="5.34427">
        <ele>1408.4</ele>
        <time>2021-10-08T10:17:39Z</time>
      </trkpt>
      <trkpt lat="44.86618" lon="5.34426">
        <ele>1408.4</ele>
        <time>2021-10-08T10:17:40Z</time>
      </trkpt>
      <trkpt lat="44.86612" lon="5.34425">
        <ele>1409.2</ele>
        <time>2021-10-08T10:17:41Z</time>
      </trkpt>
      <trkpt lat="44.86607" lon="5.34424">
        <ele>1408.6</ele>
        <time>2021-10-08T10:17:42Z</time>
      </trkpt>
      <trkpt lat="44.86602" lon="5.34423">
        <ele>1408.6</ele>
        <time>2021-10-08T10:17:43Z</time>
      </trkpt>
      <trkpt lat="44.86597" lon="5.34422">
        <ele>1408.6</ele>
        <time>2021-10-08T10:17:44Z</time>
      </trkpt>
      <trkpt lat="44.86592" lon="5.34421">
        <ele>1409.4</ele>
        <time>2021-10-08T10:17:45Z</time>
      </trkpt>
      <trkpt lat="44.86589" lon="5.3442">
        <ele>1409.8</ele>
        <time>2021-10-08T10:17:46Z</time>
      </trkpt>
      <trkpt lat="44.86585" lon="5.34419">
        <ele>1409.8</ele>
        <time>2021-10-08T10:17:47Z</time>
      </trkpt>
      <trkpt lat="44.8658" lon="5.34418">
        <ele>1409.8</ele>
        <time>2021-10-08T10:17:48Z</time>
      </trkpt>
      <trkpt lat="44.86576" lon="5.34418">
        <ele>1409.2</ele>
        <time>2021-10-08T10:17:49Z</time>
      </trkpt>
      <trkpt lat="44.86571" lon="5.34417">
        <ele>1409.6</ele>
        <time>2021-10-08T10:17:50Z</time>
      </trkpt>
      <trkpt lat="44.86567" lon="5.34416">
        <ele>1409.6</ele>
        <time>2021-10-08T10:17:51Z</time>
      </trkpt>
      <trkpt lat="44.86564" lon="5.34415">
        <ele>1409.6</ele>
        <time>2021-10-08T10:17:52Z</time>
      </trkpt>
      <trkpt lat="44.8656" lon="5.34413">
        <ele>1409.6</ele>
        <time>2021-10-08T10:17:53Z</time>
      </trkpt>
      <trkpt lat="44.86555" lon="5.34412">
        <ele>1409.8</ele>
        <time>2021-10-08T10:17:54Z</time>
      </trkpt>
      <trkpt lat="44.86551" lon="5.34411">
        <ele>1409.8</ele>
        <time>2021-10-08T10:17:55Z</time>
      </trkpt>
      <trkpt lat="44.86547" lon="5.34409">
        <ele>1409.8</ele>
        <time>2021-10-08T10:17:56Z</time>
      </trkpt>
      <trkpt lat="44.86543" lon="5.34408">
        <ele>1409.8</ele>
        <time>2021-10-08T10:17:57Z</time>
      </trkpt>
      <trkpt lat="44.86538" lon="5.34407">
        <ele>1410.4</ele>
        <time>2021-10-08T10:17:58Z</time>
      </trkpt>
      <trkpt lat="44.86535" lon="5.34405">
        <ele>1410.4</ele>
        <time>2021-10-08T10:17:59Z</time>
      </trkpt>
      <trkpt lat="44.86532" lon="5.34404">
        <ele>1410.4</ele>
        <time>2021-10-08T10:18:00Z</time>
      </trkpt>
      <trkpt lat="44.86528" lon="5.34403">
        <ele>1410.4</ele>
        <time>2021-10-08T10:18:01Z</time>
      </trkpt>
      <trkpt lat="44.86525" lon="5.34401">
        <ele>1410.4</ele>
        <time>2021-10-08T10:18:02Z</time>
      </trkpt>
      <trkpt lat="44.86521" lon="5.34399">
        <ele>1410.8</ele>
        <time>2021-10-08T10:18:03Z</time>
      </trkpt>
      <trkpt lat="44.86518" lon="5.34397">
        <ele>1410.8</ele>
        <time>2021-10-08T10:18:04Z</time>
      </trkpt>
      <trkpt lat="44.86513" lon="5.34395">
        <ele>1410.8</ele>
        <time>2021-10-08T10:18:05Z</time>
      </trkpt>
      <trkpt lat="44.86509" lon="5.34394">
        <ele>1410</ele>
        <time>2021-10-08T10:18:06Z</time>
      </trkpt>
      <trkpt lat="44.86505" lon="5.34394">
        <ele>1410</ele>
        <time>2021-10-08T10:18:07Z</time>
      </trkpt>
      <trkpt lat="44.86501" lon="5.34393">
        <ele>1410</ele>
        <time>2021-10-08T10:18:08Z</time>
      </trkpt>
      <trkpt lat="44.86497" lon="5.34391">
        <ele>1409.4</ele>
        <time>2021-10-08T10:18:09Z</time>
      </trkpt>
      <trkpt lat="44.86493" lon="5.3439">
        <ele>1409.2</ele>
        <time>2021-10-08T10:18:10Z</time>
      </trkpt>
      <trkpt lat="44.86489" lon="5.34387">
        <ele>1409.2</ele>
        <time>2021-10-08T10:18:11Z</time>
      </trkpt>
      <trkpt lat="44.86484" lon="5.34385">
        <ele>1409.2</ele>
        <time>2021-10-08T10:18:12Z</time>
      </trkpt>
      <trkpt lat="44.86481" lon="5.34383">
        <ele>1409.2</ele>
        <time>2021-10-08T10:18:13Z</time>
      </trkpt>
      <trkpt lat="44.86477" lon="5.34381">
        <ele>1409</ele>
        <time>2021-10-08T10:18:14Z</time>
      </trkpt>
      <trkpt lat="44.86473" lon="5.34379">
        <ele>1409</ele>
        <time>2021-10-08T10:18:15Z</time>
      </trkpt>
      <trkpt lat="44.86469" lon="5.34378">
        <ele>1409</ele>
        <time>2021-10-08T10:18:16Z</time>
      </trkpt>
      <trkpt lat="44.86465" lon="5.34375">
        <ele>1409</ele>
        <time>2021-10-08T10:18:17Z</time>
      </trkpt>
      <trkpt lat="44.86461" lon="5.34373">
        <ele>1408.2</ele>
        <time>2021-10-08T10:18:18Z</time>
      </trkpt>
      <trkpt lat="44.86457" lon="5.34371">
        <ele>1408.2</ele>
        <time>2021-10-08T10:18:19Z</time>
      </trkpt>
      <trkpt lat="44.86453" lon="5.3437">
        <ele>1408.2</ele>
        <time>2021-10-08T10:18:20Z</time>
      </trkpt>
      <trkpt lat="44.86448" lon="5.34366">
        <ele>1409</ele>
        <time>2021-10-08T10:18:21Z</time>
      </trkpt>
      <trkpt lat="44.86444" lon="5.34363">
        <ele>1408.8</ele>
        <time>2021-10-08T10:18:22Z</time>
      </trkpt>
      <trkpt lat="44.8644" lon="5.34359">
        <ele>1408.8</ele>
        <time>2021-10-08T10:18:23Z</time>
      </trkpt>
      <trkpt lat="44.86434" lon="5.34357">
        <ele>1408.8</ele>
        <time>2021-10-08T10:18:24Z</time>
      </trkpt>
      <trkpt lat="44.8643" lon="5.34353">
        <ele>1409</ele>
        <time>2021-10-08T10:18:25Z</time>
      </trkpt>
      <trkpt lat="44.86426" lon="5.34351">
        <ele>1409.2</ele>
        <time>2021-10-08T10:18:26Z</time>
      </trkpt>
      <trkpt lat="44.86422" lon="5.3435">
        <ele>1409.2</ele>
        <time>2021-10-08T10:18:27Z</time>
      </trkpt>
      <trkpt lat="44.86418" lon="5.34348">
        <ele>1409.2</ele>
        <time>2021-10-08T10:18:28Z</time>
      </trkpt>
      <trkpt lat="44.86414" lon="5.34347">
        <ele>1409.2</ele>
        <time>2021-10-08T10:18:29Z</time>
      </trkpt>
      <trkpt lat="44.86411" lon="5.34346">
        <ele>1409.2</ele>
        <time>2021-10-08T10:18:30Z</time>
      </trkpt>
      <trkpt lat="44.86407" lon="5.34344">
        <ele>1409.2</ele>
        <time>2021-10-08T10:18:31Z</time>
      </trkpt>
      <trkpt lat="44.86405" lon="5.34343">
        <ele>1409.2</ele>
        <time>2021-10-08T10:18:32Z</time>
      </trkpt>
      <trkpt lat="44.86402" lon="5.34341">
        <ele>1409.4</ele>
        <time>2021-10-08T10:18:33Z</time>
      </trkpt>
      <trkpt lat="44.86398" lon="5.34339">
        <ele>1409.2</ele>
        <time>2021-10-08T10:18:34Z</time>
      </trkpt>
      <trkpt lat="44.86396" lon="5.34338">
        <ele>1409.2</ele>
        <time>2021-10-08T10:18:35Z</time>
      </trkpt>
      <trkpt lat="44.86393" lon="5.34337">
        <ele>1409.2</ele>
        <time>2021-10-08T10:18:36Z</time>
      </trkpt>
      <trkpt lat="44.8639" lon="5.34337">
        <ele>1409.4</ele>
        <time>2021-10-08T10:18:37Z</time>
      </trkpt>
      <trkpt lat="44.86387" lon="5.34336">
        <ele>1409.6</ele>
        <time>2021-10-08T10:18:38Z</time>
      </trkpt>
      <trkpt lat="44.86383" lon="5.34335">
        <ele>1409.6</ele>
        <time>2021-10-08T10:18:39Z</time>
      </trkpt>
      <trkpt lat="44.8638" lon="5.34335">
        <ele>1409.6</ele>
        <time>2021-10-08T10:18:40Z</time>
      </trkpt>
      <trkpt lat="44.86376" lon="5.34334">
        <ele>1410.6</ele>
        <time>2021-10-08T10:18:41Z</time>
      </trkpt>
      <trkpt lat="44.86373" lon="5.34333">
        <ele>1410.4</ele>
        <time>2021-10-08T10:18:42Z</time>
      </trkpt>
      <trkpt lat="44.8637" lon="5.34332">
        <ele>1410.4</ele>
        <time>2021-10-08T10:18:43Z</time>
      </trkpt>
      <trkpt lat="44.86368" lon="5.34331">
        <ele>1410.4</ele>
        <time>2021-10-08T10:18:44Z</time>
      </trkpt>
      <trkpt lat="44.86365" lon="5.34329">
        <ele>1411.4</ele>
        <time>2021-10-08T10:18:45Z</time>
      </trkpt>
      <trkpt lat="44.86362" lon="5.34328">
        <ele>1411.2</ele>
        <time>2021-10-08T10:18:46Z</time>
      </trkpt>
      <trkpt lat="44.8636" lon="5.34327">
        <ele>1411.2</ele>
        <time>2021-10-08T10:18:47Z</time>
      </trkpt>
      <trkpt lat="44.86358" lon="5.34326">
        <ele>1411.2</ele>
        <time>2021-10-08T10:18:48Z</time>
      </trkpt>
      <trkpt lat="44.86355" lon="5.34324">
        <ele>1412</ele>
        <time>2021-10-08T10:18:49Z</time>
      </trkpt>
      <trkpt lat="44.86352" lon="5.34323">
        <ele>1412.8</ele>
        <time>2021-10-08T10:18:50Z</time>
      </trkpt>
      <trkpt lat="44.8635" lon="5.34322">
        <ele>1412.8</ele>
        <time>2021-10-08T10:18:51Z</time>
      </trkpt>
      <trkpt lat="44.86347" lon="5.34322">
        <ele>1412.8</ele>
        <time>2021-10-08T10:18:52Z</time>
      </trkpt>
      <trkpt lat="44.86345" lon="5.34321">
        <ele>1412.8</ele>
        <time>2021-10-08T10:18:53Z</time>
      </trkpt>
      <trkpt lat="44.86343" lon="5.34321">
        <ele>1413</ele>
        <time>2021-10-08T10:18:54Z</time>
      </trkpt>
      <trkpt lat="44.8634" lon="5.3432">
        <ele>1413</ele>
        <time>2021-10-08T10:18:55Z</time>
      </trkpt>
      <trkpt lat="44.86338" lon="5.34319">
        <ele>1413</ele>
        <time>2021-10-08T10:18:56Z</time>
      </trkpt>
      <trkpt lat="44.86336" lon="5.34317">
        <ele>1413</ele>
        <time>2021-10-08T10:18:57Z</time>
      </trkpt>
      <trkpt lat="44.86335" lon="5.34317">
        <ele>1414.4</ele>
        <time>2021-10-08T10:18:58Z</time>
      </trkpt>
      <trkpt lat="44.86333" lon="5.34315">
        <ele>1414.4</ele>
        <time>2021-10-08T10:18:59Z</time>
      </trkpt>
      <trkpt lat="44.8633" lon="5.34314">
        <ele>1414.4</ele>
        <time>2021-10-08T10:19:00Z</time>
      </trkpt>
      <trkpt lat="44.86329" lon="5.34313">
        <ele>1415</ele>
        <time>2021-10-08T10:19:01Z</time>
      </trkpt>
      <trkpt lat="44.86328" lon="5.34312">
        <ele>1415.6</ele>
        <time>2021-10-08T10:19:02Z</time>
      </trkpt>
      <trkpt lat="44.86325" lon="5.34311">
        <ele>1415.6</ele>
        <time>2021-10-08T10:19:03Z</time>
      </trkpt>
      <trkpt lat="44.86323" lon="5.34309">
        <ele>1415.6</ele>
        <time>2021-10-08T10:19:04Z</time>
      </trkpt>
      <trkpt lat="44.8632" lon="5.34308">
        <ele>1415.6</ele>
        <time>2021-10-08T10:19:05Z</time>
      </trkpt>
      <trkpt lat="44.86319" lon="5.34307">
        <ele>1415.8</ele>
        <time>2021-10-08T10:19:06Z</time>
      </trkpt>
      <trkpt lat="44.86316" lon="5.34307">
        <ele>1415.8</ele>
        <time>2021-10-08T10:19:07Z</time>
      </trkpt>
      <trkpt lat="44.86314" lon="5.34306">
        <ele>1415.8</ele>
        <time>2021-10-08T10:19:08Z</time>
      </trkpt>
      <trkpt lat="44.86312" lon="5.34305">
        <ele>1416.8</ele>
        <time>2021-10-08T10:19:09Z</time>
      </trkpt>
      <trkpt lat="44.8631" lon="5.34305">
        <ele>1416.2</ele>
        <time>2021-10-08T10:19:10Z</time>
      </trkpt>
      <trkpt lat="44.86308" lon="5.34304">
        <ele>1416.2</ele>
        <time>2021-10-08T10:19:11Z</time>
      </trkpt>
      <trkpt lat="44.86306" lon="5.34303">
        <ele>1416.2</ele>
        <time>2021-10-08T10:19:12Z</time>
      </trkpt>
      <trkpt lat="44.86304" lon="5.34302">
        <ele>1417.2</ele>
        <time>2021-10-08T10:19:13Z</time>
      </trkpt>
      <trkpt lat="44.86303" lon="5.34302">
        <ele>1417.6</ele>
        <time>2021-10-08T10:19:14Z</time>
      </trkpt>
      <trkpt lat="44.863" lon="5.34301">
        <ele>1417.6</ele>
        <time>2021-10-08T10:19:15Z</time>
      </trkpt>
      <trkpt lat="44.86299" lon="5.34301">
        <ele>1417.6</ele>
        <time>2021-10-08T10:19:16Z</time>
      </trkpt>
      <trkpt lat="44.86297" lon="5.343">
        <ele>1417.6</ele>
        <time>2021-10-08T10:19:17Z</time>
      </trkpt>
      <trkpt lat="44.86296" lon="5.343">
        <ele>1418</ele>
        <time>2021-10-08T10:19:18Z</time>
      </trkpt>
      <trkpt lat="44.86294" lon="5.34299">
        <ele>1418</ele>
        <time>2021-10-08T10:19:19Z</time>
      </trkpt>
      <trkpt lat="44.86291" lon="5.34298">
        <ele>1418</ele>
        <time>2021-10-08T10:19:20Z</time>
      </trkpt>
      <trkpt lat="44.86289" lon="5.34297">
        <ele>1418</ele>
        <time>2021-10-08T10:19:21Z</time>
      </trkpt>
      <trkpt lat="44.86287" lon="5.34296">
        <ele>1418.4</ele>
        <time>2021-10-08T10:19:22Z</time>
      </trkpt>
      <trkpt lat="44.86284" lon="5.34295">
        <ele>1418.4</ele>
        <time>2021-10-08T10:19:23Z</time>
      </trkpt>
      <trkpt lat="44.86282" lon="5.34294">
        <ele>1418.4</ele>
        <time>2021-10-08T10:19:24Z</time>
      </trkpt>
      <trkpt lat="44.86279" lon="5.34294">
        <ele>1419.4</ele>
        <time>2021-10-08T10:19:25Z</time>
      </trkpt>
      <trkpt lat="44.86277" lon="5.34293">
        <ele>1419.2</ele>
        <time>2021-10-08T10:19:26Z</time>
      </trkpt>
      <trkpt lat="44.86274" lon="5.34293">
        <ele>1419.2</ele>
        <time>2021-10-08T10:19:27Z</time>
      </trkpt>
      <trkpt lat="44.86272" lon="5.34292">
        <ele>1419.2</ele>
        <time>2021-10-08T10:19:28Z</time>
      </trkpt>
      <trkpt lat="44.8627" lon="5.34292">
        <ele>1420</ele>
        <time>2021-10-08T10:19:29Z</time>
      </trkpt>
      <trkpt lat="44.86268" lon="5.34291">
        <ele>1420.8</ele>
        <time>2021-10-08T10:19:30Z</time>
      </trkpt>
      <trkpt lat="44.86266" lon="5.3429">
        <ele>1420.8</ele>
        <time>2021-10-08T10:19:31Z</time>
      </trkpt>
      <trkpt lat="44.86264" lon="5.34289">
        <ele>1420.8</ele>
        <time>2021-10-08T10:19:32Z</time>
      </trkpt>
      <trkpt lat="44.86262" lon="5.34288">
        <ele>1420.8</ele>
        <time>2021-10-08T10:19:33Z</time>
      </trkpt>
      <trkpt lat="44.86259" lon="5.34287">
        <ele>1420.6</ele>
        <time>2021-10-08T10:19:34Z</time>
      </trkpt>
      <trkpt lat="44.86257" lon="5.34286">
        <ele>1420.6</ele>
        <time>2021-10-08T10:19:35Z</time>
      </trkpt>
      <trkpt lat="44.86255" lon="5.34285">
        <ele>1420.6</ele>
        <time>2021-10-08T10:19:36Z</time>
      </trkpt>
      <trkpt lat="44.86253" lon="5.34285">
        <ele>1420.8</ele>
        <time>2021-10-08T10:19:37Z</time>
      </trkpt>
      <trkpt lat="44.8625" lon="5.34284">
        <ele>1421.2</ele>
        <time>2021-10-08T10:19:38Z</time>
      </trkpt>
      <trkpt lat="44.86248" lon="5.34284">
        <ele>1421.2</ele>
        <time>2021-10-08T10:19:39Z</time>
      </trkpt>
      <trkpt lat="44.86246" lon="5.34284">
        <ele>1421.2</ele>
        <time>2021-10-08T10:19:40Z</time>
      </trkpt>
      <trkpt lat="44.86245" lon="5.34284">
        <ele>1421.2</ele>
        <time>2021-10-08T10:19:41Z</time>
      </trkpt>
      <trkpt lat="44.86243" lon="5.34284">
        <ele>1421.8</ele>
        <time>2021-10-08T10:19:42Z</time>
      </trkpt>
      <trkpt lat="44.86242" lon="5.34285">
        <ele>1421.8</ele>
        <time>2021-10-08T10:19:43Z</time>
      </trkpt>
      <trkpt lat="44.86242" lon="5.34285">
        <ele>1421.8</ele>
        <time>2021-10-08T10:19:44Z</time>
      </trkpt>
      <trkpt lat="44.86242" lon="5.34285">
        <ele>1422</ele>
        <time>2021-10-08T10:19:45Z</time>
      </trkpt>
      <trkpt lat="44.86231" lon="5.34287">
        <ele>1422.4</ele>
        <time>2021-10-08T10:23:41Z</time>
      </trkpt>
      <trkpt lat="44.86229" lon="5.34287">
        <ele>1422.8</ele>
        <time>2021-10-08T10:23:42Z</time>
      </trkpt>
      <trkpt lat="44.86227" lon="5.34288">
        <ele>1422.8</ele>
        <time>2021-10-08T10:23:43Z</time>
      </trkpt>
      <trkpt lat="44.86224" lon="5.34288">
        <ele>1422.8</ele>
        <time>2021-10-08T10:23:44Z</time>
      </trkpt>
      <trkpt lat="44.86221" lon="5.34287">
        <ele>1422.8</ele>
        <time>2021-10-08T10:23:45Z</time>
      </trkpt>
      <trkpt lat="44.86218" lon="5.34286">
        <ele>1422.4</ele>
        <time>2021-10-08T10:23:46Z</time>
      </trkpt>
      <trkpt lat="44.86215" lon="5.34285">
        <ele>1422.4</ele>
        <time>2021-10-08T10:23:47Z</time>
      </trkpt>
      <trkpt lat="44.86212" lon="5.34285">
        <ele>1422.4</ele>
        <time>2021-10-08T10:23:48Z</time>
      </trkpt>
      <trkpt lat="44.86209" lon="5.34284">
        <ele>1422.8</ele>
        <time>2021-10-08T10:23:49Z</time>
      </trkpt>
      <trkpt lat="44.86206" lon="5.34284">
        <ele>1422.8</ele>
        <time>2021-10-08T10:23:50Z</time>
      </trkpt>
      <trkpt lat="44.86203" lon="5.34284">
        <ele>1422.8</ele>
        <time>2021-10-08T10:23:51Z</time>
      </trkpt>
      <trkpt lat="44.862" lon="5.34283">
        <ele>1422.8</ele>
        <time>2021-10-08T10:23:52Z</time>
      </trkpt>
      <trkpt lat="44.86197" lon="5.34282">
        <ele>1422.8</ele>
        <time>2021-10-08T10:23:53Z</time>
      </trkpt>
      <trkpt lat="44.86195" lon="5.34282">
        <ele>1422.8</ele>
        <time>2021-10-08T10:23:54Z</time>
      </trkpt>
      <trkpt lat="44.86191" lon="5.34282">
        <ele>1422.8</ele>
        <time>2021-10-08T10:23:55Z</time>
      </trkpt>
      <trkpt lat="44.86189" lon="5.34282">
        <ele>1422.8</ele>
        <time>2021-10-08T10:23:56Z</time>
      </trkpt>
      <trkpt lat="44.86186" lon="5.34281">
        <ele>1421.8</ele>
        <time>2021-10-08T10:23:57Z</time>
      </trkpt>
      <trkpt lat="44.86184" lon="5.34282">
        <ele>1421.8</ele>
        <time>2021-10-08T10:23:58Z</time>
      </trkpt>
      <trkpt lat="44.86181" lon="5.34282">
        <ele>1421.8</ele>
        <time>2021-10-08T10:23:59Z</time>
      </trkpt>
      <trkpt lat="44.86178" lon="5.34284">
        <ele>1421.8</ele>
        <time>2021-10-08T10:24:00Z</time>
      </trkpt>
      <trkpt lat="44.86175" lon="5.34284">
        <ele>1421.8</ele>
        <time>2021-10-08T10:24:01Z</time>
      </trkpt>
      <trkpt lat="44.86171" lon="5.34285">
        <ele>1421.2</ele>
        <time>2021-10-08T10:24:02Z</time>
      </trkpt>
      <trkpt lat="44.86167" lon="5.34286">
        <ele>1421.2</ele>
        <time>2021-10-08T10:24:03Z</time>
      </trkpt>
      <trkpt lat="44.86164" lon="5.34287">
        <ele>1421.2</ele>
        <time>2021-10-08T10:24:04Z</time>
      </trkpt>
      <trkpt lat="44.86161" lon="5.34286">
        <ele>1420.2</ele>
        <time>2021-10-08T10:24:05Z</time>
      </trkpt>
      <trkpt lat="44.86157" lon="5.34286">
        <ele>1419.4</ele>
        <time>2021-10-08T10:24:06Z</time>
      </trkpt>
      <trkpt lat="44.86153" lon="5.34287">
        <ele>1419.4</ele>
        <time>2021-10-08T10:24:07Z</time>
      </trkpt>
      <trkpt lat="44.86149" lon="5.34287">
        <ele>1419.4</ele>
        <time>2021-10-08T10:24:08Z</time>
      </trkpt>
      <trkpt lat="44.86144" lon="5.34288">
        <ele>1418.4</ele>
        <time>2021-10-08T10:24:09Z</time>
      </trkpt>
      <trkpt lat="44.8614" lon="5.34288">
        <ele>1417.6</ele>
        <time>2021-10-08T10:24:10Z</time>
      </trkpt>
      <trkpt lat="44.86135" lon="5.34289">
        <ele>1417.6</ele>
        <time>2021-10-08T10:24:11Z</time>
      </trkpt>
      <trkpt lat="44.8613" lon="5.34289">
        <ele>1417.6</ele>
        <time>2021-10-08T10:24:12Z</time>
      </trkpt>
      <trkpt lat="44.86126" lon="5.34289">
        <ele>1417.6</ele>
        <time>2021-10-08T10:24:13Z</time>
      </trkpt>
      <trkpt lat="44.86122" lon="5.34289">
        <ele>1415.2</ele>
        <time>2021-10-08T10:24:14Z</time>
      </trkpt>
      <trkpt lat="44.86117" lon="5.3429">
        <ele>1415.2</ele>
        <time>2021-10-08T10:24:15Z</time>
      </trkpt>
      <trkpt lat="44.86112" lon="5.3429">
        <ele>1415.2</ele>
        <time>2021-10-08T10:24:16Z</time>
      </trkpt>
      <trkpt lat="44.86107" lon="5.3429">
        <ele>1415.2</ele>
        <time>2021-10-08T10:24:17Z</time>
      </trkpt>
      <trkpt lat="44.86102" lon="5.34291">
        <ele>1412.4</ele>
        <time>2021-10-08T10:24:18Z</time>
      </trkpt>
      <trkpt lat="44.86096" lon="5.34291">
        <ele>1412.4</ele>
        <time>2021-10-08T10:24:19Z</time>
      </trkpt>
      <trkpt lat="44.86091" lon="5.34292">
        <ele>1412.4</ele>
        <time>2021-10-08T10:24:20Z</time>
      </trkpt>
      <trkpt lat="44.86086" lon="5.34292">
        <ele>1412.4</ele>
        <time>2021-10-08T10:24:21Z</time>
      </trkpt>
      <trkpt lat="44.86081" lon="5.34293">
        <ele>1409.4</ele>
        <time>2021-10-08T10:24:22Z</time>
      </trkpt>
      <trkpt lat="44.86076" lon="5.34294">
        <ele>1409.4</ele>
        <time>2021-10-08T10:24:23Z</time>
      </trkpt>
      <trkpt lat="44.8607" lon="5.34294">
        <ele>1409.4</ele>
        <time>2021-10-08T10:24:24Z</time>
      </trkpt>
      <trkpt lat="44.86065" lon="5.34293">
        <ele>1409.6</ele>
        <time>2021-10-08T10:24:25Z</time>
      </trkpt>
      <trkpt lat="44.86058" lon="5.34293">
        <ele>1407.6</ele>
        <time>2021-10-08T10:24:26Z</time>
      </trkpt>
      <trkpt lat="44.86053" lon="5.34293">
        <ele>1407.6</ele>
        <time>2021-10-08T10:24:27Z</time>
      </trkpt>
      <trkpt lat="44.86046" lon="5.34294">
        <ele>1407.6</ele>
        <time>2021-10-08T10:24:28Z</time>
      </trkpt>
      <trkpt lat="44.86039" lon="5.34295">
        <ele>1407.6</ele>
        <time>2021-10-08T10:24:29Z</time>
      </trkpt>
      <trkpt lat="44.86032" lon="5.34297">
        <ele>1406.4</ele>
        <time>2021-10-08T10:24:30Z</time>
      </trkpt>
      <trkpt lat="44.86026" lon="5.34298">
        <ele>1406.4</ele>
        <time>2021-10-08T10:24:31Z</time>
      </trkpt>
      <trkpt lat="44.8602" lon="5.34298">
        <ele>1406.4</ele>
        <time>2021-10-08T10:24:32Z</time>
      </trkpt>
      <trkpt lat="44.86014" lon="5.34298">
        <ele>1407</ele>
        <time>2021-10-08T10:24:33Z</time>
      </trkpt>
      <trkpt lat="44.86009" lon="5.34298">
        <ele>1406.8</ele>
        <time>2021-10-08T10:24:34Z</time>
      </trkpt>
      <trkpt lat="44.86004" lon="5.343">
        <ele>1406.8</ele>
        <time>2021-10-08T10:24:35Z</time>
      </trkpt>
      <trkpt lat="44.85998" lon="5.34301">
        <ele>1406.8</ele>
        <time>2021-10-08T10:24:36Z</time>
      </trkpt>
      <trkpt lat="44.85993" lon="5.34303">
        <ele>1406.8</ele>
        <time>2021-10-08T10:24:37Z</time>
      </trkpt>
      <trkpt lat="44.85988" lon="5.34304">
        <ele>1406</ele>
        <time>2021-10-08T10:24:38Z</time>
      </trkpt>
      <trkpt lat="44.85983" lon="5.34305">
        <ele>1406</ele>
        <time>2021-10-08T10:24:39Z</time>
      </trkpt>
      <trkpt lat="44.85978" lon="5.34306">
        <ele>1406</ele>
        <time>2021-10-08T10:24:40Z</time>
      </trkpt>
      <trkpt lat="44.85974" lon="5.34307">
        <ele>1406.4</ele>
        <time>2021-10-08T10:24:41Z</time>
      </trkpt>
      <trkpt lat="44.85969" lon="5.34308">
        <ele>1406.4</ele>
        <time>2021-10-08T10:24:42Z</time>
      </trkpt>
      <trkpt lat="44.85964" lon="5.34311">
        <ele>1406.4</ele>
        <time>2021-10-08T10:24:43Z</time>
      </trkpt>
      <trkpt lat="44.85959" lon="5.34313">
        <ele>1406.4</ele>
        <time>2021-10-08T10:24:44Z</time>
      </trkpt>
      <trkpt lat="44.85954" lon="5.34315">
        <ele>1406.4</ele>
        <time>2021-10-08T10:24:45Z</time>
      </trkpt>
      <trkpt lat="44.85949" lon="5.34317">
        <ele>1406.6</ele>
        <time>2021-10-08T10:24:46Z</time>
      </trkpt>
      <trkpt lat="44.85944" lon="5.34319">
        <ele>1406.6</ele>
        <time>2021-10-08T10:24:47Z</time>
      </trkpt>
      <trkpt lat="44.85939" lon="5.3432">
        <ele>1406.6</ele>
        <time>2021-10-08T10:24:48Z</time>
      </trkpt>
      <trkpt lat="44.85934" lon="5.34322">
        <ele>1405.6</ele>
        <time>2021-10-08T10:24:49Z</time>
      </trkpt>
      <trkpt lat="44.8593" lon="5.34325">
        <ele>1403.4</ele>
        <time>2021-10-08T10:24:50Z</time>
      </trkpt>
      <trkpt lat="44.85924" lon="5.34329">
        <ele>1403.4</ele>
        <time>2021-10-08T10:24:51Z</time>
      </trkpt>
      <trkpt lat="44.85916" lon="5.34333">
        <ele>1403.4</ele>
        <time>2021-10-08T10:24:52Z</time>
      </trkpt>
      <trkpt lat="44.8591" lon="5.34336">
        <ele>1402.4</ele>
        <time>2021-10-08T10:24:53Z</time>
      </trkpt>
      <trkpt lat="44.85905" lon="5.34339">
        <ele>1401.6</ele>
        <time>2021-10-08T10:24:54Z</time>
      </trkpt>
      <trkpt lat="44.85899" lon="5.34342">
        <ele>1401.6</ele>
        <time>2021-10-08T10:24:55Z</time>
      </trkpt>
      <trkpt lat="44.85893" lon="5.34343">
        <ele>1401.6</ele>
        <time>2021-10-08T10:24:56Z</time>
      </trkpt>
      <trkpt lat="44.85886" lon="5.34346">
        <ele>1400.6</ele>
        <time>2021-10-08T10:24:57Z</time>
      </trkpt>
      <trkpt lat="44.85879" lon="5.34348">
        <ele>1398.6</ele>
        <time>2021-10-08T10:24:58Z</time>
      </trkpt>
      <trkpt lat="44.85872" lon="5.34348">
        <ele>1398.6</ele>
        <time>2021-10-08T10:24:59Z</time>
      </trkpt>
      <trkpt lat="44.85866" lon="5.34348">
        <ele>1398.6</ele>
        <time>2021-10-08T10:25:00Z</time>
      </trkpt>
      <trkpt lat="44.85859" lon="5.34349">
        <ele>1398.6</ele>
        <time>2021-10-08T10:25:01Z</time>
      </trkpt>
      <trkpt lat="44.85852" lon="5.34348">
        <ele>1398.6</ele>
        <time>2021-10-08T10:25:02Z</time>
      </trkpt>
      <trkpt lat="44.85844" lon="5.34348">
        <ele>1396.6</ele>
        <time>2021-10-08T10:25:03Z</time>
      </trkpt>
      <trkpt lat="44.85837" lon="5.34347">
        <ele>1396.6</ele>
        <time>2021-10-08T10:25:04Z</time>
      </trkpt>
      <trkpt lat="44.85831" lon="5.34345">
        <ele>1397.4</ele>
        <time>2021-10-08T10:25:05Z</time>
      </trkpt>
      <trkpt lat="44.85823" lon="5.34344">
        <ele>1396.6</ele>
        <time>2021-10-08T10:25:06Z</time>
      </trkpt>
      <trkpt lat="44.85817" lon="5.34342">
        <ele>1396.6</ele>
        <time>2021-10-08T10:25:07Z</time>
      </trkpt>
      <trkpt lat="44.85812" lon="5.3434">
        <ele>1396.6</ele>
        <time>2021-10-08T10:25:08Z</time>
      </trkpt>
      <trkpt lat="44.85807" lon="5.34339">
        <ele>1397</ele>
        <time>2021-10-08T10:25:09Z</time>
      </trkpt>
      <trkpt lat="44.85803" lon="5.34337">
        <ele>1397.4</ele>
        <time>2021-10-08T10:25:10Z</time>
      </trkpt>
      <trkpt lat="44.85798" lon="5.34338">
        <ele>1397.4</ele>
        <time>2021-10-08T10:25:11Z</time>
      </trkpt>
      <trkpt lat="44.85795" lon="5.34336">
        <ele>1397.4</ele>
        <time>2021-10-08T10:25:12Z</time>
      </trkpt>
      <trkpt lat="44.85791" lon="5.34336">
        <ele>1396.4</ele>
        <time>2021-10-08T10:25:13Z</time>
      </trkpt>
      <trkpt lat="44.85786" lon="5.34337">
        <ele>1395</ele>
        <time>2021-10-08T10:25:14Z</time>
      </trkpt>
      <trkpt lat="44.85781" lon="5.34338">
        <ele>1395</ele>
        <time>2021-10-08T10:25:15Z</time>
      </trkpt>
      <trkpt lat="44.85775" lon="5.3434">
        <ele>1395</ele>
        <time>2021-10-08T10:25:16Z</time>
      </trkpt>
      <trkpt lat="44.85769" lon="5.34343">
        <ele>1394</ele>
        <time>2021-10-08T10:25:17Z</time>
      </trkpt>
      <trkpt lat="44.85763" lon="5.34346">
        <ele>1390</ele>
        <time>2021-10-08T10:25:18Z</time>
      </trkpt>
      <trkpt lat="44.85758" lon="5.34347">
        <ele>1390</ele>
        <time>2021-10-08T10:25:19Z</time>
      </trkpt>
      <trkpt lat="44.85753" lon="5.34348">
        <ele>1390</ele>
        <time>2021-10-08T10:25:20Z</time>
      </trkpt>
      <trkpt lat="44.85748" lon="5.3435">
        <ele>1390</ele>
        <time>2021-10-08T10:25:21Z</time>
      </trkpt>
      <trkpt lat="44.85742" lon="5.34351">
        <ele>1388.8</ele>
        <time>2021-10-08T10:25:22Z</time>
      </trkpt>
      <trkpt lat="44.85737" lon="5.34353">
        <ele>1388.8</ele>
        <time>2021-10-08T10:25:23Z</time>
      </trkpt>
      <trkpt lat="44.85731" lon="5.34355">
        <ele>1388.8</ele>
        <time>2021-10-08T10:25:24Z</time>
      </trkpt>
      <trkpt lat="44.85726" lon="5.34358">
        <ele>1387.8</ele>
        <time>2021-10-08T10:25:25Z</time>
      </trkpt>
      <trkpt lat="44.85719" lon="5.34357">
        <ele>1384.6</ele>
        <time>2021-10-08T10:25:26Z</time>
      </trkpt>
      <trkpt lat="44.85713" lon="5.34358">
        <ele>1384.6</ele>
        <time>2021-10-08T10:25:27Z</time>
      </trkpt>
      <trkpt lat="44.85706" lon="5.34358">
        <ele>1384.6</ele>
        <time>2021-10-08T10:25:28Z</time>
      </trkpt>
      <trkpt lat="44.85699" lon="5.34359">
        <ele>1383.6</ele>
        <time>2021-10-08T10:25:29Z</time>
      </trkpt>
      <trkpt lat="44.85691" lon="5.34358">
        <ele>1382</ele>
        <time>2021-10-08T10:25:30Z</time>
      </trkpt>
      <trkpt lat="44.85684" lon="5.34358">
        <ele>1382</ele>
        <time>2021-10-08T10:25:31Z</time>
      </trkpt>
      <trkpt lat="44.85676" lon="5.34358">
        <ele>1382</ele>
        <time>2021-10-08T10:25:32Z</time>
      </trkpt>
      <trkpt lat="44.85669" lon="5.34358">
        <ele>1381.6</ele>
        <time>2021-10-08T10:25:33Z</time>
      </trkpt>
      <trkpt lat="44.85662" lon="5.34357">
        <ele>1381.4</ele>
        <time>2021-10-08T10:25:34Z</time>
      </trkpt>
      <trkpt lat="44.85655" lon="5.34355">
        <ele>1381.4</ele>
        <time>2021-10-08T10:25:35Z</time>
      </trkpt>
      <trkpt lat="44.85648" lon="5.34353">
        <ele>1381.4</ele>
        <time>2021-10-08T10:25:36Z</time>
      </trkpt>
      <trkpt lat="44.85641" lon="5.34351">
        <ele>1380.4</ele>
        <time>2021-10-08T10:25:37Z</time>
      </trkpt>
      <trkpt lat="44.85635" lon="5.34349">
        <ele>1380.2</ele>
        <time>2021-10-08T10:25:38Z</time>
      </trkpt>
      <trkpt lat="44.85629" lon="5.34347">
        <ele>1380.2</ele>
        <time>2021-10-08T10:25:39Z</time>
      </trkpt>
      <trkpt lat="44.85621" lon="5.34345">
        <ele>1380.2</ele>
        <time>2021-10-08T10:25:40Z</time>
      </trkpt>
      <trkpt lat="44.85614" lon="5.34342">
        <ele>1380.2</ele>
        <time>2021-10-08T10:25:41Z</time>
      </trkpt>
      <trkpt lat="44.85607" lon="5.34337">
        <ele>1380.8</ele>
        <time>2021-10-08T10:25:42Z</time>
      </trkpt>
      <trkpt lat="44.856" lon="5.34334">
        <ele>1380.8</ele>
        <time>2021-10-08T10:25:43Z</time>
      </trkpt>
      <trkpt lat="44.85593" lon="5.34331">
        <ele>1380.8</ele>
        <time>2021-10-08T10:25:44Z</time>
      </trkpt>
      <trkpt lat="44.85588" lon="5.34327">
        <ele>1379.8</ele>
        <time>2021-10-08T10:25:45Z</time>
      </trkpt>
      <trkpt lat="44.85581" lon="5.34323">
        <ele>1379.2</ele>
        <time>2021-10-08T10:25:46Z</time>
      </trkpt>
      <trkpt lat="44.85575" lon="5.34319">
        <ele>1379.2</ele>
        <time>2021-10-08T10:25:47Z</time>
      </trkpt>
      <trkpt lat="44.8557" lon="5.34315">
        <ele>1379.2</ele>
        <time>2021-10-08T10:25:48Z</time>
      </trkpt>
      <trkpt lat="44.85564" lon="5.3431">
        <ele>1379.2</ele>
        <time>2021-10-08T10:25:49Z</time>
      </trkpt>
      <trkpt lat="44.85559" lon="5.34305">
        <ele>1379</ele>
        <time>2021-10-08T10:25:50Z</time>
      </trkpt>
      <trkpt lat="44.85555" lon="5.34301">
        <ele>1379</ele>
        <time>2021-10-08T10:25:51Z</time>
      </trkpt>
      <trkpt lat="44.8555" lon="5.34297">
        <ele>1379</ele>
        <time>2021-10-08T10:25:52Z</time>
      </trkpt>
      <trkpt lat="44.85546" lon="5.34294">
        <ele>1379</ele>
        <time>2021-10-08T10:25:53Z</time>
      </trkpt>
      <trkpt lat="44.85541" lon="5.34291">
        <ele>1378.4</ele>
        <time>2021-10-08T10:25:54Z</time>
      </trkpt>
      <trkpt lat="44.85537" lon="5.34287">
        <ele>1378.4</ele>
        <time>2021-10-08T10:25:55Z</time>
      </trkpt>
      <trkpt lat="44.85532" lon="5.34283">
        <ele>1378.4</ele>
        <time>2021-10-08T10:25:56Z</time>
      </trkpt>
      <trkpt lat="44.85528" lon="5.3428">
        <ele>1378.4</ele>
        <time>2021-10-08T10:25:57Z</time>
      </trkpt>
      <trkpt lat="44.85523" lon="5.34276">
        <ele>1379</ele>
        <time>2021-10-08T10:25:58Z</time>
      </trkpt>
      <trkpt lat="44.85518" lon="5.34274">
        <ele>1379</ele>
        <time>2021-10-08T10:25:59Z</time>
      </trkpt>
      <trkpt lat="44.85514" lon="5.34272">
        <ele>1379</ele>
        <time>2021-10-08T10:26:00Z</time>
      </trkpt>
      <trkpt lat="44.85509" lon="5.34271">
        <ele>1379</ele>
        <time>2021-10-08T10:26:01Z</time>
      </trkpt>
      <trkpt lat="44.85505" lon="5.34271">
        <ele>1379.6</ele>
        <time>2021-10-08T10:26:02Z</time>
      </trkpt>
      <trkpt lat="44.85501" lon="5.34271">
        <ele>1379.6</ele>
        <time>2021-10-08T10:26:03Z</time>
      </trkpt>
      <trkpt lat="44.85498" lon="5.34271">
        <ele>1379.6</ele>
        <time>2021-10-08T10:26:04Z</time>
      </trkpt>
      <trkpt lat="44.85494" lon="5.3427">
        <ele>1380.6</ele>
        <time>2021-10-08T10:26:05Z</time>
      </trkpt>
      <trkpt lat="44.85492" lon="5.3427">
        <ele>1380.8</ele>
        <time>2021-10-08T10:26:06Z</time>
      </trkpt>
      <trkpt lat="44.85489" lon="5.3427">
        <ele>1380.8</ele>
        <time>2021-10-08T10:26:07Z</time>
      </trkpt>
      <trkpt lat="44.85486" lon="5.34269">
        <ele>1380.8</ele>
        <time>2021-10-08T10:26:08Z</time>
      </trkpt>
      <trkpt lat="44.85484" lon="5.34269">
        <ele>1381.8</ele>
        <time>2021-10-08T10:26:09Z</time>
      </trkpt>
      <trkpt lat="44.85481" lon="5.34269">
        <ele>1382.4</ele>
        <time>2021-10-08T10:26:10Z</time>
      </trkpt>
      <trkpt lat="44.85477" lon="5.34269">
        <ele>1382.4</ele>
        <time>2021-10-08T10:26:11Z</time>
      </trkpt>
      <trkpt lat="44.85475" lon="5.3427">
        <ele>1382.4</ele>
        <time>2021-10-08T10:26:12Z</time>
      </trkpt>
      <trkpt lat="44.85471" lon="5.34269">
        <ele>1382.4</ele>
        <time>2021-10-08T10:26:13Z</time>
      </trkpt>
      <trkpt lat="44.85467" lon="5.3427">
        <ele>1382.6</ele>
        <time>2021-10-08T10:26:14Z</time>
      </trkpt>
      <trkpt lat="44.85463" lon="5.3427">
        <ele>1382.6</ele>
        <time>2021-10-08T10:26:15Z</time>
      </trkpt>
      <trkpt lat="44.8546" lon="5.34269">
        <ele>1382.6</ele>
        <time>2021-10-08T10:26:16Z</time>
      </trkpt>
      <trkpt lat="44.85456" lon="5.3427">
        <ele>1382.6</ele>
        <time>2021-10-08T10:26:17Z</time>
      </trkpt>
      <trkpt lat="44.85452" lon="5.3427">
        <ele>1383.8</ele>
        <time>2021-10-08T10:26:18Z</time>
      </trkpt>
      <trkpt lat="44.85449" lon="5.34269">
        <ele>1383.8</ele>
        <time>2021-10-08T10:26:19Z</time>
      </trkpt>
      <trkpt lat="44.85446" lon="5.34268">
        <ele>1383.8</ele>
        <time>2021-10-08T10:26:20Z</time>
      </trkpt>
      <trkpt lat="44.85441" lon="5.34269">
        <ele>1383.8</ele>
        <time>2021-10-08T10:26:21Z</time>
      </trkpt>
      <trkpt lat="44.85438" lon="5.34268">
        <ele>1383.4</ele>
        <time>2021-10-08T10:26:22Z</time>
      </trkpt>
      <trkpt lat="44.85434" lon="5.34268">
        <ele>1383.4</ele>
        <time>2021-10-08T10:26:23Z</time>
      </trkpt>
      <trkpt lat="44.8543" lon="5.34267">
        <ele>1383.4</ele>
        <time>2021-10-08T10:26:24Z</time>
      </trkpt>
      <trkpt lat="44.85427" lon="5.34266">
        <ele>1383.4</ele>
        <time>2021-10-08T10:26:25Z</time>
      </trkpt>
      <trkpt lat="44.85423" lon="5.34265">
        <ele>1383.8</ele>
        <time>2021-10-08T10:26:26Z</time>
      </trkpt>
      <trkpt lat="44.85419" lon="5.34265">
        <ele>1383.8</ele>
        <time>2021-10-08T10:26:27Z</time>
      </trkpt>
      <trkpt lat="44.85416" lon="5.34264">
        <ele>1383.8</ele>
        <time>2021-10-08T10:26:28Z</time>
      </trkpt>
      <trkpt lat="44.85413" lon="5.34264">
        <ele>1383.8</ele>
        <time>2021-10-08T10:26:29Z</time>
      </trkpt>
      <trkpt lat="44.85409" lon="5.34264">
        <ele>1384.4</ele>
        <time>2021-10-08T10:26:30Z</time>
      </trkpt>
      <trkpt lat="44.85406" lon="5.34264">
        <ele>1384.4</ele>
        <time>2021-10-08T10:26:31Z</time>
      </trkpt>
      <trkpt lat="44.85404" lon="5.34262">
        <ele>1384.4</ele>
        <time>2021-10-08T10:26:32Z</time>
      </trkpt>
      <trkpt lat="44.854" lon="5.34262">
        <ele>1384.4</ele>
        <time>2021-10-08T10:26:33Z</time>
      </trkpt>
      <trkpt lat="44.85397" lon="5.34261">
        <ele>1385</ele>
        <time>2021-10-08T10:26:34Z</time>
      </trkpt>
      <trkpt lat="44.85394" lon="5.3426">
        <ele>1385</ele>
        <time>2021-10-08T10:26:35Z</time>
      </trkpt>
      <trkpt lat="44.85391" lon="5.34259">
        <ele>1385</ele>
        <time>2021-10-08T10:26:36Z</time>
      </trkpt>
      <trkpt lat="44.85387" lon="5.34259">
        <ele>1384.4</ele>
        <time>2021-10-08T10:26:37Z</time>
      </trkpt>
      <trkpt lat="44.85384" lon="5.34258">
        <ele>1384.8</ele>
        <time>2021-10-08T10:26:38Z</time>
      </trkpt>
      <trkpt lat="44.8538" lon="5.34258">
        <ele>1384.8</ele>
        <time>2021-10-08T10:26:39Z</time>
      </trkpt>
      <trkpt lat="44.85377" lon="5.34257">
        <ele>1384.8</ele>
        <time>2021-10-08T10:26:40Z</time>
      </trkpt>
      <trkpt lat="44.85374" lon="5.34258">
        <ele>1384.8</ele>
        <time>2021-10-08T10:26:41Z</time>
      </trkpt>
      <trkpt lat="44.8537" lon="5.34257">
        <ele>1383.8</ele>
        <time>2021-10-08T10:26:42Z</time>
      </trkpt>
      <trkpt lat="44.85366" lon="5.34258">
        <ele>1383.8</ele>
        <time>2021-10-08T10:26:43Z</time>
      </trkpt>
      <trkpt lat="44.85363" lon="5.34257">
        <ele>1383.8</ele>
        <time>2021-10-08T10:26:44Z</time>
      </trkpt>
      <trkpt lat="44.85358" lon="5.34257">
        <ele>1383.8</ele>
        <time>2021-10-08T10:26:45Z</time>
      </trkpt>
      <trkpt lat="44.85354" lon="5.34257">
        <ele>1383.6</ele>
        <time>2021-10-08T10:26:46Z</time>
      </trkpt>
      <trkpt lat="44.8535" lon="5.34258">
        <ele>1383.6</ele>
        <time>2021-10-08T10:26:47Z</time>
      </trkpt>
      <trkpt lat="44.85346" lon="5.34259">
        <ele>1383.6</ele>
        <time>2021-10-08T10:26:48Z</time>
      </trkpt>
      <trkpt lat="44.85343" lon="5.34261">
        <ele>1382.6</ele>
        <time>2021-10-08T10:26:49Z</time>
      </trkpt>
      <trkpt lat="44.85338" lon="5.34261">
        <ele>1382.4</ele>
        <time>2021-10-08T10:26:50Z</time>
      </trkpt>
      <trkpt lat="44.85334" lon="5.34262">
        <ele>1382.4</ele>
        <time>2021-10-08T10:26:51Z</time>
      </trkpt>
      <trkpt lat="44.85329" lon="5.34263">
        <ele>1382.4</ele>
        <time>2021-10-08T10:26:52Z</time>
      </trkpt>
      <trkpt lat="44.85325" lon="5.34263">
        <ele>1381.6</ele>
        <time>2021-10-08T10:26:53Z</time>
      </trkpt>
      <trkpt lat="44.85321" lon="5.34263">
        <ele>1380.6</ele>
        <time>2021-10-08T10:26:54Z</time>
      </trkpt>
      <trkpt lat="44.85316" lon="5.34263">
        <ele>1380.6</ele>
        <time>2021-10-08T10:26:55Z</time>
      </trkpt>
      <trkpt lat="44.85312" lon="5.34264">
        <ele>1380.6</ele>
        <time>2021-10-08T10:26:56Z</time>
      </trkpt>
      <trkpt lat="44.85308" lon="5.34264">
        <ele>1381.2</ele>
        <time>2021-10-08T10:26:57Z</time>
      </trkpt>
      <trkpt lat="44.85304" lon="5.34265">
        <ele>1381.2</ele>
        <time>2021-10-08T10:26:58Z</time>
      </trkpt>
      <trkpt lat="44.85302" lon="5.34266">
        <ele>1381.2</ele>
        <time>2021-10-08T10:26:59Z</time>
      </trkpt>
      <trkpt lat="44.85299" lon="5.34267">
        <ele>1381.2</ele>
        <time>2021-10-08T10:27:00Z</time>
      </trkpt>
      <trkpt lat="44.85297" lon="5.34269">
        <ele>1382</ele>
        <time>2021-10-08T10:27:01Z</time>
      </trkpt>
      <trkpt lat="44.85295" lon="5.34272">
        <ele>1381.4</ele>
        <time>2021-10-08T10:27:02Z</time>
      </trkpt>
      <trkpt lat="44.85293" lon="5.34274">
        <ele>1381.4</ele>
        <time>2021-10-08T10:27:03Z</time>
      </trkpt>
      <trkpt lat="44.85291" lon="5.34276">
        <ele>1381.4</ele>
        <time>2021-10-08T10:27:04Z</time>
      </trkpt>
      <trkpt lat="44.85289" lon="5.34279">
        <ele>1381.4</ele>
        <time>2021-10-08T10:27:05Z</time>
      </trkpt>
      <trkpt lat="44.85287" lon="5.34281">
        <ele>1381.8</ele>
        <time>2021-10-08T10:27:06Z</time>
      </trkpt>
      <trkpt lat="44.85284" lon="5.34283">
        <ele>1381.8</ele>
        <time>2021-10-08T10:27:07Z</time>
      </trkpt>
      <trkpt lat="44.85282" lon="5.34284">
        <ele>1381.8</ele>
        <time>2021-10-08T10:27:08Z</time>
      </trkpt>
      <trkpt lat="44.85279" lon="5.34286">
        <ele>1381.8</ele>
        <time>2021-10-08T10:27:09Z</time>
      </trkpt>
      <trkpt lat="44.85276" lon="5.34287">
        <ele>1381.2</ele>
        <time>2021-10-08T10:27:10Z</time>
      </trkpt>
      <trkpt lat="44.85274" lon="5.34289">
        <ele>1381.2</ele>
        <time>2021-10-08T10:27:11Z</time>
      </trkpt>
      <trkpt lat="44.85271" lon="5.3429">
        <ele>1381.2</ele>
        <time>2021-10-08T10:27:12Z</time>
      </trkpt>
      <trkpt lat="44.85268" lon="5.34292">
        <ele>1381.2</ele>
        <time>2021-10-08T10:27:13Z</time>
      </trkpt>
      <trkpt lat="44.85267" lon="5.34295">
        <ele>1380.8</ele>
        <time>2021-10-08T10:27:14Z</time>
      </trkpt>
      <trkpt lat="44.85267" lon="5.343">
        <ele>1380.8</ele>
        <time>2021-10-08T10:27:15Z</time>
      </trkpt>
      <trkpt lat="44.85266" lon="5.34303">
        <ele>1380.8</ele>
        <time>2021-10-08T10:27:16Z</time>
      </trkpt>
      <trkpt lat="44.85267" lon="5.34306">
        <ele>1380</ele>
        <time>2021-10-08T10:27:17Z</time>
      </trkpt>
      <trkpt lat="44.85268" lon="5.34308">
        <ele>1379.4</ele>
        <time>2021-10-08T10:27:18Z</time>
      </trkpt>
      <trkpt lat="44.85269" lon="5.3431">
        <ele>1379.4</ele>
        <time>2021-10-08T10:27:19Z</time>
      </trkpt>
      <trkpt lat="44.85271" lon="5.34312">
        <ele>1379.4</ele>
        <time>2021-10-08T10:27:20Z</time>
      </trkpt>
      <trkpt lat="44.85272" lon="5.34313">
        <ele>1378.4</ele>
        <time>2021-10-08T10:27:21Z</time>
      </trkpt>
      <trkpt lat="44.85275" lon="5.34315">
        <ele>1378.2</ele>
        <time>2021-10-08T10:27:22Z</time>
      </trkpt>
      <trkpt lat="44.85277" lon="5.34317">
        <ele>1378.2</ele>
        <time>2021-10-08T10:27:23Z</time>
      </trkpt>
      <trkpt lat="44.8528" lon="5.34318">
        <ele>1378.2</ele>
        <time>2021-10-08T10:27:24Z</time>
      </trkpt>
      <trkpt lat="44.85284" lon="5.34319">
        <ele>1377.2</ele>
        <time>2021-10-08T10:27:25Z</time>
      </trkpt>
      <trkpt lat="44.85287" lon="5.3432">
        <ele>1373.8</ele>
        <time>2021-10-08T10:27:26Z</time>
      </trkpt>
      <trkpt lat="44.8529" lon="5.3432">
        <ele>1373.8</ele>
        <time>2021-10-08T10:27:27Z</time>
      </trkpt>
      <trkpt lat="44.85292" lon="5.34321">
        <ele>1373.8</ele>
        <time>2021-10-08T10:27:28Z</time>
      </trkpt>
      <trkpt lat="44.85295" lon="5.34321">
        <ele>1374.8</ele>
        <time>2021-10-08T10:27:29Z</time>
      </trkpt>
      <trkpt lat="44.85297" lon="5.34322">
        <ele>1373.8</ele>
        <time>2021-10-08T10:27:30Z</time>
      </trkpt>
      <trkpt lat="44.853" lon="5.34323">
        <ele>1373.8</ele>
        <time>2021-10-08T10:27:31Z</time>
      </trkpt>
      <trkpt lat="44.85303" lon="5.34324">
        <ele>1373.8</ele>
        <time>2021-10-08T10:27:32Z</time>
      </trkpt>
      <trkpt lat="44.85306" lon="5.34326">
        <ele>1372.8</ele>
        <time>2021-10-08T10:27:33Z</time>
      </trkpt>
      <trkpt lat="44.85309" lon="5.34329">
        <ele>1370.2</ele>
        <time>2021-10-08T10:27:34Z</time>
      </trkpt>
      <trkpt lat="44.85312" lon="5.34332">
        <ele>1370.2</ele>
        <time>2021-10-08T10:27:35Z</time>
      </trkpt>
      <trkpt lat="44.85316" lon="5.34335">
        <ele>1370.2</ele>
        <time>2021-10-08T10:27:36Z</time>
      </trkpt>
      <trkpt lat="44.85321" lon="5.34337">
        <ele>1370.2</ele>
        <time>2021-10-08T10:27:37Z</time>
      </trkpt>
      <trkpt lat="44.85326" lon="5.3434">
        <ele>1367</ele>
        <time>2021-10-08T10:27:38Z</time>
      </trkpt>
      <trkpt lat="44.8533" lon="5.34343">
        <ele>1367</ele>
        <time>2021-10-08T10:27:39Z</time>
      </trkpt>
      <trkpt lat="44.85336" lon="5.34346">
        <ele>1367</ele>
        <time>2021-10-08T10:27:40Z</time>
      </trkpt>
      <trkpt lat="44.85341" lon="5.34349">
        <ele>1366</ele>
        <time>2021-10-08T10:27:41Z</time>
      </trkpt>
      <trkpt lat="44.85348" lon="5.34353">
        <ele>1365.6</ele>
        <time>2021-10-08T10:27:42Z</time>
      </trkpt>
      <trkpt lat="44.85353" lon="5.34357">
        <ele>1365.6</ele>
        <time>2021-10-08T10:27:43Z</time>
      </trkpt>
      <trkpt lat="44.85358" lon="5.3436">
        <ele>1365.6</ele>
        <time>2021-10-08T10:27:44Z</time>
      </trkpt>
      <trkpt lat="44.85363" lon="5.34363">
        <ele>1364.6</ele>
        <time>2021-10-08T10:27:45Z</time>
      </trkpt>
      <trkpt lat="44.85368" lon="5.34365">
        <ele>1361.2</ele>
        <time>2021-10-08T10:27:46Z</time>
      </trkpt>
      <trkpt lat="44.85373" lon="5.34369">
        <ele>1361.2</ele>
        <time>2021-10-08T10:27:47Z</time>
      </trkpt>
      <trkpt lat="44.85379" lon="5.34373">
        <ele>1361.2</ele>
        <time>2021-10-08T10:27:48Z</time>
      </trkpt>
      <trkpt lat="44.85384" lon="5.34378">
        <ele>1360.2</ele>
        <time>2021-10-08T10:27:49Z</time>
      </trkpt>
      <trkpt lat="44.85391" lon="5.34383">
        <ele>1357.8</ele>
        <time>2021-10-08T10:27:50Z</time>
      </trkpt>
      <trkpt lat="44.85396" lon="5.34386">
        <ele>1357.8</ele>
        <time>2021-10-08T10:27:51Z</time>
      </trkpt>
      <trkpt lat="44.85402" lon="5.3439">
        <ele>1357.8</ele>
        <time>2021-10-08T10:27:52Z</time>
      </trkpt>
      <trkpt lat="44.85406" lon="5.34394">
        <ele>1356.8</ele>
        <time>2021-10-08T10:27:53Z</time>
      </trkpt>
      <trkpt lat="44.85413" lon="5.34396">
        <ele>1353.4</ele>
        <time>2021-10-08T10:27:54Z</time>
      </trkpt>
      <trkpt lat="44.85418" lon="5.34399">
        <ele>1353.4</ele>
        <time>2021-10-08T10:27:55Z</time>
      </trkpt>
      <trkpt lat="44.85424" lon="5.344">
        <ele>1353.4</ele>
        <time>2021-10-08T10:27:56Z</time>
      </trkpt>
      <trkpt lat="44.85429" lon="5.34403">
        <ele>1353.4</ele>
        <time>2021-10-08T10:27:57Z</time>
      </trkpt>
      <trkpt lat="44.85435" lon="5.34406">
        <ele>1349.8</ele>
        <time>2021-10-08T10:27:58Z</time>
      </trkpt>
      <trkpt lat="44.85441" lon="5.34409">
        <ele>1349.8</ele>
        <time>2021-10-08T10:27:59Z</time>
      </trkpt>
      <trkpt lat="44.85449" lon="5.34412">
        <ele>1349.8</ele>
        <time>2021-10-08T10:28:00Z</time>
      </trkpt>
      <trkpt lat="44.85457" lon="5.34413">
        <ele>1348.8</ele>
        <time>2021-10-08T10:28:01Z</time>
      </trkpt>
      <trkpt lat="44.85466" lon="5.34415">
        <ele>1343.8</ele>
        <time>2021-10-08T10:28:02Z</time>
      </trkpt>
      <trkpt lat="44.85473" lon="5.34416">
        <ele>1343.8</ele>
        <time>2021-10-08T10:28:03Z</time>
      </trkpt>
      <trkpt lat="44.8548" lon="5.34418">
        <ele>1343.8</ele>
        <time>2021-10-08T10:28:04Z</time>
      </trkpt>
      <trkpt lat="44.85488" lon="5.34418">
        <ele>1344.2</ele>
        <time>2021-10-08T10:28:05Z</time>
      </trkpt>
      <trkpt lat="44.85494" lon="5.34417">
        <ele>1344.2</ele>
        <time>2021-10-08T10:28:06Z</time>
      </trkpt>
      <trkpt lat="44.85501" lon="5.34419">
        <ele>1344.2</ele>
        <time>2021-10-08T10:28:07Z</time>
      </trkpt>
      <trkpt lat="44.85508" lon="5.34421">
        <ele>1344.2</ele>
        <time>2021-10-08T10:28:08Z</time>
      </trkpt>
      <trkpt lat="44.85514" lon="5.34426">
        <ele>1344.2</ele>
        <time>2021-10-08T10:28:09Z</time>
      </trkpt>
      <trkpt lat="44.8552" lon="5.3443">
        <ele>1344.2</ele>
        <time>2021-10-08T10:28:10Z</time>
      </trkpt>
      <trkpt lat="44.85526" lon="5.34434">
        <ele>1344.2</ele>
        <time>2021-10-08T10:28:11Z</time>
      </trkpt>
      <trkpt lat="44.85531" lon="5.34438">
        <ele>1344.2</ele>
        <time>2021-10-08T10:28:12Z</time>
      </trkpt>
      <trkpt lat="44.85536" lon="5.34443">
        <ele>1345.2</ele>
        <time>2021-10-08T10:28:13Z</time>
      </trkpt>
      <trkpt lat="44.85541" lon="5.34447">
        <ele>1346</ele>
        <time>2021-10-08T10:28:14Z</time>
      </trkpt>
      <trkpt lat="44.85546" lon="5.3445">
        <ele>1346</ele>
        <time>2021-10-08T10:28:15Z</time>
      </trkpt>
      <trkpt lat="44.85551" lon="5.34455">
        <ele>1346</ele>
        <time>2021-10-08T10:28:16Z</time>
      </trkpt>
      <trkpt lat="44.85555" lon="5.34459">
        <ele>1345</ele>
        <time>2021-10-08T10:28:17Z</time>
      </trkpt>
      <trkpt lat="44.85559" lon="5.34463">
        <ele>1345.4</ele>
        <time>2021-10-08T10:28:18Z</time>
      </trkpt>
      <trkpt lat="44.85562" lon="5.34466">
        <ele>1345.4</ele>
        <time>2021-10-08T10:28:19Z</time>
      </trkpt>
      <trkpt lat="44.85565" lon="5.34469">
        <ele>1345.4</ele>
        <time>2021-10-08T10:28:20Z</time>
      </trkpt>
      <trkpt lat="44.85567" lon="5.34473">
        <ele>1345.4</ele>
        <time>2021-10-08T10:28:21Z</time>
      </trkpt>
      <trkpt lat="44.85571" lon="5.34476">
        <ele>1344.6</ele>
        <time>2021-10-08T10:28:22Z</time>
      </trkpt>
      <trkpt lat="44.85576" lon="5.34479">
        <ele>1344.6</ele>
        <time>2021-10-08T10:28:23Z</time>
      </trkpt>
      <trkpt lat="44.8558" lon="5.34483">
        <ele>1344.6</ele>
        <time>2021-10-08T10:28:24Z</time>
      </trkpt>
      <trkpt lat="44.85584" lon="5.34486">
        <ele>1343.6</ele>
        <time>2021-10-08T10:28:25Z</time>
      </trkpt>
      <trkpt lat="44.85588" lon="5.3449">
        <ele>1341</ele>
        <time>2021-10-08T10:28:26Z</time>
      </trkpt>
      <trkpt lat="44.85592" lon="5.34495">
        <ele>1341</ele>
        <time>2021-10-08T10:28:27Z</time>
      </trkpt>
      <trkpt lat="44.85596" lon="5.34499">
        <ele>1341</ele>
        <time>2021-10-08T10:28:28Z</time>
      </trkpt>
      <trkpt lat="44.856" lon="5.34505">
        <ele>1341</ele>
        <time>2021-10-08T10:28:29Z</time>
      </trkpt>
      <trkpt lat="44.85603" lon="5.34511">
        <ele>1340.8</ele>
        <time>2021-10-08T10:28:30Z</time>
      </trkpt>
      <trkpt lat="44.85608" lon="5.34516">
        <ele>1340.8</ele>
        <time>2021-10-08T10:28:31Z</time>
      </trkpt>
      <trkpt lat="44.85612" lon="5.34523">
        <ele>1340.8</ele>
        <time>2021-10-08T10:28:32Z</time>
      </trkpt>
      <trkpt lat="44.85617" lon="5.34529">
        <ele>1339.8</ele>
        <time>2021-10-08T10:28:33Z</time>
      </trkpt>
      <trkpt lat="44.85621" lon="5.34535">
        <ele>1335.6</ele>
        <time>2021-10-08T10:28:34Z</time>
      </trkpt>
      <trkpt lat="44.85627" lon="5.34542">
        <ele>1335.6</ele>
        <time>2021-10-08T10:28:35Z</time>
      </trkpt>
      <trkpt lat="44.85633" lon="5.34547">
        <ele>1335.6</ele>
        <time>2021-10-08T10:28:36Z</time>
      </trkpt>
      <trkpt lat="44.85639" lon="5.34553">
        <ele>1335.6</ele>
        <time>2021-10-08T10:28:37Z</time>
      </trkpt>
      <trkpt lat="44.85645" lon="5.34558">
        <ele>1331.6</ele>
        <time>2021-10-08T10:28:38Z</time>
      </trkpt>
      <trkpt lat="44.85651" lon="5.34564">
        <ele>1331.6</ele>
        <time>2021-10-08T10:28:39Z</time>
      </trkpt>
      <trkpt lat="44.85656" lon="5.3457">
        <ele>1331.6</ele>
        <time>2021-10-08T10:28:40Z</time>
      </trkpt>
      <trkpt lat="44.85662" lon="5.34576">
        <ele>1330.6</ele>
        <time>2021-10-08T10:28:41Z</time>
      </trkpt>
      <trkpt lat="44.85668" lon="5.34583">
        <ele>1328.8</ele>
        <time>2021-10-08T10:28:42Z</time>
      </trkpt>
      <trkpt lat="44.85674" lon="5.3459">
        <ele>1328.8</ele>
        <time>2021-10-08T10:28:43Z</time>
      </trkpt>
      <trkpt lat="44.85682" lon="5.34598">
        <ele>1328.8</ele>
        <time>2021-10-08T10:28:44Z</time>
      </trkpt>
      <trkpt lat="44.85688" lon="5.34607">
        <ele>1327.8</ele>
        <time>2021-10-08T10:28:45Z</time>
      </trkpt>
      <trkpt lat="44.85695" lon="5.34615">
        <ele>1325</ele>
        <time>2021-10-08T10:28:46Z</time>
      </trkpt>
      <trkpt lat="44.85702" lon="5.34623">
        <ele>1325</ele>
        <time>2021-10-08T10:28:47Z</time>
      </trkpt>
      <trkpt lat="44.8571" lon="5.3463">
        <ele>1325</ele>
        <time>2021-10-08T10:28:48Z</time>
      </trkpt>
      <trkpt lat="44.85717" lon="5.34636">
        <ele>1324.4</ele>
        <time>2021-10-08T10:28:49Z</time>
      </trkpt>
      <trkpt lat="44.85723" lon="5.34642">
        <ele>1323.8</ele>
        <time>2021-10-08T10:28:50Z</time>
      </trkpt>
      <trkpt lat="44.85731" lon="5.34648">
        <ele>1323.8</ele>
        <time>2021-10-08T10:28:51Z</time>
      </trkpt>
      <trkpt lat="44.85737" lon="5.34655">
        <ele>1323.8</ele>
        <time>2021-10-08T10:28:52Z</time>
      </trkpt>
      <trkpt lat="44.85744" lon="5.3466">
        <ele>1322.8</ele>
        <time>2021-10-08T10:28:53Z</time>
      </trkpt>
      <trkpt lat="44.85752" lon="5.34665">
        <ele>1322.8</ele>
        <time>2021-10-08T10:28:54Z</time>
      </trkpt>
      <trkpt lat="44.85759" lon="5.3467">
        <ele>1321.6</ele>
        <time>2021-10-08T10:28:55Z</time>
      </trkpt>
      <trkpt lat="44.85766" lon="5.34675">
        <ele>1321.6</ele>
        <time>2021-10-08T10:28:56Z</time>
      </trkpt>
      <trkpt lat="44.85772" lon="5.34681">
        <ele>1320.6</ele>
        <time>2021-10-08T10:28:57Z</time>
      </trkpt>
      <trkpt lat="44.85778" lon="5.34686">
        <ele>1318</ele>
        <time>2021-10-08T10:28:58Z</time>
      </trkpt>
      <trkpt lat="44.85783" lon="5.34691">
        <ele>1318</ele>
        <time>2021-10-08T10:28:59Z</time>
      </trkpt>
      <trkpt lat="44.85788" lon="5.34697">
        <ele>1318</ele>
        <time>2021-10-08T10:29:00Z</time>
      </trkpt>
      <trkpt lat="44.85793" lon="5.347">
        <ele>1318</ele>
        <time>2021-10-08T10:29:01Z</time>
      </trkpt>
      <trkpt lat="44.85799" lon="5.34704">
        <ele>1317.2</ele>
        <time>2021-10-08T10:29:02Z</time>
      </trkpt>
      <trkpt lat="44.85804" lon="5.34707">
        <ele>1317.2</ele>
        <time>2021-10-08T10:29:03Z</time>
      </trkpt>
      <trkpt lat="44.8581" lon="5.34712">
        <ele>1317.2</ele>
        <time>2021-10-08T10:29:04Z</time>
      </trkpt>
      <trkpt lat="44.85815" lon="5.34717">
        <ele>1316.2</ele>
        <time>2021-10-08T10:29:05Z</time>
      </trkpt>
      <trkpt lat="44.85821" lon="5.34721">
        <ele>1315.8</ele>
        <time>2021-10-08T10:29:06Z</time>
      </trkpt>
      <trkpt lat="44.85826" lon="5.34726">
        <ele>1315.8</ele>
        <time>2021-10-08T10:29:07Z</time>
      </trkpt>
      <trkpt lat="44.85832" lon="5.34731">
        <ele>1315.8</ele>
        <time>2021-10-08T10:29:08Z</time>
      </trkpt>
      <trkpt lat="44.85836" lon="5.34736">
        <ele>1314.8</ele>
        <time>2021-10-08T10:29:09Z</time>
      </trkpt>
      <trkpt lat="44.85843" lon="5.3474">
        <ele>1309.6</ele>
        <time>2021-10-08T10:29:10Z</time>
      </trkpt>
      <trkpt lat="44.85849" lon="5.34745">
        <ele>1309.6</ele>
        <time>2021-10-08T10:29:11Z</time>
      </trkpt>
      <trkpt lat="44.85854" lon="5.34748">
        <ele>1309.6</ele>
        <time>2021-10-08T10:29:12Z</time>
      </trkpt>
      <trkpt lat="44.85861" lon="5.34752">
        <ele>1309.6</ele>
        <time>2021-10-08T10:29:13Z</time>
      </trkpt>
      <trkpt lat="44.85867" lon="5.34758">
        <ele>1307.2</ele>
        <time>2021-10-08T10:29:14Z</time>
      </trkpt>
      <trkpt lat="44.85874" lon="5.34761">
        <ele>1307.2</ele>
        <time>2021-10-08T10:29:15Z</time>
      </trkpt>
      <trkpt lat="44.85881" lon="5.34764">
        <ele>1307.2</ele>
        <time>2021-10-08T10:29:16Z</time>
      </trkpt>
      <trkpt lat="44.8589" lon="5.34769">
        <ele>1307.2</ele>
        <time>2021-10-08T10:29:17Z</time>
      </trkpt>
      <trkpt lat="44.85897" lon="5.34772">
        <ele>1303</ele>
        <time>2021-10-08T10:29:18Z</time>
      </trkpt>
      <trkpt lat="44.85903" lon="5.34778">
        <ele>1303</ele>
        <time>2021-10-08T10:29:19Z</time>
      </trkpt>
      <trkpt lat="44.85911" lon="5.34783">
        <ele>1303</ele>
        <time>2021-10-08T10:29:20Z</time>
      </trkpt>
      <trkpt lat="44.85917" lon="5.34789">
        <ele>1302</ele>
        <time>2021-10-08T10:29:21Z</time>
      </trkpt>
      <trkpt lat="44.85922" lon="5.34797">
        <ele>1301.2</ele>
        <time>2021-10-08T10:29:22Z</time>
      </trkpt>
      <trkpt lat="44.85928" lon="5.34802">
        <ele>1301.2</ele>
        <time>2021-10-08T10:29:23Z</time>
      </trkpt>
      <trkpt lat="44.85936" lon="5.34808">
        <ele>1301.2</ele>
        <time>2021-10-08T10:29:24Z</time>
      </trkpt>
      <trkpt lat="44.85944" lon="5.34812">
        <ele>1300.2</ele>
        <time>2021-10-08T10:29:25Z</time>
      </trkpt>
      <trkpt lat="44.85952" lon="5.34815">
        <ele>1297.8</ele>
        <time>2021-10-08T10:29:26Z</time>
      </trkpt>
      <trkpt lat="44.8596" lon="5.34818">
        <ele>1297.8</ele>
        <time>2021-10-08T10:29:27Z</time>
      </trkpt>
      <trkpt lat="44.85967" lon="5.34822">
        <ele>1297.8</ele>
        <time>2021-10-08T10:29:28Z</time>
      </trkpt>
      <trkpt lat="44.85974" lon="5.34824">
        <ele>1296.8</ele>
        <time>2021-10-08T10:29:29Z</time>
      </trkpt>
      <trkpt lat="44.8598" lon="5.34827">
        <ele>1295.8</ele>
        <time>2021-10-08T10:29:30Z</time>
      </trkpt>
      <trkpt lat="44.85985" lon="5.3483">
        <ele>1295.8</ele>
        <time>2021-10-08T10:29:31Z</time>
      </trkpt>
      <trkpt lat="44.85991" lon="5.34833">
        <ele>1295.8</ele>
        <time>2021-10-08T10:29:32Z</time>
      </trkpt>
      <trkpt lat="44.85995" lon="5.34836">
        <ele>1295.8</ele>
        <time>2021-10-08T10:29:33Z</time>
      </trkpt>
      <trkpt lat="44.86001" lon="5.34839">
        <ele>1294.4</ele>
        <time>2021-10-08T10:29:34Z</time>
      </trkpt>
      <trkpt lat="44.86006" lon="5.3484">
        <ele>1294.4</ele>
        <time>2021-10-08T10:29:35Z</time>
      </trkpt>
      <trkpt lat="44.86011" lon="5.34842">
        <ele>1294.4</ele>
        <time>2021-10-08T10:29:36Z</time>
      </trkpt>
      <trkpt lat="44.86018" lon="5.34841">
        <ele>1294.4</ele>
        <time>2021-10-08T10:29:37Z</time>
      </trkpt>
      <trkpt lat="44.86023" lon="5.34841">
        <ele>1293.8</ele>
        <time>2021-10-08T10:29:38Z</time>
      </trkpt>
      <trkpt lat="44.86028" lon="5.34843">
        <ele>1293.8</ele>
        <time>2021-10-08T10:29:39Z</time>
      </trkpt>
      <trkpt lat="44.86034" lon="5.34849">
        <ele>1293.8</ele>
        <time>2021-10-08T10:29:40Z</time>
      </trkpt>
      <trkpt lat="44.86037" lon="5.34855">
        <ele>1293.8</ele>
        <time>2021-10-08T10:29:41Z</time>
      </trkpt>
      <trkpt lat="44.86037" lon="5.34859">
        <ele>1293.4</ele>
        <time>2021-10-08T10:29:42Z</time>
      </trkpt>
      <trkpt lat="44.86035" lon="5.34861">
        <ele>1293.4</ele>
        <time>2021-10-08T10:29:43Z</time>
      </trkpt>
      <trkpt lat="44.86032" lon="5.34863">
        <ele>1293.4</ele>
        <time>2021-10-08T10:29:44Z</time>
      </trkpt>
      <trkpt lat="44.86029" lon="5.34864">
        <ele>1292.4</ele>
        <time>2021-10-08T10:29:45Z</time>
      </trkpt>
      <trkpt lat="44.86025" lon="5.34864">
        <ele>1291.6</ele>
        <time>2021-10-08T10:29:46Z</time>
      </trkpt>
      <trkpt lat="44.86021" lon="5.34864">
        <ele>1291.6</ele>
        <time>2021-10-08T10:29:47Z</time>
      </trkpt>
      <trkpt lat="44.86016" lon="5.34868">
        <ele>1291.6</ele>
        <time>2021-10-08T10:29:48Z</time>
      </trkpt>
      <trkpt lat="44.86011" lon="5.34872">
        <ele>1290.6</ele>
        <time>2021-10-08T10:29:49Z</time>
      </trkpt>
      <trkpt lat="44.86006" lon="5.34877">
        <ele>1288.6</ele>
        <time>2021-10-08T10:29:50Z</time>
      </trkpt>
      <trkpt lat="44.86001" lon="5.34882">
        <ele>1288.6</ele>
        <time>2021-10-08T10:29:51Z</time>
      </trkpt>
      <trkpt lat="44.85996" lon="5.34889">
        <ele>1288.6</ele>
        <time>2021-10-08T10:29:52Z</time>
      </trkpt>
      <trkpt lat="44.85991" lon="5.34896">
        <ele>1287.6</ele>
        <time>2021-10-08T10:29:53Z</time>
      </trkpt>
      <trkpt lat="44.85987" lon="5.34903">
        <ele>1284.6</ele>
        <time>2021-10-08T10:29:54Z</time>
      </trkpt>
      <trkpt lat="44.85982" lon="5.34909">
        <ele>1284.6</ele>
        <time>2021-10-08T10:29:55Z</time>
      </trkpt>
      <trkpt lat="44.85978" lon="5.34916">
        <ele>1284.6</ele>
        <time>2021-10-08T10:29:56Z</time>
      </trkpt>
      <trkpt lat="44.85975" lon="5.34923">
        <ele>1283.6</ele>
        <time>2021-10-08T10:29:57Z</time>
      </trkpt>
      <trkpt lat="44.85972" lon="5.34931">
        <ele>1279.8</ele>
        <time>2021-10-08T10:29:58Z</time>
      </trkpt>
      <trkpt lat="44.85969" lon="5.3494">
        <ele>1279.8</ele>
        <time>2021-10-08T10:29:59Z</time>
      </trkpt>
      <trkpt lat="44.85965" lon="5.34949">
        <ele>1279.8</ele>
        <time>2021-10-08T10:30:00Z</time>
      </trkpt>
      <trkpt lat="44.85961" lon="5.34958">
        <ele>1278.8</ele>
        <time>2021-10-08T10:30:01Z</time>
      </trkpt>
      <trkpt lat="44.85957" lon="5.34966">
        <ele>1276.6</ele>
        <time>2021-10-08T10:30:02Z</time>
      </trkpt>
      <trkpt lat="44.85952" lon="5.34974">
        <ele>1276.6</ele>
        <time>2021-10-08T10:30:03Z</time>
      </trkpt>
      <trkpt lat="44.85947" lon="5.34982">
        <ele>1276.6</ele>
        <time>2021-10-08T10:30:04Z</time>
      </trkpt>
      <trkpt lat="44.85941" lon="5.34989">
        <ele>1275.6</ele>
        <time>2021-10-08T10:30:05Z</time>
      </trkpt>
      <trkpt lat="44.85936" lon="5.34997">
        <ele>1271.4</ele>
        <time>2021-10-08T10:30:06Z</time>
      </trkpt>
      <trkpt lat="44.85932" lon="5.35006">
        <ele>1271.4</ele>
        <time>2021-10-08T10:30:07Z</time>
      </trkpt>
      <trkpt lat="44.85928" lon="5.35014">
        <ele>1271.4</ele>
        <time>2021-10-08T10:30:08Z</time>
      </trkpt>
      <trkpt lat="44.85924" lon="5.35025">
        <ele>1270.4</ele>
        <time>2021-10-08T10:30:09Z</time>
      </trkpt>
      <trkpt lat="44.8592" lon="5.35035">
        <ele>1269</ele>
        <time>2021-10-08T10:30:10Z</time>
      </trkpt>
      <trkpt lat="44.85917" lon="5.35043">
        <ele>1269</ele>
        <time>2021-10-08T10:30:11Z</time>
      </trkpt>
      <trkpt lat="44.85912" lon="5.35051">
        <ele>1269</ele>
        <time>2021-10-08T10:30:12Z</time>
      </trkpt>
      <trkpt lat="44.85907" lon="5.35062">
        <ele>1268</ele>
        <time>2021-10-08T10:30:13Z</time>
      </trkpt>
      <trkpt lat="44.85901" lon="5.3507">
        <ele>1268.4</ele>
        <time>2021-10-08T10:30:14Z</time>
      </trkpt>
      <trkpt lat="44.85896" lon="5.35078">
        <ele>1268.4</ele>
        <time>2021-10-08T10:30:15Z</time>
      </trkpt>
      <trkpt lat="44.85891" lon="5.35085">
        <ele>1268.4</ele>
        <time>2021-10-08T10:30:16Z</time>
      </trkpt>
      <trkpt lat="44.85887" lon="5.3509">
        <ele>1267.4</ele>
        <time>2021-10-08T10:30:17Z</time>
      </trkpt>
      <trkpt lat="44.85883" lon="5.35096">
        <ele>1264.6</ele>
        <time>2021-10-08T10:30:18Z</time>
      </trkpt>
      <trkpt lat="44.85879" lon="5.35104">
        <ele>1264.6</ele>
        <time>2021-10-08T10:30:19Z</time>
      </trkpt>
      <trkpt lat="44.85876" lon="5.35112">
        <ele>1264.6</ele>
        <time>2021-10-08T10:30:20Z</time>
      </trkpt>
      <trkpt lat="44.85875" lon="5.35122">
        <ele>1263.6</ele>
        <time>2021-10-08T10:30:21Z</time>
      </trkpt>
      <trkpt lat="44.85874" lon="5.35132">
        <ele>1261.4</ele>
        <time>2021-10-08T10:30:22Z</time>
      </trkpt>
      <trkpt lat="44.85874" lon="5.35142">
        <ele>1261.4</ele>
        <time>2021-10-08T10:30:23Z</time>
      </trkpt>
      <trkpt lat="44.85875" lon="5.35153">
        <ele>1261.4</ele>
        <time>2021-10-08T10:30:24Z</time>
      </trkpt>
      <trkpt lat="44.85874" lon="5.35166">
        <ele>1261.4</ele>
        <time>2021-10-08T10:30:25Z</time>
      </trkpt>
      <trkpt lat="44.85874" lon="5.35176">
        <ele>1259.8</ele>
        <time>2021-10-08T10:30:26Z</time>
      </trkpt>
      <trkpt lat="44.85872" lon="5.35188">
        <ele>1259.8</ele>
        <time>2021-10-08T10:30:27Z</time>
      </trkpt>
      <trkpt lat="44.85872" lon="5.35198">
        <ele>1259.8</ele>
        <time>2021-10-08T10:30:28Z</time>
      </trkpt>
      <trkpt lat="44.8587" lon="5.35209">
        <ele>1260.2</ele>
        <time>2021-10-08T10:30:29Z</time>
      </trkpt>
      <trkpt lat="44.8587" lon="5.35218">
        <ele>1261.6</ele>
        <time>2021-10-08T10:30:30Z</time>
      </trkpt>
      <trkpt lat="44.85869" lon="5.35229">
        <ele>1261.6</ele>
        <time>2021-10-08T10:30:31Z</time>
      </trkpt>
      <trkpt lat="44.85869" lon="5.35239">
        <ele>1261.6</ele>
        <time>2021-10-08T10:30:32Z</time>
      </trkpt>
      <trkpt lat="44.85869" lon="5.35249">
        <ele>1260.6</ele>
        <time>2021-10-08T10:30:33Z</time>
      </trkpt>
      <trkpt lat="44.85871" lon="5.35257">
        <ele>1260.2</ele>
        <time>2021-10-08T10:30:34Z</time>
      </trkpt>
      <trkpt lat="44.85873" lon="5.35268">
        <ele>1260.2</ele>
        <time>2021-10-08T10:30:35Z</time>
      </trkpt>
      <trkpt lat="44.85875" lon="5.35276">
        <ele>1260.2</ele>
        <time>2021-10-08T10:30:36Z</time>
      </trkpt>
      <trkpt lat="44.85879" lon="5.35285">
        <ele>1259.2</ele>
        <time>2021-10-08T10:30:37Z</time>
      </trkpt>
      <trkpt lat="44.85882" lon="5.35294">
        <ele>1258</ele>
        <time>2021-10-08T10:30:38Z</time>
      </trkpt>
      <trkpt lat="44.85885" lon="5.35303">
        <ele>1258</ele>
        <time>2021-10-08T10:30:39Z</time>
      </trkpt>
      <trkpt lat="44.85887" lon="5.35311">
        <ele>1258</ele>
        <time>2021-10-08T10:30:40Z</time>
      </trkpt>
      <trkpt lat="44.85889" lon="5.35321">
        <ele>1257.4</ele>
        <time>2021-10-08T10:30:41Z</time>
      </trkpt>
      <trkpt lat="44.8589" lon="5.35331">
        <ele>1256.6</ele>
        <time>2021-10-08T10:30:42Z</time>
      </trkpt>
      <trkpt lat="44.85891" lon="5.35341">
        <ele>1256.6</ele>
        <time>2021-10-08T10:30:43Z</time>
      </trkpt>
      <trkpt lat="44.85891" lon="5.3535">
        <ele>1256.6</ele>
        <time>2021-10-08T10:30:44Z</time>
      </trkpt>
      <trkpt lat="44.85891" lon="5.3536">
        <ele>1256.4</ele>
        <time>2021-10-08T10:30:45Z</time>
      </trkpt>
      <trkpt lat="44.8589" lon="5.3537">
        <ele>1256</ele>
        <time>2021-10-08T10:30:46Z</time>
      </trkpt>
      <trkpt lat="44.85889" lon="5.35379">
        <ele>1256</ele>
        <time>2021-10-08T10:30:47Z</time>
      </trkpt>
      <trkpt lat="44.85888" lon="5.35389">
        <ele>1256</ele>
        <time>2021-10-08T10:30:48Z</time>
      </trkpt>
      <trkpt lat="44.85887" lon="5.354">
        <ele>1255</ele>
        <time>2021-10-08T10:30:49Z</time>
      </trkpt>
      <trkpt lat="44.85886" lon="5.35408">
        <ele>1255.4</ele>
        <time>2021-10-08T10:30:50Z</time>
      </trkpt>
      <trkpt lat="44.85887" lon="5.35413">
        <ele>1255.4</ele>
        <time>2021-10-08T10:30:51Z</time>
      </trkpt>
      <trkpt lat="44.85888" lon="5.35417">
        <ele>1255.4</ele>
        <time>2021-10-08T10:30:52Z</time>
      </trkpt>
      <trkpt lat="44.85889" lon="5.35421">
        <ele>1255</ele>
        <time>2021-10-08T10:30:53Z</time>
      </trkpt>
      <trkpt lat="44.8589" lon="5.35425">
        <ele>1255</ele>
        <time>2021-10-08T10:30:54Z</time>
      </trkpt>
      <trkpt lat="44.8589" lon="5.35429">
        <ele>1255</ele>
        <time>2021-10-08T10:30:55Z</time>
      </trkpt>
      <trkpt lat="44.85891" lon="5.35433">
        <ele>1255</ele>
        <time>2021-10-08T10:30:56Z</time>
      </trkpt>
      <trkpt lat="44.85891" lon="5.35437">
        <ele>1255</ele>
        <time>2021-10-08T10:30:57Z</time>
      </trkpt>
      <trkpt lat="44.85892" lon="5.3544">
        <ele>1254.6</ele>
        <time>2021-10-08T10:30:58Z</time>
      </trkpt>
      <trkpt lat="44.85893" lon="5.35442">
        <ele>1254.6</ele>
        <time>2021-10-08T10:30:59Z</time>
      </trkpt>
      <trkpt lat="44.85893" lon="5.35443">
        <ele>1254.6</ele>
        <time>2021-10-08T10:31:00Z</time>
      </trkpt>
      <trkpt lat="44.85894" lon="5.35444">
        <ele>1254.6</ele>
        <time>2021-10-08T10:31:01Z</time>
      </trkpt>
      <trkpt lat="44.85898" lon="5.35455">
        <ele>1254.2</ele>
        <time>2021-10-08T10:31:13Z</time>
      </trkpt>
      <trkpt lat="44.85898" lon="5.35457">
        <ele>1253.4</ele>
        <time>2021-10-08T10:31:14Z</time>
      </trkpt>
      <trkpt lat="44.85899" lon="5.3546">
        <ele>1253.4</ele>
        <time>2021-10-08T10:31:15Z</time>
      </trkpt>
      <trkpt lat="44.859" lon="5.35464">
        <ele>1253.4</ele>
        <time>2021-10-08T10:31:16Z</time>
      </trkpt>
      <trkpt lat="44.85903" lon="5.35465">
        <ele>1252.8</ele>
        <time>2021-10-08T10:31:17Z</time>
      </trkpt>
      <trkpt lat="44.85904" lon="5.35468">
        <ele>1253</ele>
        <time>2021-10-08T10:31:18Z</time>
      </trkpt>
      <trkpt lat="44.85905" lon="5.35472">
        <ele>1253</ele>
        <time>2021-10-08T10:31:19Z</time>
      </trkpt>
      <trkpt lat="44.85905" lon="5.35477">
        <ele>1253</ele>
        <time>2021-10-08T10:31:20Z</time>
      </trkpt>
      <trkpt lat="44.85906" lon="5.3548">
        <ele>1252</ele>
        <time>2021-10-08T10:31:21Z</time>
      </trkpt>
      <trkpt lat="44.85908" lon="5.35484">
        <ele>1251.4</ele>
        <time>2021-10-08T10:31:22Z</time>
      </trkpt>
      <trkpt lat="44.85908" lon="5.35487">
        <ele>1251.4</ele>
        <time>2021-10-08T10:31:23Z</time>
      </trkpt>
      <trkpt lat="44.85909" lon="5.3549">
        <ele>1251.4</ele>
        <time>2021-10-08T10:31:24Z</time>
      </trkpt>
      <trkpt lat="44.85909" lon="5.35493">
        <ele>1250.6</ele>
        <time>2021-10-08T10:31:25Z</time>
      </trkpt>
      <trkpt lat="44.85909" lon="5.35495">
        <ele>1250.4</ele>
        <time>2021-10-08T10:31:26Z</time>
      </trkpt>
      <trkpt lat="44.85909" lon="5.35497">
        <ele>1250.4</ele>
        <time>2021-10-08T10:31:27Z</time>
      </trkpt>
      <trkpt lat="44.8591" lon="5.35498">
        <ele>1250.4</ele>
        <time>2021-10-08T10:31:28Z</time>
      </trkpt>
      <trkpt lat="44.8591" lon="5.355">
        <ele>1250.4</ele>
        <time>2021-10-08T10:31:29Z</time>
      </trkpt>
      <trkpt lat="44.8591" lon="5.35502">
        <ele>1250.2</ele>
        <time>2021-10-08T10:31:30Z</time>
      </trkpt>
      <trkpt lat="44.8591" lon="5.35503">
        <ele>1250.2</ele>
        <time>2021-10-08T10:31:31Z</time>
      </trkpt>
      <trkpt lat="44.8591" lon="5.35504">
        <ele>1250.2</ele>
        <time>2021-10-08T10:31:32Z</time>
      </trkpt>
      <trkpt lat="44.85909" lon="5.35504">
        <ele>1250.4</ele>
        <time>2021-10-08T10:31:33Z</time>
      </trkpt>
      <trkpt lat="44.85908" lon="5.35504">
        <ele>1250.4</ele>
        <time>2021-10-08T10:31:34Z</time>
      </trkpt>
      <trkpt lat="44.85907" lon="5.35504">
        <ele>1250.4</ele>
        <time>2021-10-08T10:31:35Z</time>
      </trkpt>
      <trkpt lat="44.85905" lon="5.35504">
        <ele>1250.4</ele>
        <time>2021-10-08T10:31:36Z</time>
      </trkpt>
      <trkpt lat="44.85904" lon="5.35504">
        <ele>1250.8</ele>
        <time>2021-10-08T10:31:37Z</time>
      </trkpt>
      <trkpt lat="44.85902" lon="5.35505">
        <ele>1251</ele>
        <time>2021-10-08T10:31:38Z</time>
      </trkpt>
      <trkpt lat="44.859" lon="5.35505">
        <ele>1251</ele>
        <time>2021-10-08T10:31:39Z</time>
      </trkpt>
      <trkpt lat="44.85899" lon="5.35506">
        <ele>1251</ele>
        <time>2021-10-08T10:31:40Z</time>
      </trkpt>
      <trkpt lat="44.85897" lon="5.35506">
        <ele>1251</ele>
        <time>2021-10-08T10:31:41Z</time>
      </trkpt>
      <trkpt lat="44.85896" lon="5.35506">
        <ele>1250.8</ele>
        <time>2021-10-08T10:31:42Z</time>
      </trkpt>
      <trkpt lat="44.85895" lon="5.35506">
        <ele>1250.8</ele>
        <time>2021-10-08T10:31:43Z</time>
      </trkpt>
      <trkpt lat="44.85894" lon="5.35506">
        <ele>1250.8</ele>
        <time>2021-10-08T10:31:44Z</time>
      </trkpt>
      <trkpt lat="44.85894" lon="5.35507">
        <ele>1250.8</ele>
        <time>2021-10-08T10:31:45Z</time>
      </trkpt>
      <trkpt lat="44.85889" lon="5.35505">
        <ele>1251</ele>
        <time>2021-10-08T10:32:01Z</time>
      </trkpt>
      <trkpt lat="44.85887" lon="5.35504">
        <ele>1251</ele>
        <time>2021-10-08T10:32:02Z</time>
      </trkpt>
      <trkpt lat="44.85885" lon="5.35502">
        <ele>1251</ele>
        <time>2021-10-08T10:32:03Z</time>
      </trkpt>
      <trkpt lat="44.85884" lon="5.355">
        <ele>1251</ele>
        <time>2021-10-08T10:32:04Z</time>
      </trkpt>
      <trkpt lat="44.85882" lon="5.35498">
        <ele>1251</ele>
        <time>2021-10-08T10:32:05Z</time>
      </trkpt>
      <trkpt lat="44.8588" lon="5.35496">
        <ele>1251</ele>
        <time>2021-10-08T10:32:06Z</time>
      </trkpt>
      <trkpt lat="44.85878" lon="5.35494">
        <ele>1251</ele>
        <time>2021-10-08T10:32:07Z</time>
      </trkpt>
      <trkpt lat="44.85877" lon="5.35492">
        <ele>1251</ele>
        <time>2021-10-08T10:32:08Z</time>
      </trkpt>
      <trkpt lat="44.85875" lon="5.3549">
        <ele>1251</ele>
        <time>2021-10-08T10:32:09Z</time>
      </trkpt>
      <trkpt lat="44.85873" lon="5.35488">
        <ele>1250.8</ele>
        <time>2021-10-08T10:32:10Z</time>
      </trkpt>
      <trkpt lat="44.85872" lon="5.35485">
        <ele>1250.8</ele>
        <time>2021-10-08T10:32:11Z</time>
      </trkpt>
      <trkpt lat="44.85871" lon="5.35483">
        <ele>1250.8</ele>
        <time>2021-10-08T10:32:12Z</time>
      </trkpt>
      <trkpt lat="44.85869" lon="5.35481">
        <ele>1251</ele>
        <time>2021-10-08T10:32:13Z</time>
      </trkpt>
      <trkpt lat="44.85868" lon="5.35479">
        <ele>1250.8</ele>
        <time>2021-10-08T10:32:14Z</time>
      </trkpt>
      <trkpt lat="44.85866" lon="5.35477">
        <ele>1250.8</ele>
        <time>2021-10-08T10:32:15Z</time>
      </trkpt>
      <trkpt lat="44.85865" lon="5.35475">
        <ele>1250.8</ele>
        <time>2021-10-08T10:32:16Z</time>
      </trkpt>
      <trkpt lat="44.85863" lon="5.35474">
        <ele>1251</ele>
        <time>2021-10-08T10:32:17Z</time>
      </trkpt>
      <trkpt lat="44.85862" lon="5.35472">
        <ele>1251</ele>
        <time>2021-10-08T10:32:18Z</time>
      </trkpt>
      <trkpt lat="44.85861" lon="5.35471">
        <ele>1251</ele>
        <time>2021-10-08T10:32:19Z</time>
      </trkpt>
      <trkpt lat="44.8586" lon="5.35469">
        <ele>1251</ele>
        <time>2021-10-08T10:32:20Z</time>
      </trkpt>
      <trkpt lat="44.85858" lon="5.35468">
        <ele>1250.8</ele>
        <time>2021-10-08T10:32:21Z</time>
      </trkpt>
      <trkpt lat="44.85857" lon="5.35468">
        <ele>1250.8</ele>
        <time>2021-10-08T10:32:22Z</time>
      </trkpt>
      <trkpt lat="44.85856" lon="5.35466">
        <ele>1250.8</ele>
        <time>2021-10-08T10:32:23Z</time>
      </trkpt>
      <trkpt lat="44.85854" lon="5.35465">
        <ele>1250.8</ele>
        <time>2021-10-08T10:32:24Z</time>
      </trkpt>
      <trkpt lat="44.85853" lon="5.35464">
        <ele>1250.8</ele>
        <time>2021-10-08T10:32:25Z</time>
      </trkpt>
      <trkpt lat="44.85851" lon="5.35463">
        <ele>1251.2</ele>
        <time>2021-10-08T10:32:26Z</time>
      </trkpt>
      <trkpt lat="44.85849" lon="5.35462">
        <ele>1251.2</ele>
        <time>2021-10-08T10:32:27Z</time>
      </trkpt>
      <trkpt lat="44.85847" lon="5.35461">
        <ele>1251.2</ele>
        <time>2021-10-08T10:32:28Z</time>
      </trkpt>
      <trkpt lat="44.85845" lon="5.3546">
        <ele>1251.2</ele>
        <time>2021-10-08T10:32:29Z</time>
      </trkpt>
      <trkpt lat="44.85843" lon="5.3546">
        <ele>1251.2</ele>
        <time>2021-10-08T10:32:30Z</time>
      </trkpt>
      <trkpt lat="44.85841" lon="5.35459">
        <ele>1251.2</ele>
        <time>2021-10-08T10:32:31Z</time>
      </trkpt>
      <trkpt lat="44.8584" lon="5.35458">
        <ele>1251.2</ele>
        <time>2021-10-08T10:32:32Z</time>
      </trkpt>
      <trkpt lat="44.85839" lon="5.35457">
        <ele>1251.2</ele>
        <time>2021-10-08T10:32:33Z</time>
      </trkpt>
      <trkpt lat="44.85837" lon="5.35457">
        <ele>1251.4</ele>
        <time>2021-10-08T10:32:34Z</time>
      </trkpt>
      <trkpt lat="44.85835" lon="5.35457">
        <ele>1251.4</ele>
        <time>2021-10-08T10:32:35Z</time>
      </trkpt>
      <trkpt lat="44.85833" lon="5.35456">
        <ele>1251.4</ele>
        <time>2021-10-08T10:32:36Z</time>
      </trkpt>
      <trkpt lat="44.8583" lon="5.35455">
        <ele>1251.4</ele>
        <time>2021-10-08T10:32:37Z</time>
      </trkpt>
      <trkpt lat="44.85827" lon="5.35454">
        <ele>1251.4</ele>
        <time>2021-10-08T10:32:38Z</time>
      </trkpt>
      <trkpt lat="44.85825" lon="5.35454">
        <ele>1251.4</ele>
        <time>2021-10-08T10:32:39Z</time>
      </trkpt>
      <trkpt lat="44.85822" lon="5.35453">
        <ele>1251.4</ele>
        <time>2021-10-08T10:32:40Z</time>
      </trkpt>
      <trkpt lat="44.85819" lon="5.35452">
        <ele>1251.6</ele>
        <time>2021-10-08T10:32:41Z</time>
      </trkpt>
      <trkpt lat="44.85816" lon="5.35452">
        <ele>1251.6</ele>
        <time>2021-10-08T10:32:42Z</time>
      </trkpt>
      <trkpt lat="44.85813" lon="5.35451">
        <ele>1251.6</ele>
        <time>2021-10-08T10:32:43Z</time>
      </trkpt>
      <trkpt lat="44.85809" lon="5.3545">
        <ele>1251.6</ele>
        <time>2021-10-08T10:32:44Z</time>
      </trkpt>
      <trkpt lat="44.85806" lon="5.35448">
        <ele>1251.6</ele>
        <time>2021-10-08T10:32:45Z</time>
      </trkpt>
      <trkpt lat="44.85803" lon="5.35447">
        <ele>1251.4</ele>
        <time>2021-10-08T10:32:46Z</time>
      </trkpt>
      <trkpt lat="44.858" lon="5.35445">
        <ele>1251.4</ele>
        <time>2021-10-08T10:32:47Z</time>
      </trkpt>
      <trkpt lat="44.85797" lon="5.35444">
        <ele>1251.4</ele>
        <time>2021-10-08T10:32:48Z</time>
      </trkpt>
      <trkpt lat="44.85793" lon="5.35443">
        <ele>1251.4</ele>
        <time>2021-10-08T10:32:49Z</time>
      </trkpt>
      <trkpt lat="44.8579" lon="5.35442">
        <ele>1251.4</ele>
        <time>2021-10-08T10:32:50Z</time>
      </trkpt>
      <trkpt lat="44.85787" lon="5.35441">
        <ele>1251.4</ele>
        <time>2021-10-08T10:32:51Z</time>
      </trkpt>
      <trkpt lat="44.85783" lon="5.3544">
        <ele>1251.4</ele>
        <time>2021-10-08T10:32:52Z</time>
      </trkpt>
      <trkpt lat="44.85781" lon="5.35439">
        <ele>1251.4</ele>
        <time>2021-10-08T10:32:53Z</time>
      </trkpt>
      <trkpt lat="44.85777" lon="5.35438">
        <ele>1251.8</ele>
        <time>2021-10-08T10:32:54Z</time>
      </trkpt>
      <trkpt lat="44.85775" lon="5.35437">
        <ele>1251.8</ele>
        <time>2021-10-08T10:32:55Z</time>
      </trkpt>
      <trkpt lat="44.85771" lon="5.35436">
        <ele>1251.8</ele>
        <time>2021-10-08T10:32:56Z</time>
      </trkpt>
      <trkpt lat="44.85768" lon="5.35436">
        <ele>1251.8</ele>
        <time>2021-10-08T10:32:57Z</time>
      </trkpt>
      <trkpt lat="44.85764" lon="5.35435">
        <ele>1251.8</ele>
        <time>2021-10-08T10:32:58Z</time>
      </trkpt>
      <trkpt lat="44.85761" lon="5.35434">
        <ele>1251.8</ele>
        <time>2021-10-08T10:32:59Z</time>
      </trkpt>
      <trkpt lat="44.85758" lon="5.35433">
        <ele>1251.8</ele>
        <time>2021-10-08T10:33:00Z</time>
      </trkpt>
      <trkpt lat="44.85755" lon="5.35431">
        <ele>1251.8</ele>
        <time>2021-10-08T10:33:01Z</time>
      </trkpt>
      <trkpt lat="44.85752" lon="5.3543">
        <ele>1252.2</ele>
        <time>2021-10-08T10:33:02Z</time>
      </trkpt>
      <trkpt lat="44.85749" lon="5.35429">
        <ele>1252.2</ele>
        <time>2021-10-08T10:33:03Z</time>
      </trkpt>
      <trkpt lat="44.85745" lon="5.35428">
        <ele>1252.2</ele>
        <time>2021-10-08T10:33:04Z</time>
      </trkpt>
      <trkpt lat="44.85742" lon="5.35427">
        <ele>1252.2</ele>
        <time>2021-10-08T10:33:05Z</time>
      </trkpt>
      <trkpt lat="44.85739" lon="5.35427">
        <ele>1251.8</ele>
        <time>2021-10-08T10:33:06Z</time>
      </trkpt>
      <trkpt lat="44.85736" lon="5.35426">
        <ele>1251.8</ele>
        <time>2021-10-08T10:33:07Z</time>
      </trkpt>
      <trkpt lat="44.85732" lon="5.35426">
        <ele>1251.8</ele>
        <time>2021-10-08T10:33:08Z</time>
      </trkpt>
      <trkpt lat="44.8573" lon="5.35424">
        <ele>1252.4</ele>
        <time>2021-10-08T10:33:09Z</time>
      </trkpt>
      <trkpt lat="44.85726" lon="5.35423">
        <ele>1252.2</ele>
        <time>2021-10-08T10:33:10Z</time>
      </trkpt>
      <trkpt lat="44.85723" lon="5.35423">
        <ele>1252.2</ele>
        <time>2021-10-08T10:33:11Z</time>
      </trkpt>
      <trkpt lat="44.8572" lon="5.35423">
        <ele>1252.2</ele>
        <time>2021-10-08T10:33:12Z</time>
      </trkpt>
      <trkpt lat="44.85716" lon="5.35422">
        <ele>1252.4</ele>
        <time>2021-10-08T10:33:13Z</time>
      </trkpt>
      <trkpt lat="44.85712" lon="5.35421">
        <ele>1252.4</ele>
        <time>2021-10-08T10:33:14Z</time>
      </trkpt>
      <trkpt lat="44.85709" lon="5.3542">
        <ele>1252.4</ele>
        <time>2021-10-08T10:33:15Z</time>
      </trkpt>
      <trkpt lat="44.85706" lon="5.35418">
        <ele>1252.4</ele>
        <time>2021-10-08T10:33:16Z</time>
      </trkpt>
      <trkpt lat="44.85703" lon="5.35418">
        <ele>1252.6</ele>
        <time>2021-10-08T10:33:17Z</time>
      </trkpt>
      <trkpt lat="44.857" lon="5.35418">
        <ele>1252.6</ele>
        <time>2021-10-08T10:33:18Z</time>
      </trkpt>
      <trkpt lat="44.85697" lon="5.35417">
        <ele>1252.6</ele>
        <time>2021-10-08T10:33:19Z</time>
      </trkpt>
      <trkpt lat="44.85693" lon="5.35415">
        <ele>1252.6</ele>
        <time>2021-10-08T10:33:20Z</time>
      </trkpt>
      <trkpt lat="44.8569" lon="5.35414">
        <ele>1252.8</ele>
        <time>2021-10-08T10:33:21Z</time>
      </trkpt>
      <trkpt lat="44.85686" lon="5.35415">
        <ele>1252.8</ele>
        <time>2021-10-08T10:33:22Z</time>
      </trkpt>
      <trkpt lat="44.85682" lon="5.35415">
        <ele>1252.8</ele>
        <time>2021-10-08T10:33:23Z</time>
      </trkpt>
      <trkpt lat="44.85679" lon="5.35413">
        <ele>1252.8</ele>
        <time>2021-10-08T10:33:24Z</time>
      </trkpt>
      <trkpt lat="44.85675" lon="5.35412">
        <ele>1252.8</ele>
        <time>2021-10-08T10:33:25Z</time>
      </trkpt>
      <trkpt lat="44.85671" lon="5.3541">
        <ele>1253.2</ele>
        <time>2021-10-08T10:33:26Z</time>
      </trkpt>
      <trkpt lat="44.85667" lon="5.35411">
        <ele>1253.2</ele>
        <time>2021-10-08T10:33:27Z</time>
      </trkpt>
      <trkpt lat="44.85663" lon="5.35411">
        <ele>1253.2</ele>
        <time>2021-10-08T10:33:28Z</time>
      </trkpt>
      <trkpt lat="44.85659" lon="5.35411">
        <ele>1253.4</ele>
        <time>2021-10-08T10:33:29Z</time>
      </trkpt>
      <trkpt lat="44.85656" lon="5.35412">
        <ele>1253.8</ele>
        <time>2021-10-08T10:33:30Z</time>
      </trkpt>
      <trkpt lat="44.85652" lon="5.35413">
        <ele>1253.8</ele>
        <time>2021-10-08T10:33:31Z</time>
      </trkpt>
      <trkpt lat="44.85649" lon="5.35414">
        <ele>1253.8</ele>
        <time>2021-10-08T10:33:32Z</time>
      </trkpt>
      <trkpt lat="44.85646" lon="5.35415">
        <ele>1253.8</ele>
        <time>2021-10-08T10:33:33Z</time>
      </trkpt>
      <trkpt lat="44.85643" lon="5.35416">
        <ele>1253.6</ele>
        <time>2021-10-08T10:33:34Z</time>
      </trkpt>
      <trkpt lat="44.85639" lon="5.35418">
        <ele>1253.6</ele>
        <time>2021-10-08T10:33:35Z</time>
      </trkpt>
      <trkpt lat="44.85635" lon="5.3542">
        <ele>1253.6</ele>
        <time>2021-10-08T10:33:36Z</time>
      </trkpt>
      <trkpt lat="44.85631" lon="5.35422">
        <ele>1253.6</ele>
        <time>2021-10-08T10:33:37Z</time>
      </trkpt>
      <trkpt lat="44.85628" lon="5.35425">
        <ele>1253.6</ele>
        <time>2021-10-08T10:33:38Z</time>
      </trkpt>
      <trkpt lat="44.85624" lon="5.35427">
        <ele>1253.6</ele>
        <time>2021-10-08T10:33:39Z</time>
      </trkpt>
      <trkpt lat="44.8562" lon="5.3543">
        <ele>1253.6</ele>
        <time>2021-10-08T10:33:40Z</time>
      </trkpt>
      <trkpt lat="44.85615" lon="5.35433">
        <ele>1253.4</ele>
        <time>2021-10-08T10:33:41Z</time>
      </trkpt>
      <trkpt lat="44.85612" lon="5.35436">
        <ele>1253</ele>
        <time>2021-10-08T10:33:42Z</time>
      </trkpt>
      <trkpt lat="44.85609" lon="5.35439">
        <ele>1253</ele>
        <time>2021-10-08T10:33:43Z</time>
      </trkpt>
      <trkpt lat="44.85605" lon="5.35442">
        <ele>1253</ele>
        <time>2021-10-08T10:33:44Z</time>
      </trkpt>
      <trkpt lat="44.85602" lon="5.35446">
        <ele>1252.4</ele>
        <time>2021-10-08T10:33:45Z</time>
      </trkpt>
      <trkpt lat="44.85599" lon="5.35449">
        <ele>1252</ele>
        <time>2021-10-08T10:33:46Z</time>
      </trkpt>
      <trkpt lat="44.85595" lon="5.35452">
        <ele>1252</ele>
        <time>2021-10-08T10:33:47Z</time>
      </trkpt>
      <trkpt lat="44.85592" lon="5.35455">
        <ele>1252</ele>
        <time>2021-10-08T10:33:48Z</time>
      </trkpt>
      <trkpt lat="44.85588" lon="5.3546">
        <ele>1252</ele>
        <time>2021-10-08T10:33:49Z</time>
      </trkpt>
      <trkpt lat="44.85585" lon="5.35465">
        <ele>1251.4</ele>
        <time>2021-10-08T10:33:50Z</time>
      </trkpt>
      <trkpt lat="44.85581" lon="5.35468">
        <ele>1251.4</ele>
        <time>2021-10-08T10:33:51Z</time>
      </trkpt>
      <trkpt lat="44.85576" lon="5.35471">
        <ele>1251.4</ele>
        <time>2021-10-08T10:33:52Z</time>
      </trkpt>
      <trkpt lat="44.85571" lon="5.35474">
        <ele>1250.4</ele>
        <time>2021-10-08T10:33:53Z</time>
      </trkpt>
      <trkpt lat="44.85566" lon="5.35476">
        <ele>1249.8</ele>
        <time>2021-10-08T10:33:54Z</time>
      </trkpt>
      <trkpt lat="44.85561" lon="5.35478">
        <ele>1249.8</ele>
        <time>2021-10-08T10:33:55Z</time>
      </trkpt>
      <trkpt lat="44.85556" lon="5.35478">
        <ele>1249.8</ele>
        <time>2021-10-08T10:33:56Z</time>
      </trkpt>
      <trkpt lat="44.85551" lon="5.3548">
        <ele>1249.8</ele>
        <time>2021-10-08T10:33:57Z</time>
      </trkpt>
      <trkpt lat="44.85547" lon="5.3548">
        <ele>1249.2</ele>
        <time>2021-10-08T10:33:58Z</time>
      </trkpt>
      <trkpt lat="44.85542" lon="5.3548">
        <ele>1249.2</ele>
        <time>2021-10-08T10:33:59Z</time>
      </trkpt>
      <trkpt lat="44.85536" lon="5.3548">
        <ele>1249.2</ele>
        <time>2021-10-08T10:34:00Z</time>
      </trkpt>
      <trkpt lat="44.85531" lon="5.35481">
        <ele>1248.6</ele>
        <time>2021-10-08T10:34:01Z</time>
      </trkpt>
      <trkpt lat="44.85526" lon="5.35482">
        <ele>1248.4</ele>
        <time>2021-10-08T10:34:02Z</time>
      </trkpt>
      <trkpt lat="44.85519" lon="5.35481">
        <ele>1248.4</ele>
        <time>2021-10-08T10:34:03Z</time>
      </trkpt>
      <trkpt lat="44.85514" lon="5.3548">
        <ele>1248.4</ele>
        <time>2021-10-08T10:34:04Z</time>
      </trkpt>
      <trkpt lat="44.85508" lon="5.35477">
        <ele>1247.4</ele>
        <time>2021-10-08T10:34:05Z</time>
      </trkpt>
      <trkpt lat="44.85502" lon="5.35475">
        <ele>1246.2</ele>
        <time>2021-10-08T10:34:06Z</time>
      </trkpt>
      <trkpt lat="44.85496" lon="5.35472">
        <ele>1246.2</ele>
        <time>2021-10-08T10:34:07Z</time>
      </trkpt>
      <trkpt lat="44.85491" lon="5.35467">
        <ele>1246.2</ele>
        <time>2021-10-08T10:34:08Z</time>
      </trkpt>
      <trkpt lat="44.85485" lon="5.35461">
        <ele>1246.2</ele>
        <time>2021-10-08T10:34:09Z</time>
      </trkpt>
      <trkpt lat="44.85479" lon="5.35455">
        <ele>1245.8</ele>
        <time>2021-10-08T10:34:10Z</time>
      </trkpt>
      <trkpt lat="44.85476" lon="5.35448">
        <ele>1245.8</ele>
        <time>2021-10-08T10:34:11Z</time>
      </trkpt>
      <trkpt lat="44.85473" lon="5.35439">
        <ele>1245.8</ele>
        <time>2021-10-08T10:34:12Z</time>
      </trkpt>
      <trkpt lat="44.85471" lon="5.35431">
        <ele>1244.8</ele>
        <time>2021-10-08T10:34:13Z</time>
      </trkpt>
      <trkpt lat="44.85469" lon="5.35422">
        <ele>1244</ele>
        <time>2021-10-08T10:34:14Z</time>
      </trkpt>
      <trkpt lat="44.85468" lon="5.35413">
        <ele>1244</ele>
        <time>2021-10-08T10:34:15Z</time>
      </trkpt>
      <trkpt lat="44.85466" lon="5.35404">
        <ele>1244</ele>
        <time>2021-10-08T10:34:16Z</time>
      </trkpt>
      <trkpt lat="44.85463" lon="5.35396">
        <ele>1244.2</ele>
        <time>2021-10-08T10:34:17Z</time>
      </trkpt>
      <trkpt lat="44.85459" lon="5.35388">
        <ele>1243.8</ele>
        <time>2021-10-08T10:34:18Z</time>
      </trkpt>
      <trkpt lat="44.85455" lon="5.35382">
        <ele>1243.8</ele>
        <time>2021-10-08T10:34:19Z</time>
      </trkpt>
      <trkpt lat="44.85448" lon="5.35376">
        <ele>1243.8</ele>
        <time>2021-10-08T10:34:20Z</time>
      </trkpt>
      <trkpt lat="44.8544" lon="5.35373">
        <ele>1242.8</ele>
        <time>2021-10-08T10:34:21Z</time>
      </trkpt>
      <trkpt lat="44.85431" lon="5.35369">
        <ele>1242.6</ele>
        <time>2021-10-08T10:34:22Z</time>
      </trkpt>
      <trkpt lat="44.85423" lon="5.35367">
        <ele>1242.6</ele>
        <time>2021-10-08T10:34:23Z</time>
      </trkpt>
      <trkpt lat="44.85416" lon="5.35365">
        <ele>1242.6</ele>
        <time>2021-10-08T10:34:24Z</time>
      </trkpt>
      <trkpt lat="44.85408" lon="5.35363">
        <ele>1242.6</ele>
        <time>2021-10-08T10:34:25Z</time>
      </trkpt>
      <trkpt lat="44.85402" lon="5.35361">
        <ele>1242.8</ele>
        <time>2021-10-08T10:34:26Z</time>
      </trkpt>
      <trkpt lat="44.85396" lon="5.35359">
        <ele>1242.8</ele>
        <time>2021-10-08T10:34:27Z</time>
      </trkpt>
      <trkpt lat="44.8539" lon="5.35357">
        <ele>1242.8</ele>
        <time>2021-10-08T10:34:28Z</time>
      </trkpt>
      <trkpt lat="44.85385" lon="5.35355">
        <ele>1242.8</ele>
        <time>2021-10-08T10:34:29Z</time>
      </trkpt>
      <trkpt lat="44.8538" lon="5.35353">
        <ele>1243.6</ele>
        <time>2021-10-08T10:34:30Z</time>
      </trkpt>
      <trkpt lat="44.85374" lon="5.35352">
        <ele>1243.6</ele>
        <time>2021-10-08T10:34:31Z</time>
      </trkpt>
      <trkpt lat="44.8537" lon="5.3535">
        <ele>1243.6</ele>
        <time>2021-10-08T10:34:32Z</time>
      </trkpt>
      <trkpt lat="44.85366" lon="5.35348">
        <ele>1243.6</ele>
        <time>2021-10-08T10:34:33Z</time>
      </trkpt>
      <trkpt lat="44.85362" lon="5.35348">
        <ele>1243.8</ele>
        <time>2021-10-08T10:34:34Z</time>
      </trkpt>
      <trkpt lat="44.85359" lon="5.35347">
        <ele>1243.8</ele>
        <time>2021-10-08T10:34:35Z</time>
      </trkpt>
      <trkpt lat="44.85354" lon="5.35346">
        <ele>1243.8</ele>
        <time>2021-10-08T10:34:36Z</time>
      </trkpt>
      <trkpt lat="44.8535" lon="5.35345">
        <ele>1243.8</ele>
        <time>2021-10-08T10:34:37Z</time>
      </trkpt>
      <trkpt lat="44.85346" lon="5.35344">
        <ele>1244</ele>
        <time>2021-10-08T10:34:38Z</time>
      </trkpt>
      <trkpt lat="44.85342" lon="5.35343">
        <ele>1244</ele>
        <time>2021-10-08T10:34:39Z</time>
      </trkpt>
      <trkpt lat="44.85338" lon="5.35341">
        <ele>1244</ele>
        <time>2021-10-08T10:34:40Z</time>
      </trkpt>
      <trkpt lat="44.85335" lon="5.35339">
        <ele>1244.2</ele>
        <time>2021-10-08T10:34:41Z</time>
      </trkpt>
      <trkpt lat="44.85331" lon="5.35337">
        <ele>1244.4</ele>
        <time>2021-10-08T10:34:42Z</time>
      </trkpt>
      <trkpt lat="44.85328" lon="5.35335">
        <ele>1244.4</ele>
        <time>2021-10-08T10:34:43Z</time>
      </trkpt>
      <trkpt lat="44.85325" lon="5.35333">
        <ele>1244.4</ele>
        <time>2021-10-08T10:34:44Z</time>
      </trkpt>
      <trkpt lat="44.85322" lon="5.35331">
        <ele>1244.4</ele>
        <time>2021-10-08T10:34:45Z</time>
      </trkpt>
      <trkpt lat="44.85319" lon="5.3533">
        <ele>1244.6</ele>
        <time>2021-10-08T10:34:46Z</time>
      </trkpt>
      <trkpt lat="44.85316" lon="5.35329">
        <ele>1244.6</ele>
        <time>2021-10-08T10:34:47Z</time>
      </trkpt>
      <trkpt lat="44.85313" lon="5.35327">
        <ele>1244.6</ele>
        <time>2021-10-08T10:34:48Z</time>
      </trkpt>
      <trkpt lat="44.85311" lon="5.35326">
        <ele>1245</ele>
        <time>2021-10-08T10:34:49Z</time>
      </trkpt>
      <trkpt lat="44.85308" lon="5.35324">
        <ele>1245</ele>
        <time>2021-10-08T10:34:50Z</time>
      </trkpt>
      <trkpt lat="44.85306" lon="5.35323">
        <ele>1245</ele>
        <time>2021-10-08T10:34:51Z</time>
      </trkpt>
      <trkpt lat="44.85304" lon="5.35322">
        <ele>1245</ele>
        <time>2021-10-08T10:34:52Z</time>
      </trkpt>
      <trkpt lat="44.85302" lon="5.35321">
        <ele>1245</ele>
        <time>2021-10-08T10:34:53Z</time>
      </trkpt>
      <trkpt lat="44.853" lon="5.3532">
        <ele>1245.4</ele>
        <time>2021-10-08T10:34:54Z</time>
      </trkpt>
      <trkpt lat="44.85298" lon="5.35319">
        <ele>1245.4</ele>
        <time>2021-10-08T10:34:55Z</time>
      </trkpt>
      <trkpt lat="44.85296" lon="5.35317">
        <ele>1245.4</ele>
        <time>2021-10-08T10:34:56Z</time>
      </trkpt>
      <trkpt lat="44.85295" lon="5.35316">
        <ele>1245.4</ele>
        <time>2021-10-08T10:34:57Z</time>
      </trkpt>
      <trkpt lat="44.85294" lon="5.35315">
        <ele>1245.6</ele>
        <time>2021-10-08T10:34:58Z</time>
      </trkpt>
      <trkpt lat="44.85292" lon="5.35314">
        <ele>1245.6</ele>
        <time>2021-10-08T10:34:59Z</time>
      </trkpt>
      <trkpt lat="44.85291" lon="5.35313">
        <ele>1245.6</ele>
        <time>2021-10-08T10:35:00Z</time>
      </trkpt>
      <trkpt lat="44.8529" lon="5.35312">
        <ele>1245.8</ele>
        <time>2021-10-08T10:35:01Z</time>
      </trkpt>
      <trkpt lat="44.85288" lon="5.3531">
        <ele>1245.8</ele>
        <time>2021-10-08T10:35:02Z</time>
      </trkpt>
      <trkpt lat="44.85287" lon="5.35309">
        <ele>1245.8</ele>
        <time>2021-10-08T10:35:03Z</time>
      </trkpt>
      <trkpt lat="44.85286" lon="5.35308">
        <ele>1245.8</ele>
        <time>2021-10-08T10:35:04Z</time>
      </trkpt>
      <trkpt lat="44.85285" lon="5.35307">
        <ele>1245.8</ele>
        <time>2021-10-08T10:35:05Z</time>
      </trkpt>
      <trkpt lat="44.85283" lon="5.35306">
        <ele>1246.4</ele>
        <time>2021-10-08T10:35:06Z</time>
      </trkpt>
      <trkpt lat="44.85282" lon="5.35304">
        <ele>1246.4</ele>
        <time>2021-10-08T10:35:07Z</time>
      </trkpt>
      <trkpt lat="44.85281" lon="5.35302">
        <ele>1246.4</ele>
        <time>2021-10-08T10:35:08Z</time>
      </trkpt>
      <trkpt lat="44.85279" lon="5.35301">
        <ele>1246.4</ele>
        <time>2021-10-08T10:35:09Z</time>
      </trkpt>
      <trkpt lat="44.85277" lon="5.353">
        <ele>1246.4</ele>
        <time>2021-10-08T10:35:10Z</time>
      </trkpt>
      <trkpt lat="44.85276" lon="5.35298">
        <ele>1246.4</ele>
        <time>2021-10-08T10:35:11Z</time>
      </trkpt>
      <trkpt lat="44.85274" lon="5.35296">
        <ele>1246.4</ele>
        <time>2021-10-08T10:35:12Z</time>
      </trkpt>
      <trkpt lat="44.85273" lon="5.35295">
        <ele>1246.6</ele>
        <time>2021-10-08T10:35:13Z</time>
      </trkpt>
      <trkpt lat="44.85271" lon="5.35293">
        <ele>1246.6</ele>
        <time>2021-10-08T10:35:14Z</time>
      </trkpt>
      <trkpt lat="44.85269" lon="5.35292">
        <ele>1246.6</ele>
        <time>2021-10-08T10:35:15Z</time>
      </trkpt>
      <trkpt lat="44.85267" lon="5.3529">
        <ele>1246.6</ele>
        <time>2021-10-08T10:35:16Z</time>
      </trkpt>
      <trkpt lat="44.85266" lon="5.35287">
        <ele>1246.6</ele>
        <time>2021-10-08T10:35:17Z</time>
      </trkpt>
      <trkpt lat="44.85264" lon="5.35285">
        <ele>1247</ele>
        <time>2021-10-08T10:35:18Z</time>
      </trkpt>
      <trkpt lat="44.85262" lon="5.35283">
        <ele>1247</ele>
        <time>2021-10-08T10:35:19Z</time>
      </trkpt>
      <trkpt lat="44.8526" lon="5.35281">
        <ele>1247</ele>
        <time>2021-10-08T10:35:20Z</time>
      </trkpt>
      <trkpt lat="44.85258" lon="5.35279">
        <ele>1247.6</ele>
        <time>2021-10-08T10:35:21Z</time>
      </trkpt>
      <trkpt lat="44.85256" lon="5.35278">
        <ele>1247.6</ele>
        <time>2021-10-08T10:35:22Z</time>
      </trkpt>
      <trkpt lat="44.85254" lon="5.35276">
        <ele>1247.6</ele>
        <time>2021-10-08T10:35:23Z</time>
      </trkpt>
      <trkpt lat="44.85251" lon="5.35273">
        <ele>1247.6</ele>
        <time>2021-10-08T10:35:24Z</time>
      </trkpt>
      <trkpt lat="44.85249" lon="5.35271">
        <ele>1248.2</ele>
        <time>2021-10-08T10:35:25Z</time>
      </trkpt>
      <trkpt lat="44.85247" lon="5.35269">
        <ele>1248.2</ele>
        <time>2021-10-08T10:35:26Z</time>
      </trkpt>
      <trkpt lat="44.85245" lon="5.35267">
        <ele>1248.2</ele>
        <time>2021-10-08T10:35:27Z</time>
      </trkpt>
      <trkpt lat="44.85244" lon="5.35263">
        <ele>1248.2</ele>
        <time>2021-10-08T10:35:28Z</time>
      </trkpt>
      <trkpt lat="44.85242" lon="5.35261">
        <ele>1248.8</ele>
        <time>2021-10-08T10:35:29Z</time>
      </trkpt>
      <trkpt lat="44.8524" lon="5.35259">
        <ele>1249.4</ele>
        <time>2021-10-08T10:35:30Z</time>
      </trkpt>
      <trkpt lat="44.85239" lon="5.35257">
        <ele>1249.4</ele>
        <time>2021-10-08T10:35:31Z</time>
      </trkpt>
      <trkpt lat="44.85238" lon="5.35255">
        <ele>1249.4</ele>
        <time>2021-10-08T10:35:32Z</time>
      </trkpt>
      <trkpt lat="44.85236" lon="5.35253">
        <ele>1249.4</ele>
        <time>2021-10-08T10:35:33Z</time>
      </trkpt>
      <trkpt lat="44.85235" lon="5.35251">
        <ele>1249.6</ele>
        <time>2021-10-08T10:35:34Z</time>
      </trkpt>
      <trkpt lat="44.85233" lon="5.35249">
        <ele>1249.6</ele>
        <time>2021-10-08T10:35:35Z</time>
      </trkpt>
      <trkpt lat="44.85231" lon="5.35247">
        <ele>1249.6</ele>
        <time>2021-10-08T10:35:36Z</time>
      </trkpt>
      <trkpt lat="44.8523" lon="5.35244">
        <ele>1249.8</ele>
        <time>2021-10-08T10:35:37Z</time>
      </trkpt>
      <trkpt lat="44.85228" lon="5.35242">
        <ele>1250.4</ele>
        <time>2021-10-08T10:35:38Z</time>
      </trkpt>
      <trkpt lat="44.85226" lon="5.3524">
        <ele>1250.4</ele>
        <time>2021-10-08T10:35:39Z</time>
      </trkpt>
      <trkpt lat="44.85225" lon="5.35238">
        <ele>1250.4</ele>
        <time>2021-10-08T10:35:40Z</time>
      </trkpt>
      <trkpt lat="44.85224" lon="5.35235">
        <ele>1251</ele>
        <time>2021-10-08T10:35:41Z</time>
      </trkpt>
      <trkpt lat="44.85223" lon="5.35233">
        <ele>1251.4</ele>
        <time>2021-10-08T10:35:42Z</time>
      </trkpt>
      <trkpt lat="44.85222" lon="5.35231">
        <ele>1251.4</ele>
        <time>2021-10-08T10:35:43Z</time>
      </trkpt>
      <trkpt lat="44.85221" lon="5.35228">
        <ele>1251.4</ele>
        <time>2021-10-08T10:35:44Z</time>
      </trkpt>
      <trkpt lat="44.8522" lon="5.35224">
        <ele>1251.4</ele>
        <time>2021-10-08T10:35:45Z</time>
      </trkpt>
      <trkpt lat="44.85219" lon="5.35221">
        <ele>1252</ele>
        <time>2021-10-08T10:35:46Z</time>
      </trkpt>
      <trkpt lat="44.85218" lon="5.35219">
        <ele>1252</ele>
        <time>2021-10-08T10:35:47Z</time>
      </trkpt>
      <trkpt lat="44.85217" lon="5.35216">
        <ele>1252</ele>
        <time>2021-10-08T10:35:48Z</time>
      </trkpt>
      <trkpt lat="44.85215" lon="5.35215">
        <ele>1253</ele>
        <time>2021-10-08T10:35:49Z</time>
      </trkpt>
      <trkpt lat="44.85213" lon="5.35213">
        <ele>1253.2</ele>
        <time>2021-10-08T10:35:50Z</time>
      </trkpt>
      <trkpt lat="44.85211" lon="5.3521">
        <ele>1253.2</ele>
        <time>2021-10-08T10:35:51Z</time>
      </trkpt>
      <trkpt lat="44.8521" lon="5.35208">
        <ele>1253.2</ele>
        <time>2021-10-08T10:35:52Z</time>
      </trkpt>
      <trkpt lat="44.85209" lon="5.35205">
        <ele>1253.8</ele>
        <time>2021-10-08T10:35:53Z</time>
      </trkpt>
      <trkpt lat="44.85207" lon="5.35203">
        <ele>1254.2</ele>
        <time>2021-10-08T10:35:54Z</time>
      </trkpt>
      <trkpt lat="44.85205" lon="5.35201">
        <ele>1254.2</ele>
        <time>2021-10-08T10:35:55Z</time>
      </trkpt>
      <trkpt lat="44.85204" lon="5.35198">
        <ele>1254.2</ele>
        <time>2021-10-08T10:35:56Z</time>
      </trkpt>
      <trkpt lat="44.85203" lon="5.35195">
        <ele>1255</ele>
        <time>2021-10-08T10:35:57Z</time>
      </trkpt>
      <trkpt lat="44.85201" lon="5.35193">
        <ele>1254.8</ele>
        <time>2021-10-08T10:35:58Z</time>
      </trkpt>
      <trkpt lat="44.852" lon="5.35191">
        <ele>1254.8</ele>
        <time>2021-10-08T10:35:59Z</time>
      </trkpt>
      <trkpt lat="44.85198" lon="5.35189">
        <ele>1254.8</ele>
        <time>2021-10-08T10:36:00Z</time>
      </trkpt>
      <trkpt lat="44.85197" lon="5.35186">
        <ele>1255.4</ele>
        <time>2021-10-08T10:36:01Z</time>
      </trkpt>
      <trkpt lat="44.85196" lon="5.35184">
        <ele>1255.2</ele>
        <time>2021-10-08T10:36:02Z</time>
      </trkpt>
      <trkpt lat="44.85195" lon="5.35181">
        <ele>1255.2</ele>
        <time>2021-10-08T10:36:03Z</time>
      </trkpt>
      <trkpt lat="44.85194" lon="5.35179">
        <ele>1255.2</ele>
        <time>2021-10-08T10:36:04Z</time>
      </trkpt>
      <trkpt lat="44.85192" lon="5.35176">
        <ele>1255.8</ele>
        <time>2021-10-08T10:36:05Z</time>
      </trkpt>
      <trkpt lat="44.85191" lon="5.35173">
        <ele>1256.4</ele>
        <time>2021-10-08T10:36:06Z</time>
      </trkpt>
      <trkpt lat="44.85189" lon="5.35171">
        <ele>1256.4</ele>
        <time>2021-10-08T10:36:07Z</time>
      </trkpt>
      <trkpt lat="44.85187" lon="5.35168">
        <ele>1256.4</ele>
        <time>2021-10-08T10:36:08Z</time>
      </trkpt>
      <trkpt lat="44.85186" lon="5.35165">
        <ele>1256.4</ele>
        <time>2021-10-08T10:36:09Z</time>
      </trkpt>
      <trkpt lat="44.85184" lon="5.35161">
        <ele>1256.4</ele>
        <time>2021-10-08T10:36:10Z</time>
      </trkpt>
      <trkpt lat="44.85182" lon="5.35159">
        <ele>1256.4</ele>
        <time>2021-10-08T10:36:11Z</time>
      </trkpt>
      <trkpt lat="44.85181" lon="5.35156">
        <ele>1256.4</ele>
        <time>2021-10-08T10:36:12Z</time>
      </trkpt>
      <trkpt lat="44.8518" lon="5.35153">
        <ele>1257</ele>
        <time>2021-10-08T10:36:13Z</time>
      </trkpt>
      <trkpt lat="44.85178" lon="5.35151">
        <ele>1257.4</ele>
        <time>2021-10-08T10:36:14Z</time>
      </trkpt>
      <trkpt lat="44.85177" lon="5.35148">
        <ele>1257.4</ele>
        <time>2021-10-08T10:36:15Z</time>
      </trkpt>
      <trkpt lat="44.85175" lon="5.35145">
        <ele>1257.4</ele>
        <time>2021-10-08T10:36:16Z</time>
      </trkpt>
      <trkpt lat="44.85174" lon="5.35143">
        <ele>1257.4</ele>
        <time>2021-10-08T10:36:17Z</time>
      </trkpt>
      <trkpt lat="44.85172" lon="5.3514">
        <ele>1257.8</ele>
        <time>2021-10-08T10:36:18Z</time>
      </trkpt>
      <trkpt lat="44.8517" lon="5.35137">
        <ele>1257.8</ele>
        <time>2021-10-08T10:36:19Z</time>
      </trkpt>
      <trkpt lat="44.85168" lon="5.35135">
        <ele>1257.8</ele>
        <time>2021-10-08T10:36:20Z</time>
      </trkpt>
      <trkpt lat="44.85166" lon="5.35132">
        <ele>1257.8</ele>
        <time>2021-10-08T10:36:21Z</time>
      </trkpt>
      <trkpt lat="44.85164" lon="5.3513">
        <ele>1258</ele>
        <time>2021-10-08T10:36:22Z</time>
      </trkpt>
      <trkpt lat="44.85162" lon="5.35128">
        <ele>1258</ele>
        <time>2021-10-08T10:36:23Z</time>
      </trkpt>
      <trkpt lat="44.8516" lon="5.35126">
        <ele>1258</ele>
        <time>2021-10-08T10:36:24Z</time>
      </trkpt>
      <trkpt lat="44.85159" lon="5.35124">
        <ele>1258</ele>
        <time>2021-10-08T10:36:25Z</time>
      </trkpt>
      <trkpt lat="44.85157" lon="5.35122">
        <ele>1258.4</ele>
        <time>2021-10-08T10:36:26Z</time>
      </trkpt>
      <trkpt lat="44.85155" lon="5.3512">
        <ele>1258.4</ele>
        <time>2021-10-08T10:36:27Z</time>
      </trkpt>
      <trkpt lat="44.85153" lon="5.35118">
        <ele>1258.4</ele>
        <time>2021-10-08T10:36:28Z</time>
      </trkpt>
      <trkpt lat="44.8515" lon="5.35116">
        <ele>1258.8</ele>
        <time>2021-10-08T10:36:29Z</time>
      </trkpt>
      <trkpt lat="44.85148" lon="5.35115">
        <ele>1258.6</ele>
        <time>2021-10-08T10:36:30Z</time>
      </trkpt>
      <trkpt lat="44.85146" lon="5.35113">
        <ele>1258.6</ele>
        <time>2021-10-08T10:36:31Z</time>
      </trkpt>
      <trkpt lat="44.85144" lon="5.35112">
        <ele>1258.6</ele>
        <time>2021-10-08T10:36:32Z</time>
      </trkpt>
      <trkpt lat="44.85142" lon="5.3511">
        <ele>1259.2</ele>
        <time>2021-10-08T10:36:33Z</time>
      </trkpt>
      <trkpt lat="44.8514" lon="5.3511">
        <ele>1259.8</ele>
        <time>2021-10-08T10:36:34Z</time>
      </trkpt>
      <trkpt lat="44.85137" lon="5.35108">
        <ele>1259.8</ele>
        <time>2021-10-08T10:36:35Z</time>
      </trkpt>
      <trkpt lat="44.85135" lon="5.35106">
        <ele>1259.8</ele>
        <time>2021-10-08T10:36:36Z</time>
      </trkpt>
      <trkpt lat="44.85133" lon="5.35105">
        <ele>1259.8</ele>
        <time>2021-10-08T10:36:37Z</time>
      </trkpt>
      <trkpt lat="44.85131" lon="5.35104">
        <ele>1260</ele>
        <time>2021-10-08T10:36:38Z</time>
      </trkpt>
      <trkpt lat="44.85129" lon="5.35102">
        <ele>1260</ele>
        <time>2021-10-08T10:36:39Z</time>
      </trkpt>
      <trkpt lat="44.85127" lon="5.35101">
        <ele>1260</ele>
        <time>2021-10-08T10:36:40Z</time>
      </trkpt>
      <trkpt lat="44.85125" lon="5.351">
        <ele>1260.8</ele>
        <time>2021-10-08T10:36:41Z</time>
      </trkpt>
      <trkpt lat="44.85122" lon="5.35099">
        <ele>1260.8</ele>
        <time>2021-10-08T10:36:42Z</time>
      </trkpt>
      <trkpt lat="44.8512" lon="5.35097">
        <ele>1260.8</ele>
        <time>2021-10-08T10:36:43Z</time>
      </trkpt>
      <trkpt lat="44.85118" lon="5.35096">
        <ele>1260.8</ele>
        <time>2021-10-08T10:36:44Z</time>
      </trkpt>
      <trkpt lat="44.85115" lon="5.35095">
        <ele>1261.6</ele>
        <time>2021-10-08T10:36:45Z</time>
      </trkpt>
      <trkpt lat="44.85113" lon="5.35094">
        <ele>1262</ele>
        <time>2021-10-08T10:36:46Z</time>
      </trkpt>
      <trkpt lat="44.85111" lon="5.35092">
        <ele>1262</ele>
        <time>2021-10-08T10:36:47Z</time>
      </trkpt>
      <trkpt lat="44.85108" lon="5.35091">
        <ele>1262</ele>
        <time>2021-10-08T10:36:48Z</time>
      </trkpt>
      <trkpt lat="44.85106" lon="5.35089">
        <ele>1262</ele>
        <time>2021-10-08T10:36:49Z</time>
      </trkpt>
      <trkpt lat="44.85104" lon="5.35088">
        <ele>1262.2</ele>
        <time>2021-10-08T10:36:50Z</time>
      </trkpt>
      <trkpt lat="44.85102" lon="5.35087">
        <ele>1262.2</ele>
        <time>2021-10-08T10:36:51Z</time>
      </trkpt>
      <trkpt lat="44.851" lon="5.35085">
        <ele>1262.2</ele>
        <time>2021-10-08T10:36:52Z</time>
      </trkpt>
      <trkpt lat="44.85099" lon="5.35084">
        <ele>1262.8</ele>
        <time>2021-10-08T10:36:53Z</time>
      </trkpt>
      <trkpt lat="44.85098" lon="5.35083">
        <ele>1262.8</ele>
        <time>2021-10-08T10:36:54Z</time>
      </trkpt>
      <trkpt lat="44.85097" lon="5.35082">
        <ele>1262.8</ele>
        <time>2021-10-08T10:36:55Z</time>
      </trkpt>
      <trkpt lat="44.85096" lon="5.35081">
        <ele>1262.8</ele>
        <time>2021-10-08T10:36:56Z</time>
      </trkpt>
      <trkpt lat="44.85096" lon="5.3508">
        <ele>1263.4</ele>
        <time>2021-10-08T10:36:57Z</time>
      </trkpt>
      <trkpt lat="44.85095" lon="5.35079">
        <ele>1262.8</ele>
        <time>2021-10-08T10:36:58Z</time>
      </trkpt>
      <trkpt lat="44.85094" lon="5.35078">
        <ele>1262.8</ele>
        <time>2021-10-08T10:36:59Z</time>
      </trkpt>
      <trkpt lat="44.85093" lon="5.35078">
        <ele>1262.8</ele>
        <time>2021-10-08T10:37:00Z</time>
      </trkpt>
      <trkpt lat="44.85093" lon="5.35078">
        <ele>1263.2</ele>
        <time>2021-10-08T10:37:01Z</time>
      </trkpt>
      <trkpt lat="44.85095" lon="5.3508">
        <ele>1262.2</ele>
        <time>2021-10-08T10:37:14Z</time>
      </trkpt>
      <trkpt lat="44.85097" lon="5.35081">
        <ele>1262.2</ele>
        <time>2021-10-08T10:37:15Z</time>
      </trkpt>
      <trkpt lat="44.85099" lon="5.35081">
        <ele>1262.2</ele>
        <time>2021-10-08T10:37:16Z</time>
      </trkpt>
      <trkpt lat="44.851" lon="5.35082">
        <ele>1262.2</ele>
        <time>2021-10-08T10:37:17Z</time>
      </trkpt>
      <trkpt lat="44.85103" lon="5.35083">
        <ele>1261.6</ele>
        <time>2021-10-08T10:37:18Z</time>
      </trkpt>
      <trkpt lat="44.85105" lon="5.35084">
        <ele>1261.6</ele>
        <time>2021-10-08T10:37:19Z</time>
      </trkpt>
      <trkpt lat="44.85107" lon="5.35086">
        <ele>1261.6</ele>
        <time>2021-10-08T10:37:20Z</time>
      </trkpt>
      <trkpt lat="44.85109" lon="5.35088">
        <ele>1261.2</ele>
        <time>2021-10-08T10:37:21Z</time>
      </trkpt>
      <trkpt lat="44.85109" lon="5.3509">
        <ele>1261.4</ele>
        <time>2021-10-08T10:37:22Z</time>
      </trkpt>
      <trkpt lat="44.8511" lon="5.35092">
        <ele>1261.4</ele>
        <time>2021-10-08T10:37:23Z</time>
      </trkpt>
      <trkpt lat="44.85109" lon="5.35093">
        <ele>1261.4</ele>
        <time>2021-10-08T10:37:24Z</time>
      </trkpt>
      <trkpt lat="44.85108" lon="5.35095">
        <ele>1261.4</ele>
        <time>2021-10-08T10:37:25Z</time>
      </trkpt>
      <trkpt lat="44.85106" lon="5.35096">
        <ele>1260.4</ele>
        <time>2021-10-08T10:37:26Z</time>
      </trkpt>
      <trkpt lat="44.85104" lon="5.35098">
        <ele>1260.4</ele>
        <time>2021-10-08T10:37:27Z</time>
      </trkpt>
      <trkpt lat="44.85102" lon="5.351">
        <ele>1260.4</ele>
        <time>2021-10-08T10:37:28Z</time>
      </trkpt>
      <trkpt lat="44.85101" lon="5.35101">
        <ele>1260.4</ele>
        <time>2021-10-08T10:37:29Z</time>
      </trkpt>
      <trkpt lat="44.85099" lon="5.35102">
        <ele>1261.2</ele>
        <time>2021-10-08T10:37:30Z</time>
      </trkpt>
      <trkpt lat="44.85098" lon="5.35103">
        <ele>1261.2</ele>
        <time>2021-10-08T10:37:31Z</time>
      </trkpt>
      <trkpt lat="44.85096" lon="5.35103">
        <ele>1261.2</ele>
        <time>2021-10-08T10:37:32Z</time>
      </trkpt>
      <trkpt lat="44.85095" lon="5.35103">
        <ele>1261.2</ele>
        <time>2021-10-08T10:37:33Z</time>
      </trkpt>
      <trkpt lat="44.85093" lon="5.35103">
        <ele>1262.2</ele>
        <time>2021-10-08T10:37:34Z</time>
      </trkpt>
      <trkpt lat="44.85092" lon="5.35104">
        <ele>1262.2</ele>
        <time>2021-10-08T10:37:35Z</time>
      </trkpt>
      <trkpt lat="44.8509" lon="5.35106">
        <ele>1262.2</ele>
        <time>2021-10-08T10:37:36Z</time>
      </trkpt>
      <trkpt lat="44.85089" lon="5.35107">
        <ele>1262</ele>
        <time>2021-10-08T10:37:37Z</time>
      </trkpt>
      <trkpt lat="44.85087" lon="5.35108">
        <ele>1262.6</ele>
        <time>2021-10-08T10:37:38Z</time>
      </trkpt>
      <trkpt lat="44.85085" lon="5.3511">
        <ele>1262.6</ele>
        <time>2021-10-08T10:37:39Z</time>
      </trkpt>
      <trkpt lat="44.85084" lon="5.35112">
        <ele>1262.6</ele>
        <time>2021-10-08T10:37:40Z</time>
      </trkpt>
      <trkpt lat="44.85083" lon="5.35113">
        <ele>1262.6</ele>
        <time>2021-10-08T10:37:41Z</time>
      </trkpt>
      <trkpt lat="44.85081" lon="5.35114">
        <ele>1263</ele>
        <time>2021-10-08T10:37:42Z</time>
      </trkpt>
      <trkpt lat="44.8508" lon="5.35115">
        <ele>1263</ele>
        <time>2021-10-08T10:37:43Z</time>
      </trkpt>
      <trkpt lat="44.85079" lon="5.35116">
        <ele>1263</ele>
        <time>2021-10-08T10:37:44Z</time>
      </trkpt>
      <trkpt lat="44.85078" lon="5.35117">
        <ele>1263</ele>
        <time>2021-10-08T10:37:45Z</time>
      </trkpt>
      <trkpt lat="44.85077" lon="5.35118">
        <ele>1263.4</ele>
        <time>2021-10-08T10:37:46Z</time>
      </trkpt>
      <trkpt lat="44.85075" lon="5.3512">
        <ele>1263.4</ele>
        <time>2021-10-08T10:37:47Z</time>
      </trkpt>
      <trkpt lat="44.85073" lon="5.35122">
        <ele>1263.4</ele>
        <time>2021-10-08T10:37:48Z</time>
      </trkpt>
      <trkpt lat="44.85072" lon="5.35123">
        <ele>1264.4</ele>
        <time>2021-10-08T10:37:49Z</time>
      </trkpt>
      <trkpt lat="44.85071" lon="5.35125">
        <ele>1264.4</ele>
        <time>2021-10-08T10:37:50Z</time>
      </trkpt>
      <trkpt lat="44.8507" lon="5.35127">
        <ele>1264.4</ele>
        <time>2021-10-08T10:37:51Z</time>
      </trkpt>
      <trkpt lat="44.85069" lon="5.35128">
        <ele>1264.4</ele>
        <time>2021-10-08T10:37:52Z</time>
      </trkpt>
      <trkpt lat="44.85067" lon="5.35129">
        <ele>1265.4</ele>
        <time>2021-10-08T10:37:53Z</time>
      </trkpt>
      <trkpt lat="44.85066" lon="5.3513">
        <ele>1265.4</ele>
        <time>2021-10-08T10:37:54Z</time>
      </trkpt>
      <trkpt lat="44.85064" lon="5.35132">
        <ele>1265.4</ele>
        <time>2021-10-08T10:37:55Z</time>
      </trkpt>
      <trkpt lat="44.85063" lon="5.35133">
        <ele>1265.4</ele>
        <time>2021-10-08T10:37:56Z</time>
      </trkpt>
      <trkpt lat="44.85062" lon="5.35134">
        <ele>1265.4</ele>
        <time>2021-10-08T10:37:57Z</time>
      </trkpt>
      <trkpt lat="44.8506" lon="5.35135">
        <ele>1265.8</ele>
        <time>2021-10-08T10:37:58Z</time>
      </trkpt>
      <trkpt lat="44.85059" lon="5.35136">
        <ele>1265.8</ele>
        <time>2021-10-08T10:37:59Z</time>
      </trkpt>
      <trkpt lat="44.85057" lon="5.35138">
        <ele>1265.8</ele>
        <time>2021-10-08T10:38:00Z</time>
      </trkpt>
      <trkpt lat="44.85056" lon="5.35139">
        <ele>1265.8</ele>
        <time>2021-10-08T10:38:01Z</time>
      </trkpt>
      <trkpt lat="44.85055" lon="5.35139">
        <ele>1266</ele>
        <time>2021-10-08T10:38:02Z</time>
      </trkpt>
      <trkpt lat="44.85054" lon="5.35139">
        <ele>1266</ele>
        <time>2021-10-08T10:38:03Z</time>
      </trkpt>
      <trkpt lat="44.85052" lon="5.35139">
        <ele>1266</ele>
        <time>2021-10-08T10:38:04Z</time>
      </trkpt>
      <trkpt lat="44.85051" lon="5.35139">
        <ele>1266</ele>
        <time>2021-10-08T10:38:05Z</time>
      </trkpt>
      <trkpt lat="44.85049" lon="5.35139">
        <ele>1266.6</ele>
        <time>2021-10-08T10:38:06Z</time>
      </trkpt>
      <trkpt lat="44.85048" lon="5.35139">
        <ele>1266.6</ele>
        <time>2021-10-08T10:38:07Z</time>
      </trkpt>
      <trkpt lat="44.85046" lon="5.3514">
        <ele>1266.6</ele>
        <time>2021-10-08T10:38:08Z</time>
      </trkpt>
      <trkpt lat="44.85045" lon="5.3514">
        <ele>1267.2</ele>
        <time>2021-10-08T10:38:09Z</time>
      </trkpt>
      <trkpt lat="44.85043" lon="5.3514">
        <ele>1267.4</ele>
        <time>2021-10-08T10:38:10Z</time>
      </trkpt>
      <trkpt lat="44.85041" lon="5.3514">
        <ele>1267.4</ele>
        <time>2021-10-08T10:38:11Z</time>
      </trkpt>
      <trkpt lat="44.85039" lon="5.35141">
        <ele>1267.4</ele>
        <time>2021-10-08T10:38:12Z</time>
      </trkpt>
      <trkpt lat="44.85038" lon="5.35141">
        <ele>1268</ele>
        <time>2021-10-08T10:38:13Z</time>
      </trkpt>
      <trkpt lat="44.85036" lon="5.35141">
        <ele>1268.4</ele>
        <time>2021-10-08T10:38:14Z</time>
      </trkpt>
      <trkpt lat="44.85035" lon="5.35141">
        <ele>1268.4</ele>
        <time>2021-10-08T10:38:15Z</time>
      </trkpt>
      <trkpt lat="44.85033" lon="5.35141">
        <ele>1268.4</ele>
        <time>2021-10-08T10:38:16Z</time>
      </trkpt>
      <trkpt lat="44.85032" lon="5.35141">
        <ele>1268.4</ele>
        <time>2021-10-08T10:38:17Z</time>
      </trkpt>
      <trkpt lat="44.8503" lon="5.35141">
        <ele>1268.4</ele>
        <time>2021-10-08T10:38:18Z</time>
      </trkpt>
      <trkpt lat="44.85029" lon="5.35141">
        <ele>1268.4</ele>
        <time>2021-10-08T10:38:19Z</time>
      </trkpt>
      <trkpt lat="44.85027" lon="5.35141">
        <ele>1268.4</ele>
        <time>2021-10-08T10:38:20Z</time>
      </trkpt>
      <trkpt lat="44.85026" lon="5.3514">
        <ele>1269.4</ele>
        <time>2021-10-08T10:38:21Z</time>
      </trkpt>
      <trkpt lat="44.85025" lon="5.3514">
        <ele>1269.2</ele>
        <time>2021-10-08T10:38:22Z</time>
      </trkpt>
      <trkpt lat="44.85023" lon="5.35139">
        <ele>1269.2</ele>
        <time>2021-10-08T10:38:23Z</time>
      </trkpt>
      <trkpt lat="44.85022" lon="5.35139">
        <ele>1269.2</ele>
        <time>2021-10-08T10:38:24Z</time>
      </trkpt>
      <trkpt lat="44.85021" lon="5.35139">
        <ele>1269.6</ele>
        <time>2021-10-08T10:38:25Z</time>
      </trkpt>
      <trkpt lat="44.8502" lon="5.35138">
        <ele>1270</ele>
        <time>2021-10-08T10:38:26Z</time>
      </trkpt>
      <trkpt lat="44.85018" lon="5.35139">
        <ele>1270</ele>
        <time>2021-10-08T10:38:27Z</time>
      </trkpt>
      <trkpt lat="44.85017" lon="5.35138">
        <ele>1270</ele>
        <time>2021-10-08T10:38:28Z</time>
      </trkpt>
      <trkpt lat="44.85015" lon="5.35138">
        <ele>1270</ele>
        <time>2021-10-08T10:38:29Z</time>
      </trkpt>
      <trkpt lat="44.85013" lon="5.35138">
        <ele>1271</ele>
        <time>2021-10-08T10:38:30Z</time>
      </trkpt>
      <trkpt lat="44.85012" lon="5.35138">
        <ele>1271</ele>
        <time>2021-10-08T10:38:31Z</time>
      </trkpt>
      <trkpt lat="44.8501" lon="5.35137">
        <ele>1271</ele>
        <time>2021-10-08T10:38:32Z</time>
      </trkpt>
      <trkpt lat="44.85008" lon="5.35137">
        <ele>1271</ele>
        <time>2021-10-08T10:38:33Z</time>
      </trkpt>
      <trkpt lat="44.85006" lon="5.35136">
        <ele>1271.4</ele>
        <time>2021-10-08T10:38:34Z</time>
      </trkpt>
      <trkpt lat="44.85005" lon="5.35136">
        <ele>1271.4</ele>
        <time>2021-10-08T10:38:35Z</time>
      </trkpt>
      <trkpt lat="44.85004" lon="5.35136">
        <ele>1271.4</ele>
        <time>2021-10-08T10:38:36Z</time>
      </trkpt>
      <trkpt lat="44.85002" lon="5.35135">
        <ele>1271.4</ele>
        <time>2021-10-08T10:38:37Z</time>
      </trkpt>
      <trkpt lat="44.85001" lon="5.35134">
        <ele>1272</ele>
        <time>2021-10-08T10:38:38Z</time>
      </trkpt>
      <trkpt lat="44.85" lon="5.35133">
        <ele>1272</ele>
        <time>2021-10-08T10:38:39Z</time>
      </trkpt>
      <trkpt lat="44.84998" lon="5.35132">
        <ele>1272</ele>
        <time>2021-10-08T10:38:40Z</time>
      </trkpt>
      <trkpt lat="44.84996" lon="5.35132">
        <ele>1272</ele>
        <time>2021-10-08T10:38:41Z</time>
      </trkpt>
      <trkpt lat="44.84995" lon="5.35132">
        <ele>1272.4</ele>
        <time>2021-10-08T10:38:42Z</time>
      </trkpt>
      <trkpt lat="44.84994" lon="5.35131">
        <ele>1272.4</ele>
        <time>2021-10-08T10:38:43Z</time>
      </trkpt>
      <trkpt lat="44.84992" lon="5.35131">
        <ele>1272.4</ele>
        <time>2021-10-08T10:38:44Z</time>
      </trkpt>
      <trkpt lat="44.84991" lon="5.3513">
        <ele>1273.2</ele>
        <time>2021-10-08T10:38:45Z</time>
      </trkpt>
      <trkpt lat="44.84989" lon="5.35129">
        <ele>1273.6</ele>
        <time>2021-10-08T10:38:46Z</time>
      </trkpt>
      <trkpt lat="44.84988" lon="5.35129">
        <ele>1273.6</ele>
        <time>2021-10-08T10:38:47Z</time>
      </trkpt>
      <trkpt lat="44.84986" lon="5.35129">
        <ele>1273.6</ele>
        <time>2021-10-08T10:38:48Z</time>
      </trkpt>
      <trkpt lat="44.84984" lon="5.35129">
        <ele>1273.6</ele>
        <time>2021-10-08T10:38:49Z</time>
      </trkpt>
      <trkpt lat="44.84982" lon="5.35128">
        <ele>1273.8</ele>
        <time>2021-10-08T10:38:50Z</time>
      </trkpt>
      <trkpt lat="44.84981" lon="5.35128">
        <ele>1273.8</ele>
        <time>2021-10-08T10:38:51Z</time>
      </trkpt>
      <trkpt lat="44.84979" lon="5.35127">
        <ele>1273.8</ele>
        <time>2021-10-08T10:38:52Z</time>
      </trkpt>
      <trkpt lat="44.84976" lon="5.35127">
        <ele>1274.2</ele>
        <time>2021-10-08T10:38:53Z</time>
      </trkpt>
      <trkpt lat="44.84976" lon="5.35127">
        <ele>1274.6</ele>
        <time>2021-10-08T10:38:54Z</time>
      </trkpt>
      <trkpt lat="44.84975" lon="5.35127">
        <ele>1274.6</ele>
        <time>2021-10-08T10:38:55Z</time>
      </trkpt>
      <trkpt lat="44.84973" lon="5.35126">
        <ele>1274.6</ele>
        <time>2021-10-08T10:38:56Z</time>
      </trkpt>
      <trkpt lat="44.84971" lon="5.35125">
        <ele>1274.6</ele>
        <time>2021-10-08T10:38:57Z</time>
      </trkpt>
      <trkpt lat="44.84969" lon="5.35124">
        <ele>1275</ele>
        <time>2021-10-08T10:38:58Z</time>
      </trkpt>
      <trkpt lat="44.84967" lon="5.35123">
        <ele>1275</ele>
        <time>2021-10-08T10:38:59Z</time>
      </trkpt>
      <trkpt lat="44.84965" lon="5.35122">
        <ele>1275</ele>
        <time>2021-10-08T10:39:00Z</time>
      </trkpt>
      <trkpt lat="44.84964" lon="5.35121">
        <ele>1275</ele>
        <time>2021-10-08T10:39:01Z</time>
      </trkpt>
      <trkpt lat="44.84961" lon="5.3512">
        <ele>1275</ele>
        <time>2021-10-08T10:39:02Z</time>
      </trkpt>
      <trkpt lat="44.8496" lon="5.35118">
        <ele>1275</ele>
        <time>2021-10-08T10:39:03Z</time>
      </trkpt>
      <trkpt lat="44.84958" lon="5.35117">
        <ele>1275</ele>
        <time>2021-10-08T10:39:04Z</time>
      </trkpt>
      <trkpt lat="44.84956" lon="5.35116">
        <ele>1275.8</ele>
        <time>2021-10-08T10:39:05Z</time>
      </trkpt>
      <trkpt lat="44.84955" lon="5.35115">
        <ele>1275.6</ele>
        <time>2021-10-08T10:39:06Z</time>
      </trkpt>
      <trkpt lat="44.84954" lon="5.35114">
        <ele>1275.6</ele>
        <time>2021-10-08T10:39:07Z</time>
      </trkpt>
      <trkpt lat="44.84953" lon="5.35113">
        <ele>1275.6</ele>
        <time>2021-10-08T10:39:08Z</time>
      </trkpt>
      <trkpt lat="44.84951" lon="5.35112">
        <ele>1275.8</ele>
        <time>2021-10-08T10:39:09Z</time>
      </trkpt>
      <trkpt lat="44.8495" lon="5.35111">
        <ele>1276.2</ele>
        <time>2021-10-08T10:39:10Z</time>
      </trkpt>
      <trkpt lat="44.84949" lon="5.35111">
        <ele>1276.2</ele>
        <time>2021-10-08T10:39:11Z</time>
      </trkpt>
      <trkpt lat="44.84947" lon="5.3511">
        <ele>1276.2</ele>
        <time>2021-10-08T10:39:12Z</time>
      </trkpt>
      <trkpt lat="44.84946" lon="5.35109">
        <ele>1276.2</ele>
        <time>2021-10-08T10:39:13Z</time>
      </trkpt>
      <trkpt lat="44.84945" lon="5.35109">
        <ele>1277.2</ele>
        <time>2021-10-08T10:39:14Z</time>
      </trkpt>
      <trkpt lat="44.84944" lon="5.35109">
        <ele>1277.2</ele>
        <time>2021-10-08T10:39:15Z</time>
      </trkpt>
      <trkpt lat="44.84942" lon="5.35109">
        <ele>1277.2</ele>
        <time>2021-10-08T10:39:16Z</time>
      </trkpt>
      <trkpt lat="44.84942" lon="5.3511">
        <ele>1277.2</ele>
        <time>2021-10-08T10:39:17Z</time>
      </trkpt>
      <trkpt lat="44.84941" lon="5.3511">
        <ele>1277</ele>
        <time>2021-10-08T10:39:18Z</time>
      </trkpt>
      <trkpt lat="44.84939" lon="5.35111">
        <ele>1277</ele>
        <time>2021-10-08T10:39:19Z</time>
      </trkpt>
      <trkpt lat="44.84938" lon="5.35111">
        <ele>1277</ele>
        <time>2021-10-08T10:39:20Z</time>
      </trkpt>
      <trkpt lat="44.84936" lon="5.35111">
        <ele>1277.6</ele>
        <time>2021-10-08T10:39:21Z</time>
      </trkpt>
      <trkpt lat="44.84934" lon="5.3511">
        <ele>1277.4</ele>
        <time>2021-10-08T10:39:22Z</time>
      </trkpt>
      <trkpt lat="44.84932" lon="5.35109">
        <ele>1277.4</ele>
        <time>2021-10-08T10:39:23Z</time>
      </trkpt>
      <trkpt lat="44.84931" lon="5.35109">
        <ele>1277.4</ele>
        <time>2021-10-08T10:39:24Z</time>
      </trkpt>
      <trkpt lat="44.84929" lon="5.3511">
        <ele>1277.8</ele>
        <time>2021-10-08T10:39:25Z</time>
      </trkpt>
      <trkpt lat="44.84927" lon="5.3511">
        <ele>1277.6</ele>
        <time>2021-10-08T10:39:26Z</time>
      </trkpt>
      <trkpt lat="44.84925" lon="5.35109">
        <ele>1277.6</ele>
        <time>2021-10-08T10:39:27Z</time>
      </trkpt>
      <trkpt lat="44.84923" lon="5.35109">
        <ele>1277.6</ele>
        <time>2021-10-08T10:39:28Z</time>
      </trkpt>
      <trkpt lat="44.84922" lon="5.35108">
        <ele>1278</ele>
        <time>2021-10-08T10:39:29Z</time>
      </trkpt>
      <trkpt lat="44.8492" lon="5.35108">
        <ele>1278.8</ele>
        <time>2021-10-08T10:39:30Z</time>
      </trkpt>
      <trkpt lat="44.84919" lon="5.35108">
        <ele>1278.8</ele>
        <time>2021-10-08T10:39:31Z</time>
      </trkpt>
      <trkpt lat="44.84918" lon="5.35107">
        <ele>1278.8</ele>
        <time>2021-10-08T10:39:32Z</time>
      </trkpt>
      <trkpt lat="44.84916" lon="5.35108">
        <ele>1278.6</ele>
        <time>2021-10-08T10:39:33Z</time>
      </trkpt>
      <trkpt lat="44.84914" lon="5.35108">
        <ele>1279</ele>
        <time>2021-10-08T10:39:34Z</time>
      </trkpt>
      <trkpt lat="44.84913" lon="5.35107">
        <ele>1279</ele>
        <time>2021-10-08T10:39:35Z</time>
      </trkpt>
      <trkpt lat="44.84911" lon="5.35106">
        <ele>1279</ele>
        <time>2021-10-08T10:39:36Z</time>
      </trkpt>
      <trkpt lat="44.84909" lon="5.35106">
        <ele>1279.2</ele>
        <time>2021-10-08T10:39:37Z</time>
      </trkpt>
      <trkpt lat="44.84908" lon="5.35105">
        <ele>1279.2</ele>
        <time>2021-10-08T10:39:38Z</time>
      </trkpt>
      <trkpt lat="44.84906" lon="5.35104">
        <ele>1279.2</ele>
        <time>2021-10-08T10:39:39Z</time>
      </trkpt>
      <trkpt lat="44.84904" lon="5.35103">
        <ele>1279.2</ele>
        <time>2021-10-08T10:39:40Z</time>
      </trkpt>
      <trkpt lat="44.84903" lon="5.35103">
        <ele>1280.2</ele>
        <time>2021-10-08T10:39:41Z</time>
      </trkpt>
      <trkpt lat="44.84901" lon="5.35103">
        <ele>1280.6</ele>
        <time>2021-10-08T10:39:42Z</time>
      </trkpt>
      <trkpt lat="44.849" lon="5.35102">
        <ele>1280.6</ele>
        <time>2021-10-08T10:39:43Z</time>
      </trkpt>
      <trkpt lat="44.84899" lon="5.35102">
        <ele>1280.6</ele>
        <time>2021-10-08T10:39:44Z</time>
      </trkpt>
      <trkpt lat="44.84897" lon="5.35102">
        <ele>1280.6</ele>
        <time>2021-10-08T10:39:45Z</time>
      </trkpt>
      <trkpt lat="44.84894" lon="5.35101">
        <ele>1280.8</ele>
        <time>2021-10-08T10:39:46Z</time>
      </trkpt>
      <trkpt lat="44.84892" lon="5.351">
        <ele>1280.8</ele>
        <time>2021-10-08T10:39:47Z</time>
      </trkpt>
      <trkpt lat="44.84891" lon="5.351">
        <ele>1280.8</ele>
        <time>2021-10-08T10:39:48Z</time>
      </trkpt>
      <trkpt lat="44.84889" lon="5.351">
        <ele>1280.8</ele>
        <time>2021-10-08T10:39:49Z</time>
      </trkpt>
      <trkpt lat="44.84887" lon="5.35099">
        <ele>1281.2</ele>
        <time>2021-10-08T10:39:50Z</time>
      </trkpt>
      <trkpt lat="44.84886" lon="5.35098">
        <ele>1281.2</ele>
        <time>2021-10-08T10:39:51Z</time>
      </trkpt>
      <trkpt lat="44.84883" lon="5.35098">
        <ele>1281.2</ele>
        <time>2021-10-08T10:39:52Z</time>
      </trkpt>
      <trkpt lat="44.84881" lon="5.35097">
        <ele>1281.2</ele>
        <time>2021-10-08T10:39:53Z</time>
      </trkpt>
      <trkpt lat="44.84879" lon="5.35096">
        <ele>1282.4</ele>
        <time>2021-10-08T10:39:54Z</time>
      </trkpt>
      <trkpt lat="44.84878" lon="5.35095">
        <ele>1282.4</ele>
        <time>2021-10-08T10:39:55Z</time>
      </trkpt>
      <trkpt lat="44.84877" lon="5.35094">
        <ele>1282.4</ele>
        <time>2021-10-08T10:39:56Z</time>
      </trkpt>
      <trkpt lat="44.84875" lon="5.35094">
        <ele>1282.4</ele>
        <time>2021-10-08T10:39:57Z</time>
      </trkpt>
      <trkpt lat="44.84872" lon="5.35093">
        <ele>1283.4</ele>
        <time>2021-10-08T10:39:58Z</time>
      </trkpt>
      <trkpt lat="44.8487" lon="5.35093">
        <ele>1283.4</ele>
        <time>2021-10-08T10:39:59Z</time>
      </trkpt>
      <trkpt lat="44.84869" lon="5.35092">
        <ele>1283.4</ele>
        <time>2021-10-08T10:40:00Z</time>
      </trkpt>
      <trkpt lat="44.84866" lon="5.35092">
        <ele>1283.4</ele>
        <time>2021-10-08T10:40:01Z</time>
      </trkpt>
      <trkpt lat="44.84864" lon="5.35091">
        <ele>1283.4</ele>
        <time>2021-10-08T10:40:02Z</time>
      </trkpt>
      <trkpt lat="44.84862" lon="5.35091">
        <ele>1283.4</ele>
        <time>2021-10-08T10:40:03Z</time>
      </trkpt>
      <trkpt lat="44.84861" lon="5.3509">
        <ele>1283.4</ele>
        <time>2021-10-08T10:40:04Z</time>
      </trkpt>
      <trkpt lat="44.8486" lon="5.3509">
        <ele>1283.4</ele>
        <time>2021-10-08T10:40:05Z</time>
      </trkpt>
      <trkpt lat="44.84859" lon="5.35089">
        <ele>1284.2</ele>
        <time>2021-10-08T10:40:06Z</time>
      </trkpt>
      <trkpt lat="44.84857" lon="5.35088">
        <ele>1284.2</ele>
        <time>2021-10-08T10:40:07Z</time>
      </trkpt>
      <trkpt lat="44.84856" lon="5.35086">
        <ele>1284.2</ele>
        <time>2021-10-08T10:40:08Z</time>
      </trkpt>
      <trkpt lat="44.84855" lon="5.35085">
        <ele>1284.8</ele>
        <time>2021-10-08T10:40:09Z</time>
      </trkpt>
      <trkpt lat="44.84853" lon="5.35085">
        <ele>1285</ele>
        <time>2021-10-08T10:40:10Z</time>
      </trkpt>
      <trkpt lat="44.84852" lon="5.35085">
        <ele>1285</ele>
        <time>2021-10-08T10:40:11Z</time>
      </trkpt>
      <trkpt lat="44.8485" lon="5.35084">
        <ele>1285</ele>
        <time>2021-10-08T10:40:12Z</time>
      </trkpt>
      <trkpt lat="44.84848" lon="5.35084">
        <ele>1285</ele>
        <time>2021-10-08T10:40:13Z</time>
      </trkpt>
      <trkpt lat="44.84846" lon="5.35083">
        <ele>1285.2</ele>
        <time>2021-10-08T10:40:14Z</time>
      </trkpt>
      <trkpt lat="44.84844" lon="5.35082">
        <ele>1285.2</ele>
        <time>2021-10-08T10:40:15Z</time>
      </trkpt>
      <trkpt lat="44.84841" lon="5.3508">
        <ele>1285.2</ele>
        <time>2021-10-08T10:40:16Z</time>
      </trkpt>
      <trkpt lat="44.8484" lon="5.35079">
        <ele>1285.2</ele>
        <time>2021-10-08T10:40:17Z</time>
      </trkpt>
      <trkpt lat="44.84838" lon="5.35078">
        <ele>1285.8</ele>
        <time>2021-10-08T10:40:18Z</time>
      </trkpt>
      <trkpt lat="44.84836" lon="5.35077">
        <ele>1285.8</ele>
        <time>2021-10-08T10:40:19Z</time>
      </trkpt>
      <trkpt lat="44.84834" lon="5.35075">
        <ele>1285.8</ele>
        <time>2021-10-08T10:40:20Z</time>
      </trkpt>
      <trkpt lat="44.84833" lon="5.35075">
        <ele>1285.8</ele>
        <time>2021-10-08T10:40:21Z</time>
      </trkpt>
      <trkpt lat="44.84831" lon="5.35074">
        <ele>1287</ele>
        <time>2021-10-08T10:40:22Z</time>
      </trkpt>
      <trkpt lat="44.84829" lon="5.35073">
        <ele>1287</ele>
        <time>2021-10-08T10:40:23Z</time>
      </trkpt>
      <trkpt lat="44.84827" lon="5.35072">
        <ele>1287</ele>
        <time>2021-10-08T10:40:24Z</time>
      </trkpt>
      <trkpt lat="44.84826" lon="5.3507">
        <ele>1286.8</ele>
        <time>2021-10-08T10:40:25Z</time>
      </trkpt>
      <trkpt lat="44.84825" lon="5.35069">
        <ele>1287</ele>
        <time>2021-10-08T10:40:26Z</time>
      </trkpt>
      <trkpt lat="44.84823" lon="5.35067">
        <ele>1287</ele>
        <time>2021-10-08T10:40:27Z</time>
      </trkpt>
      <trkpt lat="44.84822" lon="5.35066">
        <ele>1287</ele>
        <time>2021-10-08T10:40:28Z</time>
      </trkpt>
      <trkpt lat="44.84821" lon="5.35065">
        <ele>1287.4</ele>
        <time>2021-10-08T10:40:29Z</time>
      </trkpt>
      <trkpt lat="44.84819" lon="5.35064">
        <ele>1287.4</ele>
        <time>2021-10-08T10:40:30Z</time>
      </trkpt>
      <trkpt lat="44.84818" lon="5.35064">
        <ele>1287.4</ele>
        <time>2021-10-08T10:40:31Z</time>
      </trkpt>
      <trkpt lat="44.84816" lon="5.35063">
        <ele>1287.4</ele>
        <time>2021-10-08T10:40:32Z</time>
      </trkpt>
      <trkpt lat="44.84814" lon="5.35062">
        <ele>1288</ele>
        <time>2021-10-08T10:40:33Z</time>
      </trkpt>
      <trkpt lat="44.84813" lon="5.3506">
        <ele>1287.8</ele>
        <time>2021-10-08T10:40:34Z</time>
      </trkpt>
      <trkpt lat="44.84812" lon="5.35059">
        <ele>1287.8</ele>
        <time>2021-10-08T10:40:35Z</time>
      </trkpt>
      <trkpt lat="44.8481" lon="5.35058">
        <ele>1287.8</ele>
        <time>2021-10-08T10:40:36Z</time>
      </trkpt>
      <trkpt lat="44.84808" lon="5.35058">
        <ele>1287.8</ele>
        <time>2021-10-08T10:40:37Z</time>
      </trkpt>
      <trkpt lat="44.84807" lon="5.35057">
        <ele>1288.2</ele>
        <time>2021-10-08T10:40:38Z</time>
      </trkpt>
      <trkpt lat="44.84806" lon="5.35056">
        <ele>1288.2</ele>
        <time>2021-10-08T10:40:39Z</time>
      </trkpt>
      <trkpt lat="44.84805" lon="5.35056">
        <ele>1288.2</ele>
        <time>2021-10-08T10:40:40Z</time>
      </trkpt>
      <trkpt lat="44.84803" lon="5.35055">
        <ele>1288.6</ele>
        <time>2021-10-08T10:40:41Z</time>
      </trkpt>
      <trkpt lat="44.84802" lon="5.35054">
        <ele>1288</ele>
        <time>2021-10-08T10:40:42Z</time>
      </trkpt>
      <trkpt lat="44.848" lon="5.35053">
        <ele>1288</ele>
        <time>2021-10-08T10:40:43Z</time>
      </trkpt>
      <trkpt lat="44.84798" lon="5.35052">
        <ele>1288</ele>
        <time>2021-10-08T10:40:44Z</time>
      </trkpt>
      <trkpt lat="44.84795" lon="5.3505">
        <ele>1289</ele>
        <time>2021-10-08T10:40:45Z</time>
      </trkpt>
      <trkpt lat="44.84792" lon="5.35049">
        <ele>1289</ele>
        <time>2021-10-08T10:40:46Z</time>
      </trkpt>
      <trkpt lat="44.84791" lon="5.35048">
        <ele>1289</ele>
        <time>2021-10-08T10:40:47Z</time>
      </trkpt>
      <trkpt lat="44.84789" lon="5.35046">
        <ele>1289</ele>
        <time>2021-10-08T10:40:48Z</time>
      </trkpt>
      <trkpt lat="44.84787" lon="5.35045">
        <ele>1290</ele>
        <time>2021-10-08T10:40:49Z</time>
      </trkpt>
      <trkpt lat="44.84786" lon="5.35045">
        <ele>1289.8</ele>
        <time>2021-10-08T10:40:50Z</time>
      </trkpt>
      <trkpt lat="44.84784" lon="5.35045">
        <ele>1289.8</ele>
        <time>2021-10-08T10:40:51Z</time>
      </trkpt>
      <trkpt lat="44.84782" lon="5.35044">
        <ele>1289.8</ele>
        <time>2021-10-08T10:40:52Z</time>
      </trkpt>
      <trkpt lat="44.8478" lon="5.35043">
        <ele>1290.4</ele>
        <time>2021-10-08T10:40:53Z</time>
      </trkpt>
      <trkpt lat="44.84778" lon="5.35042">
        <ele>1290.2</ele>
        <time>2021-10-08T10:40:54Z</time>
      </trkpt>
      <trkpt lat="44.84776" lon="5.35041">
        <ele>1290.2</ele>
        <time>2021-10-08T10:40:55Z</time>
      </trkpt>
      <trkpt lat="44.84774" lon="5.3504">
        <ele>1290.2</ele>
        <time>2021-10-08T10:40:56Z</time>
      </trkpt>
      <trkpt lat="44.84772" lon="5.35039">
        <ele>1290.8</ele>
        <time>2021-10-08T10:40:57Z</time>
      </trkpt>
      <trkpt lat="44.8477" lon="5.35039">
        <ele>1290.8</ele>
        <time>2021-10-08T10:40:58Z</time>
      </trkpt>
      <trkpt lat="44.84768" lon="5.35038">
        <ele>1290.8</ele>
        <time>2021-10-08T10:40:59Z</time>
      </trkpt>
      <trkpt lat="44.84766" lon="5.35037">
        <ele>1290.8</ele>
        <time>2021-10-08T10:41:00Z</time>
      </trkpt>
      <trkpt lat="44.84764" lon="5.35037">
        <ele>1290.8</ele>
        <time>2021-10-08T10:41:01Z</time>
      </trkpt>
      <trkpt lat="44.84762" lon="5.35036">
        <ele>1291.8</ele>
        <time>2021-10-08T10:41:02Z</time>
      </trkpt>
      <trkpt lat="44.84761" lon="5.35035">
        <ele>1291.8</ele>
        <time>2021-10-08T10:41:03Z</time>
      </trkpt>
      <trkpt lat="44.8476" lon="5.35034">
        <ele>1291.8</ele>
        <time>2021-10-08T10:41:04Z</time>
      </trkpt>
      <trkpt lat="44.84758" lon="5.35033">
        <ele>1291.8</ele>
        <time>2021-10-08T10:41:05Z</time>
      </trkpt>
      <trkpt lat="44.84756" lon="5.35033">
        <ele>1292.2</ele>
        <time>2021-10-08T10:41:06Z</time>
      </trkpt>
      <trkpt lat="44.84754" lon="5.35033">
        <ele>1292.2</ele>
        <time>2021-10-08T10:41:07Z</time>
      </trkpt>
      <trkpt lat="44.84752" lon="5.35033">
        <ele>1292.2</ele>
        <time>2021-10-08T10:41:08Z</time>
      </trkpt>
      <trkpt lat="44.8475" lon="5.35032">
        <ele>1292.2</ele>
        <time>2021-10-08T10:41:09Z</time>
      </trkpt>
      <trkpt lat="44.84748" lon="5.35031">
        <ele>1291.6</ele>
        <time>2021-10-08T10:41:10Z</time>
      </trkpt>
      <trkpt lat="44.84747" lon="5.35031">
        <ele>1291.6</ele>
        <time>2021-10-08T10:41:11Z</time>
      </trkpt>
      <trkpt lat="44.84746" lon="5.35032">
        <ele>1291.6</ele>
        <time>2021-10-08T10:41:12Z</time>
      </trkpt>
      <trkpt lat="44.84745" lon="5.35031">
        <ele>1292.6</ele>
        <time>2021-10-08T10:41:13Z</time>
      </trkpt>
      <trkpt lat="44.84743" lon="5.35032">
        <ele>1292.8</ele>
        <time>2021-10-08T10:41:14Z</time>
      </trkpt>
      <trkpt lat="44.84742" lon="5.35032">
        <ele>1292.8</ele>
        <time>2021-10-08T10:41:15Z</time>
      </trkpt>
      <trkpt lat="44.8474" lon="5.35032">
        <ele>1292.8</ele>
        <time>2021-10-08T10:41:16Z</time>
      </trkpt>
      <trkpt lat="44.84739" lon="5.35032">
        <ele>1293.4</ele>
        <time>2021-10-08T10:41:17Z</time>
      </trkpt>
      <trkpt lat="44.84738" lon="5.35032">
        <ele>1293.6</ele>
        <time>2021-10-08T10:41:18Z</time>
      </trkpt>
      <trkpt lat="44.84736" lon="5.35032">
        <ele>1293.6</ele>
        <time>2021-10-08T10:41:19Z</time>
      </trkpt>
      <trkpt lat="44.84735" lon="5.35032">
        <ele>1293.6</ele>
        <time>2021-10-08T10:41:20Z</time>
      </trkpt>
      <trkpt lat="44.84734" lon="5.35032">
        <ele>1294.2</ele>
        <time>2021-10-08T10:41:21Z</time>
      </trkpt>
      <trkpt lat="44.84732" lon="5.35033">
        <ele>1294</ele>
        <time>2021-10-08T10:41:22Z</time>
      </trkpt>
      <trkpt lat="44.8473" lon="5.35033">
        <ele>1294</ele>
        <time>2021-10-08T10:41:23Z</time>
      </trkpt>
      <trkpt lat="44.84729" lon="5.35033">
        <ele>1294</ele>
        <time>2021-10-08T10:41:24Z</time>
      </trkpt>
      <trkpt lat="44.84726" lon="5.35033">
        <ele>1294.4</ele>
        <time>2021-10-08T10:41:25Z</time>
      </trkpt>
      <trkpt lat="44.84725" lon="5.35034">
        <ele>1294.2</ele>
        <time>2021-10-08T10:41:26Z</time>
      </trkpt>
      <trkpt lat="44.84722" lon="5.35034">
        <ele>1294.2</ele>
        <time>2021-10-08T10:41:27Z</time>
      </trkpt>
      <trkpt lat="44.8472" lon="5.35035">
        <ele>1294.2</ele>
        <time>2021-10-08T10:41:28Z</time>
      </trkpt>
      <trkpt lat="44.84717" lon="5.35036">
        <ele>1295.2</ele>
        <time>2021-10-08T10:41:29Z</time>
      </trkpt>
      <trkpt lat="44.84715" lon="5.35038">
        <ele>1295</ele>
        <time>2021-10-08T10:41:30Z</time>
      </trkpt>
      <trkpt lat="44.84713" lon="5.3504">
        <ele>1295</ele>
        <time>2021-10-08T10:41:31Z</time>
      </trkpt>
      <trkpt lat="44.84711" lon="5.3504">
        <ele>1295</ele>
        <time>2021-10-08T10:41:32Z</time>
      </trkpt>
      <trkpt lat="44.84709" lon="5.35041">
        <ele>1295</ele>
        <time>2021-10-08T10:41:33Z</time>
      </trkpt>
      <trkpt lat="44.84707" lon="5.35041">
        <ele>1295.2</ele>
        <time>2021-10-08T10:41:34Z</time>
      </trkpt>
      <trkpt lat="44.84705" lon="5.3504">
        <ele>1295.2</ele>
        <time>2021-10-08T10:41:35Z</time>
      </trkpt>
      <trkpt lat="44.84703" lon="5.3504">
        <ele>1295.2</ele>
        <time>2021-10-08T10:41:36Z</time>
      </trkpt>
      <trkpt lat="44.84702" lon="5.35039">
        <ele>1295.2</ele>
        <time>2021-10-08T10:41:37Z</time>
      </trkpt>
      <trkpt lat="44.847" lon="5.35038">
        <ele>1295.4</ele>
        <time>2021-10-08T10:41:38Z</time>
      </trkpt>
      <trkpt lat="44.84698" lon="5.35037">
        <ele>1295.4</ele>
        <time>2021-10-08T10:41:39Z</time>
      </trkpt>
      <trkpt lat="44.84696" lon="5.35037">
        <ele>1295.4</ele>
        <time>2021-10-08T10:41:40Z</time>
      </trkpt>
      <trkpt lat="44.84695" lon="5.35036">
        <ele>1295.4</ele>
        <time>2021-10-08T10:41:41Z</time>
      </trkpt>
      <trkpt lat="44.84693" lon="5.35036">
        <ele>1296.2</ele>
        <time>2021-10-08T10:41:42Z</time>
      </trkpt>
      <trkpt lat="44.84692" lon="5.35036">
        <ele>1296.2</ele>
        <time>2021-10-08T10:41:43Z</time>
      </trkpt>
      <trkpt lat="44.8469" lon="5.35035">
        <ele>1296.2</ele>
        <time>2021-10-08T10:41:44Z</time>
      </trkpt>
      <trkpt lat="44.84688" lon="5.35035">
        <ele>1296.4</ele>
        <time>2021-10-08T10:41:45Z</time>
      </trkpt>
      <trkpt lat="44.84687" lon="5.35033">
        <ele>1296.8</ele>
        <time>2021-10-08T10:41:46Z</time>
      </trkpt>
      <trkpt lat="44.84684" lon="5.35033">
        <ele>1296.8</ele>
        <time>2021-10-08T10:41:47Z</time>
      </trkpt>
      <trkpt lat="44.84682" lon="5.35033">
        <ele>1296.8</ele>
        <time>2021-10-08T10:41:48Z</time>
      </trkpt>
      <trkpt lat="44.8468" lon="5.35032">
        <ele>1296.4</ele>
        <time>2021-10-08T10:41:49Z</time>
      </trkpt>
      <trkpt lat="44.84678" lon="5.35031">
        <ele>1296.8</ele>
        <time>2021-10-08T10:41:50Z</time>
      </trkpt>
      <trkpt lat="44.84677" lon="5.3503">
        <ele>1296.8</ele>
        <time>2021-10-08T10:41:51Z</time>
      </trkpt>
      <trkpt lat="44.84675" lon="5.3503">
        <ele>1296.8</ele>
        <time>2021-10-08T10:41:52Z</time>
      </trkpt>
      <trkpt lat="44.84673" lon="5.3503">
        <ele>1296.8</ele>
        <time>2021-10-08T10:41:53Z</time>
      </trkpt>
      <trkpt lat="44.84671" lon="5.35029">
        <ele>1296.8</ele>
        <time>2021-10-08T10:41:54Z</time>
      </trkpt>
      <trkpt lat="44.84669" lon="5.35029">
        <ele>1297.2</ele>
        <time>2021-10-08T10:41:55Z</time>
      </trkpt>
      <trkpt lat="44.84666" lon="5.35029">
        <ele>1297.2</ele>
        <time>2021-10-08T10:41:56Z</time>
      </trkpt>
      <trkpt lat="44.84665" lon="5.35028">
        <ele>1297.6</ele>
        <time>2021-10-08T10:41:57Z</time>
      </trkpt>
      <trkpt lat="44.84663" lon="5.35028">
        <ele>1297.6</ele>
        <time>2021-10-08T10:41:58Z</time>
      </trkpt>
      <trkpt lat="44.84661" lon="5.35028">
        <ele>1297.6</ele>
        <time>2021-10-08T10:41:59Z</time>
      </trkpt>
      <trkpt lat="44.84659" lon="5.35028">
        <ele>1297.6</ele>
        <time>2021-10-08T10:42:00Z</time>
      </trkpt>
      <trkpt lat="44.84657" lon="5.35028">
        <ele>1297.6</ele>
        <time>2021-10-08T10:42:01Z</time>
      </trkpt>
      <trkpt lat="44.84656" lon="5.35028">
        <ele>1297.8</ele>
        <time>2021-10-08T10:42:02Z</time>
      </trkpt>
      <trkpt lat="44.84653" lon="5.35028">
        <ele>1297.8</ele>
        <time>2021-10-08T10:42:03Z</time>
      </trkpt>
      <trkpt lat="44.8465" lon="5.35029">
        <ele>1297.8</ele>
        <time>2021-10-08T10:42:04Z</time>
      </trkpt>
      <trkpt lat="44.84649" lon="5.35028">
        <ele>1298.6</ele>
        <time>2021-10-08T10:42:05Z</time>
      </trkpt>
      <trkpt lat="44.84646" lon="5.35029">
        <ele>1298.8</ele>
        <time>2021-10-08T10:42:06Z</time>
      </trkpt>
      <trkpt lat="44.84644" lon="5.3503">
        <ele>1298.8</ele>
        <time>2021-10-08T10:42:07Z</time>
      </trkpt>
      <trkpt lat="44.84642" lon="5.35031">
        <ele>1298.8</ele>
        <time>2021-10-08T10:42:08Z</time>
      </trkpt>
      <trkpt lat="44.8464" lon="5.35033">
        <ele>1298.8</ele>
        <time>2021-10-08T10:42:09Z</time>
      </trkpt>
      <trkpt lat="44.84638" lon="5.35034">
        <ele>1299.4</ele>
        <time>2021-10-08T10:42:10Z</time>
      </trkpt>
      <trkpt lat="44.84636" lon="5.35036">
        <ele>1299.4</ele>
        <time>2021-10-08T10:42:11Z</time>
      </trkpt>
      <trkpt lat="44.84634" lon="5.35037">
        <ele>1299.4</ele>
        <time>2021-10-08T10:42:12Z</time>
      </trkpt>
      <trkpt lat="44.84632" lon="5.35036">
        <ele>1299.4</ele>
        <time>2021-10-08T10:42:13Z</time>
      </trkpt>
      <trkpt lat="44.84629" lon="5.35038">
        <ele>1300</ele>
        <time>2021-10-08T10:42:14Z</time>
      </trkpt>
      <trkpt lat="44.84627" lon="5.35038">
        <ele>1300</ele>
        <time>2021-10-08T10:42:15Z</time>
      </trkpt>
      <trkpt lat="44.84625" lon="5.35038">
        <ele>1300</ele>
        <time>2021-10-08T10:42:16Z</time>
      </trkpt>
      <trkpt lat="44.84623" lon="5.35038">
        <ele>1300</ele>
        <time>2021-10-08T10:42:17Z</time>
      </trkpt>
      <trkpt lat="44.84621" lon="5.35039">
        <ele>1300</ele>
        <time>2021-10-08T10:42:18Z</time>
      </trkpt>
      <trkpt lat="44.84618" lon="5.35038">
        <ele>1300</ele>
        <time>2021-10-08T10:42:19Z</time>
      </trkpt>
      <trkpt lat="44.84615" lon="5.35038">
        <ele>1300</ele>
        <time>2021-10-08T10:42:20Z</time>
      </trkpt>
      <trkpt lat="44.84613" lon="5.35037">
        <ele>1300</ele>
        <time>2021-10-08T10:42:21Z</time>
      </trkpt>
      <trkpt lat="44.8461" lon="5.35036">
        <ele>1300.4</ele>
        <time>2021-10-08T10:42:22Z</time>
      </trkpt>
      <trkpt lat="44.84608" lon="5.35036">
        <ele>1300.4</ele>
        <time>2021-10-08T10:42:23Z</time>
      </trkpt>
      <trkpt lat="44.84606" lon="5.35035">
        <ele>1300.4</ele>
        <time>2021-10-08T10:42:24Z</time>
      </trkpt>
      <trkpt lat="44.84604" lon="5.35036">
        <ele>1301.4</ele>
        <time>2021-10-08T10:42:25Z</time>
      </trkpt>
      <trkpt lat="44.84601" lon="5.35037">
        <ele>1301</ele>
        <time>2021-10-08T10:42:26Z</time>
      </trkpt>
      <trkpt lat="44.84598" lon="5.35037">
        <ele>1301</ele>
        <time>2021-10-08T10:42:27Z</time>
      </trkpt>
      <trkpt lat="44.84596" lon="5.35037">
        <ele>1301</ele>
        <time>2021-10-08T10:42:28Z</time>
      </trkpt>
      <trkpt lat="44.84594" lon="5.35037">
        <ele>1301</ele>
        <time>2021-10-08T10:42:29Z</time>
      </trkpt>
      <trkpt lat="44.84591" lon="5.35037">
        <ele>1301.2</ele>
        <time>2021-10-08T10:42:30Z</time>
      </trkpt>
      <trkpt lat="44.84589" lon="5.35038">
        <ele>1301.2</ele>
        <time>2021-10-08T10:42:31Z</time>
      </trkpt>
      <trkpt lat="44.84586" lon="5.35039">
        <ele>1301.2</ele>
        <time>2021-10-08T10:42:32Z</time>
      </trkpt>
      <trkpt lat="44.84583" lon="5.3504">
        <ele>1302</ele>
        <time>2021-10-08T10:42:33Z</time>
      </trkpt>
      <trkpt lat="44.8458" lon="5.35041">
        <ele>1301.6</ele>
        <time>2021-10-08T10:42:34Z</time>
      </trkpt>
      <trkpt lat="44.84579" lon="5.3504">
        <ele>1301.6</ele>
        <time>2021-10-08T10:42:35Z</time>
      </trkpt>
      <trkpt lat="44.84577" lon="5.3504">
        <ele>1301.6</ele>
        <time>2021-10-08T10:42:36Z</time>
      </trkpt>
      <trkpt lat="44.84575" lon="5.3504">
        <ele>1302</ele>
        <time>2021-10-08T10:42:37Z</time>
      </trkpt>
      <trkpt lat="44.84573" lon="5.35039">
        <ele>1302.2</ele>
        <time>2021-10-08T10:42:38Z</time>
      </trkpt>
      <trkpt lat="44.84571" lon="5.35039">
        <ele>1302.2</ele>
        <time>2021-10-08T10:42:39Z</time>
      </trkpt>
      <trkpt lat="44.84569" lon="5.35038">
        <ele>1302.2</ele>
        <time>2021-10-08T10:42:40Z</time>
      </trkpt>
      <trkpt lat="44.84567" lon="5.35037">
        <ele>1302.6</ele>
        <time>2021-10-08T10:42:41Z</time>
      </trkpt>
      <trkpt lat="44.84565" lon="5.35036">
        <ele>1302.8</ele>
        <time>2021-10-08T10:42:42Z</time>
      </trkpt>
      <trkpt lat="44.84563" lon="5.35036">
        <ele>1302.8</ele>
        <time>2021-10-08T10:42:43Z</time>
      </trkpt>
      <trkpt lat="44.84561" lon="5.35036">
        <ele>1302.8</ele>
        <time>2021-10-08T10:42:44Z</time>
      </trkpt>
      <trkpt lat="44.84558" lon="5.35035">
        <ele>1302.8</ele>
        <time>2021-10-08T10:42:45Z</time>
      </trkpt>
      <trkpt lat="44.84555" lon="5.35035">
        <ele>1302.8</ele>
        <time>2021-10-08T10:42:46Z</time>
      </trkpt>
      <trkpt lat="44.84552" lon="5.35034">
        <ele>1302.8</ele>
        <time>2021-10-08T10:42:47Z</time>
      </trkpt>
      <trkpt lat="44.8455" lon="5.35034">
        <ele>1302.8</ele>
        <time>2021-10-08T10:42:48Z</time>
      </trkpt>
      <trkpt lat="44.84547" lon="5.35033">
        <ele>1303</ele>
        <time>2021-10-08T10:42:49Z</time>
      </trkpt>
      <trkpt lat="44.84545" lon="5.35032">
        <ele>1304.2</ele>
        <time>2021-10-08T10:42:50Z</time>
      </trkpt>
      <trkpt lat="44.84542" lon="5.35032">
        <ele>1304.2</ele>
        <time>2021-10-08T10:42:51Z</time>
      </trkpt>
      <trkpt lat="44.84539" lon="5.35031">
        <ele>1304.2</ele>
        <time>2021-10-08T10:42:52Z</time>
      </trkpt>
      <trkpt lat="44.84537" lon="5.35031">
        <ele>1304.2</ele>
        <time>2021-10-08T10:42:53Z</time>
      </trkpt>
      <trkpt lat="44.84535" lon="5.35031">
        <ele>1304.6</ele>
        <time>2021-10-08T10:42:54Z</time>
      </trkpt>
      <trkpt lat="44.84534" lon="5.35031">
        <ele>1304.6</ele>
        <time>2021-10-08T10:42:55Z</time>
      </trkpt>
      <trkpt lat="44.84532" lon="5.35032">
        <ele>1304.6</ele>
        <time>2021-10-08T10:42:56Z</time>
      </trkpt>
      <trkpt lat="44.8453" lon="5.35032">
        <ele>1305.2</ele>
        <time>2021-10-08T10:42:57Z</time>
      </trkpt>
      <trkpt lat="44.84529" lon="5.35033">
        <ele>1305.2</ele>
        <time>2021-10-08T10:42:58Z</time>
      </trkpt>
      <trkpt lat="44.84527" lon="5.35033">
        <ele>1305.2</ele>
        <time>2021-10-08T10:42:59Z</time>
      </trkpt>
      <trkpt lat="44.84525" lon="5.35032">
        <ele>1305.2</ele>
        <time>2021-10-08T10:43:00Z</time>
      </trkpt>
      <trkpt lat="44.84524" lon="5.35032">
        <ele>1306.2</ele>
        <time>2021-10-08T10:43:01Z</time>
      </trkpt>
      <trkpt lat="44.84522" lon="5.35032">
        <ele>1306</ele>
        <time>2021-10-08T10:43:02Z</time>
      </trkpt>
      <trkpt lat="44.8452" lon="5.35031">
        <ele>1306</ele>
        <time>2021-10-08T10:43:03Z</time>
      </trkpt>
      <trkpt lat="44.84519" lon="5.35031">
        <ele>1306</ele>
        <time>2021-10-08T10:43:04Z</time>
      </trkpt>
      <trkpt lat="44.84518" lon="5.35031">
        <ele>1306.6</ele>
        <time>2021-10-08T10:43:05Z</time>
      </trkpt>
      <trkpt lat="44.84515" lon="5.3503">
        <ele>1306.8</ele>
        <time>2021-10-08T10:43:06Z</time>
      </trkpt>
      <trkpt lat="44.84512" lon="5.35032">
        <ele>1306.8</ele>
        <time>2021-10-08T10:43:07Z</time>
      </trkpt>
      <trkpt lat="44.84511" lon="5.35033">
        <ele>1306.8</ele>
        <time>2021-10-08T10:43:08Z</time>
      </trkpt>
      <trkpt lat="44.84508" lon="5.35033">
        <ele>1306.8</ele>
        <time>2021-10-08T10:43:09Z</time>
      </trkpt>
      <trkpt lat="44.84506" lon="5.35033">
        <ele>1307.2</ele>
        <time>2021-10-08T10:43:10Z</time>
      </trkpt>
      <trkpt lat="44.84503" lon="5.35033">
        <ele>1307.2</ele>
        <time>2021-10-08T10:43:11Z</time>
      </trkpt>
      <trkpt lat="44.84502" lon="5.35034">
        <ele>1307.2</ele>
        <time>2021-10-08T10:43:12Z</time>
      </trkpt>
      <trkpt lat="44.84501" lon="5.35034">
        <ele>1307.2</ele>
        <time>2021-10-08T10:43:13Z</time>
      </trkpt>
      <trkpt lat="44.845" lon="5.35034">
        <ele>1307.6</ele>
        <time>2021-10-08T10:43:14Z</time>
      </trkpt>
      <trkpt lat="44.84498" lon="5.35034">
        <ele>1307.6</ele>
        <time>2021-10-08T10:43:15Z</time>
      </trkpt>
      <trkpt lat="44.84496" lon="5.35034">
        <ele>1307.6</ele>
        <time>2021-10-08T10:43:16Z</time>
      </trkpt>
      <trkpt lat="44.84494" lon="5.35034">
        <ele>1308.2</ele>
        <time>2021-10-08T10:43:17Z</time>
      </trkpt>
      <trkpt lat="44.84493" lon="5.35033">
        <ele>1308.6</ele>
        <time>2021-10-08T10:43:18Z</time>
      </trkpt>
      <trkpt lat="44.84491" lon="5.35033">
        <ele>1308.6</ele>
        <time>2021-10-08T10:43:19Z</time>
      </trkpt>
      <trkpt lat="44.8449" lon="5.35033">
        <ele>1308.6</ele>
        <time>2021-10-08T10:43:20Z</time>
      </trkpt>
      <trkpt lat="44.84488" lon="5.35033">
        <ele>1308.6</ele>
        <time>2021-10-08T10:43:21Z</time>
      </trkpt>
      <trkpt lat="44.84487" lon="5.35033">
        <ele>1308.4</ele>
        <time>2021-10-08T10:43:22Z</time>
      </trkpt>
      <trkpt lat="44.84485" lon="5.35033">
        <ele>1308.4</ele>
        <time>2021-10-08T10:43:23Z</time>
      </trkpt>
      <trkpt lat="44.84483" lon="5.35032">
        <ele>1308.4</ele>
        <time>2021-10-08T10:43:24Z</time>
      </trkpt>
      <trkpt lat="44.84482" lon="5.35032">
        <ele>1309</ele>
        <time>2021-10-08T10:43:25Z</time>
      </trkpt>
      <trkpt lat="44.84481" lon="5.35033">
        <ele>1309.4</ele>
        <time>2021-10-08T10:43:26Z</time>
      </trkpt>
      <trkpt lat="44.84478" lon="5.35033">
        <ele>1309.4</ele>
        <time>2021-10-08T10:43:27Z</time>
      </trkpt>
      <trkpt lat="44.84477" lon="5.35032">
        <ele>1309.4</ele>
        <time>2021-10-08T10:43:28Z</time>
      </trkpt>
      <trkpt lat="44.84475" lon="5.35032">
        <ele>1310</ele>
        <time>2021-10-08T10:43:29Z</time>
      </trkpt>
      <trkpt lat="44.84473" lon="5.35032">
        <ele>1310</ele>
        <time>2021-10-08T10:43:30Z</time>
      </trkpt>
      <trkpt lat="44.84469" lon="5.35033">
        <ele>1310</ele>
        <time>2021-10-08T10:43:31Z</time>
      </trkpt>
      <trkpt lat="44.84467" lon="5.35034">
        <ele>1310</ele>
        <time>2021-10-08T10:43:32Z</time>
      </trkpt>
      <trkpt lat="44.84465" lon="5.35034">
        <ele>1310</ele>
        <time>2021-10-08T10:43:33Z</time>
      </trkpt>
      <trkpt lat="44.84463" lon="5.35033">
        <ele>1310.2</ele>
        <time>2021-10-08T10:43:34Z</time>
      </trkpt>
      <trkpt lat="44.84461" lon="5.35032">
        <ele>1310.2</ele>
        <time>2021-10-08T10:43:35Z</time>
      </trkpt>
      <trkpt lat="44.84459" lon="5.35033">
        <ele>1310.2</ele>
        <time>2021-10-08T10:43:36Z</time>
      </trkpt>
      <trkpt lat="44.84457" lon="5.35033">
        <ele>1310.2</ele>
        <time>2021-10-08T10:43:37Z</time>
      </trkpt>
      <trkpt lat="44.84455" lon="5.35033">
        <ele>1311.4</ele>
        <time>2021-10-08T10:43:38Z</time>
      </trkpt>
      <trkpt lat="44.84453" lon="5.35033">
        <ele>1311.4</ele>
        <time>2021-10-08T10:43:39Z</time>
      </trkpt>
      <trkpt lat="44.84452" lon="5.35033">
        <ele>1311.4</ele>
        <time>2021-10-08T10:43:40Z</time>
      </trkpt>
      <trkpt lat="44.84449" lon="5.35034">
        <ele>1311.4</ele>
        <time>2021-10-08T10:43:41Z</time>
      </trkpt>
      <trkpt lat="44.84446" lon="5.35035">
        <ele>1311.6</ele>
        <time>2021-10-08T10:43:42Z</time>
      </trkpt>
      <trkpt lat="44.84444" lon="5.35035">
        <ele>1311.6</ele>
        <time>2021-10-08T10:43:43Z</time>
      </trkpt>
      <trkpt lat="44.84442" lon="5.35034">
        <ele>1311.6</ele>
        <time>2021-10-08T10:43:44Z</time>
      </trkpt>
      <trkpt lat="44.84441" lon="5.35035">
        <ele>1311.6</ele>
        <time>2021-10-08T10:43:45Z</time>
      </trkpt>
      <trkpt lat="44.84439" lon="5.35036">
        <ele>1312</ele>
        <time>2021-10-08T10:43:46Z</time>
      </trkpt>
      <trkpt lat="44.84436" lon="5.35036">
        <ele>1312</ele>
        <time>2021-10-08T10:43:47Z</time>
      </trkpt>
      <trkpt lat="44.84433" lon="5.35037">
        <ele>1312</ele>
        <time>2021-10-08T10:43:48Z</time>
      </trkpt>
      <trkpt lat="44.84429" lon="5.35038">
        <ele>1312</ele>
        <time>2021-10-08T10:43:49Z</time>
      </trkpt>
      <trkpt lat="44.84427" lon="5.35038">
        <ele>1312.6</ele>
        <time>2021-10-08T10:43:50Z</time>
      </trkpt>
      <trkpt lat="44.84425" lon="5.35037">
        <ele>1312.6</ele>
        <time>2021-10-08T10:43:51Z</time>
      </trkpt>
      <trkpt lat="44.84424" lon="5.35037">
        <ele>1312.6</ele>
        <time>2021-10-08T10:43:52Z</time>
      </trkpt>
      <trkpt lat="44.84422" lon="5.35037">
        <ele>1312.6</ele>
        <time>2021-10-08T10:43:53Z</time>
      </trkpt>
      <trkpt lat="44.84421" lon="5.35037">
        <ele>1313.2</ele>
        <time>2021-10-08T10:43:54Z</time>
      </trkpt>
      <trkpt lat="44.84419" lon="5.35037">
        <ele>1313.2</ele>
        <time>2021-10-08T10:43:55Z</time>
      </trkpt>
      <trkpt lat="44.84418" lon="5.35036">
        <ele>1313.2</ele>
        <time>2021-10-08T10:43:56Z</time>
      </trkpt>
      <trkpt lat="44.84417" lon="5.35035">
        <ele>1313.4</ele>
        <time>2021-10-08T10:43:57Z</time>
      </trkpt>
      <trkpt lat="44.84415" lon="5.35035">
        <ele>1314.4</ele>
        <time>2021-10-08T10:43:58Z</time>
      </trkpt>
      <trkpt lat="44.84414" lon="5.35034">
        <ele>1314.4</ele>
        <time>2021-10-08T10:43:59Z</time>
      </trkpt>
      <trkpt lat="44.84413" lon="5.35034">
        <ele>1314.4</ele>
        <time>2021-10-08T10:44:00Z</time>
      </trkpt>
      <trkpt lat="44.84411" lon="5.35035">
        <ele>1314.4</ele>
        <time>2021-10-08T10:44:01Z</time>
      </trkpt>
      <trkpt lat="44.84409" lon="5.35034">
        <ele>1315</ele>
        <time>2021-10-08T10:44:02Z</time>
      </trkpt>
      <trkpt lat="44.84407" lon="5.35035">
        <ele>1315</ele>
        <time>2021-10-08T10:44:03Z</time>
      </trkpt>
      <trkpt lat="44.84405" lon="5.35035">
        <ele>1315</ele>
        <time>2021-10-08T10:44:04Z</time>
      </trkpt>
      <trkpt lat="44.84402" lon="5.35035">
        <ele>1315</ele>
        <time>2021-10-08T10:44:05Z</time>
      </trkpt>
      <trkpt lat="44.844" lon="5.35036">
        <ele>1315.6</ele>
        <time>2021-10-08T10:44:06Z</time>
      </trkpt>
      <trkpt lat="44.84398" lon="5.35035">
        <ele>1315.6</ele>
        <time>2021-10-08T10:44:07Z</time>
      </trkpt>
      <trkpt lat="44.84394" lon="5.35035">
        <ele>1315.6</ele>
        <time>2021-10-08T10:44:08Z</time>
      </trkpt>
      <trkpt lat="44.84392" lon="5.35035">
        <ele>1315.6</ele>
        <time>2021-10-08T10:44:09Z</time>
      </trkpt>
      <trkpt lat="44.84389" lon="5.35035">
        <ele>1316.4</ele>
        <time>2021-10-08T10:44:10Z</time>
      </trkpt>
      <trkpt lat="44.84387" lon="5.35035">
        <ele>1316.4</ele>
        <time>2021-10-08T10:44:11Z</time>
      </trkpt>
      <trkpt lat="44.84385" lon="5.35035">
        <ele>1316.4</ele>
        <time>2021-10-08T10:44:12Z</time>
      </trkpt>
      <trkpt lat="44.84384" lon="5.35035">
        <ele>1317.2</ele>
        <time>2021-10-08T10:44:13Z</time>
      </trkpt>
      <trkpt lat="44.84383" lon="5.35036">
        <ele>1317.2</ele>
        <time>2021-10-08T10:44:14Z</time>
      </trkpt>
      <trkpt lat="44.84382" lon="5.35036">
        <ele>1317.2</ele>
        <time>2021-10-08T10:44:15Z</time>
      </trkpt>
      <trkpt lat="44.84379" lon="5.35036">
        <ele>1317.2</ele>
        <time>2021-10-08T10:44:16Z</time>
      </trkpt>
      <trkpt lat="44.84377" lon="5.35036">
        <ele>1317.2</ele>
        <time>2021-10-08T10:44:17Z</time>
      </trkpt>
      <trkpt lat="44.84375" lon="5.35036">
        <ele>1317.6</ele>
        <time>2021-10-08T10:44:18Z</time>
      </trkpt>
      <trkpt lat="44.84373" lon="5.35037">
        <ele>1317.6</ele>
        <time>2021-10-08T10:44:19Z</time>
      </trkpt>
      <trkpt lat="44.84371" lon="5.35037">
        <ele>1317.6</ele>
        <time>2021-10-08T10:44:20Z</time>
      </trkpt>
      <trkpt lat="44.84369" lon="5.35038">
        <ele>1318.6</ele>
        <time>2021-10-08T10:44:21Z</time>
      </trkpt>
      <trkpt lat="44.84367" lon="5.35038">
        <ele>1318.4</ele>
        <time>2021-10-08T10:44:22Z</time>
      </trkpt>
      <trkpt lat="44.84365" lon="5.35039">
        <ele>1318.4</ele>
        <time>2021-10-08T10:44:23Z</time>
      </trkpt>
      <trkpt lat="44.84364" lon="5.35039">
        <ele>1318.4</ele>
        <time>2021-10-08T10:44:24Z</time>
      </trkpt>
      <trkpt lat="44.84362" lon="5.35039">
        <ele>1318.4</ele>
        <time>2021-10-08T10:44:25Z</time>
      </trkpt>
      <trkpt lat="44.84361" lon="5.35039">
        <ele>1319.4</ele>
        <time>2021-10-08T10:44:26Z</time>
      </trkpt>
      <trkpt lat="44.84358" lon="5.35039">
        <ele>1319.4</ele>
        <time>2021-10-08T10:44:27Z</time>
      </trkpt>
      <trkpt lat="44.84357" lon="5.3504">
        <ele>1319.4</ele>
        <time>2021-10-08T10:44:28Z</time>
      </trkpt>
      <trkpt lat="44.84355" lon="5.3504">
        <ele>1319.8</ele>
        <time>2021-10-08T10:44:29Z</time>
      </trkpt>
      <trkpt lat="44.84353" lon="5.35041">
        <ele>1319.8</ele>
        <time>2021-10-08T10:44:30Z</time>
      </trkpt>
      <trkpt lat="44.84352" lon="5.35041">
        <ele>1319.8</ele>
        <time>2021-10-08T10:44:31Z</time>
      </trkpt>
      <trkpt lat="44.8435" lon="5.35042">
        <ele>1319.8</ele>
        <time>2021-10-08T10:44:32Z</time>
      </trkpt>
      <trkpt lat="44.84349" lon="5.35043">
        <ele>1320.4</ele>
        <time>2021-10-08T10:44:33Z</time>
      </trkpt>
      <trkpt lat="44.84347" lon="5.35044">
        <ele>1320.2</ele>
        <time>2021-10-08T10:44:34Z</time>
      </trkpt>
      <trkpt lat="44.84346" lon="5.35045">
        <ele>1320.2</ele>
        <time>2021-10-08T10:44:35Z</time>
      </trkpt>
      <trkpt lat="44.84345" lon="5.35045">
        <ele>1320.2</ele>
        <time>2021-10-08T10:44:36Z</time>
      </trkpt>
      <trkpt lat="44.84344" lon="5.35046">
        <ele>1320.2</ele>
        <time>2021-10-08T10:44:37Z</time>
      </trkpt>
      <trkpt lat="44.84343" lon="5.35047">
        <ele>1320.4</ele>
        <time>2021-10-08T10:44:38Z</time>
      </trkpt>
      <trkpt lat="44.84341" lon="5.35048">
        <ele>1320.4</ele>
        <time>2021-10-08T10:44:39Z</time>
      </trkpt>
      <trkpt lat="44.8434" lon="5.35049">
        <ele>1320.4</ele>
        <time>2021-10-08T10:44:40Z</time>
      </trkpt>
      <trkpt lat="44.84339" lon="5.35049">
        <ele>1321.2</ele>
        <time>2021-10-08T10:44:41Z</time>
      </trkpt>
      <trkpt lat="44.84337" lon="5.3505">
        <ele>1321.4</ele>
        <time>2021-10-08T10:44:42Z</time>
      </trkpt>
      <trkpt lat="44.84337" lon="5.35051">
        <ele>1321.4</ele>
        <time>2021-10-08T10:44:43Z</time>
      </trkpt>
      <trkpt lat="44.84335" lon="5.35051">
        <ele>1321.4</ele>
        <time>2021-10-08T10:44:44Z</time>
      </trkpt>
      <trkpt lat="44.84334" lon="5.35052">
        <ele>1321.4</ele>
        <time>2021-10-08T10:44:45Z</time>
      </trkpt>
      <trkpt lat="44.84332" lon="5.35054">
        <ele>1321.8</ele>
        <time>2021-10-08T10:44:46Z</time>
      </trkpt>
      <trkpt lat="44.84332" lon="5.35055">
        <ele>1321.8</ele>
        <time>2021-10-08T10:44:47Z</time>
      </trkpt>
      <trkpt lat="44.8433" lon="5.35057">
        <ele>1321.8</ele>
        <time>2021-10-08T10:44:48Z</time>
      </trkpt>
      <trkpt lat="44.8433" lon="5.35058">
        <ele>1322.4</ele>
        <time>2021-10-08T10:44:49Z</time>
      </trkpt>
      <trkpt lat="44.84328" lon="5.35058">
        <ele>1322.6</ele>
        <time>2021-10-08T10:44:50Z</time>
      </trkpt>
      <trkpt lat="44.84327" lon="5.35058">
        <ele>1322.6</ele>
        <time>2021-10-08T10:44:51Z</time>
      </trkpt>
      <trkpt lat="44.84325" lon="5.35058">
        <ele>1322.6</ele>
        <time>2021-10-08T10:44:52Z</time>
      </trkpt>
      <trkpt lat="44.84324" lon="5.35058">
        <ele>1322.6</ele>
        <time>2021-10-08T10:44:53Z</time>
      </trkpt>
      <trkpt lat="44.84323" lon="5.35059">
        <ele>1322.8</ele>
        <time>2021-10-08T10:44:54Z</time>
      </trkpt>
      <trkpt lat="44.84323" lon="5.35059">
        <ele>1322.8</ele>
        <time>2021-10-08T10:44:55Z</time>
      </trkpt>
      <trkpt lat="44.84322" lon="5.3506">
        <ele>1322.8</ele>
        <time>2021-10-08T10:44:56Z</time>
      </trkpt>
      <trkpt lat="44.84321" lon="5.3506">
        <ele>1323.8</ele>
        <time>2021-10-08T10:44:57Z</time>
      </trkpt>
      <trkpt lat="44.84319" lon="5.3506">
        <ele>1324.6</ele>
        <time>2021-10-08T10:44:58Z</time>
      </trkpt>
      <trkpt lat="44.84317" lon="5.3506">
        <ele>1324.6</ele>
        <time>2021-10-08T10:44:59Z</time>
      </trkpt>
      <trkpt lat="44.84315" lon="5.3506">
        <ele>1324.6</ele>
        <time>2021-10-08T10:45:00Z</time>
      </trkpt>
      <trkpt lat="44.84313" lon="5.3506">
        <ele>1324.6</ele>
        <time>2021-10-08T10:45:01Z</time>
      </trkpt>
      <trkpt lat="44.84311" lon="5.3506">
        <ele>1325.4</ele>
        <time>2021-10-08T10:45:02Z</time>
      </trkpt>
      <trkpt lat="44.84309" lon="5.35061">
        <ele>1325.4</ele>
        <time>2021-10-08T10:45:03Z</time>
      </trkpt>
      <trkpt lat="44.84308" lon="5.35063">
        <ele>1325.4</ele>
        <time>2021-10-08T10:45:04Z</time>
      </trkpt>
      <trkpt lat="44.84306" lon="5.35063">
        <ele>1326.2</ele>
        <time>2021-10-08T10:45:05Z</time>
      </trkpt>
      <trkpt lat="44.84304" lon="5.35064">
        <ele>1326.6</ele>
        <time>2021-10-08T10:45:06Z</time>
      </trkpt>
      <trkpt lat="44.84302" lon="5.35063">
        <ele>1326.6</ele>
        <time>2021-10-08T10:45:07Z</time>
      </trkpt>
      <trkpt lat="44.843" lon="5.35062">
        <ele>1326.6</ele>
        <time>2021-10-08T10:45:08Z</time>
      </trkpt>
      <trkpt lat="44.84299" lon="5.35062">
        <ele>1326.6</ele>
        <time>2021-10-08T10:45:09Z</time>
      </trkpt>
      <trkpt lat="44.84297" lon="5.35061">
        <ele>1326.4</ele>
        <time>2021-10-08T10:45:10Z</time>
      </trkpt>
      <trkpt lat="44.84296" lon="5.35061">
        <ele>1326.4</ele>
        <time>2021-10-08T10:45:11Z</time>
      </trkpt>
      <trkpt lat="44.84294" lon="5.3506">
        <ele>1326.4</ele>
        <time>2021-10-08T10:45:12Z</time>
      </trkpt>
      <trkpt lat="44.84292" lon="5.3506">
        <ele>1327.2</ele>
        <time>2021-10-08T10:45:13Z</time>
      </trkpt>
      <trkpt lat="44.84291" lon="5.3506">
        <ele>1326.8</ele>
        <time>2021-10-08T10:45:14Z</time>
      </trkpt>
      <trkpt lat="44.84289" lon="5.3506">
        <ele>1326.8</ele>
        <time>2021-10-08T10:45:15Z</time>
      </trkpt>
      <trkpt lat="44.84288" lon="5.3506">
        <ele>1326.8</ele>
        <time>2021-10-08T10:45:16Z</time>
      </trkpt>
      <trkpt lat="44.84287" lon="5.3506">
        <ele>1327.8</ele>
        <time>2021-10-08T10:45:17Z</time>
      </trkpt>
      <trkpt lat="44.84286" lon="5.3506">
        <ele>1328.4</ele>
        <time>2021-10-08T10:45:18Z</time>
      </trkpt>
      <trkpt lat="44.84284" lon="5.3506">
        <ele>1328.4</ele>
        <time>2021-10-08T10:45:19Z</time>
      </trkpt>
      <trkpt lat="44.84282" lon="5.3506">
        <ele>1328.4</ele>
        <time>2021-10-08T10:45:20Z</time>
      </trkpt>
      <trkpt lat="44.8428" lon="5.3506">
        <ele>1328.8</ele>
        <time>2021-10-08T10:45:21Z</time>
      </trkpt>
      <trkpt lat="44.84279" lon="5.35059">
        <ele>1329</ele>
        <time>2021-10-08T10:45:22Z</time>
      </trkpt>
      <trkpt lat="44.84278" lon="5.35059">
        <ele>1329</ele>
        <time>2021-10-08T10:45:23Z</time>
      </trkpt>
      <trkpt lat="44.84277" lon="5.35059">
        <ele>1329</ele>
        <time>2021-10-08T10:45:24Z</time>
      </trkpt>
      <trkpt lat="44.84275" lon="5.35059">
        <ele>1329</ele>
        <time>2021-10-08T10:45:25Z</time>
      </trkpt>
      <trkpt lat="44.84273" lon="5.35058">
        <ele>1329.8</ele>
        <time>2021-10-08T10:45:26Z</time>
      </trkpt>
      <trkpt lat="44.84271" lon="5.35059">
        <ele>1329.8</ele>
        <time>2021-10-08T10:45:27Z</time>
      </trkpt>
      <trkpt lat="44.84268" lon="5.3506">
        <ele>1329.8</ele>
        <time>2021-10-08T10:45:28Z</time>
      </trkpt>
      <trkpt lat="44.84265" lon="5.35061">
        <ele>1330.8</ele>
        <time>2021-10-08T10:45:29Z</time>
      </trkpt>
      <trkpt lat="44.84262" lon="5.35062">
        <ele>1331.4</ele>
        <time>2021-10-08T10:45:30Z</time>
      </trkpt>
      <trkpt lat="44.84261" lon="5.35063">
        <ele>1331.4</ele>
        <time>2021-10-08T10:45:31Z</time>
      </trkpt>
      <trkpt lat="44.84259" lon="5.35063">
        <ele>1331.4</ele>
        <time>2021-10-08T10:45:32Z</time>
      </trkpt>
      <trkpt lat="44.84257" lon="5.35063">
        <ele>1331</ele>
        <time>2021-10-08T10:45:33Z</time>
      </trkpt>
      <trkpt lat="44.84255" lon="5.35063">
        <ele>1330.6</ele>
        <time>2021-10-08T10:45:34Z</time>
      </trkpt>
      <trkpt lat="44.84254" lon="5.35063">
        <ele>1330.6</ele>
        <time>2021-10-08T10:45:35Z</time>
      </trkpt>
      <trkpt lat="44.84252" lon="5.35063">
        <ele>1330.6</ele>
        <time>2021-10-08T10:45:36Z</time>
      </trkpt>
      <trkpt lat="44.84251" lon="5.35062">
        <ele>1331.6</ele>
        <time>2021-10-08T10:45:37Z</time>
      </trkpt>
      <trkpt lat="44.84249" lon="5.35062">
        <ele>1331.6</ele>
        <time>2021-10-08T10:45:38Z</time>
      </trkpt>
      <trkpt lat="44.84248" lon="5.35062">
        <ele>1331.6</ele>
        <time>2021-10-08T10:45:39Z</time>
      </trkpt>
      <trkpt lat="44.84246" lon="5.35063">
        <ele>1331.6</ele>
        <time>2021-10-08T10:45:40Z</time>
      </trkpt>
      <trkpt lat="44.84244" lon="5.35062">
        <ele>1332.2</ele>
        <time>2021-10-08T10:45:41Z</time>
      </trkpt>
      <trkpt lat="44.84243" lon="5.35062">
        <ele>1332.2</ele>
        <time>2021-10-08T10:45:42Z</time>
      </trkpt>
      <trkpt lat="44.84241" lon="5.35062">
        <ele>1332.2</ele>
        <time>2021-10-08T10:45:43Z</time>
      </trkpt>
      <trkpt lat="44.8424" lon="5.35062">
        <ele>1332.2</ele>
        <time>2021-10-08T10:45:44Z</time>
      </trkpt>
      <trkpt lat="44.84239" lon="5.35062">
        <ele>1332.2</ele>
        <time>2021-10-08T10:45:45Z</time>
      </trkpt>
      <trkpt lat="44.84238" lon="5.35062">
        <ele>1333.2</ele>
        <time>2021-10-08T10:45:46Z</time>
      </trkpt>
      <trkpt lat="44.84237" lon="5.35062">
        <ele>1333.2</ele>
        <time>2021-10-08T10:45:47Z</time>
      </trkpt>
      <trkpt lat="44.84236" lon="5.35062">
        <ele>1333.2</ele>
        <time>2021-10-08T10:45:48Z</time>
      </trkpt>
      <trkpt lat="44.84235" lon="5.35062">
        <ele>1333.2</ele>
        <time>2021-10-08T10:45:49Z</time>
      </trkpt>
      <trkpt lat="44.84234" lon="5.35062">
        <ele>1333.6</ele>
        <time>2021-10-08T10:45:50Z</time>
      </trkpt>
      <trkpt lat="44.84233" lon="5.35063">
        <ele>1333.6</ele>
        <time>2021-10-08T10:45:51Z</time>
      </trkpt>
      <trkpt lat="44.84232" lon="5.35063">
        <ele>1333.6</ele>
        <time>2021-10-08T10:45:52Z</time>
      </trkpt>
      <trkpt lat="44.8423" lon="5.35063">
        <ele>1334.2</ele>
        <time>2021-10-08T10:45:53Z</time>
      </trkpt>
      <trkpt lat="44.84229" lon="5.35064">
        <ele>1334.4</ele>
        <time>2021-10-08T10:45:54Z</time>
      </trkpt>
      <trkpt lat="44.84227" lon="5.35064">
        <ele>1334.4</ele>
        <time>2021-10-08T10:45:55Z</time>
      </trkpt>
      <trkpt lat="44.84225" lon="5.35065">
        <ele>1334.4</ele>
        <time>2021-10-08T10:45:56Z</time>
      </trkpt>
      <trkpt lat="44.84224" lon="5.35066">
        <ele>1334.4</ele>
        <time>2021-10-08T10:45:57Z</time>
      </trkpt>
      <trkpt lat="44.84222" lon="5.35067">
        <ele>1334.8</ele>
        <time>2021-10-08T10:45:58Z</time>
      </trkpt>
      <trkpt lat="44.84221" lon="5.35068">
        <ele>1334.8</ele>
        <time>2021-10-08T10:45:59Z</time>
      </trkpt>
      <trkpt lat="44.84219" lon="5.35069">
        <ele>1334.8</ele>
        <time>2021-10-08T10:46:00Z</time>
      </trkpt>
      <trkpt lat="44.84218" lon="5.3507">
        <ele>1334.8</ele>
        <time>2021-10-08T10:46:01Z</time>
      </trkpt>
      <trkpt lat="44.84217" lon="5.3507">
        <ele>1335.4</ele>
        <time>2021-10-08T10:46:02Z</time>
      </trkpt>
      <trkpt lat="44.84215" lon="5.35071">
        <ele>1335.4</ele>
        <time>2021-10-08T10:46:03Z</time>
      </trkpt>
      <trkpt lat="44.84214" lon="5.3507">
        <ele>1335.4</ele>
        <time>2021-10-08T10:46:04Z</time>
      </trkpt>
      <trkpt lat="44.84213" lon="5.3507">
        <ele>1335.4</ele>
        <time>2021-10-08T10:46:05Z</time>
      </trkpt>
      <trkpt lat="44.84212" lon="5.3507">
        <ele>1335.6</ele>
        <time>2021-10-08T10:46:06Z</time>
      </trkpt>
      <trkpt lat="44.84211" lon="5.35071">
        <ele>1335.6</ele>
        <time>2021-10-08T10:46:07Z</time>
      </trkpt>
      <trkpt lat="44.8421" lon="5.35071">
        <ele>1335.6</ele>
        <time>2021-10-08T10:46:08Z</time>
      </trkpt>
      <trkpt lat="44.84209" lon="5.35071">
        <ele>1336.2</ele>
        <time>2021-10-08T10:46:09Z</time>
      </trkpt>
      <trkpt lat="44.84207" lon="5.35072">
        <ele>1336.6</ele>
        <time>2021-10-08T10:46:10Z</time>
      </trkpt>
      <trkpt lat="44.84206" lon="5.35072">
        <ele>1336.6</ele>
        <time>2021-10-08T10:46:11Z</time>
      </trkpt>
      <trkpt lat="44.84204" lon="5.35073">
        <ele>1336.6</ele>
        <time>2021-10-08T10:46:12Z</time>
      </trkpt>
      <trkpt lat="44.84202" lon="5.35073">
        <ele>1337.4</ele>
        <time>2021-10-08T10:46:13Z</time>
      </trkpt>
      <trkpt lat="44.842" lon="5.35073">
        <ele>1337.4</ele>
        <time>2021-10-08T10:46:14Z</time>
      </trkpt>
      <trkpt lat="44.84199" lon="5.35074">
        <ele>1337.4</ele>
        <time>2021-10-08T10:46:15Z</time>
      </trkpt>
      <trkpt lat="44.84197" lon="5.35074">
        <ele>1337.4</ele>
        <time>2021-10-08T10:46:16Z</time>
      </trkpt>
      <trkpt lat="44.84196" lon="5.35075">
        <ele>1338.2</ele>
        <time>2021-10-08T10:46:17Z</time>
      </trkpt>
      <trkpt lat="44.84195" lon="5.35075">
        <ele>1338</ele>
        <time>2021-10-08T10:46:18Z</time>
      </trkpt>
      <trkpt lat="44.84194" lon="5.35077">
        <ele>1338</ele>
        <time>2021-10-08T10:46:19Z</time>
      </trkpt>
      <trkpt lat="44.84192" lon="5.35078">
        <ele>1338</ele>
        <time>2021-10-08T10:46:20Z</time>
      </trkpt>
      <trkpt lat="44.84191" lon="5.35078">
        <ele>1338.4</ele>
        <time>2021-10-08T10:46:21Z</time>
      </trkpt>
      <trkpt lat="44.8419" lon="5.35079">
        <ele>1339.2</ele>
        <time>2021-10-08T10:46:22Z</time>
      </trkpt>
      <trkpt lat="44.84189" lon="5.3508">
        <ele>1339.2</ele>
        <time>2021-10-08T10:46:23Z</time>
      </trkpt>
      <trkpt lat="44.84187" lon="5.35079">
        <ele>1339.2</ele>
        <time>2021-10-08T10:46:24Z</time>
      </trkpt>
      <trkpt lat="44.84186" lon="5.35079">
        <ele>1338.8</ele>
        <time>2021-10-08T10:46:25Z</time>
      </trkpt>
      <trkpt lat="44.84185" lon="5.35079">
        <ele>1339</ele>
        <time>2021-10-08T10:46:26Z</time>
      </trkpt>
      <trkpt lat="44.84183" lon="5.35079">
        <ele>1339</ele>
        <time>2021-10-08T10:46:27Z</time>
      </trkpt>
      <trkpt lat="44.84182" lon="5.3508">
        <ele>1339</ele>
        <time>2021-10-08T10:46:28Z</time>
      </trkpt>
      <trkpt lat="44.84181" lon="5.35081">
        <ele>1340</ele>
        <time>2021-10-08T10:46:29Z</time>
      </trkpt>
      <trkpt lat="44.84179" lon="5.35082">
        <ele>1339.8</ele>
        <time>2021-10-08T10:46:30Z</time>
      </trkpt>
      <trkpt lat="44.84177" lon="5.35082">
        <ele>1339.8</ele>
        <time>2021-10-08T10:46:31Z</time>
      </trkpt>
      <trkpt lat="44.84175" lon="5.35082">
        <ele>1339.8</ele>
        <time>2021-10-08T10:46:32Z</time>
      </trkpt>
      <trkpt lat="44.84173" lon="5.35082">
        <ele>1339.8</ele>
        <time>2021-10-08T10:46:33Z</time>
      </trkpt>
      <trkpt lat="44.84172" lon="5.35082">
        <ele>1340.4</ele>
        <time>2021-10-08T10:46:34Z</time>
      </trkpt>
      <trkpt lat="44.8417" lon="5.35082">
        <ele>1340.4</ele>
        <time>2021-10-08T10:46:35Z</time>
      </trkpt>
      <trkpt lat="44.84169" lon="5.35083">
        <ele>1340.4</ele>
        <time>2021-10-08T10:46:36Z</time>
      </trkpt>
      <trkpt lat="44.84167" lon="5.35083">
        <ele>1340.4</ele>
        <time>2021-10-08T10:46:37Z</time>
      </trkpt>
      <trkpt lat="44.84165" lon="5.35083">
        <ele>1340.8</ele>
        <time>2021-10-08T10:46:38Z</time>
      </trkpt>
      <trkpt lat="44.84164" lon="5.35084">
        <ele>1340.8</ele>
        <time>2021-10-08T10:46:39Z</time>
      </trkpt>
      <trkpt lat="44.84162" lon="5.35083">
        <ele>1340.8</ele>
        <time>2021-10-08T10:46:40Z</time>
      </trkpt>
      <trkpt lat="44.84161" lon="5.35083">
        <ele>1340.8</ele>
        <time>2021-10-08T10:46:41Z</time>
      </trkpt>
      <trkpt lat="44.8416" lon="5.35083">
        <ele>1341</ele>
        <time>2021-10-08T10:46:42Z</time>
      </trkpt>
      <trkpt lat="44.84158" lon="5.35083">
        <ele>1341</ele>
        <time>2021-10-08T10:46:43Z</time>
      </trkpt>
      <trkpt lat="44.84157" lon="5.35083">
        <ele>1341</ele>
        <time>2021-10-08T10:46:44Z</time>
      </trkpt>
      <trkpt lat="44.84155" lon="5.35084">
        <ele>1341</ele>
        <time>2021-10-08T10:46:45Z</time>
      </trkpt>
      <trkpt lat="44.84153" lon="5.35084">
        <ele>1341.6</ele>
        <time>2021-10-08T10:46:46Z</time>
      </trkpt>
      <trkpt lat="44.84152" lon="5.35083">
        <ele>1341.6</ele>
        <time>2021-10-08T10:46:47Z</time>
      </trkpt>
      <trkpt lat="44.8415" lon="5.35084">
        <ele>1341.6</ele>
        <time>2021-10-08T10:46:48Z</time>
      </trkpt>
      <trkpt lat="44.84148" lon="5.35085">
        <ele>1342.4</ele>
        <time>2021-10-08T10:46:49Z</time>
      </trkpt>
      <trkpt lat="44.84147" lon="5.35085">
        <ele>1342.2</ele>
        <time>2021-10-08T10:46:50Z</time>
      </trkpt>
      <trkpt lat="44.84145" lon="5.35085">
        <ele>1342.2</ele>
        <time>2021-10-08T10:46:51Z</time>
      </trkpt>
      <trkpt lat="44.84144" lon="5.35086">
        <ele>1342.2</ele>
        <time>2021-10-08T10:46:52Z</time>
      </trkpt>
      <trkpt lat="44.84142" lon="5.35087">
        <ele>1342.8</ele>
        <time>2021-10-08T10:46:53Z</time>
      </trkpt>
      <trkpt lat="44.84141" lon="5.35088">
        <ele>1343.2</ele>
        <time>2021-10-08T10:46:54Z</time>
      </trkpt>
      <trkpt lat="44.84138" lon="5.35089">
        <ele>1343.2</ele>
        <time>2021-10-08T10:46:55Z</time>
      </trkpt>
      <trkpt lat="44.84137" lon="5.3509">
        <ele>1343.2</ele>
        <time>2021-10-08T10:46:56Z</time>
      </trkpt>
      <trkpt lat="44.84135" lon="5.35092">
        <ele>1343.2</ele>
        <time>2021-10-08T10:46:57Z</time>
      </trkpt>
      <trkpt lat="44.84133" lon="5.35093">
        <ele>1342.8</ele>
        <time>2021-10-08T10:46:58Z</time>
      </trkpt>
      <trkpt lat="44.84133" lon="5.35094">
        <ele>1342.8</ele>
        <time>2021-10-08T10:46:59Z</time>
      </trkpt>
      <trkpt lat="44.84132" lon="5.35095">
        <ele>1342.8</ele>
        <time>2021-10-08T10:47:00Z</time>
      </trkpt>
      <trkpt lat="44.84131" lon="5.35096">
        <ele>1343.4</ele>
        <time>2021-10-08T10:47:01Z</time>
      </trkpt>
      <trkpt lat="44.8413" lon="5.35096">
        <ele>1343.4</ele>
        <time>2021-10-08T10:47:02Z</time>
      </trkpt>
      <trkpt lat="44.8413" lon="5.35097">
        <ele>1343.4</ele>
        <time>2021-10-08T10:47:03Z</time>
      </trkpt>
      <trkpt lat="44.84129" lon="5.35098">
        <ele>1343.4</ele>
        <time>2021-10-08T10:47:04Z</time>
      </trkpt>
      <trkpt lat="44.84129" lon="5.35099">
        <ele>1343.4</ele>
        <time>2021-10-08T10:47:05Z</time>
      </trkpt>
      <trkpt lat="44.84128" lon="5.351">
        <ele>1344</ele>
        <time>2021-10-08T10:47:06Z</time>
      </trkpt>
      <trkpt lat="44.84097" lon="5.35196">
        <ele>1345.6</ele>
        <time>2021-10-08T10:50:10Z</time>
      </trkpt>
      <trkpt lat="44.84096" lon="5.35198">
        <ele>1345.6</ele>
        <time>2021-10-08T10:50:11Z</time>
      </trkpt>
      <trkpt lat="44.84095" lon="5.352">
        <ele>1345.6</ele>
        <time>2021-10-08T10:50:12Z</time>
      </trkpt>
      <trkpt lat="44.84094" lon="5.35202">
        <ele>1345.4</ele>
        <time>2021-10-08T10:50:13Z</time>
      </trkpt>
      <trkpt lat="44.84093" lon="5.35204">
        <ele>1345.2</ele>
        <time>2021-10-08T10:50:14Z</time>
      </trkpt>
      <trkpt lat="44.84091" lon="5.35206">
        <ele>1345.2</ele>
        <time>2021-10-08T10:50:15Z</time>
      </trkpt>
      <trkpt lat="44.8409" lon="5.35207">
        <ele>1345.2</ele>
        <time>2021-10-08T10:50:16Z</time>
      </trkpt>
      <trkpt lat="44.84089" lon="5.35209">
        <ele>1345.2</ele>
        <time>2021-10-08T10:50:17Z</time>
      </trkpt>
      <trkpt lat="44.84088" lon="5.35212">
        <ele>1345.4</ele>
        <time>2021-10-08T10:50:18Z</time>
      </trkpt>
      <trkpt lat="44.84088" lon="5.35212">
        <ele>1345.4</ele>
        <time>2021-10-08T10:50:19Z</time>
      </trkpt>
      <trkpt lat="44.84087" lon="5.35213">
        <ele>1345.4</ele>
        <time>2021-10-08T10:50:20Z</time>
      </trkpt>
      <trkpt lat="44.84087" lon="5.35214">
        <ele>1345.4</ele>
        <time>2021-10-08T10:50:21Z</time>
      </trkpt>
      <trkpt lat="44.84086" lon="5.35216">
        <ele>1345.8</ele>
        <time>2021-10-08T10:50:22Z</time>
      </trkpt>
      <trkpt lat="44.84085" lon="5.35218">
        <ele>1345.8</ele>
        <time>2021-10-08T10:50:23Z</time>
      </trkpt>
      <trkpt lat="44.84084" lon="5.35219">
        <ele>1345.8</ele>
        <time>2021-10-08T10:50:24Z</time>
      </trkpt>
      <trkpt lat="44.84082" lon="5.3522">
        <ele>1345.6</ele>
        <time>2021-10-08T10:50:25Z</time>
      </trkpt>
      <trkpt lat="44.8408" lon="5.35221">
        <ele>1345.4</ele>
        <time>2021-10-08T10:50:26Z</time>
      </trkpt>
      <trkpt lat="44.84078" lon="5.35223">
        <ele>1345.4</ele>
        <time>2021-10-08T10:50:27Z</time>
      </trkpt>
      <trkpt lat="44.84076" lon="5.35224">
        <ele>1345.4</ele>
        <time>2021-10-08T10:50:28Z</time>
      </trkpt>
      <trkpt lat="44.84074" lon="5.35226">
        <ele>1345.4</ele>
        <time>2021-10-08T10:50:29Z</time>
      </trkpt>
      <trkpt lat="44.84071" lon="5.35227">
        <ele>1345.6</ele>
        <time>2021-10-08T10:50:30Z</time>
      </trkpt>
      <trkpt lat="44.84069" lon="5.35228">
        <ele>1345.6</ele>
        <time>2021-10-08T10:50:31Z</time>
      </trkpt>
      <trkpt lat="44.84066" lon="5.35229">
        <ele>1345.6</ele>
        <time>2021-10-08T10:50:32Z</time>
      </trkpt>
      <trkpt lat="44.84064" lon="5.3523">
        <ele>1345.6</ele>
        <time>2021-10-08T10:50:33Z</time>
      </trkpt>
      <trkpt lat="44.84062" lon="5.35231">
        <ele>1345.2</ele>
        <time>2021-10-08T10:50:34Z</time>
      </trkpt>
      <trkpt lat="44.8406" lon="5.35232">
        <ele>1345.2</ele>
        <time>2021-10-08T10:50:35Z</time>
      </trkpt>
      <trkpt lat="44.84059" lon="5.35232">
        <ele>1345.2</ele>
        <time>2021-10-08T10:50:36Z</time>
      </trkpt>
      <trkpt lat="44.84058" lon="5.35232">
        <ele>1345.2</ele>
        <time>2021-10-08T10:50:37Z</time>
      </trkpt>
      <trkpt lat="44.84056" lon="5.35232">
        <ele>1344.8</ele>
        <time>2021-10-08T10:50:38Z</time>
      </trkpt>
      <trkpt lat="44.84054" lon="5.35232">
        <ele>1344.8</ele>
        <time>2021-10-08T10:50:39Z</time>
      </trkpt>
      <trkpt lat="44.84052" lon="5.35233">
        <ele>1344.8</ele>
        <time>2021-10-08T10:50:40Z</time>
      </trkpt>
      <trkpt lat="44.8405" lon="5.35234">
        <ele>1344.8</ele>
        <time>2021-10-08T10:50:41Z</time>
      </trkpt>
      <trkpt lat="44.84048" lon="5.35236">
        <ele>1344.8</ele>
        <time>2021-10-08T10:50:42Z</time>
      </trkpt>
      <trkpt lat="44.84046" lon="5.35237">
        <ele>1344.8</ele>
        <time>2021-10-08T10:50:43Z</time>
      </trkpt>
      <trkpt lat="44.84045" lon="5.35238">
        <ele>1344.8</ele>
        <time>2021-10-08T10:50:44Z</time>
      </trkpt>
      <trkpt lat="44.84043" lon="5.3524">
        <ele>1344.8</ele>
        <time>2021-10-08T10:50:45Z</time>
      </trkpt>
      <trkpt lat="44.84041" lon="5.35241">
        <ele>1344.6</ele>
        <time>2021-10-08T10:50:46Z</time>
      </trkpt>
      <trkpt lat="44.84039" lon="5.35242">
        <ele>1344.6</ele>
        <time>2021-10-08T10:50:47Z</time>
      </trkpt>
      <trkpt lat="44.84036" lon="5.35244">
        <ele>1344.6</ele>
        <time>2021-10-08T10:50:48Z</time>
      </trkpt>
      <trkpt lat="44.84034" lon="5.35245">
        <ele>1344.6</ele>
        <time>2021-10-08T10:50:49Z</time>
      </trkpt>
      <trkpt lat="44.84033" lon="5.35246">
        <ele>1344.8</ele>
        <time>2021-10-08T10:50:50Z</time>
      </trkpt>
      <trkpt lat="44.84032" lon="5.35246">
        <ele>1344.8</ele>
        <time>2021-10-08T10:50:51Z</time>
      </trkpt>
      <trkpt lat="44.8403" lon="5.35248">
        <ele>1344.8</ele>
        <time>2021-10-08T10:50:52Z</time>
      </trkpt>
      <trkpt lat="44.84029" lon="5.35248">
        <ele>1344.8</ele>
        <time>2021-10-08T10:50:53Z</time>
      </trkpt>
      <trkpt lat="44.84028" lon="5.35249">
        <ele>1344.2</ele>
        <time>2021-10-08T10:50:54Z</time>
      </trkpt>
      <trkpt lat="44.84026" lon="5.3525">
        <ele>1344.2</ele>
        <time>2021-10-08T10:50:55Z</time>
      </trkpt>
      <trkpt lat="44.84024" lon="5.35252">
        <ele>1344.2</ele>
        <time>2021-10-08T10:50:56Z</time>
      </trkpt>
      <trkpt lat="44.84023" lon="5.35253">
        <ele>1344.6</ele>
        <time>2021-10-08T10:50:57Z</time>
      </trkpt>
      <trkpt lat="44.84021" lon="5.35254">
        <ele>1344.4</ele>
        <time>2021-10-08T10:50:58Z</time>
      </trkpt>
      <trkpt lat="44.84019" lon="5.35255">
        <ele>1344.4</ele>
        <time>2021-10-08T10:50:59Z</time>
      </trkpt>
      <trkpt lat="44.84016" lon="5.35257">
        <ele>1344.4</ele>
        <time>2021-10-08T10:51:00Z</time>
      </trkpt>
      <trkpt lat="44.84012" lon="5.35258">
        <ele>1344.4</ele>
        <time>2021-10-08T10:51:01Z</time>
      </trkpt>
      <trkpt lat="44.84009" lon="5.35259">
        <ele>1344.4</ele>
        <time>2021-10-08T10:51:02Z</time>
      </trkpt>
      <trkpt lat="44.84005" lon="5.3526">
        <ele>1344.4</ele>
        <time>2021-10-08T10:51:03Z</time>
      </trkpt>
      <trkpt lat="44.84003" lon="5.35261">
        <ele>1344.4</ele>
        <time>2021-10-08T10:51:04Z</time>
      </trkpt>
      <trkpt lat="44.84001" lon="5.35262">
        <ele>1344.4</ele>
        <time>2021-10-08T10:51:05Z</time>
      </trkpt>
      <trkpt lat="44.83999" lon="5.35262">
        <ele>1344.8</ele>
        <time>2021-10-08T10:51:06Z</time>
      </trkpt>
      <trkpt lat="44.83998" lon="5.35263">
        <ele>1344.8</ele>
        <time>2021-10-08T10:51:07Z</time>
      </trkpt>
      <trkpt lat="44.83996" lon="5.35263">
        <ele>1344.8</ele>
        <time>2021-10-08T10:51:08Z</time>
      </trkpt>
      <trkpt lat="44.83995" lon="5.35263">
        <ele>1344.6</ele>
        <time>2021-10-08T10:51:09Z</time>
      </trkpt>
      <trkpt lat="44.83994" lon="5.35263">
        <ele>1344.4</ele>
        <time>2021-10-08T10:51:10Z</time>
      </trkpt>
      <trkpt lat="44.83992" lon="5.35263">
        <ele>1344.4</ele>
        <time>2021-10-08T10:51:11Z</time>
      </trkpt>
      <trkpt lat="44.83991" lon="5.35263">
        <ele>1344.4</ele>
        <time>2021-10-08T10:51:12Z</time>
      </trkpt>
      <trkpt lat="44.83989" lon="5.35264">
        <ele>1344.4</ele>
        <time>2021-10-08T10:51:13Z</time>
      </trkpt>
      <trkpt lat="44.83988" lon="5.35264">
        <ele>1344.2</ele>
        <time>2021-10-08T10:51:14Z</time>
      </trkpt>
      <trkpt lat="44.83987" lon="5.35264">
        <ele>1344.2</ele>
        <time>2021-10-08T10:51:15Z</time>
      </trkpt>
      <trkpt lat="44.83985" lon="5.35265">
        <ele>1344.2</ele>
        <time>2021-10-08T10:51:16Z</time>
      </trkpt>
      <trkpt lat="44.83984" lon="5.35266">
        <ele>1344.4</ele>
        <time>2021-10-08T10:51:17Z</time>
      </trkpt>
      <trkpt lat="44.83982" lon="5.35267">
        <ele>1343.8</ele>
        <time>2021-10-08T10:51:18Z</time>
      </trkpt>
      <trkpt lat="44.8398" lon="5.35268">
        <ele>1343.8</ele>
        <time>2021-10-08T10:51:19Z</time>
      </trkpt>
      <trkpt lat="44.83978" lon="5.35269">
        <ele>1343.8</ele>
        <time>2021-10-08T10:51:20Z</time>
      </trkpt>
      <trkpt lat="44.83977" lon="5.35269">
        <ele>1344.2</ele>
        <time>2021-10-08T10:51:21Z</time>
      </trkpt>
      <trkpt lat="44.83975" lon="5.35269">
        <ele>1344</ele>
        <time>2021-10-08T10:51:22Z</time>
      </trkpt>
      <trkpt lat="44.83974" lon="5.3527">
        <ele>1344</ele>
        <time>2021-10-08T10:51:23Z</time>
      </trkpt>
      <trkpt lat="44.83973" lon="5.3527">
        <ele>1344</ele>
        <time>2021-10-08T10:51:24Z</time>
      </trkpt>
      <trkpt lat="44.83971" lon="5.3527">
        <ele>1344</ele>
        <time>2021-10-08T10:51:25Z</time>
      </trkpt>
      <trkpt lat="44.83968" lon="5.3527">
        <ele>1343.6</ele>
        <time>2021-10-08T10:51:26Z</time>
      </trkpt>
      <trkpt lat="44.83965" lon="5.35271">
        <ele>1343.6</ele>
        <time>2021-10-08T10:51:27Z</time>
      </trkpt>
      <trkpt lat="44.83962" lon="5.35272">
        <ele>1343.6</ele>
        <time>2021-10-08T10:51:28Z</time>
      </trkpt>
      <trkpt lat="44.83958" lon="5.35272">
        <ele>1343.6</ele>
        <time>2021-10-08T10:51:29Z</time>
      </trkpt>
      <trkpt lat="44.83953" lon="5.35273">
        <ele>1342.6</ele>
        <time>2021-10-08T10:51:30Z</time>
      </trkpt>
      <trkpt lat="44.83949" lon="5.35273">
        <ele>1342.6</ele>
        <time>2021-10-08T10:51:31Z</time>
      </trkpt>
      <trkpt lat="44.83945" lon="5.35272">
        <ele>1342.6</ele>
        <time>2021-10-08T10:51:32Z</time>
      </trkpt>
      <trkpt lat="44.83941" lon="5.35272">
        <ele>1342.6</ele>
        <time>2021-10-08T10:51:33Z</time>
      </trkpt>
      <trkpt lat="44.83936" lon="5.35274">
        <ele>1342</ele>
        <time>2021-10-08T10:51:34Z</time>
      </trkpt>
      <trkpt lat="44.83931" lon="5.35273">
        <ele>1342</ele>
        <time>2021-10-08T10:51:35Z</time>
      </trkpt>
      <trkpt lat="44.83926" lon="5.35273">
        <ele>1342</ele>
        <time>2021-10-08T10:51:36Z</time>
      </trkpt>
      <trkpt lat="44.83921" lon="5.35272">
        <ele>1342</ele>
        <time>2021-10-08T10:51:37Z</time>
      </trkpt>
      <trkpt lat="44.83916" lon="5.3527">
        <ele>1341.8</ele>
        <time>2021-10-08T10:51:38Z</time>
      </trkpt>
      <trkpt lat="44.83911" lon="5.35269">
        <ele>1341.8</ele>
        <time>2021-10-08T10:51:39Z</time>
      </trkpt>
      <trkpt lat="44.83907" lon="5.35267">
        <ele>1341.8</ele>
        <time>2021-10-08T10:51:40Z</time>
      </trkpt>
      <trkpt lat="44.83901" lon="5.35267">
        <ele>1340.8</ele>
        <time>2021-10-08T10:51:41Z</time>
      </trkpt>
      <trkpt lat="44.83896" lon="5.35264">
        <ele>1341.6</ele>
        <time>2021-10-08T10:51:42Z</time>
      </trkpt>
      <trkpt lat="44.83891" lon="5.35262">
        <ele>1341.6</ele>
        <time>2021-10-08T10:51:43Z</time>
      </trkpt>
      <trkpt lat="44.83885" lon="5.35261">
        <ele>1341.6</ele>
        <time>2021-10-08T10:51:44Z</time>
      </trkpt>
      <trkpt lat="44.8388" lon="5.3526">
        <ele>1341</ele>
        <time>2021-10-08T10:51:45Z</time>
      </trkpt>
      <trkpt lat="44.83875" lon="5.35259">
        <ele>1341.2</ele>
        <time>2021-10-08T10:51:46Z</time>
      </trkpt>
      <trkpt lat="44.8387" lon="5.35258">
        <ele>1341.2</ele>
        <time>2021-10-08T10:51:47Z</time>
      </trkpt>
      <trkpt lat="44.83866" lon="5.35257">
        <ele>1341.2</ele>
        <time>2021-10-08T10:51:48Z</time>
      </trkpt>
      <trkpt lat="44.83861" lon="5.35256">
        <ele>1341.2</ele>
        <time>2021-10-08T10:51:49Z</time>
      </trkpt>
      <trkpt lat="44.83855" lon="5.35254">
        <ele>1342</ele>
        <time>2021-10-08T10:51:50Z</time>
      </trkpt>
      <trkpt lat="44.83849" lon="5.35253">
        <ele>1342</ele>
        <time>2021-10-08T10:51:51Z</time>
      </trkpt>
      <trkpt lat="44.83844" lon="5.35249">
        <ele>1342</ele>
        <time>2021-10-08T10:51:52Z</time>
      </trkpt>
      <trkpt lat="44.83838" lon="5.35246">
        <ele>1341</ele>
        <time>2021-10-08T10:51:53Z</time>
      </trkpt>
      <trkpt lat="44.83833" lon="5.35243">
        <ele>1340.6</ele>
        <time>2021-10-08T10:51:54Z</time>
      </trkpt>
      <trkpt lat="44.83829" lon="5.3524">
        <ele>1340.6</ele>
        <time>2021-10-08T10:51:55Z</time>
      </trkpt>
      <trkpt lat="44.83823" lon="5.35238">
        <ele>1340.6</ele>
        <time>2021-10-08T10:51:56Z</time>
      </trkpt>
      <trkpt lat="44.83817" lon="5.35236">
        <ele>1340.6</ele>
        <time>2021-10-08T10:51:57Z</time>
      </trkpt>
      <trkpt lat="44.83812" lon="5.35232">
        <ele>1340.6</ele>
        <time>2021-10-08T10:51:58Z</time>
      </trkpt>
      <trkpt lat="44.83807" lon="5.35228">
        <ele>1340.6</ele>
        <time>2021-10-08T10:51:59Z</time>
      </trkpt>
      <trkpt lat="44.83802" lon="5.35224">
        <ele>1340.6</ele>
        <time>2021-10-08T10:52:00Z</time>
      </trkpt>
      <trkpt lat="44.83797" lon="5.3522">
        <ele>1339.6</ele>
        <time>2021-10-08T10:52:01Z</time>
      </trkpt>
      <trkpt lat="44.83792" lon="5.35214">
        <ele>1339</ele>
        <time>2021-10-08T10:52:02Z</time>
      </trkpt>
      <trkpt lat="44.83787" lon="5.35208">
        <ele>1339</ele>
        <time>2021-10-08T10:52:03Z</time>
      </trkpt>
      <trkpt lat="44.83781" lon="5.35201">
        <ele>1339</ele>
        <time>2021-10-08T10:52:04Z</time>
      </trkpt>
      <trkpt lat="44.83777" lon="5.35194">
        <ele>1338</ele>
        <time>2021-10-08T10:52:05Z</time>
      </trkpt>
      <trkpt lat="44.83773" lon="5.35186">
        <ele>1338.2</ele>
        <time>2021-10-08T10:52:06Z</time>
      </trkpt>
      <trkpt lat="44.83769" lon="5.35179">
        <ele>1338.2</ele>
        <time>2021-10-08T10:52:07Z</time>
      </trkpt>
      <trkpt lat="44.83766" lon="5.35172">
        <ele>1338.2</ele>
        <time>2021-10-08T10:52:08Z</time>
      </trkpt>
      <trkpt lat="44.83763" lon="5.35165">
        <ele>1338.2</ele>
        <time>2021-10-08T10:52:09Z</time>
      </trkpt>
      <trkpt lat="44.8376" lon="5.35159">
        <ele>1338.2</ele>
        <time>2021-10-08T10:52:10Z</time>
      </trkpt>
      <trkpt lat="44.83757" lon="5.35152">
        <ele>1338.2</ele>
        <time>2021-10-08T10:52:11Z</time>
      </trkpt>
      <trkpt lat="44.83754" lon="5.35146">
        <ele>1338.2</ele>
        <time>2021-10-08T10:52:12Z</time>
      </trkpt>
      <trkpt lat="44.83752" lon="5.35139">
        <ele>1337.2</ele>
        <time>2021-10-08T10:52:13Z</time>
      </trkpt>
      <trkpt lat="44.8375" lon="5.35131">
        <ele>1336.8</ele>
        <time>2021-10-08T10:52:14Z</time>
      </trkpt>
      <trkpt lat="44.83746" lon="5.35124">
        <ele>1336.8</ele>
        <time>2021-10-08T10:52:15Z</time>
      </trkpt>
      <trkpt lat="44.83743" lon="5.35117">
        <ele>1336.8</ele>
        <time>2021-10-08T10:52:16Z</time>
      </trkpt>
      <trkpt lat="44.8374" lon="5.3511">
        <ele>1336.8</ele>
        <time>2021-10-08T10:52:17Z</time>
      </trkpt>
      <trkpt lat="44.83736" lon="5.35103">
        <ele>1336.4</ele>
        <time>2021-10-08T10:52:18Z</time>
      </trkpt>
      <trkpt lat="44.83732" lon="5.35096">
        <ele>1336.4</ele>
        <time>2021-10-08T10:52:19Z</time>
      </trkpt>
      <trkpt lat="44.83727" lon="5.35088">
        <ele>1336.4</ele>
        <time>2021-10-08T10:52:20Z</time>
      </trkpt>
      <trkpt lat="44.83723" lon="5.35081">
        <ele>1335.6</ele>
        <time>2021-10-08T10:52:21Z</time>
      </trkpt>
      <trkpt lat="44.8372" lon="5.35074">
        <ele>1335.6</ele>
        <time>2021-10-08T10:52:22Z</time>
      </trkpt>
      <trkpt lat="44.83716" lon="5.35067">
        <ele>1335.6</ele>
        <time>2021-10-08T10:52:23Z</time>
      </trkpt>
      <trkpt lat="44.83712" lon="5.3506">
        <ele>1335.6</ele>
        <time>2021-10-08T10:52:24Z</time>
      </trkpt>
      <trkpt lat="44.83709" lon="5.35053">
        <ele>1334.8</ele>
        <time>2021-10-08T10:52:25Z</time>
      </trkpt>
      <trkpt lat="44.83705" lon="5.35046">
        <ele>1334.4</ele>
        <time>2021-10-08T10:52:26Z</time>
      </trkpt>
      <trkpt lat="44.83702" lon="5.35038">
        <ele>1334.4</ele>
        <time>2021-10-08T10:52:27Z</time>
      </trkpt>
      <trkpt lat="44.83699" lon="5.3503">
        <ele>1334.4</ele>
        <time>2021-10-08T10:52:28Z</time>
      </trkpt>
      <trkpt lat="44.83694" lon="5.35022">
        <ele>1333.4</ele>
        <time>2021-10-08T10:52:29Z</time>
      </trkpt>
      <trkpt lat="44.8369" lon="5.35013">
        <ele>1332.4</ele>
        <time>2021-10-08T10:52:30Z</time>
      </trkpt>
      <trkpt lat="44.83685" lon="5.35006">
        <ele>1332.4</ele>
        <time>2021-10-08T10:52:31Z</time>
      </trkpt>
      <trkpt lat="44.83678" lon="5.34999">
        <ele>1332.4</ele>
        <time>2021-10-08T10:52:32Z</time>
      </trkpt>
      <trkpt lat="44.83674" lon="5.34992">
        <ele>1331.4</ele>
        <time>2021-10-08T10:52:33Z</time>
      </trkpt>
      <trkpt lat="44.83668" lon="5.34986">
        <ele>1330.4</ele>
        <time>2021-10-08T10:52:34Z</time>
      </trkpt>
      <trkpt lat="44.83664" lon="5.34981">
        <ele>1330.4</ele>
        <time>2021-10-08T10:52:35Z</time>
      </trkpt>
      <trkpt lat="44.83658" lon="5.34977">
        <ele>1330.4</ele>
        <time>2021-10-08T10:52:36Z</time>
      </trkpt>
      <trkpt lat="44.83653" lon="5.34975">
        <ele>1330.4</ele>
        <time>2021-10-08T10:52:37Z</time>
      </trkpt>
      <trkpt lat="44.83648" lon="5.34975">
        <ele>1330.2</ele>
        <time>2021-10-08T10:52:38Z</time>
      </trkpt>
      <trkpt lat="44.83643" lon="5.34975">
        <ele>1330.2</ele>
        <time>2021-10-08T10:52:39Z</time>
      </trkpt>
      <trkpt lat="44.83639" lon="5.34978">
        <ele>1330.2</ele>
        <time>2021-10-08T10:52:40Z</time>
      </trkpt>
      <trkpt lat="44.83636" lon="5.34981">
        <ele>1330.2</ele>
        <time>2021-10-08T10:52:41Z</time>
      </trkpt>
      <trkpt lat="44.83633" lon="5.34986">
        <ele>1330.2</ele>
        <time>2021-10-08T10:52:42Z</time>
      </trkpt>
      <trkpt lat="44.83631" lon="5.34992">
        <ele>1329.6</ele>
        <time>2021-10-08T10:52:43Z</time>
      </trkpt>
      <trkpt lat="44.83629" lon="5.34996">
        <ele>1329.6</ele>
        <time>2021-10-08T10:52:44Z</time>
      </trkpt>
      <trkpt lat="44.8363" lon="5.35001">
        <ele>1329.6</ele>
        <time>2021-10-08T10:52:45Z</time>
      </trkpt>
      <trkpt lat="44.83631" lon="5.35004">
        <ele>1329.6</ele>
        <time>2021-10-08T10:52:46Z</time>
      </trkpt>
      <trkpt lat="44.83631" lon="5.35005">
        <ele>1329.6</ele>
        <time>2021-10-08T10:52:47Z</time>
      </trkpt>
      <trkpt lat="44.83631" lon="5.35005">
        <ele>1329.6</ele>
        <time>2021-10-08T10:52:48Z</time>
      </trkpt>
      <trkpt lat="44.83629" lon="5.34997">
        <ele>1330.4</ele>
        <time>2021-10-08T10:52:56Z</time>
      </trkpt>
      <trkpt lat="44.83629" lon="5.34995">
        <ele>1330.4</ele>
        <time>2021-10-08T10:52:57Z</time>
      </trkpt>
      <trkpt lat="44.83629" lon="5.34993">
        <ele>1330</ele>
        <time>2021-10-08T10:52:58Z</time>
      </trkpt>
      <trkpt lat="44.83628" lon="5.34991">
        <ele>1330</ele>
        <time>2021-10-08T10:52:59Z</time>
      </trkpt>
      <trkpt lat="44.83628" lon="5.3499">
        <ele>1330</ele>
        <time>2021-10-08T10:53:00Z</time>
      </trkpt>
      <trkpt lat="44.83628" lon="5.34988">
        <ele>1330.6</ele>
        <time>2021-10-08T10:53:01Z</time>
      </trkpt>
      <trkpt lat="44.83627" lon="5.34986">
        <ele>1330.4</ele>
        <time>2021-10-08T10:53:02Z</time>
      </trkpt>
      <trkpt lat="44.83627" lon="5.34985">
        <ele>1330.4</ele>
        <time>2021-10-08T10:53:03Z</time>
      </trkpt>
      <trkpt lat="44.83627" lon="5.34984">
        <ele>1330.4</ele>
        <time>2021-10-08T10:53:04Z</time>
      </trkpt>
      <trkpt lat="44.83629" lon="5.3499">
        <ele>1330.6</ele>
        <time>2021-10-08T10:56:36Z</time>
      </trkpt>
      <trkpt lat="44.8363" lon="5.34993">
        <ele>1330.6</ele>
        <time>2021-10-08T10:56:37Z</time>
      </trkpt>
      <trkpt lat="44.8363" lon="5.34996">
        <ele>1329.6</ele>
        <time>2021-10-08T10:56:38Z</time>
      </trkpt>
      <trkpt lat="44.83629" lon="5.34999">
        <ele>1329.6</ele>
        <time>2021-10-08T10:56:39Z</time>
      </trkpt>
      <trkpt lat="44.83628" lon="5.35003">
        <ele>1329.6</ele>
        <time>2021-10-08T10:56:40Z</time>
      </trkpt>
      <trkpt lat="44.83628" lon="5.35007">
        <ele>1329.6</ele>
        <time>2021-10-08T10:56:41Z</time>
      </trkpt>
      <trkpt lat="44.83629" lon="5.35013">
        <ele>1328.4</ele>
        <time>2021-10-08T10:56:42Z</time>
      </trkpt>
      <trkpt lat="44.83629" lon="5.35019">
        <ele>1328.4</ele>
        <time>2021-10-08T10:56:43Z</time>
      </trkpt>
      <trkpt lat="44.83629" lon="5.35026">
        <ele>1328.4</ele>
        <time>2021-10-08T10:56:44Z</time>
      </trkpt>
      <trkpt lat="44.8363" lon="5.35034">
        <ele>1327.4</ele>
        <time>2021-10-08T10:56:45Z</time>
      </trkpt>
      <trkpt lat="44.83631" lon="5.35042">
        <ele>1326.4</ele>
        <time>2021-10-08T10:56:46Z</time>
      </trkpt>
      <trkpt lat="44.8363" lon="5.3505">
        <ele>1326.4</ele>
        <time>2021-10-08T10:56:47Z</time>
      </trkpt>
      <trkpt lat="44.83631" lon="5.35058">
        <ele>1326.4</ele>
        <time>2021-10-08T10:56:48Z</time>
      </trkpt>
      <trkpt lat="44.83631" lon="5.35066">
        <ele>1326.4</ele>
        <time>2021-10-08T10:56:49Z</time>
      </trkpt>
      <trkpt lat="44.83632" lon="5.35073">
        <ele>1325.6</ele>
        <time>2021-10-08T10:56:50Z</time>
      </trkpt>
      <trkpt lat="44.83633" lon="5.35081">
        <ele>1325.6</ele>
        <time>2021-10-08T10:56:51Z</time>
      </trkpt>
      <trkpt lat="44.83634" lon="5.35088">
        <ele>1325.6</ele>
        <time>2021-10-08T10:56:52Z</time>
      </trkpt>
      <trkpt lat="44.83634" lon="5.35095">
        <ele>1324.6</ele>
        <time>2021-10-08T10:56:53Z</time>
      </trkpt>
      <trkpt lat="44.83636" lon="5.35101">
        <ele>1324.2</ele>
        <time>2021-10-08T10:56:54Z</time>
      </trkpt>
      <trkpt lat="44.83636" lon="5.35108">
        <ele>1324.2</ele>
        <time>2021-10-08T10:56:55Z</time>
      </trkpt>
      <trkpt lat="44.83637" lon="5.35115">
        <ele>1324.2</ele>
        <time>2021-10-08T10:56:56Z</time>
      </trkpt>
      <trkpt lat="44.83637" lon="5.35123">
        <ele>1323.2</ele>
        <time>2021-10-08T10:56:57Z</time>
      </trkpt>
      <trkpt lat="44.83637" lon="5.35131">
        <ele>1321.2</ele>
        <time>2021-10-08T10:56:58Z</time>
      </trkpt>
      <trkpt lat="44.83636" lon="5.35139">
        <ele>1321.2</ele>
        <time>2021-10-08T10:56:59Z</time>
      </trkpt>
      <trkpt lat="44.83634" lon="5.35147">
        <ele>1321.2</ele>
        <time>2021-10-08T10:57:00Z</time>
      </trkpt>
      <trkpt lat="44.83635" lon="5.35155">
        <ele>1320.2</ele>
        <time>2021-10-08T10:57:01Z</time>
      </trkpt>
      <trkpt lat="44.83635" lon="5.35163">
        <ele>1319.4</ele>
        <time>2021-10-08T10:57:02Z</time>
      </trkpt>
      <trkpt lat="44.83635" lon="5.35171">
        <ele>1319.4</ele>
        <time>2021-10-08T10:57:03Z</time>
      </trkpt>
      <trkpt lat="44.83636" lon="5.35179">
        <ele>1319.4</ele>
        <time>2021-10-08T10:57:04Z</time>
      </trkpt>
      <trkpt lat="44.83636" lon="5.35187">
        <ele>1318.4</ele>
        <time>2021-10-08T10:57:05Z</time>
      </trkpt>
      <trkpt lat="44.83635" lon="5.35195">
        <ele>1318.2</ele>
        <time>2021-10-08T10:57:06Z</time>
      </trkpt>
      <trkpt lat="44.83635" lon="5.35203">
        <ele>1318.2</ele>
        <time>2021-10-08T10:57:07Z</time>
      </trkpt>
      <trkpt lat="44.83634" lon="5.35211">
        <ele>1318.2</ele>
        <time>2021-10-08T10:57:08Z</time>
      </trkpt>
      <trkpt lat="44.83635" lon="5.3522">
        <ele>1317.2</ele>
        <time>2021-10-08T10:57:09Z</time>
      </trkpt>
      <trkpt lat="44.83634" lon="5.35229">
        <ele>1315</ele>
        <time>2021-10-08T10:57:10Z</time>
      </trkpt>
      <trkpt lat="44.83635" lon="5.35238">
        <ele>1315</ele>
        <time>2021-10-08T10:57:11Z</time>
      </trkpt>
      <trkpt lat="44.83633" lon="5.35248">
        <ele>1315</ele>
        <time>2021-10-08T10:57:12Z</time>
      </trkpt>
      <trkpt lat="44.83634" lon="5.35257">
        <ele>1314</ele>
        <time>2021-10-08T10:57:13Z</time>
      </trkpt>
      <trkpt lat="44.83635" lon="5.35267">
        <ele>1313.4</ele>
        <time>2021-10-08T10:57:14Z</time>
      </trkpt>
      <trkpt lat="44.83636" lon="5.35277">
        <ele>1313.4</ele>
        <time>2021-10-08T10:57:15Z</time>
      </trkpt>
      <trkpt lat="44.83638" lon="5.35286">
        <ele>1313.4</ele>
        <time>2021-10-08T10:57:16Z</time>
      </trkpt>
      <trkpt lat="44.83639" lon="5.35296">
        <ele>1312.4</ele>
        <time>2021-10-08T10:57:17Z</time>
      </trkpt>
      <trkpt lat="44.83639" lon="5.35307">
        <ele>1310</ele>
        <time>2021-10-08T10:57:18Z</time>
      </trkpt>
      <trkpt lat="44.83639" lon="5.35318">
        <ele>1310</ele>
        <time>2021-10-08T10:57:19Z</time>
      </trkpt>
      <trkpt lat="44.83641" lon="5.35329">
        <ele>1310</ele>
        <time>2021-10-08T10:57:20Z</time>
      </trkpt>
      <trkpt lat="44.8364" lon="5.3534">
        <ele>1310</ele>
        <time>2021-10-08T10:57:21Z</time>
      </trkpt>
      <trkpt lat="44.8364" lon="5.35353">
        <ele>1308.2</ele>
        <time>2021-10-08T10:57:22Z</time>
      </trkpt>
      <trkpt lat="44.83639" lon="5.35365">
        <ele>1308.2</ele>
        <time>2021-10-08T10:57:23Z</time>
      </trkpt>
      <trkpt lat="44.83639" lon="5.35376">
        <ele>1308.2</ele>
        <time>2021-10-08T10:57:24Z</time>
      </trkpt>
      <trkpt lat="44.83637" lon="5.35387">
        <ele>1307.2</ele>
        <time>2021-10-08T10:57:25Z</time>
      </trkpt>
      <trkpt lat="44.83637" lon="5.35398">
        <ele>1306.4</ele>
        <time>2021-10-08T10:57:26Z</time>
      </trkpt>
      <trkpt lat="44.83637" lon="5.35408">
        <ele>1306.4</ele>
        <time>2021-10-08T10:57:27Z</time>
      </trkpt>
      <trkpt lat="44.83635" lon="5.35419">
        <ele>1306.4</ele>
        <time>2021-10-08T10:57:28Z</time>
      </trkpt>
      <trkpt lat="44.83634" lon="5.35428">
        <ele>1305.4</ele>
        <time>2021-10-08T10:57:29Z</time>
      </trkpt>
      <trkpt lat="44.83631" lon="5.35437">
        <ele>1304</ele>
        <time>2021-10-08T10:57:30Z</time>
      </trkpt>
      <trkpt lat="44.83629" lon="5.35444">
        <ele>1304</ele>
        <time>2021-10-08T10:57:31Z</time>
      </trkpt>
      <trkpt lat="44.83626" lon="5.35452">
        <ele>1304</ele>
        <time>2021-10-08T10:57:32Z</time>
      </trkpt>
      <trkpt lat="44.83621" lon="5.3546">
        <ele>1303</ele>
        <time>2021-10-08T10:57:33Z</time>
      </trkpt>
      <trkpt lat="44.83615" lon="5.35468">
        <ele>1300.4</ele>
        <time>2021-10-08T10:57:34Z</time>
      </trkpt>
      <trkpt lat="44.83609" lon="5.35478">
        <ele>1300.4</ele>
        <time>2021-10-08T10:57:35Z</time>
      </trkpt>
      <trkpt lat="44.83602" lon="5.35487">
        <ele>1300.4</ele>
        <time>2021-10-08T10:57:36Z</time>
      </trkpt>
      <trkpt lat="44.83595" lon="5.35496">
        <ele>1299.4</ele>
        <time>2021-10-08T10:57:37Z</time>
      </trkpt>
      <trkpt lat="44.83587" lon="5.35507">
        <ele>1297.6</ele>
        <time>2021-10-08T10:57:38Z</time>
      </trkpt>
      <trkpt lat="44.8358" lon="5.35517">
        <ele>1297.6</ele>
        <time>2021-10-08T10:57:39Z</time>
      </trkpt>
      <trkpt lat="44.83573" lon="5.35525">
        <ele>1297.6</ele>
        <time>2021-10-08T10:57:40Z</time>
      </trkpt>
      <trkpt lat="44.83567" lon="5.35535">
        <ele>1296.6</ele>
        <time>2021-10-08T10:57:41Z</time>
      </trkpt>
      <trkpt lat="44.83561" lon="5.35543">
        <ele>1295.2</ele>
        <time>2021-10-08T10:57:42Z</time>
      </trkpt>
      <trkpt lat="44.83555" lon="5.35552">
        <ele>1295.2</ele>
        <time>2021-10-08T10:57:43Z</time>
      </trkpt>
      <trkpt lat="44.83549" lon="5.3556">
        <ele>1295.2</ele>
        <time>2021-10-08T10:57:44Z</time>
      </trkpt>
      <trkpt lat="44.83543" lon="5.35568">
        <ele>1294.2</ele>
        <time>2021-10-08T10:57:45Z</time>
      </trkpt>
      <trkpt lat="44.83537" lon="5.35576">
        <ele>1294</ele>
        <time>2021-10-08T10:57:46Z</time>
      </trkpt>
      <trkpt lat="44.83532" lon="5.35584">
        <ele>1294</ele>
        <time>2021-10-08T10:57:47Z</time>
      </trkpt>
      <trkpt lat="44.83527" lon="5.35592">
        <ele>1294</ele>
        <time>2021-10-08T10:57:48Z</time>
      </trkpt>
      <trkpt lat="44.83522" lon="5.35599">
        <ele>1293</ele>
        <time>2021-10-08T10:57:49Z</time>
      </trkpt>
      <trkpt lat="44.83517" lon="5.35607">
        <ele>1292.6</ele>
        <time>2021-10-08T10:57:50Z</time>
      </trkpt>
      <trkpt lat="44.83512" lon="5.35614">
        <ele>1292.6</ele>
        <time>2021-10-08T10:57:51Z</time>
      </trkpt>
      <trkpt lat="44.83507" lon="5.35623">
        <ele>1292.6</ele>
        <time>2021-10-08T10:57:52Z</time>
      </trkpt>
      <trkpt lat="44.83502" lon="5.35632">
        <ele>1291.6</ele>
        <time>2021-10-08T10:57:53Z</time>
      </trkpt>
      <trkpt lat="44.83498" lon="5.35642">
        <ele>1290.8</ele>
        <time>2021-10-08T10:57:54Z</time>
      </trkpt>
      <trkpt lat="44.83495" lon="5.35652">
        <ele>1290.8</ele>
        <time>2021-10-08T10:57:55Z</time>
      </trkpt>
      <trkpt lat="44.83492" lon="5.35661">
        <ele>1290.8</ele>
        <time>2021-10-08T10:57:56Z</time>
      </trkpt>
      <trkpt lat="44.8349" lon="5.3567">
        <ele>1290.2</ele>
        <time>2021-10-08T10:57:57Z</time>
      </trkpt>
      <trkpt lat="44.83487" lon="5.3568">
        <ele>1291</ele>
        <time>2021-10-08T10:57:58Z</time>
      </trkpt>
      <trkpt lat="44.83485" lon="5.35689">
        <ele>1291</ele>
        <time>2021-10-08T10:57:59Z</time>
      </trkpt>
      <trkpt lat="44.83481" lon="5.35698">
        <ele>1291</ele>
        <time>2021-10-08T10:58:00Z</time>
      </trkpt>
      <trkpt lat="44.83477" lon="5.35707">
        <ele>1290</ele>
        <time>2021-10-08T10:58:01Z</time>
      </trkpt>
      <trkpt lat="44.83473" lon="5.35717">
        <ele>1287.4</ele>
        <time>2021-10-08T10:58:02Z</time>
      </trkpt>
      <trkpt lat="44.83468" lon="5.35726">
        <ele>1287.4</ele>
        <time>2021-10-08T10:58:03Z</time>
      </trkpt>
      <trkpt lat="44.83462" lon="5.35734">
        <ele>1287.4</ele>
        <time>2021-10-08T10:58:04Z</time>
      </trkpt>
      <trkpt lat="44.83456" lon="5.35742">
        <ele>1287.4</ele>
        <time>2021-10-08T10:58:05Z</time>
      </trkpt>
      <trkpt lat="44.8345" lon="5.3575">
        <ele>1286</ele>
        <time>2021-10-08T10:58:06Z</time>
      </trkpt>
      <trkpt lat="44.83444" lon="5.35758">
        <ele>1286</ele>
        <time>2021-10-08T10:58:07Z</time>
      </trkpt>
      <trkpt lat="44.83438" lon="5.35766">
        <ele>1286</ele>
        <time>2021-10-08T10:58:08Z</time>
      </trkpt>
      <trkpt lat="44.83433" lon="5.35773">
        <ele>1285.4</ele>
        <time>2021-10-08T10:58:09Z</time>
      </trkpt>
      <trkpt lat="44.83428" lon="5.3578">
        <ele>1285</ele>
        <time>2021-10-08T10:58:10Z</time>
      </trkpt>
      <trkpt lat="44.83424" lon="5.35787">
        <ele>1285</ele>
        <time>2021-10-08T10:58:11Z</time>
      </trkpt>
      <trkpt lat="44.8342" lon="5.35796">
        <ele>1285</ele>
        <time>2021-10-08T10:58:12Z</time>
      </trkpt>
      <trkpt lat="44.83417" lon="5.35805">
        <ele>1284</ele>
        <time>2021-10-08T10:58:13Z</time>
      </trkpt>
      <trkpt lat="44.83415" lon="5.35813">
        <ele>1284</ele>
        <time>2021-10-08T10:58:14Z</time>
      </trkpt>
      <trkpt lat="44.83415" lon="5.35821">
        <ele>1284</ele>
        <time>2021-10-08T10:58:15Z</time>
      </trkpt>
      <trkpt lat="44.83414" lon="5.35827">
        <ele>1284</ele>
        <time>2021-10-08T10:58:16Z</time>
      </trkpt>
      <trkpt lat="44.83414" lon="5.35834">
        <ele>1284</ele>
        <time>2021-10-08T10:58:17Z</time>
      </trkpt>
      <trkpt lat="44.83414" lon="5.3584">
        <ele>1284.4</ele>
        <time>2021-10-08T10:58:18Z</time>
      </trkpt>
      <trkpt lat="44.83413" lon="5.35844">
        <ele>1284.4</ele>
        <time>2021-10-08T10:58:19Z</time>
      </trkpt>
      <trkpt lat="44.83413" lon="5.35847">
        <ele>1284.4</ele>
        <time>2021-10-08T10:58:20Z</time>
      </trkpt>
      <trkpt lat="44.83413" lon="5.35849">
        <ele>1284.8</ele>
        <time>2021-10-08T10:58:21Z</time>
      </trkpt>
      <trkpt lat="44.83412" lon="5.35851">
        <ele>1284.8</ele>
        <time>2021-10-08T10:58:22Z</time>
      </trkpt>
      <trkpt lat="44.83411" lon="5.35853">
        <ele>1284.8</ele>
        <time>2021-10-08T10:58:23Z</time>
      </trkpt>
      <trkpt lat="44.83411" lon="5.35856">
        <ele>1284.8</ele>
        <time>2021-10-08T10:58:24Z</time>
      </trkpt>
      <trkpt lat="44.8341" lon="5.3586">
        <ele>1284.8</ele>
        <time>2021-10-08T10:58:25Z</time>
      </trkpt>
      <trkpt lat="44.83409" lon="5.35863">
        <ele>1284.8</ele>
        <time>2021-10-08T10:58:26Z</time>
      </trkpt>
      <trkpt lat="44.83409" lon="5.35867">
        <ele>1284.8</ele>
        <time>2021-10-08T10:58:27Z</time>
      </trkpt>
      <trkpt lat="44.83409" lon="5.35872">
        <ele>1284.8</ele>
        <time>2021-10-08T10:58:28Z</time>
      </trkpt>
      <trkpt lat="44.8341" lon="5.35877">
        <ele>1284.4</ele>
        <time>2021-10-08T10:58:29Z</time>
      </trkpt>
      <trkpt lat="44.83412" lon="5.35881">
        <ele>1284.4</ele>
        <time>2021-10-08T10:58:30Z</time>
      </trkpt>
      <trkpt lat="44.83413" lon="5.35884">
        <ele>1284.4</ele>
        <time>2021-10-08T10:58:31Z</time>
      </trkpt>
      <trkpt lat="44.83415" lon="5.35886">
        <ele>1284.4</ele>
        <time>2021-10-08T10:58:32Z</time>
      </trkpt>
      <trkpt lat="44.83417" lon="5.35888">
        <ele>1284.4</ele>
        <time>2021-10-08T10:58:33Z</time>
      </trkpt>
      <trkpt lat="44.83419" lon="5.3589">
        <ele>1284.2</ele>
        <time>2021-10-08T10:58:34Z</time>
      </trkpt>
      <trkpt lat="44.83421" lon="5.35891">
        <ele>1284.2</ele>
        <time>2021-10-08T10:58:35Z</time>
      </trkpt>
      <trkpt lat="44.83424" lon="5.3589">
        <ele>1284.2</ele>
        <time>2021-10-08T10:58:36Z</time>
      </trkpt>
      <trkpt lat="44.83426" lon="5.35891">
        <ele>1284.2</ele>
        <time>2021-10-08T10:58:37Z</time>
      </trkpt>
      <trkpt lat="44.83427" lon="5.35891">
        <ele>1284.4</ele>
        <time>2021-10-08T10:58:38Z</time>
      </trkpt>
      <trkpt lat="44.83429" lon="5.35891">
        <ele>1284.4</ele>
        <time>2021-10-08T10:58:39Z</time>
      </trkpt>
      <trkpt lat="44.8343" lon="5.35891">
        <ele>1284.4</ele>
        <time>2021-10-08T10:58:40Z</time>
      </trkpt>
      <trkpt lat="44.83432" lon="5.35891">
        <ele>1284.4</ele>
        <time>2021-10-08T10:58:41Z</time>
      </trkpt>
      <trkpt lat="44.83433" lon="5.3589">
        <ele>1284</ele>
        <time>2021-10-08T10:58:42Z</time>
      </trkpt>
      <trkpt lat="44.83435" lon="5.35889">
        <ele>1284</ele>
        <time>2021-10-08T10:58:43Z</time>
      </trkpt>
      <trkpt lat="44.83436" lon="5.35889">
        <ele>1284</ele>
        <time>2021-10-08T10:58:44Z</time>
      </trkpt>
      <trkpt lat="44.83437" lon="5.35888">
        <ele>1284.2</ele>
        <time>2021-10-08T10:58:45Z</time>
      </trkpt>
      <trkpt lat="44.83438" lon="5.35889">
        <ele>1284.2</ele>
        <time>2021-10-08T10:58:46Z</time>
      </trkpt>
      <trkpt lat="44.83439" lon="5.35888">
        <ele>1284.2</ele>
        <time>2021-10-08T10:58:47Z</time>
      </trkpt>
      <trkpt lat="44.8344" lon="5.35888">
        <ele>1284.2</ele>
        <time>2021-10-08T10:58:48Z</time>
      </trkpt>
      <trkpt lat="44.83441" lon="5.35888">
        <ele>1284.2</ele>
        <time>2021-10-08T10:58:49Z</time>
      </trkpt>
      <trkpt lat="44.83442" lon="5.35888">
        <ele>1284.4</ele>
        <time>2021-10-08T10:58:50Z</time>
      </trkpt>
      <trkpt lat="44.83444" lon="5.35887">
        <ele>1284.4</ele>
        <time>2021-10-08T10:58:51Z</time>
      </trkpt>
      <trkpt lat="44.83445" lon="5.35886">
        <ele>1284.4</ele>
        <time>2021-10-08T10:58:52Z</time>
      </trkpt>
      <trkpt lat="44.83446" lon="5.35886">
        <ele>1284.2</ele>
        <time>2021-10-08T10:58:53Z</time>
      </trkpt>
      <trkpt lat="44.83448" lon="5.35886">
        <ele>1284.6</ele>
        <time>2021-10-08T10:58:54Z</time>
      </trkpt>
      <trkpt lat="44.83449" lon="5.35886">
        <ele>1284.6</ele>
        <time>2021-10-08T10:58:55Z</time>
      </trkpt>
      <trkpt lat="44.83451" lon="5.35885">
        <ele>1284.6</ele>
        <time>2021-10-08T10:58:56Z</time>
      </trkpt>
      <trkpt lat="44.83453" lon="5.35885">
        <ele>1284.8</ele>
        <time>2021-10-08T10:58:57Z</time>
      </trkpt>
      <trkpt lat="44.83455" lon="5.35884">
        <ele>1284.8</ele>
        <time>2021-10-08T10:58:58Z</time>
      </trkpt>
      <trkpt lat="44.83457" lon="5.35884">
        <ele>1284.8</ele>
        <time>2021-10-08T10:58:59Z</time>
      </trkpt>
      <trkpt lat="44.83459" lon="5.35884">
        <ele>1284.8</ele>
        <time>2021-10-08T10:59:00Z</time>
      </trkpt>
      <trkpt lat="44.83461" lon="5.35883">
        <ele>1285.8</ele>
        <time>2021-10-08T10:59:01Z</time>
      </trkpt>
      <trkpt lat="44.83462" lon="5.35883">
        <ele>1285.8</ele>
        <time>2021-10-08T10:59:02Z</time>
      </trkpt>
      <trkpt lat="44.83464" lon="5.35883">
        <ele>1285.8</ele>
        <time>2021-10-08T10:59:03Z</time>
      </trkpt>
      <trkpt lat="44.83465" lon="5.35882">
        <ele>1285.8</ele>
        <time>2021-10-08T10:59:04Z</time>
      </trkpt>
      <trkpt lat="44.83467" lon="5.35882">
        <ele>1286.6</ele>
        <time>2021-10-08T10:59:05Z</time>
      </trkpt>
      <trkpt lat="44.83469" lon="5.35881">
        <ele>1286.8</ele>
        <time>2021-10-08T10:59:06Z</time>
      </trkpt>
      <trkpt lat="44.83471" lon="5.3588">
        <ele>1286.8</ele>
        <time>2021-10-08T10:59:07Z</time>
      </trkpt>
      <trkpt lat="44.83474" lon="5.3588">
        <ele>1286.8</ele>
        <time>2021-10-08T10:59:08Z</time>
      </trkpt>
      <trkpt lat="44.83476" lon="5.35879">
        <ele>1287.6</ele>
        <time>2021-10-08T10:59:09Z</time>
      </trkpt>
      <trkpt lat="44.83478" lon="5.35878">
        <ele>1287.8</ele>
        <time>2021-10-08T10:59:10Z</time>
      </trkpt>
      <trkpt lat="44.8348" lon="5.35877">
        <ele>1287.8</ele>
        <time>2021-10-08T10:59:11Z</time>
      </trkpt>
      <trkpt lat="44.83482" lon="5.35875">
        <ele>1287.8</ele>
        <time>2021-10-08T10:59:12Z</time>
      </trkpt>
      <trkpt lat="44.83484" lon="5.35875">
        <ele>1288.4</ele>
        <time>2021-10-08T10:59:13Z</time>
      </trkpt>
      <trkpt lat="44.83487" lon="5.35872">
        <ele>1288.6</ele>
        <time>2021-10-08T10:59:14Z</time>
      </trkpt>
      <trkpt lat="44.83489" lon="5.3587">
        <ele>1288.6</ele>
        <time>2021-10-08T10:59:15Z</time>
      </trkpt>
      <trkpt lat="44.83491" lon="5.35868">
        <ele>1288.6</ele>
        <time>2021-10-08T10:59:16Z</time>
      </trkpt>
      <trkpt lat="44.83493" lon="5.35866">
        <ele>1288.6</ele>
        <time>2021-10-08T10:59:17Z</time>
      </trkpt>
      <trkpt lat="44.83495" lon="5.35864">
        <ele>1289.2</ele>
        <time>2021-10-08T10:59:18Z</time>
      </trkpt>
      <trkpt lat="44.83497" lon="5.35862">
        <ele>1289.2</ele>
        <time>2021-10-08T10:59:19Z</time>
      </trkpt>
      <trkpt lat="44.83499" lon="5.3586">
        <ele>1289.2</ele>
        <time>2021-10-08T10:59:20Z</time>
      </trkpt>
      <trkpt lat="44.835" lon="5.35859">
        <ele>1289.2</ele>
        <time>2021-10-08T10:59:21Z</time>
      </trkpt>
      <trkpt lat="44.83502" lon="5.35857">
        <ele>1289.6</ele>
        <time>2021-10-08T10:59:22Z</time>
      </trkpt>
      <trkpt lat="44.83505" lon="5.35855">
        <ele>1289.6</ele>
        <time>2021-10-08T10:59:23Z</time>
      </trkpt>
      <trkpt lat="44.83507" lon="5.35854">
        <ele>1289.6</ele>
        <time>2021-10-08T10:59:24Z</time>
      </trkpt>
      <trkpt lat="44.83509" lon="5.35851">
        <ele>1289.6</ele>
        <time>2021-10-08T10:59:25Z</time>
      </trkpt>
      <trkpt lat="44.83511" lon="5.35849">
        <ele>1290.2</ele>
        <time>2021-10-08T10:59:26Z</time>
      </trkpt>
      <trkpt lat="44.83513" lon="5.35848">
        <ele>1290.2</ele>
        <time>2021-10-08T10:59:27Z</time>
      </trkpt>
      <trkpt lat="44.83514" lon="5.35845">
        <ele>1290.2</ele>
        <time>2021-10-08T10:59:28Z</time>
      </trkpt>
      <trkpt lat="44.83516" lon="5.35843">
        <ele>1290.2</ele>
        <time>2021-10-08T10:59:29Z</time>
      </trkpt>
      <trkpt lat="44.83518" lon="5.35841">
        <ele>1290.2</ele>
        <time>2021-10-08T10:59:30Z</time>
      </trkpt>
      <trkpt lat="44.8352" lon="5.35838">
        <ele>1290.2</ele>
        <time>2021-10-08T10:59:31Z</time>
      </trkpt>
      <trkpt lat="44.83522" lon="5.35834">
        <ele>1290.2</ele>
        <time>2021-10-08T10:59:32Z</time>
      </trkpt>
      <trkpt lat="44.83524" lon="5.35831">
        <ele>1290.2</ele>
        <time>2021-10-08T10:59:33Z</time>
      </trkpt>
      <trkpt lat="44.83525" lon="5.35829">
        <ele>1290.6</ele>
        <time>2021-10-08T10:59:34Z</time>
      </trkpt>
      <trkpt lat="44.83527" lon="5.35826">
        <ele>1290.6</ele>
        <time>2021-10-08T10:59:35Z</time>
      </trkpt>
      <trkpt lat="44.83529" lon="5.35824">
        <ele>1290.6</ele>
        <time>2021-10-08T10:59:36Z</time>
      </trkpt>
      <trkpt lat="44.83531" lon="5.35822">
        <ele>1291.6</ele>
        <time>2021-10-08T10:59:37Z</time>
      </trkpt>
      <trkpt lat="44.83533" lon="5.35819">
        <ele>1291.2</ele>
        <time>2021-10-08T10:59:38Z</time>
      </trkpt>
      <trkpt lat="44.83535" lon="5.35817">
        <ele>1291.2</ele>
        <time>2021-10-08T10:59:39Z</time>
      </trkpt>
      <trkpt lat="44.83537" lon="5.35815">
        <ele>1291.2</ele>
        <time>2021-10-08T10:59:40Z</time>
      </trkpt>
      <trkpt lat="44.83539" lon="5.35814">
        <ele>1291.2</ele>
        <time>2021-10-08T10:59:41Z</time>
      </trkpt>
      <trkpt lat="44.83541" lon="5.35813">
        <ele>1292</ele>
        <time>2021-10-08T10:59:42Z</time>
      </trkpt>
      <trkpt lat="44.83543" lon="5.35812">
        <ele>1292</ele>
        <time>2021-10-08T10:59:43Z</time>
      </trkpt>
      <trkpt lat="44.83545" lon="5.35811">
        <ele>1292</ele>
        <time>2021-10-08T10:59:44Z</time>
      </trkpt>
      <trkpt lat="44.83548" lon="5.35811">
        <ele>1292</ele>
        <time>2021-10-08T10:59:45Z</time>
      </trkpt>
      <trkpt lat="44.83551" lon="5.35811">
        <ele>1292.2</ele>
        <time>2021-10-08T10:59:46Z</time>
      </trkpt>
      <trkpt lat="44.83553" lon="5.35811">
        <ele>1292.2</ele>
        <time>2021-10-08T10:59:47Z</time>
      </trkpt>
      <trkpt lat="44.83555" lon="5.35811">
        <ele>1292.2</ele>
        <time>2021-10-08T10:59:48Z</time>
      </trkpt>
      <trkpt lat="44.83557" lon="5.35812">
        <ele>1292.2</ele>
        <time>2021-10-08T10:59:49Z</time>
      </trkpt>
      <trkpt lat="44.8356" lon="5.35814">
        <ele>1292.4</ele>
        <time>2021-10-08T10:59:50Z</time>
      </trkpt>
      <trkpt lat="44.83562" lon="5.35816">
        <ele>1292.4</ele>
        <time>2021-10-08T10:59:51Z</time>
      </trkpt>
      <trkpt lat="44.83564" lon="5.35818">
        <ele>1292.4</ele>
        <time>2021-10-08T10:59:52Z</time>
      </trkpt>
      <trkpt lat="44.83567" lon="5.3582">
        <ele>1292.4</ele>
        <time>2021-10-08T10:59:53Z</time>
      </trkpt>
      <trkpt lat="44.83569" lon="5.35822">
        <ele>1292.2</ele>
        <time>2021-10-08T10:59:54Z</time>
      </trkpt>
      <trkpt lat="44.83571" lon="5.35824">
        <ele>1292.2</ele>
        <time>2021-10-08T10:59:55Z</time>
      </trkpt>
      <trkpt lat="44.83573" lon="5.35827">
        <ele>1292.2</ele>
        <time>2021-10-08T10:59:56Z</time>
      </trkpt>
      <trkpt lat="44.83575" lon="5.35829">
        <ele>1292.2</ele>
        <time>2021-10-08T10:59:57Z</time>
      </trkpt>
      <trkpt lat="44.83576" lon="5.35831">
        <ele>1292.4</ele>
        <time>2021-10-08T10:59:58Z</time>
      </trkpt>
      <trkpt lat="44.83577" lon="5.35833">
        <ele>1292.4</ele>
        <time>2021-10-08T10:59:59Z</time>
      </trkpt>
      <trkpt lat="44.83579" lon="5.35835">
        <ele>1292.4</ele>
        <time>2021-10-08T11:00:00Z</time>
      </trkpt>
      <trkpt lat="44.83581" lon="5.35839">
        <ele>1292</ele>
        <time>2021-10-08T11:00:01Z</time>
      </trkpt>
      <trkpt lat="44.83583" lon="5.35842">
        <ele>1291.8</ele>
        <time>2021-10-08T11:00:02Z</time>
      </trkpt>
      <trkpt lat="44.83585" lon="5.35845">
        <ele>1291.8</ele>
        <time>2021-10-08T11:00:03Z</time>
      </trkpt>
      <trkpt lat="44.83585" lon="5.35849">
        <ele>1291.8</ele>
        <time>2021-10-08T11:00:04Z</time>
      </trkpt>
      <trkpt lat="44.83587" lon="5.35852">
        <ele>1291.8</ele>
        <time>2021-10-08T11:00:05Z</time>
      </trkpt>
      <trkpt lat="44.83589" lon="5.35855">
        <ele>1292.6</ele>
        <time>2021-10-08T11:00:06Z</time>
      </trkpt>
      <trkpt lat="44.83591" lon="5.35858">
        <ele>1292.6</ele>
        <time>2021-10-08T11:00:07Z</time>
      </trkpt>
      <trkpt lat="44.83593" lon="5.35862">
        <ele>1292.6</ele>
        <time>2021-10-08T11:00:08Z</time>
      </trkpt>
      <trkpt lat="44.83593" lon="5.35865">
        <ele>1292.6</ele>
        <time>2021-10-08T11:00:09Z</time>
      </trkpt>
      <trkpt lat="44.83595" lon="5.35868">
        <ele>1291.8</ele>
        <time>2021-10-08T11:00:10Z</time>
      </trkpt>
      <trkpt lat="44.83596" lon="5.35872">
        <ele>1291.8</ele>
        <time>2021-10-08T11:00:11Z</time>
      </trkpt>
      <trkpt lat="44.83598" lon="5.35876">
        <ele>1291.8</ele>
        <time>2021-10-08T11:00:12Z</time>
      </trkpt>
      <trkpt lat="44.83599" lon="5.3588">
        <ele>1292.8</ele>
        <time>2021-10-08T11:00:13Z</time>
      </trkpt>
      <trkpt lat="44.83599" lon="5.35884">
        <ele>1293</ele>
        <time>2021-10-08T11:00:14Z</time>
      </trkpt>
      <trkpt lat="44.83599" lon="5.35887">
        <ele>1293</ele>
        <time>2021-10-08T11:00:15Z</time>
      </trkpt>
      <trkpt lat="44.83598" lon="5.3589">
        <ele>1293</ele>
        <time>2021-10-08T11:00:16Z</time>
      </trkpt>
      <trkpt lat="44.83597" lon="5.35894">
        <ele>1293</ele>
        <time>2021-10-08T11:00:17Z</time>
      </trkpt>
      <trkpt lat="44.83596" lon="5.35897">
        <ele>1293</ele>
        <time>2021-10-08T11:00:18Z</time>
      </trkpt>
      <trkpt lat="44.83595" lon="5.35901">
        <ele>1293</ele>
        <time>2021-10-08T11:00:19Z</time>
      </trkpt>
      <trkpt lat="44.83595" lon="5.35905">
        <ele>1293</ele>
        <time>2021-10-08T11:00:20Z</time>
      </trkpt>
      <trkpt lat="44.83594" lon="5.35909">
        <ele>1293.6</ele>
        <time>2021-10-08T11:00:21Z</time>
      </trkpt>
      <trkpt lat="44.83593" lon="5.35913">
        <ele>1293.6</ele>
        <time>2021-10-08T11:00:22Z</time>
      </trkpt>
      <trkpt lat="44.83592" lon="5.35917">
        <ele>1293.6</ele>
        <time>2021-10-08T11:00:23Z</time>
      </trkpt>
      <trkpt lat="44.83592" lon="5.35919">
        <ele>1293.6</ele>
        <time>2021-10-08T11:00:24Z</time>
      </trkpt>
      <trkpt lat="44.83591" lon="5.35922">
        <ele>1293.6</ele>
        <time>2021-10-08T11:00:25Z</time>
      </trkpt>
      <trkpt lat="44.8359" lon="5.35926">
        <ele>1293.4</ele>
        <time>2021-10-08T11:00:26Z</time>
      </trkpt>
      <trkpt lat="44.83589" lon="5.3593">
        <ele>1293.4</ele>
        <time>2021-10-08T11:00:27Z</time>
      </trkpt>
      <trkpt lat="44.83589" lon="5.35934">
        <ele>1293.4</ele>
        <time>2021-10-08T11:00:28Z</time>
      </trkpt>
      <trkpt lat="44.83588" lon="5.35938">
        <ele>1293.6</ele>
        <time>2021-10-08T11:00:29Z</time>
      </trkpt>
      <trkpt lat="44.83587" lon="5.35943">
        <ele>1293.6</ele>
        <time>2021-10-08T11:00:30Z</time>
      </trkpt>
      <trkpt lat="44.83585" lon="5.35948">
        <ele>1293.6</ele>
        <time>2021-10-08T11:00:31Z</time>
      </trkpt>
      <trkpt lat="44.83584" lon="5.35953">
        <ele>1293.6</ele>
        <time>2021-10-08T11:00:32Z</time>
      </trkpt>
      <trkpt lat="44.83584" lon="5.35959">
        <ele>1293.6</ele>
        <time>2021-10-08T11:00:33Z</time>
      </trkpt>
      <trkpt lat="44.83584" lon="5.35964">
        <ele>1294</ele>
        <time>2021-10-08T11:00:34Z</time>
      </trkpt>
      <trkpt lat="44.83584" lon="5.35969">
        <ele>1294</ele>
        <time>2021-10-08T11:00:35Z</time>
      </trkpt>
      <trkpt lat="44.83584" lon="5.35974">
        <ele>1294</ele>
        <time>2021-10-08T11:00:36Z</time>
      </trkpt>
      <trkpt lat="44.83583" lon="5.3598">
        <ele>1293.6</ele>
        <time>2021-10-08T11:00:37Z</time>
      </trkpt>
      <trkpt lat="44.83582" lon="5.35985">
        <ele>1294</ele>
        <time>2021-10-08T11:00:38Z</time>
      </trkpt>
      <trkpt lat="44.83581" lon="5.35991">
        <ele>1294</ele>
        <time>2021-10-08T11:00:39Z</time>
      </trkpt>
      <trkpt lat="44.8358" lon="5.35997">
        <ele>1294</ele>
        <time>2021-10-08T11:00:40Z</time>
      </trkpt>
      <trkpt lat="44.8358" lon="5.36002">
        <ele>1293.8</ele>
        <time>2021-10-08T11:00:41Z</time>
      </trkpt>
      <trkpt lat="44.8358" lon="5.36007">
        <ele>1293.8</ele>
        <time>2021-10-08T11:00:42Z</time>
      </trkpt>
      <trkpt lat="44.8358" lon="5.36012">
        <ele>1293.8</ele>
        <time>2021-10-08T11:00:43Z</time>
      </trkpt>
      <trkpt lat="44.8358" lon="5.36017">
        <ele>1293.8</ele>
        <time>2021-10-08T11:00:44Z</time>
      </trkpt>
      <trkpt lat="44.8358" lon="5.36022">
        <ele>1294.6</ele>
        <time>2021-10-08T11:00:45Z</time>
      </trkpt>
      <trkpt lat="44.8358" lon="5.36027">
        <ele>1294.6</ele>
        <time>2021-10-08T11:00:46Z</time>
      </trkpt>
      <trkpt lat="44.8358" lon="5.36032">
        <ele>1294.6</ele>
        <time>2021-10-08T11:00:47Z</time>
      </trkpt>
      <trkpt lat="44.8358" lon="5.36037">
        <ele>1294.6</ele>
        <time>2021-10-08T11:00:48Z</time>
      </trkpt>
      <trkpt lat="44.8358" lon="5.36042">
        <ele>1294.6</ele>
        <time>2021-10-08T11:00:49Z</time>
      </trkpt>
      <trkpt lat="44.8358" lon="5.36047">
        <ele>1295.6</ele>
        <time>2021-10-08T11:00:50Z</time>
      </trkpt>
      <trkpt lat="44.8358" lon="5.36051">
        <ele>1295.6</ele>
        <time>2021-10-08T11:00:51Z</time>
      </trkpt>
      <trkpt lat="44.83581" lon="5.36056">
        <ele>1295.6</ele>
        <time>2021-10-08T11:00:52Z</time>
      </trkpt>
      <trkpt lat="44.83582" lon="5.36061">
        <ele>1295.4</ele>
        <time>2021-10-08T11:00:53Z</time>
      </trkpt>
      <trkpt lat="44.83582" lon="5.36065">
        <ele>1295.4</ele>
        <time>2021-10-08T11:00:54Z</time>
      </trkpt>
      <trkpt lat="44.83583" lon="5.36069">
        <ele>1295.4</ele>
        <time>2021-10-08T11:00:55Z</time>
      </trkpt>
      <trkpt lat="44.83584" lon="5.36073">
        <ele>1295.4</ele>
        <time>2021-10-08T11:00:56Z</time>
      </trkpt>
      <trkpt lat="44.83584" lon="5.36079">
        <ele>1295.4</ele>
        <time>2021-10-08T11:00:57Z</time>
      </trkpt>
      <trkpt lat="44.83584" lon="5.36084">
        <ele>1295.4</ele>
        <time>2021-10-08T11:00:58Z</time>
      </trkpt>
      <trkpt lat="44.83584" lon="5.36089">
        <ele>1295.4</ele>
        <time>2021-10-08T11:00:59Z</time>
      </trkpt>
      <trkpt lat="44.83583" lon="5.36094">
        <ele>1295.4</ele>
        <time>2021-10-08T11:01:00Z</time>
      </trkpt>
      <trkpt lat="44.83583" lon="5.361">
        <ele>1295.4</ele>
        <time>2021-10-08T11:01:01Z</time>
      </trkpt>
      <trkpt lat="44.83582" lon="5.36105">
        <ele>1295.2</ele>
        <time>2021-10-08T11:01:02Z</time>
      </trkpt>
      <trkpt lat="44.83581" lon="5.36109">
        <ele>1295.2</ele>
        <time>2021-10-08T11:01:03Z</time>
      </trkpt>
      <trkpt lat="44.8358" lon="5.36115">
        <ele>1295.2</ele>
        <time>2021-10-08T11:01:04Z</time>
      </trkpt>
      <trkpt lat="44.83579" lon="5.36119">
        <ele>1295.8</ele>
        <time>2021-10-08T11:01:05Z</time>
      </trkpt>
      <trkpt lat="44.83578" lon="5.36123">
        <ele>1295.6</ele>
        <time>2021-10-08T11:01:06Z</time>
      </trkpt>
      <trkpt lat="44.83577" lon="5.36128">
        <ele>1295.6</ele>
        <time>2021-10-08T11:01:07Z</time>
      </trkpt>
      <trkpt lat="44.83576" lon="5.36132">
        <ele>1295.6</ele>
        <time>2021-10-08T11:01:08Z</time>
      </trkpt>
      <trkpt lat="44.83574" lon="5.36137">
        <ele>1295.6</ele>
        <time>2021-10-08T11:01:09Z</time>
      </trkpt>
      <trkpt lat="44.83572" lon="5.36142">
        <ele>1295.8</ele>
        <time>2021-10-08T11:01:10Z</time>
      </trkpt>
      <trkpt lat="44.8357" lon="5.36146">
        <ele>1295.8</ele>
        <time>2021-10-08T11:01:11Z</time>
      </trkpt>
      <trkpt lat="44.83567" lon="5.36149">
        <ele>1295.8</ele>
        <time>2021-10-08T11:01:12Z</time>
      </trkpt>
      <trkpt lat="44.83565" lon="5.36153">
        <ele>1296</ele>
        <time>2021-10-08T11:01:13Z</time>
      </trkpt>
      <trkpt lat="44.83563" lon="5.36157">
        <ele>1296.2</ele>
        <time>2021-10-08T11:01:14Z</time>
      </trkpt>
      <trkpt lat="44.8356" lon="5.36161">
        <ele>1296.2</ele>
        <time>2021-10-08T11:01:15Z</time>
      </trkpt>
      <trkpt lat="44.83558" lon="5.36165">
        <ele>1296.2</ele>
        <time>2021-10-08T11:01:16Z</time>
      </trkpt>
      <trkpt lat="44.83556" lon="5.36169">
        <ele>1296.4</ele>
        <time>2021-10-08T11:01:17Z</time>
      </trkpt>
      <trkpt lat="44.83553" lon="5.36172">
        <ele>1297</ele>
        <time>2021-10-08T11:01:18Z</time>
      </trkpt>
      <trkpt lat="44.8355" lon="5.36175">
        <ele>1297</ele>
        <time>2021-10-08T11:01:19Z</time>
      </trkpt>
      <trkpt lat="44.83547" lon="5.36178">
        <ele>1297</ele>
        <time>2021-10-08T11:01:20Z</time>
      </trkpt>
      <trkpt lat="44.83545" lon="5.36182">
        <ele>1297</ele>
        <time>2021-10-08T11:01:21Z</time>
      </trkpt>
      <trkpt lat="44.83542" lon="5.36186">
        <ele>1296.6</ele>
        <time>2021-10-08T11:01:22Z</time>
      </trkpt>
      <trkpt lat="44.83539" lon="5.36189">
        <ele>1296.6</ele>
        <time>2021-10-08T11:01:23Z</time>
      </trkpt>
      <trkpt lat="44.83536" lon="5.36192">
        <ele>1296.6</ele>
        <time>2021-10-08T11:01:24Z</time>
      </trkpt>
      <trkpt lat="44.83534" lon="5.36195">
        <ele>1296.6</ele>
        <time>2021-10-08T11:01:25Z</time>
      </trkpt>
      <trkpt lat="44.83531" lon="5.36198">
        <ele>1297</ele>
        <time>2021-10-08T11:01:26Z</time>
      </trkpt>
      <trkpt lat="44.83528" lon="5.36201">
        <ele>1297</ele>
        <time>2021-10-08T11:01:27Z</time>
      </trkpt>
      <trkpt lat="44.83525" lon="5.36204">
        <ele>1297</ele>
        <time>2021-10-08T11:01:28Z</time>
      </trkpt>
      <trkpt lat="44.83522" lon="5.36208">
        <ele>1297.2</ele>
        <time>2021-10-08T11:01:29Z</time>
      </trkpt>
      <trkpt lat="44.8352" lon="5.36211">
        <ele>1297.2</ele>
        <time>2021-10-08T11:01:30Z</time>
      </trkpt>
      <trkpt lat="44.83517" lon="5.36216">
        <ele>1297.2</ele>
        <time>2021-10-08T11:01:31Z</time>
      </trkpt>
      <trkpt lat="44.83514" lon="5.36219">
        <ele>1297.2</ele>
        <time>2021-10-08T11:01:32Z</time>
      </trkpt>
      <trkpt lat="44.83511" lon="5.36223">
        <ele>1297.2</ele>
        <time>2021-10-08T11:01:33Z</time>
      </trkpt>
      <trkpt lat="44.83508" lon="5.36227">
        <ele>1297.4</ele>
        <time>2021-10-08T11:01:34Z</time>
      </trkpt>
      <trkpt lat="44.83505" lon="5.3623">
        <ele>1297.4</ele>
        <time>2021-10-08T11:01:35Z</time>
      </trkpt>
      <trkpt lat="44.83502" lon="5.36233">
        <ele>1297.4</ele>
        <time>2021-10-08T11:01:36Z</time>
      </trkpt>
      <trkpt lat="44.83499" lon="5.36237">
        <ele>1297.4</ele>
        <time>2021-10-08T11:01:37Z</time>
      </trkpt>
      <trkpt lat="44.83496" lon="5.3624">
        <ele>1297.4</ele>
        <time>2021-10-08T11:01:38Z</time>
      </trkpt>
      <trkpt lat="44.83493" lon="5.36243">
        <ele>1297.4</ele>
        <time>2021-10-08T11:01:39Z</time>
      </trkpt>
      <trkpt lat="44.8349" lon="5.36246">
        <ele>1297.4</ele>
        <time>2021-10-08T11:01:40Z</time>
      </trkpt>
      <trkpt lat="44.83487" lon="5.36248">
        <ele>1297.2</ele>
        <time>2021-10-08T11:01:41Z</time>
      </trkpt>
      <trkpt lat="44.83484" lon="5.36252">
        <ele>1297</ele>
        <time>2021-10-08T11:01:42Z</time>
      </trkpt>
      <trkpt lat="44.83481" lon="5.36256">
        <ele>1297</ele>
        <time>2021-10-08T11:01:43Z</time>
      </trkpt>
      <trkpt lat="44.83478" lon="5.3626">
        <ele>1297</ele>
        <time>2021-10-08T11:01:44Z</time>
      </trkpt>
      <trkpt lat="44.83475" lon="5.36264">
        <ele>1297</ele>
        <time>2021-10-08T11:01:45Z</time>
      </trkpt>
      <trkpt lat="44.83472" lon="5.36268">
        <ele>1297</ele>
        <time>2021-10-08T11:01:46Z</time>
      </trkpt>
      <trkpt lat="44.83469" lon="5.36273">
        <ele>1297</ele>
        <time>2021-10-08T11:01:47Z</time>
      </trkpt>
      <trkpt lat="44.83466" lon="5.36278">
        <ele>1297</ele>
        <time>2021-10-08T11:01:48Z</time>
      </trkpt>
      <trkpt lat="44.83464" lon="5.36282">
        <ele>1297.4</ele>
        <time>2021-10-08T11:01:49Z</time>
      </trkpt>
      <trkpt lat="44.83462" lon="5.36286">
        <ele>1297.6</ele>
        <time>2021-10-08T11:01:50Z</time>
      </trkpt>
      <trkpt lat="44.83459" lon="5.36292">
        <ele>1297.6</ele>
        <time>2021-10-08T11:01:51Z</time>
      </trkpt>
      <trkpt lat="44.83457" lon="5.36297">
        <ele>1297.6</ele>
        <time>2021-10-08T11:01:52Z</time>
      </trkpt>
      <trkpt lat="44.83455" lon="5.36302">
        <ele>1297.6</ele>
        <time>2021-10-08T11:01:53Z</time>
      </trkpt>
      <trkpt lat="44.83453" lon="5.36307">
        <ele>1297.6</ele>
        <time>2021-10-08T11:01:54Z</time>
      </trkpt>
      <trkpt lat="44.83451" lon="5.36312">
        <ele>1297.6</ele>
        <time>2021-10-08T11:01:55Z</time>
      </trkpt>
      <trkpt lat="44.83449" lon="5.36317">
        <ele>1297.6</ele>
        <time>2021-10-08T11:01:56Z</time>
      </trkpt>
      <trkpt lat="44.83448" lon="5.36323">
        <ele>1297.6</ele>
        <time>2021-10-08T11:01:57Z</time>
      </trkpt>
      <trkpt lat="44.83446" lon="5.36328">
        <ele>1297.2</ele>
        <time>2021-10-08T11:01:58Z</time>
      </trkpt>
      <trkpt lat="44.83445" lon="5.36334">
        <ele>1297.2</ele>
        <time>2021-10-08T11:01:59Z</time>
      </trkpt>
      <trkpt lat="44.83443" lon="5.36339">
        <ele>1297.2</ele>
        <time>2021-10-08T11:02:00Z</time>
      </trkpt>
      <trkpt lat="44.83441" lon="5.36344">
        <ele>1298</ele>
        <time>2021-10-08T11:02:01Z</time>
      </trkpt>
      <trkpt lat="44.8344" lon="5.36349">
        <ele>1298.4</ele>
        <time>2021-10-08T11:02:02Z</time>
      </trkpt>
      <trkpt lat="44.83439" lon="5.36355">
        <ele>1298.4</ele>
        <time>2021-10-08T11:02:03Z</time>
      </trkpt>
      <trkpt lat="44.83438" lon="5.3636">
        <ele>1298.4</ele>
        <time>2021-10-08T11:02:04Z</time>
      </trkpt>
      <trkpt lat="44.83437" lon="5.36365">
        <ele>1298.6</ele>
        <time>2021-10-08T11:02:05Z</time>
      </trkpt>
      <trkpt lat="44.83436" lon="5.36369">
        <ele>1298.6</ele>
        <time>2021-10-08T11:02:06Z</time>
      </trkpt>
      <trkpt lat="44.83436" lon="5.36374">
        <ele>1298.6</ele>
        <time>2021-10-08T11:02:07Z</time>
      </trkpt>
      <trkpt lat="44.83435" lon="5.36379">
        <ele>1298.6</ele>
        <time>2021-10-08T11:02:08Z</time>
      </trkpt>
      <trkpt lat="44.83434" lon="5.36383">
        <ele>1299.6</ele>
        <time>2021-10-08T11:02:09Z</time>
      </trkpt>
      <trkpt lat="44.83433" lon="5.36388">
        <ele>1299.2</ele>
        <time>2021-10-08T11:02:10Z</time>
      </trkpt>
      <trkpt lat="44.83431" lon="5.36392">
        <ele>1299.2</ele>
        <time>2021-10-08T11:02:11Z</time>
      </trkpt>
      <trkpt lat="44.8343" lon="5.36396">
        <ele>1299.2</ele>
        <time>2021-10-08T11:02:12Z</time>
      </trkpt>
      <trkpt lat="44.83429" lon="5.36401">
        <ele>1299.2</ele>
        <time>2021-10-08T11:02:13Z</time>
      </trkpt>
      <trkpt lat="44.83427" lon="5.36405">
        <ele>1299.4</ele>
        <time>2021-10-08T11:02:14Z</time>
      </trkpt>
      <trkpt lat="44.83425" lon="5.3641">
        <ele>1299.4</ele>
        <time>2021-10-08T11:02:15Z</time>
      </trkpt>
      <trkpt lat="44.83423" lon="5.36414">
        <ele>1299.4</ele>
        <time>2021-10-08T11:02:16Z</time>
      </trkpt>
      <trkpt lat="44.83421" lon="5.36419">
        <ele>1299.2</ele>
        <time>2021-10-08T11:02:17Z</time>
      </trkpt>
      <trkpt lat="44.8342" lon="5.36424">
        <ele>1299.6</ele>
        <time>2021-10-08T11:02:18Z</time>
      </trkpt>
      <trkpt lat="44.83418" lon="5.36429">
        <ele>1299.6</ele>
        <time>2021-10-08T11:02:19Z</time>
      </trkpt>
      <trkpt lat="44.83416" lon="5.36434">
        <ele>1299.6</ele>
        <time>2021-10-08T11:02:20Z</time>
      </trkpt>
      <trkpt lat="44.83414" lon="5.36438">
        <ele>1299.8</ele>
        <time>2021-10-08T11:02:21Z</time>
      </trkpt>
      <trkpt lat="44.83414" lon="5.36442">
        <ele>1299.6</ele>
        <time>2021-10-08T11:02:22Z</time>
      </trkpt>
      <trkpt lat="44.83413" lon="5.36446">
        <ele>1299.6</ele>
        <time>2021-10-08T11:02:23Z</time>
      </trkpt>
      <trkpt lat="44.83411" lon="5.36451">
        <ele>1299.6</ele>
        <time>2021-10-08T11:02:24Z</time>
      </trkpt>
      <trkpt lat="44.8341" lon="5.36455">
        <ele>1300</ele>
        <time>2021-10-08T11:02:25Z</time>
      </trkpt>
      <trkpt lat="44.83409" lon="5.3646">
        <ele>1299.8</ele>
        <time>2021-10-08T11:02:26Z</time>
      </trkpt>
      <trkpt lat="44.83407" lon="5.36465">
        <ele>1299.8</ele>
        <time>2021-10-08T11:02:27Z</time>
      </trkpt>
      <trkpt lat="44.83405" lon="5.36469">
        <ele>1299.8</ele>
        <time>2021-10-08T11:02:28Z</time>
      </trkpt>
      <trkpt lat="44.83404" lon="5.36473">
        <ele>1299.8</ele>
        <time>2021-10-08T11:02:29Z</time>
      </trkpt>
      <trkpt lat="44.83403" lon="5.36478">
        <ele>1299.8</ele>
        <time>2021-10-08T11:02:30Z</time>
      </trkpt>
      <trkpt lat="44.83401" lon="5.36483">
        <ele>1299.8</ele>
        <time>2021-10-08T11:02:31Z</time>
      </trkpt>
      <trkpt lat="44.83397" lon="5.3649">
        <ele>1299.8</ele>
        <time>2021-10-08T11:02:32Z</time>
      </trkpt>
      <trkpt lat="44.83395" lon="5.36495">
        <ele>1299.8</ele>
        <time>2021-10-08T11:02:33Z</time>
      </trkpt>
      <trkpt lat="44.83392" lon="5.365">
        <ele>1299.8</ele>
        <time>2021-10-08T11:02:34Z</time>
      </trkpt>
      <trkpt lat="44.83388" lon="5.36505">
        <ele>1299.8</ele>
        <time>2021-10-08T11:02:35Z</time>
      </trkpt>
      <trkpt lat="44.83385" lon="5.3651">
        <ele>1299.8</ele>
        <time>2021-10-08T11:02:36Z</time>
      </trkpt>
      <trkpt lat="44.83382" lon="5.36514">
        <ele>1299.8</ele>
        <time>2021-10-08T11:02:37Z</time>
      </trkpt>
      <trkpt lat="44.83378" lon="5.36519">
        <ele>1299.8</ele>
        <time>2021-10-08T11:02:38Z</time>
      </trkpt>
      <trkpt lat="44.83374" lon="5.36523">
        <ele>1299.8</ele>
        <time>2021-10-08T11:02:39Z</time>
      </trkpt>
      <trkpt lat="44.8337" lon="5.36529">
        <ele>1299.8</ele>
        <time>2021-10-08T11:02:40Z</time>
      </trkpt>
      <trkpt lat="44.83366" lon="5.36533">
        <ele>1299.8</ele>
        <time>2021-10-08T11:02:41Z</time>
      </trkpt>
      <trkpt lat="44.83363" lon="5.36537">
        <ele>1299.8</ele>
        <time>2021-10-08T11:02:42Z</time>
      </trkpt>
      <trkpt lat="44.8336" lon="5.36542">
        <ele>1299.8</ele>
        <time>2021-10-08T11:02:43Z</time>
      </trkpt>
      <trkpt lat="44.83358" lon="5.36547">
        <ele>1299.8</ele>
        <time>2021-10-08T11:02:44Z</time>
      </trkpt>
      <trkpt lat="44.83353" lon="5.36551">
        <ele>1300.6</ele>
        <time>2021-10-08T11:02:45Z</time>
      </trkpt>
      <trkpt lat="44.83349" lon="5.36554">
        <ele>1300.6</ele>
        <time>2021-10-08T11:02:46Z</time>
      </trkpt>
      <trkpt lat="44.83346" lon="5.36557">
        <ele>1300.6</ele>
        <time>2021-10-08T11:02:47Z</time>
      </trkpt>
      <trkpt lat="44.83343" lon="5.36561">
        <ele>1300.6</ele>
        <time>2021-10-08T11:02:48Z</time>
      </trkpt>
      <trkpt lat="44.83341" lon="5.36565">
        <ele>1300.6</ele>
        <time>2021-10-08T11:02:49Z</time>
      </trkpt>
      <trkpt lat="44.83337" lon="5.36569">
        <ele>1300.8</ele>
        <time>2021-10-08T11:02:50Z</time>
      </trkpt>
      <trkpt lat="44.83334" lon="5.36572">
        <ele>1300.8</ele>
        <time>2021-10-08T11:02:51Z</time>
      </trkpt>
      <trkpt lat="44.83331" lon="5.36576">
        <ele>1300.8</ele>
        <time>2021-10-08T11:02:52Z</time>
      </trkpt>
      <trkpt lat="44.83328" lon="5.3658">
        <ele>1300.8</ele>
        <time>2021-10-08T11:02:53Z</time>
      </trkpt>
      <trkpt lat="44.83325" lon="5.36584">
        <ele>1300.8</ele>
        <time>2021-10-08T11:02:54Z</time>
      </trkpt>
      <trkpt lat="44.83322" lon="5.36587">
        <ele>1300.8</ele>
        <time>2021-10-08T11:02:55Z</time>
      </trkpt>
      <trkpt lat="44.83318" lon="5.36591">
        <ele>1300.8</ele>
        <time>2021-10-08T11:02:56Z</time>
      </trkpt>
      <trkpt lat="44.83315" lon="5.36594">
        <ele>1300.8</ele>
        <time>2021-10-08T11:02:57Z</time>
      </trkpt>
      <trkpt lat="44.83312" lon="5.36597">
        <ele>1300</ele>
        <time>2021-10-08T11:02:58Z</time>
      </trkpt>
      <trkpt lat="44.83309" lon="5.366">
        <ele>1300</ele>
        <time>2021-10-08T11:02:59Z</time>
      </trkpt>
      <trkpt lat="44.83305" lon="5.36602">
        <ele>1300</ele>
        <time>2021-10-08T11:03:00Z</time>
      </trkpt>
      <trkpt lat="44.83302" lon="5.36606">
        <ele>1300.8</ele>
        <time>2021-10-08T11:03:01Z</time>
      </trkpt>
      <trkpt lat="44.83299" lon="5.36608">
        <ele>1301.4</ele>
        <time>2021-10-08T11:03:02Z</time>
      </trkpt>
      <trkpt lat="44.83296" lon="5.3661">
        <ele>1301.4</ele>
        <time>2021-10-08T11:03:03Z</time>
      </trkpt>
      <trkpt lat="44.83293" lon="5.36613">
        <ele>1301.4</ele>
        <time>2021-10-08T11:03:04Z</time>
      </trkpt>
      <trkpt lat="44.83289" lon="5.36616">
        <ele>1301</ele>
        <time>2021-10-08T11:03:05Z</time>
      </trkpt>
      <trkpt lat="44.83286" lon="5.36619">
        <ele>1301.2</ele>
        <time>2021-10-08T11:03:06Z</time>
      </trkpt>
      <trkpt lat="44.83284" lon="5.36622">
        <ele>1301.2</ele>
        <time>2021-10-08T11:03:07Z</time>
      </trkpt>
      <trkpt lat="44.83281" lon="5.36625">
        <ele>1301.2</ele>
        <time>2021-10-08T11:03:08Z</time>
      </trkpt>
      <trkpt lat="44.83277" lon="5.36628">
        <ele>1302.2</ele>
        <time>2021-10-08T11:03:09Z</time>
      </trkpt>
      <trkpt lat="44.83274" lon="5.36631">
        <ele>1302</ele>
        <time>2021-10-08T11:03:10Z</time>
      </trkpt>
      <trkpt lat="44.8327" lon="5.36635">
        <ele>1302</ele>
        <time>2021-10-08T11:03:11Z</time>
      </trkpt>
      <trkpt lat="44.83266" lon="5.36638">
        <ele>1302</ele>
        <time>2021-10-08T11:03:12Z</time>
      </trkpt>
      <trkpt lat="44.83263" lon="5.3664">
        <ele>1302.4</ele>
        <time>2021-10-08T11:03:13Z</time>
      </trkpt>
      <trkpt lat="44.83259" lon="5.36642">
        <ele>1302.6</ele>
        <time>2021-10-08T11:03:14Z</time>
      </trkpt>
      <trkpt lat="44.83256" lon="5.36646">
        <ele>1302.6</ele>
        <time>2021-10-08T11:03:15Z</time>
      </trkpt>
      <trkpt lat="44.83252" lon="5.36649">
        <ele>1302.6</ele>
        <time>2021-10-08T11:03:16Z</time>
      </trkpt>
      <trkpt lat="44.83249" lon="5.36652">
        <ele>1302.6</ele>
        <time>2021-10-08T11:03:17Z</time>
      </trkpt>
      <trkpt lat="44.83245" lon="5.36655">
        <ele>1302.4</ele>
        <time>2021-10-08T11:03:18Z</time>
      </trkpt>
      <trkpt lat="44.83242" lon="5.36658">
        <ele>1302.4</ele>
        <time>2021-10-08T11:03:19Z</time>
      </trkpt>
      <trkpt lat="44.83238" lon="5.36661">
        <ele>1302.4</ele>
        <time>2021-10-08T11:03:20Z</time>
      </trkpt>
      <trkpt lat="44.83235" lon="5.36664">
        <ele>1302.6</ele>
        <time>2021-10-08T11:03:21Z</time>
      </trkpt>
      <trkpt lat="44.83231" lon="5.36667">
        <ele>1302.2</ele>
        <time>2021-10-08T11:03:22Z</time>
      </trkpt>
      <trkpt lat="44.83227" lon="5.3667">
        <ele>1302.2</ele>
        <time>2021-10-08T11:03:23Z</time>
      </trkpt>
      <trkpt lat="44.83224" lon="5.36673">
        <ele>1302.2</ele>
        <time>2021-10-08T11:03:24Z</time>
      </trkpt>
      <trkpt lat="44.8322" lon="5.36677">
        <ele>1303</ele>
        <time>2021-10-08T11:03:25Z</time>
      </trkpt>
      <trkpt lat="44.83217" lon="5.36679">
        <ele>1302.6</ele>
        <time>2021-10-08T11:03:26Z</time>
      </trkpt>
      <trkpt lat="44.83213" lon="5.36681">
        <ele>1302.6</ele>
        <time>2021-10-08T11:03:27Z</time>
      </trkpt>
      <trkpt lat="44.83209" lon="5.36684">
        <ele>1302.6</ele>
        <time>2021-10-08T11:03:28Z</time>
      </trkpt>
      <trkpt lat="44.83205" lon="5.36686">
        <ele>1302.6</ele>
        <time>2021-10-08T11:03:29Z</time>
      </trkpt>
      <trkpt lat="44.83201" lon="5.36689">
        <ele>1303</ele>
        <time>2021-10-08T11:03:30Z</time>
      </trkpt>
      <trkpt lat="44.83197" lon="5.36691">
        <ele>1303</ele>
        <time>2021-10-08T11:03:31Z</time>
      </trkpt>
      <trkpt lat="44.83192" lon="5.36693">
        <ele>1303</ele>
        <time>2021-10-08T11:03:32Z</time>
      </trkpt>
      <trkpt lat="44.83187" lon="5.36697">
        <ele>1303</ele>
        <time>2021-10-08T11:03:33Z</time>
      </trkpt>
      <trkpt lat="44.83182" lon="5.36699">
        <ele>1303</ele>
        <time>2021-10-08T11:03:34Z</time>
      </trkpt>
      <trkpt lat="44.83179" lon="5.36699">
        <ele>1303</ele>
        <time>2021-10-08T11:03:35Z</time>
      </trkpt>
      <trkpt lat="44.83175" lon="5.36699">
        <ele>1303</ele>
        <time>2021-10-08T11:03:36Z</time>
      </trkpt>
      <trkpt lat="44.8317" lon="5.367">
        <ele>1303</ele>
        <time>2021-10-08T11:03:37Z</time>
      </trkpt>
      <trkpt lat="44.83166" lon="5.367">
        <ele>1303</ele>
        <time>2021-10-08T11:03:38Z</time>
      </trkpt>
      <trkpt lat="44.83161" lon="5.367">
        <ele>1303</ele>
        <time>2021-10-08T11:03:39Z</time>
      </trkpt>
      <trkpt lat="44.83157" lon="5.367">
        <ele>1303</ele>
        <time>2021-10-08T11:03:40Z</time>
      </trkpt>
      <trkpt lat="44.83154" lon="5.367">
        <ele>1303</ele>
        <time>2021-10-08T11:03:41Z</time>
      </trkpt>
      <trkpt lat="44.83151" lon="5.367">
        <ele>1303</ele>
        <time>2021-10-08T11:03:42Z</time>
      </trkpt>
      <trkpt lat="44.83147" lon="5.367">
        <ele>1303</ele>
        <time>2021-10-08T11:03:43Z</time>
      </trkpt>
      <trkpt lat="44.83143" lon="5.36701">
        <ele>1303</ele>
        <time>2021-10-08T11:03:44Z</time>
      </trkpt>
      <trkpt lat="44.83139" lon="5.367">
        <ele>1302.4</ele>
        <time>2021-10-08T11:03:45Z</time>
      </trkpt>
      <trkpt lat="44.83136" lon="5.36701">
        <ele>1302.4</ele>
        <time>2021-10-08T11:03:46Z</time>
      </trkpt>
      <trkpt lat="44.83133" lon="5.36703">
        <ele>1302.4</ele>
        <time>2021-10-08T11:03:47Z</time>
      </trkpt>
      <trkpt lat="44.83128" lon="5.36706">
        <ele>1302.4</ele>
        <time>2021-10-08T11:03:48Z</time>
      </trkpt>
      <trkpt lat="44.83125" lon="5.36709">
        <ele>1301.4</ele>
        <time>2021-10-08T11:03:49Z</time>
      </trkpt>
      <trkpt lat="44.83121" lon="5.36714">
        <ele>1300</ele>
        <time>2021-10-08T11:03:50Z</time>
      </trkpt>
      <trkpt lat="44.83117" lon="5.36721">
        <ele>1300</ele>
        <time>2021-10-08T11:03:51Z</time>
      </trkpt>
      <trkpt lat="44.83115" lon="5.36729">
        <ele>1300</ele>
        <time>2021-10-08T11:03:52Z</time>
      </trkpt>
      <trkpt lat="44.83115" lon="5.36735">
        <ele>1299.8</ele>
        <time>2021-10-08T11:03:53Z</time>
      </trkpt>
      <trkpt lat="44.83116" lon="5.36741">
        <ele>1299.6</ele>
        <time>2021-10-08T11:03:54Z</time>
      </trkpt>
      <trkpt lat="44.8312" lon="5.36745">
        <ele>1299.6</ele>
        <time>2021-10-08T11:03:55Z</time>
      </trkpt>
      <trkpt lat="44.83124" lon="5.36745">
        <ele>1299.6</ele>
        <time>2021-10-08T11:03:56Z</time>
      </trkpt>
      <trkpt lat="44.83128" lon="5.36744">
        <ele>1298.6</ele>
        <time>2021-10-08T11:03:57Z</time>
      </trkpt>
      <trkpt lat="44.83132" lon="5.36741">
        <ele>1295</ele>
        <time>2021-10-08T11:03:58Z</time>
      </trkpt>
      <trkpt lat="44.83137" lon="5.36741">
        <ele>1295</ele>
        <time>2021-10-08T11:03:59Z</time>
      </trkpt>
      <trkpt lat="44.83143" lon="5.36741">
        <ele>1295</ele>
        <time>2021-10-08T11:04:00Z</time>
      </trkpt>
      <trkpt lat="44.83149" lon="5.36742">
        <ele>1295</ele>
        <time>2021-10-08T11:04:01Z</time>
      </trkpt>
      <trkpt lat="44.83155" lon="5.36744">
        <ele>1292.4</ele>
        <time>2021-10-08T11:04:02Z</time>
      </trkpt>
      <trkpt lat="44.83161" lon="5.36746">
        <ele>1292.4</ele>
        <time>2021-10-08T11:04:03Z</time>
      </trkpt>
      <trkpt lat="44.83167" lon="5.36748">
        <ele>1292.4</ele>
        <time>2021-10-08T11:04:04Z</time>
      </trkpt>
      <trkpt lat="44.83173" lon="5.3675">
        <ele>1291.4</ele>
        <time>2021-10-08T11:04:05Z</time>
      </trkpt>
      <trkpt lat="44.83178" lon="5.36752">
        <ele>1291.6</ele>
        <time>2021-10-08T11:04:06Z</time>
      </trkpt>
      <trkpt lat="44.83183" lon="5.36754">
        <ele>1291.6</ele>
        <time>2021-10-08T11:04:07Z</time>
      </trkpt>
      <trkpt lat="44.83188" lon="5.36755">
        <ele>1291.6</ele>
        <time>2021-10-08T11:04:08Z</time>
      </trkpt>
      <trkpt lat="44.83193" lon="5.36755">
        <ele>1291.6</ele>
        <time>2021-10-08T11:04:09Z</time>
      </trkpt>
      <trkpt lat="44.83198" lon="5.36755">
        <ele>1288.8</ele>
        <time>2021-10-08T11:04:10Z</time>
      </trkpt>
      <trkpt lat="44.83204" lon="5.36756">
        <ele>1288.8</ele>
        <time>2021-10-08T11:04:11Z</time>
      </trkpt>
      <trkpt lat="44.8321" lon="5.36756">
        <ele>1288.8</ele>
        <time>2021-10-08T11:04:12Z</time>
      </trkpt>
      <trkpt lat="44.83215" lon="5.36756">
        <ele>1287.8</ele>
        <time>2021-10-08T11:04:13Z</time>
      </trkpt>
      <trkpt lat="44.8322" lon="5.36757">
        <ele>1285</ele>
        <time>2021-10-08T11:04:14Z</time>
      </trkpt>
      <trkpt lat="44.83227" lon="5.36758">
        <ele>1285</ele>
        <time>2021-10-08T11:04:15Z</time>
      </trkpt>
      <trkpt lat="44.83232" lon="5.36758">
        <ele>1285</ele>
        <time>2021-10-08T11:04:16Z</time>
      </trkpt>
      <trkpt lat="44.83237" lon="5.36759">
        <ele>1284</ele>
        <time>2021-10-08T11:04:17Z</time>
      </trkpt>
      <trkpt lat="44.83243" lon="5.36759">
        <ele>1280.4</ele>
        <time>2021-10-08T11:04:18Z</time>
      </trkpt>
      <trkpt lat="44.8325" lon="5.3676">
        <ele>1280.4</ele>
        <time>2021-10-08T11:04:19Z</time>
      </trkpt>
      <trkpt lat="44.83257" lon="5.36761">
        <ele>1280.4</ele>
        <time>2021-10-08T11:04:20Z</time>
      </trkpt>
      <trkpt lat="44.83265" lon="5.36761">
        <ele>1280.4</ele>
        <time>2021-10-08T11:04:21Z</time>
      </trkpt>
      <trkpt lat="44.83273" lon="5.36762">
        <ele>1276.8</ele>
        <time>2021-10-08T11:04:22Z</time>
      </trkpt>
      <trkpt lat="44.83281" lon="5.36762">
        <ele>1276.8</ele>
        <time>2021-10-08T11:04:23Z</time>
      </trkpt>
      <trkpt lat="44.83289" lon="5.36762">
        <ele>1276.8</ele>
        <time>2021-10-08T11:04:24Z</time>
      </trkpt>
      <trkpt lat="44.83296" lon="5.3676">
        <ele>1275.8</ele>
        <time>2021-10-08T11:04:25Z</time>
      </trkpt>
      <trkpt lat="44.83305" lon="5.3676">
        <ele>1272.4</ele>
        <time>2021-10-08T11:04:26Z</time>
      </trkpt>
      <trkpt lat="44.83313" lon="5.36758">
        <ele>1272.4</ele>
        <time>2021-10-08T11:04:27Z</time>
      </trkpt>
      <trkpt lat="44.83322" lon="5.36758">
        <ele>1272.4</ele>
        <time>2021-10-08T11:04:28Z</time>
      </trkpt>
      <trkpt lat="44.83331" lon="5.36757">
        <ele>1271.4</ele>
        <time>2021-10-08T11:04:29Z</time>
      </trkpt>
      <trkpt lat="44.83339" lon="5.36757">
        <ele>1271</ele>
        <time>2021-10-08T11:04:30Z</time>
      </trkpt>
      <trkpt lat="44.83345" lon="5.36756">
        <ele>1271</ele>
        <time>2021-10-08T11:04:31Z</time>
      </trkpt>
      <trkpt lat="44.83352" lon="5.36756">
        <ele>1271</ele>
        <time>2021-10-08T11:04:32Z</time>
      </trkpt>
      <trkpt lat="44.83357" lon="5.36757">
        <ele>1271</ele>
        <time>2021-10-08T11:04:33Z</time>
      </trkpt>
      <trkpt lat="44.83362" lon="5.36759">
        <ele>1271</ele>
        <time>2021-10-08T11:04:34Z</time>
      </trkpt>
      <trkpt lat="44.83365" lon="5.36761">
        <ele>1271</ele>
        <time>2021-10-08T11:04:35Z</time>
      </trkpt>
      <trkpt lat="44.83367" lon="5.36761">
        <ele>1271</ele>
        <time>2021-10-08T11:04:36Z</time>
      </trkpt>
      <trkpt lat="44.83369" lon="5.36761">
        <ele>1271</ele>
        <time>2021-10-08T11:04:37Z</time>
      </trkpt>
      <trkpt lat="44.8337" lon="5.36761">
        <ele>1270.8</ele>
        <time>2021-10-08T11:04:38Z</time>
      </trkpt>
      <trkpt lat="44.83371" lon="5.3676">
        <ele>1270.8</ele>
        <time>2021-10-08T11:04:39Z</time>
      </trkpt>
      <trkpt lat="44.83366" lon="5.36768">
        <ele>1271.4</ele>
        <time>2021-10-08T11:06:11Z</time>
      </trkpt>
      <trkpt lat="44.83364" lon="5.36767">
        <ele>1271.4</ele>
        <time>2021-10-08T11:06:12Z</time>
      </trkpt>
      <trkpt lat="44.83362" lon="5.36768">
        <ele>1272.2</ele>
        <time>2021-10-08T11:06:13Z</time>
      </trkpt>
      <trkpt lat="44.83361" lon="5.36768">
        <ele>1272.6</ele>
        <time>2021-10-08T11:06:14Z</time>
      </trkpt>
      <trkpt lat="44.8336" lon="5.36767">
        <ele>1272.6</ele>
        <time>2021-10-08T11:06:15Z</time>
      </trkpt>
      <trkpt lat="44.83358" lon="5.36768">
        <ele>1272.6</ele>
        <time>2021-10-08T11:06:16Z</time>
      </trkpt>
      <trkpt lat="44.83357" lon="5.36767">
        <ele>1272.6</ele>
        <time>2021-10-08T11:06:17Z</time>
      </trkpt>
      <trkpt lat="44.83356" lon="5.36767">
        <ele>1273.4</ele>
        <time>2021-10-08T11:06:18Z</time>
      </trkpt>
      <trkpt lat="44.83355" lon="5.36767">
        <ele>1273.4</ele>
        <time>2021-10-08T11:06:19Z</time>
      </trkpt>
      <trkpt lat="44.83354" lon="5.36767">
        <ele>1273.4</ele>
        <time>2021-10-08T11:06:20Z</time>
      </trkpt>
      <trkpt lat="44.83353" lon="5.36767">
        <ele>1274</ele>
        <time>2021-10-08T11:06:21Z</time>
      </trkpt>
      <trkpt lat="44.83351" lon="5.36767">
        <ele>1273.8</ele>
        <time>2021-10-08T11:06:22Z</time>
      </trkpt>
      <trkpt lat="44.8335" lon="5.36767">
        <ele>1273.8</ele>
        <time>2021-10-08T11:06:23Z</time>
      </trkpt>
      <trkpt lat="44.83349" lon="5.36767">
        <ele>1273.8</ele>
        <time>2021-10-08T11:06:24Z</time>
      </trkpt>
      <trkpt lat="44.83347" lon="5.36766">
        <ele>1274.4</ele>
        <time>2021-10-08T11:06:25Z</time>
      </trkpt>
      <trkpt lat="44.83346" lon="5.36766">
        <ele>1274.4</ele>
        <time>2021-10-08T11:06:26Z</time>
      </trkpt>
      <trkpt lat="44.83345" lon="5.36766">
        <ele>1274.4</ele>
        <time>2021-10-08T11:06:27Z</time>
      </trkpt>
      <trkpt lat="44.83344" lon="5.36766">
        <ele>1274.4</ele>
        <time>2021-10-08T11:06:28Z</time>
      </trkpt>
      <trkpt lat="44.83343" lon="5.36765">
        <ele>1274.4</ele>
        <time>2021-10-08T11:06:29Z</time>
      </trkpt>
      <trkpt lat="44.83342" lon="5.36765">
        <ele>1275.2</ele>
        <time>2021-10-08T11:06:30Z</time>
      </trkpt>
      <trkpt lat="44.8334" lon="5.36765">
        <ele>1275.2</ele>
        <time>2021-10-08T11:06:31Z</time>
      </trkpt>
      <trkpt lat="44.83339" lon="5.36764">
        <ele>1275.2</ele>
        <time>2021-10-08T11:06:32Z</time>
      </trkpt>
      <trkpt lat="44.83338" lon="5.36764">
        <ele>1275.8</ele>
        <time>2021-10-08T11:06:33Z</time>
      </trkpt>
      <trkpt lat="44.83337" lon="5.36764">
        <ele>1276.2</ele>
        <time>2021-10-08T11:06:34Z</time>
      </trkpt>
      <trkpt lat="44.83333" lon="5.36763">
        <ele>1276.2</ele>
        <time>2021-10-08T11:06:35Z</time>
      </trkpt>
      <trkpt lat="44.83332" lon="5.36763">
        <ele>1276.2</ele>
        <time>2021-10-08T11:06:36Z</time>
      </trkpt>
      <trkpt lat="44.83329" lon="5.36762">
        <ele>1276.6</ele>
        <time>2021-10-08T11:06:37Z</time>
      </trkpt>
      <trkpt lat="44.83327" lon="5.36762">
        <ele>1276.8</ele>
        <time>2021-10-08T11:06:38Z</time>
      </trkpt>
      <trkpt lat="44.83326" lon="5.36763">
        <ele>1276.8</ele>
        <time>2021-10-08T11:06:39Z</time>
      </trkpt>
      <trkpt lat="44.83325" lon="5.36764">
        <ele>1276.8</ele>
        <time>2021-10-08T11:06:40Z</time>
      </trkpt>
      <trkpt lat="44.83324" lon="5.36764">
        <ele>1277.4</ele>
        <time>2021-10-08T11:06:41Z</time>
      </trkpt>
      <trkpt lat="44.83322" lon="5.36764">
        <ele>1277.4</ele>
        <time>2021-10-08T11:06:42Z</time>
      </trkpt>
      <trkpt lat="44.83321" lon="5.36764">
        <ele>1277.4</ele>
        <time>2021-10-08T11:06:43Z</time>
      </trkpt>
      <trkpt lat="44.83319" lon="5.36765">
        <ele>1277.4</ele>
        <time>2021-10-08T11:06:44Z</time>
      </trkpt>
      <trkpt lat="44.83319" lon="5.36765">
        <ele>1277.6</ele>
        <time>2021-10-08T11:06:45Z</time>
      </trkpt>
      <trkpt lat="44.83318" lon="5.36765">
        <ele>1278</ele>
        <time>2021-10-08T11:06:46Z</time>
      </trkpt>
      <trkpt lat="44.83317" lon="5.36765">
        <ele>1278</ele>
        <time>2021-10-08T11:06:47Z</time>
      </trkpt>
      <trkpt lat="44.83315" lon="5.36765">
        <ele>1278</ele>
        <time>2021-10-08T11:06:48Z</time>
      </trkpt>
      <trkpt lat="44.83314" lon="5.36765">
        <ele>1278</ele>
        <time>2021-10-08T11:06:49Z</time>
      </trkpt>
      <trkpt lat="44.83313" lon="5.36765">
        <ele>1278.2</ele>
        <time>2021-10-08T11:06:50Z</time>
      </trkpt>
      <trkpt lat="44.83313" lon="5.36765">
        <ele>1278.2</ele>
        <time>2021-10-08T11:06:51Z</time>
      </trkpt>
      <trkpt lat="44.83312" lon="5.36764">
        <ele>1278.2</ele>
        <time>2021-10-08T11:06:52Z</time>
      </trkpt>
      <trkpt lat="44.83311" lon="5.36764">
        <ele>1278.8</ele>
        <time>2021-10-08T11:06:53Z</time>
      </trkpt>
      <trkpt lat="44.8331" lon="5.36763">
        <ele>1278.8</ele>
        <time>2021-10-08T11:06:54Z</time>
      </trkpt>
      <trkpt lat="44.83308" lon="5.36763">
        <ele>1278.8</ele>
        <time>2021-10-08T11:06:55Z</time>
      </trkpt>
      <trkpt lat="44.83307" lon="5.36764">
        <ele>1278.8</ele>
        <time>2021-10-08T11:06:56Z</time>
      </trkpt>
      <trkpt lat="44.83305" lon="5.36764">
        <ele>1279.8</ele>
        <time>2021-10-08T11:06:57Z</time>
      </trkpt>
      <trkpt lat="44.83304" lon="5.36764">
        <ele>1280</ele>
        <time>2021-10-08T11:06:58Z</time>
      </trkpt>
      <trkpt lat="44.83302" lon="5.36764">
        <ele>1280</ele>
        <time>2021-10-08T11:06:59Z</time>
      </trkpt>
      <trkpt lat="44.833" lon="5.36764">
        <ele>1280</ele>
        <time>2021-10-08T11:07:00Z</time>
      </trkpt>
      <trkpt lat="44.83299" lon="5.36763">
        <ele>1280.6</ele>
        <time>2021-10-08T11:07:01Z</time>
      </trkpt>
      <trkpt lat="44.83297" lon="5.36763">
        <ele>1280.6</ele>
        <time>2021-10-08T11:07:02Z</time>
      </trkpt>
      <trkpt lat="44.83296" lon="5.36763">
        <ele>1280.6</ele>
        <time>2021-10-08T11:07:03Z</time>
      </trkpt>
      <trkpt lat="44.83295" lon="5.36763">
        <ele>1280.6</ele>
        <time>2021-10-08T11:07:04Z</time>
      </trkpt>
      <trkpt lat="44.83293" lon="5.36762">
        <ele>1281.4</ele>
        <time>2021-10-08T11:07:05Z</time>
      </trkpt>
      <trkpt lat="44.83292" lon="5.36763">
        <ele>1281.4</ele>
        <time>2021-10-08T11:07:06Z</time>
      </trkpt>
      <trkpt lat="44.8329" lon="5.36763">
        <ele>1281.4</ele>
        <time>2021-10-08T11:07:07Z</time>
      </trkpt>
      <trkpt lat="44.83288" lon="5.36763">
        <ele>1281.4</ele>
        <time>2021-10-08T11:07:08Z</time>
      </trkpt>
      <trkpt lat="44.83286" lon="5.36763">
        <ele>1282</ele>
        <time>2021-10-08T11:07:09Z</time>
      </trkpt>
      <trkpt lat="44.83283" lon="5.36764">
        <ele>1282</ele>
        <time>2021-10-08T11:07:10Z</time>
      </trkpt>
      <trkpt lat="44.83281" lon="5.36764">
        <ele>1282</ele>
        <time>2021-10-08T11:07:11Z</time>
      </trkpt>
      <trkpt lat="44.83279" lon="5.36764">
        <ele>1282</ele>
        <time>2021-10-08T11:07:12Z</time>
      </trkpt>
      <trkpt lat="44.83277" lon="5.36764">
        <ele>1282.4</ele>
        <time>2021-10-08T11:07:13Z</time>
      </trkpt>
      <trkpt lat="44.83276" lon="5.36764">
        <ele>1282.6</ele>
        <time>2021-10-08T11:07:14Z</time>
      </trkpt>
      <trkpt lat="44.83275" lon="5.36764">
        <ele>1282.6</ele>
        <time>2021-10-08T11:07:15Z</time>
      </trkpt>
      <trkpt lat="44.83274" lon="5.36764">
        <ele>1282.6</ele>
        <time>2021-10-08T11:07:16Z</time>
      </trkpt>
      <trkpt lat="44.83273" lon="5.36764">
        <ele>1283.2</ele>
        <time>2021-10-08T11:07:17Z</time>
      </trkpt>
      <trkpt lat="44.83271" lon="5.36763">
        <ele>1283.6</ele>
        <time>2021-10-08T11:07:18Z</time>
      </trkpt>
      <trkpt lat="44.83269" lon="5.36763">
        <ele>1283.6</ele>
        <time>2021-10-08T11:07:19Z</time>
      </trkpt>
      <trkpt lat="44.83265" lon="5.36763">
        <ele>1283.6</ele>
        <time>2021-10-08T11:07:20Z</time>
      </trkpt>
      <trkpt lat="44.83264" lon="5.36762">
        <ele>1283.6</ele>
        <time>2021-10-08T11:07:21Z</time>
      </trkpt>
      <trkpt lat="44.83262" lon="5.36762">
        <ele>1284</ele>
        <time>2021-10-08T11:07:22Z</time>
      </trkpt>
      <trkpt lat="44.8326" lon="5.36763">
        <ele>1284</ele>
        <time>2021-10-08T11:07:23Z</time>
      </trkpt>
      <trkpt lat="44.83257" lon="5.36763">
        <ele>1284</ele>
        <time>2021-10-08T11:07:24Z</time>
      </trkpt>
      <trkpt lat="44.83256" lon="5.36763">
        <ele>1284.8</ele>
        <time>2021-10-08T11:07:25Z</time>
      </trkpt>
      <trkpt lat="44.83254" lon="5.36763">
        <ele>1284.8</ele>
        <time>2021-10-08T11:07:26Z</time>
      </trkpt>
      <trkpt lat="44.83253" lon="5.36763">
        <ele>1284.8</ele>
        <time>2021-10-08T11:07:27Z</time>
      </trkpt>
      <trkpt lat="44.83252" lon="5.36763">
        <ele>1284.8</ele>
        <time>2021-10-08T11:07:28Z</time>
      </trkpt>
      <trkpt lat="44.83251" lon="5.36763">
        <ele>1285.2</ele>
        <time>2021-10-08T11:07:29Z</time>
      </trkpt>
      <trkpt lat="44.83249" lon="5.36763">
        <ele>1285.4</ele>
        <time>2021-10-08T11:07:30Z</time>
      </trkpt>
      <trkpt lat="44.83248" lon="5.36763">
        <ele>1285.4</ele>
        <time>2021-10-08T11:07:31Z</time>
      </trkpt>
      <trkpt lat="44.83247" lon="5.36763">
        <ele>1285.4</ele>
        <time>2021-10-08T11:07:32Z</time>
      </trkpt>
      <trkpt lat="44.83245" lon="5.36763">
        <ele>1285.4</ele>
        <time>2021-10-08T11:07:33Z</time>
      </trkpt>
      <trkpt lat="44.83243" lon="5.36763">
        <ele>1286</ele>
        <time>2021-10-08T11:07:34Z</time>
      </trkpt>
      <trkpt lat="44.83242" lon="5.36763">
        <ele>1286</ele>
        <time>2021-10-08T11:07:35Z</time>
      </trkpt>
      <trkpt lat="44.8324" lon="5.36763">
        <ele>1286</ele>
        <time>2021-10-08T11:07:36Z</time>
      </trkpt>
      <trkpt lat="44.83239" lon="5.36764">
        <ele>1286</ele>
        <time>2021-10-08T11:07:37Z</time>
      </trkpt>
      <trkpt lat="44.83238" lon="5.36763">
        <ele>1286.8</ele>
        <time>2021-10-08T11:07:38Z</time>
      </trkpt>
      <trkpt lat="44.83236" lon="5.36763">
        <ele>1286.8</ele>
        <time>2021-10-08T11:07:39Z</time>
      </trkpt>
      <trkpt lat="44.83233" lon="5.36762">
        <ele>1286.8</ele>
        <time>2021-10-08T11:07:40Z</time>
      </trkpt>
      <trkpt lat="44.83232" lon="5.36762">
        <ele>1286.8</ele>
        <time>2021-10-08T11:07:41Z</time>
      </trkpt>
      <trkpt lat="44.83231" lon="5.36762">
        <ele>1287.4</ele>
        <time>2021-10-08T11:07:42Z</time>
      </trkpt>
      <trkpt lat="44.8323" lon="5.36762">
        <ele>1287.4</ele>
        <time>2021-10-08T11:07:43Z</time>
      </trkpt>
      <trkpt lat="44.83229" lon="5.36761">
        <ele>1287.4</ele>
        <time>2021-10-08T11:07:44Z</time>
      </trkpt>
      <trkpt lat="44.83228" lon="5.36761">
        <ele>1287.8</ele>
        <time>2021-10-08T11:07:45Z</time>
      </trkpt>
      <trkpt lat="44.83227" lon="5.36761">
        <ele>1288</ele>
        <time>2021-10-08T11:07:46Z</time>
      </trkpt>
      <trkpt lat="44.83225" lon="5.36761">
        <ele>1288</ele>
        <time>2021-10-08T11:07:47Z</time>
      </trkpt>
      <trkpt lat="44.83224" lon="5.36761">
        <ele>1288</ele>
        <time>2021-10-08T11:07:48Z</time>
      </trkpt>
      <trkpt lat="44.83222" lon="5.36761">
        <ele>1288.2</ele>
        <time>2021-10-08T11:07:49Z</time>
      </trkpt>
      <trkpt lat="44.83221" lon="5.36761">
        <ele>1288.4</ele>
        <time>2021-10-08T11:07:50Z</time>
      </trkpt>
      <trkpt lat="44.83219" lon="5.36762">
        <ele>1288.4</ele>
        <time>2021-10-08T11:07:51Z</time>
      </trkpt>
      <trkpt lat="44.83218" lon="5.36762">
        <ele>1288.4</ele>
        <time>2021-10-08T11:07:52Z</time>
      </trkpt>
      <trkpt lat="44.83216" lon="5.36762">
        <ele>1288.4</ele>
        <time>2021-10-08T11:07:53Z</time>
      </trkpt>
      <trkpt lat="44.83215" lon="5.36762">
        <ele>1288.8</ele>
        <time>2021-10-08T11:07:54Z</time>
      </trkpt>
      <trkpt lat="44.83213" lon="5.36761">
        <ele>1288.8</ele>
        <time>2021-10-08T11:07:55Z</time>
      </trkpt>
      <trkpt lat="44.83212" lon="5.36761">
        <ele>1288.8</ele>
        <time>2021-10-08T11:07:56Z</time>
      </trkpt>
      <trkpt lat="44.83211" lon="5.36761">
        <ele>1289.2</ele>
        <time>2021-10-08T11:07:57Z</time>
      </trkpt>
      <trkpt lat="44.83209" lon="5.36762">
        <ele>1289.8</ele>
        <time>2021-10-08T11:07:58Z</time>
      </trkpt>
      <trkpt lat="44.83207" lon="5.36762">
        <ele>1289.8</ele>
        <time>2021-10-08T11:07:59Z</time>
      </trkpt>
      <trkpt lat="44.83206" lon="5.36762">
        <ele>1289.8</ele>
        <time>2021-10-08T11:08:00Z</time>
      </trkpt>
      <trkpt lat="44.83205" lon="5.36762">
        <ele>1290.4</ele>
        <time>2021-10-08T11:08:01Z</time>
      </trkpt>
      <trkpt lat="44.83203" lon="5.36762">
        <ele>1290.2</ele>
        <time>2021-10-08T11:08:02Z</time>
      </trkpt>
      <trkpt lat="44.83202" lon="5.36762">
        <ele>1290.2</ele>
        <time>2021-10-08T11:08:03Z</time>
      </trkpt>
      <trkpt lat="44.832" lon="5.36762">
        <ele>1290.2</ele>
        <time>2021-10-08T11:08:04Z</time>
      </trkpt>
      <trkpt lat="44.83199" lon="5.36762">
        <ele>1290.2</ele>
        <time>2021-10-08T11:08:05Z</time>
      </trkpt>
      <trkpt lat="44.83197" lon="5.36762">
        <ele>1291</ele>
        <time>2021-10-08T11:08:06Z</time>
      </trkpt>
      <trkpt lat="44.83195" lon="5.36761">
        <ele>1291</ele>
        <time>2021-10-08T11:08:07Z</time>
      </trkpt>
      <trkpt lat="44.83193" lon="5.36761">
        <ele>1291</ele>
        <time>2021-10-08T11:08:08Z</time>
      </trkpt>
      <trkpt lat="44.83191" lon="5.36761">
        <ele>1291.8</ele>
        <time>2021-10-08T11:08:09Z</time>
      </trkpt>
      <trkpt lat="44.83189" lon="5.36761">
        <ele>1292</ele>
        <time>2021-10-08T11:08:10Z</time>
      </trkpt>
      <trkpt lat="44.83187" lon="5.3676">
        <ele>1292</ele>
        <time>2021-10-08T11:08:11Z</time>
      </trkpt>
      <trkpt lat="44.83186" lon="5.36759">
        <ele>1292</ele>
        <time>2021-10-08T11:08:12Z</time>
      </trkpt>
      <trkpt lat="44.83185" lon="5.36758">
        <ele>1292</ele>
        <time>2021-10-08T11:08:13Z</time>
      </trkpt>
      <trkpt lat="44.83183" lon="5.36758">
        <ele>1292.8</ele>
        <time>2021-10-08T11:08:14Z</time>
      </trkpt>
      <trkpt lat="44.83181" lon="5.36757">
        <ele>1292.8</ele>
        <time>2021-10-08T11:08:15Z</time>
      </trkpt>
      <trkpt lat="44.8318" lon="5.36757">
        <ele>1292.8</ele>
        <time>2021-10-08T11:08:16Z</time>
      </trkpt>
      <trkpt lat="44.83178" lon="5.36756">
        <ele>1292.8</ele>
        <time>2021-10-08T11:08:17Z</time>
      </trkpt>
      <trkpt lat="44.83175" lon="5.36757">
        <ele>1293.2</ele>
        <time>2021-10-08T11:08:18Z</time>
      </trkpt>
      <trkpt lat="44.83171" lon="5.36758">
        <ele>1293.2</ele>
        <time>2021-10-08T11:08:19Z</time>
      </trkpt>
      <trkpt lat="44.83169" lon="5.36758">
        <ele>1293.2</ele>
        <time>2021-10-08T11:08:20Z</time>
      </trkpt>
      <trkpt lat="44.83167" lon="5.36758">
        <ele>1293.6</ele>
        <time>2021-10-08T11:08:21Z</time>
      </trkpt>
      <trkpt lat="44.83166" lon="5.36757">
        <ele>1293.8</ele>
        <time>2021-10-08T11:08:22Z</time>
      </trkpt>
      <trkpt lat="44.83164" lon="5.36757">
        <ele>1293.8</ele>
        <time>2021-10-08T11:08:23Z</time>
      </trkpt>
      <trkpt lat="44.83162" lon="5.36757">
        <ele>1293.8</ele>
        <time>2021-10-08T11:08:24Z</time>
      </trkpt>
      <trkpt lat="44.83161" lon="5.36757">
        <ele>1294.4</ele>
        <time>2021-10-08T11:08:25Z</time>
      </trkpt>
      <trkpt lat="44.83159" lon="5.36756">
        <ele>1294.8</ele>
        <time>2021-10-08T11:08:26Z</time>
      </trkpt>
      <trkpt lat="44.83158" lon="5.36755">
        <ele>1294.8</ele>
        <time>2021-10-08T11:08:27Z</time>
      </trkpt>
      <trkpt lat="44.83156" lon="5.36755">
        <ele>1294.8</ele>
        <time>2021-10-08T11:08:28Z</time>
      </trkpt>
      <trkpt lat="44.83155" lon="5.36754">
        <ele>1295.4</ele>
        <time>2021-10-08T11:08:29Z</time>
      </trkpt>
      <trkpt lat="44.83154" lon="5.36754">
        <ele>1295.2</ele>
        <time>2021-10-08T11:08:30Z</time>
      </trkpt>
      <trkpt lat="44.83152" lon="5.36754">
        <ele>1295.2</ele>
        <time>2021-10-08T11:08:31Z</time>
      </trkpt>
      <trkpt lat="44.83151" lon="5.36753">
        <ele>1295.2</ele>
        <time>2021-10-08T11:08:32Z</time>
      </trkpt>
      <trkpt lat="44.83149" lon="5.36753">
        <ele>1295.8</ele>
        <time>2021-10-08T11:08:33Z</time>
      </trkpt>
      <trkpt lat="44.83147" lon="5.36753">
        <ele>1296</ele>
        <time>2021-10-08T11:08:34Z</time>
      </trkpt>
      <trkpt lat="44.83146" lon="5.36753">
        <ele>1296</ele>
        <time>2021-10-08T11:08:35Z</time>
      </trkpt>
      <trkpt lat="44.83144" lon="5.36753">
        <ele>1296</ele>
        <time>2021-10-08T11:08:36Z</time>
      </trkpt>
      <trkpt lat="44.83142" lon="5.36753">
        <ele>1296.6</ele>
        <time>2021-10-08T11:08:37Z</time>
      </trkpt>
      <trkpt lat="44.83141" lon="5.36753">
        <ele>1296.6</ele>
        <time>2021-10-08T11:08:38Z</time>
      </trkpt>
      <trkpt lat="44.83139" lon="5.36752">
        <ele>1296.6</ele>
        <time>2021-10-08T11:08:39Z</time>
      </trkpt>
      <trkpt lat="44.83139" lon="5.36752">
        <ele>1296.6</ele>
        <time>2021-10-08T11:08:40Z</time>
      </trkpt>
      <trkpt lat="44.83137" lon="5.36752">
        <ele>1297.4</ele>
        <time>2021-10-08T11:08:41Z</time>
      </trkpt>
      <trkpt lat="44.83136" lon="5.36752">
        <ele>1298.2</ele>
        <time>2021-10-08T11:08:42Z</time>
      </trkpt>
      <trkpt lat="44.83135" lon="5.36753">
        <ele>1298.2</ele>
        <time>2021-10-08T11:08:43Z</time>
      </trkpt>
      <trkpt lat="44.83133" lon="5.36752">
        <ele>1298.2</ele>
        <time>2021-10-08T11:08:44Z</time>
      </trkpt>
      <trkpt lat="44.83131" lon="5.36751">
        <ele>1298.2</ele>
        <time>2021-10-08T11:08:45Z</time>
      </trkpt>
      <trkpt lat="44.83129" lon="5.3675">
        <ele>1298</ele>
        <time>2021-10-08T11:08:46Z</time>
      </trkpt>
      <trkpt lat="44.83127" lon="5.36749">
        <ele>1298</ele>
        <time>2021-10-08T11:08:47Z</time>
      </trkpt>
      <trkpt lat="44.83125" lon="5.36749">
        <ele>1298</ele>
        <time>2021-10-08T11:08:48Z</time>
      </trkpt>
      <trkpt lat="44.83123" lon="5.36749">
        <ele>1298.2</ele>
        <time>2021-10-08T11:08:49Z</time>
      </trkpt>
      <trkpt lat="44.83122" lon="5.3675">
        <ele>1298.8</ele>
        <time>2021-10-08T11:08:50Z</time>
      </trkpt>
      <trkpt lat="44.8312" lon="5.3675">
        <ele>1298.8</ele>
        <time>2021-10-08T11:08:51Z</time>
      </trkpt>
      <trkpt lat="44.83119" lon="5.36751">
        <ele>1298.8</ele>
        <time>2021-10-08T11:08:52Z</time>
      </trkpt>
      <trkpt lat="44.83118" lon="5.36751">
        <ele>1299.4</ele>
        <time>2021-10-08T11:08:53Z</time>
      </trkpt>
      <trkpt lat="44.83116" lon="5.36751">
        <ele>1299.6</ele>
        <time>2021-10-08T11:08:54Z</time>
      </trkpt>
      <trkpt lat="44.83114" lon="5.3675">
        <ele>1299.6</ele>
        <time>2021-10-08T11:08:55Z</time>
      </trkpt>
      <trkpt lat="44.83113" lon="5.3675">
        <ele>1299.6</ele>
        <time>2021-10-08T11:08:56Z</time>
      </trkpt>
      <trkpt lat="44.83111" lon="5.36749">
        <ele>1300.2</ele>
        <time>2021-10-08T11:08:57Z</time>
      </trkpt>
      <trkpt lat="44.8311" lon="5.36748">
        <ele>1300.2</ele>
        <time>2021-10-08T11:08:58Z</time>
      </trkpt>
      <trkpt lat="44.83109" lon="5.36747">
        <ele>1300.2</ele>
        <time>2021-10-08T11:08:59Z</time>
      </trkpt>
      <trkpt lat="44.83107" lon="5.36746">
        <ele>1300.2</ele>
        <time>2021-10-08T11:09:00Z</time>
      </trkpt>
      <trkpt lat="44.83107" lon="5.36744">
        <ele>1300.2</ele>
        <time>2021-10-08T11:09:01Z</time>
      </trkpt>
      <trkpt lat="44.83107" lon="5.36741">
        <ele>1300.2</ele>
        <time>2021-10-08T11:09:02Z</time>
      </trkpt>
      <trkpt lat="44.83108" lon="5.36738">
        <ele>1300.2</ele>
        <time>2021-10-08T11:09:03Z</time>
      </trkpt>
      <trkpt lat="44.83109" lon="5.36736">
        <ele>1300.2</ele>
        <time>2021-10-08T11:09:04Z</time>
      </trkpt>
      <trkpt lat="44.8311" lon="5.36733">
        <ele>1301.2</ele>
        <time>2021-10-08T11:09:05Z</time>
      </trkpt>
      <trkpt lat="44.8311" lon="5.36732">
        <ele>1301.2</ele>
        <time>2021-10-08T11:09:06Z</time>
      </trkpt>
      <trkpt lat="44.83111" lon="5.3673">
        <ele>1301.2</ele>
        <time>2021-10-08T11:09:07Z</time>
      </trkpt>
      <trkpt lat="44.83112" lon="5.36728">
        <ele>1301.2</ele>
        <time>2021-10-08T11:09:08Z</time>
      </trkpt>
      <trkpt lat="44.83113" lon="5.36726">
        <ele>1301.4</ele>
        <time>2021-10-08T11:09:09Z</time>
      </trkpt>
      <trkpt lat="44.83114" lon="5.36724">
        <ele>1301.6</ele>
        <time>2021-10-08T11:09:10Z</time>
      </trkpt>
      <trkpt lat="44.83115" lon="5.36722">
        <ele>1301.6</ele>
        <time>2021-10-08T11:09:11Z</time>
      </trkpt>
      <trkpt lat="44.83116" lon="5.36721">
        <ele>1301.6</ele>
        <time>2021-10-08T11:09:12Z</time>
      </trkpt>
      <trkpt lat="44.83117" lon="5.36719">
        <ele>1302.4</ele>
        <time>2021-10-08T11:09:13Z</time>
      </trkpt>
      <trkpt lat="44.83118" lon="5.36718">
        <ele>1302.8</ele>
        <time>2021-10-08T11:09:14Z</time>
      </trkpt>
      <trkpt lat="44.83119" lon="5.36717">
        <ele>1302.8</ele>
        <time>2021-10-08T11:09:15Z</time>
      </trkpt>
      <trkpt lat="44.8312" lon="5.36716">
        <ele>1302.8</ele>
        <time>2021-10-08T11:09:16Z</time>
      </trkpt>
      <trkpt lat="44.83121" lon="5.36715">
        <ele>1302.8</ele>
        <time>2021-10-08T11:09:17Z</time>
      </trkpt>
      <trkpt lat="44.83122" lon="5.36715">
        <ele>1302.8</ele>
        <time>2021-10-08T11:09:18Z</time>
      </trkpt>
      <trkpt lat="44.83123" lon="5.36714">
        <ele>1302.8</ele>
        <time>2021-10-08T11:09:19Z</time>
      </trkpt>
      <trkpt lat="44.83125" lon="5.36713">
        <ele>1302.8</ele>
        <time>2021-10-08T11:09:20Z</time>
      </trkpt>
      <trkpt lat="44.83126" lon="5.36712">
        <ele>1303</ele>
        <time>2021-10-08T11:09:21Z</time>
      </trkpt>
      <trkpt lat="44.83128" lon="5.36712">
        <ele>1303.2</ele>
        <time>2021-10-08T11:09:22Z</time>
      </trkpt>
      <trkpt lat="44.83129" lon="5.36711">
        <ele>1303.2</ele>
        <time>2021-10-08T11:09:23Z</time>
      </trkpt>
      <trkpt lat="44.8313" lon="5.36711">
        <ele>1303.2</ele>
        <time>2021-10-08T11:09:24Z</time>
      </trkpt>
      <trkpt lat="44.8313" lon="5.36709">
        <ele>1303.2</ele>
        <time>2021-10-08T11:09:25Z</time>
      </trkpt>
      <trkpt lat="44.8313" lon="5.36708">
        <ele>1303.6</ele>
        <time>2021-10-08T11:09:26Z</time>
      </trkpt>
      <trkpt lat="44.83129" lon="5.36706">
        <ele>1303.6</ele>
        <time>2021-10-08T11:09:27Z</time>
      </trkpt>
      <trkpt lat="44.83128" lon="5.36704">
        <ele>1303.6</ele>
        <time>2021-10-08T11:09:28Z</time>
      </trkpt>
      <trkpt lat="44.83127" lon="5.36704">
        <ele>1304.4</ele>
        <time>2021-10-08T11:09:29Z</time>
      </trkpt>
      <trkpt lat="44.83126" lon="5.36703">
        <ele>1304.6</ele>
        <time>2021-10-08T11:09:30Z</time>
      </trkpt>
      <trkpt lat="44.83125" lon="5.36702">
        <ele>1304.6</ele>
        <time>2021-10-08T11:09:31Z</time>
      </trkpt>
      <trkpt lat="44.83124" lon="5.36702">
        <ele>1304.6</ele>
        <time>2021-10-08T11:09:32Z</time>
      </trkpt>
      <trkpt lat="44.83123" lon="5.36702">
        <ele>1305</ele>
        <time>2021-10-08T11:09:33Z</time>
      </trkpt>
      <trkpt lat="44.83122" lon="5.36702">
        <ele>1305.2</ele>
        <time>2021-10-08T11:09:34Z</time>
      </trkpt>
      <trkpt lat="44.83121" lon="5.36702">
        <ele>1305.2</ele>
        <time>2021-10-08T11:09:35Z</time>
      </trkpt>
      <trkpt lat="44.8312" lon="5.36702">
        <ele>1305.2</ele>
        <time>2021-10-08T11:09:36Z</time>
      </trkpt>
      <trkpt lat="44.83119" lon="5.36702">
        <ele>1305.2</ele>
        <time>2021-10-08T11:09:37Z</time>
      </trkpt>
      <trkpt lat="44.83118" lon="5.36702">
        <ele>1305.6</ele>
        <time>2021-10-08T11:09:38Z</time>
      </trkpt>
      <trkpt lat="44.83117" lon="5.36702">
        <ele>1305.6</ele>
        <time>2021-10-08T11:09:39Z</time>
      </trkpt>
      <trkpt lat="44.83116" lon="5.36701">
        <ele>1305.6</ele>
        <time>2021-10-08T11:09:40Z</time>
      </trkpt>
      <trkpt lat="44.83115" lon="5.36701">
        <ele>1306</ele>
        <time>2021-10-08T11:09:41Z</time>
      </trkpt>
      <trkpt lat="44.83113" lon="5.36702">
        <ele>1306.6</ele>
        <time>2021-10-08T11:09:42Z</time>
      </trkpt>
      <trkpt lat="44.83112" lon="5.36702">
        <ele>1306.6</ele>
        <time>2021-10-08T11:09:43Z</time>
      </trkpt>
      <trkpt lat="44.83111" lon="5.36702">
        <ele>1306.6</ele>
        <time>2021-10-08T11:09:44Z</time>
      </trkpt>
      <trkpt lat="44.83109" lon="5.36703">
        <ele>1306.6</ele>
        <time>2021-10-08T11:09:45Z</time>
      </trkpt>
      <trkpt lat="44.83108" lon="5.36703">
        <ele>1306.8</ele>
        <time>2021-10-08T11:09:46Z</time>
      </trkpt>
      <trkpt lat="44.83106" lon="5.36704">
        <ele>1306.8</ele>
        <time>2021-10-08T11:09:47Z</time>
      </trkpt>
      <trkpt lat="44.83104" lon="5.36705">
        <ele>1306.8</ele>
        <time>2021-10-08T11:09:48Z</time>
      </trkpt>
      <trkpt lat="44.83103" lon="5.36706">
        <ele>1307.2</ele>
        <time>2021-10-08T11:09:49Z</time>
      </trkpt>
      <trkpt lat="44.83101" lon="5.36706">
        <ele>1307.6</ele>
        <time>2021-10-08T11:09:50Z</time>
      </trkpt>
      <trkpt lat="44.831" lon="5.36707">
        <ele>1307.6</ele>
        <time>2021-10-08T11:09:51Z</time>
      </trkpt>
      <trkpt lat="44.83098" lon="5.36708">
        <ele>1307.6</ele>
        <time>2021-10-08T11:09:52Z</time>
      </trkpt>
      <trkpt lat="44.83096" lon="5.36708">
        <ele>1307.6</ele>
        <time>2021-10-08T11:09:53Z</time>
      </trkpt>
      <trkpt lat="44.83095" lon="5.36709">
        <ele>1308</ele>
        <time>2021-10-08T11:09:54Z</time>
      </trkpt>
      <trkpt lat="44.83093" lon="5.36709">
        <ele>1308</ele>
        <time>2021-10-08T11:09:55Z</time>
      </trkpt>
      <trkpt lat="44.83092" lon="5.3671">
        <ele>1308</ele>
        <time>2021-10-08T11:09:56Z</time>
      </trkpt>
      <trkpt lat="44.83091" lon="5.36711">
        <ele>1308.4</ele>
        <time>2021-10-08T11:09:57Z</time>
      </trkpt>
      <trkpt lat="44.83089" lon="5.36711">
        <ele>1308.6</ele>
        <time>2021-10-08T11:09:58Z</time>
      </trkpt>
      <trkpt lat="44.83088" lon="5.36712">
        <ele>1308.6</ele>
        <time>2021-10-08T11:09:59Z</time>
      </trkpt>
      <trkpt lat="44.83086" lon="5.36712">
        <ele>1308.6</ele>
        <time>2021-10-08T11:10:00Z</time>
      </trkpt>
      <trkpt lat="44.83084" lon="5.36713">
        <ele>1309.6</ele>
        <time>2021-10-08T11:10:01Z</time>
      </trkpt>
      <trkpt lat="44.83082" lon="5.36714">
        <ele>1310</ele>
        <time>2021-10-08T11:10:02Z</time>
      </trkpt>
      <trkpt lat="44.83081" lon="5.36714">
        <ele>1310</ele>
        <time>2021-10-08T11:10:03Z</time>
      </trkpt>
      <trkpt lat="44.83079" lon="5.36715">
        <ele>1310</ele>
        <time>2021-10-08T11:10:04Z</time>
      </trkpt>
      <trkpt lat="44.83077" lon="5.36715">
        <ele>1310</ele>
        <time>2021-10-08T11:10:05Z</time>
      </trkpt>
      <trkpt lat="44.83075" lon="5.36716">
        <ele>1310.8</ele>
        <time>2021-10-08T11:10:06Z</time>
      </trkpt>
      <trkpt lat="44.83074" lon="5.36717">
        <ele>1310.8</ele>
        <time>2021-10-08T11:10:07Z</time>
      </trkpt>
      <trkpt lat="44.83072" lon="5.36717">
        <ele>1310.8</ele>
        <time>2021-10-08T11:10:08Z</time>
      </trkpt>
      <trkpt lat="44.8307" lon="5.36717">
        <ele>1310.6</ele>
        <time>2021-10-08T11:10:09Z</time>
      </trkpt>
      <trkpt lat="44.83068" lon="5.36718">
        <ele>1311</ele>
        <time>2021-10-08T11:10:10Z</time>
      </trkpt>
      <trkpt lat="44.83067" lon="5.36718">
        <ele>1311</ele>
        <time>2021-10-08T11:10:11Z</time>
      </trkpt>
      <trkpt lat="44.83065" lon="5.36718">
        <ele>1311</ele>
        <time>2021-10-08T11:10:12Z</time>
      </trkpt>
      <trkpt lat="44.83064" lon="5.36718">
        <ele>1311</ele>
        <time>2021-10-08T11:10:13Z</time>
      </trkpt>
      <trkpt lat="44.83062" lon="5.36718">
        <ele>1311.4</ele>
        <time>2021-10-08T11:10:14Z</time>
      </trkpt>
      <trkpt lat="44.8306" lon="5.36718">
        <ele>1311.4</ele>
        <time>2021-10-08T11:10:15Z</time>
      </trkpt>
      <trkpt lat="44.83059" lon="5.36719">
        <ele>1311.4</ele>
        <time>2021-10-08T11:10:16Z</time>
      </trkpt>
      <trkpt lat="44.83057" lon="5.36719">
        <ele>1311.6</ele>
        <time>2021-10-08T11:10:17Z</time>
      </trkpt>
      <trkpt lat="44.83056" lon="5.36719">
        <ele>1312.2</ele>
        <time>2021-10-08T11:10:18Z</time>
      </trkpt>
      <trkpt lat="44.83054" lon="5.36719">
        <ele>1312.2</ele>
        <time>2021-10-08T11:10:19Z</time>
      </trkpt>
      <trkpt lat="44.83053" lon="5.36719">
        <ele>1312.2</ele>
        <time>2021-10-08T11:10:20Z</time>
      </trkpt>
      <trkpt lat="44.83051" lon="5.36719">
        <ele>1312.2</ele>
        <time>2021-10-08T11:10:21Z</time>
      </trkpt>
      <trkpt lat="44.8305" lon="5.36719">
        <ele>1312.8</ele>
        <time>2021-10-08T11:10:22Z</time>
      </trkpt>
      <trkpt lat="44.83048" lon="5.36719">
        <ele>1312.8</ele>
        <time>2021-10-08T11:10:23Z</time>
      </trkpt>
      <trkpt lat="44.83046" lon="5.3672">
        <ele>1312.8</ele>
        <time>2021-10-08T11:10:24Z</time>
      </trkpt>
      <trkpt lat="44.83044" lon="5.3672">
        <ele>1312.8</ele>
        <time>2021-10-08T11:10:25Z</time>
      </trkpt>
      <trkpt lat="44.83042" lon="5.3672">
        <ele>1313.2</ele>
        <time>2021-10-08T11:10:26Z</time>
      </trkpt>
      <trkpt lat="44.83041" lon="5.3672">
        <ele>1313.2</ele>
        <time>2021-10-08T11:10:27Z</time>
      </trkpt>
      <trkpt lat="44.83039" lon="5.36721">
        <ele>1313.2</ele>
        <time>2021-10-08T11:10:28Z</time>
      </trkpt>
      <trkpt lat="44.83037" lon="5.36721">
        <ele>1314.2</ele>
        <time>2021-10-08T11:10:29Z</time>
      </trkpt>
      <trkpt lat="44.83036" lon="5.36721">
        <ele>1314.2</ele>
        <time>2021-10-08T11:10:30Z</time>
      </trkpt>
      <trkpt lat="44.83034" lon="5.36722">
        <ele>1314.2</ele>
        <time>2021-10-08T11:10:31Z</time>
      </trkpt>
      <trkpt lat="44.83032" lon="5.36722">
        <ele>1314.2</ele>
        <time>2021-10-08T11:10:32Z</time>
      </trkpt>
      <trkpt lat="44.8303" lon="5.36723">
        <ele>1314.8</ele>
        <time>2021-10-08T11:10:33Z</time>
      </trkpt>
      <trkpt lat="44.83029" lon="5.36723">
        <ele>1314.8</ele>
        <time>2021-10-08T11:10:34Z</time>
      </trkpt>
      <trkpt lat="44.83028" lon="5.36723">
        <ele>1314.8</ele>
        <time>2021-10-08T11:10:35Z</time>
      </trkpt>
      <trkpt lat="44.83026" lon="5.36724">
        <ele>1314.8</ele>
        <time>2021-10-08T11:10:36Z</time>
      </trkpt>
      <trkpt lat="44.83025" lon="5.36725">
        <ele>1315.6</ele>
        <time>2021-10-08T11:10:37Z</time>
      </trkpt>
      <trkpt lat="44.83023" lon="5.36726">
        <ele>1315.8</ele>
        <time>2021-10-08T11:10:38Z</time>
      </trkpt>
      <trkpt lat="44.83022" lon="5.36727">
        <ele>1315.8</ele>
        <time>2021-10-08T11:10:39Z</time>
      </trkpt>
      <trkpt lat="44.8302" lon="5.36727">
        <ele>1315.8</ele>
        <time>2021-10-08T11:10:40Z</time>
      </trkpt>
      <trkpt lat="44.83019" lon="5.36728">
        <ele>1315.8</ele>
        <time>2021-10-08T11:10:41Z</time>
      </trkpt>
      <trkpt lat="44.83017" lon="5.3673">
        <ele>1316</ele>
        <time>2021-10-08T11:10:42Z</time>
      </trkpt>
      <trkpt lat="44.83017" lon="5.36731">
        <ele>1316</ele>
        <time>2021-10-08T11:10:43Z</time>
      </trkpt>
      <trkpt lat="44.83016" lon="5.36733">
        <ele>1316</ele>
        <time>2021-10-08T11:10:44Z</time>
      </trkpt>
      <trkpt lat="44.83015" lon="5.36734">
        <ele>1316</ele>
        <time>2021-10-08T11:10:45Z</time>
      </trkpt>
      <trkpt lat="44.83014" lon="5.36737">
        <ele>1315.8</ele>
        <time>2021-10-08T11:10:46Z</time>
      </trkpt>
      <trkpt lat="44.83014" lon="5.36739">
        <ele>1315.8</ele>
        <time>2021-10-08T11:10:47Z</time>
      </trkpt>
      <trkpt lat="44.83014" lon="5.36741">
        <ele>1315.8</ele>
        <time>2021-10-08T11:10:48Z</time>
      </trkpt>
      <trkpt lat="44.83014" lon="5.36743">
        <ele>1316.8</ele>
        <time>2021-10-08T11:10:49Z</time>
      </trkpt>
      <trkpt lat="44.83014" lon="5.36745">
        <ele>1316.8</ele>
        <time>2021-10-08T11:10:50Z</time>
      </trkpt>
      <trkpt lat="44.83015" lon="5.36748">
        <ele>1316.8</ele>
        <time>2021-10-08T11:10:51Z</time>
      </trkpt>
      <trkpt lat="44.83015" lon="5.36749">
        <ele>1316.8</ele>
        <time>2021-10-08T11:10:52Z</time>
      </trkpt>
      <trkpt lat="44.83016" lon="5.36751">
        <ele>1316.8</ele>
        <time>2021-10-08T11:10:53Z</time>
      </trkpt>
      <trkpt lat="44.83017" lon="5.36753">
        <ele>1317.2</ele>
        <time>2021-10-08T11:10:54Z</time>
      </trkpt>
      <trkpt lat="44.83018" lon="5.36755">
        <ele>1317.2</ele>
        <time>2021-10-08T11:10:55Z</time>
      </trkpt>
      <trkpt lat="44.83019" lon="5.36756">
        <ele>1317.2</ele>
        <time>2021-10-08T11:10:56Z</time>
      </trkpt>
      <trkpt lat="44.8302" lon="5.36758">
        <ele>1317.8</ele>
        <time>2021-10-08T11:10:57Z</time>
      </trkpt>
      <trkpt lat="44.83021" lon="5.36759">
        <ele>1318.2</ele>
        <time>2021-10-08T11:10:58Z</time>
      </trkpt>
      <trkpt lat="44.83022" lon="5.3676">
        <ele>1318.2</ele>
        <time>2021-10-08T11:10:59Z</time>
      </trkpt>
      <trkpt lat="44.83022" lon="5.36762">
        <ele>1318.2</ele>
        <time>2021-10-08T11:11:00Z</time>
      </trkpt>
      <trkpt lat="44.83023" lon="5.36764">
        <ele>1318.2</ele>
        <time>2021-10-08T11:11:01Z</time>
      </trkpt>
      <trkpt lat="44.83024" lon="5.36765">
        <ele>1319</ele>
        <time>2021-10-08T11:11:02Z</time>
      </trkpt>
      <trkpt lat="44.83025" lon="5.36766">
        <ele>1319</ele>
        <time>2021-10-08T11:11:03Z</time>
      </trkpt>
      <trkpt lat="44.83026" lon="5.36768">
        <ele>1319</ele>
        <time>2021-10-08T11:11:04Z</time>
      </trkpt>
      <trkpt lat="44.83027" lon="5.36769">
        <ele>1319</ele>
        <time>2021-10-08T11:11:05Z</time>
      </trkpt>
      <trkpt lat="44.83028" lon="5.36771">
        <ele>1319.4</ele>
        <time>2021-10-08T11:11:06Z</time>
      </trkpt>
      <trkpt lat="44.83029" lon="5.36772">
        <ele>1319.4</ele>
        <time>2021-10-08T11:11:07Z</time>
      </trkpt>
      <trkpt lat="44.8303" lon="5.36774">
        <ele>1319.4</ele>
        <time>2021-10-08T11:11:08Z</time>
      </trkpt>
      <trkpt lat="44.83031" lon="5.36775">
        <ele>1320</ele>
        <time>2021-10-08T11:11:09Z</time>
      </trkpt>
      <trkpt lat="44.83031" lon="5.36777">
        <ele>1320.2</ele>
        <time>2021-10-08T11:11:10Z</time>
      </trkpt>
      <trkpt lat="44.83032" lon="5.36779">
        <ele>1320.2</ele>
        <time>2021-10-08T11:11:11Z</time>
      </trkpt>
      <trkpt lat="44.83033" lon="5.3678">
        <ele>1320.2</ele>
        <time>2021-10-08T11:11:12Z</time>
      </trkpt>
      <trkpt lat="44.83033" lon="5.36782">
        <ele>1320.2</ele>
        <time>2021-10-08T11:11:13Z</time>
      </trkpt>
      <trkpt lat="44.83035" lon="5.36784">
        <ele>1320.8</ele>
        <time>2021-10-08T11:11:14Z</time>
      </trkpt>
      <trkpt lat="44.83036" lon="5.36785">
        <ele>1320.8</ele>
        <time>2021-10-08T11:11:15Z</time>
      </trkpt>
      <trkpt lat="44.83037" lon="5.36787">
        <ele>1320.8</ele>
        <time>2021-10-08T11:11:16Z</time>
      </trkpt>
      <trkpt lat="44.83038" lon="5.36789">
        <ele>1320.8</ele>
        <time>2021-10-08T11:11:17Z</time>
      </trkpt>
      <trkpt lat="44.83039" lon="5.3679">
        <ele>1321.6</ele>
        <time>2021-10-08T11:11:18Z</time>
      </trkpt>
      <trkpt lat="44.8304" lon="5.36792">
        <ele>1321.6</ele>
        <time>2021-10-08T11:11:19Z</time>
      </trkpt>
      <trkpt lat="44.83041" lon="5.36793">
        <ele>1321.6</ele>
        <time>2021-10-08T11:11:20Z</time>
      </trkpt>
      <trkpt lat="44.83042" lon="5.36794">
        <ele>1322.2</ele>
        <time>2021-10-08T11:11:21Z</time>
      </trkpt>
      <trkpt lat="44.83043" lon="5.36796">
        <ele>1322.2</ele>
        <time>2021-10-08T11:11:22Z</time>
      </trkpt>
      <trkpt lat="44.83044" lon="5.36797">
        <ele>1322.2</ele>
        <time>2021-10-08T11:11:23Z</time>
      </trkpt>
      <trkpt lat="44.83045" lon="5.36799">
        <ele>1322.2</ele>
        <time>2021-10-08T11:11:24Z</time>
      </trkpt>
      <trkpt lat="44.83046" lon="5.368">
        <ele>1323</ele>
        <time>2021-10-08T11:11:25Z</time>
      </trkpt>
      <trkpt lat="44.83046" lon="5.36802">
        <ele>1323.4</ele>
        <time>2021-10-08T11:11:26Z</time>
      </trkpt>
      <trkpt lat="44.83047" lon="5.36804">
        <ele>1323.4</ele>
        <time>2021-10-08T11:11:27Z</time>
      </trkpt>
      <trkpt lat="44.83048" lon="5.36805">
        <ele>1323.4</ele>
        <time>2021-10-08T11:11:28Z</time>
      </trkpt>
      <trkpt lat="44.83049" lon="5.36806">
        <ele>1323.4</ele>
        <time>2021-10-08T11:11:29Z</time>
      </trkpt>
      <trkpt lat="44.8305" lon="5.36808">
        <ele>1324</ele>
        <time>2021-10-08T11:11:30Z</time>
      </trkpt>
      <trkpt lat="44.83051" lon="5.3681">
        <ele>1324</ele>
        <time>2021-10-08T11:11:31Z</time>
      </trkpt>
      <trkpt lat="44.83052" lon="5.36811">
        <ele>1324</ele>
        <time>2021-10-08T11:11:32Z</time>
      </trkpt>
      <trkpt lat="44.83053" lon="5.36813">
        <ele>1324</ele>
        <time>2021-10-08T11:11:33Z</time>
      </trkpt>
      <trkpt lat="44.83054" lon="5.36814">
        <ele>1324.2</ele>
        <time>2021-10-08T11:11:34Z</time>
      </trkpt>
      <trkpt lat="44.83055" lon="5.36816">
        <ele>1324.2</ele>
        <time>2021-10-08T11:11:35Z</time>
      </trkpt>
      <trkpt lat="44.83055" lon="5.36818">
        <ele>1324.2</ele>
        <time>2021-10-08T11:11:36Z</time>
      </trkpt>
      <trkpt lat="44.83056" lon="5.3682">
        <ele>1324.2</ele>
        <time>2021-10-08T11:11:37Z</time>
      </trkpt>
      <trkpt lat="44.83057" lon="5.36821">
        <ele>1325.2</ele>
        <time>2021-10-08T11:11:38Z</time>
      </trkpt>
      <trkpt lat="44.83059" lon="5.36823">
        <ele>1325.2</ele>
        <time>2021-10-08T11:11:39Z</time>
      </trkpt>
      <trkpt lat="44.8306" lon="5.36824">
        <ele>1325.2</ele>
        <time>2021-10-08T11:11:40Z</time>
      </trkpt>
      <trkpt lat="44.83061" lon="5.36825">
        <ele>1325.8</ele>
        <time>2021-10-08T11:11:41Z</time>
      </trkpt>
      <trkpt lat="44.83062" lon="5.36827">
        <ele>1326</ele>
        <time>2021-10-08T11:11:42Z</time>
      </trkpt>
      <trkpt lat="44.83063" lon="5.36829">
        <ele>1326</ele>
        <time>2021-10-08T11:11:43Z</time>
      </trkpt>
      <trkpt lat="44.83064" lon="5.3683">
        <ele>1326</ele>
        <time>2021-10-08T11:11:44Z</time>
      </trkpt>
      <trkpt lat="44.83065" lon="5.36832">
        <ele>1326</ele>
        <time>2021-10-08T11:11:45Z</time>
      </trkpt>
      <trkpt lat="44.83065" lon="5.36833">
        <ele>1326</ele>
        <time>2021-10-08T11:11:46Z</time>
      </trkpt>
      <trkpt lat="44.83066" lon="5.36835">
        <ele>1326.6</ele>
        <time>2021-10-08T11:11:47Z</time>
      </trkpt>
      <trkpt lat="44.83067" lon="5.36837">
        <ele>1326.6</ele>
        <time>2021-10-08T11:11:48Z</time>
      </trkpt>
      <trkpt lat="44.83068" lon="5.36839">
        <ele>1326.6</ele>
        <time>2021-10-08T11:11:49Z</time>
      </trkpt>
      <trkpt lat="44.83068" lon="5.3684">
        <ele>1327.2</ele>
        <time>2021-10-08T11:11:50Z</time>
      </trkpt>
      <trkpt lat="44.83069" lon="5.36842">
        <ele>1327.2</ele>
        <time>2021-10-08T11:11:51Z</time>
      </trkpt>
      <trkpt lat="44.8307" lon="5.36844">
        <ele>1327.2</ele>
        <time>2021-10-08T11:11:52Z</time>
      </trkpt>
      <trkpt lat="44.83071" lon="5.36846">
        <ele>1327.2</ele>
        <time>2021-10-08T11:11:53Z</time>
      </trkpt>
      <trkpt lat="44.83071" lon="5.36847">
        <ele>1327.4</ele>
        <time>2021-10-08T11:11:54Z</time>
      </trkpt>
      <trkpt lat="44.83072" lon="5.36849">
        <ele>1327.4</ele>
        <time>2021-10-08T11:11:55Z</time>
      </trkpt>
      <trkpt lat="44.83073" lon="5.36851">
        <ele>1327.4</ele>
        <time>2021-10-08T11:11:56Z</time>
      </trkpt>
      <trkpt lat="44.83074" lon="5.36852">
        <ele>1328.2</ele>
        <time>2021-10-08T11:11:57Z</time>
      </trkpt>
      <trkpt lat="44.83074" lon="5.36854">
        <ele>1328.4</ele>
        <time>2021-10-08T11:11:58Z</time>
      </trkpt>
      <trkpt lat="44.83074" lon="5.36855">
        <ele>1328.4</ele>
        <time>2021-10-08T11:11:59Z</time>
      </trkpt>
      <trkpt lat="44.83076" lon="5.36857">
        <ele>1328.4</ele>
        <time>2021-10-08T11:12:00Z</time>
      </trkpt>
      <trkpt lat="44.83077" lon="5.36859">
        <ele>1329</ele>
        <time>2021-10-08T11:12:01Z</time>
      </trkpt>
      <trkpt lat="44.83078" lon="5.3686">
        <ele>1329.2</ele>
        <time>2021-10-08T11:12:02Z</time>
      </trkpt>
      <trkpt lat="44.83079" lon="5.36862">
        <ele>1329.2</ele>
        <time>2021-10-08T11:12:03Z</time>
      </trkpt>
      <trkpt lat="44.83079" lon="5.36864">
        <ele>1329.2</ele>
        <time>2021-10-08T11:12:04Z</time>
      </trkpt>
      <trkpt lat="44.8308" lon="5.36865">
        <ele>1329.8</ele>
        <time>2021-10-08T11:12:05Z</time>
      </trkpt>
      <trkpt lat="44.83081" lon="5.36866">
        <ele>1329.8</ele>
        <time>2021-10-08T11:12:06Z</time>
      </trkpt>
      <trkpt lat="44.83082" lon="5.36868">
        <ele>1329.8</ele>
        <time>2021-10-08T11:12:07Z</time>
      </trkpt>
      <trkpt lat="44.83083" lon="5.3687">
        <ele>1329.8</ele>
        <time>2021-10-08T11:12:08Z</time>
      </trkpt>
      <trkpt lat="44.83084" lon="5.36871">
        <ele>1330.4</ele>
        <time>2021-10-08T11:12:09Z</time>
      </trkpt>
      <trkpt lat="44.83085" lon="5.36873">
        <ele>1330.2</ele>
        <time>2021-10-08T11:12:10Z</time>
      </trkpt>
      <trkpt lat="44.83087" lon="5.36874">
        <ele>1330.2</ele>
        <time>2021-10-08T11:12:11Z</time>
      </trkpt>
      <trkpt lat="44.83088" lon="5.36875">
        <ele>1330.2</ele>
        <time>2021-10-08T11:12:12Z</time>
      </trkpt>
      <trkpt lat="44.83089" lon="5.36877">
        <ele>1330.6</ele>
        <time>2021-10-08T11:12:13Z</time>
      </trkpt>
      <trkpt lat="44.83089" lon="5.36878">
        <ele>1331.2</ele>
        <time>2021-10-08T11:12:14Z</time>
      </trkpt>
      <trkpt lat="44.8309" lon="5.3688">
        <ele>1331.2</ele>
        <time>2021-10-08T11:12:15Z</time>
      </trkpt>
      <trkpt lat="44.8309" lon="5.36881">
        <ele>1331.2</ele>
        <time>2021-10-08T11:12:16Z</time>
      </trkpt>
      <trkpt lat="44.83091" lon="5.36882">
        <ele>1332</ele>
        <time>2021-10-08T11:12:17Z</time>
      </trkpt>
      <trkpt lat="44.83092" lon="5.36884">
        <ele>1332.2</ele>
        <time>2021-10-08T11:12:18Z</time>
      </trkpt>
      <trkpt lat="44.83093" lon="5.36885">
        <ele>1332.2</ele>
        <time>2021-10-08T11:12:19Z</time>
      </trkpt>
      <trkpt lat="44.83094" lon="5.36887">
        <ele>1332.2</ele>
        <time>2021-10-08T11:12:20Z</time>
      </trkpt>
      <trkpt lat="44.83095" lon="5.36889">
        <ele>1332.2</ele>
        <time>2021-10-08T11:12:21Z</time>
      </trkpt>
      <trkpt lat="44.83096" lon="5.3689">
        <ele>1332.8</ele>
        <time>2021-10-08T11:12:22Z</time>
      </trkpt>
      <trkpt lat="44.83097" lon="5.36891">
        <ele>1332.8</ele>
        <time>2021-10-08T11:12:23Z</time>
      </trkpt>
      <trkpt lat="44.83098" lon="5.36893">
        <ele>1332.8</ele>
        <time>2021-10-08T11:12:24Z</time>
      </trkpt>
      <trkpt lat="44.83099" lon="5.36894">
        <ele>1333.2</ele>
        <time>2021-10-08T11:12:25Z</time>
      </trkpt>
      <trkpt lat="44.831" lon="5.36895">
        <ele>1334</ele>
        <time>2021-10-08T11:12:26Z</time>
      </trkpt>
      <trkpt lat="44.83101" lon="5.36897">
        <ele>1334</ele>
        <time>2021-10-08T11:12:27Z</time>
      </trkpt>
      <trkpt lat="44.83101" lon="5.36899">
        <ele>1334</ele>
        <time>2021-10-08T11:12:28Z</time>
      </trkpt>
      <trkpt lat="44.83102" lon="5.369">
        <ele>1334</ele>
        <time>2021-10-08T11:12:29Z</time>
      </trkpt>
      <trkpt lat="44.83103" lon="5.36902">
        <ele>1333.8</ele>
        <time>2021-10-08T11:12:30Z</time>
      </trkpt>
      <trkpt lat="44.83103" lon="5.36903">
        <ele>1333.8</ele>
        <time>2021-10-08T11:12:31Z</time>
      </trkpt>
      <trkpt lat="44.83104" lon="5.36904">
        <ele>1333.8</ele>
        <time>2021-10-08T11:12:32Z</time>
      </trkpt>
      <trkpt lat="44.83105" lon="5.36906">
        <ele>1333.8</ele>
        <time>2021-10-08T11:12:33Z</time>
      </trkpt>
      <trkpt lat="44.83105" lon="5.36908">
        <ele>1334.8</ele>
        <time>2021-10-08T11:12:34Z</time>
      </trkpt>
      <trkpt lat="44.83106" lon="5.36909">
        <ele>1334.8</ele>
        <time>2021-10-08T11:12:35Z</time>
      </trkpt>
      <trkpt lat="44.83107" lon="5.36911">
        <ele>1334.8</ele>
        <time>2021-10-08T11:12:36Z</time>
      </trkpt>
      <trkpt lat="44.83108" lon="5.36913">
        <ele>1334.8</ele>
        <time>2021-10-08T11:12:37Z</time>
      </trkpt>
      <trkpt lat="44.83109" lon="5.36914">
        <ele>1335.2</ele>
        <time>2021-10-08T11:12:38Z</time>
      </trkpt>
      <trkpt lat="44.8311" lon="5.36916">
        <ele>1335.2</ele>
        <time>2021-10-08T11:12:39Z</time>
      </trkpt>
      <trkpt lat="44.83111" lon="5.36917">
        <ele>1335.2</ele>
        <time>2021-10-08T11:12:40Z</time>
      </trkpt>
      <trkpt lat="44.83112" lon="5.36918">
        <ele>1335.2</ele>
        <time>2021-10-08T11:12:41Z</time>
      </trkpt>
      <trkpt lat="44.83113" lon="5.3692">
        <ele>1335.8</ele>
        <time>2021-10-08T11:12:42Z</time>
      </trkpt>
      <trkpt lat="44.83114" lon="5.36921">
        <ele>1335.8</ele>
        <time>2021-10-08T11:12:43Z</time>
      </trkpt>
      <trkpt lat="44.83115" lon="5.36923">
        <ele>1335.8</ele>
        <time>2021-10-08T11:12:44Z</time>
      </trkpt>
      <trkpt lat="44.83116" lon="5.36925">
        <ele>1336.2</ele>
        <time>2021-10-08T11:12:45Z</time>
      </trkpt>
      <trkpt lat="44.83116" lon="5.36926">
        <ele>1337</ele>
        <time>2021-10-08T11:12:46Z</time>
      </trkpt>
      <trkpt lat="44.83118" lon="5.36927">
        <ele>1337</ele>
        <time>2021-10-08T11:12:47Z</time>
      </trkpt>
      <trkpt lat="44.83119" lon="5.36928">
        <ele>1337</ele>
        <time>2021-10-08T11:12:48Z</time>
      </trkpt>
      <trkpt lat="44.83119" lon="5.3693">
        <ele>1336.6</ele>
        <time>2021-10-08T11:12:49Z</time>
      </trkpt>
      <trkpt lat="44.8312" lon="5.36931">
        <ele>1337.4</ele>
        <time>2021-10-08T11:12:50Z</time>
      </trkpt>
      <trkpt lat="44.83122" lon="5.36933">
        <ele>1337.4</ele>
        <time>2021-10-08T11:12:51Z</time>
      </trkpt>
      <trkpt lat="44.83122" lon="5.36934">
        <ele>1337.4</ele>
        <time>2021-10-08T11:12:52Z</time>
      </trkpt>
      <trkpt lat="44.83123" lon="5.36936">
        <ele>1337.4</ele>
        <time>2021-10-08T11:12:53Z</time>
      </trkpt>
      <trkpt lat="44.83124" lon="5.36937">
        <ele>1338</ele>
        <time>2021-10-08T11:12:54Z</time>
      </trkpt>
      <trkpt lat="44.83125" lon="5.36939">
        <ele>1338</ele>
        <time>2021-10-08T11:12:55Z</time>
      </trkpt>
      <trkpt lat="44.83126" lon="5.3694">
        <ele>1338</ele>
        <time>2021-10-08T11:12:56Z</time>
      </trkpt>
      <trkpt lat="44.83126" lon="5.36942">
        <ele>1338.4</ele>
        <time>2021-10-08T11:12:57Z</time>
      </trkpt>
      <trkpt lat="44.83126" lon="5.36944">
        <ele>1338.8</ele>
        <time>2021-10-08T11:12:58Z</time>
      </trkpt>
      <trkpt lat="44.83127" lon="5.36945">
        <ele>1338.8</ele>
        <time>2021-10-08T11:12:59Z</time>
      </trkpt>
      <trkpt lat="44.83128" lon="5.36947">
        <ele>1338.8</ele>
        <time>2021-10-08T11:13:00Z</time>
      </trkpt>
      <trkpt lat="44.83129" lon="5.36948">
        <ele>1338.6</ele>
        <time>2021-10-08T11:13:01Z</time>
      </trkpt>
      <trkpt lat="44.8313" lon="5.3695">
        <ele>1339</ele>
        <time>2021-10-08T11:13:02Z</time>
      </trkpt>
      <trkpt lat="44.83131" lon="5.36951">
        <ele>1339</ele>
        <time>2021-10-08T11:13:03Z</time>
      </trkpt>
      <trkpt lat="44.83132" lon="5.36952">
        <ele>1339</ele>
        <time>2021-10-08T11:13:04Z</time>
      </trkpt>
      <trkpt lat="44.83133" lon="5.36954">
        <ele>1339</ele>
        <time>2021-10-08T11:13:05Z</time>
      </trkpt>
      <trkpt lat="44.83134" lon="5.36956">
        <ele>1339.6</ele>
        <time>2021-10-08T11:13:06Z</time>
      </trkpt>
      <trkpt lat="44.83134" lon="5.36957">
        <ele>1339.6</ele>
        <time>2021-10-08T11:13:07Z</time>
      </trkpt>
      <trkpt lat="44.83135" lon="5.36959">
        <ele>1339.6</ele>
        <time>2021-10-08T11:13:08Z</time>
      </trkpt>
      <trkpt lat="44.83135" lon="5.3696">
        <ele>1340.2</ele>
        <time>2021-10-08T11:13:09Z</time>
      </trkpt>
      <trkpt lat="44.83136" lon="5.36961">
        <ele>1340.2</ele>
        <time>2021-10-08T11:13:10Z</time>
      </trkpt>
      <trkpt lat="44.83137" lon="5.36963">
        <ele>1340.2</ele>
        <time>2021-10-08T11:13:11Z</time>
      </trkpt>
      <trkpt lat="44.83138" lon="5.36964">
        <ele>1340.2</ele>
        <time>2021-10-08T11:13:12Z</time>
      </trkpt>
      <trkpt lat="44.83139" lon="5.36965">
        <ele>1340.2</ele>
        <time>2021-10-08T11:13:13Z</time>
      </trkpt>
      <trkpt lat="44.8314" lon="5.36967">
        <ele>1341.2</ele>
        <time>2021-10-08T11:13:14Z</time>
      </trkpt>
      <trkpt lat="44.83141" lon="5.36968">
        <ele>1341.2</ele>
        <time>2021-10-08T11:13:15Z</time>
      </trkpt>
      <trkpt lat="44.83142" lon="5.36969">
        <ele>1341.2</ele>
        <time>2021-10-08T11:13:16Z</time>
      </trkpt>
      <trkpt lat="44.83143" lon="5.3697">
        <ele>1341.2</ele>
        <time>2021-10-08T11:13:17Z</time>
      </trkpt>
      <trkpt lat="44.83144" lon="5.36972">
        <ele>1341.8</ele>
        <time>2021-10-08T11:13:18Z</time>
      </trkpt>
      <trkpt lat="44.83146" lon="5.36973">
        <ele>1341.8</ele>
        <time>2021-10-08T11:13:19Z</time>
      </trkpt>
      <trkpt lat="44.83147" lon="5.36974">
        <ele>1341.8</ele>
        <time>2021-10-08T11:13:20Z</time>
      </trkpt>
      <trkpt lat="44.83148" lon="5.36976">
        <ele>1341.8</ele>
        <time>2021-10-08T11:13:21Z</time>
      </trkpt>
      <trkpt lat="44.83149" lon="5.36976">
        <ele>1342.4</ele>
        <time>2021-10-08T11:13:22Z</time>
      </trkpt>
      <trkpt lat="44.8315" lon="5.36977">
        <ele>1342.4</ele>
        <time>2021-10-08T11:13:23Z</time>
      </trkpt>
      <trkpt lat="44.83151" lon="5.36978">
        <ele>1342.4</ele>
        <time>2021-10-08T11:13:24Z</time>
      </trkpt>
      <trkpt lat="44.83152" lon="5.3698">
        <ele>1343</ele>
        <time>2021-10-08T11:13:25Z</time>
      </trkpt>
      <trkpt lat="44.83153" lon="5.3698">
        <ele>1343.2</ele>
        <time>2021-10-08T11:13:26Z</time>
      </trkpt>
      <trkpt lat="44.83154" lon="5.36981">
        <ele>1343.2</ele>
        <time>2021-10-08T11:13:27Z</time>
      </trkpt>
      <trkpt lat="44.83155" lon="5.36983">
        <ele>1343.2</ele>
        <time>2021-10-08T11:13:28Z</time>
      </trkpt>
      <trkpt lat="44.83155" lon="5.36984">
        <ele>1343.2</ele>
        <time>2021-10-08T11:13:29Z</time>
      </trkpt>
      <trkpt lat="44.83156" lon="5.36986">
        <ele>1343.8</ele>
        <time>2021-10-08T11:13:30Z</time>
      </trkpt>
      <trkpt lat="44.83157" lon="5.36987">
        <ele>1343.8</ele>
        <time>2021-10-08T11:13:31Z</time>
      </trkpt>
      <trkpt lat="44.83158" lon="5.36988">
        <ele>1343.8</ele>
        <time>2021-10-08T11:13:32Z</time>
      </trkpt>
      <trkpt lat="44.83159" lon="5.3699">
        <ele>1344.6</ele>
        <time>2021-10-08T11:13:33Z</time>
      </trkpt>
      <trkpt lat="44.83161" lon="5.36991">
        <ele>1344.6</ele>
        <time>2021-10-08T11:13:34Z</time>
      </trkpt>
      <trkpt lat="44.83162" lon="5.36992">
        <ele>1344.6</ele>
        <time>2021-10-08T11:13:35Z</time>
      </trkpt>
      <trkpt lat="44.83163" lon="5.36994">
        <ele>1344.6</ele>
        <time>2021-10-08T11:13:36Z</time>
      </trkpt>
      <trkpt lat="44.83164" lon="5.36995">
        <ele>1345</ele>
        <time>2021-10-08T11:13:37Z</time>
      </trkpt>
      <trkpt lat="44.83165" lon="5.36997">
        <ele>1345.4</ele>
        <time>2021-10-08T11:13:38Z</time>
      </trkpt>
      <trkpt lat="44.83166" lon="5.36998">
        <ele>1345.4</ele>
        <time>2021-10-08T11:13:39Z</time>
      </trkpt>
      <trkpt lat="44.83167" lon="5.36999">
        <ele>1345.4</ele>
        <time>2021-10-08T11:13:40Z</time>
      </trkpt>
      <trkpt lat="44.83168" lon="5.37">
        <ele>1345.4</ele>
        <time>2021-10-08T11:13:41Z</time>
      </trkpt>
      <trkpt lat="44.83169" lon="5.37002">
        <ele>1345.6</ele>
        <time>2021-10-08T11:13:42Z</time>
      </trkpt>
      <trkpt lat="44.83169" lon="5.37004">
        <ele>1345.6</ele>
        <time>2021-10-08T11:13:43Z</time>
      </trkpt>
      <trkpt lat="44.8317" lon="5.37005">
        <ele>1345.6</ele>
        <time>2021-10-08T11:13:44Z</time>
      </trkpt>
      <trkpt lat="44.83171" lon="5.37006">
        <ele>1346</ele>
        <time>2021-10-08T11:13:45Z</time>
      </trkpt>
      <trkpt lat="44.83172" lon="5.37007">
        <ele>1347</ele>
        <time>2021-10-08T11:13:46Z</time>
      </trkpt>
      <trkpt lat="44.83173" lon="5.37008">
        <ele>1347</ele>
        <time>2021-10-08T11:13:47Z</time>
      </trkpt>
      <trkpt lat="44.83174" lon="5.37009">
        <ele>1347</ele>
        <time>2021-10-08T11:13:48Z</time>
      </trkpt>
      <trkpt lat="44.83175" lon="5.37011">
        <ele>1347</ele>
        <time>2021-10-08T11:13:49Z</time>
      </trkpt>
      <trkpt lat="44.83176" lon="5.37012">
        <ele>1347.2</ele>
        <time>2021-10-08T11:13:50Z</time>
      </trkpt>
      <trkpt lat="44.83177" lon="5.37013">
        <ele>1347.2</ele>
        <time>2021-10-08T11:13:51Z</time>
      </trkpt>
      <trkpt lat="44.83178" lon="5.37014">
        <ele>1347.2</ele>
        <time>2021-10-08T11:13:52Z</time>
      </trkpt>
      <trkpt lat="44.83179" lon="5.37015">
        <ele>1347.4</ele>
        <time>2021-10-08T11:13:53Z</time>
      </trkpt>
      <trkpt lat="44.8318" lon="5.37017">
        <ele>1348</ele>
        <time>2021-10-08T11:13:54Z</time>
      </trkpt>
      <trkpt lat="44.83181" lon="5.37019">
        <ele>1348</ele>
        <time>2021-10-08T11:13:55Z</time>
      </trkpt>
      <trkpt lat="44.83182" lon="5.37021">
        <ele>1348</ele>
        <time>2021-10-08T11:13:56Z</time>
      </trkpt>
      <trkpt lat="44.83183" lon="5.37022">
        <ele>1348</ele>
        <time>2021-10-08T11:13:57Z</time>
      </trkpt>
      <trkpt lat="44.83184" lon="5.37023">
        <ele>1348.2</ele>
        <time>2021-10-08T11:13:58Z</time>
      </trkpt>
      <trkpt lat="44.83185" lon="5.37025">
        <ele>1348.2</ele>
        <time>2021-10-08T11:13:59Z</time>
      </trkpt>
      <trkpt lat="44.83186" lon="5.37026">
        <ele>1348.2</ele>
        <time>2021-10-08T11:14:00Z</time>
      </trkpt>
      <trkpt lat="44.83187" lon="5.37027">
        <ele>1348.8</ele>
        <time>2021-10-08T11:14:01Z</time>
      </trkpt>
      <trkpt lat="44.83188" lon="5.37028">
        <ele>1349.2</ele>
        <time>2021-10-08T11:14:02Z</time>
      </trkpt>
      <trkpt lat="44.83189" lon="5.3703">
        <ele>1349.2</ele>
        <time>2021-10-08T11:14:03Z</time>
      </trkpt>
      <trkpt lat="44.8319" lon="5.37032">
        <ele>1349.2</ele>
        <time>2021-10-08T11:14:04Z</time>
      </trkpt>
      <trkpt lat="44.83191" lon="5.37033">
        <ele>1350.2</ele>
        <time>2021-10-08T11:14:05Z</time>
      </trkpt>
      <trkpt lat="44.83192" lon="5.37034">
        <ele>1350</ele>
        <time>2021-10-08T11:14:06Z</time>
      </trkpt>
      <trkpt lat="44.83193" lon="5.37035">
        <ele>1350</ele>
        <time>2021-10-08T11:14:07Z</time>
      </trkpt>
      <trkpt lat="44.83194" lon="5.37037">
        <ele>1350</ele>
        <time>2021-10-08T11:14:08Z</time>
      </trkpt>
      <trkpt lat="44.83195" lon="5.37038">
        <ele>1350.8</ele>
        <time>2021-10-08T11:14:09Z</time>
      </trkpt>
      <trkpt lat="44.83196" lon="5.3704">
        <ele>1350.6</ele>
        <time>2021-10-08T11:14:10Z</time>
      </trkpt>
      <trkpt lat="44.83197" lon="5.37041">
        <ele>1350.6</ele>
        <time>2021-10-08T11:14:11Z</time>
      </trkpt>
      <trkpt lat="44.83198" lon="5.37043">
        <ele>1350.6</ele>
        <time>2021-10-08T11:14:12Z</time>
      </trkpt>
      <trkpt lat="44.83199" lon="5.37044">
        <ele>1351</ele>
        <time>2021-10-08T11:14:13Z</time>
      </trkpt>
      <trkpt lat="44.832" lon="5.37045">
        <ele>1351</ele>
        <time>2021-10-08T11:14:14Z</time>
      </trkpt>
      <trkpt lat="44.83201" lon="5.37046">
        <ele>1351</ele>
        <time>2021-10-08T11:14:15Z</time>
      </trkpt>
      <trkpt lat="44.83202" lon="5.37047">
        <ele>1351</ele>
        <time>2021-10-08T11:14:16Z</time>
      </trkpt>
      <trkpt lat="44.83203" lon="5.37048">
        <ele>1351.8</ele>
        <time>2021-10-08T11:14:17Z</time>
      </trkpt>
      <trkpt lat="44.83205" lon="5.37049">
        <ele>1352.4</ele>
        <time>2021-10-08T11:14:18Z</time>
      </trkpt>
      <trkpt lat="44.83206" lon="5.37051">
        <ele>1352.4</ele>
        <time>2021-10-08T11:14:19Z</time>
      </trkpt>
      <trkpt lat="44.83207" lon="5.37052">
        <ele>1352.4</ele>
        <time>2021-10-08T11:14:20Z</time>
      </trkpt>
      <trkpt lat="44.83208" lon="5.37053">
        <ele>1352.8</ele>
        <time>2021-10-08T11:14:21Z</time>
      </trkpt>
      <trkpt lat="44.83209" lon="5.37055">
        <ele>1352.8</ele>
        <time>2021-10-08T11:14:22Z</time>
      </trkpt>
      <trkpt lat="44.8321" lon="5.37056">
        <ele>1352.8</ele>
        <time>2021-10-08T11:14:23Z</time>
      </trkpt>
      <trkpt lat="44.8321" lon="5.37057">
        <ele>1352.8</ele>
        <time>2021-10-08T11:14:24Z</time>
      </trkpt>
      <trkpt lat="44.83211" lon="5.37059">
        <ele>1353</ele>
        <time>2021-10-08T11:14:25Z</time>
      </trkpt>
      <trkpt lat="44.83211" lon="5.3706">
        <ele>1353.6</ele>
        <time>2021-10-08T11:14:26Z</time>
      </trkpt>
      <trkpt lat="44.83212" lon="5.37062">
        <ele>1353.6</ele>
        <time>2021-10-08T11:14:27Z</time>
      </trkpt>
      <trkpt lat="44.83214" lon="5.37064">
        <ele>1353.6</ele>
        <time>2021-10-08T11:14:28Z</time>
      </trkpt>
      <trkpt lat="44.83215" lon="5.37065">
        <ele>1354</ele>
        <time>2021-10-08T11:14:29Z</time>
      </trkpt>
      <trkpt lat="44.83216" lon="5.37067">
        <ele>1354</ele>
        <time>2021-10-08T11:14:30Z</time>
      </trkpt>
      <trkpt lat="44.83217" lon="5.37069">
        <ele>1354</ele>
        <time>2021-10-08T11:14:31Z</time>
      </trkpt>
      <trkpt lat="44.83218" lon="5.3707">
        <ele>1354</ele>
        <time>2021-10-08T11:14:32Z</time>
      </trkpt>
      <trkpt lat="44.83219" lon="5.37072">
        <ele>1354.6</ele>
        <time>2021-10-08T11:14:33Z</time>
      </trkpt>
      <trkpt lat="44.8322" lon="5.37072">
        <ele>1354.8</ele>
        <time>2021-10-08T11:14:34Z</time>
      </trkpt>
      <trkpt lat="44.83221" lon="5.37074">
        <ele>1354.8</ele>
        <time>2021-10-08T11:14:35Z</time>
      </trkpt>
      <trkpt lat="44.83222" lon="5.37076">
        <ele>1354.8</ele>
        <time>2021-10-08T11:14:36Z</time>
      </trkpt>
      <trkpt lat="44.83223" lon="5.37077">
        <ele>1354.8</ele>
        <time>2021-10-08T11:14:37Z</time>
      </trkpt>
      <trkpt lat="44.83224" lon="5.37079">
        <ele>1355.2</ele>
        <time>2021-10-08T11:14:38Z</time>
      </trkpt>
      <trkpt lat="44.83225" lon="5.37081">
        <ele>1355.2</ele>
        <time>2021-10-08T11:14:39Z</time>
      </trkpt>
      <trkpt lat="44.83226" lon="5.37083">
        <ele>1355.2</ele>
        <time>2021-10-08T11:14:40Z</time>
      </trkpt>
      <trkpt lat="44.83227" lon="5.37084">
        <ele>1356.2</ele>
        <time>2021-10-08T11:14:41Z</time>
      </trkpt>
      <trkpt lat="44.83227" lon="5.37086">
        <ele>1356.2</ele>
        <time>2021-10-08T11:14:42Z</time>
      </trkpt>
      <trkpt lat="44.83228" lon="5.37087">
        <ele>1356.2</ele>
        <time>2021-10-08T11:14:43Z</time>
      </trkpt>
      <trkpt lat="44.83229" lon="5.37089">
        <ele>1356.2</ele>
        <time>2021-10-08T11:14:44Z</time>
      </trkpt>
      <trkpt lat="44.83229" lon="5.37091">
        <ele>1356.6</ele>
        <time>2021-10-08T11:14:45Z</time>
      </trkpt>
      <trkpt lat="44.83229" lon="5.37093">
        <ele>1356.6</ele>
        <time>2021-10-08T11:14:46Z</time>
      </trkpt>
      <trkpt lat="44.8323" lon="5.37094">
        <ele>1356.6</ele>
        <time>2021-10-08T11:14:47Z</time>
      </trkpt>
      <trkpt lat="44.83231" lon="5.37095">
        <ele>1356.6</ele>
        <time>2021-10-08T11:14:48Z</time>
      </trkpt>
      <trkpt lat="44.83232" lon="5.37097">
        <ele>1356.6</ele>
        <time>2021-10-08T11:14:49Z</time>
      </trkpt>
      <trkpt lat="44.83233" lon="5.37098">
        <ele>1357.4</ele>
        <time>2021-10-08T11:14:50Z</time>
      </trkpt>
      <trkpt lat="44.83234" lon="5.37099">
        <ele>1357.4</ele>
        <time>2021-10-08T11:14:51Z</time>
      </trkpt>
      <trkpt lat="44.83235" lon="5.37101">
        <ele>1357.4</ele>
        <time>2021-10-08T11:14:52Z</time>
      </trkpt>
      <trkpt lat="44.83236" lon="5.37102">
        <ele>1357.8</ele>
        <time>2021-10-08T11:14:53Z</time>
      </trkpt>
      <trkpt lat="44.83237" lon="5.37104">
        <ele>1357.8</ele>
        <time>2021-10-08T11:14:54Z</time>
      </trkpt>
      <trkpt lat="44.83238" lon="5.37106">
        <ele>1357.8</ele>
        <time>2021-10-08T11:14:55Z</time>
      </trkpt>
      <trkpt lat="44.83239" lon="5.37107">
        <ele>1357.8</ele>
        <time>2021-10-08T11:14:56Z</time>
      </trkpt>
      <trkpt lat="44.8324" lon="5.37109">
        <ele>1358.8</ele>
        <time>2021-10-08T11:14:57Z</time>
      </trkpt>
      <trkpt lat="44.8324" lon="5.3711">
        <ele>1359</ele>
        <time>2021-10-08T11:14:58Z</time>
      </trkpt>
      <trkpt lat="44.83241" lon="5.37111">
        <ele>1359</ele>
        <time>2021-10-08T11:14:59Z</time>
      </trkpt>
      <trkpt lat="44.83242" lon="5.37113">
        <ele>1359</ele>
        <time>2021-10-08T11:15:00Z</time>
      </trkpt>
      <trkpt lat="44.83243" lon="5.37114">
        <ele>1359.6</ele>
        <time>2021-10-08T11:15:01Z</time>
      </trkpt>
      <trkpt lat="44.83244" lon="5.37115">
        <ele>1359.8</ele>
        <time>2021-10-08T11:15:02Z</time>
      </trkpt>
      <trkpt lat="44.83245" lon="5.37116">
        <ele>1359.8</ele>
        <time>2021-10-08T11:15:03Z</time>
      </trkpt>
      <trkpt lat="44.83246" lon="5.37118">
        <ele>1359.8</ele>
        <time>2021-10-08T11:15:04Z</time>
      </trkpt>
      <trkpt lat="44.83246" lon="5.3712">
        <ele>1360.2</ele>
        <time>2021-10-08T11:15:05Z</time>
      </trkpt>
      <trkpt lat="44.83247" lon="5.37122">
        <ele>1360.4</ele>
        <time>2021-10-08T11:15:06Z</time>
      </trkpt>
      <trkpt lat="44.83248" lon="5.37123">
        <ele>1360.4</ele>
        <time>2021-10-08T11:15:07Z</time>
      </trkpt>
      <trkpt lat="44.83248" lon="5.37125">
        <ele>1360.4</ele>
        <time>2021-10-08T11:15:08Z</time>
      </trkpt>
      <trkpt lat="44.83249" lon="5.37127">
        <ele>1360.8</ele>
        <time>2021-10-08T11:15:09Z</time>
      </trkpt>
      <trkpt lat="44.8325" lon="5.37128">
        <ele>1360.8</ele>
        <time>2021-10-08T11:15:10Z</time>
      </trkpt>
      <trkpt lat="44.83251" lon="5.37129">
        <ele>1360.8</ele>
        <time>2021-10-08T11:15:11Z</time>
      </trkpt>
      <trkpt lat="44.83252" lon="5.37131">
        <ele>1360.8</ele>
        <time>2021-10-08T11:15:12Z</time>
      </trkpt>
      <trkpt lat="44.83253" lon="5.37132">
        <ele>1361.2</ele>
        <time>2021-10-08T11:15:13Z</time>
      </trkpt>
      <trkpt lat="44.83254" lon="5.37134">
        <ele>1361.2</ele>
        <time>2021-10-08T11:15:14Z</time>
      </trkpt>
      <trkpt lat="44.83255" lon="5.37135">
        <ele>1362.2</ele>
        <time>2021-10-08T11:15:15Z</time>
      </trkpt>
      <trkpt lat="44.83255" lon="5.37136">
        <ele>1362.2</ele>
        <time>2021-10-08T11:15:16Z</time>
      </trkpt>
      <trkpt lat="44.83256" lon="5.37138">
        <ele>1362.4</ele>
        <time>2021-10-08T11:15:17Z</time>
      </trkpt>
      <trkpt lat="44.83257" lon="5.37139">
        <ele>1362.4</ele>
        <time>2021-10-08T11:15:18Z</time>
      </trkpt>
      <trkpt lat="44.83257" lon="5.37141">
        <ele>1362.4</ele>
        <time>2021-10-08T11:15:19Z</time>
      </trkpt>
      <trkpt lat="44.83258" lon="5.37143">
        <ele>1362.4</ele>
        <time>2021-10-08T11:15:20Z</time>
      </trkpt>
      <trkpt lat="44.83258" lon="5.37144">
        <ele>1363</ele>
        <time>2021-10-08T11:15:21Z</time>
      </trkpt>
      <trkpt lat="44.83259" lon="5.37145">
        <ele>1363.2</ele>
        <time>2021-10-08T11:15:22Z</time>
      </trkpt>
      <trkpt lat="44.8326" lon="5.37146">
        <ele>1363.2</ele>
        <time>2021-10-08T11:15:23Z</time>
      </trkpt>
      <trkpt lat="44.83262" lon="5.37148">
        <ele>1363.2</ele>
        <time>2021-10-08T11:15:24Z</time>
      </trkpt>
      <trkpt lat="44.83263" lon="5.37149">
        <ele>1363.8</ele>
        <time>2021-10-08T11:15:25Z</time>
      </trkpt>
      <trkpt lat="44.83263" lon="5.37151">
        <ele>1364</ele>
        <time>2021-10-08T11:15:26Z</time>
      </trkpt>
      <trkpt lat="44.83264" lon="5.37152">
        <ele>1364</ele>
        <time>2021-10-08T11:15:27Z</time>
      </trkpt>
      <trkpt lat="44.83264" lon="5.37155">
        <ele>1364</ele>
        <time>2021-10-08T11:15:28Z</time>
      </trkpt>
      <trkpt lat="44.83264" lon="5.37156">
        <ele>1364.2</ele>
        <time>2021-10-08T11:15:29Z</time>
      </trkpt>
      <trkpt lat="44.83265" lon="5.37158">
        <ele>1364.4</ele>
        <time>2021-10-08T11:15:30Z</time>
      </trkpt>
      <trkpt lat="44.83266" lon="5.37159">
        <ele>1364.4</ele>
        <time>2021-10-08T11:15:31Z</time>
      </trkpt>
      <trkpt lat="44.83267" lon="5.3716">
        <ele>1364.4</ele>
        <time>2021-10-08T11:15:32Z</time>
      </trkpt>
      <trkpt lat="44.83268" lon="5.37162">
        <ele>1365</ele>
        <time>2021-10-08T11:15:33Z</time>
      </trkpt>
      <trkpt lat="44.83269" lon="5.37164">
        <ele>1365.2</ele>
        <time>2021-10-08T11:15:34Z</time>
      </trkpt>
      <trkpt lat="44.8327" lon="5.37166">
        <ele>1365.2</ele>
        <time>2021-10-08T11:15:35Z</time>
      </trkpt>
      <trkpt lat="44.83271" lon="5.37167">
        <ele>1365.2</ele>
        <time>2021-10-08T11:15:36Z</time>
      </trkpt>
      <trkpt lat="44.83272" lon="5.37169">
        <ele>1365.8</ele>
        <time>2021-10-08T11:15:37Z</time>
      </trkpt>
      <trkpt lat="44.83272" lon="5.3717">
        <ele>1366.4</ele>
        <time>2021-10-08T11:15:38Z</time>
      </trkpt>
      <trkpt lat="44.83273" lon="5.37172">
        <ele>1366.4</ele>
        <time>2021-10-08T11:15:39Z</time>
      </trkpt>
      <trkpt lat="44.83274" lon="5.37174">
        <ele>1366.4</ele>
        <time>2021-10-08T11:15:40Z</time>
      </trkpt>
      <trkpt lat="44.83275" lon="5.37175">
        <ele>1366.4</ele>
        <time>2021-10-08T11:15:41Z</time>
      </trkpt>
      <trkpt lat="44.83276" lon="5.37176">
        <ele>1367</ele>
        <time>2021-10-08T11:15:42Z</time>
      </trkpt>
      <trkpt lat="44.83276" lon="5.37178">
        <ele>1367</ele>
        <time>2021-10-08T11:15:43Z</time>
      </trkpt>
      <trkpt lat="44.83277" lon="5.37179">
        <ele>1367</ele>
        <time>2021-10-08T11:15:44Z</time>
      </trkpt>
      <trkpt lat="44.83278" lon="5.37181">
        <ele>1367</ele>
        <time>2021-10-08T11:15:45Z</time>
      </trkpt>
      <trkpt lat="44.83278" lon="5.37183">
        <ele>1367.6</ele>
        <time>2021-10-08T11:15:46Z</time>
      </trkpt>
      <trkpt lat="44.83279" lon="5.37184">
        <ele>1367.6</ele>
        <time>2021-10-08T11:15:47Z</time>
      </trkpt>
      <trkpt lat="44.8328" lon="5.37186">
        <ele>1367.6</ele>
        <time>2021-10-08T11:15:48Z</time>
      </trkpt>
      <trkpt lat="44.8328" lon="5.37188">
        <ele>1367.6</ele>
        <time>2021-10-08T11:15:49Z</time>
      </trkpt>
      <trkpt lat="44.83281" lon="5.3719">
        <ele>1367.8</ele>
        <time>2021-10-08T11:15:50Z</time>
      </trkpt>
      <trkpt lat="44.83281" lon="5.37192">
        <ele>1367.8</ele>
        <time>2021-10-08T11:15:51Z</time>
      </trkpt>
      <trkpt lat="44.83281" lon="5.37194">
        <ele>1367.8</ele>
        <time>2021-10-08T11:15:52Z</time>
      </trkpt>
      <trkpt lat="44.83281" lon="5.37196">
        <ele>1367.8</ele>
        <time>2021-10-08T11:15:53Z</time>
      </trkpt>
      <trkpt lat="44.83282" lon="5.37197">
        <ele>1368.8</ele>
        <time>2021-10-08T11:15:54Z</time>
      </trkpt>
      <trkpt lat="44.83283" lon="5.37199">
        <ele>1368.8</ele>
        <time>2021-10-08T11:15:55Z</time>
      </trkpt>
      <trkpt lat="44.83284" lon="5.372">
        <ele>1368.8</ele>
        <time>2021-10-08T11:15:56Z</time>
      </trkpt>
      <trkpt lat="44.83285" lon="5.37202">
        <ele>1369.4</ele>
        <time>2021-10-08T11:15:57Z</time>
      </trkpt>
      <trkpt lat="44.83285" lon="5.37203">
        <ele>1369.2</ele>
        <time>2021-10-08T11:15:58Z</time>
      </trkpt>
      <trkpt lat="44.83286" lon="5.37205">
        <ele>1369.2</ele>
        <time>2021-10-08T11:15:59Z</time>
      </trkpt>
      <trkpt lat="44.83287" lon="5.37206">
        <ele>1369.2</ele>
        <time>2021-10-08T11:16:00Z</time>
      </trkpt>
      <trkpt lat="44.83287" lon="5.37208">
        <ele>1369.8</ele>
        <time>2021-10-08T11:16:01Z</time>
      </trkpt>
      <trkpt lat="44.83288" lon="5.37209">
        <ele>1370.2</ele>
        <time>2021-10-08T11:16:02Z</time>
      </trkpt>
      <trkpt lat="44.83288" lon="5.37211">
        <ele>1370.2</ele>
        <time>2021-10-08T11:16:03Z</time>
      </trkpt>
      <trkpt lat="44.83288" lon="5.37213">
        <ele>1370.2</ele>
        <time>2021-10-08T11:16:04Z</time>
      </trkpt>
      <trkpt lat="44.83288" lon="5.37215">
        <ele>1370.2</ele>
        <time>2021-10-08T11:16:05Z</time>
      </trkpt>
      <trkpt lat="44.83289" lon="5.37217">
        <ele>1370.6</ele>
        <time>2021-10-08T11:16:06Z</time>
      </trkpt>
      <trkpt lat="44.8329" lon="5.37218">
        <ele>1370.6</ele>
        <time>2021-10-08T11:16:07Z</time>
      </trkpt>
      <trkpt lat="44.83291" lon="5.37219">
        <ele>1370.6</ele>
        <time>2021-10-08T11:16:08Z</time>
      </trkpt>
      <trkpt lat="44.83292" lon="5.3722">
        <ele>1370.6</ele>
        <time>2021-10-08T11:16:09Z</time>
      </trkpt>
      <trkpt lat="44.83293" lon="5.37223">
        <ele>1371</ele>
        <time>2021-10-08T11:16:10Z</time>
      </trkpt>
      <trkpt lat="44.83294" lon="5.37224">
        <ele>1371</ele>
        <time>2021-10-08T11:16:11Z</time>
      </trkpt>
      <trkpt lat="44.83295" lon="5.37226">
        <ele>1371</ele>
        <time>2021-10-08T11:16:12Z</time>
      </trkpt>
      <trkpt lat="44.83296" lon="5.37228">
        <ele>1371.2</ele>
        <time>2021-10-08T11:16:13Z</time>
      </trkpt>
      <trkpt lat="44.83296" lon="5.3723">
        <ele>1371.6</ele>
        <time>2021-10-08T11:16:14Z</time>
      </trkpt>
      <trkpt lat="44.83297" lon="5.37231">
        <ele>1371.6</ele>
        <time>2021-10-08T11:16:15Z</time>
      </trkpt>
      <trkpt lat="44.83298" lon="5.37233">
        <ele>1371.6</ele>
        <time>2021-10-08T11:16:16Z</time>
      </trkpt>
      <trkpt lat="44.83299" lon="5.37235">
        <ele>1372</ele>
        <time>2021-10-08T11:16:17Z</time>
      </trkpt>
      <trkpt lat="44.833" lon="5.37236">
        <ele>1372.4</ele>
        <time>2021-10-08T11:16:18Z</time>
      </trkpt>
      <trkpt lat="44.83302" lon="5.37238">
        <ele>1372.4</ele>
        <time>2021-10-08T11:16:19Z</time>
      </trkpt>
      <trkpt lat="44.83303" lon="5.37239">
        <ele>1372.4</ele>
        <time>2021-10-08T11:16:20Z</time>
      </trkpt>
      <trkpt lat="44.83304" lon="5.37241">
        <ele>1372.4</ele>
        <time>2021-10-08T11:16:21Z</time>
      </trkpt>
      <trkpt lat="44.83306" lon="5.37242">
        <ele>1373.2</ele>
        <time>2021-10-08T11:16:22Z</time>
      </trkpt>
      <trkpt lat="44.83307" lon="5.37244">
        <ele>1373.2</ele>
        <time>2021-10-08T11:16:23Z</time>
      </trkpt>
      <trkpt lat="44.83308" lon="5.37246">
        <ele>1373.2</ele>
        <time>2021-10-08T11:16:24Z</time>
      </trkpt>
      <trkpt lat="44.83309" lon="5.37247">
        <ele>1373.2</ele>
        <time>2021-10-08T11:16:25Z</time>
      </trkpt>
      <trkpt lat="44.8331" lon="5.37248">
        <ele>1373.6</ele>
        <time>2021-10-08T11:16:26Z</time>
      </trkpt>
      <trkpt lat="44.83312" lon="5.37249">
        <ele>1373.6</ele>
        <time>2021-10-08T11:16:27Z</time>
      </trkpt>
      <trkpt lat="44.83313" lon="5.37251">
        <ele>1373.6</ele>
        <time>2021-10-08T11:16:28Z</time>
      </trkpt>
      <trkpt lat="44.83314" lon="5.37252">
        <ele>1374.4</ele>
        <time>2021-10-08T11:16:29Z</time>
      </trkpt>
      <trkpt lat="44.83315" lon="5.37253">
        <ele>1375</ele>
        <time>2021-10-08T11:16:30Z</time>
      </trkpt>
      <trkpt lat="44.83317" lon="5.37254">
        <ele>1375</ele>
        <time>2021-10-08T11:16:31Z</time>
      </trkpt>
      <trkpt lat="44.83318" lon="5.37255">
        <ele>1375</ele>
        <time>2021-10-08T11:16:32Z</time>
      </trkpt>
      <trkpt lat="44.83319" lon="5.37256">
        <ele>1375</ele>
        <time>2021-10-08T11:16:33Z</time>
      </trkpt>
      <trkpt lat="44.83321" lon="5.37257">
        <ele>1375.8</ele>
        <time>2021-10-08T11:16:34Z</time>
      </trkpt>
      <trkpt lat="44.83322" lon="5.37258">
        <ele>1375.8</ele>
        <time>2021-10-08T11:16:35Z</time>
      </trkpt>
      <trkpt lat="44.83323" lon="5.37259">
        <ele>1375.8</ele>
        <time>2021-10-08T11:16:36Z</time>
      </trkpt>
      <trkpt lat="44.83324" lon="5.3726">
        <ele>1375.8</ele>
        <time>2021-10-08T11:16:37Z</time>
      </trkpt>
      <trkpt lat="44.83325" lon="5.37262">
        <ele>1376.8</ele>
        <time>2021-10-08T11:16:38Z</time>
      </trkpt>
      <trkpt lat="44.83327" lon="5.37263">
        <ele>1376.8</ele>
        <time>2021-10-08T11:16:39Z</time>
      </trkpt>
      <trkpt lat="44.83328" lon="5.37263">
        <ele>1376.8</ele>
        <time>2021-10-08T11:16:40Z</time>
      </trkpt>
      <trkpt lat="44.83329" lon="5.37264">
        <ele>1376.6</ele>
        <time>2021-10-08T11:16:41Z</time>
      </trkpt>
      <trkpt lat="44.8333" lon="5.37265">
        <ele>1377.6</ele>
        <time>2021-10-08T11:16:42Z</time>
      </trkpt>
      <trkpt lat="44.83332" lon="5.37266">
        <ele>1377.6</ele>
        <time>2021-10-08T11:16:43Z</time>
      </trkpt>
      <trkpt lat="44.83333" lon="5.37267">
        <ele>1377.6</ele>
        <time>2021-10-08T11:16:44Z</time>
      </trkpt>
      <trkpt lat="44.83334" lon="5.37268">
        <ele>1377.6</ele>
        <time>2021-10-08T11:16:45Z</time>
      </trkpt>
      <trkpt lat="44.83335" lon="5.3727">
        <ele>1378.2</ele>
        <time>2021-10-08T11:16:46Z</time>
      </trkpt>
      <trkpt lat="44.83336" lon="5.37271">
        <ele>1378.2</ele>
        <time>2021-10-08T11:16:47Z</time>
      </trkpt>
      <trkpt lat="44.83337" lon="5.37272">
        <ele>1378.2</ele>
        <time>2021-10-08T11:16:48Z</time>
      </trkpt>
      <trkpt lat="44.83339" lon="5.37273">
        <ele>1378.2</ele>
        <time>2021-10-08T11:16:49Z</time>
      </trkpt>
      <trkpt lat="44.8334" lon="5.37274">
        <ele>1378.6</ele>
        <time>2021-10-08T11:16:50Z</time>
      </trkpt>
      <trkpt lat="44.83342" lon="5.37275">
        <ele>1378.6</ele>
        <time>2021-10-08T11:16:51Z</time>
      </trkpt>
      <trkpt lat="44.83343" lon="5.37276">
        <ele>1378.6</ele>
        <time>2021-10-08T11:16:52Z</time>
      </trkpt>
      <trkpt lat="44.83344" lon="5.37277">
        <ele>1378.6</ele>
        <time>2021-10-08T11:16:53Z</time>
      </trkpt>
      <trkpt lat="44.83345" lon="5.37278">
        <ele>1379</ele>
        <time>2021-10-08T11:16:54Z</time>
      </trkpt>
      <trkpt lat="44.83346" lon="5.37279">
        <ele>1379</ele>
        <time>2021-10-08T11:16:55Z</time>
      </trkpt>
      <trkpt lat="44.83347" lon="5.3728">
        <ele>1379</ele>
        <time>2021-10-08T11:16:56Z</time>
      </trkpt>
      <trkpt lat="44.83348" lon="5.37281">
        <ele>1379.6</ele>
        <time>2021-10-08T11:16:57Z</time>
      </trkpt>
      <trkpt lat="44.8335" lon="5.37282">
        <ele>1379.6</ele>
        <time>2021-10-08T11:16:58Z</time>
      </trkpt>
      <trkpt lat="44.83351" lon="5.37283">
        <ele>1379.6</ele>
        <time>2021-10-08T11:16:59Z</time>
      </trkpt>
      <trkpt lat="44.83352" lon="5.37284">
        <ele>1379.6</ele>
        <time>2021-10-08T11:17:00Z</time>
      </trkpt>
      <trkpt lat="44.83353" lon="5.37285">
        <ele>1379.6</ele>
        <time>2021-10-08T11:17:01Z</time>
      </trkpt>
      <trkpt lat="44.83354" lon="5.37285">
        <ele>1380.4</ele>
        <time>2021-10-08T11:17:02Z</time>
      </trkpt>
      <trkpt lat="44.83356" lon="5.37286">
        <ele>1380.4</ele>
        <time>2021-10-08T11:17:03Z</time>
      </trkpt>
      <trkpt lat="44.83357" lon="5.37287">
        <ele>1380.4</ele>
        <time>2021-10-08T11:17:04Z</time>
      </trkpt>
      <trkpt lat="44.83359" lon="5.37288">
        <ele>1380.8</ele>
        <time>2021-10-08T11:17:05Z</time>
      </trkpt>
      <trkpt lat="44.8336" lon="5.37289">
        <ele>1381</ele>
        <time>2021-10-08T11:17:06Z</time>
      </trkpt>
      <trkpt lat="44.83362" lon="5.3729">
        <ele>1381</ele>
        <time>2021-10-08T11:17:07Z</time>
      </trkpt>
      <trkpt lat="44.83363" lon="5.37291">
        <ele>1381</ele>
        <time>2021-10-08T11:17:08Z</time>
      </trkpt>
      <trkpt lat="44.83365" lon="5.37292">
        <ele>1381.4</ele>
        <time>2021-10-08T11:17:09Z</time>
      </trkpt>
      <trkpt lat="44.83366" lon="5.37293">
        <ele>1381.4</ele>
        <time>2021-10-08T11:17:10Z</time>
      </trkpt>
      <trkpt lat="44.83368" lon="5.37294">
        <ele>1381.4</ele>
        <time>2021-10-08T11:17:11Z</time>
      </trkpt>
      <trkpt lat="44.83369" lon="5.37294">
        <ele>1381.4</ele>
        <time>2021-10-08T11:17:12Z</time>
      </trkpt>
      <trkpt lat="44.83371" lon="5.37295">
        <ele>1381.4</ele>
        <time>2021-10-08T11:17:13Z</time>
      </trkpt>
      <trkpt lat="44.83373" lon="5.37296">
        <ele>1381.4</ele>
        <time>2021-10-08T11:17:14Z</time>
      </trkpt>
      <trkpt lat="44.83374" lon="5.37296">
        <ele>1381.4</ele>
        <time>2021-10-08T11:17:15Z</time>
      </trkpt>
      <trkpt lat="44.83376" lon="5.37296">
        <ele>1381.4</ele>
        <time>2021-10-08T11:17:16Z</time>
      </trkpt>
      <trkpt lat="44.83377" lon="5.37297">
        <ele>1381.6</ele>
        <time>2021-10-08T11:17:17Z</time>
      </trkpt>
      <trkpt lat="44.83379" lon="5.37298">
        <ele>1381.6</ele>
        <time>2021-10-08T11:17:18Z</time>
      </trkpt>
      <trkpt lat="44.8338" lon="5.37299">
        <ele>1381.6</ele>
        <time>2021-10-08T11:17:19Z</time>
      </trkpt>
      <trkpt lat="44.83382" lon="5.373">
        <ele>1381.6</ele>
        <time>2021-10-08T11:17:20Z</time>
      </trkpt>
      <trkpt lat="44.83383" lon="5.37301">
        <ele>1382.4</ele>
        <time>2021-10-08T11:17:21Z</time>
      </trkpt>
      <trkpt lat="44.83385" lon="5.37302">
        <ele>1382.4</ele>
        <time>2021-10-08T11:17:22Z</time>
      </trkpt>
      <trkpt lat="44.83387" lon="5.37303">
        <ele>1382.4</ele>
        <time>2021-10-08T11:17:23Z</time>
      </trkpt>
      <trkpt lat="44.83388" lon="5.37303">
        <ele>1382.4</ele>
        <time>2021-10-08T11:17:24Z</time>
      </trkpt>
      <trkpt lat="44.8339" lon="5.37303">
        <ele>1382.4</ele>
        <time>2021-10-08T11:17:25Z</time>
      </trkpt>
      <trkpt lat="44.83392" lon="5.37303">
        <ele>1383</ele>
        <time>2021-10-08T11:17:26Z</time>
      </trkpt>
      <trkpt lat="44.83394" lon="5.37304">
        <ele>1383</ele>
        <time>2021-10-08T11:17:27Z</time>
      </trkpt>
      <trkpt lat="44.83395" lon="5.37304">
        <ele>1383</ele>
        <time>2021-10-08T11:17:28Z</time>
      </trkpt>
      <trkpt lat="44.83397" lon="5.37304">
        <ele>1382.6</ele>
        <time>2021-10-08T11:17:29Z</time>
      </trkpt>
      <trkpt lat="44.83398" lon="5.37305">
        <ele>1383</ele>
        <time>2021-10-08T11:17:30Z</time>
      </trkpt>
      <trkpt lat="44.834" lon="5.37306">
        <ele>1383</ele>
        <time>2021-10-08T11:17:31Z</time>
      </trkpt>
      <trkpt lat="44.83401" lon="5.37306">
        <ele>1383</ele>
        <time>2021-10-08T11:17:32Z</time>
      </trkpt>
      <trkpt lat="44.83403" lon="5.37307">
        <ele>1383.4</ele>
        <time>2021-10-08T11:17:33Z</time>
      </trkpt>
      <trkpt lat="44.83405" lon="5.37308">
        <ele>1383.2</ele>
        <time>2021-10-08T11:17:34Z</time>
      </trkpt>
      <trkpt lat="44.83407" lon="5.3731">
        <ele>1383.2</ele>
        <time>2021-10-08T11:17:35Z</time>
      </trkpt>
      <trkpt lat="44.83409" lon="5.37312">
        <ele>1383.2</ele>
        <time>2021-10-08T11:17:36Z</time>
      </trkpt>
      <trkpt lat="44.83411" lon="5.37313">
        <ele>1383.2</ele>
        <time>2021-10-08T11:17:37Z</time>
      </trkpt>
      <trkpt lat="44.83413" lon="5.37314">
        <ele>1383.2</ele>
        <time>2021-10-08T11:17:38Z</time>
      </trkpt>
      <trkpt lat="44.83415" lon="5.37315">
        <ele>1383.2</ele>
        <time>2021-10-08T11:17:39Z</time>
      </trkpt>
      <trkpt lat="44.83418" lon="5.37316">
        <ele>1383.2</ele>
        <time>2021-10-08T11:17:40Z</time>
      </trkpt>
      <trkpt lat="44.8342" lon="5.37316">
        <ele>1384</ele>
        <time>2021-10-08T11:17:41Z</time>
      </trkpt>
      <trkpt lat="44.83422" lon="5.37317">
        <ele>1383.8</ele>
        <time>2021-10-08T11:17:42Z</time>
      </trkpt>
      <trkpt lat="44.83425" lon="5.37317">
        <ele>1383.8</ele>
        <time>2021-10-08T11:17:43Z</time>
      </trkpt>
      <trkpt lat="44.83427" lon="5.37318">
        <ele>1383.8</ele>
        <time>2021-10-08T11:17:44Z</time>
      </trkpt>
      <trkpt lat="44.83429" lon="5.37319">
        <ele>1383.8</ele>
        <time>2021-10-08T11:17:45Z</time>
      </trkpt>
      <trkpt lat="44.8343" lon="5.3732">
        <ele>1384.6</ele>
        <time>2021-10-08T11:17:46Z</time>
      </trkpt>
      <trkpt lat="44.83432" lon="5.37322">
        <ele>1384.6</ele>
        <time>2021-10-08T11:17:47Z</time>
      </trkpt>
      <trkpt lat="44.83434" lon="5.37323">
        <ele>1384.6</ele>
        <time>2021-10-08T11:17:48Z</time>
      </trkpt>
      <trkpt lat="44.83436" lon="5.37324">
        <ele>1384.6</ele>
        <time>2021-10-08T11:17:49Z</time>
      </trkpt>
      <trkpt lat="44.83438" lon="5.37325">
        <ele>1384.6</ele>
        <time>2021-10-08T11:17:50Z</time>
      </trkpt>
      <trkpt lat="44.83441" lon="5.37326">
        <ele>1384.6</ele>
        <time>2021-10-08T11:17:51Z</time>
      </trkpt>
      <trkpt lat="44.83443" lon="5.37327">
        <ele>1384.6</ele>
        <time>2021-10-08T11:17:52Z</time>
      </trkpt>
      <trkpt lat="44.83445" lon="5.37328">
        <ele>1385.6</ele>
        <time>2021-10-08T11:17:53Z</time>
      </trkpt>
      <trkpt lat="44.83447" lon="5.37329">
        <ele>1385</ele>
        <time>2021-10-08T11:17:54Z</time>
      </trkpt>
      <trkpt lat="44.83449" lon="5.37331">
        <ele>1385</ele>
        <time>2021-10-08T11:17:55Z</time>
      </trkpt>
      <trkpt lat="44.83451" lon="5.37332">
        <ele>1385</ele>
        <time>2021-10-08T11:17:56Z</time>
      </trkpt>
      <trkpt lat="44.83453" lon="5.37333">
        <ele>1385.2</ele>
        <time>2021-10-08T11:17:57Z</time>
      </trkpt>
      <trkpt lat="44.83455" lon="5.37335">
        <ele>1385.2</ele>
        <time>2021-10-08T11:17:58Z</time>
      </trkpt>
      <trkpt lat="44.83457" lon="5.37335">
        <ele>1385.2</ele>
        <time>2021-10-08T11:17:59Z</time>
      </trkpt>
      <trkpt lat="44.83459" lon="5.37336">
        <ele>1385.2</ele>
        <time>2021-10-08T11:18:00Z</time>
      </trkpt>
      <trkpt lat="44.83462" lon="5.37337">
        <ele>1385.2</ele>
        <time>2021-10-08T11:18:01Z</time>
      </trkpt>
      <trkpt lat="44.83464" lon="5.37338">
        <ele>1385.6</ele>
        <time>2021-10-08T11:18:02Z</time>
      </trkpt>
      <trkpt lat="44.83466" lon="5.37339">
        <ele>1385.6</ele>
        <time>2021-10-08T11:18:03Z</time>
      </trkpt>
      <trkpt lat="44.83468" lon="5.37341">
        <ele>1385.6</ele>
        <time>2021-10-08T11:18:04Z</time>
      </trkpt>
      <trkpt lat="44.8347" lon="5.37343">
        <ele>1385.6</ele>
        <time>2021-10-08T11:18:05Z</time>
      </trkpt>
      <trkpt lat="44.83472" lon="5.37344">
        <ele>1384.8</ele>
        <time>2021-10-08T11:18:06Z</time>
      </trkpt>
      <trkpt lat="44.83475" lon="5.37345">
        <ele>1384.8</ele>
        <time>2021-10-08T11:18:07Z</time>
      </trkpt>
      <trkpt lat="44.83477" lon="5.37346">
        <ele>1384.8</ele>
        <time>2021-10-08T11:18:08Z</time>
      </trkpt>
      <trkpt lat="44.8348" lon="5.37347">
        <ele>1384.8</ele>
        <time>2021-10-08T11:18:09Z</time>
      </trkpt>
      <trkpt lat="44.83483" lon="5.37348">
        <ele>1384.8</ele>
        <time>2021-10-08T11:18:10Z</time>
      </trkpt>
      <trkpt lat="44.83486" lon="5.37349">
        <ele>1384.8</ele>
        <time>2021-10-08T11:18:11Z</time>
      </trkpt>
      <trkpt lat="44.83489" lon="5.3735">
        <ele>1384.8</ele>
        <time>2021-10-08T11:18:12Z</time>
      </trkpt>
      <trkpt lat="44.83491" lon="5.37351">
        <ele>1384.8</ele>
        <time>2021-10-08T11:18:13Z</time>
      </trkpt>
      <trkpt lat="44.83494" lon="5.37352">
        <ele>1384.8</ele>
        <time>2021-10-08T11:18:14Z</time>
      </trkpt>
      <trkpt lat="44.83496" lon="5.37353">
        <ele>1384.8</ele>
        <time>2021-10-08T11:18:15Z</time>
      </trkpt>
      <trkpt lat="44.83499" lon="5.37354">
        <ele>1384.8</ele>
        <time>2021-10-08T11:18:16Z</time>
      </trkpt>
      <trkpt lat="44.83502" lon="5.37355">
        <ele>1384.8</ele>
        <time>2021-10-08T11:18:17Z</time>
      </trkpt>
      <trkpt lat="44.83505" lon="5.37356">
        <ele>1385</ele>
        <time>2021-10-08T11:18:18Z</time>
      </trkpt>
      <trkpt lat="44.83507" lon="5.37357">
        <ele>1385</ele>
        <time>2021-10-08T11:18:19Z</time>
      </trkpt>
      <trkpt lat="44.8351" lon="5.37358">
        <ele>1385</ele>
        <time>2021-10-08T11:18:20Z</time>
      </trkpt>
      <trkpt lat="44.83512" lon="5.37359">
        <ele>1385</ele>
        <time>2021-10-08T11:18:21Z</time>
      </trkpt>
      <trkpt lat="44.83515" lon="5.3736">
        <ele>1385.6</ele>
        <time>2021-10-08T11:18:22Z</time>
      </trkpt>
      <trkpt lat="44.83518" lon="5.37361">
        <ele>1385.6</ele>
        <time>2021-10-08T11:18:23Z</time>
      </trkpt>
      <trkpt lat="44.8352" lon="5.37362">
        <ele>1385.6</ele>
        <time>2021-10-08T11:18:24Z</time>
      </trkpt>
      <trkpt lat="44.83523" lon="5.37362">
        <ele>1385.6</ele>
        <time>2021-10-08T11:18:25Z</time>
      </trkpt>
      <trkpt lat="44.83526" lon="5.37363">
        <ele>1385.6</ele>
        <time>2021-10-08T11:18:26Z</time>
      </trkpt>
      <trkpt lat="44.83529" lon="5.37364">
        <ele>1385.6</ele>
        <time>2021-10-08T11:18:27Z</time>
      </trkpt>
      <trkpt lat="44.83533" lon="5.37365">
        <ele>1385.6</ele>
        <time>2021-10-08T11:18:28Z</time>
      </trkpt>
      <trkpt lat="44.83536" lon="5.37366">
        <ele>1385</ele>
        <time>2021-10-08T11:18:29Z</time>
      </trkpt>
      <trkpt lat="44.8354" lon="5.37367">
        <ele>1384.2</ele>
        <time>2021-10-08T11:18:30Z</time>
      </trkpt>
      <trkpt lat="44.83544" lon="5.37367">
        <ele>1384.2</ele>
        <time>2021-10-08T11:18:31Z</time>
      </trkpt>
      <trkpt lat="44.83548" lon="5.37368">
        <ele>1384.2</ele>
        <time>2021-10-08T11:18:32Z</time>
      </trkpt>
      <trkpt lat="44.83553" lon="5.37369">
        <ele>1384.2</ele>
        <time>2021-10-08T11:18:33Z</time>
      </trkpt>
      <trkpt lat="44.83556" lon="5.3737">
        <ele>1384.2</ele>
        <time>2021-10-08T11:18:34Z</time>
      </trkpt>
      <trkpt lat="44.8356" lon="5.37371">
        <ele>1384.2</ele>
        <time>2021-10-08T11:18:35Z</time>
      </trkpt>
      <trkpt lat="44.83564" lon="5.37372">
        <ele>1384.2</ele>
        <time>2021-10-08T11:18:36Z</time>
      </trkpt>
      <trkpt lat="44.83568" lon="5.37373">
        <ele>1384.2</ele>
        <time>2021-10-08T11:18:37Z</time>
      </trkpt>
      <trkpt lat="44.83572" lon="5.37374">
        <ele>1383.8</ele>
        <time>2021-10-08T11:18:38Z</time>
      </trkpt>
      <trkpt lat="44.83576" lon="5.37375">
        <ele>1383.8</ele>
        <time>2021-10-08T11:18:39Z</time>
      </trkpt>
      <trkpt lat="44.8358" lon="5.37376">
        <ele>1383.8</ele>
        <time>2021-10-08T11:18:40Z</time>
      </trkpt>
      <trkpt lat="44.83584" lon="5.37378">
        <ele>1383.8</ele>
        <time>2021-10-08T11:18:41Z</time>
      </trkpt>
      <trkpt lat="44.83588" lon="5.37379">
        <ele>1383.6</ele>
        <time>2021-10-08T11:18:42Z</time>
      </trkpt>
      <trkpt lat="44.83592" lon="5.37379">
        <ele>1383.6</ele>
        <time>2021-10-08T11:18:43Z</time>
      </trkpt>
      <trkpt lat="44.83596" lon="5.37381">
        <ele>1383.6</ele>
        <time>2021-10-08T11:18:44Z</time>
      </trkpt>
      <trkpt lat="44.836" lon="5.37382">
        <ele>1383.8</ele>
        <time>2021-10-08T11:18:45Z</time>
      </trkpt>
      <trkpt lat="44.83603" lon="5.37383">
        <ele>1383.8</ele>
        <time>2021-10-08T11:18:46Z</time>
      </trkpt>
      <trkpt lat="44.83607" lon="5.37384">
        <ele>1383.8</ele>
        <time>2021-10-08T11:18:47Z</time>
      </trkpt>
      <trkpt lat="44.83611" lon="5.37385">
        <ele>1383.8</ele>
        <time>2021-10-08T11:18:48Z</time>
      </trkpt>
      <trkpt lat="44.83615" lon="5.37386">
        <ele>1383.8</ele>
        <time>2021-10-08T11:18:49Z</time>
      </trkpt>
      <trkpt lat="44.83619" lon="5.37388">
        <ele>1384.4</ele>
        <time>2021-10-08T11:18:50Z</time>
      </trkpt>
      <trkpt lat="44.83622" lon="5.37389">
        <ele>1384.4</ele>
        <time>2021-10-08T11:18:51Z</time>
      </trkpt>
      <trkpt lat="44.83626" lon="5.37391">
        <ele>1384.4</ele>
        <time>2021-10-08T11:18:52Z</time>
      </trkpt>
      <trkpt lat="44.83629" lon="5.37392">
        <ele>1384.6</ele>
        <time>2021-10-08T11:18:53Z</time>
      </trkpt>
      <trkpt lat="44.83633" lon="5.37392">
        <ele>1384.8</ele>
        <time>2021-10-08T11:18:54Z</time>
      </trkpt>
      <trkpt lat="44.83637" lon="5.37395">
        <ele>1384.8</ele>
        <time>2021-10-08T11:18:55Z</time>
      </trkpt>
      <trkpt lat="44.83639" lon="5.37395">
        <ele>1384.8</ele>
        <time>2021-10-08T11:18:56Z</time>
      </trkpt>
      <trkpt lat="44.83643" lon="5.37397">
        <ele>1384.8</ele>
        <time>2021-10-08T11:18:57Z</time>
      </trkpt>
      <trkpt lat="44.83647" lon="5.37399">
        <ele>1385.2</ele>
        <time>2021-10-08T11:18:58Z</time>
      </trkpt>
      <trkpt lat="44.8365" lon="5.374">
        <ele>1385.2</ele>
        <time>2021-10-08T11:18:59Z</time>
      </trkpt>
      <trkpt lat="44.83653" lon="5.374">
        <ele>1385.2</ele>
        <time>2021-10-08T11:19:00Z</time>
      </trkpt>
      <trkpt lat="44.83657" lon="5.37401">
        <ele>1385.2</ele>
        <time>2021-10-08T11:19:01Z</time>
      </trkpt>
      <trkpt lat="44.8366" lon="5.37402">
        <ele>1385.8</ele>
        <time>2021-10-08T11:19:02Z</time>
      </trkpt>
      <trkpt lat="44.83663" lon="5.37404">
        <ele>1385.8</ele>
        <time>2021-10-08T11:19:03Z</time>
      </trkpt>
      <trkpt lat="44.83667" lon="5.37405">
        <ele>1385.8</ele>
        <time>2021-10-08T11:19:04Z</time>
      </trkpt>
      <trkpt lat="44.8367" lon="5.37407">
        <ele>1386.4</ele>
        <time>2021-10-08T11:19:05Z</time>
      </trkpt>
      <trkpt lat="44.83673" lon="5.37409">
        <ele>1386.4</ele>
        <time>2021-10-08T11:19:06Z</time>
      </trkpt>
      <trkpt lat="44.83676" lon="5.37411">
        <ele>1386.4</ele>
        <time>2021-10-08T11:19:07Z</time>
      </trkpt>
      <trkpt lat="44.8368" lon="5.37413">
        <ele>1386.4</ele>
        <time>2021-10-08T11:19:08Z</time>
      </trkpt>
      <trkpt lat="44.83684" lon="5.37416">
        <ele>1386.4</ele>
        <time>2021-10-08T11:19:09Z</time>
      </trkpt>
      <trkpt lat="44.83687" lon="5.37418">
        <ele>1386.4</ele>
        <time>2021-10-08T11:19:10Z</time>
      </trkpt>
      <trkpt lat="44.83689" lon="5.3742">
        <ele>1386.4</ele>
        <time>2021-10-08T11:19:11Z</time>
      </trkpt>
      <trkpt lat="44.83693" lon="5.37421">
        <ele>1386.4</ele>
        <time>2021-10-08T11:19:12Z</time>
      </trkpt>
      <trkpt lat="44.83697" lon="5.37423">
        <ele>1386.4</ele>
        <time>2021-10-08T11:19:13Z</time>
      </trkpt>
      <trkpt lat="44.83701" lon="5.37424">
        <ele>1386.6</ele>
        <time>2021-10-08T11:19:14Z</time>
      </trkpt>
      <trkpt lat="44.83706" lon="5.37425">
        <ele>1386.6</ele>
        <time>2021-10-08T11:19:15Z</time>
      </trkpt>
      <trkpt lat="44.8371" lon="5.37427">
        <ele>1386.6</ele>
        <time>2021-10-08T11:19:16Z</time>
      </trkpt>
      <trkpt lat="44.83713" lon="5.37429">
        <ele>1386.6</ele>
        <time>2021-10-08T11:19:17Z</time>
      </trkpt>
      <trkpt lat="44.83717" lon="5.37432">
        <ele>1386.8</ele>
        <time>2021-10-08T11:19:18Z</time>
      </trkpt>
      <trkpt lat="44.83721" lon="5.37434">
        <ele>1386.8</ele>
        <time>2021-10-08T11:19:19Z</time>
      </trkpt>
      <trkpt lat="44.83724" lon="5.37436">
        <ele>1386.8</ele>
        <time>2021-10-08T11:19:20Z</time>
      </trkpt>
      <trkpt lat="44.83728" lon="5.37438">
        <ele>1386.8</ele>
        <time>2021-10-08T11:19:21Z</time>
      </trkpt>
      <trkpt lat="44.83732" lon="5.37441">
        <ele>1387</ele>
        <time>2021-10-08T11:19:22Z</time>
      </trkpt>
      <trkpt lat="44.83737" lon="5.37444">
        <ele>1387</ele>
        <time>2021-10-08T11:19:23Z</time>
      </trkpt>
      <trkpt lat="44.83741" lon="5.37447">
        <ele>1387</ele>
        <time>2021-10-08T11:19:24Z</time>
      </trkpt>
      <trkpt lat="44.83745" lon="5.3745">
        <ele>1387</ele>
        <time>2021-10-08T11:19:25Z</time>
      </trkpt>
      <trkpt lat="44.83749" lon="5.37453">
        <ele>1386.6</ele>
        <time>2021-10-08T11:19:26Z</time>
      </trkpt>
      <trkpt lat="44.83753" lon="5.37454">
        <ele>1386.6</ele>
        <time>2021-10-08T11:19:27Z</time>
      </trkpt>
      <trkpt lat="44.83757" lon="5.37455">
        <ele>1386.6</ele>
        <time>2021-10-08T11:19:28Z</time>
      </trkpt>
      <trkpt lat="44.83762" lon="5.37457">
        <ele>1385.6</ele>
        <time>2021-10-08T11:19:29Z</time>
      </trkpt>
      <trkpt lat="44.83766" lon="5.3746">
        <ele>1385.6</ele>
        <time>2021-10-08T11:19:30Z</time>
      </trkpt>
      <trkpt lat="44.83771" lon="5.37462">
        <ele>1385.6</ele>
        <time>2021-10-08T11:19:31Z</time>
      </trkpt>
      <trkpt lat="44.83775" lon="5.37465">
        <ele>1385.6</ele>
        <time>2021-10-08T11:19:32Z</time>
      </trkpt>
      <trkpt lat="44.8378" lon="5.37467">
        <ele>1385.6</ele>
        <time>2021-10-08T11:19:33Z</time>
      </trkpt>
      <trkpt lat="44.83784" lon="5.37469">
        <ele>1385.4</ele>
        <time>2021-10-08T11:19:34Z</time>
      </trkpt>
      <trkpt lat="44.83788" lon="5.37471">
        <ele>1385.4</ele>
        <time>2021-10-08T11:19:35Z</time>
      </trkpt>
      <trkpt lat="44.83793" lon="5.37474">
        <ele>1385.4</ele>
        <time>2021-10-08T11:19:36Z</time>
      </trkpt>
      <trkpt lat="44.83797" lon="5.37476">
        <ele>1385.4</ele>
        <time>2021-10-08T11:19:37Z</time>
      </trkpt>
      <trkpt lat="44.83801" lon="5.37478">
        <ele>1386.4</ele>
        <time>2021-10-08T11:19:38Z</time>
      </trkpt>
      <trkpt lat="44.83805" lon="5.3748">
        <ele>1386.4</ele>
        <time>2021-10-08T11:19:39Z</time>
      </trkpt>
      <trkpt lat="44.83809" lon="5.37482">
        <ele>1386.4</ele>
        <time>2021-10-08T11:19:40Z</time>
      </trkpt>
      <trkpt lat="44.83813" lon="5.37483">
        <ele>1385.4</ele>
        <time>2021-10-08T11:19:41Z</time>
      </trkpt>
      <trkpt lat="44.83817" lon="5.37485">
        <ele>1385.2</ele>
        <time>2021-10-08T11:19:42Z</time>
      </trkpt>
      <trkpt lat="44.83822" lon="5.37486">
        <ele>1385.2</ele>
        <time>2021-10-08T11:19:43Z</time>
      </trkpt>
      <trkpt lat="44.83826" lon="5.37489">
        <ele>1385.2</ele>
        <time>2021-10-08T11:19:44Z</time>
      </trkpt>
      <trkpt lat="44.8383" lon="5.3749">
        <ele>1385.2</ele>
        <time>2021-10-08T11:19:45Z</time>
      </trkpt>
      <trkpt lat="44.83834" lon="5.37492">
        <ele>1386.4</ele>
        <time>2021-10-08T11:19:46Z</time>
      </trkpt>
      <trkpt lat="44.83838" lon="5.37494">
        <ele>1386.4</ele>
        <time>2021-10-08T11:19:47Z</time>
      </trkpt>
      <trkpt lat="44.83842" lon="5.37498">
        <ele>1386.4</ele>
        <time>2021-10-08T11:19:48Z</time>
      </trkpt>
      <trkpt lat="44.83845" lon="5.375">
        <ele>1386.4</ele>
        <time>2021-10-08T11:19:49Z</time>
      </trkpt>
      <trkpt lat="44.83849" lon="5.37501">
        <ele>1386.6</ele>
        <time>2021-10-08T11:19:50Z</time>
      </trkpt>
      <trkpt lat="44.83854" lon="5.37504">
        <ele>1386.6</ele>
        <time>2021-10-08T11:19:51Z</time>
      </trkpt>
      <trkpt lat="44.83858" lon="5.37506">
        <ele>1386.6</ele>
        <time>2021-10-08T11:19:52Z</time>
      </trkpt>
      <trkpt lat="44.83862" lon="5.37507">
        <ele>1386.6</ele>
        <time>2021-10-08T11:19:53Z</time>
      </trkpt>
      <trkpt lat="44.83866" lon="5.37509">
        <ele>1386.4</ele>
        <time>2021-10-08T11:19:54Z</time>
      </trkpt>
      <trkpt lat="44.8387" lon="5.37511">
        <ele>1386.4</ele>
        <time>2021-10-08T11:19:55Z</time>
      </trkpt>
      <trkpt lat="44.83874" lon="5.37513">
        <ele>1386.4</ele>
        <time>2021-10-08T11:19:56Z</time>
      </trkpt>
      <trkpt lat="44.83878" lon="5.37514">
        <ele>1387</ele>
        <time>2021-10-08T11:19:57Z</time>
      </trkpt>
      <trkpt lat="44.83882" lon="5.37515">
        <ele>1386.6</ele>
        <time>2021-10-08T11:19:58Z</time>
      </trkpt>
      <trkpt lat="44.83886" lon="5.37517">
        <ele>1386.6</ele>
        <time>2021-10-08T11:19:59Z</time>
      </trkpt>
      <trkpt lat="44.8389" lon="5.37519">
        <ele>1386.6</ele>
        <time>2021-10-08T11:20:00Z</time>
      </trkpt>
      <trkpt lat="44.83894" lon="5.3752">
        <ele>1386.6</ele>
        <time>2021-10-08T11:20:01Z</time>
      </trkpt>
      <trkpt lat="44.83897" lon="5.37522">
        <ele>1386.6</ele>
        <time>2021-10-08T11:20:02Z</time>
      </trkpt>
      <trkpt lat="44.83901" lon="5.37525">
        <ele>1386.6</ele>
        <time>2021-10-08T11:20:03Z</time>
      </trkpt>
      <trkpt lat="44.83905" lon="5.37527">
        <ele>1386.6</ele>
        <time>2021-10-08T11:20:04Z</time>
      </trkpt>
      <trkpt lat="44.8391" lon="5.37528">
        <ele>1386.6</ele>
        <time>2021-10-08T11:20:05Z</time>
      </trkpt>
      <trkpt lat="44.83914" lon="5.37529">
        <ele>1386.4</ele>
        <time>2021-10-08T11:20:06Z</time>
      </trkpt>
      <trkpt lat="44.83917" lon="5.37532">
        <ele>1386.4</ele>
        <time>2021-10-08T11:20:07Z</time>
      </trkpt>
      <trkpt lat="44.8392" lon="5.37534">
        <ele>1386.4</ele>
        <time>2021-10-08T11:20:08Z</time>
      </trkpt>
      <trkpt lat="44.83924" lon="5.37536">
        <ele>1386.4</ele>
        <time>2021-10-08T11:20:09Z</time>
      </trkpt>
      <trkpt lat="44.83928" lon="5.37539">
        <ele>1386</ele>
        <time>2021-10-08T11:20:10Z</time>
      </trkpt>
      <trkpt lat="44.83933" lon="5.3754">
        <ele>1386</ele>
        <time>2021-10-08T11:20:11Z</time>
      </trkpt>
      <trkpt lat="44.83937" lon="5.37542">
        <ele>1386</ele>
        <time>2021-10-08T11:20:12Z</time>
      </trkpt>
      <trkpt lat="44.83941" lon="5.37546">
        <ele>1386.2</ele>
        <time>2021-10-08T11:20:13Z</time>
      </trkpt>
      <trkpt lat="44.83945" lon="5.37549">
        <ele>1385.8</ele>
        <time>2021-10-08T11:20:14Z</time>
      </trkpt>
      <trkpt lat="44.83949" lon="5.37551">
        <ele>1385.8</ele>
        <time>2021-10-08T11:20:15Z</time>
      </trkpt>
      <trkpt lat="44.83954" lon="5.37552">
        <ele>1385.8</ele>
        <time>2021-10-08T11:20:16Z</time>
      </trkpt>
      <trkpt lat="44.83959" lon="5.37553">
        <ele>1385.8</ele>
        <time>2021-10-08T11:20:17Z</time>
      </trkpt>
      <trkpt lat="44.83963" lon="5.37556">
        <ele>1384.4</ele>
        <time>2021-10-08T11:20:18Z</time>
      </trkpt>
      <trkpt lat="44.83968" lon="5.37559">
        <ele>1384.4</ele>
        <time>2021-10-08T11:20:19Z</time>
      </trkpt>
      <trkpt lat="44.83972" lon="5.37561">
        <ele>1384.4</ele>
        <time>2021-10-08T11:20:20Z</time>
      </trkpt>
      <trkpt lat="44.83977" lon="5.37564">
        <ele>1384.4</ele>
        <time>2021-10-08T11:20:21Z</time>
      </trkpt>
      <trkpt lat="44.83981" lon="5.37567">
        <ele>1384.4</ele>
        <time>2021-10-08T11:20:22Z</time>
      </trkpt>
      <trkpt lat="44.83985" lon="5.37569">
        <ele>1384.4</ele>
        <time>2021-10-08T11:20:23Z</time>
      </trkpt>
      <trkpt lat="44.83989" lon="5.37572">
        <ele>1384.4</ele>
        <time>2021-10-08T11:20:24Z</time>
      </trkpt>
      <trkpt lat="44.83993" lon="5.37574">
        <ele>1384.4</ele>
        <time>2021-10-08T11:20:25Z</time>
      </trkpt>
      <trkpt lat="44.83998" lon="5.37575">
        <ele>1384.8</ele>
        <time>2021-10-08T11:20:26Z</time>
      </trkpt>
      <trkpt lat="44.84003" lon="5.37577">
        <ele>1384.8</ele>
        <time>2021-10-08T11:20:27Z</time>
      </trkpt>
      <trkpt lat="44.84008" lon="5.37579">
        <ele>1384.8</ele>
        <time>2021-10-08T11:20:28Z</time>
      </trkpt>
      <trkpt lat="44.84013" lon="5.37582">
        <ele>1385.4</ele>
        <time>2021-10-08T11:20:29Z</time>
      </trkpt>
      <trkpt lat="44.84017" lon="5.37585">
        <ele>1385.8</ele>
        <time>2021-10-08T11:20:30Z</time>
      </trkpt>
      <trkpt lat="44.84021" lon="5.37586">
        <ele>1385.8</ele>
        <time>2021-10-08T11:20:31Z</time>
      </trkpt>
      <trkpt lat="44.84026" lon="5.37588">
        <ele>1385.8</ele>
        <time>2021-10-08T11:20:32Z</time>
      </trkpt>
      <trkpt lat="44.84031" lon="5.37589">
        <ele>1385</ele>
        <time>2021-10-08T11:20:33Z</time>
      </trkpt>
      <trkpt lat="44.84035" lon="5.37593">
        <ele>1385.4</ele>
        <time>2021-10-08T11:20:34Z</time>
      </trkpt>
      <trkpt lat="44.84039" lon="5.37597">
        <ele>1385.4</ele>
        <time>2021-10-08T11:20:35Z</time>
      </trkpt>
      <trkpt lat="44.84045" lon="5.37599">
        <ele>1385.4</ele>
        <time>2021-10-08T11:20:36Z</time>
      </trkpt>
      <trkpt lat="44.84049" lon="5.37602">
        <ele>1385.4</ele>
        <time>2021-10-08T11:20:37Z</time>
      </trkpt>
      <trkpt lat="44.84053" lon="5.37605">
        <ele>1385.8</ele>
        <time>2021-10-08T11:20:38Z</time>
      </trkpt>
      <trkpt lat="44.84057" lon="5.37608">
        <ele>1385.8</ele>
        <time>2021-10-08T11:20:39Z</time>
      </trkpt>
      <trkpt lat="44.84062" lon="5.3761">
        <ele>1385.8</ele>
        <time>2021-10-08T11:20:40Z</time>
      </trkpt>
      <trkpt lat="44.84066" lon="5.37611">
        <ele>1385.8</ele>
        <time>2021-10-08T11:20:41Z</time>
      </trkpt>
      <trkpt lat="44.8407" lon="5.37614">
        <ele>1387.2</ele>
        <time>2021-10-08T11:20:42Z</time>
      </trkpt>
      <trkpt lat="44.84074" lon="5.37615">
        <ele>1387.2</ele>
        <time>2021-10-08T11:20:43Z</time>
      </trkpt>
      <trkpt lat="44.84079" lon="5.37616">
        <ele>1387.2</ele>
        <time>2021-10-08T11:20:44Z</time>
      </trkpt>
      <trkpt lat="44.84084" lon="5.37617">
        <ele>1386.2</ele>
        <time>2021-10-08T11:20:45Z</time>
      </trkpt>
      <trkpt lat="44.84087" lon="5.3762">
        <ele>1386.4</ele>
        <time>2021-10-08T11:20:46Z</time>
      </trkpt>
      <trkpt lat="44.84091" lon="5.37621">
        <ele>1386.4</ele>
        <time>2021-10-08T11:20:47Z</time>
      </trkpt>
      <trkpt lat="44.84095" lon="5.37622">
        <ele>1386.4</ele>
        <time>2021-10-08T11:20:48Z</time>
      </trkpt>
      <trkpt lat="44.84098" lon="5.37623">
        <ele>1386.4</ele>
        <time>2021-10-08T11:20:49Z</time>
      </trkpt>
      <trkpt lat="44.84101" lon="5.37623">
        <ele>1386</ele>
        <time>2021-10-08T11:20:50Z</time>
      </trkpt>
      <trkpt lat="44.84105" lon="5.37626">
        <ele>1386</ele>
        <time>2021-10-08T11:20:51Z</time>
      </trkpt>
      <trkpt lat="44.8411" lon="5.37628">
        <ele>1386</ele>
        <time>2021-10-08T11:20:52Z</time>
      </trkpt>
      <trkpt lat="44.84115" lon="5.3763">
        <ele>1386</ele>
        <time>2021-10-08T11:20:53Z</time>
      </trkpt>
      <trkpt lat="44.8412" lon="5.37631">
        <ele>1385</ele>
        <time>2021-10-08T11:20:54Z</time>
      </trkpt>
      <trkpt lat="44.84125" lon="5.37633">
        <ele>1385</ele>
        <time>2021-10-08T11:20:55Z</time>
      </trkpt>
      <trkpt lat="44.8413" lon="5.37635">
        <ele>1385</ele>
        <time>2021-10-08T11:20:56Z</time>
      </trkpt>
      <trkpt lat="44.84135" lon="5.37639">
        <ele>1385</ele>
        <time>2021-10-08T11:20:57Z</time>
      </trkpt>
      <trkpt lat="44.8414" lon="5.37642">
        <ele>1384.6</ele>
        <time>2021-10-08T11:20:58Z</time>
      </trkpt>
      <trkpt lat="44.84145" lon="5.37645">
        <ele>1384.6</ele>
        <time>2021-10-08T11:20:59Z</time>
      </trkpt>
      <trkpt lat="44.84149" lon="5.37646">
        <ele>1384.6</ele>
        <time>2021-10-08T11:21:00Z</time>
      </trkpt>
      <trkpt lat="44.84154" lon="5.37647">
        <ele>1384.6</ele>
        <time>2021-10-08T11:21:01Z</time>
      </trkpt>
      <trkpt lat="44.84159" lon="5.37647">
        <ele>1384.6</ele>
        <time>2021-10-08T11:21:02Z</time>
      </trkpt>
      <trkpt lat="44.84163" lon="5.37649">
        <ele>1384.6</ele>
        <time>2021-10-08T11:21:03Z</time>
      </trkpt>
      <trkpt lat="44.84168" lon="5.3765">
        <ele>1384.6</ele>
        <time>2021-10-08T11:21:04Z</time>
      </trkpt>
      <trkpt lat="44.84172" lon="5.37651">
        <ele>1384.6</ele>
        <time>2021-10-08T11:21:05Z</time>
      </trkpt>
      <trkpt lat="44.84177" lon="5.37653">
        <ele>1384</ele>
        <time>2021-10-08T11:21:06Z</time>
      </trkpt>
      <trkpt lat="44.84183" lon="5.37653">
        <ele>1384</ele>
        <time>2021-10-08T11:21:07Z</time>
      </trkpt>
      <trkpt lat="44.84188" lon="5.37654">
        <ele>1384</ele>
        <time>2021-10-08T11:21:08Z</time>
      </trkpt>
      <trkpt lat="44.84192" lon="5.37656">
        <ele>1384</ele>
        <time>2021-10-08T11:21:09Z</time>
      </trkpt>
      <trkpt lat="44.84197" lon="5.37658">
        <ele>1384</ele>
        <time>2021-10-08T11:21:10Z</time>
      </trkpt>
      <trkpt lat="44.84202" lon="5.37659">
        <ele>1384</ele>
        <time>2021-10-08T11:21:11Z</time>
      </trkpt>
      <trkpt lat="44.84206" lon="5.37661">
        <ele>1384</ele>
        <time>2021-10-08T11:21:12Z</time>
      </trkpt>
      <trkpt lat="44.8421" lon="5.37664">
        <ele>1384.8</ele>
        <time>2021-10-08T11:21:13Z</time>
      </trkpt>
      <trkpt lat="44.84214" lon="5.37667">
        <ele>1384.8</ele>
        <time>2021-10-08T11:21:14Z</time>
      </trkpt>
      <trkpt lat="44.84218" lon="5.37669">
        <ele>1384.8</ele>
        <time>2021-10-08T11:21:15Z</time>
      </trkpt>
      <trkpt lat="44.8422" lon="5.37671">
        <ele>1384.8</ele>
        <time>2021-10-08T11:21:16Z</time>
      </trkpt>
      <trkpt lat="44.84224" lon="5.37675">
        <ele>1385.8</ele>
        <time>2021-10-08T11:21:17Z</time>
      </trkpt>
      <trkpt lat="44.84227" lon="5.37677">
        <ele>1385.8</ele>
        <time>2021-10-08T11:21:18Z</time>
      </trkpt>
      <trkpt lat="44.84231" lon="5.37679">
        <ele>1385.8</ele>
        <time>2021-10-08T11:21:19Z</time>
      </trkpt>
      <trkpt lat="44.84234" lon="5.3768">
        <ele>1385.8</ele>
        <time>2021-10-08T11:21:20Z</time>
      </trkpt>
      <trkpt lat="44.84236" lon="5.37683">
        <ele>1385.6</ele>
        <time>2021-10-08T11:21:21Z</time>
      </trkpt>
      <trkpt lat="44.8424" lon="5.37686">
        <ele>1386.2</ele>
        <time>2021-10-08T11:21:22Z</time>
      </trkpt>
      <trkpt lat="44.84243" lon="5.37688">
        <ele>1386.2</ele>
        <time>2021-10-08T11:21:23Z</time>
      </trkpt>
      <trkpt lat="44.84247" lon="5.3769">
        <ele>1386.2</ele>
        <time>2021-10-08T11:21:24Z</time>
      </trkpt>
      <trkpt lat="44.8425" lon="5.37692">
        <ele>1386.6</ele>
        <time>2021-10-08T11:21:25Z</time>
      </trkpt>
      <trkpt lat="44.84254" lon="5.37694">
        <ele>1386.6</ele>
        <time>2021-10-08T11:21:26Z</time>
      </trkpt>
      <trkpt lat="44.84257" lon="5.37696">
        <ele>1386.6</ele>
        <time>2021-10-08T11:21:27Z</time>
      </trkpt>
      <trkpt lat="44.84261" lon="5.37699">
        <ele>1386.6</ele>
        <time>2021-10-08T11:21:28Z</time>
      </trkpt>
      <trkpt lat="44.84264" lon="5.37702">
        <ele>1387.2</ele>
        <time>2021-10-08T11:21:29Z</time>
      </trkpt>
      <trkpt lat="44.84267" lon="5.37704">
        <ele>1387.2</ele>
        <time>2021-10-08T11:21:30Z</time>
      </trkpt>
      <trkpt lat="44.8427" lon="5.37706">
        <ele>1387.2</ele>
        <time>2021-10-08T11:21:31Z</time>
      </trkpt>
      <trkpt lat="44.84273" lon="5.37709">
        <ele>1387.2</ele>
        <time>2021-10-08T11:21:32Z</time>
      </trkpt>
      <trkpt lat="44.84276" lon="5.37711">
        <ele>1387.8</ele>
        <time>2021-10-08T11:21:33Z</time>
      </trkpt>
      <trkpt lat="44.84279" lon="5.37713">
        <ele>1388.2</ele>
        <time>2021-10-08T11:21:34Z</time>
      </trkpt>
      <trkpt lat="44.84282" lon="5.37715">
        <ele>1388.2</ele>
        <time>2021-10-08T11:21:35Z</time>
      </trkpt>
      <trkpt lat="44.84285" lon="5.37717">
        <ele>1388.2</ele>
        <time>2021-10-08T11:21:36Z</time>
      </trkpt>
      <trkpt lat="44.84288" lon="5.37718">
        <ele>1388.2</ele>
        <time>2021-10-08T11:21:37Z</time>
      </trkpt>
      <trkpt lat="44.8429" lon="5.37721">
        <ele>1389.4</ele>
        <time>2021-10-08T11:21:38Z</time>
      </trkpt>
      <trkpt lat="44.84293" lon="5.37724">
        <ele>1389.4</ele>
        <time>2021-10-08T11:21:39Z</time>
      </trkpt>
      <trkpt lat="44.84296" lon="5.37726">
        <ele>1389.4</ele>
        <time>2021-10-08T11:21:40Z</time>
      </trkpt>
      <trkpt lat="44.84299" lon="5.37727">
        <ele>1389.4</ele>
        <time>2021-10-08T11:21:41Z</time>
      </trkpt>
      <trkpt lat="44.84301" lon="5.37729">
        <ele>1389.4</ele>
        <time>2021-10-08T11:21:42Z</time>
      </trkpt>
      <trkpt lat="44.84304" lon="5.37731">
        <ele>1389.4</ele>
        <time>2021-10-08T11:21:43Z</time>
      </trkpt>
      <trkpt lat="44.84307" lon="5.37734">
        <ele>1389.4</ele>
        <time>2021-10-08T11:21:44Z</time>
      </trkpt>
      <trkpt lat="44.8431" lon="5.37737">
        <ele>1389.4</ele>
        <time>2021-10-08T11:21:45Z</time>
      </trkpt>
      <trkpt lat="44.84313" lon="5.37738">
        <ele>1389.8</ele>
        <time>2021-10-08T11:21:46Z</time>
      </trkpt>
      <trkpt lat="44.84316" lon="5.37737">
        <ele>1389.8</ele>
        <time>2021-10-08T11:21:47Z</time>
      </trkpt>
      <trkpt lat="44.84319" lon="5.37741">
        <ele>1389.8</ele>
        <time>2021-10-08T11:21:48Z</time>
      </trkpt>
      <trkpt lat="44.84322" lon="5.37744">
        <ele>1389.8</ele>
        <time>2021-10-08T11:21:49Z</time>
      </trkpt>
      <trkpt lat="44.84324" lon="5.37747">
        <ele>1389.8</ele>
        <time>2021-10-08T11:21:50Z</time>
      </trkpt>
      <trkpt lat="44.84327" lon="5.37749">
        <ele>1390</ele>
        <time>2021-10-08T11:21:51Z</time>
      </trkpt>
      <trkpt lat="44.8433" lon="5.3775">
        <ele>1390</ele>
        <time>2021-10-08T11:21:52Z</time>
      </trkpt>
      <trkpt lat="44.84333" lon="5.37752">
        <ele>1390</ele>
        <time>2021-10-08T11:21:53Z</time>
      </trkpt>
      <trkpt lat="44.84336" lon="5.37753">
        <ele>1390.4</ele>
        <time>2021-10-08T11:21:54Z</time>
      </trkpt>
      <trkpt lat="44.84339" lon="5.37756">
        <ele>1390.4</ele>
        <time>2021-10-08T11:21:55Z</time>
      </trkpt>
      <trkpt lat="44.84342" lon="5.37758">
        <ele>1390.4</ele>
        <time>2021-10-08T11:21:56Z</time>
      </trkpt>
      <trkpt lat="44.84345" lon="5.37759">
        <ele>1390.4</ele>
        <time>2021-10-08T11:21:57Z</time>
      </trkpt>
      <trkpt lat="44.84348" lon="5.3776">
        <ele>1391.4</ele>
        <time>2021-10-08T11:21:58Z</time>
      </trkpt>
      <trkpt lat="44.84351" lon="5.37762">
        <ele>1391.4</ele>
        <time>2021-10-08T11:21:59Z</time>
      </trkpt>
      <trkpt lat="44.84354" lon="5.37764">
        <ele>1391.4</ele>
        <time>2021-10-08T11:22:00Z</time>
      </trkpt>
      <trkpt lat="44.84356" lon="5.37766">
        <ele>1391</ele>
        <time>2021-10-08T11:22:01Z</time>
      </trkpt>
      <trkpt lat="44.84359" lon="5.37769">
        <ele>1391.2</ele>
        <time>2021-10-08T11:22:02Z</time>
      </trkpt>
      <trkpt lat="44.84363" lon="5.37769">
        <ele>1391.2</ele>
        <time>2021-10-08T11:22:03Z</time>
      </trkpt>
      <trkpt lat="44.84366" lon="5.37772">
        <ele>1391.2</ele>
        <time>2021-10-08T11:22:04Z</time>
      </trkpt>
      <trkpt lat="44.84369" lon="5.37776">
        <ele>1391.8</ele>
        <time>2021-10-08T11:22:05Z</time>
      </trkpt>
      <trkpt lat="44.84372" lon="5.37779">
        <ele>1391.8</ele>
        <time>2021-10-08T11:22:06Z</time>
      </trkpt>
      <trkpt lat="44.84375" lon="5.37781">
        <ele>1391.8</ele>
        <time>2021-10-08T11:22:07Z</time>
      </trkpt>
      <trkpt lat="44.84378" lon="5.37784">
        <ele>1391.8</ele>
        <time>2021-10-08T11:22:08Z</time>
      </trkpt>
      <trkpt lat="44.84381" lon="5.37787">
        <ele>1392</ele>
        <time>2021-10-08T11:22:09Z</time>
      </trkpt>
      <trkpt lat="44.84383" lon="5.37789">
        <ele>1391.8</ele>
        <time>2021-10-08T11:22:10Z</time>
      </trkpt>
      <trkpt lat="44.84385" lon="5.37792">
        <ele>1391.8</ele>
        <time>2021-10-08T11:22:11Z</time>
      </trkpt>
      <trkpt lat="44.84387" lon="5.37796">
        <ele>1391.8</ele>
        <time>2021-10-08T11:22:12Z</time>
      </trkpt>
      <trkpt lat="44.8439" lon="5.37799">
        <ele>1392.4</ele>
        <time>2021-10-08T11:22:13Z</time>
      </trkpt>
      <trkpt lat="44.84391" lon="5.37804">
        <ele>1392.4</ele>
        <time>2021-10-08T11:22:14Z</time>
      </trkpt>
      <trkpt lat="44.84393" lon="5.37809">
        <ele>1392.4</ele>
        <time>2021-10-08T11:22:15Z</time>
      </trkpt>
      <trkpt lat="44.84395" lon="5.3781">
        <ele>1392.4</ele>
        <time>2021-10-08T11:22:16Z</time>
      </trkpt>
      <trkpt lat="44.84396" lon="5.37812">
        <ele>1392.4</ele>
        <time>2021-10-08T11:22:17Z</time>
      </trkpt>
      <trkpt lat="44.84398" lon="5.37813">
        <ele>1393.4</ele>
        <time>2021-10-08T11:22:18Z</time>
      </trkpt>
      <trkpt lat="44.84399" lon="5.37815">
        <ele>1393.4</ele>
        <time>2021-10-08T11:22:19Z</time>
      </trkpt>
      <trkpt lat="44.844" lon="5.37817">
        <ele>1393.4</ele>
        <time>2021-10-08T11:22:20Z</time>
      </trkpt>
      <trkpt lat="44.84401" lon="5.37819">
        <ele>1393.2</ele>
        <time>2021-10-08T11:22:21Z</time>
      </trkpt>
      <trkpt lat="44.84402" lon="5.37821">
        <ele>1393.4</ele>
        <time>2021-10-08T11:22:22Z</time>
      </trkpt>
      <trkpt lat="44.84403" lon="5.37822">
        <ele>1393.4</ele>
        <time>2021-10-08T11:22:23Z</time>
      </trkpt>
      <trkpt lat="44.84403" lon="5.37823">
        <ele>1393.4</ele>
        <time>2021-10-08T11:22:24Z</time>
      </trkpt>
      <trkpt lat="44.84403" lon="5.37824">
        <ele>1393.2</ele>
        <time>2021-10-08T11:22:25Z</time>
      </trkpt>
      <trkpt lat="44.84409" lon="5.37835">
        <ele>1393.4</ele>
        <time>2021-10-08T11:24:21Z</time>
      </trkpt>
      <trkpt lat="44.84409" lon="5.37837">
        <ele>1393.8</ele>
        <time>2021-10-08T11:24:22Z</time>
      </trkpt>
      <trkpt lat="44.8441" lon="5.37839">
        <ele>1393.8</ele>
        <time>2021-10-08T11:24:23Z</time>
      </trkpt>
      <trkpt lat="44.84411" lon="5.37841">
        <ele>1393.8</ele>
        <time>2021-10-08T11:24:24Z</time>
      </trkpt>
      <trkpt lat="44.84412" lon="5.37842">
        <ele>1393.8</ele>
        <time>2021-10-08T11:24:25Z</time>
      </trkpt>
      <trkpt lat="44.84413" lon="5.37844">
        <ele>1394.8</ele>
        <time>2021-10-08T11:24:26Z</time>
      </trkpt>
      <trkpt lat="44.84415" lon="5.37846">
        <ele>1394.8</ele>
        <time>2021-10-08T11:24:27Z</time>
      </trkpt>
      <trkpt lat="44.84416" lon="5.37847">
        <ele>1394.8</ele>
        <time>2021-10-08T11:24:28Z</time>
      </trkpt>
      <trkpt lat="44.84418" lon="5.37849">
        <ele>1394.8</ele>
        <time>2021-10-08T11:24:29Z</time>
      </trkpt>
      <trkpt lat="44.84419" lon="5.37851">
        <ele>1395.6</ele>
        <time>2021-10-08T11:24:30Z</time>
      </trkpt>
      <trkpt lat="44.8442" lon="5.37852">
        <ele>1395.6</ele>
        <time>2021-10-08T11:24:31Z</time>
      </trkpt>
      <trkpt lat="44.84422" lon="5.37854">
        <ele>1395.6</ele>
        <time>2021-10-08T11:24:32Z</time>
      </trkpt>
      <trkpt lat="44.84423" lon="5.37856">
        <ele>1395.6</ele>
        <time>2021-10-08T11:24:33Z</time>
      </trkpt>
      <trkpt lat="44.84424" lon="5.37858">
        <ele>1397.4</ele>
        <time>2021-10-08T11:24:34Z</time>
      </trkpt>
      <trkpt lat="44.84426" lon="5.37859">
        <ele>1397.4</ele>
        <time>2021-10-08T11:24:35Z</time>
      </trkpt>
      <trkpt lat="44.84427" lon="5.37861">
        <ele>1397.4</ele>
        <time>2021-10-08T11:24:36Z</time>
      </trkpt>
      <trkpt lat="44.84429" lon="5.37863">
        <ele>1397.4</ele>
        <time>2021-10-08T11:24:37Z</time>
      </trkpt>
      <trkpt lat="44.8443" lon="5.37864">
        <ele>1398.2</ele>
        <time>2021-10-08T11:24:38Z</time>
      </trkpt>
      <trkpt lat="44.84431" lon="5.37866">
        <ele>1398.2</ele>
        <time>2021-10-08T11:24:39Z</time>
      </trkpt>
      <trkpt lat="44.84432" lon="5.37867">
        <ele>1398.2</ele>
        <time>2021-10-08T11:24:40Z</time>
      </trkpt>
      <trkpt lat="44.84433" lon="5.37869">
        <ele>1398.8</ele>
        <time>2021-10-08T11:24:41Z</time>
      </trkpt>
      <trkpt lat="44.84434" lon="5.37871">
        <ele>1399.4</ele>
        <time>2021-10-08T11:24:42Z</time>
      </trkpt>
      <trkpt lat="44.84435" lon="5.37873">
        <ele>1399.4</ele>
        <time>2021-10-08T11:24:43Z</time>
      </trkpt>
      <trkpt lat="44.84437" lon="5.37875">
        <ele>1399.4</ele>
        <time>2021-10-08T11:24:44Z</time>
      </trkpt>
      <trkpt lat="44.84438" lon="5.37876">
        <ele>1399.4</ele>
        <time>2021-10-08T11:24:45Z</time>
      </trkpt>
      <trkpt lat="44.8444" lon="5.37877">
        <ele>1400.2</ele>
        <time>2021-10-08T11:24:46Z</time>
      </trkpt>
      <trkpt lat="44.84441" lon="5.37879">
        <ele>1400.2</ele>
        <time>2021-10-08T11:24:47Z</time>
      </trkpt>
      <trkpt lat="44.84441" lon="5.37881">
        <ele>1400.2</ele>
        <time>2021-10-08T11:24:48Z</time>
      </trkpt>
      <trkpt lat="44.84442" lon="5.37881">
        <ele>1401</ele>
        <time>2021-10-08T11:24:49Z</time>
      </trkpt>
      <trkpt lat="44.84443" lon="5.37882">
        <ele>1400.8</ele>
        <time>2021-10-08T11:24:50Z</time>
      </trkpt>
      <trkpt lat="44.84444" lon="5.37883">
        <ele>1400.8</ele>
        <time>2021-10-08T11:24:51Z</time>
      </trkpt>
      <trkpt lat="44.84446" lon="5.37884">
        <ele>1400.8</ele>
        <time>2021-10-08T11:24:52Z</time>
      </trkpt>
      <trkpt lat="44.84446" lon="5.37885">
        <ele>1401.6</ele>
        <time>2021-10-08T11:24:53Z</time>
      </trkpt>
      <trkpt lat="44.84447" lon="5.37886">
        <ele>1401.6</ele>
        <time>2021-10-08T11:24:54Z</time>
      </trkpt>
      <trkpt lat="44.84448" lon="5.37887">
        <ele>1401.8</ele>
        <time>2021-10-08T11:24:55Z</time>
      </trkpt>
      <trkpt lat="44.84449" lon="5.37889">
        <ele>1401.8</ele>
        <time>2021-10-08T11:24:56Z</time>
      </trkpt>
      <trkpt lat="44.8445" lon="5.37891">
        <ele>1402.4</ele>
        <time>2021-10-08T11:24:57Z</time>
      </trkpt>
      <trkpt lat="44.84451" lon="5.37892">
        <ele>1402.6</ele>
        <time>2021-10-08T11:24:58Z</time>
      </trkpt>
      <trkpt lat="44.84452" lon="5.37894">
        <ele>1402.6</ele>
        <time>2021-10-08T11:24:59Z</time>
      </trkpt>
      <trkpt lat="44.84453" lon="5.37896">
        <ele>1402.6</ele>
        <time>2021-10-08T11:25:00Z</time>
      </trkpt>
      <trkpt lat="44.84454" lon="5.37898">
        <ele>1402.6</ele>
        <time>2021-10-08T11:25:01Z</time>
      </trkpt>
      <trkpt lat="44.84455" lon="5.37899">
        <ele>1403.2</ele>
        <time>2021-10-08T11:25:02Z</time>
      </trkpt>
      <trkpt lat="44.84457" lon="5.379">
        <ele>1403.2</ele>
        <time>2021-10-08T11:25:03Z</time>
      </trkpt>
      <trkpt lat="44.84457" lon="5.37901">
        <ele>1403.2</ele>
        <time>2021-10-08T11:25:04Z</time>
      </trkpt>
      <trkpt lat="44.84459" lon="5.37902">
        <ele>1403.2</ele>
        <time>2021-10-08T11:25:05Z</time>
      </trkpt>
      <trkpt lat="44.8446" lon="5.37904">
        <ele>1403.8</ele>
        <time>2021-10-08T11:25:06Z</time>
      </trkpt>
      <trkpt lat="44.84461" lon="5.37905">
        <ele>1403.8</ele>
        <time>2021-10-08T11:25:07Z</time>
      </trkpt>
      <trkpt lat="44.84462" lon="5.37907">
        <ele>1403.8</ele>
        <time>2021-10-08T11:25:08Z</time>
      </trkpt>
      <trkpt lat="44.84463" lon="5.37908">
        <ele>1404</ele>
        <time>2021-10-08T11:25:09Z</time>
      </trkpt>
      <trkpt lat="44.84465" lon="5.3791">
        <ele>1403.8</ele>
        <time>2021-10-08T11:25:10Z</time>
      </trkpt>
      <trkpt lat="44.84465" lon="5.37911">
        <ele>1403.8</ele>
        <time>2021-10-08T11:25:11Z</time>
      </trkpt>
      <trkpt lat="44.84467" lon="5.37913">
        <ele>1403.8</ele>
        <time>2021-10-08T11:25:12Z</time>
      </trkpt>
      <trkpt lat="44.84468" lon="5.37914">
        <ele>1404.8</ele>
        <time>2021-10-08T11:25:13Z</time>
      </trkpt>
      <trkpt lat="44.84469" lon="5.37915">
        <ele>1404.8</ele>
        <time>2021-10-08T11:25:14Z</time>
      </trkpt>
      <trkpt lat="44.8447" lon="5.37917">
        <ele>1404.8</ele>
        <time>2021-10-08T11:25:15Z</time>
      </trkpt>
      <trkpt lat="44.84471" lon="5.37918">
        <ele>1404.8</ele>
        <time>2021-10-08T11:25:16Z</time>
      </trkpt>
      <trkpt lat="44.84472" lon="5.3792">
        <ele>1404.8</ele>
        <time>2021-10-08T11:25:17Z</time>
      </trkpt>
      <trkpt lat="44.84473" lon="5.37921">
        <ele>1405.2</ele>
        <time>2021-10-08T11:25:18Z</time>
      </trkpt>
      <trkpt lat="44.84475" lon="5.37922">
        <ele>1405.2</ele>
        <time>2021-10-08T11:25:19Z</time>
      </trkpt>
      <trkpt lat="44.84475" lon="5.37925">
        <ele>1405.2</ele>
        <time>2021-10-08T11:25:20Z</time>
      </trkpt>
      <trkpt lat="44.84476" lon="5.37926">
        <ele>1405.6</ele>
        <time>2021-10-08T11:25:21Z</time>
      </trkpt>
      <trkpt lat="44.84477" lon="5.37928">
        <ele>1405.6</ele>
        <time>2021-10-08T11:25:22Z</time>
      </trkpt>
      <trkpt lat="44.84479" lon="5.3793">
        <ele>1405.6</ele>
        <time>2021-10-08T11:25:23Z</time>
      </trkpt>
      <trkpt lat="44.8448" lon="5.37933">
        <ele>1405.6</ele>
        <time>2021-10-08T11:25:24Z</time>
      </trkpt>
      <trkpt lat="44.84481" lon="5.37936">
        <ele>1405.6</ele>
        <time>2021-10-08T11:25:25Z</time>
      </trkpt>
      <trkpt lat="44.84483" lon="5.37938">
        <ele>1406.2</ele>
        <time>2021-10-08T11:25:26Z</time>
      </trkpt>
      <trkpt lat="44.84484" lon="5.37941">
        <ele>1406.2</ele>
        <time>2021-10-08T11:25:27Z</time>
      </trkpt>
      <trkpt lat="44.84485" lon="5.37942">
        <ele>1406.2</ele>
        <time>2021-10-08T11:25:28Z</time>
      </trkpt>
      <trkpt lat="44.84485" lon="5.37944">
        <ele>1406.6</ele>
        <time>2021-10-08T11:25:29Z</time>
      </trkpt>
      <trkpt lat="44.84486" lon="5.37945">
        <ele>1406.8</ele>
        <time>2021-10-08T11:25:30Z</time>
      </trkpt>
      <trkpt lat="44.84488" lon="5.37947">
        <ele>1406.8</ele>
        <time>2021-10-08T11:25:31Z</time>
      </trkpt>
      <trkpt lat="44.8449" lon="5.37949">
        <ele>1406.8</ele>
        <time>2021-10-08T11:25:32Z</time>
      </trkpt>
      <trkpt lat="44.84491" lon="5.3795">
        <ele>1406.8</ele>
        <time>2021-10-08T11:25:33Z</time>
      </trkpt>
      <trkpt lat="44.84492" lon="5.37952">
        <ele>1407</ele>
        <time>2021-10-08T11:25:34Z</time>
      </trkpt>
      <trkpt lat="44.84492" lon="5.37954">
        <ele>1407</ele>
        <time>2021-10-08T11:25:35Z</time>
      </trkpt>
      <trkpt lat="44.84493" lon="5.37955">
        <ele>1407</ele>
        <time>2021-10-08T11:25:36Z</time>
      </trkpt>
      <trkpt lat="44.84495" lon="5.37957">
        <ele>1407</ele>
        <time>2021-10-08T11:25:37Z</time>
      </trkpt>
      <trkpt lat="44.84496" lon="5.3796">
        <ele>1407</ele>
        <time>2021-10-08T11:25:38Z</time>
      </trkpt>
      <trkpt lat="44.84496" lon="5.37963">
        <ele>1407</ele>
        <time>2021-10-08T11:25:39Z</time>
      </trkpt>
      <trkpt lat="44.84497" lon="5.37964">
        <ele>1407</ele>
        <time>2021-10-08T11:25:40Z</time>
      </trkpt>
      <trkpt lat="44.84497" lon="5.37965">
        <ele>1407.4</ele>
        <time>2021-10-08T11:25:41Z</time>
      </trkpt>
      <trkpt lat="44.84497" lon="5.37967">
        <ele>1407.4</ele>
        <time>2021-10-08T11:25:42Z</time>
      </trkpt>
      <trkpt lat="44.84498" lon="5.37968">
        <ele>1407.4</ele>
        <time>2021-10-08T11:25:43Z</time>
      </trkpt>
      <trkpt lat="44.84498" lon="5.3797">
        <ele>1407.4</ele>
        <time>2021-10-08T11:25:44Z</time>
      </trkpt>
      <trkpt lat="44.84498" lon="5.37972">
        <ele>1407.4</ele>
        <time>2021-10-08T11:25:45Z</time>
      </trkpt>
      <trkpt lat="44.84498" lon="5.37973">
        <ele>1408</ele>
        <time>2021-10-08T11:25:46Z</time>
      </trkpt>
      <trkpt lat="44.84499" lon="5.37975">
        <ele>1408</ele>
        <time>2021-10-08T11:25:47Z</time>
      </trkpt>
      <trkpt lat="44.84499" lon="5.37977">
        <ele>1408</ele>
        <time>2021-10-08T11:25:48Z</time>
      </trkpt>
      <trkpt lat="44.84498" lon="5.37977">
        <ele>1408</ele>
        <time>2021-10-08T11:25:49Z</time>
      </trkpt>
      <trkpt lat="44.84497" lon="5.37978">
        <ele>1408.2</ele>
        <time>2021-10-08T11:25:50Z</time>
      </trkpt>
      <trkpt lat="44.84496" lon="5.37979">
        <ele>1408.2</ele>
        <time>2021-10-08T11:25:51Z</time>
      </trkpt>
      <trkpt lat="44.84496" lon="5.37979">
        <ele>1408.2</ele>
        <time>2021-10-08T11:25:52Z</time>
      </trkpt>
      <trkpt lat="44.84495" lon="5.3798">
        <ele>1408.8</ele>
        <time>2021-10-08T11:25:53Z</time>
      </trkpt>
      <trkpt lat="44.84494" lon="5.3798">
        <ele>1408.6</ele>
        <time>2021-10-08T11:25:54Z</time>
      </trkpt>
      <trkpt lat="44.84493" lon="5.3798">
        <ele>1408.6</ele>
        <time>2021-10-08T11:25:55Z</time>
      </trkpt>
      <trkpt lat="44.84492" lon="5.3798">
        <ele>1408.6</ele>
        <time>2021-10-08T11:25:56Z</time>
      </trkpt>
      <trkpt lat="44.84491" lon="5.3798">
        <ele>1408.6</ele>
        <time>2021-10-08T11:25:57Z</time>
      </trkpt>
      <trkpt lat="44.8449" lon="5.3798">
        <ele>1409</ele>
        <time>2021-10-08T11:25:58Z</time>
      </trkpt>
      <trkpt lat="44.84489" lon="5.3798">
        <ele>1409</ele>
        <time>2021-10-08T11:25:59Z</time>
      </trkpt>
      <trkpt lat="44.84488" lon="5.3798">
        <ele>1409</ele>
        <time>2021-10-08T11:26:00Z</time>
      </trkpt>
      <trkpt lat="44.84487" lon="5.3798">
        <ele>1409</ele>
        <time>2021-10-08T11:26:01Z</time>
      </trkpt>
      <trkpt lat="44.84487" lon="5.3798">
        <ele>1409.6</ele>
        <time>2021-10-08T11:26:02Z</time>
      </trkpt>
      <trkpt lat="44.84486" lon="5.37979">
        <ele>1409.6</ele>
        <time>2021-10-08T11:26:03Z</time>
      </trkpt>
      <trkpt lat="44.84485" lon="5.37979">
        <ele>1409.6</ele>
        <time>2021-10-08T11:26:04Z</time>
      </trkpt>
      <trkpt lat="44.84485" lon="5.37979">
        <ele>1409.6</ele>
        <time>2021-10-08T11:26:05Z</time>
      </trkpt>
      <trkpt lat="44.84485" lon="5.37979">
        <ele>1409.6</ele>
        <time>2021-10-08T11:26:06Z</time>
      </trkpt>
      <trkpt lat="44.84488" lon="5.37981">
        <ele>1409.2</ele>
        <time>2021-10-08T11:26:51Z</time>
      </trkpt>
      <trkpt lat="44.84489" lon="5.3798">
        <ele>1409.2</ele>
        <time>2021-10-08T11:26:52Z</time>
      </trkpt>
      <trkpt lat="44.84491" lon="5.37979">
        <ele>1409.2</ele>
        <time>2021-10-08T11:26:53Z</time>
      </trkpt>
      <trkpt lat="44.84493" lon="5.37978">
        <ele>1408.4</ele>
        <time>2021-10-08T11:26:54Z</time>
      </trkpt>
      <trkpt lat="44.84494" lon="5.37976">
        <ele>1408.4</ele>
        <time>2021-10-08T11:26:55Z</time>
      </trkpt>
      <trkpt lat="44.84496" lon="5.37976">
        <ele>1408.4</ele>
        <time>2021-10-08T11:26:56Z</time>
      </trkpt>
      <trkpt lat="44.84497" lon="5.37974">
        <ele>1407.6</ele>
        <time>2021-10-08T11:26:57Z</time>
      </trkpt>
      <trkpt lat="44.84499" lon="5.37973">
        <ele>1407.4</ele>
        <time>2021-10-08T11:26:58Z</time>
      </trkpt>
      <trkpt lat="44.845" lon="5.37972">
        <ele>1407.4</ele>
        <time>2021-10-08T11:26:59Z</time>
      </trkpt>
      <trkpt lat="44.84501" lon="5.3797">
        <ele>1407.4</ele>
        <time>2021-10-08T11:27:00Z</time>
      </trkpt>
      <trkpt lat="44.84502" lon="5.37969">
        <ele>1407.6</ele>
        <time>2021-10-08T11:27:01Z</time>
      </trkpt>
      <trkpt lat="44.84503" lon="5.37969">
        <ele>1407.6</ele>
        <time>2021-10-08T11:27:02Z</time>
      </trkpt>
      <trkpt lat="44.84504" lon="5.37968">
        <ele>1407.6</ele>
        <time>2021-10-08T11:27:03Z</time>
      </trkpt>
      <trkpt lat="44.84505" lon="5.37967">
        <ele>1407.6</ele>
        <time>2021-10-08T11:27:04Z</time>
      </trkpt>
      <trkpt lat="44.84505" lon="5.37967">
        <ele>1407.2</ele>
        <time>2021-10-08T11:27:05Z</time>
      </trkpt>
      <trkpt lat="44.84505" lon="5.37967">
        <ele>1407.6</ele>
        <time>2021-10-08T11:27:06Z</time>
      </trkpt>
      <trkpt lat="44.8451" lon="5.37972">
        <ele>1406.2</ele>
        <time>2021-10-08T11:27:17Z</time>
      </trkpt>
      <trkpt lat="44.84511" lon="5.37973">
        <ele>1404.6</ele>
        <time>2021-10-08T11:27:18Z</time>
      </trkpt>
      <trkpt lat="44.84514" lon="5.37974">
        <ele>1404.6</ele>
        <time>2021-10-08T11:27:19Z</time>
      </trkpt>
      <trkpt lat="44.84515" lon="5.37976">
        <ele>1404.6</ele>
        <time>2021-10-08T11:27:20Z</time>
      </trkpt>
      <trkpt lat="44.84517" lon="5.37977">
        <ele>1404.6</ele>
        <time>2021-10-08T11:27:21Z</time>
      </trkpt>
      <trkpt lat="44.8452" lon="5.37978">
        <ele>1404.4</ele>
        <time>2021-10-08T11:27:22Z</time>
      </trkpt>
      <trkpt lat="44.84522" lon="5.37978">
        <ele>1404.4</ele>
        <time>2021-10-08T11:27:23Z</time>
      </trkpt>
      <trkpt lat="44.84523" lon="5.37979">
        <ele>1404.4</ele>
        <time>2021-10-08T11:27:24Z</time>
      </trkpt>
      <trkpt lat="44.84525" lon="5.37979">
        <ele>1403.4</ele>
        <time>2021-10-08T11:27:25Z</time>
      </trkpt>
      <trkpt lat="44.84528" lon="5.37979">
        <ele>1403.2</ele>
        <time>2021-10-08T11:27:26Z</time>
      </trkpt>
      <trkpt lat="44.84531" lon="5.3798">
        <ele>1403.2</ele>
        <time>2021-10-08T11:27:27Z</time>
      </trkpt>
      <trkpt lat="44.84533" lon="5.3798">
        <ele>1403.2</ele>
        <time>2021-10-08T11:27:28Z</time>
      </trkpt>
      <trkpt lat="44.84535" lon="5.37981">
        <ele>1403.2</ele>
        <time>2021-10-08T11:27:29Z</time>
      </trkpt>
      <trkpt lat="44.84538" lon="5.37982">
        <ele>1401.6</ele>
        <time>2021-10-08T11:27:30Z</time>
      </trkpt>
      <trkpt lat="44.84541" lon="5.37984">
        <ele>1401.6</ele>
        <time>2021-10-08T11:27:31Z</time>
      </trkpt>
      <trkpt lat="44.84543" lon="5.37987">
        <ele>1401.6</ele>
        <time>2021-10-08T11:27:32Z</time>
      </trkpt>
      <trkpt lat="44.84547" lon="5.37988">
        <ele>1402.2</ele>
        <time>2021-10-08T11:27:33Z</time>
      </trkpt>
      <trkpt lat="44.84549" lon="5.37991">
        <ele>1401.6</ele>
        <time>2021-10-08T11:27:34Z</time>
      </trkpt>
      <trkpt lat="44.84552" lon="5.37993">
        <ele>1401.6</ele>
        <time>2021-10-08T11:27:35Z</time>
      </trkpt>
      <trkpt lat="44.84554" lon="5.37995">
        <ele>1401.6</ele>
        <time>2021-10-08T11:27:36Z</time>
      </trkpt>
      <trkpt lat="44.84557" lon="5.37997">
        <ele>1400.6</ele>
        <time>2021-10-08T11:27:37Z</time>
      </trkpt>
      <trkpt lat="44.84559" lon="5.37999">
        <ele>1400.8</ele>
        <time>2021-10-08T11:27:38Z</time>
      </trkpt>
      <trkpt lat="44.84561" lon="5.38001">
        <ele>1400.8</ele>
        <time>2021-10-08T11:27:39Z</time>
      </trkpt>
      <trkpt lat="44.84562" lon="5.38004">
        <ele>1400.8</ele>
        <time>2021-10-08T11:27:40Z</time>
      </trkpt>
      <trkpt lat="44.84563" lon="5.38005">
        <ele>1400.8</ele>
        <time>2021-10-08T11:27:41Z</time>
      </trkpt>
      <trkpt lat="44.84563" lon="5.38007">
        <ele>1401</ele>
        <time>2021-10-08T11:27:42Z</time>
      </trkpt>
      <trkpt lat="44.84564" lon="5.38007">
        <ele>1401</ele>
        <time>2021-10-08T11:27:43Z</time>
      </trkpt>
      <trkpt lat="44.84564" lon="5.38007">
        <ele>1401</ele>
        <time>2021-10-08T11:27:44Z</time>
      </trkpt>
      <trkpt lat="44.84574" lon="5.38019">
        <ele>1400.2</ele>
        <time>2021-10-08T11:28:11Z</time>
      </trkpt>
      <trkpt lat="44.84574" lon="5.38022">
        <ele>1400.2</ele>
        <time>2021-10-08T11:28:12Z</time>
      </trkpt>
      <trkpt lat="44.84574" lon="5.38025">
        <ele>1400.2</ele>
        <time>2021-10-08T11:28:13Z</time>
      </trkpt>
      <trkpt lat="44.84574" lon="5.3803">
        <ele>1399.6</ele>
        <time>2021-10-08T11:28:14Z</time>
      </trkpt>
      <trkpt lat="44.84575" lon="5.38034">
        <ele>1399.6</ele>
        <time>2021-10-08T11:28:15Z</time>
      </trkpt>
      <trkpt lat="44.84574" lon="5.38042">
        <ele>1399.6</ele>
        <time>2021-10-08T11:28:16Z</time>
      </trkpt>
      <trkpt lat="44.84574" lon="5.38048">
        <ele>1398.6</ele>
        <time>2021-10-08T11:28:17Z</time>
      </trkpt>
      <trkpt lat="44.84572" lon="5.38053">
        <ele>1396.4</ele>
        <time>2021-10-08T11:28:18Z</time>
      </trkpt>
      <trkpt lat="44.84568" lon="5.38058">
        <ele>1396.4</ele>
        <time>2021-10-08T11:28:19Z</time>
      </trkpt>
      <trkpt lat="44.84564" lon="5.38063">
        <ele>1396.4</ele>
        <time>2021-10-08T11:28:20Z</time>
      </trkpt>
      <trkpt lat="44.8456" lon="5.38065">
        <ele>1395.4</ele>
        <time>2021-10-08T11:28:21Z</time>
      </trkpt>
      <trkpt lat="44.84558" lon="5.38065">
        <ele>1394.6</ele>
        <time>2021-10-08T11:28:22Z</time>
      </trkpt>
      <trkpt lat="44.84554" lon="5.38065">
        <ele>1394.6</ele>
        <time>2021-10-08T11:28:23Z</time>
      </trkpt>
      <trkpt lat="44.8455" lon="5.38066">
        <ele>1394.6</ele>
        <time>2021-10-08T11:28:24Z</time>
      </trkpt>
      <trkpt lat="44.84547" lon="5.38066">
        <ele>1395.6</ele>
        <time>2021-10-08T11:28:25Z</time>
      </trkpt>
      <trkpt lat="44.84544" lon="5.38065">
        <ele>1396.8</ele>
        <time>2021-10-08T11:28:26Z</time>
      </trkpt>
      <trkpt lat="44.84542" lon="5.38066">
        <ele>1396.8</ele>
        <time>2021-10-08T11:28:27Z</time>
      </trkpt>
      <trkpt lat="44.8454" lon="5.38065">
        <ele>1396.8</ele>
        <time>2021-10-08T11:28:28Z</time>
      </trkpt>
      <trkpt lat="44.84539" lon="5.38064">
        <ele>1397.4</ele>
        <time>2021-10-08T11:28:29Z</time>
      </trkpt>
      <trkpt lat="44.84538" lon="5.38064">
        <ele>1397</ele>
        <time>2021-10-08T11:28:30Z</time>
      </trkpt>
      <trkpt lat="44.84534" lon="5.38066">
        <ele>1397</ele>
        <time>2021-10-08T11:28:31Z</time>
      </trkpt>
      <trkpt lat="44.84531" lon="5.38067">
        <ele>1397</ele>
        <time>2021-10-08T11:28:32Z</time>
      </trkpt>
      <trkpt lat="44.84529" lon="5.38069">
        <ele>1397</ele>
        <time>2021-10-08T11:28:33Z</time>
      </trkpt>
      <trkpt lat="44.84526" lon="5.38071">
        <ele>1397</ele>
        <time>2021-10-08T11:28:34Z</time>
      </trkpt>
      <trkpt lat="44.84524" lon="5.38073">
        <ele>1397</ele>
        <time>2021-10-08T11:28:35Z</time>
      </trkpt>
      <trkpt lat="44.84522" lon="5.38074">
        <ele>1397</ele>
        <time>2021-10-08T11:28:36Z</time>
      </trkpt>
      <trkpt lat="44.8452" lon="5.38076">
        <ele>1397</ele>
        <time>2021-10-08T11:28:37Z</time>
      </trkpt>
      <trkpt lat="44.84518" lon="5.38078">
        <ele>1396.8</ele>
        <time>2021-10-08T11:28:38Z</time>
      </trkpt>
      <trkpt lat="44.84516" lon="5.3808">
        <ele>1396.8</ele>
        <time>2021-10-08T11:28:39Z</time>
      </trkpt>
      <trkpt lat="44.84514" lon="5.38081">
        <ele>1396.8</ele>
        <time>2021-10-08T11:28:40Z</time>
      </trkpt>
      <trkpt lat="44.8451" lon="5.38084">
        <ele>1396</ele>
        <time>2021-10-08T11:28:41Z</time>
      </trkpt>
      <trkpt lat="44.84507" lon="5.38086">
        <ele>1396.6</ele>
        <time>2021-10-08T11:28:42Z</time>
      </trkpt>
      <trkpt lat="44.84504" lon="5.38085">
        <ele>1396.6</ele>
        <time>2021-10-08T11:28:43Z</time>
      </trkpt>
      <trkpt lat="44.845" lon="5.38088">
        <ele>1396.6</ele>
        <time>2021-10-08T11:28:44Z</time>
      </trkpt>
      <trkpt lat="44.84497" lon="5.3809">
        <ele>1395.6</ele>
        <time>2021-10-08T11:28:45Z</time>
      </trkpt>
      <trkpt lat="44.84495" lon="5.38093">
        <ele>1395.4</ele>
        <time>2021-10-08T11:28:46Z</time>
      </trkpt>
      <trkpt lat="44.84492" lon="5.38095">
        <ele>1395.4</ele>
        <time>2021-10-08T11:28:47Z</time>
      </trkpt>
      <trkpt lat="44.84488" lon="5.38098">
        <ele>1395.4</ele>
        <time>2021-10-08T11:28:48Z</time>
      </trkpt>
      <trkpt lat="44.84484" lon="5.38103">
        <ele>1395.4</ele>
        <time>2021-10-08T11:28:49Z</time>
      </trkpt>
      <trkpt lat="44.84481" lon="5.38107">
        <ele>1395.2</ele>
        <time>2021-10-08T11:28:50Z</time>
      </trkpt>
      <trkpt lat="44.84478" lon="5.3811">
        <ele>1395.2</ele>
        <time>2021-10-08T11:28:51Z</time>
      </trkpt>
      <trkpt lat="44.84474" lon="5.38112">
        <ele>1395.2</ele>
        <time>2021-10-08T11:28:52Z</time>
      </trkpt>
      <trkpt lat="44.8447" lon="5.38115">
        <ele>1394.8</ele>
        <time>2021-10-08T11:28:53Z</time>
      </trkpt>
      <trkpt lat="44.84468" lon="5.38117">
        <ele>1394.8</ele>
        <time>2021-10-08T11:28:54Z</time>
      </trkpt>
      <trkpt lat="44.84465" lon="5.3812">
        <ele>1394.4</ele>
        <time>2021-10-08T11:28:55Z</time>
      </trkpt>
      <trkpt lat="44.84461" lon="5.38124">
        <ele>1394.4</ele>
        <time>2021-10-08T11:28:56Z</time>
      </trkpt>
      <trkpt lat="44.84458" lon="5.38129">
        <ele>1394.4</ele>
        <time>2021-10-08T11:28:57Z</time>
      </trkpt>
      <trkpt lat="44.84453" lon="5.38134">
        <ele>1393.6</ele>
        <time>2021-10-08T11:28:58Z</time>
      </trkpt>
      <trkpt lat="44.84449" lon="5.3814">
        <ele>1393.6</ele>
        <time>2021-10-08T11:28:59Z</time>
      </trkpt>
      <trkpt lat="44.84447" lon="5.38144">
        <ele>1393.6</ele>
        <time>2021-10-08T11:29:00Z</time>
      </trkpt>
      <trkpt lat="44.84445" lon="5.38149">
        <ele>1392.6</ele>
        <time>2021-10-08T11:29:01Z</time>
      </trkpt>
      <trkpt lat="44.84442" lon="5.38155">
        <ele>1391.6</ele>
        <time>2021-10-08T11:29:02Z</time>
      </trkpt>
      <trkpt lat="44.8444" lon="5.3816">
        <ele>1391.6</ele>
        <time>2021-10-08T11:29:03Z</time>
      </trkpt>
      <trkpt lat="44.84437" lon="5.38166">
        <ele>1391.6</ele>
        <time>2021-10-08T11:29:04Z</time>
      </trkpt>
      <trkpt lat="44.84433" lon="5.3817">
        <ele>1391.4</ele>
        <time>2021-10-08T11:29:05Z</time>
      </trkpt>
      <trkpt lat="44.8443" lon="5.38174">
        <ele>1391</ele>
        <time>2021-10-08T11:29:06Z</time>
      </trkpt>
      <trkpt lat="44.84426" lon="5.38178">
        <ele>1391</ele>
        <time>2021-10-08T11:29:07Z</time>
      </trkpt>
      <trkpt lat="44.84423" lon="5.38182">
        <ele>1391</ele>
        <time>2021-10-08T11:29:08Z</time>
      </trkpt>
      <trkpt lat="44.84422" lon="5.38187">
        <ele>1391</ele>
        <time>2021-10-08T11:29:09Z</time>
      </trkpt>
      <trkpt lat="44.84419" lon="5.38191">
        <ele>1391.2</ele>
        <time>2021-10-08T11:29:10Z</time>
      </trkpt>
      <trkpt lat="44.84416" lon="5.38194">
        <ele>1391.2</ele>
        <time>2021-10-08T11:29:11Z</time>
      </trkpt>
      <trkpt lat="44.84413" lon="5.38197">
        <ele>1391.2</ele>
        <time>2021-10-08T11:29:12Z</time>
      </trkpt>
      <trkpt lat="44.84411" lon="5.382">
        <ele>1392.2</ele>
        <time>2021-10-08T11:29:13Z</time>
      </trkpt>
      <trkpt lat="44.84409" lon="5.38204">
        <ele>1392</ele>
        <time>2021-10-08T11:29:14Z</time>
      </trkpt>
      <trkpt lat="44.84407" lon="5.38206">
        <ele>1392</ele>
        <time>2021-10-08T11:29:15Z</time>
      </trkpt>
      <trkpt lat="44.84406" lon="5.38209">
        <ele>1392</ele>
        <time>2021-10-08T11:29:16Z</time>
      </trkpt>
      <trkpt lat="44.84405" lon="5.38212">
        <ele>1392.2</ele>
        <time>2021-10-08T11:29:17Z</time>
      </trkpt>
      <trkpt lat="44.84404" lon="5.38216">
        <ele>1392.8</ele>
        <time>2021-10-08T11:29:18Z</time>
      </trkpt>
      <trkpt lat="44.84403" lon="5.38219">
        <ele>1392.8</ele>
        <time>2021-10-08T11:29:19Z</time>
      </trkpt>
      <trkpt lat="44.84403" lon="5.38222">
        <ele>1392.8</ele>
        <time>2021-10-08T11:29:20Z</time>
      </trkpt>
      <trkpt lat="44.84403" lon="5.38225">
        <ele>1392.8</ele>
        <time>2021-10-08T11:29:21Z</time>
      </trkpt>
      <trkpt lat="44.84403" lon="5.38228">
        <ele>1392.6</ele>
        <time>2021-10-08T11:29:22Z</time>
      </trkpt>
      <trkpt lat="44.84403" lon="5.38231">
        <ele>1392.6</ele>
        <time>2021-10-08T11:29:23Z</time>
      </trkpt>
      <trkpt lat="44.84404" lon="5.38234">
        <ele>1392.6</ele>
        <time>2021-10-08T11:29:24Z</time>
      </trkpt>
      <trkpt lat="44.84404" lon="5.38237">
        <ele>1392.6</ele>
        <time>2021-10-08T11:29:25Z</time>
      </trkpt>
      <trkpt lat="44.84405" lon="5.3824">
        <ele>1393.2</ele>
        <time>2021-10-08T11:29:26Z</time>
      </trkpt>
      <trkpt lat="44.84407" lon="5.38242">
        <ele>1393.2</ele>
        <time>2021-10-08T11:29:27Z</time>
      </trkpt>
      <trkpt lat="44.84408" lon="5.38245">
        <ele>1393.2</ele>
        <time>2021-10-08T11:29:28Z</time>
      </trkpt>
      <trkpt lat="44.84409" lon="5.38247">
        <ele>1392.8</ele>
        <time>2021-10-08T11:29:29Z</time>
      </trkpt>
      <trkpt lat="44.8441" lon="5.3825">
        <ele>1393.4</ele>
        <time>2021-10-08T11:29:30Z</time>
      </trkpt>
      <trkpt lat="44.84412" lon="5.38252">
        <ele>1393.4</ele>
        <time>2021-10-08T11:29:31Z</time>
      </trkpt>
      <trkpt lat="44.84413" lon="5.38254">
        <ele>1393.4</ele>
        <time>2021-10-08T11:29:32Z</time>
      </trkpt>
      <trkpt lat="44.84414" lon="5.38256">
        <ele>1393.4</ele>
        <time>2021-10-08T11:29:33Z</time>
      </trkpt>
      <trkpt lat="44.84415" lon="5.38259">
        <ele>1393.6</ele>
        <time>2021-10-08T11:29:34Z</time>
      </trkpt>
      <trkpt lat="44.84417" lon="5.3826">
        <ele>1393.6</ele>
        <time>2021-10-08T11:29:35Z</time>
      </trkpt>
      <trkpt lat="44.84418" lon="5.38262">
        <ele>1393.6</ele>
        <time>2021-10-08T11:29:36Z</time>
      </trkpt>
      <trkpt lat="44.84419" lon="5.38263">
        <ele>1393.8</ele>
        <time>2021-10-08T11:29:37Z</time>
      </trkpt>
      <trkpt lat="44.8442" lon="5.38265">
        <ele>1393.6</ele>
        <time>2021-10-08T11:29:38Z</time>
      </trkpt>
      <trkpt lat="44.84422" lon="5.38266">
        <ele>1393.6</ele>
        <time>2021-10-08T11:29:39Z</time>
      </trkpt>
      <trkpt lat="44.84424" lon="5.38268">
        <ele>1393.6</ele>
        <time>2021-10-08T11:29:40Z</time>
      </trkpt>
      <trkpt lat="44.84426" lon="5.3827">
        <ele>1392.8</ele>
        <time>2021-10-08T11:29:41Z</time>
      </trkpt>
      <trkpt lat="44.84428" lon="5.38272">
        <ele>1392.4</ele>
        <time>2021-10-08T11:29:42Z</time>
      </trkpt>
      <trkpt lat="44.8443" lon="5.38273">
        <ele>1392.4</ele>
        <time>2021-10-08T11:29:43Z</time>
      </trkpt>
      <trkpt lat="44.8443" lon="5.38274">
        <ele>1392.4</ele>
        <time>2021-10-08T11:29:44Z</time>
      </trkpt>
      <trkpt lat="44.8443" lon="5.38274">
        <ele>1393</ele>
        <time>2021-10-08T11:29:45Z</time>
      </trkpt>
      <trkpt lat="44.8443" lon="5.38274">
        <ele>1392.8</ele>
        <time>2021-10-08T11:29:46Z</time>
      </trkpt>
      <trkpt lat="44.84432" lon="5.38277">
        <ele>1392.4</ele>
        <time>2021-10-08T11:30:25Z</time>
      </trkpt>
      <trkpt lat="44.84433" lon="5.38278">
        <ele>1392.2</ele>
        <time>2021-10-08T11:30:26Z</time>
      </trkpt>
      <trkpt lat="44.84435" lon="5.3828">
        <ele>1392.2</ele>
        <time>2021-10-08T11:30:27Z</time>
      </trkpt>
      <trkpt lat="44.84437" lon="5.38282">
        <ele>1392.2</ele>
        <time>2021-10-08T11:30:28Z</time>
      </trkpt>
      <trkpt lat="44.84439" lon="5.38284">
        <ele>1391.4</ele>
        <time>2021-10-08T11:30:29Z</time>
      </trkpt>
      <trkpt lat="44.84442" lon="5.38287">
        <ele>1391.4</ele>
        <time>2021-10-08T11:30:30Z</time>
      </trkpt>
      <trkpt lat="44.84444" lon="5.38289">
        <ele>1391.4</ele>
        <time>2021-10-08T11:30:31Z</time>
      </trkpt>
      <trkpt lat="44.84446" lon="5.38292">
        <ele>1391.4</ele>
        <time>2021-10-08T11:30:32Z</time>
      </trkpt>
      <trkpt lat="44.84448" lon="5.38296">
        <ele>1390.4</ele>
        <time>2021-10-08T11:30:33Z</time>
      </trkpt>
      <trkpt lat="44.8445" lon="5.38299">
        <ele>1389.8</ele>
        <time>2021-10-08T11:30:34Z</time>
      </trkpt>
      <trkpt lat="44.84452" lon="5.38302">
        <ele>1389.8</ele>
        <time>2021-10-08T11:30:35Z</time>
      </trkpt>
      <trkpt lat="44.84454" lon="5.38305">
        <ele>1389.8</ele>
        <time>2021-10-08T11:30:36Z</time>
      </trkpt>
      <trkpt lat="44.84457" lon="5.38308">
        <ele>1390</ele>
        <time>2021-10-08T11:30:37Z</time>
      </trkpt>
      <trkpt lat="44.84459" lon="5.38311">
        <ele>1389.6</ele>
        <time>2021-10-08T11:30:38Z</time>
      </trkpt>
      <trkpt lat="44.84461" lon="5.38314">
        <ele>1389.6</ele>
        <time>2021-10-08T11:30:39Z</time>
      </trkpt>
      <trkpt lat="44.84463" lon="5.38317">
        <ele>1389.6</ele>
        <time>2021-10-08T11:30:40Z</time>
      </trkpt>
      <trkpt lat="44.84464" lon="5.3832">
        <ele>1390.4</ele>
        <time>2021-10-08T11:30:41Z</time>
      </trkpt>
      <trkpt lat="44.84466" lon="5.38323">
        <ele>1390.4</ele>
        <time>2021-10-08T11:30:42Z</time>
      </trkpt>
      <trkpt lat="44.84468" lon="5.38326">
        <ele>1390.4</ele>
        <time>2021-10-08T11:30:43Z</time>
      </trkpt>
      <trkpt lat="44.84469" lon="5.38329">
        <ele>1390.4</ele>
        <time>2021-10-08T11:30:44Z</time>
      </trkpt>
      <trkpt lat="44.8447" lon="5.38333">
        <ele>1390.4</ele>
        <time>2021-10-08T11:30:45Z</time>
      </trkpt>
      <trkpt lat="44.84472" lon="5.38336">
        <ele>1390.2</ele>
        <time>2021-10-08T11:30:46Z</time>
      </trkpt>
      <trkpt lat="44.84473" lon="5.38339">
        <ele>1390.2</ele>
        <time>2021-10-08T11:30:47Z</time>
      </trkpt>
      <trkpt lat="44.84475" lon="5.38342">
        <ele>1390.2</ele>
        <time>2021-10-08T11:30:48Z</time>
      </trkpt>
      <trkpt lat="44.84476" lon="5.38345">
        <ele>1390.2</ele>
        <time>2021-10-08T11:30:49Z</time>
      </trkpt>
      <trkpt lat="44.84478" lon="5.38348">
        <ele>1390.8</ele>
        <time>2021-10-08T11:30:50Z</time>
      </trkpt>
      <trkpt lat="44.8448" lon="5.38351">
        <ele>1390.8</ele>
        <time>2021-10-08T11:30:51Z</time>
      </trkpt>
      <trkpt lat="44.84482" lon="5.38354">
        <ele>1390.8</ele>
        <time>2021-10-08T11:30:52Z</time>
      </trkpt>
      <trkpt lat="44.84483" lon="5.38357">
        <ele>1390.8</ele>
        <time>2021-10-08T11:30:53Z</time>
      </trkpt>
      <trkpt lat="44.84484" lon="5.3836">
        <ele>1389.8</ele>
        <time>2021-10-08T11:30:54Z</time>
      </trkpt>
      <trkpt lat="44.84485" lon="5.38363">
        <ele>1389.8</ele>
        <time>2021-10-08T11:30:55Z</time>
      </trkpt>
      <trkpt lat="44.84486" lon="5.38366">
        <ele>1389.8</ele>
        <time>2021-10-08T11:30:56Z</time>
      </trkpt>
      <trkpt lat="44.84487" lon="5.38369">
        <ele>1390.6</ele>
        <time>2021-10-08T11:30:57Z</time>
      </trkpt>
      <trkpt lat="44.84488" lon="5.38372">
        <ele>1391.2</ele>
        <time>2021-10-08T11:30:58Z</time>
      </trkpt>
      <trkpt lat="44.84489" lon="5.38375">
        <ele>1391.2</ele>
        <time>2021-10-08T11:30:59Z</time>
      </trkpt>
      <trkpt lat="44.84489" lon="5.38378">
        <ele>1391.2</ele>
        <time>2021-10-08T11:31:00Z</time>
      </trkpt>
      <trkpt lat="44.8449" lon="5.38382">
        <ele>1391.2</ele>
        <time>2021-10-08T11:31:01Z</time>
      </trkpt>
      <trkpt lat="44.84491" lon="5.38386">
        <ele>1391.8</ele>
        <time>2021-10-08T11:31:02Z</time>
      </trkpt>
      <trkpt lat="44.84492" lon="5.38389">
        <ele>1391.8</ele>
        <time>2021-10-08T11:31:03Z</time>
      </trkpt>
      <trkpt lat="44.84492" lon="5.38393">
        <ele>1391.8</ele>
        <time>2021-10-08T11:31:04Z</time>
      </trkpt>
      <trkpt lat="44.84493" lon="5.38396">
        <ele>1391.8</ele>
        <time>2021-10-08T11:31:05Z</time>
      </trkpt>
      <trkpt lat="44.84493" lon="5.38399">
        <ele>1392.8</ele>
        <time>2021-10-08T11:31:06Z</time>
      </trkpt>
      <trkpt lat="44.84494" lon="5.38403">
        <ele>1392.8</ele>
        <time>2021-10-08T11:31:07Z</time>
      </trkpt>
      <trkpt lat="44.84494" lon="5.38407">
        <ele>1392.8</ele>
        <time>2021-10-08T11:31:08Z</time>
      </trkpt>
      <trkpt lat="44.84495" lon="5.3841">
        <ele>1392.2</ele>
        <time>2021-10-08T11:31:09Z</time>
      </trkpt>
      <trkpt lat="44.84496" lon="5.38414">
        <ele>1391.6</ele>
        <time>2021-10-08T11:31:10Z</time>
      </trkpt>
      <trkpt lat="44.84497" lon="5.38419">
        <ele>1391.6</ele>
        <time>2021-10-08T11:31:11Z</time>
      </trkpt>
      <trkpt lat="44.84496" lon="5.38424">
        <ele>1391.6</ele>
        <time>2021-10-08T11:31:12Z</time>
      </trkpt>
      <trkpt lat="44.84495" lon="5.38428">
        <ele>1391.6</ele>
        <time>2021-10-08T11:31:13Z</time>
      </trkpt>
      <trkpt lat="44.84494" lon="5.38431">
        <ele>1391.6</ele>
        <time>2021-10-08T11:31:14Z</time>
      </trkpt>
      <trkpt lat="44.84493" lon="5.38435">
        <ele>1391.6</ele>
        <time>2021-10-08T11:31:15Z</time>
      </trkpt>
      <trkpt lat="44.84491" lon="5.38439">
        <ele>1391.6</ele>
        <time>2021-10-08T11:31:16Z</time>
      </trkpt>
      <trkpt lat="44.8449" lon="5.38443">
        <ele>1390.6</ele>
        <time>2021-10-08T11:31:17Z</time>
      </trkpt>
      <trkpt lat="44.84489" lon="5.38447">
        <ele>1391</ele>
        <time>2021-10-08T11:31:18Z</time>
      </trkpt>
      <trkpt lat="44.84488" lon="5.38452">
        <ele>1391</ele>
        <time>2021-10-08T11:31:19Z</time>
      </trkpt>
      <trkpt lat="44.84486" lon="5.38457">
        <ele>1391</ele>
        <time>2021-10-08T11:31:20Z</time>
      </trkpt>
      <trkpt lat="44.84484" lon="5.38462">
        <ele>1390</ele>
        <time>2021-10-08T11:31:21Z</time>
      </trkpt>
      <trkpt lat="44.84482" lon="5.38468">
        <ele>1390</ele>
        <time>2021-10-08T11:31:22Z</time>
      </trkpt>
      <trkpt lat="44.8448" lon="5.38473">
        <ele>1390</ele>
        <time>2021-10-08T11:31:23Z</time>
      </trkpt>
      <trkpt lat="44.84478" lon="5.38478">
        <ele>1390</ele>
        <time>2021-10-08T11:31:24Z</time>
      </trkpt>
      <trkpt lat="44.84475" lon="5.38483">
        <ele>1389.2</ele>
        <time>2021-10-08T11:31:25Z</time>
      </trkpt>
      <trkpt lat="44.84472" lon="5.38488">
        <ele>1389.4</ele>
        <time>2021-10-08T11:31:26Z</time>
      </trkpt>
      <trkpt lat="44.8447" lon="5.38492">
        <ele>1389.4</ele>
        <time>2021-10-08T11:31:27Z</time>
      </trkpt>
      <trkpt lat="44.84467" lon="5.38497">
        <ele>1389.4</ele>
        <time>2021-10-08T11:31:28Z</time>
      </trkpt>
      <trkpt lat="44.84465" lon="5.38501">
        <ele>1390</ele>
        <time>2021-10-08T11:31:29Z</time>
      </trkpt>
      <trkpt lat="44.84462" lon="5.38505">
        <ele>1390.6</ele>
        <time>2021-10-08T11:31:30Z</time>
      </trkpt>
      <trkpt lat="44.8446" lon="5.38509">
        <ele>1390.6</ele>
        <time>2021-10-08T11:31:31Z</time>
      </trkpt>
      <trkpt lat="44.84458" lon="5.38513">
        <ele>1390.6</ele>
        <time>2021-10-08T11:31:32Z</time>
      </trkpt>
      <trkpt lat="44.84455" lon="5.38518">
        <ele>1389.8</ele>
        <time>2021-10-08T11:31:33Z</time>
      </trkpt>
      <trkpt lat="44.84452" lon="5.38523">
        <ele>1389</ele>
        <time>2021-10-08T11:31:34Z</time>
      </trkpt>
      <trkpt lat="44.84449" lon="5.38528">
        <ele>1389</ele>
        <time>2021-10-08T11:31:35Z</time>
      </trkpt>
      <trkpt lat="44.84446" lon="5.38534">
        <ele>1389</ele>
        <time>2021-10-08T11:31:36Z</time>
      </trkpt>
      <trkpt lat="44.84443" lon="5.3854">
        <ele>1389</ele>
        <time>2021-10-08T11:31:37Z</time>
      </trkpt>
      <trkpt lat="44.8444" lon="5.38547">
        <ele>1387.8</ele>
        <time>2021-10-08T11:31:38Z</time>
      </trkpt>
      <trkpt lat="44.84437" lon="5.38553">
        <ele>1387.8</ele>
        <time>2021-10-08T11:31:39Z</time>
      </trkpt>
      <trkpt lat="44.84434" lon="5.38558">
        <ele>1387.8</ele>
        <time>2021-10-08T11:31:40Z</time>
      </trkpt>
      <trkpt lat="44.8443" lon="5.38563">
        <ele>1387.8</ele>
        <time>2021-10-08T11:31:41Z</time>
      </trkpt>
      <trkpt lat="44.84428" lon="5.38566">
        <ele>1389</ele>
        <time>2021-10-08T11:31:42Z</time>
      </trkpt>
      <trkpt lat="44.84425" lon="5.38568">
        <ele>1389</ele>
        <time>2021-10-08T11:31:43Z</time>
      </trkpt>
      <trkpt lat="44.84423" lon="5.3857">
        <ele>1389</ele>
        <time>2021-10-08T11:31:44Z</time>
      </trkpt>
      <trkpt lat="44.84421" lon="5.38572">
        <ele>1390</ele>
        <time>2021-10-08T11:31:45Z</time>
      </trkpt>
      <trkpt lat="44.84418" lon="5.38574">
        <ele>1390.6</ele>
        <time>2021-10-08T11:31:46Z</time>
      </trkpt>
      <trkpt lat="44.84416" lon="5.38575">
        <ele>1390.6</ele>
        <time>2021-10-08T11:31:47Z</time>
      </trkpt>
      <trkpt lat="44.84414" lon="5.38577">
        <ele>1390.6</ele>
        <time>2021-10-08T11:31:48Z</time>
      </trkpt>
      <trkpt lat="44.84412" lon="5.38579">
        <ele>1391.2</ele>
        <time>2021-10-08T11:31:49Z</time>
      </trkpt>
      <trkpt lat="44.84411" lon="5.3858">
        <ele>1391</ele>
        <time>2021-10-08T11:31:50Z</time>
      </trkpt>
      <trkpt lat="44.84409" lon="5.38582">
        <ele>1391</ele>
        <time>2021-10-08T11:31:51Z</time>
      </trkpt>
      <trkpt lat="44.84407" lon="5.38584">
        <ele>1391</ele>
        <time>2021-10-08T11:31:52Z</time>
      </trkpt>
      <trkpt lat="44.84406" lon="5.38585">
        <ele>1391.6</ele>
        <time>2021-10-08T11:31:53Z</time>
      </trkpt>
      <trkpt lat="44.84404" lon="5.38587">
        <ele>1391.8</ele>
        <time>2021-10-08T11:31:54Z</time>
      </trkpt>
      <trkpt lat="44.84402" lon="5.38589">
        <ele>1391.8</ele>
        <time>2021-10-08T11:31:55Z</time>
      </trkpt>
      <trkpt lat="44.84401" lon="5.38591">
        <ele>1391.8</ele>
        <time>2021-10-08T11:31:56Z</time>
      </trkpt>
      <trkpt lat="44.84399" lon="5.38592">
        <ele>1392.2</ele>
        <time>2021-10-08T11:31:57Z</time>
      </trkpt>
      <trkpt lat="44.84398" lon="5.38594">
        <ele>1391.8</ele>
        <time>2021-10-08T11:31:58Z</time>
      </trkpt>
      <trkpt lat="44.84396" lon="5.38595">
        <ele>1391.8</ele>
        <time>2021-10-08T11:31:59Z</time>
      </trkpt>
      <trkpt lat="44.84395" lon="5.38597">
        <ele>1391.8</ele>
        <time>2021-10-08T11:32:00Z</time>
      </trkpt>
      <trkpt lat="44.84394" lon="5.38598">
        <ele>1392.8</ele>
        <time>2021-10-08T11:32:01Z</time>
      </trkpt>
      <trkpt lat="44.84392" lon="5.386">
        <ele>1393.6</ele>
        <time>2021-10-08T11:32:02Z</time>
      </trkpt>
      <trkpt lat="44.84391" lon="5.38601">
        <ele>1393.6</ele>
        <time>2021-10-08T11:32:03Z</time>
      </trkpt>
      <trkpt lat="44.8439" lon="5.38602">
        <ele>1393.6</ele>
        <time>2021-10-08T11:32:04Z</time>
      </trkpt>
      <trkpt lat="44.84389" lon="5.38603">
        <ele>1393.6</ele>
        <time>2021-10-08T11:32:05Z</time>
      </trkpt>
      <trkpt lat="44.84388" lon="5.38605">
        <ele>1394.2</ele>
        <time>2021-10-08T11:32:06Z</time>
      </trkpt>
      <trkpt lat="44.84387" lon="5.38606">
        <ele>1394.2</ele>
        <time>2021-10-08T11:32:07Z</time>
      </trkpt>
      <trkpt lat="44.84386" lon="5.38608">
        <ele>1394.2</ele>
        <time>2021-10-08T11:32:08Z</time>
      </trkpt>
      <trkpt lat="44.84385" lon="5.38609">
        <ele>1394.2</ele>
        <time>2021-10-08T11:32:09Z</time>
      </trkpt>
      <trkpt lat="44.84384" lon="5.3861">
        <ele>1394.6</ele>
        <time>2021-10-08T11:32:10Z</time>
      </trkpt>
      <trkpt lat="44.84382" lon="5.38611">
        <ele>1394.6</ele>
        <time>2021-10-08T11:32:11Z</time>
      </trkpt>
      <trkpt lat="44.84381" lon="5.38612">
        <ele>1394.6</ele>
        <time>2021-10-08T11:32:12Z</time>
      </trkpt>
      <trkpt lat="44.8438" lon="5.38614">
        <ele>1395</ele>
        <time>2021-10-08T11:32:13Z</time>
      </trkpt>
      <trkpt lat="44.8438" lon="5.38615">
        <ele>1395</ele>
        <time>2021-10-08T11:32:14Z</time>
      </trkpt>
      <trkpt lat="44.84379" lon="5.38616">
        <ele>1395</ele>
        <time>2021-10-08T11:32:15Z</time>
      </trkpt>
      <trkpt lat="44.84378" lon="5.38617">
        <ele>1395</ele>
        <time>2021-10-08T11:32:16Z</time>
      </trkpt>
      <trkpt lat="44.84377" lon="5.38618">
        <ele>1395</ele>
        <time>2021-10-08T11:32:17Z</time>
      </trkpt>
      <trkpt lat="44.84376" lon="5.38618">
        <ele>1395.2</ele>
        <time>2021-10-08T11:32:18Z</time>
      </trkpt>
      <trkpt lat="44.84376" lon="5.38618">
        <ele>1395.2</ele>
        <time>2021-10-08T11:32:19Z</time>
      </trkpt>
      <trkpt lat="44.84376" lon="5.38618">
        <ele>1395.2</ele>
        <time>2021-10-08T11:32:20Z</time>
      </trkpt>
      <trkpt lat="44.84372" lon="5.38621">
        <ele>1396</ele>
        <time>2021-10-08T11:34:26Z</time>
      </trkpt>
      <trkpt lat="44.84371" lon="5.38622">
        <ele>1396</ele>
        <time>2021-10-08T11:34:27Z</time>
      </trkpt>
      <trkpt lat="44.84369" lon="5.38623">
        <ele>1396</ele>
        <time>2021-10-08T11:34:28Z</time>
      </trkpt>
      <trkpt lat="44.84368" lon="5.38625">
        <ele>1396</ele>
        <time>2021-10-08T11:34:29Z</time>
      </trkpt>
      <trkpt lat="44.84367" lon="5.38626">
        <ele>1396.4</ele>
        <time>2021-10-08T11:34:30Z</time>
      </trkpt>
      <trkpt lat="44.84366" lon="5.38628">
        <ele>1396.4</ele>
        <time>2021-10-08T11:34:31Z</time>
      </trkpt>
      <trkpt lat="44.84365" lon="5.38629">
        <ele>1396.4</ele>
        <time>2021-10-08T11:34:32Z</time>
      </trkpt>
      <trkpt lat="44.84363" lon="5.3863">
        <ele>1397.2</ele>
        <time>2021-10-08T11:34:33Z</time>
      </trkpt>
      <trkpt lat="44.84362" lon="5.38631">
        <ele>1397.6</ele>
        <time>2021-10-08T11:34:34Z</time>
      </trkpt>
      <trkpt lat="44.8436" lon="5.38632">
        <ele>1397.6</ele>
        <time>2021-10-08T11:34:35Z</time>
      </trkpt>
      <trkpt lat="44.84359" lon="5.38633">
        <ele>1397.6</ele>
        <time>2021-10-08T11:34:36Z</time>
      </trkpt>
      <trkpt lat="44.84357" lon="5.38635">
        <ele>1397.6</ele>
        <time>2021-10-08T11:34:37Z</time>
      </trkpt>
      <trkpt lat="44.84356" lon="5.38636">
        <ele>1397.6</ele>
        <time>2021-10-08T11:34:38Z</time>
      </trkpt>
      <trkpt lat="44.84354" lon="5.38637">
        <ele>1397.6</ele>
        <time>2021-10-08T11:34:39Z</time>
      </trkpt>
      <trkpt lat="44.84353" lon="5.38638">
        <ele>1397.6</ele>
        <time>2021-10-08T11:34:40Z</time>
      </trkpt>
      <trkpt lat="44.84351" lon="5.38639">
        <ele>1398.2</ele>
        <time>2021-10-08T11:34:41Z</time>
      </trkpt>
      <trkpt lat="44.8435" lon="5.38639">
        <ele>1398.2</ele>
        <time>2021-10-08T11:34:42Z</time>
      </trkpt>
      <trkpt lat="44.84348" lon="5.3864">
        <ele>1398.2</ele>
        <time>2021-10-08T11:34:43Z</time>
      </trkpt>
      <trkpt lat="44.84347" lon="5.38641">
        <ele>1398.2</ele>
        <time>2021-10-08T11:34:44Z</time>
      </trkpt>
      <trkpt lat="44.84345" lon="5.38642">
        <ele>1399</ele>
        <time>2021-10-08T11:34:45Z</time>
      </trkpt>
      <trkpt lat="44.84343" lon="5.38642">
        <ele>1399</ele>
        <time>2021-10-08T11:34:46Z</time>
      </trkpt>
      <trkpt lat="44.84342" lon="5.38643">
        <ele>1399</ele>
        <time>2021-10-08T11:34:47Z</time>
      </trkpt>
      <trkpt lat="44.84341" lon="5.38644">
        <ele>1399</ele>
        <time>2021-10-08T11:34:48Z</time>
      </trkpt>
      <trkpt lat="44.84339" lon="5.38644">
        <ele>1399</ele>
        <time>2021-10-08T11:34:49Z</time>
      </trkpt>
      <trkpt lat="44.84338" lon="5.38645">
        <ele>1399.8</ele>
        <time>2021-10-08T11:34:50Z</time>
      </trkpt>
      <trkpt lat="44.84336" lon="5.38645">
        <ele>1399.8</ele>
        <time>2021-10-08T11:34:51Z</time>
      </trkpt>
      <trkpt lat="44.84335" lon="5.38646">
        <ele>1399.8</ele>
        <time>2021-10-08T11:34:52Z</time>
      </trkpt>
      <trkpt lat="44.84333" lon="5.38646">
        <ele>1400.8</ele>
        <time>2021-10-08T11:34:53Z</time>
      </trkpt>
      <trkpt lat="44.84332" lon="5.38647">
        <ele>1400.2</ele>
        <time>2021-10-08T11:34:54Z</time>
      </trkpt>
      <trkpt lat="44.84331" lon="5.38647">
        <ele>1400.2</ele>
        <time>2021-10-08T11:34:55Z</time>
      </trkpt>
      <trkpt lat="44.84329" lon="5.38647">
        <ele>1400.2</ele>
        <time>2021-10-08T11:34:56Z</time>
      </trkpt>
      <trkpt lat="44.84328" lon="5.38647">
        <ele>1401</ele>
        <time>2021-10-08T11:34:57Z</time>
      </trkpt>
      <trkpt lat="44.84326" lon="5.38648">
        <ele>1401</ele>
        <time>2021-10-08T11:34:58Z</time>
      </trkpt>
      <trkpt lat="44.84325" lon="5.38648">
        <ele>1401</ele>
        <time>2021-10-08T11:34:59Z</time>
      </trkpt>
      <trkpt lat="44.84323" lon="5.38649">
        <ele>1401</ele>
        <time>2021-10-08T11:35:00Z</time>
      </trkpt>
      <trkpt lat="44.84322" lon="5.38649">
        <ele>1401.6</ele>
        <time>2021-10-08T11:35:01Z</time>
      </trkpt>
      <trkpt lat="44.84321" lon="5.3865">
        <ele>1401.4</ele>
        <time>2021-10-08T11:35:02Z</time>
      </trkpt>
      <trkpt lat="44.84319" lon="5.38651">
        <ele>1401.4</ele>
        <time>2021-10-08T11:35:03Z</time>
      </trkpt>
      <trkpt lat="44.84318" lon="5.38651">
        <ele>1401.4</ele>
        <time>2021-10-08T11:35:04Z</time>
      </trkpt>
      <trkpt lat="44.84316" lon="5.38652">
        <ele>1402.2</ele>
        <time>2021-10-08T11:35:05Z</time>
      </trkpt>
      <trkpt lat="44.84315" lon="5.38653">
        <ele>1402.2</ele>
        <time>2021-10-08T11:35:06Z</time>
      </trkpt>
      <trkpt lat="44.84313" lon="5.38654">
        <ele>1402.2</ele>
        <time>2021-10-08T11:35:07Z</time>
      </trkpt>
      <trkpt lat="44.84312" lon="5.38655">
        <ele>1402.2</ele>
        <time>2021-10-08T11:35:08Z</time>
      </trkpt>
      <trkpt lat="44.8431" lon="5.38655">
        <ele>1402.2</ele>
        <time>2021-10-08T11:35:09Z</time>
      </trkpt>
      <trkpt lat="44.84309" lon="5.38656">
        <ele>1403</ele>
        <time>2021-10-08T11:35:10Z</time>
      </trkpt>
      <trkpt lat="44.84308" lon="5.38657">
        <ele>1403</ele>
        <time>2021-10-08T11:35:11Z</time>
      </trkpt>
      <trkpt lat="44.84306" lon="5.38658">
        <ele>1403</ele>
        <time>2021-10-08T11:35:12Z</time>
      </trkpt>
      <trkpt lat="44.84305" lon="5.38659">
        <ele>1403.4</ele>
        <time>2021-10-08T11:35:13Z</time>
      </trkpt>
      <trkpt lat="44.84304" lon="5.38659">
        <ele>1403.4</ele>
        <time>2021-10-08T11:35:14Z</time>
      </trkpt>
      <trkpt lat="44.84302" lon="5.3866">
        <ele>1403.4</ele>
        <time>2021-10-08T11:35:15Z</time>
      </trkpt>
      <trkpt lat="44.84301" lon="5.38661">
        <ele>1403.4</ele>
        <time>2021-10-08T11:35:16Z</time>
      </trkpt>
      <trkpt lat="44.84299" lon="5.38661">
        <ele>1404.4</ele>
        <time>2021-10-08T11:35:17Z</time>
      </trkpt>
      <trkpt lat="44.84298" lon="5.38662">
        <ele>1404.2</ele>
        <time>2021-10-08T11:35:18Z</time>
      </trkpt>
      <trkpt lat="44.84296" lon="5.38662">
        <ele>1404.2</ele>
        <time>2021-10-08T11:35:19Z</time>
      </trkpt>
      <trkpt lat="44.84295" lon="5.38663">
        <ele>1404.2</ele>
        <time>2021-10-08T11:35:20Z</time>
      </trkpt>
      <trkpt lat="44.84294" lon="5.38663">
        <ele>1404.2</ele>
        <time>2021-10-08T11:35:21Z</time>
      </trkpt>
      <trkpt lat="44.84292" lon="5.38663">
        <ele>1404.8</ele>
        <time>2021-10-08T11:35:22Z</time>
      </trkpt>
      <trkpt lat="44.84291" lon="5.38664">
        <ele>1404.8</ele>
        <time>2021-10-08T11:35:23Z</time>
      </trkpt>
      <trkpt lat="44.8429" lon="5.38665">
        <ele>1404.8</ele>
        <time>2021-10-08T11:35:24Z</time>
      </trkpt>
      <trkpt lat="44.84288" lon="5.38665">
        <ele>1405.8</ele>
        <time>2021-10-08T11:35:25Z</time>
      </trkpt>
      <trkpt lat="44.84287" lon="5.38666">
        <ele>1406.4</ele>
        <time>2021-10-08T11:35:26Z</time>
      </trkpt>
      <trkpt lat="44.84286" lon="5.38666">
        <ele>1406.4</ele>
        <time>2021-10-08T11:35:27Z</time>
      </trkpt>
      <trkpt lat="44.84285" lon="5.38666">
        <ele>1406.4</ele>
        <time>2021-10-08T11:35:28Z</time>
      </trkpt>
      <trkpt lat="44.84283" lon="5.38667">
        <ele>1407</ele>
        <time>2021-10-08T11:35:29Z</time>
      </trkpt>
      <trkpt lat="44.84282" lon="5.38668">
        <ele>1407.4</ele>
        <time>2021-10-08T11:35:30Z</time>
      </trkpt>
      <trkpt lat="44.84281" lon="5.38669">
        <ele>1407.4</ele>
        <time>2021-10-08T11:35:31Z</time>
      </trkpt>
      <trkpt lat="44.8428" lon="5.38671">
        <ele>1407.4</ele>
        <time>2021-10-08T11:35:32Z</time>
      </trkpt>
      <trkpt lat="44.84279" lon="5.38672">
        <ele>1408.4</ele>
        <time>2021-10-08T11:35:33Z</time>
      </trkpt>
      <trkpt lat="44.84278" lon="5.38673">
        <ele>1408.4</ele>
        <time>2021-10-08T11:35:34Z</time>
      </trkpt>
      <trkpt lat="44.84277" lon="5.38675">
        <ele>1408.4</ele>
        <time>2021-10-08T11:35:35Z</time>
      </trkpt>
      <trkpt lat="44.84276" lon="5.38676">
        <ele>1408.4</ele>
        <time>2021-10-08T11:35:36Z</time>
      </trkpt>
      <trkpt lat="44.84275" lon="5.38676">
        <ele>1409.4</ele>
        <time>2021-10-08T11:35:37Z</time>
      </trkpt>
      <trkpt lat="44.84274" lon="5.38677">
        <ele>1409.8</ele>
        <time>2021-10-08T11:35:38Z</time>
      </trkpt>
      <trkpt lat="44.84273" lon="5.38677">
        <ele>1409.8</ele>
        <time>2021-10-08T11:35:39Z</time>
      </trkpt>
      <trkpt lat="44.84272" lon="5.38678">
        <ele>1409.8</ele>
        <time>2021-10-08T11:35:40Z</time>
      </trkpt>
      <trkpt lat="44.84271" lon="5.38679">
        <ele>1409.8</ele>
        <time>2021-10-08T11:35:41Z</time>
      </trkpt>
      <trkpt lat="44.8427" lon="5.3868">
        <ele>1410</ele>
        <time>2021-10-08T11:35:42Z</time>
      </trkpt>
      <trkpt lat="44.84268" lon="5.38681">
        <ele>1410</ele>
        <time>2021-10-08T11:35:43Z</time>
      </trkpt>
      <trkpt lat="44.84267" lon="5.38682">
        <ele>1410</ele>
        <time>2021-10-08T11:35:44Z</time>
      </trkpt>
      <trkpt lat="44.84266" lon="5.38683">
        <ele>1410.4</ele>
        <time>2021-10-08T11:35:45Z</time>
      </trkpt>
      <trkpt lat="44.84265" lon="5.38684">
        <ele>1410.6</ele>
        <time>2021-10-08T11:35:46Z</time>
      </trkpt>
      <trkpt lat="44.84264" lon="5.38685">
        <ele>1410.6</ele>
        <time>2021-10-08T11:35:47Z</time>
      </trkpt>
      <trkpt lat="44.84263" lon="5.38686">
        <ele>1410.6</ele>
        <time>2021-10-08T11:35:48Z</time>
      </trkpt>
      <trkpt lat="44.84262" lon="5.38687">
        <ele>1411.4</ele>
        <time>2021-10-08T11:35:49Z</time>
      </trkpt>
      <trkpt lat="44.8426" lon="5.38688">
        <ele>1411.6</ele>
        <time>2021-10-08T11:35:50Z</time>
      </trkpt>
      <trkpt lat="44.84259" lon="5.38689">
        <ele>1411.6</ele>
        <time>2021-10-08T11:35:51Z</time>
      </trkpt>
      <trkpt lat="44.84258" lon="5.3869">
        <ele>1411.6</ele>
        <time>2021-10-08T11:35:52Z</time>
      </trkpt>
      <trkpt lat="44.84257" lon="5.3869">
        <ele>1411.4</ele>
        <time>2021-10-08T11:35:53Z</time>
      </trkpt>
      <trkpt lat="44.84256" lon="5.38691">
        <ele>1412</ele>
        <time>2021-10-08T11:35:54Z</time>
      </trkpt>
      <trkpt lat="44.84254" lon="5.38692">
        <ele>1412</ele>
        <time>2021-10-08T11:35:55Z</time>
      </trkpt>
      <trkpt lat="44.84253" lon="5.38694">
        <ele>1412</ele>
        <time>2021-10-08T11:35:56Z</time>
      </trkpt>
      <trkpt lat="44.84252" lon="5.38694">
        <ele>1412.4</ele>
        <time>2021-10-08T11:35:57Z</time>
      </trkpt>
      <trkpt lat="44.84251" lon="5.38696">
        <ele>1412.4</ele>
        <time>2021-10-08T11:35:58Z</time>
      </trkpt>
      <trkpt lat="44.8425" lon="5.38696">
        <ele>1412.4</ele>
        <time>2021-10-08T11:35:59Z</time>
      </trkpt>
      <trkpt lat="44.84248" lon="5.38697">
        <ele>1412.4</ele>
        <time>2021-10-08T11:36:00Z</time>
      </trkpt>
      <trkpt lat="44.84247" lon="5.38699">
        <ele>1412.4</ele>
        <time>2021-10-08T11:36:01Z</time>
      </trkpt>
      <trkpt lat="44.84246" lon="5.38699">
        <ele>1412.8</ele>
        <time>2021-10-08T11:36:02Z</time>
      </trkpt>
      <trkpt lat="44.84245" lon="5.387">
        <ele>1412.8</ele>
        <time>2021-10-08T11:36:03Z</time>
      </trkpt>
      <trkpt lat="44.84244" lon="5.38702">
        <ele>1412.8</ele>
        <time>2021-10-08T11:36:04Z</time>
      </trkpt>
      <trkpt lat="44.84242" lon="5.38702">
        <ele>1412.8</ele>
        <time>2021-10-08T11:36:05Z</time>
      </trkpt>
      <trkpt lat="44.84241" lon="5.38703">
        <ele>1413</ele>
        <time>2021-10-08T11:36:06Z</time>
      </trkpt>
      <trkpt lat="44.8424" lon="5.38704">
        <ele>1413</ele>
        <time>2021-10-08T11:36:07Z</time>
      </trkpt>
      <trkpt lat="44.84239" lon="5.38705">
        <ele>1413</ele>
        <time>2021-10-08T11:36:08Z</time>
      </trkpt>
      <trkpt lat="44.84238" lon="5.38706">
        <ele>1413.8</ele>
        <time>2021-10-08T11:36:09Z</time>
      </trkpt>
      <trkpt lat="44.84237" lon="5.38707">
        <ele>1414</ele>
        <time>2021-10-08T11:36:10Z</time>
      </trkpt>
      <trkpt lat="44.84236" lon="5.38709">
        <ele>1414</ele>
        <time>2021-10-08T11:36:11Z</time>
      </trkpt>
      <trkpt lat="44.84235" lon="5.3871">
        <ele>1414</ele>
        <time>2021-10-08T11:36:12Z</time>
      </trkpt>
      <trkpt lat="44.84234" lon="5.3871">
        <ele>1414.2</ele>
        <time>2021-10-08T11:36:13Z</time>
      </trkpt>
      <trkpt lat="44.84233" lon="5.38711">
        <ele>1414.2</ele>
        <time>2021-10-08T11:36:14Z</time>
      </trkpt>
      <trkpt lat="44.84233" lon="5.38712">
        <ele>1413.8</ele>
        <time>2021-10-08T11:36:15Z</time>
      </trkpt>
      <trkpt lat="44.84232" lon="5.38713">
        <ele>1413.8</ele>
        <time>2021-10-08T11:36:16Z</time>
      </trkpt>
      <trkpt lat="44.84232" lon="5.38715">
        <ele>1414.4</ele>
        <time>2021-10-08T11:36:17Z</time>
      </trkpt>
      <trkpt lat="44.84232" lon="5.38716">
        <ele>1414.4</ele>
        <time>2021-10-08T11:36:18Z</time>
      </trkpt>
      <trkpt lat="44.84231" lon="5.38718">
        <ele>1414.4</ele>
        <time>2021-10-08T11:36:19Z</time>
      </trkpt>
      <trkpt lat="44.84231" lon="5.38718">
        <ele>1414.4</ele>
        <time>2021-10-08T11:36:20Z</time>
      </trkpt>
      <trkpt lat="44.84231" lon="5.38718">
        <ele>1414.8</ele>
        <time>2021-10-08T11:36:29Z</time>
      </trkpt>
      <trkpt lat="44.84231" lon="5.38718">
        <ele>1414.6</ele>
        <time>2021-10-08T11:36:30Z</time>
      </trkpt>
      <trkpt lat="44.84231" lon="5.38718">
        <ele>1414.6</ele>
        <time>2021-10-08T11:36:31Z</time>
      </trkpt>
      <trkpt lat="44.84227" lon="5.38723">
        <ele>1413.8</ele>
        <time>2021-10-08T11:37:45Z</time>
      </trkpt>
      <trkpt lat="44.84225" lon="5.38725">
        <ele>1413.2</ele>
        <time>2021-10-08T11:37:46Z</time>
      </trkpt>
      <trkpt lat="44.84223" lon="5.38728">
        <ele>1413.2</ele>
        <time>2021-10-08T11:37:47Z</time>
      </trkpt>
      <trkpt lat="44.84221" lon="5.38729">
        <ele>1413.2</ele>
        <time>2021-10-08T11:37:48Z</time>
      </trkpt>
      <trkpt lat="44.84219" lon="5.38731">
        <ele>1412.2</ele>
        <time>2021-10-08T11:37:49Z</time>
      </trkpt>
      <trkpt lat="44.84218" lon="5.38731">
        <ele>1411.8</ele>
        <time>2021-10-08T11:37:50Z</time>
      </trkpt>
      <trkpt lat="44.84216" lon="5.38731">
        <ele>1411.8</ele>
        <time>2021-10-08T11:37:51Z</time>
      </trkpt>
      <trkpt lat="44.84215" lon="5.38731">
        <ele>1411.8</ele>
        <time>2021-10-08T11:37:52Z</time>
      </trkpt>
      <trkpt lat="44.84214" lon="5.38731">
        <ele>1411.8</ele>
        <time>2021-10-08T11:37:53Z</time>
      </trkpt>
      <trkpt lat="44.84214" lon="5.38732">
        <ele>1411.6</ele>
        <time>2021-10-08T11:37:54Z</time>
      </trkpt>
      <trkpt lat="44.84214" lon="5.38732">
        <ele>1411.6</ele>
        <time>2021-10-08T11:37:55Z</time>
      </trkpt>
      <trkpt lat="44.84214" lon="5.38732">
        <ele>1411.6</ele>
        <time>2021-10-08T11:37:56Z</time>
      </trkpt>
      <trkpt lat="44.84208" lon="5.3873">
        <ele>1411.2</ele>
        <time>2021-10-08T11:38:33Z</time>
      </trkpt>
      <trkpt lat="44.84205" lon="5.3873">
        <ele>1410.6</ele>
        <time>2021-10-08T11:38:34Z</time>
      </trkpt>
      <trkpt lat="44.84202" lon="5.3873">
        <ele>1410.6</ele>
        <time>2021-10-08T11:38:35Z</time>
      </trkpt>
      <trkpt lat="44.84199" lon="5.3873">
        <ele>1410.6</ele>
        <time>2021-10-08T11:38:36Z</time>
      </trkpt>
      <trkpt lat="44.84197" lon="5.38729">
        <ele>1409.6</ele>
        <time>2021-10-08T11:38:37Z</time>
      </trkpt>
      <trkpt lat="44.84194" lon="5.38729">
        <ele>1409.2</ele>
        <time>2021-10-08T11:38:38Z</time>
      </trkpt>
      <trkpt lat="44.84192" lon="5.38728">
        <ele>1409.2</ele>
        <time>2021-10-08T11:38:39Z</time>
      </trkpt>
      <trkpt lat="44.8419" lon="5.38729">
        <ele>1409.2</ele>
        <time>2021-10-08T11:38:40Z</time>
      </trkpt>
      <trkpt lat="44.84191" lon="5.38732">
        <ele>1409.2</ele>
        <time>2021-10-08T11:38:41Z</time>
      </trkpt>
      <trkpt lat="44.84192" lon="5.38734">
        <ele>1407.6</ele>
        <time>2021-10-08T11:38:42Z</time>
      </trkpt>
      <trkpt lat="44.84195" lon="5.38735">
        <ele>1407.6</ele>
        <time>2021-10-08T11:38:43Z</time>
      </trkpt>
      <trkpt lat="44.84197" lon="5.38738">
        <ele>1407.6</ele>
        <time>2021-10-08T11:38:44Z</time>
      </trkpt>
      <trkpt lat="44.842" lon="5.38741">
        <ele>1406.6</ele>
        <time>2021-10-08T11:38:45Z</time>
      </trkpt>
      <trkpt lat="44.84202" lon="5.38745">
        <ele>1406.2</ele>
        <time>2021-10-08T11:38:46Z</time>
      </trkpt>
      <trkpt lat="44.84205" lon="5.38747">
        <ele>1406.2</ele>
        <time>2021-10-08T11:38:47Z</time>
      </trkpt>
      <trkpt lat="44.84206" lon="5.38749">
        <ele>1406.2</ele>
        <time>2021-10-08T11:38:48Z</time>
      </trkpt>
      <trkpt lat="44.84207" lon="5.38751">
        <ele>1406.2</ele>
        <time>2021-10-08T11:38:49Z</time>
      </trkpt>
      <trkpt lat="44.84208" lon="5.38752">
        <ele>1405.8</ele>
        <time>2021-10-08T11:38:50Z</time>
      </trkpt>
      <trkpt lat="44.84209" lon="5.38755">
        <ele>1405.8</ele>
        <time>2021-10-08T11:38:51Z</time>
      </trkpt>
      <trkpt lat="44.84208" lon="5.38756">
        <ele>1405.8</ele>
        <time>2021-10-08T11:38:52Z</time>
      </trkpt>
      <trkpt lat="44.84206" lon="5.38756">
        <ele>1405.8</ele>
        <time>2021-10-08T11:38:53Z</time>
      </trkpt>
      <trkpt lat="44.84204" lon="5.38756">
        <ele>1405.8</ele>
        <time>2021-10-08T11:38:54Z</time>
      </trkpt>
      <trkpt lat="44.84202" lon="5.38755">
        <ele>1405</ele>
        <time>2021-10-08T11:38:55Z</time>
      </trkpt>
      <trkpt lat="44.84199" lon="5.38753">
        <ele>1405</ele>
        <time>2021-10-08T11:38:56Z</time>
      </trkpt>
      <trkpt lat="44.84196" lon="5.38752">
        <ele>1405</ele>
        <time>2021-10-08T11:38:57Z</time>
      </trkpt>
      <trkpt lat="44.84193" lon="5.38751">
        <ele>1403.6</ele>
        <time>2021-10-08T11:38:58Z</time>
      </trkpt>
      <trkpt lat="44.84189" lon="5.3875">
        <ele>1403.6</ele>
        <time>2021-10-08T11:38:59Z</time>
      </trkpt>
      <trkpt lat="44.84185" lon="5.38749">
        <ele>1403.6</ele>
        <time>2021-10-08T11:39:00Z</time>
      </trkpt>
      <trkpt lat="44.84181" lon="5.38747">
        <ele>1403.6</ele>
        <time>2021-10-08T11:39:01Z</time>
      </trkpt>
      <trkpt lat="44.84177" lon="5.38746">
        <ele>1402.4</ele>
        <time>2021-10-08T11:39:02Z</time>
      </trkpt>
      <trkpt lat="44.84173" lon="5.38744">
        <ele>1402.4</ele>
        <time>2021-10-08T11:39:03Z</time>
      </trkpt>
      <trkpt lat="44.84168" lon="5.38743">
        <ele>1402.4</ele>
        <time>2021-10-08T11:39:04Z</time>
      </trkpt>
      <trkpt lat="44.84164" lon="5.38741">
        <ele>1401.4</ele>
        <time>2021-10-08T11:39:05Z</time>
      </trkpt>
      <trkpt lat="44.84159" lon="5.38739">
        <ele>1400.8</ele>
        <time>2021-10-08T11:39:06Z</time>
      </trkpt>
      <trkpt lat="44.84155" lon="5.38737">
        <ele>1400.8</ele>
        <time>2021-10-08T11:39:07Z</time>
      </trkpt>
      <trkpt lat="44.84151" lon="5.38735">
        <ele>1400.8</ele>
        <time>2021-10-08T11:39:08Z</time>
      </trkpt>
      <trkpt lat="44.84147" lon="5.38733">
        <ele>1399.8</ele>
        <time>2021-10-08T11:39:09Z</time>
      </trkpt>
      <trkpt lat="44.84143" lon="5.3873">
        <ele>1397.6</ele>
        <time>2021-10-08T11:39:10Z</time>
      </trkpt>
      <trkpt lat="44.84138" lon="5.38727">
        <ele>1397.6</ele>
        <time>2021-10-08T11:39:11Z</time>
      </trkpt>
      <trkpt lat="44.84133" lon="5.38725">
        <ele>1397.6</ele>
        <time>2021-10-08T11:39:12Z</time>
      </trkpt>
      <trkpt lat="44.84129" lon="5.38722">
        <ele>1397.6</ele>
        <time>2021-10-08T11:39:13Z</time>
      </trkpt>
      <trkpt lat="44.84124" lon="5.38719">
        <ele>1396.8</ele>
        <time>2021-10-08T11:39:14Z</time>
      </trkpt>
      <trkpt lat="44.84119" lon="5.38717">
        <ele>1396.8</ele>
        <time>2021-10-08T11:39:15Z</time>
      </trkpt>
      <trkpt lat="44.84114" lon="5.38715">
        <ele>1396.8</ele>
        <time>2021-10-08T11:39:16Z</time>
      </trkpt>
      <trkpt lat="44.8411" lon="5.38712">
        <ele>1395.8</ele>
        <time>2021-10-08T11:39:17Z</time>
      </trkpt>
      <trkpt lat="44.84105" lon="5.38709">
        <ele>1393.4</ele>
        <time>2021-10-08T11:39:18Z</time>
      </trkpt>
      <trkpt lat="44.84101" lon="5.38707">
        <ele>1393.4</ele>
        <time>2021-10-08T11:39:19Z</time>
      </trkpt>
      <trkpt lat="44.84097" lon="5.38704">
        <ele>1393.4</ele>
        <time>2021-10-08T11:39:20Z</time>
      </trkpt>
      <trkpt lat="44.84092" lon="5.38701">
        <ele>1392.4</ele>
        <time>2021-10-08T11:39:21Z</time>
      </trkpt>
      <trkpt lat="44.84087" lon="5.38698">
        <ele>1391.4</ele>
        <time>2021-10-08T11:39:22Z</time>
      </trkpt>
      <trkpt lat="44.84083" lon="5.38694">
        <ele>1391.4</ele>
        <time>2021-10-08T11:39:23Z</time>
      </trkpt>
      <trkpt lat="44.84077" lon="5.3869">
        <ele>1391.4</ele>
        <time>2021-10-08T11:39:24Z</time>
      </trkpt>
      <trkpt lat="44.84072" lon="5.38687">
        <ele>1390.4</ele>
        <time>2021-10-08T11:39:25Z</time>
      </trkpt>
      <trkpt lat="44.84067" lon="5.38685">
        <ele>1384.8</ele>
        <time>2021-10-08T11:39:26Z</time>
      </trkpt>
      <trkpt lat="44.84062" lon="5.38684">
        <ele>1384.8</ele>
        <time>2021-10-08T11:39:27Z</time>
      </trkpt>
      <trkpt lat="44.84058" lon="5.38684">
        <ele>1384.8</ele>
        <time>2021-10-08T11:39:28Z</time>
      </trkpt>
      <trkpt lat="44.84053" lon="5.38685">
        <ele>1384.8</ele>
        <time>2021-10-08T11:39:29Z</time>
      </trkpt>
      <trkpt lat="44.84049" lon="5.38686">
        <ele>1382.8</ele>
        <time>2021-10-08T11:39:30Z</time>
      </trkpt>
      <trkpt lat="44.84045" lon="5.38688">
        <ele>1382.8</ele>
        <time>2021-10-08T11:39:31Z</time>
      </trkpt>
      <trkpt lat="44.84041" lon="5.3869">
        <ele>1382.8</ele>
        <time>2021-10-08T11:39:32Z</time>
      </trkpt>
      <trkpt lat="44.84037" lon="5.38693">
        <ele>1381.8</ele>
        <time>2021-10-08T11:39:33Z</time>
      </trkpt>
      <trkpt lat="44.84034" lon="5.38696">
        <ele>1380.6</ele>
        <time>2021-10-08T11:39:34Z</time>
      </trkpt>
      <trkpt lat="44.8403" lon="5.38699">
        <ele>1380.6</ele>
        <time>2021-10-08T11:39:35Z</time>
      </trkpt>
      <trkpt lat="44.84026" lon="5.38704">
        <ele>1380.6</ele>
        <time>2021-10-08T11:39:36Z</time>
      </trkpt>
      <trkpt lat="44.84022" lon="5.38709">
        <ele>1379.6</ele>
        <time>2021-10-08T11:39:37Z</time>
      </trkpt>
      <trkpt lat="44.84018" lon="5.38715">
        <ele>1374</ele>
        <time>2021-10-08T11:39:38Z</time>
      </trkpt>
      <trkpt lat="44.84014" lon="5.38721">
        <ele>1374</ele>
        <time>2021-10-08T11:39:39Z</time>
      </trkpt>
      <trkpt lat="44.8401" lon="5.38727">
        <ele>1374</ele>
        <time>2021-10-08T11:39:40Z</time>
      </trkpt>
      <trkpt lat="44.84007" lon="5.38732">
        <ele>1374</ele>
        <time>2021-10-08T11:39:41Z</time>
      </trkpt>
      <trkpt lat="44.84004" lon="5.38735">
        <ele>1374</ele>
        <time>2021-10-08T11:39:42Z</time>
      </trkpt>
      <trkpt lat="44.84001" lon="5.38736">
        <ele>1372.6</ele>
        <time>2021-10-08T11:39:43Z</time>
      </trkpt>
      <trkpt lat="44.83996" lon="5.38737">
        <ele>1372.6</ele>
        <time>2021-10-08T11:39:44Z</time>
      </trkpt>
      <trkpt lat="44.83992" lon="5.38735">
        <ele>1372.6</ele>
        <time>2021-10-08T11:39:45Z</time>
      </trkpt>
      <trkpt lat="44.83987" lon="5.38733">
        <ele>1369.4</ele>
        <time>2021-10-08T11:39:46Z</time>
      </trkpt>
      <trkpt lat="44.83982" lon="5.3873">
        <ele>1369.4</ele>
        <time>2021-10-08T11:39:47Z</time>
      </trkpt>
      <trkpt lat="44.83977" lon="5.38726">
        <ele>1369.4</ele>
        <time>2021-10-08T11:39:48Z</time>
      </trkpt>
      <trkpt lat="44.83972" lon="5.38723">
        <ele>1369.4</ele>
        <time>2021-10-08T11:39:49Z</time>
      </trkpt>
      <trkpt lat="44.83966" lon="5.38719">
        <ele>1369.6</ele>
        <time>2021-10-08T11:39:50Z</time>
      </trkpt>
      <trkpt lat="44.83961" lon="5.38716">
        <ele>1369.6</ele>
        <time>2021-10-08T11:39:51Z</time>
      </trkpt>
      <trkpt lat="44.83955" lon="5.38712">
        <ele>1369.6</ele>
        <time>2021-10-08T11:39:52Z</time>
      </trkpt>
      <trkpt lat="44.8395" lon="5.38708">
        <ele>1369.4</ele>
        <time>2021-10-08T11:39:53Z</time>
      </trkpt>
      <trkpt lat="44.83945" lon="5.38705">
        <ele>1368.6</ele>
        <time>2021-10-08T11:39:54Z</time>
      </trkpt>
      <trkpt lat="44.83941" lon="5.38701">
        <ele>1368.6</ele>
        <time>2021-10-08T11:39:55Z</time>
      </trkpt>
      <trkpt lat="44.83938" lon="5.38699">
        <ele>1368.6</ele>
        <time>2021-10-08T11:39:56Z</time>
      </trkpt>
      <trkpt lat="44.83936" lon="5.38698">
        <ele>1369.6</ele>
        <time>2021-10-08T11:39:57Z</time>
      </trkpt>
      <trkpt lat="44.83936" lon="5.38697">
        <ele>1369.8</ele>
        <time>2021-10-08T11:39:58Z</time>
      </trkpt>
      <trkpt lat="44.83936" lon="5.38696">
        <ele>1369.8</ele>
        <time>2021-10-08T11:39:59Z</time>
      </trkpt>
      <trkpt lat="44.83935" lon="5.38697">
        <ele>1369.2</ele>
        <time>2021-10-08T11:40:11Z</time>
      </trkpt>
      <trkpt lat="44.83933" lon="5.38698">
        <ele>1369.2</ele>
        <time>2021-10-08T11:40:12Z</time>
      </trkpt>
      <trkpt lat="44.83931" lon="5.38699">
        <ele>1369.2</ele>
        <time>2021-10-08T11:40:13Z</time>
      </trkpt>
      <trkpt lat="44.83929" lon="5.38701">
        <ele>1368.4</ele>
        <time>2021-10-08T11:40:14Z</time>
      </trkpt>
      <trkpt lat="44.83926" lon="5.38704">
        <ele>1368.4</ele>
        <time>2021-10-08T11:40:15Z</time>
      </trkpt>
      <trkpt lat="44.83924" lon="5.38706">
        <ele>1368.4</ele>
        <time>2021-10-08T11:40:16Z</time>
      </trkpt>
      <trkpt lat="44.83921" lon="5.38708">
        <ele>1368.4</ele>
        <time>2021-10-08T11:40:17Z</time>
      </trkpt>
      <trkpt lat="44.83918" lon="5.38711">
        <ele>1367.6</ele>
        <time>2021-10-08T11:40:18Z</time>
      </trkpt>
      <trkpt lat="44.83916" lon="5.38715">
        <ele>1367.6</ele>
        <time>2021-10-08T11:40:19Z</time>
      </trkpt>
      <trkpt lat="44.83914" lon="5.38719">
        <ele>1367.6</ele>
        <time>2021-10-08T11:40:20Z</time>
      </trkpt>
      <trkpt lat="44.83912" lon="5.38724">
        <ele>1366.6</ele>
        <time>2021-10-08T11:40:21Z</time>
      </trkpt>
      <trkpt lat="44.8391" lon="5.38729">
        <ele>1366.2</ele>
        <time>2021-10-08T11:40:22Z</time>
      </trkpt>
      <trkpt lat="44.83907" lon="5.38733">
        <ele>1366.2</ele>
        <time>2021-10-08T11:40:23Z</time>
      </trkpt>
      <trkpt lat="44.83904" lon="5.38737">
        <ele>1366.2</ele>
        <time>2021-10-08T11:40:24Z</time>
      </trkpt>
      <trkpt lat="44.83901" lon="5.3874">
        <ele>1365.4</ele>
        <time>2021-10-08T11:40:25Z</time>
      </trkpt>
      <trkpt lat="44.83896" lon="5.38742">
        <ele>1365.4</ele>
        <time>2021-10-08T11:40:26Z</time>
      </trkpt>
      <trkpt lat="44.83891" lon="5.38743">
        <ele>1365.4</ele>
        <time>2021-10-08T11:40:27Z</time>
      </trkpt>
      <trkpt lat="44.83887" lon="5.38742">
        <ele>1365.4</ele>
        <time>2021-10-08T11:40:28Z</time>
      </trkpt>
      <trkpt lat="44.83883" lon="5.38741">
        <ele>1365.4</ele>
        <time>2021-10-08T11:40:29Z</time>
      </trkpt>
      <trkpt lat="44.83879" lon="5.38741">
        <ele>1363.2</ele>
        <time>2021-10-08T11:40:30Z</time>
      </trkpt>
      <trkpt lat="44.83875" lon="5.38741">
        <ele>1363.2</ele>
        <time>2021-10-08T11:40:31Z</time>
      </trkpt>
      <trkpt lat="44.83872" lon="5.38741">
        <ele>1363.2</ele>
        <time>2021-10-08T11:40:32Z</time>
      </trkpt>
      <trkpt lat="44.8387" lon="5.38741">
        <ele>1363.2</ele>
        <time>2021-10-08T11:40:33Z</time>
      </trkpt>
      <trkpt lat="44.8387" lon="5.38741">
        <ele>1362.6</ele>
        <time>2021-10-08T11:40:34Z</time>
      </trkpt>
      <trkpt lat="44.8387" lon="5.38741">
        <ele>1362.6</ele>
        <time>2021-10-08T11:40:35Z</time>
      </trkpt>
      <trkpt lat="44.8387" lon="5.38741">
        <ele>1362.8</ele>
        <time>2021-10-08T11:40:57Z</time>
      </trkpt>
      <trkpt lat="44.83868" lon="5.38741">
        <ele>1362.4</ele>
        <time>2021-10-08T11:40:58Z</time>
      </trkpt>
      <trkpt lat="44.83865" lon="5.38741">
        <ele>1362.4</ele>
        <time>2021-10-08T11:40:59Z</time>
      </trkpt>
      <trkpt lat="44.83862" lon="5.38741">
        <ele>1362.4</ele>
        <time>2021-10-08T11:41:00Z</time>
      </trkpt>
      <trkpt lat="44.83859" lon="5.3874">
        <ele>1362.2</ele>
        <time>2021-10-08T11:41:01Z</time>
      </trkpt>
      <trkpt lat="44.83855" lon="5.3874">
        <ele>1362.4</ele>
        <time>2021-10-08T11:41:02Z</time>
      </trkpt>
      <trkpt lat="44.83851" lon="5.38739">
        <ele>1362.4</ele>
        <time>2021-10-08T11:41:03Z</time>
      </trkpt>
      <trkpt lat="44.83847" lon="5.38739">
        <ele>1362.4</ele>
        <time>2021-10-08T11:41:04Z</time>
      </trkpt>
      <trkpt lat="44.83842" lon="5.38738">
        <ele>1361.4</ele>
        <time>2021-10-08T11:41:05Z</time>
      </trkpt>
      <trkpt lat="44.83837" lon="5.38738">
        <ele>1359.6</ele>
        <time>2021-10-08T11:41:06Z</time>
      </trkpt>
      <trkpt lat="44.83832" lon="5.38738">
        <ele>1359.6</ele>
        <time>2021-10-08T11:41:07Z</time>
      </trkpt>
      <trkpt lat="44.83826" lon="5.38738">
        <ele>1359.6</ele>
        <time>2021-10-08T11:41:08Z</time>
      </trkpt>
      <trkpt lat="44.8382" lon="5.38737">
        <ele>1358.6</ele>
        <time>2021-10-08T11:41:09Z</time>
      </trkpt>
      <trkpt lat="44.83814" lon="5.38737">
        <ele>1358.2</ele>
        <time>2021-10-08T11:41:10Z</time>
      </trkpt>
      <trkpt lat="44.83807" lon="5.38737">
        <ele>1358.2</ele>
        <time>2021-10-08T11:41:11Z</time>
      </trkpt>
      <trkpt lat="44.838" lon="5.38737">
        <ele>1358.2</ele>
        <time>2021-10-08T11:41:12Z</time>
      </trkpt>
      <trkpt lat="44.83793" lon="5.38737">
        <ele>1357.2</ele>
        <time>2021-10-08T11:41:13Z</time>
      </trkpt>
      <trkpt lat="44.83786" lon="5.38737">
        <ele>1355</ele>
        <time>2021-10-08T11:41:14Z</time>
      </trkpt>
      <trkpt lat="44.83778" lon="5.38737">
        <ele>1355</ele>
        <time>2021-10-08T11:41:15Z</time>
      </trkpt>
      <trkpt lat="44.83771" lon="5.38737">
        <ele>1355</ele>
        <time>2021-10-08T11:41:16Z</time>
      </trkpt>
      <trkpt lat="44.83763" lon="5.38736">
        <ele>1355</ele>
        <time>2021-10-08T11:41:17Z</time>
      </trkpt>
      <trkpt lat="44.83755" lon="5.38736">
        <ele>1352</ele>
        <time>2021-10-08T11:41:18Z</time>
      </trkpt>
      <trkpt lat="44.83748" lon="5.38736">
        <ele>1352</ele>
        <time>2021-10-08T11:41:19Z</time>
      </trkpt>
      <trkpt lat="44.8374" lon="5.38736">
        <ele>1352</ele>
        <time>2021-10-08T11:41:20Z</time>
      </trkpt>
      <trkpt lat="44.83732" lon="5.38736">
        <ele>1352</ele>
        <time>2021-10-08T11:41:21Z</time>
      </trkpt>
      <trkpt lat="44.83725" lon="5.38737">
        <ele>1352</ele>
        <time>2021-10-08T11:41:22Z</time>
      </trkpt>
      <trkpt lat="44.83717" lon="5.38737">
        <ele>1352</ele>
        <time>2021-10-08T11:41:23Z</time>
      </trkpt>
      <trkpt lat="44.8371" lon="5.38738">
        <ele>1352</ele>
        <time>2021-10-08T11:41:24Z</time>
      </trkpt>
      <trkpt lat="44.83702" lon="5.38738">
        <ele>1352</ele>
        <time>2021-10-08T11:41:25Z</time>
      </trkpt>
      <trkpt lat="44.83695" lon="5.38739">
        <ele>1351.6</ele>
        <time>2021-10-08T11:41:26Z</time>
      </trkpt>
      <trkpt lat="44.83688" lon="5.38739">
        <ele>1351.6</ele>
        <time>2021-10-08T11:41:27Z</time>
      </trkpt>
      <trkpt lat="44.83681" lon="5.3874">
        <ele>1351.6</ele>
        <time>2021-10-08T11:41:28Z</time>
      </trkpt>
      <trkpt lat="44.83674" lon="5.3874">
        <ele>1351</ele>
        <time>2021-10-08T11:41:29Z</time>
      </trkpt>
      <trkpt lat="44.83667" lon="5.3874">
        <ele>1350.4</ele>
        <time>2021-10-08T11:41:30Z</time>
      </trkpt>
      <trkpt lat="44.8366" lon="5.3874">
        <ele>1350.4</ele>
        <time>2021-10-08T11:41:31Z</time>
      </trkpt>
      <trkpt lat="44.83653" lon="5.38742">
        <ele>1350.4</ele>
        <time>2021-10-08T11:41:32Z</time>
      </trkpt>
      <trkpt lat="44.83647" lon="5.38743">
        <ele>1349.4</ele>
        <time>2021-10-08T11:41:33Z</time>
      </trkpt>
      <trkpt lat="44.8364" lon="5.38743">
        <ele>1348.8</ele>
        <time>2021-10-08T11:41:34Z</time>
      </trkpt>
      <trkpt lat="44.83634" lon="5.38744">
        <ele>1348.8</ele>
        <time>2021-10-08T11:41:35Z</time>
      </trkpt>
      <trkpt lat="44.83629" lon="5.38745">
        <ele>1348.8</ele>
        <time>2021-10-08T11:41:36Z</time>
      </trkpt>
      <trkpt lat="44.83625" lon="5.38746">
        <ele>1348.8</ele>
        <time>2021-10-08T11:41:37Z</time>
      </trkpt>
      <trkpt lat="44.83621" lon="5.38747">
        <ele>1349.6</ele>
        <time>2021-10-08T11:41:38Z</time>
      </trkpt>
      <trkpt lat="44.83618" lon="5.38748">
        <ele>1349.6</ele>
        <time>2021-10-08T11:41:39Z</time>
      </trkpt>
      <trkpt lat="44.83614" lon="5.38748">
        <ele>1349.6</ele>
        <time>2021-10-08T11:41:40Z</time>
      </trkpt>
      <trkpt lat="44.83612" lon="5.38748">
        <ele>1348.6</ele>
        <time>2021-10-08T11:41:41Z</time>
      </trkpt>
      <trkpt lat="44.83609" lon="5.38749">
        <ele>1348.6</ele>
        <time>2021-10-08T11:41:42Z</time>
      </trkpt>
      <trkpt lat="44.83608" lon="5.3875">
        <ele>1348.6</ele>
        <time>2021-10-08T11:41:43Z</time>
      </trkpt>
      <trkpt lat="44.83607" lon="5.3875">
        <ele>1348.6</ele>
        <time>2021-10-08T11:41:44Z</time>
      </trkpt>
      <trkpt lat="44.83606" lon="5.3875">
        <ele>1348.6</ele>
        <time>2021-10-08T11:41:45Z</time>
      </trkpt>
      <trkpt lat="44.83605" lon="5.3875">
        <ele>1349.4</ele>
        <time>2021-10-08T11:41:46Z</time>
      </trkpt>
      <trkpt lat="44.83605" lon="5.3875">
        <ele>1349.4</ele>
        <time>2021-10-08T11:41:47Z</time>
      </trkpt>
      <trkpt lat="44.83599" lon="5.38746">
        <ele>1348.4</ele>
        <time>2021-10-08T11:41:59Z</time>
      </trkpt>
      <trkpt lat="44.83597" lon="5.38745">
        <ele>1348.4</ele>
        <time>2021-10-08T11:42:00Z</time>
      </trkpt>
      <trkpt lat="44.83593" lon="5.38745">
        <ele>1348.4</ele>
        <time>2021-10-08T11:42:01Z</time>
      </trkpt>
      <trkpt lat="44.83591" lon="5.38744">
        <ele>1348</ele>
        <time>2021-10-08T11:42:02Z</time>
      </trkpt>
      <trkpt lat="44.83589" lon="5.38742">
        <ele>1348</ele>
        <time>2021-10-08T11:42:03Z</time>
      </trkpt>
      <trkpt lat="44.83586" lon="5.38743">
        <ele>1348</ele>
        <time>2021-10-08T11:42:04Z</time>
      </trkpt>
      <trkpt lat="44.83583" lon="5.38742">
        <ele>1347</ele>
        <time>2021-10-08T11:42:05Z</time>
      </trkpt>
      <trkpt lat="44.83579" lon="5.38741">
        <ele>1345.4</ele>
        <time>2021-10-08T11:42:06Z</time>
      </trkpt>
      <trkpt lat="44.83575" lon="5.38741">
        <ele>1345.4</ele>
        <time>2021-10-08T11:42:07Z</time>
      </trkpt>
      <trkpt lat="44.83569" lon="5.38741">
        <ele>1345.4</ele>
        <time>2021-10-08T11:42:08Z</time>
      </trkpt>
      <trkpt lat="44.83563" lon="5.38743">
        <ele>1345.4</ele>
        <time>2021-10-08T11:42:09Z</time>
      </trkpt>
      <trkpt lat="44.83557" lon="5.38745">
        <ele>1344.4</ele>
        <time>2021-10-08T11:42:10Z</time>
      </trkpt>
      <trkpt lat="44.83553" lon="5.38746">
        <ele>1344.4</ele>
        <time>2021-10-08T11:42:11Z</time>
      </trkpt>
      <trkpt lat="44.8355" lon="5.38748">
        <ele>1344.4</ele>
        <time>2021-10-08T11:42:12Z</time>
      </trkpt>
      <trkpt lat="44.83547" lon="5.38747">
        <ele>1344.4</ele>
        <time>2021-10-08T11:42:13Z</time>
      </trkpt>
      <trkpt lat="44.83544" lon="5.38748">
        <ele>1344.4</ele>
        <time>2021-10-08T11:42:14Z</time>
      </trkpt>
      <trkpt lat="44.83542" lon="5.38748">
        <ele>1344.4</ele>
        <time>2021-10-08T11:42:15Z</time>
      </trkpt>
      <trkpt lat="44.83539" lon="5.38747">
        <ele>1344.4</ele>
        <time>2021-10-08T11:42:16Z</time>
      </trkpt>
      <trkpt lat="44.83536" lon="5.38748">
        <ele>1343.4</ele>
        <time>2021-10-08T11:42:17Z</time>
      </trkpt>
      <trkpt lat="44.83532" lon="5.3875">
        <ele>1340.6</ele>
        <time>2021-10-08T11:42:18Z</time>
      </trkpt>
      <trkpt lat="44.83529" lon="5.38751">
        <ele>1340.6</ele>
        <time>2021-10-08T11:42:19Z</time>
      </trkpt>
      <trkpt lat="44.83526" lon="5.38752">
        <ele>1340.6</ele>
        <time>2021-10-08T11:42:20Z</time>
      </trkpt>
      <trkpt lat="44.83522" lon="5.38753">
        <ele>1340.6</ele>
        <time>2021-10-08T11:42:21Z</time>
      </trkpt>
      <trkpt lat="44.83519" lon="5.38754">
        <ele>1341</ele>
        <time>2021-10-08T11:42:22Z</time>
      </trkpt>
      <trkpt lat="44.83517" lon="5.38754">
        <ele>1341</ele>
        <time>2021-10-08T11:42:23Z</time>
      </trkpt>
      <trkpt lat="44.83513" lon="5.38755">
        <ele>1341</ele>
        <time>2021-10-08T11:42:24Z</time>
      </trkpt>
      <trkpt lat="44.8351" lon="5.38756">
        <ele>1341</ele>
        <time>2021-10-08T11:42:25Z</time>
      </trkpt>
      <trkpt lat="44.83507" lon="5.38758">
        <ele>1339.4</ele>
        <time>2021-10-08T11:42:26Z</time>
      </trkpt>
      <trkpt lat="44.83504" lon="5.3876">
        <ele>1339.4</ele>
        <time>2021-10-08T11:42:27Z</time>
      </trkpt>
      <trkpt lat="44.835" lon="5.3876">
        <ele>1339.4</ele>
        <time>2021-10-08T11:42:28Z</time>
      </trkpt>
      <trkpt lat="44.83497" lon="5.38761">
        <ele>1339.8</ele>
        <time>2021-10-08T11:42:29Z</time>
      </trkpt>
      <trkpt lat="44.83494" lon="5.38762">
        <ele>1339.8</ele>
        <time>2021-10-08T11:42:30Z</time>
      </trkpt>
      <trkpt lat="44.83492" lon="5.38764">
        <ele>1339.8</ele>
        <time>2021-10-08T11:42:31Z</time>
      </trkpt>
      <trkpt lat="44.83492" lon="5.38766">
        <ele>1339.8</ele>
        <time>2021-10-08T11:42:32Z</time>
      </trkpt>
      <trkpt lat="44.83491" lon="5.3877">
        <ele>1339.8</ele>
        <time>2021-10-08T11:42:33Z</time>
      </trkpt>
      <trkpt lat="44.83491" lon="5.38774">
        <ele>1339.6</ele>
        <time>2021-10-08T11:42:34Z</time>
      </trkpt>
      <trkpt lat="44.83492" lon="5.38777">
        <ele>1339.6</ele>
        <time>2021-10-08T11:42:35Z</time>
      </trkpt>
      <trkpt lat="44.83493" lon="5.38781">
        <ele>1339.6</ele>
        <time>2021-10-08T11:42:36Z</time>
      </trkpt>
      <trkpt lat="44.83496" lon="5.38783">
        <ele>1339</ele>
        <time>2021-10-08T11:42:37Z</time>
      </trkpt>
      <trkpt lat="44.83498" lon="5.38786">
        <ele>1338</ele>
        <time>2021-10-08T11:42:38Z</time>
      </trkpt>
      <trkpt lat="44.83502" lon="5.38789">
        <ele>1338</ele>
        <time>2021-10-08T11:42:39Z</time>
      </trkpt>
      <trkpt lat="44.83505" lon="5.38791">
        <ele>1338</ele>
        <time>2021-10-08T11:42:40Z</time>
      </trkpt>
      <trkpt lat="44.83509" lon="5.38792">
        <ele>1337.6</ele>
        <time>2021-10-08T11:42:41Z</time>
      </trkpt>
      <trkpt lat="44.83511" lon="5.38795">
        <ele>1337.4</ele>
        <time>2021-10-08T11:42:42Z</time>
      </trkpt>
      <trkpt lat="44.83514" lon="5.38796">
        <ele>1337.4</ele>
        <time>2021-10-08T11:42:43Z</time>
      </trkpt>
      <trkpt lat="44.83517" lon="5.38798">
        <ele>1337.4</ele>
        <time>2021-10-08T11:42:44Z</time>
      </trkpt>
      <trkpt lat="44.8352" lon="5.38799">
        <ele>1336.4</ele>
        <time>2021-10-08T11:42:45Z</time>
      </trkpt>
      <trkpt lat="44.83523" lon="5.388">
        <ele>1337.2</ele>
        <time>2021-10-08T11:42:46Z</time>
      </trkpt>
      <trkpt lat="44.83525" lon="5.38801">
        <ele>1337.2</ele>
        <time>2021-10-08T11:42:47Z</time>
      </trkpt>
      <trkpt lat="44.83526" lon="5.38803">
        <ele>1337.2</ele>
        <time>2021-10-08T11:42:48Z</time>
      </trkpt>
      <trkpt lat="44.83528" lon="5.38804">
        <ele>1336.2</ele>
        <time>2021-10-08T11:42:49Z</time>
      </trkpt>
      <trkpt lat="44.83529" lon="5.38804">
        <ele>1336.6</ele>
        <time>2021-10-08T11:42:50Z</time>
      </trkpt>
      <trkpt lat="44.8353" lon="5.38805">
        <ele>1336.6</ele>
        <time>2021-10-08T11:42:51Z</time>
      </trkpt>
      <trkpt lat="44.83531" lon="5.38807">
        <ele>1336.6</ele>
        <time>2021-10-08T11:42:52Z</time>
      </trkpt>
      <trkpt lat="44.83533" lon="5.38808">
        <ele>1335.6</ele>
        <time>2021-10-08T11:42:53Z</time>
      </trkpt>
      <trkpt lat="44.83535" lon="5.3881">
        <ele>1334.8</ele>
        <time>2021-10-08T11:42:54Z</time>
      </trkpt>
      <trkpt lat="44.83536" lon="5.38811">
        <ele>1334.8</ele>
        <time>2021-10-08T11:42:55Z</time>
      </trkpt>
      <trkpt lat="44.83539" lon="5.38813">
        <ele>1334.8</ele>
        <time>2021-10-08T11:42:56Z</time>
      </trkpt>
      <trkpt lat="44.83541" lon="5.38816">
        <ele>1334.8</ele>
        <time>2021-10-08T11:42:57Z</time>
      </trkpt>
      <trkpt lat="44.83543" lon="5.38819">
        <ele>1335</ele>
        <time>2021-10-08T11:42:58Z</time>
      </trkpt>
      <trkpt lat="44.83545" lon="5.38821">
        <ele>1335</ele>
        <time>2021-10-08T11:42:59Z</time>
      </trkpt>
      <trkpt lat="44.83547" lon="5.38823">
        <ele>1335</ele>
        <time>2021-10-08T11:43:00Z</time>
      </trkpt>
      <trkpt lat="44.8355" lon="5.38825">
        <ele>1334</ele>
        <time>2021-10-08T11:43:01Z</time>
      </trkpt>
      <trkpt lat="44.83553" lon="5.38828">
        <ele>1332.4</ele>
        <time>2021-10-08T11:43:02Z</time>
      </trkpt>
      <trkpt lat="44.83555" lon="5.3883">
        <ele>1332.4</ele>
        <time>2021-10-08T11:43:03Z</time>
      </trkpt>
      <trkpt lat="44.83559" lon="5.38833">
        <ele>1332.4</ele>
        <time>2021-10-08T11:43:04Z</time>
      </trkpt>
      <trkpt lat="44.83563" lon="5.38835">
        <ele>1331.4</ele>
        <time>2021-10-08T11:43:05Z</time>
      </trkpt>
      <trkpt lat="44.83567" lon="5.38836">
        <ele>1330.4</ele>
        <time>2021-10-08T11:43:06Z</time>
      </trkpt>
      <trkpt lat="44.83571" lon="5.38839">
        <ele>1330.4</ele>
        <time>2021-10-08T11:43:07Z</time>
      </trkpt>
      <trkpt lat="44.83575" lon="5.38841">
        <ele>1330.4</ele>
        <time>2021-10-08T11:43:08Z</time>
      </trkpt>
      <trkpt lat="44.83579" lon="5.38843">
        <ele>1330.4</ele>
        <time>2021-10-08T11:43:09Z</time>
      </trkpt>
      <trkpt lat="44.83584" lon="5.38845">
        <ele>1329.8</ele>
        <time>2021-10-08T11:43:10Z</time>
      </trkpt>
      <trkpt lat="44.83587" lon="5.38846">
        <ele>1329.8</ele>
        <time>2021-10-08T11:43:11Z</time>
      </trkpt>
      <trkpt lat="44.83591" lon="5.38847">
        <ele>1329.8</ele>
        <time>2021-10-08T11:43:12Z</time>
      </trkpt>
      <trkpt lat="44.83595" lon="5.3885">
        <ele>1328.8</ele>
        <time>2021-10-08T11:43:13Z</time>
      </trkpt>
      <trkpt lat="44.83599" lon="5.38852">
        <ele>1326.4</ele>
        <time>2021-10-08T11:43:14Z</time>
      </trkpt>
      <trkpt lat="44.83603" lon="5.38854">
        <ele>1326.4</ele>
        <time>2021-10-08T11:43:15Z</time>
      </trkpt>
      <trkpt lat="44.83606" lon="5.38857">
        <ele>1326.4</ele>
        <time>2021-10-08T11:43:16Z</time>
      </trkpt>
      <trkpt lat="44.83608" lon="5.38859">
        <ele>1327</ele>
        <time>2021-10-08T11:43:17Z</time>
      </trkpt>
      <trkpt lat="44.8361" lon="5.38861">
        <ele>1326.4</ele>
        <time>2021-10-08T11:43:18Z</time>
      </trkpt>
      <trkpt lat="44.83611" lon="5.38861">
        <ele>1326.4</ele>
        <time>2021-10-08T11:43:19Z</time>
      </trkpt>
      <trkpt lat="44.83615" lon="5.38864">
        <ele>1326.4</ele>
        <time>2021-10-08T11:43:20Z</time>
      </trkpt>
      <trkpt lat="44.83617" lon="5.38866">
        <ele>1325.4</ele>
        <time>2021-10-08T11:43:21Z</time>
      </trkpt>
      <trkpt lat="44.83619" lon="5.38868">
        <ele>1324.2</ele>
        <time>2021-10-08T11:43:22Z</time>
      </trkpt>
      <trkpt lat="44.83622" lon="5.38871">
        <ele>1324.2</ele>
        <time>2021-10-08T11:43:23Z</time>
      </trkpt>
      <trkpt lat="44.83625" lon="5.38874">
        <ele>1324.2</ele>
        <time>2021-10-08T11:43:24Z</time>
      </trkpt>
      <trkpt lat="44.83628" lon="5.38876">
        <ele>1324.2</ele>
        <time>2021-10-08T11:43:25Z</time>
      </trkpt>
      <trkpt lat="44.83632" lon="5.38878">
        <ele>1322.4</ele>
        <time>2021-10-08T11:43:26Z</time>
      </trkpt>
      <trkpt lat="44.83636" lon="5.3888">
        <ele>1322.4</ele>
        <time>2021-10-08T11:43:27Z</time>
      </trkpt>
      <trkpt lat="44.83638" lon="5.38882">
        <ele>1322.4</ele>
        <time>2021-10-08T11:43:28Z</time>
      </trkpt>
      <trkpt lat="44.83641" lon="5.38884">
        <ele>1322.4</ele>
        <time>2021-10-08T11:43:29Z</time>
      </trkpt>
      <trkpt lat="44.83644" lon="5.38887">
        <ele>1321.6</ele>
        <time>2021-10-08T11:43:30Z</time>
      </trkpt>
      <trkpt lat="44.83647" lon="5.38889">
        <ele>1321.6</ele>
        <time>2021-10-08T11:43:31Z</time>
      </trkpt>
      <trkpt lat="44.8365" lon="5.38893">
        <ele>1321.6</ele>
        <time>2021-10-08T11:43:32Z</time>
      </trkpt>
      <trkpt lat="44.83652" lon="5.38896">
        <ele>1321.6</ele>
        <time>2021-10-08T11:43:33Z</time>
      </trkpt>
      <trkpt lat="44.83654" lon="5.389">
        <ele>1320.4</ele>
        <time>2021-10-08T11:43:34Z</time>
      </trkpt>
      <trkpt lat="44.83656" lon="5.38903">
        <ele>1320.4</ele>
        <time>2021-10-08T11:43:35Z</time>
      </trkpt>
      <trkpt lat="44.83657" lon="5.38908">
        <ele>1320.4</ele>
        <time>2021-10-08T11:43:36Z</time>
      </trkpt>
      <trkpt lat="44.83659" lon="5.38911">
        <ele>1319.4</ele>
        <time>2021-10-08T11:43:37Z</time>
      </trkpt>
      <trkpt lat="44.83659" lon="5.38915">
        <ele>1319.6</ele>
        <time>2021-10-08T11:43:38Z</time>
      </trkpt>
      <trkpt lat="44.83659" lon="5.38921">
        <ele>1319.6</ele>
        <time>2021-10-08T11:43:39Z</time>
      </trkpt>
      <trkpt lat="44.83659" lon="5.38927">
        <ele>1319.6</ele>
        <time>2021-10-08T11:43:40Z</time>
      </trkpt>
      <trkpt lat="44.8366" lon="5.38932">
        <ele>1318.6</ele>
        <time>2021-10-08T11:43:41Z</time>
      </trkpt>
      <trkpt lat="44.8366" lon="5.38936">
        <ele>1317</ele>
        <time>2021-10-08T11:43:42Z</time>
      </trkpt>
      <trkpt lat="44.83661" lon="5.38942">
        <ele>1317</ele>
        <time>2021-10-08T11:43:43Z</time>
      </trkpt>
      <trkpt lat="44.8366" lon="5.38946">
        <ele>1317</ele>
        <time>2021-10-08T11:43:44Z</time>
      </trkpt>
      <trkpt lat="44.83658" lon="5.3895">
        <ele>1316</ele>
        <time>2021-10-08T11:43:45Z</time>
      </trkpt>
      <trkpt lat="44.83656" lon="5.38953">
        <ele>1314.6</ele>
        <time>2021-10-08T11:43:46Z</time>
      </trkpt>
      <trkpt lat="44.83655" lon="5.38955">
        <ele>1314.6</ele>
        <time>2021-10-08T11:43:47Z</time>
      </trkpt>
      <trkpt lat="44.83654" lon="5.38956">
        <ele>1314.6</ele>
        <time>2021-10-08T11:43:48Z</time>
      </trkpt>
      <trkpt lat="44.83652" lon="5.38958">
        <ele>1313.6</ele>
        <time>2021-10-08T11:43:49Z</time>
      </trkpt>
      <trkpt lat="44.8365" lon="5.3896">
        <ele>1311.6</ele>
        <time>2021-10-08T11:43:50Z</time>
      </trkpt>
      <trkpt lat="44.83647" lon="5.3896">
        <ele>1311.6</ele>
        <time>2021-10-08T11:43:51Z</time>
      </trkpt>
      <trkpt lat="44.83644" lon="5.3896">
        <ele>1311.6</ele>
        <time>2021-10-08T11:43:52Z</time>
      </trkpt>
      <trkpt lat="44.83643" lon="5.38961">
        <ele>1310.6</ele>
        <time>2021-10-08T11:43:53Z</time>
      </trkpt>
      <trkpt lat="44.83641" lon="5.38962">
        <ele>1309.6</ele>
        <time>2021-10-08T11:43:54Z</time>
      </trkpt>
      <trkpt lat="44.83641" lon="5.38966">
        <ele>1309.6</ele>
        <time>2021-10-08T11:43:55Z</time>
      </trkpt>
      <trkpt lat="44.83641" lon="5.38971">
        <ele>1309.6</ele>
        <time>2021-10-08T11:43:56Z</time>
      </trkpt>
      <trkpt lat="44.83641" lon="5.38976">
        <ele>1309.6</ele>
        <time>2021-10-08T11:43:57Z</time>
      </trkpt>
      <trkpt lat="44.8364" lon="5.38979">
        <ele>1309.8</ele>
        <time>2021-10-08T11:43:58Z</time>
      </trkpt>
      <trkpt lat="44.83639" lon="5.38982">
        <ele>1309.8</ele>
        <time>2021-10-08T11:43:59Z</time>
      </trkpt>
      <trkpt lat="44.83639" lon="5.38984">
        <ele>1309.8</ele>
        <time>2021-10-08T11:44:00Z</time>
      </trkpt>
      <trkpt lat="44.83639" lon="5.38987">
        <ele>1309.4</ele>
        <time>2021-10-08T11:44:01Z</time>
      </trkpt>
      <trkpt lat="44.83639" lon="5.38989">
        <ele>1309.6</ele>
        <time>2021-10-08T11:44:02Z</time>
      </trkpt>
      <trkpt lat="44.83639" lon="5.38994">
        <ele>1309.6</ele>
        <time>2021-10-08T11:44:03Z</time>
      </trkpt>
      <trkpt lat="44.83639" lon="5.38997">
        <ele>1309.6</ele>
        <time>2021-10-08T11:44:04Z</time>
      </trkpt>
      <trkpt lat="44.83639" lon="5.39">
        <ele>1308.6</ele>
        <time>2021-10-08T11:44:05Z</time>
      </trkpt>
      <trkpt lat="44.8364" lon="5.39003">
        <ele>1308.6</ele>
        <time>2021-10-08T11:44:06Z</time>
      </trkpt>
      <trkpt lat="44.83641" lon="5.39006">
        <ele>1308.6</ele>
        <time>2021-10-08T11:44:07Z</time>
      </trkpt>
      <trkpt lat="44.83642" lon="5.39008">
        <ele>1308.6</ele>
        <time>2021-10-08T11:44:08Z</time>
      </trkpt>
      <trkpt lat="44.83643" lon="5.39011">
        <ele>1308.6</ele>
        <time>2021-10-08T11:44:09Z</time>
      </trkpt>
      <trkpt lat="44.83645" lon="5.39015">
        <ele>1307.8</ele>
        <time>2021-10-08T11:44:10Z</time>
      </trkpt>
      <trkpt lat="44.83647" lon="5.3902">
        <ele>1307.8</ele>
        <time>2021-10-08T11:44:11Z</time>
      </trkpt>
      <trkpt lat="44.83648" lon="5.39025">
        <ele>1307.8</ele>
        <time>2021-10-08T11:44:12Z</time>
      </trkpt>
      <trkpt lat="44.83649" lon="5.39028">
        <ele>1307.8</ele>
        <time>2021-10-08T11:44:13Z</time>
      </trkpt>
      <trkpt lat="44.8365" lon="5.3903">
        <ele>1307.8</ele>
        <time>2021-10-08T11:44:14Z</time>
      </trkpt>
      <trkpt lat="44.8365" lon="5.39032">
        <ele>1307.8</ele>
        <time>2021-10-08T11:44:15Z</time>
      </trkpt>
      <trkpt lat="44.83651" lon="5.39032">
        <ele>1307.4</ele>
        <time>2021-10-08T11:44:16Z</time>
      </trkpt>
      <trkpt lat="44.83653" lon="5.39033">
        <ele>1307</ele>
        <time>2021-10-08T11:44:17Z</time>
      </trkpt>
      <trkpt lat="44.83654" lon="5.39035">
        <ele>1306.8</ele>
        <time>2021-10-08T11:44:18Z</time>
      </trkpt>
      <trkpt lat="44.83656" lon="5.39037">
        <ele>1306.8</ele>
        <time>2021-10-08T11:44:19Z</time>
      </trkpt>
      <trkpt lat="44.83658" lon="5.39038">
        <ele>1306.8</ele>
        <time>2021-10-08T11:44:20Z</time>
      </trkpt>
      <trkpt lat="44.8366" lon="5.39039">
        <ele>1305.8</ele>
        <time>2021-10-08T11:44:21Z</time>
      </trkpt>
      <trkpt lat="44.83662" lon="5.39041">
        <ele>1304</ele>
        <time>2021-10-08T11:44:22Z</time>
      </trkpt>
      <trkpt lat="44.83665" lon="5.39044">
        <ele>1304</ele>
        <time>2021-10-08T11:44:23Z</time>
      </trkpt>
      <trkpt lat="44.83667" lon="5.39046">
        <ele>1304</ele>
        <time>2021-10-08T11:44:24Z</time>
      </trkpt>
      <trkpt lat="44.83669" lon="5.39049">
        <ele>1303.2</ele>
        <time>2021-10-08T11:44:25Z</time>
      </trkpt>
      <trkpt lat="44.8367" lon="5.39052">
        <ele>1301.4</ele>
        <time>2021-10-08T11:44:26Z</time>
      </trkpt>
      <trkpt lat="44.83672" lon="5.39056">
        <ele>1301.4</ele>
        <time>2021-10-08T11:44:27Z</time>
      </trkpt>
      <trkpt lat="44.83673" lon="5.3906">
        <ele>1301.4</ele>
        <time>2021-10-08T11:44:28Z</time>
      </trkpt>
      <trkpt lat="44.83673" lon="5.39063">
        <ele>1301.4</ele>
        <time>2021-10-08T11:44:29Z</time>
      </trkpt>
      <trkpt lat="44.83674" lon="5.39065">
        <ele>1301</ele>
        <time>2021-10-08T11:44:30Z</time>
      </trkpt>
      <trkpt lat="44.83674" lon="5.39065">
        <ele>1301</ele>
        <time>2021-10-08T11:44:31Z</time>
      </trkpt>
      <trkpt lat="44.83674" lon="5.39065">
        <ele>1301</ele>
        <time>2021-10-08T11:44:32Z</time>
      </trkpt>
      <trkpt lat="44.83674" lon="5.39067">
        <ele>1301</ele>
        <time>2021-10-08T11:44:33Z</time>
      </trkpt>
      <trkpt lat="44.83674" lon="5.3907">
        <ele>1301</ele>
        <time>2021-10-08T11:44:34Z</time>
      </trkpt>
      <trkpt lat="44.83678" lon="5.39075">
        <ele>1300</ele>
        <time>2021-10-08T11:51:15Z</time>
      </trkpt>
      <trkpt lat="44.8368" lon="5.39076">
        <ele>1300</ele>
        <time>2021-10-08T11:51:16Z</time>
      </trkpt>
      <trkpt lat="44.83682" lon="5.39076">
        <ele>1300</ele>
        <time>2021-10-08T11:51:17Z</time>
      </trkpt>
      <trkpt lat="44.83684" lon="5.39077">
        <ele>1300.8</ele>
        <time>2021-10-08T11:51:18Z</time>
      </trkpt>
      <trkpt lat="44.83686" lon="5.39077">
        <ele>1300.8</ele>
        <time>2021-10-08T11:51:19Z</time>
      </trkpt>
      <trkpt lat="44.83688" lon="5.39078">
        <ele>1300.8</ele>
        <time>2021-10-08T11:51:20Z</time>
      </trkpt>
      <trkpt lat="44.8369" lon="5.39079">
        <ele>1299.8</ele>
        <time>2021-10-08T11:51:21Z</time>
      </trkpt>
      <trkpt lat="44.83692" lon="5.3908">
        <ele>1297.4</ele>
        <time>2021-10-08T11:51:22Z</time>
      </trkpt>
      <trkpt lat="44.83695" lon="5.39082">
        <ele>1297.4</ele>
        <time>2021-10-08T11:51:23Z</time>
      </trkpt>
      <trkpt lat="44.83697" lon="5.39084">
        <ele>1297.4</ele>
        <time>2021-10-08T11:51:24Z</time>
      </trkpt>
      <trkpt lat="44.83699" lon="5.39085">
        <ele>1297</ele>
        <time>2021-10-08T11:51:25Z</time>
      </trkpt>
      <trkpt lat="44.83701" lon="5.39086">
        <ele>1297.2</ele>
        <time>2021-10-08T11:51:26Z</time>
      </trkpt>
      <trkpt lat="44.83701" lon="5.39085">
        <ele>1297.2</ele>
        <time>2021-10-08T11:51:27Z</time>
      </trkpt>
      <trkpt lat="44.83701" lon="5.39085">
        <ele>1297.2</ele>
        <time>2021-10-08T11:51:28Z</time>
      </trkpt>
      <trkpt lat="44.83706" lon="5.39086">
        <ele>1296.6</ele>
        <time>2021-10-08T11:54:33Z</time>
      </trkpt>
      <trkpt lat="44.83708" lon="5.39086">
        <ele>1296.2</ele>
        <time>2021-10-08T11:54:34Z</time>
      </trkpt>
      <trkpt lat="44.83711" lon="5.39087">
        <ele>1296.2</ele>
        <time>2021-10-08T11:54:35Z</time>
      </trkpt>
      <trkpt lat="44.83714" lon="5.39088">
        <ele>1296.2</ele>
        <time>2021-10-08T11:54:36Z</time>
      </trkpt>
      <trkpt lat="44.83717" lon="5.39088">
        <ele>1295.4</ele>
        <time>2021-10-08T11:54:37Z</time>
      </trkpt>
      <trkpt lat="44.83719" lon="5.39087">
        <ele>1295.4</ele>
        <time>2021-10-08T11:54:38Z</time>
      </trkpt>
      <trkpt lat="44.83722" lon="5.39087">
        <ele>1295.4</ele>
        <time>2021-10-08T11:54:39Z</time>
      </trkpt>
      <trkpt lat="44.83724" lon="5.39087">
        <ele>1295.4</ele>
        <time>2021-10-08T11:54:40Z</time>
      </trkpt>
      <trkpt lat="44.83726" lon="5.39087">
        <ele>1294.8</ele>
        <time>2021-10-08T11:54:41Z</time>
      </trkpt>
      <trkpt lat="44.83729" lon="5.39088">
        <ele>1294.8</ele>
        <time>2021-10-08T11:54:42Z</time>
      </trkpt>
      <trkpt lat="44.83731" lon="5.39089">
        <ele>1294.8</ele>
        <time>2021-10-08T11:54:43Z</time>
      </trkpt>
      <trkpt lat="44.83734" lon="5.39089">
        <ele>1293.4</ele>
        <time>2021-10-08T11:54:44Z</time>
      </trkpt>
      <trkpt lat="44.83737" lon="5.39089">
        <ele>1293.4</ele>
        <time>2021-10-08T11:54:45Z</time>
      </trkpt>
      <trkpt lat="44.83739" lon="5.39089">
        <ele>1292.6</ele>
        <time>2021-10-08T11:54:46Z</time>
      </trkpt>
      <trkpt lat="44.83741" lon="5.39089">
        <ele>1292.6</ele>
        <time>2021-10-08T11:54:47Z</time>
      </trkpt>
      <trkpt lat="44.83743" lon="5.3909">
        <ele>1292.6</ele>
        <time>2021-10-08T11:54:48Z</time>
      </trkpt>
      <trkpt lat="44.83746" lon="5.39091">
        <ele>1291.6</ele>
        <time>2021-10-08T11:54:49Z</time>
      </trkpt>
      <trkpt lat="44.83749" lon="5.39091">
        <ele>1291.8</ele>
        <time>2021-10-08T11:54:50Z</time>
      </trkpt>
      <trkpt lat="44.83752" lon="5.39092">
        <ele>1291.8</ele>
        <time>2021-10-08T11:54:51Z</time>
      </trkpt>
      <trkpt lat="44.83754" lon="5.39093">
        <ele>1291.8</ele>
        <time>2021-10-08T11:54:52Z</time>
      </trkpt>
      <trkpt lat="44.83756" lon="5.39093">
        <ele>1290.8</ele>
        <time>2021-10-08T11:54:53Z</time>
      </trkpt>
      <trkpt lat="44.83757" lon="5.39094">
        <ele>1289.8</ele>
        <time>2021-10-08T11:54:54Z</time>
      </trkpt>
      <trkpt lat="44.83759" lon="5.39095">
        <ele>1289.8</ele>
        <time>2021-10-08T11:54:55Z</time>
      </trkpt>
      <trkpt lat="44.83761" lon="5.39096">
        <ele>1289.8</ele>
        <time>2021-10-08T11:54:56Z</time>
      </trkpt>
      <trkpt lat="44.83762" lon="5.39097">
        <ele>1289.8</ele>
        <time>2021-10-08T11:54:57Z</time>
      </trkpt>
      <trkpt lat="44.83764" lon="5.39098">
        <ele>1289.4</ele>
        <time>2021-10-08T11:54:58Z</time>
      </trkpt>
      <trkpt lat="44.83766" lon="5.39098">
        <ele>1289.4</ele>
        <time>2021-10-08T11:54:59Z</time>
      </trkpt>
      <trkpt lat="44.83768" lon="5.39098">
        <ele>1289.4</ele>
        <time>2021-10-08T11:55:00Z</time>
      </trkpt>
      <trkpt lat="44.8377" lon="5.39098">
        <ele>1288.4</ele>
        <time>2021-10-08T11:55:01Z</time>
      </trkpt>
      <trkpt lat="44.83772" lon="5.39099">
        <ele>1288.2</ele>
        <time>2021-10-08T11:55:02Z</time>
      </trkpt>
      <trkpt lat="44.83774" lon="5.39099">
        <ele>1288.2</ele>
        <time>2021-10-08T11:55:03Z</time>
      </trkpt>
      <trkpt lat="44.83784" lon="5.39093">
        <ele>1286.8</ele>
        <time>2021-10-08T11:57:34Z</time>
      </trkpt>
      <trkpt lat="44.83786" lon="5.39094">
        <ele>1286.8</ele>
        <time>2021-10-08T11:57:35Z</time>
      </trkpt>
      <trkpt lat="44.83788" lon="5.39094">
        <ele>1286.8</ele>
        <time>2021-10-08T11:57:36Z</time>
      </trkpt>
      <trkpt lat="44.83791" lon="5.39095">
        <ele>1286.8</ele>
        <time>2021-10-08T11:57:37Z</time>
      </trkpt>
      <trkpt lat="44.83794" lon="5.39096">
        <ele>1286.2</ele>
        <time>2021-10-08T11:57:38Z</time>
      </trkpt>
      <trkpt lat="44.83797" lon="5.39098">
        <ele>1286.2</ele>
        <time>2021-10-08T11:57:39Z</time>
      </trkpt>
      <trkpt lat="44.83801" lon="5.39101">
        <ele>1286.2</ele>
        <time>2021-10-08T11:57:40Z</time>
      </trkpt>
      <trkpt lat="44.83804" lon="5.39102">
        <ele>1286.2</ele>
        <time>2021-10-08T11:57:41Z</time>
      </trkpt>
      <trkpt lat="44.83807" lon="5.39104">
        <ele>1286</ele>
        <time>2021-10-08T11:57:42Z</time>
      </trkpt>
      <trkpt lat="44.83809" lon="5.39104">
        <ele>1286</ele>
        <time>2021-10-08T11:57:43Z</time>
      </trkpt>
      <trkpt lat="44.8381" lon="5.39104">
        <ele>1286</ele>
        <time>2021-10-08T11:57:44Z</time>
      </trkpt>
      <trkpt lat="44.83809" lon="5.39105">
        <ele>1285.6</ele>
        <time>2021-10-08T11:57:45Z</time>
      </trkpt>
      <trkpt lat="44.8381" lon="5.39104">
        <ele>1285.8</ele>
        <time>2021-10-08T11:58:00Z</time>
      </trkpt>
      <trkpt lat="44.83812" lon="5.39105">
        <ele>1285.8</ele>
        <time>2021-10-08T11:58:01Z</time>
      </trkpt>
      <trkpt lat="44.83814" lon="5.39106">
        <ele>1285</ele>
        <time>2021-10-08T11:58:02Z</time>
      </trkpt>
      <trkpt lat="44.83816" lon="5.39107">
        <ele>1285</ele>
        <time>2021-10-08T11:58:03Z</time>
      </trkpt>
      <trkpt lat="44.83818" lon="5.39107">
        <ele>1285</ele>
        <time>2021-10-08T11:58:04Z</time>
      </trkpt>
      <trkpt lat="44.8382" lon="5.39108">
        <ele>1284.6</ele>
        <time>2021-10-08T11:58:05Z</time>
      </trkpt>
      <trkpt lat="44.83822" lon="5.39109">
        <ele>1284.2</ele>
        <time>2021-10-08T11:58:06Z</time>
      </trkpt>
      <trkpt lat="44.83824" lon="5.3911">
        <ele>1284.2</ele>
        <time>2021-10-08T11:58:07Z</time>
      </trkpt>
      <trkpt lat="44.83826" lon="5.39111">
        <ele>1284.2</ele>
        <time>2021-10-08T11:58:08Z</time>
      </trkpt>
      <trkpt lat="44.83827" lon="5.39111">
        <ele>1284.2</ele>
        <time>2021-10-08T11:58:09Z</time>
      </trkpt>
      <trkpt lat="44.83829" lon="5.3912">
        <ele>1283.8</ele>
        <time>2021-10-08T11:59:37Z</time>
      </trkpt>
      <trkpt lat="44.8383" lon="5.3912">
        <ele>1283.6</ele>
        <time>2021-10-08T11:59:38Z</time>
      </trkpt>
      <trkpt lat="44.83832" lon="5.3912">
        <ele>1283.6</ele>
        <time>2021-10-08T11:59:39Z</time>
      </trkpt>
      <trkpt lat="44.83833" lon="5.39118">
        <ele>1283.6</ele>
        <time>2021-10-08T11:59:40Z</time>
      </trkpt>
      <trkpt lat="44.83834" lon="5.3912">
        <ele>1283.6</ele>
        <time>2021-10-08T11:59:41Z</time>
      </trkpt>
      <trkpt lat="44.83835" lon="5.39122">
        <ele>1282.6</ele>
        <time>2021-10-08T11:59:42Z</time>
      </trkpt>
      <trkpt lat="44.83836" lon="5.39124">
        <ele>1282.6</ele>
        <time>2021-10-08T11:59:43Z</time>
      </trkpt>
      <trkpt lat="44.83838" lon="5.39127">
        <ele>1282.6</ele>
        <time>2021-10-08T11:59:44Z</time>
      </trkpt>
      <trkpt lat="44.83839" lon="5.39129">
        <ele>1282.6</ele>
        <time>2021-10-08T11:59:45Z</time>
      </trkpt>
      <trkpt lat="44.8384" lon="5.39132">
        <ele>1282.2</ele>
        <time>2021-10-08T11:59:46Z</time>
      </trkpt>
      <trkpt lat="44.83841" lon="5.39133">
        <ele>1282.2</ele>
        <time>2021-10-08T11:59:47Z</time>
      </trkpt>
      <trkpt lat="44.83842" lon="5.39135">
        <ele>1282.2</ele>
        <time>2021-10-08T11:59:48Z</time>
      </trkpt>
      <trkpt lat="44.83842" lon="5.39138">
        <ele>1282</ele>
        <time>2021-10-08T11:59:49Z</time>
      </trkpt>
      <trkpt lat="44.83843" lon="5.39139">
        <ele>1281.8</ele>
        <time>2021-10-08T11:59:50Z</time>
      </trkpt>
      <trkpt lat="44.83845" lon="5.39141">
        <ele>1281.8</ele>
        <time>2021-10-08T11:59:51Z</time>
      </trkpt>
      <trkpt lat="44.83846" lon="5.39144">
        <ele>1281.8</ele>
        <time>2021-10-08T11:59:52Z</time>
      </trkpt>
      <trkpt lat="44.83849" lon="5.39146">
        <ele>1280.8</ele>
        <time>2021-10-08T11:59:53Z</time>
      </trkpt>
      <trkpt lat="44.83852" lon="5.39149">
        <ele>1280.2</ele>
        <time>2021-10-08T11:59:54Z</time>
      </trkpt>
      <trkpt lat="44.83854" lon="5.3915">
        <ele>1280.2</ele>
        <time>2021-10-08T11:59:55Z</time>
      </trkpt>
      <trkpt lat="44.83855" lon="5.39152">
        <ele>1280.2</ele>
        <time>2021-10-08T11:59:56Z</time>
      </trkpt>
      <trkpt lat="44.83856" lon="5.39153">
        <ele>1280.2</ele>
        <time>2021-10-08T11:59:57Z</time>
      </trkpt>
      <trkpt lat="44.83858" lon="5.39154">
        <ele>1279.6</ele>
        <time>2021-10-08T11:59:58Z</time>
      </trkpt>
      <trkpt lat="44.83859" lon="5.39155">
        <ele>1279.6</ele>
        <time>2021-10-08T11:59:59Z</time>
      </trkpt>
      <trkpt lat="44.8386" lon="5.39157">
        <ele>1279.6</ele>
        <time>2021-10-08T12:00:00Z</time>
      </trkpt>
      <trkpt lat="44.83861" lon="5.39158">
        <ele>1279.2</ele>
        <time>2021-10-08T12:00:01Z</time>
      </trkpt>
      <trkpt lat="44.83862" lon="5.39159">
        <ele>1279.4</ele>
        <time>2021-10-08T12:00:02Z</time>
      </trkpt>
      <trkpt lat="44.83862" lon="5.39159">
        <ele>1279.4</ele>
        <time>2021-10-08T12:00:03Z</time>
      </trkpt>
      <trkpt lat="44.83868" lon="5.39164">
        <ele>1277.8</ele>
        <time>2021-10-08T12:00:34Z</time>
      </trkpt>
      <trkpt lat="44.83871" lon="5.39165">
        <ele>1277.8</ele>
        <time>2021-10-08T12:00:35Z</time>
      </trkpt>
      <trkpt lat="44.83873" lon="5.39168">
        <ele>1277.8</ele>
        <time>2021-10-08T12:00:36Z</time>
      </trkpt>
      <trkpt lat="44.83876" lon="5.39172">
        <ele>1277.4</ele>
        <time>2021-10-08T12:00:37Z</time>
      </trkpt>
      <trkpt lat="44.83879" lon="5.39174">
        <ele>1276.2</ele>
        <time>2021-10-08T12:00:38Z</time>
      </trkpt>
      <trkpt lat="44.83882" lon="5.39178">
        <ele>1276.2</ele>
        <time>2021-10-08T12:00:39Z</time>
      </trkpt>
      <trkpt lat="44.83885" lon="5.39181">
        <ele>1276.2</ele>
        <time>2021-10-08T12:00:40Z</time>
      </trkpt>
      <trkpt lat="44.83888" lon="5.39184">
        <ele>1275.2</ele>
        <time>2021-10-08T12:00:41Z</time>
      </trkpt>
      <trkpt lat="44.83891" lon="5.39188">
        <ele>1273.8</ele>
        <time>2021-10-08T12:00:42Z</time>
      </trkpt>
      <trkpt lat="44.83895" lon="5.39192">
        <ele>1273.8</ele>
        <time>2021-10-08T12:00:43Z</time>
      </trkpt>
      <trkpt lat="44.83899" lon="5.39198">
        <ele>1273.8</ele>
        <time>2021-10-08T12:00:44Z</time>
      </trkpt>
      <trkpt lat="44.83903" lon="5.39206">
        <ele>1272.8</ele>
        <time>2021-10-08T12:00:45Z</time>
      </trkpt>
      <trkpt lat="44.83907" lon="5.39213">
        <ele>1270.8</ele>
        <time>2021-10-08T12:00:46Z</time>
      </trkpt>
      <trkpt lat="44.83912" lon="5.39223">
        <ele>1270.8</ele>
        <time>2021-10-08T12:00:47Z</time>
      </trkpt>
      <trkpt lat="44.83916" lon="5.39232">
        <ele>1270.8</ele>
        <time>2021-10-08T12:00:48Z</time>
      </trkpt>
      <trkpt lat="44.83921" lon="5.39237">
        <ele>1270.8</ele>
        <time>2021-10-08T12:00:49Z</time>
      </trkpt>
      <trkpt lat="44.83925" lon="5.39244">
        <ele>1268.2</ele>
        <time>2021-10-08T12:00:50Z</time>
      </trkpt>
      <trkpt lat="44.83929" lon="5.39252">
        <ele>1268.2</ele>
        <time>2021-10-08T12:00:51Z</time>
      </trkpt>
      <trkpt lat="44.83933" lon="5.3926">
        <ele>1268.2</ele>
        <time>2021-10-08T12:00:52Z</time>
      </trkpt>
      <trkpt lat="44.83936" lon="5.39267">
        <ele>1268.2</ele>
        <time>2021-10-08T12:00:53Z</time>
      </trkpt>
      <trkpt lat="44.83939" lon="5.39275">
        <ele>1268.2</ele>
        <time>2021-10-08T12:00:54Z</time>
      </trkpt>
      <trkpt lat="44.83941" lon="5.39282">
        <ele>1266.8</ele>
        <time>2021-10-08T12:00:55Z</time>
      </trkpt>
      <trkpt lat="44.83944" lon="5.39289">
        <ele>1266.8</ele>
        <time>2021-10-08T12:00:56Z</time>
      </trkpt>
      <trkpt lat="44.83947" lon="5.39295">
        <ele>1266.8</ele>
        <time>2021-10-08T12:00:57Z</time>
      </trkpt>
      <trkpt lat="44.8395" lon="5.39301">
        <ele>1265.6</ele>
        <time>2021-10-08T12:00:58Z</time>
      </trkpt>
      <trkpt lat="44.83953" lon="5.39307">
        <ele>1265.6</ele>
        <time>2021-10-08T12:00:59Z</time>
      </trkpt>
      <trkpt lat="44.83956" lon="5.39314">
        <ele>1265.6</ele>
        <time>2021-10-08T12:01:00Z</time>
      </trkpt>
      <trkpt lat="44.8396" lon="5.3932">
        <ele>1264.6</ele>
        <time>2021-10-08T12:01:01Z</time>
      </trkpt>
      <trkpt lat="44.83965" lon="5.39327">
        <ele>1263.6</ele>
        <time>2021-10-08T12:01:02Z</time>
      </trkpt>
      <trkpt lat="44.83969" lon="5.39332">
        <ele>1263.6</ele>
        <time>2021-10-08T12:01:03Z</time>
      </trkpt>
      <trkpt lat="44.83974" lon="5.39337">
        <ele>1263.6</ele>
        <time>2021-10-08T12:01:04Z</time>
      </trkpt>
      <trkpt lat="44.83978" lon="5.39342">
        <ele>1263.6</ele>
        <time>2021-10-08T12:01:05Z</time>
      </trkpt>
      <trkpt lat="44.83981" lon="5.39347">
        <ele>1264.8</ele>
        <time>2021-10-08T12:01:06Z</time>
      </trkpt>
      <trkpt lat="44.83981" lon="5.39354">
        <ele>1264.8</ele>
        <time>2021-10-08T12:01:07Z</time>
      </trkpt>
      <trkpt lat="44.8398" lon="5.39359">
        <ele>1264.8</ele>
        <time>2021-10-08T12:01:08Z</time>
      </trkpt>
      <trkpt lat="44.83978" lon="5.39366">
        <ele>1263.8</ele>
        <time>2021-10-08T12:01:09Z</time>
      </trkpt>
      <trkpt lat="44.83975" lon="5.39372">
        <ele>1260.6</ele>
        <time>2021-10-08T12:01:10Z</time>
      </trkpt>
      <trkpt lat="44.83972" lon="5.39379">
        <ele>1260.6</ele>
        <time>2021-10-08T12:01:11Z</time>
      </trkpt>
      <trkpt lat="44.83969" lon="5.39386">
        <ele>1260.6</ele>
        <time>2021-10-08T12:01:12Z</time>
      </trkpt>
      <trkpt lat="44.83964" lon="5.39394">
        <ele>1259.8</ele>
        <time>2021-10-08T12:01:13Z</time>
      </trkpt>
      <trkpt lat="44.83961" lon="5.39401">
        <ele>1258</ele>
        <time>2021-10-08T12:01:14Z</time>
      </trkpt>
      <trkpt lat="44.83958" lon="5.39408">
        <ele>1258</ele>
        <time>2021-10-08T12:01:15Z</time>
      </trkpt>
      <trkpt lat="44.83954" lon="5.39415">
        <ele>1258</ele>
        <time>2021-10-08T12:01:16Z</time>
      </trkpt>
      <trkpt lat="44.83951" lon="5.39422">
        <ele>1257.4</ele>
        <time>2021-10-08T12:01:17Z</time>
      </trkpt>
      <trkpt lat="44.83948" lon="5.39428">
        <ele>1257</ele>
        <time>2021-10-08T12:01:18Z</time>
      </trkpt>
      <trkpt lat="44.83944" lon="5.39434">
        <ele>1257</ele>
        <time>2021-10-08T12:01:19Z</time>
      </trkpt>
      <trkpt lat="44.83941" lon="5.39442">
        <ele>1257</ele>
        <time>2021-10-08T12:01:20Z</time>
      </trkpt>
      <trkpt lat="44.83938" lon="5.39451">
        <ele>1256.4</ele>
        <time>2021-10-08T12:01:21Z</time>
      </trkpt>
      <trkpt lat="44.83936" lon="5.39458">
        <ele>1255.4</ele>
        <time>2021-10-08T12:01:22Z</time>
      </trkpt>
      <trkpt lat="44.83933" lon="5.39464">
        <ele>1255.4</ele>
        <time>2021-10-08T12:01:23Z</time>
      </trkpt>
      <trkpt lat="44.83928" lon="5.39469">
        <ele>1255.4</ele>
        <time>2021-10-08T12:01:24Z</time>
      </trkpt>
      <trkpt lat="44.83922" lon="5.39473">
        <ele>1255.4</ele>
        <time>2021-10-08T12:01:25Z</time>
      </trkpt>
      <trkpt lat="44.83916" lon="5.39476">
        <ele>1253.2</ele>
        <time>2021-10-08T12:01:26Z</time>
      </trkpt>
      <trkpt lat="44.83911" lon="5.3948">
        <ele>1253.2</ele>
        <time>2021-10-08T12:01:27Z</time>
      </trkpt>
      <trkpt lat="44.83906" lon="5.39484">
        <ele>1253.2</ele>
        <time>2021-10-08T12:01:28Z</time>
      </trkpt>
      <trkpt lat="44.83901" lon="5.39489">
        <ele>1252.4</ele>
        <time>2021-10-08T12:01:29Z</time>
      </trkpt>
      <trkpt lat="44.83895" lon="5.39493">
        <ele>1251</ele>
        <time>2021-10-08T12:01:30Z</time>
      </trkpt>
      <trkpt lat="44.8389" lon="5.39499">
        <ele>1251</ele>
        <time>2021-10-08T12:01:31Z</time>
      </trkpt>
      <trkpt lat="44.83885" lon="5.39505">
        <ele>1251</ele>
        <time>2021-10-08T12:01:32Z</time>
      </trkpt>
      <trkpt lat="44.83881" lon="5.39513">
        <ele>1250</ele>
        <time>2021-10-08T12:01:33Z</time>
      </trkpt>
      <trkpt lat="44.83876" lon="5.3952">
        <ele>1249.8</ele>
        <time>2021-10-08T12:01:34Z</time>
      </trkpt>
      <trkpt lat="44.83872" lon="5.39527">
        <ele>1249.8</ele>
        <time>2021-10-08T12:01:35Z</time>
      </trkpt>
      <trkpt lat="44.8387" lon="5.39533">
        <ele>1249.8</ele>
        <time>2021-10-08T12:01:36Z</time>
      </trkpt>
      <trkpt lat="44.83868" lon="5.39538">
        <ele>1249.8</ele>
        <time>2021-10-08T12:01:37Z</time>
      </trkpt>
      <trkpt lat="44.83866" lon="5.39544">
        <ele>1249.8</ele>
        <time>2021-10-08T12:01:38Z</time>
      </trkpt>
      <trkpt lat="44.83863" lon="5.39551">
        <ele>1249.8</ele>
        <time>2021-10-08T12:01:39Z</time>
      </trkpt>
      <trkpt lat="44.83859" lon="5.39558">
        <ele>1249.8</ele>
        <time>2021-10-08T12:01:40Z</time>
      </trkpt>
      <trkpt lat="44.83856" lon="5.39565">
        <ele>1249.8</ele>
        <time>2021-10-08T12:01:41Z</time>
      </trkpt>
      <trkpt lat="44.83852" lon="5.39572">
        <ele>1247.4</ele>
        <time>2021-10-08T12:01:42Z</time>
      </trkpt>
      <trkpt lat="44.83849" lon="5.39578">
        <ele>1247.4</ele>
        <time>2021-10-08T12:01:43Z</time>
      </trkpt>
      <trkpt lat="44.83845" lon="5.39584">
        <ele>1247.4</ele>
        <time>2021-10-08T12:01:44Z</time>
      </trkpt>
      <trkpt lat="44.83842" lon="5.39591">
        <ele>1247.4</ele>
        <time>2021-10-08T12:01:45Z</time>
      </trkpt>
      <trkpt lat="44.8384" lon="5.39597">
        <ele>1245</ele>
        <time>2021-10-08T12:01:46Z</time>
      </trkpt>
      <trkpt lat="44.83837" lon="5.39602">
        <ele>1245</ele>
        <time>2021-10-08T12:01:47Z</time>
      </trkpt>
      <trkpt lat="44.83834" lon="5.39606">
        <ele>1245</ele>
        <time>2021-10-08T12:01:48Z</time>
      </trkpt>
      <trkpt lat="44.83832" lon="5.3961">
        <ele>1245</ele>
        <time>2021-10-08T12:01:49Z</time>
      </trkpt>
      <trkpt lat="44.83832" lon="5.39615">
        <ele>1244.8</ele>
        <time>2021-10-08T12:01:50Z</time>
      </trkpt>
      <trkpt lat="44.83832" lon="5.39619">
        <ele>1244.8</ele>
        <time>2021-10-08T12:01:51Z</time>
      </trkpt>
      <trkpt lat="44.8383" lon="5.39623">
        <ele>1244.8</ele>
        <time>2021-10-08T12:01:52Z</time>
      </trkpt>
      <trkpt lat="44.83828" lon="5.39625">
        <ele>1243.8</ele>
        <time>2021-10-08T12:01:53Z</time>
      </trkpt>
      <trkpt lat="44.83826" lon="5.39628">
        <ele>1244</ele>
        <time>2021-10-08T12:01:54Z</time>
      </trkpt>
      <trkpt lat="44.83824" lon="5.3963">
        <ele>1244</ele>
        <time>2021-10-08T12:01:55Z</time>
      </trkpt>
      <trkpt lat="44.83823" lon="5.39633">
        <ele>1244</ele>
        <time>2021-10-08T12:01:56Z</time>
      </trkpt>
      <trkpt lat="44.83821" lon="5.39636">
        <ele>1244.8</ele>
        <time>2021-10-08T12:01:57Z</time>
      </trkpt>
      <trkpt lat="44.83819" lon="5.39636">
        <ele>1244.6</ele>
        <time>2021-10-08T12:01:58Z</time>
      </trkpt>
      <trkpt lat="44.83818" lon="5.39635">
        <ele>1244.6</ele>
        <time>2021-10-08T12:01:59Z</time>
      </trkpt>
      <trkpt lat="44.83816" lon="5.39635">
        <ele>1244.6</ele>
        <time>2021-10-08T12:02:00Z</time>
      </trkpt>
      <trkpt lat="44.83815" lon="5.39635">
        <ele>1244.6</ele>
        <time>2021-10-08T12:02:01Z</time>
      </trkpt>
      <trkpt lat="44.83813" lon="5.39637">
        <ele>1244.6</ele>
        <time>2021-10-08T12:02:02Z</time>
      </trkpt>
      <trkpt lat="44.83812" lon="5.39638">
        <ele>1244.8</ele>
        <time>2021-10-08T12:02:03Z</time>
      </trkpt>
      <trkpt lat="44.83811" lon="5.39641">
        <ele>1244.8</ele>
        <time>2021-10-08T12:02:04Z</time>
      </trkpt>
      <trkpt lat="44.83811" lon="5.39643">
        <ele>1245.2</ele>
        <time>2021-10-08T12:02:05Z</time>
      </trkpt>
      <trkpt lat="44.8381" lon="5.39645">
        <ele>1245.2</ele>
        <time>2021-10-08T12:02:06Z</time>
      </trkpt>
      <trkpt lat="44.8381" lon="5.39647">
        <ele>1245.2</ele>
        <time>2021-10-08T12:02:07Z</time>
      </trkpt>
      <trkpt lat="44.83811" lon="5.39649">
        <ele>1245.2</ele>
        <time>2021-10-08T12:02:08Z</time>
      </trkpt>
      <trkpt lat="44.8381" lon="5.39652">
        <ele>1245.2</ele>
        <time>2021-10-08T12:02:09Z</time>
      </trkpt>
      <trkpt lat="44.8381" lon="5.39654">
        <ele>1245.8</ele>
        <time>2021-10-08T12:02:10Z</time>
      </trkpt>
      <trkpt lat="44.8381" lon="5.39657">
        <ele>1245.8</ele>
        <time>2021-10-08T12:02:11Z</time>
      </trkpt>
      <trkpt lat="44.83809" lon="5.3966">
        <ele>1245.8</ele>
        <time>2021-10-08T12:02:12Z</time>
      </trkpt>
      <trkpt lat="44.83809" lon="5.39662">
        <ele>1246.2</ele>
        <time>2021-10-08T12:02:13Z</time>
      </trkpt>
      <trkpt lat="44.83809" lon="5.39665">
        <ele>1245.8</ele>
        <time>2021-10-08T12:02:14Z</time>
      </trkpt>
      <trkpt lat="44.83809" lon="5.39668">
        <ele>1245.8</ele>
        <time>2021-10-08T12:02:15Z</time>
      </trkpt>
      <trkpt lat="44.83809" lon="5.39671">
        <ele>1245.8</ele>
        <time>2021-10-08T12:02:16Z</time>
      </trkpt>
      <trkpt lat="44.83808" lon="5.39674">
        <ele>1245.8</ele>
        <time>2021-10-08T12:02:17Z</time>
      </trkpt>
      <trkpt lat="44.83808" lon="5.39677">
        <ele>1245.8</ele>
        <time>2021-10-08T12:02:18Z</time>
      </trkpt>
      <trkpt lat="44.83809" lon="5.3968">
        <ele>1245.8</ele>
        <time>2021-10-08T12:02:19Z</time>
      </trkpt>
      <trkpt lat="44.83809" lon="5.39683">
        <ele>1245.8</ele>
        <time>2021-10-08T12:02:20Z</time>
      </trkpt>
      <trkpt lat="44.83809" lon="5.39686">
        <ele>1245.8</ele>
        <time>2021-10-08T12:02:21Z</time>
      </trkpt>
      <trkpt lat="44.83809" lon="5.39689">
        <ele>1245.8</ele>
        <time>2021-10-08T12:02:22Z</time>
      </trkpt>
      <trkpt lat="44.83808" lon="5.39692">
        <ele>1245.8</ele>
        <time>2021-10-08T12:02:23Z</time>
      </trkpt>
      <trkpt lat="44.83809" lon="5.39695">
        <ele>1245.8</ele>
        <time>2021-10-08T12:02:24Z</time>
      </trkpt>
      <trkpt lat="44.83809" lon="5.39697">
        <ele>1245.8</ele>
        <time>2021-10-08T12:02:25Z</time>
      </trkpt>
      <trkpt lat="44.83809" lon="5.397">
        <ele>1245.8</ele>
        <time>2021-10-08T12:02:26Z</time>
      </trkpt>
      <trkpt lat="44.83809" lon="5.39702">
        <ele>1245.8</ele>
        <time>2021-10-08T12:02:27Z</time>
      </trkpt>
      <trkpt lat="44.83809" lon="5.39704">
        <ele>1245.4</ele>
        <time>2021-10-08T12:02:28Z</time>
      </trkpt>
      <trkpt lat="44.83809" lon="5.39705">
        <ele>1246.4</ele>
        <time>2021-10-08T12:02:29Z</time>
      </trkpt>
      <trkpt lat="44.83809" lon="5.39706">
        <ele>1247.6</ele>
        <time>2021-10-08T12:02:30Z</time>
      </trkpt>
      <trkpt lat="44.83808" lon="5.39707">
        <ele>1247.6</ele>
        <time>2021-10-08T12:02:31Z</time>
      </trkpt>
      <trkpt lat="44.83807" lon="5.39708">
        <ele>1247.6</ele>
        <time>2021-10-08T12:02:32Z</time>
      </trkpt>
      <trkpt lat="44.83806" lon="5.39708">
        <ele>1247.4</ele>
        <time>2021-10-08T12:02:33Z</time>
      </trkpt>
      <trkpt lat="44.83806" lon="5.39708">
        <ele>1247.6</ele>
        <time>2021-10-08T12:02:34Z</time>
      </trkpt>
      <trkpt lat="44.83807" lon="5.39734">
        <ele>1248.2</ele>
        <time>2021-10-08T12:03:26Z</time>
      </trkpt>
      <trkpt lat="44.83807" lon="5.39732">
        <ele>1248.2</ele>
        <time>2021-10-08T12:03:27Z</time>
      </trkpt>
      <trkpt lat="44.83807" lon="5.3973">
        <ele>1248.2</ele>
        <time>2021-10-08T12:03:28Z</time>
      </trkpt>
      <trkpt lat="44.83808" lon="5.3973">
        <ele>1248.2</ele>
        <time>2021-10-08T12:03:29Z</time>
      </trkpt>
      <trkpt lat="44.83809" lon="5.3973">
        <ele>1248.8</ele>
        <time>2021-10-08T12:03:30Z</time>
      </trkpt>
      <trkpt lat="44.83811" lon="5.3973">
        <ele>1248.8</ele>
        <time>2021-10-08T12:03:31Z</time>
      </trkpt>
      <trkpt lat="44.83811" lon="5.39732">
        <ele>1248.8</ele>
        <time>2021-10-08T12:03:32Z</time>
      </trkpt>
      <trkpt lat="44.83812" lon="5.39733">
        <ele>1247.8</ele>
        <time>2021-10-08T12:03:33Z</time>
      </trkpt>
      <trkpt lat="44.83813" lon="5.39735">
        <ele>1245.8</ele>
        <time>2021-10-08T12:03:34Z</time>
      </trkpt>
      <trkpt lat="44.83813" lon="5.39738">
        <ele>1245.8</ele>
        <time>2021-10-08T12:03:35Z</time>
      </trkpt>
      <trkpt lat="44.83814" lon="5.39738">
        <ele>1245.8</ele>
        <time>2021-10-08T12:03:36Z</time>
      </trkpt>
      <trkpt lat="44.83813" lon="5.39736">
        <ele>1246.2</ele>
        <time>2021-10-08T12:03:37Z</time>
      </trkpt>
      <trkpt lat="44.83814" lon="5.39737">
        <ele>1246.8</ele>
        <time>2021-10-08T12:03:38Z</time>
      </trkpt>
      <trkpt lat="44.83815" lon="5.39737">
        <ele>1246.8</ele>
        <time>2021-10-08T12:03:39Z</time>
      </trkpt>
      <trkpt lat="44.83815" lon="5.39738">
        <ele>1246.8</ele>
        <time>2021-10-08T12:03:40Z</time>
      </trkpt>
      <trkpt lat="44.83816" lon="5.39739">
        <ele>1246.8</ele>
        <time>2021-10-08T12:03:41Z</time>
      </trkpt>
      <trkpt lat="44.83818" lon="5.39741">
        <ele>1245.8</ele>
        <time>2021-10-08T12:03:42Z</time>
      </trkpt>
      <trkpt lat="44.83818" lon="5.39741">
        <ele>1245.8</ele>
        <time>2021-10-08T12:03:43Z</time>
      </trkpt>
      <trkpt lat="44.83818" lon="5.39741">
        <ele>1245.8</ele>
        <time>2021-10-08T12:03:44Z</time>
      </trkpt>
      <trkpt lat="44.83818" lon="5.39741">
        <ele>1246</ele>
        <time>2021-10-08T12:03:45Z</time>
      </trkpt>
      <trkpt lat="44.83818" lon="5.39741">
        <ele>1245.8</ele>
        <time>2021-10-08T12:03:46Z</time>
      </trkpt>
      <trkpt lat="44.83818" lon="5.39741">
        <ele>1245.8</ele>
        <time>2021-10-08T12:03:47Z</time>
      </trkpt>
      <trkpt lat="44.83818" lon="5.39741">
        <ele>1245.8</ele>
        <time>2021-10-08T12:03:48Z</time>
      </trkpt>
      <trkpt lat="44.83818" lon="5.39741">
        <ele>1247.8</ele>
        <time>2021-10-08T12:05:57Z</time>
      </trkpt>
      <trkpt lat="44.83818" lon="5.39741">
        <ele>1246.6</ele>
        <time>2021-10-08T12:05:58Z</time>
      </trkpt>
      <trkpt lat="44.83818" lon="5.39741">
        <ele>1246.6</ele>
        <time>2021-10-08T12:05:59Z</time>
      </trkpt>
      <trkpt lat="44.83818" lon="5.39741">
        <ele>1246.6</ele>
        <time>2021-10-08T12:06:00Z</time>
      </trkpt>
      <trkpt lat="44.84016" lon="5.40555">
        <ele>1246.6</ele>
        <time>2021-10-08T12:06:01Z</time>
      </trkpt>
      <trkpt lat="44.84016" lon="5.40555">
        <ele>1248.2</ele>
        <time>2021-10-08T12:06:02Z</time>
      </trkpt>
      <trkpt lat="44.84039" lon="5.40564">
        <ele>1248.2</ele>
        <time>2021-10-08T12:06:03Z</time>
      </trkpt>
      <trkpt lat="44.84041" lon="5.40568">
        <ele>1248.2</ele>
        <time>2021-10-08T12:06:04Z</time>
      </trkpt>
      <trkpt lat="44.8404" lon="5.40573">
        <ele>1248.2</ele>
        <time>2021-10-08T12:06:05Z</time>
      </trkpt>
      <trkpt lat="44.84041" lon="5.4058">
        <ele>1248.4</ele>
        <time>2021-10-08T12:06:06Z</time>
      </trkpt>
      <trkpt lat="44.84043" lon="5.40585">
        <ele>1248.4</ele>
        <time>2021-10-08T12:06:07Z</time>
      </trkpt>
      <trkpt lat="44.84043" lon="5.4059">
        <ele>1248.4</ele>
        <time>2021-10-08T12:06:08Z</time>
      </trkpt>
      <trkpt lat="44.84043" lon="5.40595">
        <ele>1248.4</ele>
        <time>2021-10-08T12:06:09Z</time>
      </trkpt>
      <trkpt lat="44.84042" lon="5.406">
        <ele>1248.4</ele>
        <time>2021-10-08T12:06:10Z</time>
      </trkpt>
      <trkpt lat="44.84041" lon="5.40604">
        <ele>1248.4</ele>
        <time>2021-10-08T12:06:11Z</time>
      </trkpt>
      <trkpt lat="44.84039" lon="5.40607">
        <ele>1248.4</ele>
        <time>2021-10-08T12:06:12Z</time>
      </trkpt>
      <trkpt lat="44.84037" lon="5.4061">
        <ele>1249</ele>
        <time>2021-10-08T12:06:13Z</time>
      </trkpt>
      <trkpt lat="44.84035" lon="5.40611">
        <ele>1249.2</ele>
        <time>2021-10-08T12:06:14Z</time>
      </trkpt>
      <trkpt lat="44.84033" lon="5.40613">
        <ele>1249.2</ele>
        <time>2021-10-08T12:06:15Z</time>
      </trkpt>
      <trkpt lat="44.84031" lon="5.40614">
        <ele>1249.2</ele>
        <time>2021-10-08T12:06:16Z</time>
      </trkpt>
      <trkpt lat="44.8403" lon="5.40615">
        <ele>1249.2</ele>
        <time>2021-10-08T12:06:17Z</time>
      </trkpt>
      <trkpt lat="44.84029" lon="5.40616">
        <ele>1249.2</ele>
        <time>2021-10-08T12:06:18Z</time>
      </trkpt>
      <trkpt lat="44.84029" lon="5.40617">
        <ele>1249.2</ele>
        <time>2021-10-08T12:06:19Z</time>
      </trkpt>
      <trkpt lat="44.84028" lon="5.40618">
        <ele>1249.2</ele>
        <time>2021-10-08T12:06:20Z</time>
      </trkpt>
      <trkpt lat="44.84027" lon="5.40618">
        <ele>1249.2</ele>
        <time>2021-10-08T12:06:21Z</time>
      </trkpt>
      <trkpt lat="44.84026" lon="5.40619">
        <ele>1249.2</ele>
        <time>2021-10-08T12:06:22Z</time>
      </trkpt>
      <trkpt lat="44.84025" lon="5.4062">
        <ele>1249.2</ele>
        <time>2021-10-08T12:06:23Z</time>
      </trkpt>
      <trkpt lat="44.84024" lon="5.4062">
        <ele>1249.8</ele>
        <time>2021-10-08T12:06:24Z</time>
      </trkpt>
      <trkpt lat="44.84023" lon="5.4062">
        <ele>1250.2</ele>
        <time>2021-10-08T12:06:25Z</time>
      </trkpt>
      <trkpt lat="44.84022" lon="5.4062">
        <ele>1250.2</ele>
        <time>2021-10-08T12:06:26Z</time>
      </trkpt>
      <trkpt lat="44.84021" lon="5.4062">
        <ele>1250.2</ele>
        <time>2021-10-08T12:06:27Z</time>
      </trkpt>
      <trkpt lat="44.8402" lon="5.40619">
        <ele>1250.2</ele>
        <time>2021-10-08T12:06:28Z</time>
      </trkpt>
      <trkpt lat="44.84018" lon="5.40619">
        <ele>1250.2</ele>
        <time>2021-10-08T12:06:29Z</time>
      </trkpt>
      <trkpt lat="44.84016" lon="5.40618">
        <ele>1250</ele>
        <time>2021-10-08T12:06:30Z</time>
      </trkpt>
      <trkpt lat="44.84014" lon="5.40618">
        <ele>1250</ele>
        <time>2021-10-08T12:06:31Z</time>
      </trkpt>
      <trkpt lat="44.84013" lon="5.40618">
        <ele>1250</ele>
        <time>2021-10-08T12:06:32Z</time>
      </trkpt>
      <trkpt lat="44.84011" lon="5.40618">
        <ele>1250.8</ele>
        <time>2021-10-08T12:06:33Z</time>
      </trkpt>
      <trkpt lat="44.84009" lon="5.40617">
        <ele>1251</ele>
        <time>2021-10-08T12:06:34Z</time>
      </trkpt>
      <trkpt lat="44.84008" lon="5.40617">
        <ele>1251</ele>
        <time>2021-10-08T12:06:35Z</time>
      </trkpt>
      <trkpt lat="44.84006" lon="5.40616">
        <ele>1251</ele>
        <time>2021-10-08T12:06:36Z</time>
      </trkpt>
      <trkpt lat="44.84005" lon="5.40615">
        <ele>1251</ele>
        <time>2021-10-08T12:06:37Z</time>
      </trkpt>
      <trkpt lat="44.84003" lon="5.40613">
        <ele>1250.8</ele>
        <time>2021-10-08T12:06:38Z</time>
      </trkpt>
      <trkpt lat="44.84002" lon="5.40612">
        <ele>1250.8</ele>
        <time>2021-10-08T12:06:39Z</time>
      </trkpt>
      <trkpt lat="44.84" lon="5.4061">
        <ele>1250.8</ele>
        <time>2021-10-08T12:06:40Z</time>
      </trkpt>
      <trkpt lat="44.83999" lon="5.40609">
        <ele>1251.2</ele>
        <time>2021-10-08T12:06:41Z</time>
      </trkpt>
      <trkpt lat="44.83998" lon="5.40607">
        <ele>1251</ele>
        <time>2021-10-08T12:06:42Z</time>
      </trkpt>
      <trkpt lat="44.83997" lon="5.40605">
        <ele>1251</ele>
        <time>2021-10-08T12:06:43Z</time>
      </trkpt>
      <trkpt lat="44.83996" lon="5.40603">
        <ele>1251</ele>
        <time>2021-10-08T12:06:44Z</time>
      </trkpt>
      <trkpt lat="44.83995" lon="5.40601">
        <ele>1251.2</ele>
        <time>2021-10-08T12:06:45Z</time>
      </trkpt>
      <trkpt lat="44.83994" lon="5.40599">
        <ele>1251.2</ele>
        <time>2021-10-08T12:06:46Z</time>
      </trkpt>
      <trkpt lat="44.83994" lon="5.40597">
        <ele>1251.8</ele>
        <time>2021-10-08T12:06:47Z</time>
      </trkpt>
      <trkpt lat="44.83994" lon="5.40594">
        <ele>1251.8</ele>
        <time>2021-10-08T12:06:48Z</time>
      </trkpt>
      <trkpt lat="44.83993" lon="5.40592">
        <ele>1251.8</ele>
        <time>2021-10-08T12:06:49Z</time>
      </trkpt>
      <trkpt lat="44.83992" lon="5.40589">
        <ele>1251.6</ele>
        <time>2021-10-08T12:06:50Z</time>
      </trkpt>
      <trkpt lat="44.8399" lon="5.40586">
        <ele>1251.6</ele>
        <time>2021-10-08T12:06:51Z</time>
      </trkpt>
      <trkpt lat="44.83988" lon="5.40584">
        <ele>1251.6</ele>
        <time>2021-10-08T12:06:52Z</time>
      </trkpt>
      <trkpt lat="44.83987" lon="5.40582">
        <ele>1251.4</ele>
        <time>2021-10-08T12:06:53Z</time>
      </trkpt>
      <trkpt lat="44.83985" lon="5.40581">
        <ele>1252</ele>
        <time>2021-10-08T12:06:54Z</time>
      </trkpt>
      <trkpt lat="44.83983" lon="5.4058">
        <ele>1252</ele>
        <time>2021-10-08T12:06:55Z</time>
      </trkpt>
      <trkpt lat="44.83981" lon="5.4058">
        <ele>1252</ele>
        <time>2021-10-08T12:06:56Z</time>
      </trkpt>
      <trkpt lat="44.8398" lon="5.4058">
        <ele>1252.2</ele>
        <time>2021-10-08T12:06:57Z</time>
      </trkpt>
      <trkpt lat="44.83978" lon="5.40581">
        <ele>1252.6</ele>
        <time>2021-10-08T12:06:58Z</time>
      </trkpt>
      <trkpt lat="44.83976" lon="5.40581">
        <ele>1252.6</ele>
        <time>2021-10-08T12:06:59Z</time>
      </trkpt>
      <trkpt lat="44.83974" lon="5.40581">
        <ele>1252.6</ele>
        <time>2021-10-08T12:07:00Z</time>
      </trkpt>
      <trkpt lat="44.83973" lon="5.40581">
        <ele>1252.6</ele>
        <time>2021-10-08T12:07:01Z</time>
      </trkpt>
      <trkpt lat="44.83972" lon="5.40582">
        <ele>1252.8</ele>
        <time>2021-10-08T12:07:02Z</time>
      </trkpt>
      <trkpt lat="44.83971" lon="5.40583">
        <ele>1252.8</ele>
        <time>2021-10-08T12:07:03Z</time>
      </trkpt>
      <trkpt lat="44.83971" lon="5.40584">
        <ele>1252.8</ele>
        <time>2021-10-08T12:07:04Z</time>
      </trkpt>
      <trkpt lat="44.83971" lon="5.40584">
        <ele>1252.8</ele>
        <time>2021-10-08T12:07:05Z</time>
      </trkpt>
      <trkpt lat="44.83971" lon="5.40584">
        <ele>1253</ele>
        <time>2021-10-08T12:07:06Z</time>
      </trkpt>
      <trkpt lat="44.8396" lon="5.40586">
        <ele>1254.4</ele>
        <time>2021-10-08T12:40:01Z</time>
      </trkpt>
      <trkpt lat="44.83959" lon="5.40585">
        <ele>1254.2</ele>
        <time>2021-10-08T12:40:02Z</time>
      </trkpt>
      <trkpt lat="44.83958" lon="5.40584">
        <ele>1254.2</ele>
        <time>2021-10-08T12:40:03Z</time>
      </trkpt>
      <trkpt lat="44.83956" lon="5.40583">
        <ele>1254.2</ele>
        <time>2021-10-08T12:40:04Z</time>
      </trkpt>
      <trkpt lat="44.83955" lon="5.40583">
        <ele>1254.4</ele>
        <time>2021-10-08T12:40:05Z</time>
      </trkpt>
      <trkpt lat="44.83953" lon="5.40584">
        <ele>1254.8</ele>
        <time>2021-10-08T12:40:06Z</time>
      </trkpt>
      <trkpt lat="44.83952" lon="5.40585">
        <ele>1254.8</ele>
        <time>2021-10-08T12:40:07Z</time>
      </trkpt>
      <trkpt lat="44.8395" lon="5.40586">
        <ele>1254.8</ele>
        <time>2021-10-08T12:40:08Z</time>
      </trkpt>
      <trkpt lat="44.83949" lon="5.40587">
        <ele>1254.8</ele>
        <time>2021-10-08T12:40:09Z</time>
      </trkpt>
      <trkpt lat="44.83947" lon="5.40587">
        <ele>1254.6</ele>
        <time>2021-10-08T12:40:10Z</time>
      </trkpt>
      <trkpt lat="44.83945" lon="5.40588">
        <ele>1254.6</ele>
        <time>2021-10-08T12:40:11Z</time>
      </trkpt>
      <trkpt lat="44.83943" lon="5.40588">
        <ele>1254.6</ele>
        <time>2021-10-08T12:40:12Z</time>
      </trkpt>
      <trkpt lat="44.83942" lon="5.40589">
        <ele>1255</ele>
        <time>2021-10-08T12:40:13Z</time>
      </trkpt>
      <trkpt lat="44.8394" lon="5.4059">
        <ele>1255</ele>
        <time>2021-10-08T12:40:14Z</time>
      </trkpt>
      <trkpt lat="44.83938" lon="5.4059">
        <ele>1255</ele>
        <time>2021-10-08T12:40:15Z</time>
      </trkpt>
      <trkpt lat="44.83937" lon="5.40591">
        <ele>1255</ele>
        <time>2021-10-08T12:40:16Z</time>
      </trkpt>
      <trkpt lat="44.83935" lon="5.40591">
        <ele>1256</ele>
        <time>2021-10-08T12:40:17Z</time>
      </trkpt>
      <trkpt lat="44.83934" lon="5.40591">
        <ele>1255.8</ele>
        <time>2021-10-08T12:40:18Z</time>
      </trkpt>
      <trkpt lat="44.83932" lon="5.40591">
        <ele>1255.8</ele>
        <time>2021-10-08T12:40:19Z</time>
      </trkpt>
      <trkpt lat="44.83931" lon="5.40591">
        <ele>1255.8</ele>
        <time>2021-10-08T12:40:20Z</time>
      </trkpt>
      <trkpt lat="44.83929" lon="5.40592">
        <ele>1255.8</ele>
        <time>2021-10-08T12:40:21Z</time>
      </trkpt>
      <trkpt lat="44.83928" lon="5.40593">
        <ele>1256</ele>
        <time>2021-10-08T12:40:22Z</time>
      </trkpt>
      <trkpt lat="44.83926" lon="5.40594">
        <ele>1256</ele>
        <time>2021-10-08T12:40:23Z</time>
      </trkpt>
      <trkpt lat="44.83925" lon="5.40595">
        <ele>1256</ele>
        <time>2021-10-08T12:40:24Z</time>
      </trkpt>
      <trkpt lat="44.83924" lon="5.40596">
        <ele>1256</ele>
        <time>2021-10-08T12:40:25Z</time>
      </trkpt>
      <trkpt lat="44.83922" lon="5.40597">
        <ele>1256.8</ele>
        <time>2021-10-08T12:40:26Z</time>
      </trkpt>
      <trkpt lat="44.8392" lon="5.40597">
        <ele>1256.8</ele>
        <time>2021-10-08T12:40:27Z</time>
      </trkpt>
      <trkpt lat="44.83919" lon="5.40598">
        <ele>1256.8</ele>
        <time>2021-10-08T12:40:28Z</time>
      </trkpt>
      <trkpt lat="44.83917" lon="5.40599">
        <ele>1256.8</ele>
        <time>2021-10-08T12:40:29Z</time>
      </trkpt>
      <trkpt lat="44.83916" lon="5.406">
        <ele>1257</ele>
        <time>2021-10-08T12:40:30Z</time>
      </trkpt>
      <trkpt lat="44.83915" lon="5.40601">
        <ele>1257</ele>
        <time>2021-10-08T12:40:31Z</time>
      </trkpt>
      <trkpt lat="44.83913" lon="5.40602">
        <ele>1257</ele>
        <time>2021-10-08T12:40:32Z</time>
      </trkpt>
      <trkpt lat="44.83912" lon="5.40602">
        <ele>1257</ele>
        <time>2021-10-08T12:40:33Z</time>
      </trkpt>
      <trkpt lat="44.8391" lon="5.40603">
        <ele>1257.6</ele>
        <time>2021-10-08T12:40:34Z</time>
      </trkpt>
      <trkpt lat="44.83908" lon="5.40604">
        <ele>1257.6</ele>
        <time>2021-10-08T12:40:35Z</time>
      </trkpt>
      <trkpt lat="44.83907" lon="5.40605">
        <ele>1257.6</ele>
        <time>2021-10-08T12:40:36Z</time>
      </trkpt>
      <trkpt lat="44.83906" lon="5.40606">
        <ele>1257.6</ele>
        <time>2021-10-08T12:40:37Z</time>
      </trkpt>
      <trkpt lat="44.83904" lon="5.40607">
        <ele>1258</ele>
        <time>2021-10-08T12:40:38Z</time>
      </trkpt>
      <trkpt lat="44.83903" lon="5.40608">
        <ele>1258</ele>
        <time>2021-10-08T12:40:39Z</time>
      </trkpt>
      <trkpt lat="44.83902" lon="5.40609">
        <ele>1258</ele>
        <time>2021-10-08T12:40:40Z</time>
      </trkpt>
      <trkpt lat="44.839" lon="5.4061">
        <ele>1258.2</ele>
        <time>2021-10-08T12:40:41Z</time>
      </trkpt>
      <trkpt lat="44.83899" lon="5.40612">
        <ele>1258</ele>
        <time>2021-10-08T12:40:42Z</time>
      </trkpt>
      <trkpt lat="44.83898" lon="5.40613">
        <ele>1258</ele>
        <time>2021-10-08T12:40:43Z</time>
      </trkpt>
      <trkpt lat="44.83896" lon="5.40614">
        <ele>1258</ele>
        <time>2021-10-08T12:40:44Z</time>
      </trkpt>
      <trkpt lat="44.83895" lon="5.40615">
        <ele>1258.4</ele>
        <time>2021-10-08T12:40:45Z</time>
      </trkpt>
      <trkpt lat="44.83894" lon="5.40616">
        <ele>1258.6</ele>
        <time>2021-10-08T12:40:46Z</time>
      </trkpt>
      <trkpt lat="44.83892" lon="5.40617">
        <ele>1258.6</ele>
        <time>2021-10-08T12:40:47Z</time>
      </trkpt>
      <trkpt lat="44.83891" lon="5.40618">
        <ele>1258.6</ele>
        <time>2021-10-08T12:40:48Z</time>
      </trkpt>
      <trkpt lat="44.8389" lon="5.40619">
        <ele>1258.6</ele>
        <time>2021-10-08T12:40:49Z</time>
      </trkpt>
      <trkpt lat="44.83888" lon="5.4062">
        <ele>1258.6</ele>
        <time>2021-10-08T12:40:50Z</time>
      </trkpt>
      <trkpt lat="44.83886" lon="5.40621">
        <ele>1259</ele>
        <time>2021-10-08T12:40:51Z</time>
      </trkpt>
      <trkpt lat="44.83885" lon="5.40621">
        <ele>1259</ele>
        <time>2021-10-08T12:40:52Z</time>
      </trkpt>
      <trkpt lat="44.83883" lon="5.40622">
        <ele>1259.8</ele>
        <time>2021-10-08T12:40:53Z</time>
      </trkpt>
      <trkpt lat="44.83882" lon="5.40623">
        <ele>1259.6</ele>
        <time>2021-10-08T12:40:54Z</time>
      </trkpt>
      <trkpt lat="44.8388" lon="5.40624">
        <ele>1259.6</ele>
        <time>2021-10-08T12:40:55Z</time>
      </trkpt>
      <trkpt lat="44.83879" lon="5.40624">
        <ele>1259.6</ele>
        <time>2021-10-08T12:40:56Z</time>
      </trkpt>
      <trkpt lat="44.83877" lon="5.40625">
        <ele>1259.6</ele>
        <time>2021-10-08T12:40:57Z</time>
      </trkpt>
      <trkpt lat="44.83875" lon="5.40625">
        <ele>1260.2</ele>
        <time>2021-10-08T12:40:58Z</time>
      </trkpt>
      <trkpt lat="44.83874" lon="5.40626">
        <ele>1260.2</ele>
        <time>2021-10-08T12:40:59Z</time>
      </trkpt>
      <trkpt lat="44.83872" lon="5.40627">
        <ele>1260.2</ele>
        <time>2021-10-08T12:41:00Z</time>
      </trkpt>
      <trkpt lat="44.83871" lon="5.40628">
        <ele>1260.2</ele>
        <time>2021-10-08T12:41:01Z</time>
      </trkpt>
      <trkpt lat="44.83869" lon="5.40628">
        <ele>1260.4</ele>
        <time>2021-10-08T12:41:02Z</time>
      </trkpt>
      <trkpt lat="44.83867" lon="5.40628">
        <ele>1260.4</ele>
        <time>2021-10-08T12:41:03Z</time>
      </trkpt>
      <trkpt lat="44.83866" lon="5.40629">
        <ele>1260.4</ele>
        <time>2021-10-08T12:41:04Z</time>
      </trkpt>
      <trkpt lat="44.83864" lon="5.40629">
        <ele>1260.6</ele>
        <time>2021-10-08T12:41:05Z</time>
      </trkpt>
      <trkpt lat="44.83863" lon="5.40629">
        <ele>1261</ele>
        <time>2021-10-08T12:41:06Z</time>
      </trkpt>
      <trkpt lat="44.83861" lon="5.40629">
        <ele>1261</ele>
        <time>2021-10-08T12:41:07Z</time>
      </trkpt>
      <trkpt lat="44.8386" lon="5.40629">
        <ele>1261</ele>
        <time>2021-10-08T12:41:08Z</time>
      </trkpt>
      <trkpt lat="44.83858" lon="5.40629">
        <ele>1261.6</ele>
        <time>2021-10-08T12:41:09Z</time>
      </trkpt>
      <trkpt lat="44.83857" lon="5.4063">
        <ele>1261.6</ele>
        <time>2021-10-08T12:41:10Z</time>
      </trkpt>
      <trkpt lat="44.83855" lon="5.4063">
        <ele>1261.6</ele>
        <time>2021-10-08T12:41:11Z</time>
      </trkpt>
      <trkpt lat="44.83854" lon="5.4063">
        <ele>1261.6</ele>
        <time>2021-10-08T12:41:12Z</time>
      </trkpt>
      <trkpt lat="44.83853" lon="5.4063">
        <ele>1261.6</ele>
        <time>2021-10-08T12:41:13Z</time>
      </trkpt>
      <trkpt lat="44.83851" lon="5.4063">
        <ele>1262</ele>
        <time>2021-10-08T12:41:14Z</time>
      </trkpt>
      <trkpt lat="44.8385" lon="5.4063">
        <ele>1262</ele>
        <time>2021-10-08T12:41:15Z</time>
      </trkpt>
      <trkpt lat="44.83849" lon="5.4063">
        <ele>1262</ele>
        <time>2021-10-08T12:41:16Z</time>
      </trkpt>
      <trkpt lat="44.83847" lon="5.4063">
        <ele>1262.6</ele>
        <time>2021-10-08T12:41:17Z</time>
      </trkpt>
      <trkpt lat="44.83846" lon="5.4063">
        <ele>1262.8</ele>
        <time>2021-10-08T12:41:18Z</time>
      </trkpt>
      <trkpt lat="44.83845" lon="5.40629">
        <ele>1262.8</ele>
        <time>2021-10-08T12:41:19Z</time>
      </trkpt>
      <trkpt lat="44.83844" lon="5.40629">
        <ele>1262.8</ele>
        <time>2021-10-08T12:41:20Z</time>
      </trkpt>
      <trkpt lat="44.83842" lon="5.40628">
        <ele>1263.2</ele>
        <time>2021-10-08T12:41:21Z</time>
      </trkpt>
      <trkpt lat="44.83842" lon="5.40627">
        <ele>1263</ele>
        <time>2021-10-08T12:41:22Z</time>
      </trkpt>
      <trkpt lat="44.83841" lon="5.40627">
        <ele>1263</ele>
        <time>2021-10-08T12:41:23Z</time>
      </trkpt>
      <trkpt lat="44.8384" lon="5.40627">
        <ele>1263</ele>
        <time>2021-10-08T12:41:24Z</time>
      </trkpt>
      <trkpt lat="44.83839" lon="5.40627">
        <ele>1263</ele>
        <time>2021-10-08T12:41:25Z</time>
      </trkpt>
      <trkpt lat="44.83838" lon="5.40628">
        <ele>1263.8</ele>
        <time>2021-10-08T12:41:26Z</time>
      </trkpt>
      <trkpt lat="44.83837" lon="5.40628">
        <ele>1263.8</ele>
        <time>2021-10-08T12:41:27Z</time>
      </trkpt>
      <trkpt lat="44.83837" lon="5.40628">
        <ele>1263.8</ele>
        <time>2021-10-08T12:41:28Z</time>
      </trkpt>
      <trkpt lat="44.83837" lon="5.40628">
        <ele>1263.8</ele>
        <time>2021-10-08T12:41:29Z</time>
      </trkpt>
      <trkpt lat="44.83837" lon="5.40628">
        <ele>1264.2</ele>
        <time>2021-10-08T12:41:30Z</time>
      </trkpt>
      <trkpt lat="44.8384" lon="5.4062">
        <ele>1264</ele>
        <time>2021-10-08T12:42:14Z</time>
      </trkpt>
      <trkpt lat="44.83839" lon="5.40619">
        <ele>1264</ele>
        <time>2021-10-08T12:42:15Z</time>
      </trkpt>
      <trkpt lat="44.83837" lon="5.40619">
        <ele>1264</ele>
        <time>2021-10-08T12:42:16Z</time>
      </trkpt>
      <trkpt lat="44.83837" lon="5.4062">
        <ele>1264</ele>
        <time>2021-10-08T12:42:17Z</time>
      </trkpt>
      <trkpt lat="44.83837" lon="5.40623">
        <ele>1264</ele>
        <time>2021-10-08T12:42:18Z</time>
      </trkpt>
      <trkpt lat="44.83837" lon="5.40625">
        <ele>1264.4</ele>
        <time>2021-10-08T12:42:19Z</time>
      </trkpt>
      <trkpt lat="44.83836" lon="5.40627">
        <ele>1264.4</ele>
        <time>2021-10-08T12:42:20Z</time>
      </trkpt>
      <trkpt lat="44.83836" lon="5.40629">
        <ele>1264.4</ele>
        <time>2021-10-08T12:42:21Z</time>
      </trkpt>
      <trkpt lat="44.83835" lon="5.40631">
        <ele>1264.6</ele>
        <time>2021-10-08T12:42:22Z</time>
      </trkpt>
      <trkpt lat="44.83834" lon="5.40632">
        <ele>1264.6</ele>
        <time>2021-10-08T12:42:23Z</time>
      </trkpt>
      <trkpt lat="44.83834" lon="5.40633">
        <ele>1264.6</ele>
        <time>2021-10-08T12:42:24Z</time>
      </trkpt>
      <trkpt lat="44.83833" lon="5.40635">
        <ele>1264.4</ele>
        <time>2021-10-08T12:42:25Z</time>
      </trkpt>
      <trkpt lat="44.83832" lon="5.40636">
        <ele>1264.4</ele>
        <time>2021-10-08T12:42:26Z</time>
      </trkpt>
      <trkpt lat="44.83831" lon="5.40638">
        <ele>1264.4</ele>
        <time>2021-10-08T12:42:27Z</time>
      </trkpt>
      <trkpt lat="44.8383" lon="5.40639">
        <ele>1264.4</ele>
        <time>2021-10-08T12:42:28Z</time>
      </trkpt>
      <trkpt lat="44.83829" lon="5.4064">
        <ele>1264.4</ele>
        <time>2021-10-08T12:42:29Z</time>
      </trkpt>
      <trkpt lat="44.83829" lon="5.40642">
        <ele>1264.6</ele>
        <time>2021-10-08T12:42:30Z</time>
      </trkpt>
      <trkpt lat="44.83828" lon="5.40643">
        <ele>1264.6</ele>
        <time>2021-10-08T12:42:31Z</time>
      </trkpt>
      <trkpt lat="44.83827" lon="5.40645">
        <ele>1264.6</ele>
        <time>2021-10-08T12:42:32Z</time>
      </trkpt>
      <trkpt lat="44.83826" lon="5.40646">
        <ele>1265.4</ele>
        <time>2021-10-08T12:42:33Z</time>
      </trkpt>
      <trkpt lat="44.83825" lon="5.40647">
        <ele>1265.6</ele>
        <time>2021-10-08T12:42:34Z</time>
      </trkpt>
      <trkpt lat="44.83823" lon="5.40648">
        <ele>1265.6</ele>
        <time>2021-10-08T12:42:35Z</time>
      </trkpt>
      <trkpt lat="44.83822" lon="5.40649">
        <ele>1265.6</ele>
        <time>2021-10-08T12:42:36Z</time>
      </trkpt>
      <trkpt lat="44.8382" lon="5.40649">
        <ele>1265.6</ele>
        <time>2021-10-08T12:42:37Z</time>
      </trkpt>
      <trkpt lat="44.83819" lon="5.40649">
        <ele>1265.8</ele>
        <time>2021-10-08T12:42:38Z</time>
      </trkpt>
      <trkpt lat="44.83817" lon="5.40649">
        <ele>1265.8</ele>
        <time>2021-10-08T12:42:39Z</time>
      </trkpt>
      <trkpt lat="44.83816" lon="5.40649">
        <ele>1265.8</ele>
        <time>2021-10-08T12:42:40Z</time>
      </trkpt>
      <trkpt lat="44.83815" lon="5.40648">
        <ele>1266.6</ele>
        <time>2021-10-08T12:42:41Z</time>
      </trkpt>
      <trkpt lat="44.83813" lon="5.40648">
        <ele>1267</ele>
        <time>2021-10-08T12:42:42Z</time>
      </trkpt>
      <trkpt lat="44.83811" lon="5.40647">
        <ele>1267</ele>
        <time>2021-10-08T12:42:43Z</time>
      </trkpt>
      <trkpt lat="44.8381" lon="5.40648">
        <ele>1267</ele>
        <time>2021-10-08T12:42:44Z</time>
      </trkpt>
      <trkpt lat="44.83808" lon="5.40647">
        <ele>1268</ele>
        <time>2021-10-08T12:42:45Z</time>
      </trkpt>
      <trkpt lat="44.83807" lon="5.40647">
        <ele>1268.2</ele>
        <time>2021-10-08T12:42:46Z</time>
      </trkpt>
      <trkpt lat="44.83805" lon="5.40647">
        <ele>1268.2</ele>
        <time>2021-10-08T12:42:47Z</time>
      </trkpt>
      <trkpt lat="44.83804" lon="5.40647">
        <ele>1268.2</ele>
        <time>2021-10-08T12:42:48Z</time>
      </trkpt>
      <trkpt lat="44.83802" lon="5.40646">
        <ele>1268.2</ele>
        <time>2021-10-08T12:42:49Z</time>
      </trkpt>
      <trkpt lat="44.83801" lon="5.40646">
        <ele>1268.6</ele>
        <time>2021-10-08T12:42:50Z</time>
      </trkpt>
      <trkpt lat="44.83799" lon="5.40645">
        <ele>1268.6</ele>
        <time>2021-10-08T12:42:51Z</time>
      </trkpt>
      <trkpt lat="44.83798" lon="5.40645">
        <ele>1268.6</ele>
        <time>2021-10-08T12:42:52Z</time>
      </trkpt>
      <trkpt lat="44.83796" lon="5.40645">
        <ele>1269</ele>
        <time>2021-10-08T12:42:53Z</time>
      </trkpt>
      <trkpt lat="44.83795" lon="5.40645">
        <ele>1268.8</ele>
        <time>2021-10-08T12:42:54Z</time>
      </trkpt>
      <trkpt lat="44.83793" lon="5.40644">
        <ele>1268.8</ele>
        <time>2021-10-08T12:42:55Z</time>
      </trkpt>
      <trkpt lat="44.83792" lon="5.40644">
        <ele>1268.8</ele>
        <time>2021-10-08T12:42:56Z</time>
      </trkpt>
      <trkpt lat="44.83791" lon="5.40644">
        <ele>1269.8</ele>
        <time>2021-10-08T12:42:57Z</time>
      </trkpt>
      <trkpt lat="44.8379" lon="5.40644">
        <ele>1269.6</ele>
        <time>2021-10-08T12:42:58Z</time>
      </trkpt>
      <trkpt lat="44.83788" lon="5.40644">
        <ele>1269.6</ele>
        <time>2021-10-08T12:42:59Z</time>
      </trkpt>
      <trkpt lat="44.83787" lon="5.40644">
        <ele>1269.6</ele>
        <time>2021-10-08T12:43:00Z</time>
      </trkpt>
      <trkpt lat="44.83786" lon="5.40644">
        <ele>1269.6</ele>
        <time>2021-10-08T12:43:01Z</time>
      </trkpt>
      <trkpt lat="44.83784" lon="5.40644">
        <ele>1270.2</ele>
        <time>2021-10-08T12:43:02Z</time>
      </trkpt>
      <trkpt lat="44.83783" lon="5.40644">
        <ele>1270.2</ele>
        <time>2021-10-08T12:43:03Z</time>
      </trkpt>
      <trkpt lat="44.83782" lon="5.40644">
        <ele>1270.2</ele>
        <time>2021-10-08T12:43:04Z</time>
      </trkpt>
      <trkpt lat="44.8378" lon="5.40644">
        <ele>1270.8</ele>
        <time>2021-10-08T12:43:05Z</time>
      </trkpt>
      <trkpt lat="44.83779" lon="5.40644">
        <ele>1270.8</ele>
        <time>2021-10-08T12:43:06Z</time>
      </trkpt>
      <trkpt lat="44.83778" lon="5.40645">
        <ele>1270.8</ele>
        <time>2021-10-08T12:43:07Z</time>
      </trkpt>
      <trkpt lat="44.83777" lon="5.40645">
        <ele>1270.8</ele>
        <time>2021-10-08T12:43:08Z</time>
      </trkpt>
      <trkpt lat="44.83775" lon="5.40645">
        <ele>1271.2</ele>
        <time>2021-10-08T12:43:09Z</time>
      </trkpt>
      <trkpt lat="44.83774" lon="5.40645">
        <ele>1271.6</ele>
        <time>2021-10-08T12:43:10Z</time>
      </trkpt>
      <trkpt lat="44.83773" lon="5.40646">
        <ele>1271.6</ele>
        <time>2021-10-08T12:43:11Z</time>
      </trkpt>
      <trkpt lat="44.83771" lon="5.40646">
        <ele>1271.6</ele>
        <time>2021-10-08T12:43:12Z</time>
      </trkpt>
      <trkpt lat="44.8377" lon="5.40647">
        <ele>1271.6</ele>
        <time>2021-10-08T12:43:13Z</time>
      </trkpt>
      <trkpt lat="44.83769" lon="5.40647">
        <ele>1272</ele>
        <time>2021-10-08T12:43:14Z</time>
      </trkpt>
      <trkpt lat="44.83768" lon="5.40647">
        <ele>1272</ele>
        <time>2021-10-08T12:43:15Z</time>
      </trkpt>
      <trkpt lat="44.83767" lon="5.40647">
        <ele>1272</ele>
        <time>2021-10-08T12:43:16Z</time>
      </trkpt>
      <trkpt lat="44.83765" lon="5.40647">
        <ele>1273</ele>
        <time>2021-10-08T12:43:17Z</time>
      </trkpt>
      <trkpt lat="44.83764" lon="5.40647">
        <ele>1273.2</ele>
        <time>2021-10-08T12:43:18Z</time>
      </trkpt>
      <trkpt lat="44.83763" lon="5.40648">
        <ele>1273.2</ele>
        <time>2021-10-08T12:43:19Z</time>
      </trkpt>
      <trkpt lat="44.83762" lon="5.40648">
        <ele>1273.2</ele>
        <time>2021-10-08T12:43:20Z</time>
      </trkpt>
      <trkpt lat="44.8376" lon="5.40648">
        <ele>1273.6</ele>
        <time>2021-10-08T12:43:21Z</time>
      </trkpt>
      <trkpt lat="44.83759" lon="5.40648">
        <ele>1273.8</ele>
        <time>2021-10-08T12:43:22Z</time>
      </trkpt>
      <trkpt lat="44.83758" lon="5.40648">
        <ele>1273.8</ele>
        <time>2021-10-08T12:43:23Z</time>
      </trkpt>
      <trkpt lat="44.83757" lon="5.40648">
        <ele>1273.8</ele>
        <time>2021-10-08T12:43:24Z</time>
      </trkpt>
      <trkpt lat="44.83756" lon="5.40648">
        <ele>1273.8</ele>
        <time>2021-10-08T12:43:25Z</time>
      </trkpt>
      <trkpt lat="44.83754" lon="5.40648">
        <ele>1274.4</ele>
        <time>2021-10-08T12:43:26Z</time>
      </trkpt>
      <trkpt lat="44.83753" lon="5.40648">
        <ele>1274.4</ele>
        <time>2021-10-08T12:43:27Z</time>
      </trkpt>
      <trkpt lat="44.83752" lon="5.40648">
        <ele>1274.4</ele>
        <time>2021-10-08T12:43:28Z</time>
      </trkpt>
      <trkpt lat="44.83751" lon="5.40648">
        <ele>1275</ele>
        <time>2021-10-08T12:43:29Z</time>
      </trkpt>
      <trkpt lat="44.8375" lon="5.40648">
        <ele>1275</ele>
        <time>2021-10-08T12:43:30Z</time>
      </trkpt>
      <trkpt lat="44.83749" lon="5.40648">
        <ele>1275</ele>
        <time>2021-10-08T12:43:31Z</time>
      </trkpt>
      <trkpt lat="44.83748" lon="5.40648">
        <ele>1275</ele>
        <time>2021-10-08T12:43:32Z</time>
      </trkpt>
      <trkpt lat="44.83747" lon="5.40648">
        <ele>1275.2</ele>
        <time>2021-10-08T12:43:33Z</time>
      </trkpt>
      <trkpt lat="44.83746" lon="5.40648">
        <ele>1275.8</ele>
        <time>2021-10-08T12:43:34Z</time>
      </trkpt>
      <trkpt lat="44.83745" lon="5.40648">
        <ele>1275.8</ele>
        <time>2021-10-08T12:43:35Z</time>
      </trkpt>
      <trkpt lat="44.83744" lon="5.40648">
        <ele>1275.8</ele>
        <time>2021-10-08T12:43:36Z</time>
      </trkpt>
      <trkpt lat="44.83743" lon="5.40649">
        <ele>1276.4</ele>
        <time>2021-10-08T12:43:37Z</time>
      </trkpt>
      <trkpt lat="44.83742" lon="5.40649">
        <ele>1276.6</ele>
        <time>2021-10-08T12:43:38Z</time>
      </trkpt>
      <trkpt lat="44.8374" lon="5.40649">
        <ele>1276.6</ele>
        <time>2021-10-08T12:43:39Z</time>
      </trkpt>
      <trkpt lat="44.83739" lon="5.40649">
        <ele>1276.6</ele>
        <time>2021-10-08T12:43:40Z</time>
      </trkpt>
      <trkpt lat="44.83738" lon="5.40649">
        <ele>1277.2</ele>
        <time>2021-10-08T12:43:41Z</time>
      </trkpt>
      <trkpt lat="44.83737" lon="5.40649">
        <ele>1277.2</ele>
        <time>2021-10-08T12:43:42Z</time>
      </trkpt>
      <trkpt lat="44.83736" lon="5.40649">
        <ele>1277.2</ele>
        <time>2021-10-08T12:43:43Z</time>
      </trkpt>
      <trkpt lat="44.83735" lon="5.40649">
        <ele>1277.2</ele>
        <time>2021-10-08T12:43:44Z</time>
      </trkpt>
      <trkpt lat="44.83734" lon="5.40649">
        <ele>1277.8</ele>
        <time>2021-10-08T12:43:45Z</time>
      </trkpt>
      <trkpt lat="44.83733" lon="5.40649">
        <ele>1277.8</ele>
        <time>2021-10-08T12:43:46Z</time>
      </trkpt>
      <trkpt lat="44.83731" lon="5.40649">
        <ele>1277.8</ele>
        <time>2021-10-08T12:43:47Z</time>
      </trkpt>
      <trkpt lat="44.8373" lon="5.4065">
        <ele>1277.8</ele>
        <time>2021-10-08T12:43:48Z</time>
      </trkpt>
      <trkpt lat="44.83729" lon="5.4065">
        <ele>1277.8</ele>
        <time>2021-10-08T12:43:49Z</time>
      </trkpt>
      <trkpt lat="44.83728" lon="5.40651">
        <ele>1277.8</ele>
        <time>2021-10-08T12:43:50Z</time>
      </trkpt>
      <trkpt lat="44.83727" lon="5.40651">
        <ele>1278.8</ele>
        <time>2021-10-08T12:43:51Z</time>
      </trkpt>
      <trkpt lat="44.83726" lon="5.40651">
        <ele>1278.8</ele>
        <time>2021-10-08T12:43:52Z</time>
      </trkpt>
      <trkpt lat="44.83725" lon="5.40651">
        <ele>1279</ele>
        <time>2021-10-08T12:43:53Z</time>
      </trkpt>
      <trkpt lat="44.83724" lon="5.40651">
        <ele>1279.2</ele>
        <time>2021-10-08T12:43:54Z</time>
      </trkpt>
      <trkpt lat="44.83723" lon="5.40651">
        <ele>1279.2</ele>
        <time>2021-10-08T12:43:55Z</time>
      </trkpt>
      <trkpt lat="44.83722" lon="5.40651">
        <ele>1279.2</ele>
        <time>2021-10-08T12:43:56Z</time>
      </trkpt>
      <trkpt lat="44.83721" lon="5.40651">
        <ele>1279.4</ele>
        <time>2021-10-08T12:43:57Z</time>
      </trkpt>
      <trkpt lat="44.8372" lon="5.40651">
        <ele>1280.2</ele>
        <time>2021-10-08T12:43:58Z</time>
      </trkpt>
      <trkpt lat="44.83719" lon="5.40651">
        <ele>1280.2</ele>
        <time>2021-10-08T12:43:59Z</time>
      </trkpt>
      <trkpt lat="44.83717" lon="5.40651">
        <ele>1280.2</ele>
        <time>2021-10-08T12:44:00Z</time>
      </trkpt>
      <trkpt lat="44.83716" lon="5.40651">
        <ele>1280.4</ele>
        <time>2021-10-08T12:44:01Z</time>
      </trkpt>
      <trkpt lat="44.83715" lon="5.40652">
        <ele>1280.4</ele>
        <time>2021-10-08T12:44:02Z</time>
      </trkpt>
      <trkpt lat="44.83714" lon="5.40652">
        <ele>1280.4</ele>
        <time>2021-10-08T12:44:03Z</time>
      </trkpt>
      <trkpt lat="44.83713" lon="5.40652">
        <ele>1280.4</ele>
        <time>2021-10-08T12:44:04Z</time>
      </trkpt>
      <trkpt lat="44.83712" lon="5.40653">
        <ele>1280.4</ele>
        <time>2021-10-08T12:44:05Z</time>
      </trkpt>
      <trkpt lat="44.83711" lon="5.40653">
        <ele>1281.6</ele>
        <time>2021-10-08T12:44:06Z</time>
      </trkpt>
      <trkpt lat="44.8371" lon="5.40653">
        <ele>1281.6</ele>
        <time>2021-10-08T12:44:07Z</time>
      </trkpt>
      <trkpt lat="44.83709" lon="5.40653">
        <ele>1281.6</ele>
        <time>2021-10-08T12:44:08Z</time>
      </trkpt>
      <trkpt lat="44.83708" lon="5.40653">
        <ele>1281.6</ele>
        <time>2021-10-08T12:44:09Z</time>
      </trkpt>
      <trkpt lat="44.83707" lon="5.40654">
        <ele>1282.2</ele>
        <time>2021-10-08T12:44:10Z</time>
      </trkpt>
      <trkpt lat="44.83706" lon="5.40654">
        <ele>1282.2</ele>
        <time>2021-10-08T12:44:11Z</time>
      </trkpt>
      <trkpt lat="44.83705" lon="5.40654">
        <ele>1282.2</ele>
        <time>2021-10-08T12:44:12Z</time>
      </trkpt>
      <trkpt lat="44.83704" lon="5.40654">
        <ele>1282.2</ele>
        <time>2021-10-08T12:44:13Z</time>
      </trkpt>
      <trkpt lat="44.83703" lon="5.40654">
        <ele>1282.8</ele>
        <time>2021-10-08T12:44:14Z</time>
      </trkpt>
      <trkpt lat="44.83702" lon="5.40655">
        <ele>1282.8</ele>
        <time>2021-10-08T12:44:15Z</time>
      </trkpt>
      <trkpt lat="44.83701" lon="5.40656">
        <ele>1282.8</ele>
        <time>2021-10-08T12:44:16Z</time>
      </trkpt>
      <trkpt lat="44.837" lon="5.40656">
        <ele>1282.8</ele>
        <time>2021-10-08T12:44:17Z</time>
      </trkpt>
      <trkpt lat="44.83699" lon="5.40656">
        <ele>1283.2</ele>
        <time>2021-10-08T12:44:18Z</time>
      </trkpt>
      <trkpt lat="44.83697" lon="5.40657">
        <ele>1283.2</ele>
        <time>2021-10-08T12:44:19Z</time>
      </trkpt>
      <trkpt lat="44.83697" lon="5.40657">
        <ele>1283.2</ele>
        <time>2021-10-08T12:44:20Z</time>
      </trkpt>
      <trkpt lat="44.83696" lon="5.40658">
        <ele>1283.8</ele>
        <time>2021-10-08T12:44:21Z</time>
      </trkpt>
      <trkpt lat="44.83695" lon="5.40658">
        <ele>1284.4</ele>
        <time>2021-10-08T12:44:22Z</time>
      </trkpt>
      <trkpt lat="44.83694" lon="5.40658">
        <ele>1284.4</ele>
        <time>2021-10-08T12:44:23Z</time>
      </trkpt>
      <trkpt lat="44.83693" lon="5.40659">
        <ele>1284.4</ele>
        <time>2021-10-08T12:44:24Z</time>
      </trkpt>
      <trkpt lat="44.83692" lon="5.40659">
        <ele>1284.4</ele>
        <time>2021-10-08T12:44:25Z</time>
      </trkpt>
      <trkpt lat="44.83691" lon="5.4066">
        <ele>1285.2</ele>
        <time>2021-10-08T12:44:26Z</time>
      </trkpt>
      <trkpt lat="44.8369" lon="5.4066">
        <ele>1285.2</ele>
        <time>2021-10-08T12:44:27Z</time>
      </trkpt>
      <trkpt lat="44.83689" lon="5.4066">
        <ele>1285.2</ele>
        <time>2021-10-08T12:44:28Z</time>
      </trkpt>
      <trkpt lat="44.83688" lon="5.40661">
        <ele>1286.2</ele>
        <time>2021-10-08T12:44:29Z</time>
      </trkpt>
      <trkpt lat="44.83687" lon="5.40661">
        <ele>1285.6</ele>
        <time>2021-10-08T12:44:30Z</time>
      </trkpt>
      <trkpt lat="44.83686" lon="5.40662">
        <ele>1285.6</ele>
        <time>2021-10-08T12:44:31Z</time>
      </trkpt>
      <trkpt lat="44.83685" lon="5.40662">
        <ele>1285.6</ele>
        <time>2021-10-08T12:44:32Z</time>
      </trkpt>
      <trkpt lat="44.83684" lon="5.40663">
        <ele>1286.4</ele>
        <time>2021-10-08T12:44:33Z</time>
      </trkpt>
      <trkpt lat="44.83683" lon="5.40663">
        <ele>1287</ele>
        <time>2021-10-08T12:44:34Z</time>
      </trkpt>
      <trkpt lat="44.83682" lon="5.40664">
        <ele>1287</ele>
        <time>2021-10-08T12:44:35Z</time>
      </trkpt>
      <trkpt lat="44.83681" lon="5.40664">
        <ele>1287</ele>
        <time>2021-10-08T12:44:36Z</time>
      </trkpt>
      <trkpt lat="44.83681" lon="5.40664">
        <ele>1287</ele>
        <time>2021-10-08T12:44:37Z</time>
      </trkpt>
      <trkpt lat="44.8368" lon="5.40665">
        <ele>1287.4</ele>
        <time>2021-10-08T12:44:38Z</time>
      </trkpt>
      <trkpt lat="44.83679" lon="5.40665">
        <ele>1287.4</ele>
        <time>2021-10-08T12:44:39Z</time>
      </trkpt>
      <trkpt lat="44.83678" lon="5.40665">
        <ele>1287.4</ele>
        <time>2021-10-08T12:44:40Z</time>
      </trkpt>
      <trkpt lat="44.83677" lon="5.40665">
        <ele>1288.2</ele>
        <time>2021-10-08T12:44:41Z</time>
      </trkpt>
      <trkpt lat="44.83676" lon="5.40666">
        <ele>1288.4</ele>
        <time>2021-10-08T12:44:42Z</time>
      </trkpt>
      <trkpt lat="44.83675" lon="5.40666">
        <ele>1288.4</ele>
        <time>2021-10-08T12:44:43Z</time>
      </trkpt>
      <trkpt lat="44.83674" lon="5.40667">
        <ele>1288.4</ele>
        <time>2021-10-08T12:44:44Z</time>
      </trkpt>
      <trkpt lat="44.83673" lon="5.40667">
        <ele>1288.4</ele>
        <time>2021-10-08T12:44:45Z</time>
      </trkpt>
      <trkpt lat="44.83672" lon="5.40667">
        <ele>1288.6</ele>
        <time>2021-10-08T12:44:46Z</time>
      </trkpt>
      <trkpt lat="44.83671" lon="5.40667">
        <ele>1288.6</ele>
        <time>2021-10-08T12:44:47Z</time>
      </trkpt>
      <trkpt lat="44.83671" lon="5.40668">
        <ele>1288.6</ele>
        <time>2021-10-08T12:44:48Z</time>
      </trkpt>
      <trkpt lat="44.83931" lon="5.41091">
        <ele>1438.4</ele>
        <time>2021-10-08T13:06:06Z</time>
      </trkpt>
      <trkpt lat="44.83929" lon="5.41092">
        <ele>1438.4</ele>
        <time>2021-10-08T13:06:07Z</time>
      </trkpt>
      <trkpt lat="44.83928" lon="5.41092">
        <ele>1438.4</ele>
        <time>2021-10-08T13:06:08Z</time>
      </trkpt>
      <trkpt lat="44.83927" lon="5.41092">
        <ele>1438.4</ele>
        <time>2021-10-08T13:06:09Z</time>
      </trkpt>
      <trkpt lat="44.83925" lon="5.41093">
        <ele>1438.8</ele>
        <time>2021-10-08T13:06:10Z</time>
      </trkpt>
      <trkpt lat="44.83924" lon="5.41093">
        <ele>1438.8</ele>
        <time>2021-10-08T13:06:11Z</time>
      </trkpt>
      <trkpt lat="44.83922" lon="5.41093">
        <ele>1438.8</ele>
        <time>2021-10-08T13:06:12Z</time>
      </trkpt>
      <trkpt lat="44.83921" lon="5.41093">
        <ele>1438.2</ele>
        <time>2021-10-08T13:06:13Z</time>
      </trkpt>
      <trkpt lat="44.8392" lon="5.41093">
        <ele>1438.4</ele>
        <time>2021-10-08T13:06:14Z</time>
      </trkpt>
      <trkpt lat="44.83918" lon="5.41093">
        <ele>1438.4</ele>
        <time>2021-10-08T13:06:15Z</time>
      </trkpt>
      <trkpt lat="44.83917" lon="5.41094">
        <ele>1438.4</ele>
        <time>2021-10-08T13:06:16Z</time>
      </trkpt>
      <trkpt lat="44.83915" lon="5.41093">
        <ele>1438.4</ele>
        <time>2021-10-08T13:06:17Z</time>
      </trkpt>
      <trkpt lat="44.83914" lon="5.41093">
        <ele>1439</ele>
        <time>2021-10-08T13:06:18Z</time>
      </trkpt>
      <trkpt lat="44.83913" lon="5.41093">
        <ele>1439</ele>
        <time>2021-10-08T13:06:19Z</time>
      </trkpt>
      <trkpt lat="44.83911" lon="5.41093">
        <ele>1439</ele>
        <time>2021-10-08T13:06:20Z</time>
      </trkpt>
      <trkpt lat="44.8391" lon="5.41093">
        <ele>1438.8</ele>
        <time>2021-10-08T13:06:21Z</time>
      </trkpt>
      <trkpt lat="44.83909" lon="5.41093">
        <ele>1439</ele>
        <time>2021-10-08T13:06:22Z</time>
      </trkpt>
      <trkpt lat="44.83907" lon="5.41093">
        <ele>1439</ele>
        <time>2021-10-08T13:06:23Z</time>
      </trkpt>
      <trkpt lat="44.83906" lon="5.41093">
        <ele>1439</ele>
        <time>2021-10-08T13:06:24Z</time>
      </trkpt>
      <trkpt lat="44.83905" lon="5.41093">
        <ele>1439</ele>
        <time>2021-10-08T13:06:25Z</time>
      </trkpt>
      <trkpt lat="44.83903" lon="5.41093">
        <ele>1439.2</ele>
        <time>2021-10-08T13:06:26Z</time>
      </trkpt>
      <trkpt lat="44.83902" lon="5.41093">
        <ele>1439.2</ele>
        <time>2021-10-08T13:06:27Z</time>
      </trkpt>
      <trkpt lat="44.83901" lon="5.41094">
        <ele>1439.2</ele>
        <time>2021-10-08T13:06:28Z</time>
      </trkpt>
      <trkpt lat="44.83901" lon="5.41094">
        <ele>1439.2</ele>
        <time>2021-10-08T13:06:29Z</time>
      </trkpt>
      <trkpt lat="44.83901" lon="5.41094">
        <ele>1439</ele>
        <time>2021-10-08T13:06:30Z</time>
      </trkpt>
      <trkpt lat="44.839" lon="5.41094">
        <ele>1439</ele>
        <time>2021-10-08T13:06:31Z</time>
      </trkpt>
      <trkpt lat="44.83898" lon="5.41094">
        <ele>1439</ele>
        <time>2021-10-08T13:06:32Z</time>
      </trkpt>
      <trkpt lat="44.83897" lon="5.41094">
        <ele>1439</ele>
        <time>2021-10-08T13:06:33Z</time>
      </trkpt>
      <trkpt lat="44.83896" lon="5.41094">
        <ele>1439.4</ele>
        <time>2021-10-08T13:06:34Z</time>
      </trkpt>
      <trkpt lat="44.83895" lon="5.41094">
        <ele>1439.4</ele>
        <time>2021-10-08T13:06:35Z</time>
      </trkpt>
      <trkpt lat="44.83894" lon="5.41094">
        <ele>1439.4</ele>
        <time>2021-10-08T13:06:36Z</time>
      </trkpt>
      <trkpt lat="44.83893" lon="5.41094">
        <ele>1439.4</ele>
        <time>2021-10-08T13:06:37Z</time>
      </trkpt>
      <trkpt lat="44.83892" lon="5.41095">
        <ele>1440.2</ele>
        <time>2021-10-08T13:06:38Z</time>
      </trkpt>
      <trkpt lat="44.83891" lon="5.41095">
        <ele>1440.2</ele>
        <time>2021-10-08T13:06:39Z</time>
      </trkpt>
      <trkpt lat="44.8389" lon="5.41095">
        <ele>1440.2</ele>
        <time>2021-10-08T13:06:40Z</time>
      </trkpt>
      <trkpt lat="44.83888" lon="5.41095">
        <ele>1440.2</ele>
        <time>2021-10-08T13:06:41Z</time>
      </trkpt>
      <trkpt lat="44.83887" lon="5.41095">
        <ele>1440</ele>
        <time>2021-10-08T13:06:42Z</time>
      </trkpt>
      <trkpt lat="44.83886" lon="5.41095">
        <ele>1440</ele>
        <time>2021-10-08T13:06:43Z</time>
      </trkpt>
      <trkpt lat="44.83884" lon="5.41095">
        <ele>1440</ele>
        <time>2021-10-08T13:06:44Z</time>
      </trkpt>
      <trkpt lat="44.83883" lon="5.41095">
        <ele>1440</ele>
        <time>2021-10-08T13:06:45Z</time>
      </trkpt>
      <trkpt lat="44.83882" lon="5.41095">
        <ele>1440.2</ele>
        <time>2021-10-08T13:06:46Z</time>
      </trkpt>
      <trkpt lat="44.83881" lon="5.41095">
        <ele>1440.2</ele>
        <time>2021-10-08T13:06:47Z</time>
      </trkpt>
      <trkpt lat="44.83879" lon="5.41095">
        <ele>1440.2</ele>
        <time>2021-10-08T13:06:48Z</time>
      </trkpt>
      <trkpt lat="44.83878" lon="5.41095">
        <ele>1441</ele>
        <time>2021-10-08T13:06:49Z</time>
      </trkpt>
      <trkpt lat="44.83877" lon="5.41096">
        <ele>1441</ele>
        <time>2021-10-08T13:06:50Z</time>
      </trkpt>
      <trkpt lat="44.83876" lon="5.41096">
        <ele>1441</ele>
        <time>2021-10-08T13:06:51Z</time>
      </trkpt>
      <trkpt lat="44.83875" lon="5.41096">
        <ele>1441</ele>
        <time>2021-10-08T13:06:52Z</time>
      </trkpt>
      <trkpt lat="44.83874" lon="5.41096">
        <ele>1441</ele>
        <time>2021-10-08T13:06:53Z</time>
      </trkpt>
      <trkpt lat="44.83872" lon="5.41096">
        <ele>1441.8</ele>
        <time>2021-10-08T13:06:54Z</time>
      </trkpt>
      <trkpt lat="44.83871" lon="5.41096">
        <ele>1441.8</ele>
        <time>2021-10-08T13:06:55Z</time>
      </trkpt>
      <trkpt lat="44.8387" lon="5.41096">
        <ele>1441.8</ele>
        <time>2021-10-08T13:06:56Z</time>
      </trkpt>
      <trkpt lat="44.83869" lon="5.41096">
        <ele>1442.4</ele>
        <time>2021-10-08T13:06:57Z</time>
      </trkpt>
      <trkpt lat="44.83868" lon="5.41097">
        <ele>1441.8</ele>
        <time>2021-10-08T13:06:58Z</time>
      </trkpt>
      <trkpt lat="44.83867" lon="5.41097">
        <ele>1441.8</ele>
        <time>2021-10-08T13:06:59Z</time>
      </trkpt>
      <trkpt lat="44.83866" lon="5.41097">
        <ele>1441.8</ele>
        <time>2021-10-08T13:07:00Z</time>
      </trkpt>
      <trkpt lat="44.83865" lon="5.41097">
        <ele>1442.8</ele>
        <time>2021-10-08T13:07:01Z</time>
      </trkpt>
      <trkpt lat="44.83864" lon="5.41097">
        <ele>1442.8</ele>
        <time>2021-10-08T13:07:02Z</time>
      </trkpt>
      <trkpt lat="44.83863" lon="5.41097">
        <ele>1443.6</ele>
        <time>2021-10-08T13:07:03Z</time>
      </trkpt>
      <trkpt lat="44.83862" lon="5.41097">
        <ele>1443.6</ele>
        <time>2021-10-08T13:07:04Z</time>
      </trkpt>
      <trkpt lat="44.83861" lon="5.41097">
        <ele>1443.2</ele>
        <time>2021-10-08T13:07:05Z</time>
      </trkpt>
      <trkpt lat="44.8386" lon="5.41097">
        <ele>1443.6</ele>
        <time>2021-10-08T13:07:06Z</time>
      </trkpt>
      <trkpt lat="44.83859" lon="5.41098">
        <ele>1443.6</ele>
        <time>2021-10-08T13:07:07Z</time>
      </trkpt>
      <trkpt lat="44.83858" lon="5.41098">
        <ele>1443.6</ele>
        <time>2021-10-08T13:07:08Z</time>
      </trkpt>
      <trkpt lat="44.83857" lon="5.41098">
        <ele>1443.6</ele>
        <time>2021-10-08T13:07:09Z</time>
      </trkpt>
      <trkpt lat="44.83856" lon="5.41098">
        <ele>1444.8</ele>
        <time>2021-10-08T13:07:10Z</time>
      </trkpt>
      <trkpt lat="44.83855" lon="5.41098">
        <ele>1444.8</ele>
        <time>2021-10-08T13:07:11Z</time>
      </trkpt>
      <trkpt lat="44.83853" lon="5.41098">
        <ele>1444.8</ele>
        <time>2021-10-08T13:07:12Z</time>
      </trkpt>
      <trkpt lat="44.83852" lon="5.41098">
        <ele>1444.8</ele>
        <time>2021-10-08T13:07:13Z</time>
      </trkpt>
      <trkpt lat="44.83851" lon="5.41098">
        <ele>1445.2</ele>
        <time>2021-10-08T13:07:14Z</time>
      </trkpt>
      <trkpt lat="44.8385" lon="5.41098">
        <ele>1445.2</ele>
        <time>2021-10-08T13:07:15Z</time>
      </trkpt>
      <trkpt lat="44.83849" lon="5.41098">
        <ele>1445.2</ele>
        <time>2021-10-08T13:07:16Z</time>
      </trkpt>
      <trkpt lat="44.83848" lon="5.41098">
        <ele>1445.2</ele>
        <time>2021-10-08T13:07:17Z</time>
      </trkpt>
      <trkpt lat="44.83847" lon="5.41099">
        <ele>1446</ele>
        <time>2021-10-08T13:07:18Z</time>
      </trkpt>
      <trkpt lat="44.83846" lon="5.41099">
        <ele>1446</ele>
        <time>2021-10-08T13:07:19Z</time>
      </trkpt>
      <trkpt lat="44.83845" lon="5.41099">
        <ele>1446</ele>
        <time>2021-10-08T13:07:20Z</time>
      </trkpt>
      <trkpt lat="44.83844" lon="5.41099">
        <ele>1446</ele>
        <time>2021-10-08T13:07:21Z</time>
      </trkpt>
      <trkpt lat="44.83843" lon="5.41099">
        <ele>1446</ele>
        <time>2021-10-08T13:07:22Z</time>
      </trkpt>
      <trkpt lat="44.83842" lon="5.41099">
        <ele>1446</ele>
        <time>2021-10-08T13:07:23Z</time>
      </trkpt>
      <trkpt lat="44.83841" lon="5.41099">
        <ele>1446</ele>
        <time>2021-10-08T13:07:24Z</time>
      </trkpt>
      <trkpt lat="44.8384" lon="5.411">
        <ele>1446</ele>
        <time>2021-10-08T13:07:25Z</time>
      </trkpt>
      <trkpt lat="44.83839" lon="5.411">
        <ele>1446</ele>
        <time>2021-10-08T13:07:26Z</time>
      </trkpt>
      <trkpt lat="44.83838" lon="5.411">
        <ele>1446</ele>
        <time>2021-10-08T13:07:27Z</time>
      </trkpt>
      <trkpt lat="44.83837" lon="5.411">
        <ele>1446.6</ele>
        <time>2021-10-08T13:07:28Z</time>
      </trkpt>
      <trkpt lat="44.83835" lon="5.411">
        <ele>1446.6</ele>
        <time>2021-10-08T13:07:29Z</time>
      </trkpt>
      <trkpt lat="44.83834" lon="5.411">
        <ele>1447.2</ele>
        <time>2021-10-08T13:07:30Z</time>
      </trkpt>
      <trkpt lat="44.83833" lon="5.411">
        <ele>1447.2</ele>
        <time>2021-10-08T13:07:31Z</time>
      </trkpt>
      <trkpt lat="44.83832" lon="5.41101">
        <ele>1447.2</ele>
        <time>2021-10-08T13:07:32Z</time>
      </trkpt>
      <trkpt lat="44.83831" lon="5.41101">
        <ele>1447.6</ele>
        <time>2021-10-08T13:07:33Z</time>
      </trkpt>
      <trkpt lat="44.8383" lon="5.41101">
        <ele>1448.2</ele>
        <time>2021-10-08T13:07:34Z</time>
      </trkpt>
      <trkpt lat="44.83829" lon="5.41101">
        <ele>1448.2</ele>
        <time>2021-10-08T13:07:35Z</time>
      </trkpt>
      <trkpt lat="44.83828" lon="5.41102">
        <ele>1448.2</ele>
        <time>2021-10-08T13:07:36Z</time>
      </trkpt>
      <trkpt lat="44.83827" lon="5.41102">
        <ele>1448</ele>
        <time>2021-10-08T13:07:37Z</time>
      </trkpt>
      <trkpt lat="44.83826" lon="5.41102">
        <ele>1448</ele>
        <time>2021-10-08T13:07:38Z</time>
      </trkpt>
      <trkpt lat="44.83825" lon="5.41102">
        <ele>1448</ele>
        <time>2021-10-08T13:07:39Z</time>
      </trkpt>
      <trkpt lat="44.83824" lon="5.41102">
        <ele>1448</ele>
        <time>2021-10-08T13:07:40Z</time>
      </trkpt>
      <trkpt lat="44.83823" lon="5.41102">
        <ele>1449</ele>
        <time>2021-10-08T13:07:41Z</time>
      </trkpt>
      <trkpt lat="44.83822" lon="5.41102">
        <ele>1449</ele>
        <time>2021-10-08T13:07:42Z</time>
      </trkpt>
      <trkpt lat="44.83821" lon="5.41102">
        <ele>1449</ele>
        <time>2021-10-08T13:07:43Z</time>
      </trkpt>
      <trkpt lat="44.8382" lon="5.41102">
        <ele>1449</ele>
        <time>2021-10-08T13:07:44Z</time>
      </trkpt>
      <trkpt lat="44.83819" lon="5.41102">
        <ele>1449.4</ele>
        <time>2021-10-08T13:07:45Z</time>
      </trkpt>
      <trkpt lat="44.83818" lon="5.41102">
        <ele>1449.6</ele>
        <time>2021-10-08T13:07:46Z</time>
      </trkpt>
      <trkpt lat="44.83817" lon="5.41103">
        <ele>1449.6</ele>
        <time>2021-10-08T13:07:47Z</time>
      </trkpt>
      <trkpt lat="44.83816" lon="5.41103">
        <ele>1449.6</ele>
        <time>2021-10-08T13:07:48Z</time>
      </trkpt>
      <trkpt lat="44.83815" lon="5.41103">
        <ele>1449.6</ele>
        <time>2021-10-08T13:07:49Z</time>
      </trkpt>
      <trkpt lat="44.83814" lon="5.41103">
        <ele>1450</ele>
        <time>2021-10-08T13:07:50Z</time>
      </trkpt>
      <trkpt lat="44.83813" lon="5.41103">
        <ele>1450</ele>
        <time>2021-10-08T13:07:51Z</time>
      </trkpt>
      <trkpt lat="44.83811" lon="5.41104">
        <ele>1450</ele>
        <time>2021-10-08T13:07:52Z</time>
      </trkpt>
      <trkpt lat="44.8381" lon="5.41104">
        <ele>1450.2</ele>
        <time>2021-10-08T13:07:53Z</time>
      </trkpt>
      <trkpt lat="44.83809" lon="5.41104">
        <ele>1450.4</ele>
        <time>2021-10-08T13:07:54Z</time>
      </trkpt>
      <trkpt lat="44.83808" lon="5.41104">
        <ele>1450.4</ele>
        <time>2021-10-08T13:07:55Z</time>
      </trkpt>
      <trkpt lat="44.83807" lon="5.41104">
        <ele>1450.4</ele>
        <time>2021-10-08T13:07:56Z</time>
      </trkpt>
      <trkpt lat="44.83806" lon="5.41104">
        <ele>1451</ele>
        <time>2021-10-08T13:07:57Z</time>
      </trkpt>
      <trkpt lat="44.83805" lon="5.41104">
        <ele>1451</ele>
        <time>2021-10-08T13:07:58Z</time>
      </trkpt>
      <trkpt lat="44.83804" lon="5.41105">
        <ele>1451</ele>
        <time>2021-10-08T13:07:59Z</time>
      </trkpt>
      <trkpt lat="44.83803" lon="5.41105">
        <ele>1451</ele>
        <time>2021-10-08T13:08:00Z</time>
      </trkpt>
      <trkpt lat="44.83802" lon="5.41105">
        <ele>1451</ele>
        <time>2021-10-08T13:08:01Z</time>
      </trkpt>
      <trkpt lat="44.83801" lon="5.41105">
        <ele>1451.6</ele>
        <time>2021-10-08T13:08:02Z</time>
      </trkpt>
      <trkpt lat="44.838" lon="5.41105">
        <ele>1451.6</ele>
        <time>2021-10-08T13:08:03Z</time>
      </trkpt>
      <trkpt lat="44.83798" lon="5.41106">
        <ele>1451.6</ele>
        <time>2021-10-08T13:08:04Z</time>
      </trkpt>
      <trkpt lat="44.83797" lon="5.41106">
        <ele>1451.4</ele>
        <time>2021-10-08T13:08:05Z</time>
      </trkpt>
      <trkpt lat="44.83796" lon="5.41106">
        <ele>1451.8</ele>
        <time>2021-10-08T13:08:06Z</time>
      </trkpt>
      <trkpt lat="44.83795" lon="5.41107">
        <ele>1451.8</ele>
        <time>2021-10-08T13:08:07Z</time>
      </trkpt>
      <trkpt lat="44.83794" lon="5.41107">
        <ele>1451.8</ele>
        <time>2021-10-08T13:08:08Z</time>
      </trkpt>
      <trkpt lat="44.83793" lon="5.41107">
        <ele>1451.8</ele>
        <time>2021-10-08T13:08:09Z</time>
      </trkpt>
      <trkpt lat="44.83792" lon="5.41108">
        <ele>1452.4</ele>
        <time>2021-10-08T13:08:10Z</time>
      </trkpt>
      <trkpt lat="44.83791" lon="5.41108">
        <ele>1452.4</ele>
        <time>2021-10-08T13:08:11Z</time>
      </trkpt>
      <trkpt lat="44.83789" lon="5.41108">
        <ele>1452.4</ele>
        <time>2021-10-08T13:08:12Z</time>
      </trkpt>
      <trkpt lat="44.83788" lon="5.41108">
        <ele>1452.4</ele>
        <time>2021-10-08T13:08:13Z</time>
      </trkpt>
      <trkpt lat="44.83787" lon="5.41109">
        <ele>1452.4</ele>
        <time>2021-10-08T13:08:14Z</time>
      </trkpt>
      <trkpt lat="44.83786" lon="5.41109">
        <ele>1452.4</ele>
        <time>2021-10-08T13:08:15Z</time>
      </trkpt>
      <trkpt lat="44.83785" lon="5.41109">
        <ele>1452.4</ele>
        <time>2021-10-08T13:08:16Z</time>
      </trkpt>
      <trkpt lat="44.83784" lon="5.4111">
        <ele>1452.8</ele>
        <time>2021-10-08T13:08:17Z</time>
      </trkpt>
      <trkpt lat="44.83783" lon="5.4111">
        <ele>1452.8</ele>
        <time>2021-10-08T13:08:18Z</time>
      </trkpt>
      <trkpt lat="44.83782" lon="5.4111">
        <ele>1452.8</ele>
        <time>2021-10-08T13:08:19Z</time>
      </trkpt>
      <trkpt lat="44.83781" lon="5.41111">
        <ele>1452.8</ele>
        <time>2021-10-08T13:08:20Z</time>
      </trkpt>
      <trkpt lat="44.8378" lon="5.41111">
        <ele>1453.4</ele>
        <time>2021-10-08T13:08:21Z</time>
      </trkpt>
      <trkpt lat="44.83779" lon="5.41111">
        <ele>1453.4</ele>
        <time>2021-10-08T13:08:22Z</time>
      </trkpt>
      <trkpt lat="44.83778" lon="5.41111">
        <ele>1453.4</ele>
        <time>2021-10-08T13:08:23Z</time>
      </trkpt>
      <trkpt lat="44.83777" lon="5.41111">
        <ele>1453.4</ele>
        <time>2021-10-08T13:08:24Z</time>
      </trkpt>
      <trkpt lat="44.83776" lon="5.41111">
        <ele>1453.8</ele>
        <time>2021-10-08T13:08:25Z</time>
      </trkpt>
      <trkpt lat="44.83775" lon="5.41112">
        <ele>1454.2</ele>
        <time>2021-10-08T13:08:26Z</time>
      </trkpt>
      <trkpt lat="44.83773" lon="5.41112">
        <ele>1454.2</ele>
        <time>2021-10-08T13:08:27Z</time>
      </trkpt>
      <trkpt lat="44.83772" lon="5.41112">
        <ele>1454.2</ele>
        <time>2021-10-08T13:08:28Z</time>
      </trkpt>
      <trkpt lat="44.83771" lon="5.41112">
        <ele>1455</ele>
        <time>2021-10-08T13:08:29Z</time>
      </trkpt>
      <trkpt lat="44.8377" lon="5.41112">
        <ele>1454.8</ele>
        <time>2021-10-08T13:08:30Z</time>
      </trkpt>
      <trkpt lat="44.83769" lon="5.41112">
        <ele>1454.8</ele>
        <time>2021-10-08T13:08:31Z</time>
      </trkpt>
      <trkpt lat="44.83768" lon="5.41112">
        <ele>1454.8</ele>
        <time>2021-10-08T13:08:32Z</time>
      </trkpt>
      <trkpt lat="44.83767" lon="5.41112">
        <ele>1455.4</ele>
        <time>2021-10-08T13:08:33Z</time>
      </trkpt>
      <trkpt lat="44.83766" lon="5.41113">
        <ele>1455.4</ele>
        <time>2021-10-08T13:08:34Z</time>
      </trkpt>
      <trkpt lat="44.83765" lon="5.41113">
        <ele>1455.4</ele>
        <time>2021-10-08T13:08:35Z</time>
      </trkpt>
      <trkpt lat="44.83764" lon="5.41113">
        <ele>1455.4</ele>
        <time>2021-10-08T13:08:36Z</time>
      </trkpt>
      <trkpt lat="44.83763" lon="5.41113">
        <ele>1456</ele>
        <time>2021-10-08T13:08:37Z</time>
      </trkpt>
      <trkpt lat="44.83762" lon="5.41113">
        <ele>1456</ele>
        <time>2021-10-08T13:08:38Z</time>
      </trkpt>
      <trkpt lat="44.83761" lon="5.41113">
        <ele>1456</ele>
        <time>2021-10-08T13:08:39Z</time>
      </trkpt>
      <trkpt lat="44.8376" lon="5.41113">
        <ele>1456</ele>
        <time>2021-10-08T13:08:40Z</time>
      </trkpt>
      <trkpt lat="44.83759" lon="5.41113">
        <ele>1456</ele>
        <time>2021-10-08T13:08:41Z</time>
      </trkpt>
      <trkpt lat="44.83758" lon="5.41113">
        <ele>1456.6</ele>
        <time>2021-10-08T13:08:42Z</time>
      </trkpt>
      <trkpt lat="44.83757" lon="5.41113">
        <ele>1456.6</ele>
        <time>2021-10-08T13:08:43Z</time>
      </trkpt>
      <trkpt lat="44.83756" lon="5.41114">
        <ele>1456.6</ele>
        <time>2021-10-08T13:08:44Z</time>
      </trkpt>
      <trkpt lat="44.83755" lon="5.41114">
        <ele>1456.6</ele>
        <time>2021-10-08T13:08:45Z</time>
      </trkpt>
      <trkpt lat="44.83754" lon="5.41114">
        <ele>1456.8</ele>
        <time>2021-10-08T13:08:46Z</time>
      </trkpt>
      <trkpt lat="44.83753" lon="5.41114">
        <ele>1456.8</ele>
        <time>2021-10-08T13:08:47Z</time>
      </trkpt>
      <trkpt lat="44.83752" lon="5.41114">
        <ele>1456.8</ele>
        <time>2021-10-08T13:08:48Z</time>
      </trkpt>
      <trkpt lat="44.83751" lon="5.41114">
        <ele>1457.2</ele>
        <time>2021-10-08T13:08:49Z</time>
      </trkpt>
      <trkpt lat="44.8375" lon="5.41114">
        <ele>1457.2</ele>
        <time>2021-10-08T13:08:50Z</time>
      </trkpt>
      <trkpt lat="44.83749" lon="5.41114">
        <ele>1457.2</ele>
        <time>2021-10-08T13:08:51Z</time>
      </trkpt>
      <trkpt lat="44.83748" lon="5.41114">
        <ele>1457.2</ele>
        <time>2021-10-08T13:08:52Z</time>
      </trkpt>
      <trkpt lat="44.83747" lon="5.41114">
        <ele>1457.2</ele>
        <time>2021-10-08T13:08:53Z</time>
      </trkpt>
      <trkpt lat="44.83746" lon="5.41114">
        <ele>1457.6</ele>
        <time>2021-10-08T13:08:54Z</time>
      </trkpt>
      <trkpt lat="44.83745" lon="5.41114">
        <ele>1457.6</ele>
        <time>2021-10-08T13:08:55Z</time>
      </trkpt>
      <trkpt lat="44.83743" lon="5.41114">
        <ele>1457.6</ele>
        <time>2021-10-08T13:08:56Z</time>
      </trkpt>
      <trkpt lat="44.83742" lon="5.41114">
        <ele>1457.6</ele>
        <time>2021-10-08T13:08:57Z</time>
      </trkpt>
      <trkpt lat="44.83742" lon="5.41114">
        <ele>1457.6</ele>
        <time>2021-10-08T13:08:58Z</time>
      </trkpt>
      <trkpt lat="44.83741" lon="5.41114">
        <ele>1457.6</ele>
        <time>2021-10-08T13:08:59Z</time>
      </trkpt>
      <trkpt lat="44.8374" lon="5.41114">
        <ele>1457.6</ele>
        <time>2021-10-08T13:09:00Z</time>
      </trkpt>
      <trkpt lat="44.83739" lon="5.41115">
        <ele>1458</ele>
        <time>2021-10-08T13:09:01Z</time>
      </trkpt>
      <trkpt lat="44.83737" lon="5.41115">
        <ele>1458.6</ele>
        <time>2021-10-08T13:09:02Z</time>
      </trkpt>
      <trkpt lat="44.83736" lon="5.41115">
        <ele>1458.6</ele>
        <time>2021-10-08T13:09:03Z</time>
      </trkpt>
      <trkpt lat="44.83735" lon="5.41114">
        <ele>1458.6</ele>
        <time>2021-10-08T13:09:04Z</time>
      </trkpt>
      <trkpt lat="44.83734" lon="5.41114">
        <ele>1458.8</ele>
        <time>2021-10-08T13:09:05Z</time>
      </trkpt>
      <trkpt lat="44.83732" lon="5.41115">
        <ele>1459</ele>
        <time>2021-10-08T13:09:06Z</time>
      </trkpt>
      <trkpt lat="44.83731" lon="5.41115">
        <ele>1459</ele>
        <time>2021-10-08T13:09:07Z</time>
      </trkpt>
      <trkpt lat="44.83729" lon="5.41115">
        <ele>1459</ele>
        <time>2021-10-08T13:09:08Z</time>
      </trkpt>
      <trkpt lat="44.83727" lon="5.41115">
        <ele>1459</ele>
        <time>2021-10-08T13:09:09Z</time>
      </trkpt>
      <trkpt lat="44.83726" lon="5.41115">
        <ele>1459</ele>
        <time>2021-10-08T13:09:10Z</time>
      </trkpt>
      <trkpt lat="44.83725" lon="5.41115">
        <ele>1459</ele>
        <time>2021-10-08T13:09:11Z</time>
      </trkpt>
      <trkpt lat="44.83724" lon="5.41115">
        <ele>1459</ele>
        <time>2021-10-08T13:09:12Z</time>
      </trkpt>
      <trkpt lat="44.83722" lon="5.41116">
        <ele>1459.6</ele>
        <time>2021-10-08T13:09:13Z</time>
      </trkpt>
      <trkpt lat="44.83721" lon="5.41116">
        <ele>1459.6</ele>
        <time>2021-10-08T13:09:14Z</time>
      </trkpt>
      <trkpt lat="44.83719" lon="5.41116">
        <ele>1459.6</ele>
        <time>2021-10-08T13:09:15Z</time>
      </trkpt>
      <trkpt lat="44.83717" lon="5.41116">
        <ele>1459.6</ele>
        <time>2021-10-08T13:09:16Z</time>
      </trkpt>
      <trkpt lat="44.83716" lon="5.41116">
        <ele>1459.6</ele>
        <time>2021-10-08T13:09:17Z</time>
      </trkpt>
      <trkpt lat="44.83714" lon="5.41117">
        <ele>1460.4</ele>
        <time>2021-10-08T13:09:18Z</time>
      </trkpt>
      <trkpt lat="44.83712" lon="5.41117">
        <ele>1460.4</ele>
        <time>2021-10-08T13:09:19Z</time>
      </trkpt>
      <trkpt lat="44.83711" lon="5.41117">
        <ele>1460.4</ele>
        <time>2021-10-08T13:09:20Z</time>
      </trkpt>
      <trkpt lat="44.83709" lon="5.41117">
        <ele>1461</ele>
        <time>2021-10-08T13:09:21Z</time>
      </trkpt>
      <trkpt lat="44.83707" lon="5.41118">
        <ele>1461</ele>
        <time>2021-10-08T13:09:22Z</time>
      </trkpt>
      <trkpt lat="44.83706" lon="5.41118">
        <ele>1460.8</ele>
        <time>2021-10-08T13:09:23Z</time>
      </trkpt>
      <trkpt lat="44.83704" lon="5.41118">
        <ele>1460.8</ele>
        <time>2021-10-08T13:09:24Z</time>
      </trkpt>
      <trkpt lat="44.83702" lon="5.41118">
        <ele>1461.2</ele>
        <time>2021-10-08T13:09:25Z</time>
      </trkpt>
      <trkpt lat="44.83701" lon="5.41118">
        <ele>1461</ele>
        <time>2021-10-08T13:09:26Z</time>
      </trkpt>
      <trkpt lat="44.83699" lon="5.41119">
        <ele>1461</ele>
        <time>2021-10-08T13:09:27Z</time>
      </trkpt>
      <trkpt lat="44.83697" lon="5.41118">
        <ele>1461</ele>
        <time>2021-10-08T13:09:28Z</time>
      </trkpt>
      <trkpt lat="44.83696" lon="5.41119">
        <ele>1462</ele>
        <time>2021-10-08T13:09:29Z</time>
      </trkpt>
      <trkpt lat="44.83694" lon="5.41119">
        <ele>1462.6</ele>
        <time>2021-10-08T13:09:30Z</time>
      </trkpt>
      <trkpt lat="44.83693" lon="5.41119">
        <ele>1462.6</ele>
        <time>2021-10-08T13:09:31Z</time>
      </trkpt>
      <trkpt lat="44.83691" lon="5.4112">
        <ele>1462.6</ele>
        <time>2021-10-08T13:09:32Z</time>
      </trkpt>
      <trkpt lat="44.8369" lon="5.4112">
        <ele>1462.6</ele>
        <time>2021-10-08T13:09:33Z</time>
      </trkpt>
      <trkpt lat="44.83688" lon="5.4112">
        <ele>1463</ele>
        <time>2021-10-08T13:09:34Z</time>
      </trkpt>
      <trkpt lat="44.83686" lon="5.4112">
        <ele>1463</ele>
        <time>2021-10-08T13:09:35Z</time>
      </trkpt>
      <trkpt lat="44.83685" lon="5.41121">
        <ele>1463</ele>
        <time>2021-10-08T13:09:36Z</time>
      </trkpt>
      <trkpt lat="44.83683" lon="5.41121">
        <ele>1462.8</ele>
        <time>2021-10-08T13:09:37Z</time>
      </trkpt>
      <trkpt lat="44.83681" lon="5.41122">
        <ele>1463</ele>
        <time>2021-10-08T13:09:38Z</time>
      </trkpt>
      <trkpt lat="44.8368" lon="5.41122">
        <ele>1463</ele>
        <time>2021-10-08T13:09:39Z</time>
      </trkpt>
      <trkpt lat="44.83678" lon="5.41122">
        <ele>1463</ele>
        <time>2021-10-08T13:09:40Z</time>
      </trkpt>
      <trkpt lat="44.83677" lon="5.41123">
        <ele>1463.6</ele>
        <time>2021-10-08T13:09:41Z</time>
      </trkpt>
      <trkpt lat="44.83675" lon="5.41124">
        <ele>1464.2</ele>
        <time>2021-10-08T13:09:42Z</time>
      </trkpt>
      <trkpt lat="44.83674" lon="5.41125">
        <ele>1464.2</ele>
        <time>2021-10-08T13:09:43Z</time>
      </trkpt>
      <trkpt lat="44.83673" lon="5.41125">
        <ele>1464.2</ele>
        <time>2021-10-08T13:09:44Z</time>
      </trkpt>
      <trkpt lat="44.83672" lon="5.41125">
        <ele>1464.2</ele>
        <time>2021-10-08T13:09:45Z</time>
      </trkpt>
      <trkpt lat="44.8367" lon="5.41125">
        <ele>1464.4</ele>
        <time>2021-10-08T13:09:46Z</time>
      </trkpt>
      <trkpt lat="44.83669" lon="5.41125">
        <ele>1464.4</ele>
        <time>2021-10-08T13:09:47Z</time>
      </trkpt>
      <trkpt lat="44.83667" lon="5.41125">
        <ele>1464.4</ele>
        <time>2021-10-08T13:09:48Z</time>
      </trkpt>
      <trkpt lat="44.83666" lon="5.41125">
        <ele>1464.4</ele>
        <time>2021-10-08T13:09:49Z</time>
      </trkpt>
      <trkpt lat="44.83664" lon="5.41125">
        <ele>1464.8</ele>
        <time>2021-10-08T13:09:50Z</time>
      </trkpt>
      <trkpt lat="44.83663" lon="5.41126">
        <ele>1464.8</ele>
        <time>2021-10-08T13:09:51Z</time>
      </trkpt>
      <trkpt lat="44.83661" lon="5.41126">
        <ele>1464.8</ele>
        <time>2021-10-08T13:09:52Z</time>
      </trkpt>
      <trkpt lat="44.8366" lon="5.41126">
        <ele>1465.2</ele>
        <time>2021-10-08T13:09:53Z</time>
      </trkpt>
      <trkpt lat="44.83659" lon="5.41126">
        <ele>1465.4</ele>
        <time>2021-10-08T13:09:54Z</time>
      </trkpt>
      <trkpt lat="44.83657" lon="5.41126">
        <ele>1465.4</ele>
        <time>2021-10-08T13:09:55Z</time>
      </trkpt>
      <trkpt lat="44.83656" lon="5.41126">
        <ele>1465.4</ele>
        <time>2021-10-08T13:09:56Z</time>
      </trkpt>
      <trkpt lat="44.83654" lon="5.41127">
        <ele>1466</ele>
        <time>2021-10-08T13:09:57Z</time>
      </trkpt>
      <trkpt lat="44.83653" lon="5.41127">
        <ele>1466</ele>
        <time>2021-10-08T13:09:58Z</time>
      </trkpt>
      <trkpt lat="44.83652" lon="5.41127">
        <ele>1466</ele>
        <time>2021-10-08T13:09:59Z</time>
      </trkpt>
      <trkpt lat="44.8365" lon="5.41128">
        <ele>1466</ele>
        <time>2021-10-08T13:10:00Z</time>
      </trkpt>
      <trkpt lat="44.83649" lon="5.41128">
        <ele>1466</ele>
        <time>2021-10-08T13:10:01Z</time>
      </trkpt>
      <trkpt lat="44.83648" lon="5.41129">
        <ele>1466</ele>
        <time>2021-10-08T13:10:02Z</time>
      </trkpt>
      <trkpt lat="44.83646" lon="5.41128">
        <ele>1466</ele>
        <time>2021-10-08T13:10:03Z</time>
      </trkpt>
      <trkpt lat="44.83645" lon="5.41128">
        <ele>1466</ele>
        <time>2021-10-08T13:10:04Z</time>
      </trkpt>
      <trkpt lat="44.83643" lon="5.41129">
        <ele>1466.4</ele>
        <time>2021-10-08T13:10:05Z</time>
      </trkpt>
      <trkpt lat="44.83642" lon="5.41129">
        <ele>1466.4</ele>
        <time>2021-10-08T13:10:06Z</time>
      </trkpt>
      <trkpt lat="44.83641" lon="5.41129">
        <ele>1466.4</ele>
        <time>2021-10-08T13:10:07Z</time>
      </trkpt>
      <trkpt lat="44.83639" lon="5.41129">
        <ele>1466.4</ele>
        <time>2021-10-08T13:10:08Z</time>
      </trkpt>
      <trkpt lat="44.83638" lon="5.41129">
        <ele>1466.4</ele>
        <time>2021-10-08T13:10:09Z</time>
      </trkpt>
      <trkpt lat="44.83637" lon="5.41129">
        <ele>1467</ele>
        <time>2021-10-08T13:10:10Z</time>
      </trkpt>
      <trkpt lat="44.83637" lon="5.41129">
        <ele>1467</ele>
        <time>2021-10-08T13:10:11Z</time>
      </trkpt>
      <trkpt lat="44.83637" lon="5.41128">
        <ele>1467</ele>
        <time>2021-10-08T13:10:12Z</time>
      </trkpt>
      <trkpt lat="44.83636" lon="5.41128">
        <ele>1467</ele>
        <time>2021-10-08T13:10:13Z</time>
      </trkpt>
      <trkpt lat="44.83636" lon="5.41128">
        <ele>1466.8</ele>
        <time>2021-10-08T13:10:14Z</time>
      </trkpt>
      <trkpt lat="44.83413" lon="5.41198">
        <ele>1503</ele>
        <time>2021-10-08T13:15:17Z</time>
      </trkpt>
      <trkpt lat="44.83411" lon="5.41199">
        <ele>1502.6</ele>
        <time>2021-10-08T13:15:18Z</time>
      </trkpt>
      <trkpt lat="44.83409" lon="5.412">
        <ele>1502.6</ele>
        <time>2021-10-08T13:15:19Z</time>
      </trkpt>
      <trkpt lat="44.83407" lon="5.41202">
        <ele>1502.6</ele>
        <time>2021-10-08T13:15:20Z</time>
      </trkpt>
      <trkpt lat="44.83405" lon="5.41203">
        <ele>1502.6</ele>
        <time>2021-10-08T13:15:21Z</time>
      </trkpt>
      <trkpt lat="44.83402" lon="5.41205">
        <ele>1502</ele>
        <time>2021-10-08T13:15:22Z</time>
      </trkpt>
      <trkpt lat="44.834" lon="5.41206">
        <ele>1502</ele>
        <time>2021-10-08T13:15:23Z</time>
      </trkpt>
      <trkpt lat="44.83397" lon="5.41209">
        <ele>1502</ele>
        <time>2021-10-08T13:15:24Z</time>
      </trkpt>
      <trkpt lat="44.83395" lon="5.41211">
        <ele>1502</ele>
        <time>2021-10-08T13:15:25Z</time>
      </trkpt>
      <trkpt lat="44.83394" lon="5.41212">
        <ele>1501.8</ele>
        <time>2021-10-08T13:15:26Z</time>
      </trkpt>
      <trkpt lat="44.83392" lon="5.41213">
        <ele>1501.8</ele>
        <time>2021-10-08T13:15:27Z</time>
      </trkpt>
      <trkpt lat="44.83391" lon="5.41214">
        <ele>1501.8</ele>
        <time>2021-10-08T13:15:28Z</time>
      </trkpt>
      <trkpt lat="44.83391" lon="5.41215">
        <ele>1501.8</ele>
        <time>2021-10-08T13:15:29Z</time>
      </trkpt>
      <trkpt lat="44.83391" lon="5.41216">
        <ele>1501.4</ele>
        <time>2021-10-08T13:15:30Z</time>
      </trkpt>
      <trkpt lat="44.83389" lon="5.41218">
        <ele>1501.6</ele>
        <time>2021-10-08T13:15:47Z</time>
      </trkpt>
      <trkpt lat="44.83387" lon="5.41219">
        <ele>1501.6</ele>
        <time>2021-10-08T13:15:48Z</time>
      </trkpt>
      <trkpt lat="44.83386" lon="5.41221">
        <ele>1501.2</ele>
        <time>2021-10-08T13:15:49Z</time>
      </trkpt>
      <trkpt lat="44.83384" lon="5.41223">
        <ele>1501.4</ele>
        <time>2021-10-08T13:15:50Z</time>
      </trkpt>
      <trkpt lat="44.83382" lon="5.41226">
        <ele>1501.4</ele>
        <time>2021-10-08T13:15:51Z</time>
      </trkpt>
      <trkpt lat="44.8338" lon="5.41228">
        <ele>1501.4</ele>
        <time>2021-10-08T13:15:52Z</time>
      </trkpt>
      <trkpt lat="44.83378" lon="5.4123">
        <ele>1500.6</ele>
        <time>2021-10-08T13:15:53Z</time>
      </trkpt>
      <trkpt lat="44.83376" lon="5.41233">
        <ele>1500.6</ele>
        <time>2021-10-08T13:15:54Z</time>
      </trkpt>
      <trkpt lat="44.83374" lon="5.41235">
        <ele>1500.6</ele>
        <time>2021-10-08T13:15:55Z</time>
      </trkpt>
      <trkpt lat="44.83373" lon="5.41238">
        <ele>1500.6</ele>
        <time>2021-10-08T13:15:56Z</time>
      </trkpt>
      <trkpt lat="44.83371" lon="5.4124">
        <ele>1500.6</ele>
        <time>2021-10-08T13:15:57Z</time>
      </trkpt>
      <trkpt lat="44.83369" lon="5.41243">
        <ele>1500.8</ele>
        <time>2021-10-08T13:15:58Z</time>
      </trkpt>
      <trkpt lat="44.83367" lon="5.41245">
        <ele>1500.8</ele>
        <time>2021-10-08T13:15:59Z</time>
      </trkpt>
      <trkpt lat="44.83365" lon="5.41248">
        <ele>1500.8</ele>
        <time>2021-10-08T13:16:00Z</time>
      </trkpt>
      <trkpt lat="44.83364" lon="5.4125">
        <ele>1500.6</ele>
        <time>2021-10-08T13:16:01Z</time>
      </trkpt>
      <trkpt lat="44.83363" lon="5.41252">
        <ele>1500.6</ele>
        <time>2021-10-08T13:16:02Z</time>
      </trkpt>
      <trkpt lat="44.83362" lon="5.41255">
        <ele>1500.6</ele>
        <time>2021-10-08T13:16:03Z</time>
      </trkpt>
      <trkpt lat="44.83361" lon="5.41257">
        <ele>1500.6</ele>
        <time>2021-10-08T13:16:04Z</time>
      </trkpt>
      <trkpt lat="44.8336" lon="5.41259">
        <ele>1500.6</ele>
        <time>2021-10-08T13:16:05Z</time>
      </trkpt>
      <trkpt lat="44.83359" lon="5.4126">
        <ele>1500.4</ele>
        <time>2021-10-08T13:16:06Z</time>
      </trkpt>
      <trkpt lat="44.83358" lon="5.4126">
        <ele>1500.4</ele>
        <time>2021-10-08T13:16:07Z</time>
      </trkpt>
      <trkpt lat="44.83357" lon="5.41261">
        <ele>1500.4</ele>
        <time>2021-10-08T13:16:08Z</time>
      </trkpt>
      <trkpt lat="44.83356" lon="5.41263">
        <ele>1500.6</ele>
        <time>2021-10-08T13:16:09Z</time>
      </trkpt>
      <trkpt lat="44.83356" lon="5.41265">
        <ele>1500.2</ele>
        <time>2021-10-08T13:16:10Z</time>
      </trkpt>
      <trkpt lat="44.83355" lon="5.41266">
        <ele>1500.2</ele>
        <time>2021-10-08T13:16:11Z</time>
      </trkpt>
      <trkpt lat="44.83354" lon="5.41268">
        <ele>1500.2</ele>
        <time>2021-10-08T13:16:12Z</time>
      </trkpt>
      <trkpt lat="44.83354" lon="5.4127">
        <ele>1500.4</ele>
        <time>2021-10-08T13:16:13Z</time>
      </trkpt>
      <trkpt lat="44.83353" lon="5.4127">
        <ele>1499.8</ele>
        <time>2021-10-08T13:16:14Z</time>
      </trkpt>
      <trkpt lat="44.83353" lon="5.4127">
        <ele>1499.8</ele>
        <time>2021-10-08T13:16:15Z</time>
      </trkpt>
      <trkpt lat="44.83303" lon="5.41228">
        <ele>1512.8</ele>
        <time>2021-10-08T13:17:44Z</time>
      </trkpt>
      <trkpt lat="44.83302" lon="5.41228">
        <ele>1512</ele>
        <time>2021-10-08T13:17:45Z</time>
      </trkpt>
      <trkpt lat="44.83301" lon="5.41229">
        <ele>1512.2</ele>
        <time>2021-10-08T13:17:46Z</time>
      </trkpt>
      <trkpt lat="44.833" lon="5.41229">
        <ele>1512.2</ele>
        <time>2021-10-08T13:17:47Z</time>
      </trkpt>
      <trkpt lat="44.83298" lon="5.4123">
        <ele>1512.2</ele>
        <time>2021-10-08T13:17:48Z</time>
      </trkpt>
      <trkpt lat="44.83297" lon="5.4123">
        <ele>1512.4</ele>
        <time>2021-10-08T13:17:49Z</time>
      </trkpt>
      <trkpt lat="44.83296" lon="5.41231">
        <ele>1512.2</ele>
        <time>2021-10-08T13:17:50Z</time>
      </trkpt>
      <trkpt lat="44.83295" lon="5.41232">
        <ele>1512.2</ele>
        <time>2021-10-08T13:17:51Z</time>
      </trkpt>
      <trkpt lat="44.83293" lon="5.41233">
        <ele>1512.2</ele>
        <time>2021-10-08T13:17:52Z</time>
      </trkpt>
      <trkpt lat="44.83292" lon="5.41234">
        <ele>1512.6</ele>
        <time>2021-10-08T13:17:53Z</time>
      </trkpt>
      <trkpt lat="44.83291" lon="5.41235">
        <ele>1512.8</ele>
        <time>2021-10-08T13:17:54Z</time>
      </trkpt>
      <trkpt lat="44.83289" lon="5.41236">
        <ele>1512.8</ele>
        <time>2021-10-08T13:17:55Z</time>
      </trkpt>
      <trkpt lat="44.83288" lon="5.41237">
        <ele>1512.8</ele>
        <time>2021-10-08T13:17:56Z</time>
      </trkpt>
      <trkpt lat="44.83287" lon="5.41238">
        <ele>1512.8</ele>
        <time>2021-10-08T13:17:57Z</time>
      </trkpt>
      <trkpt lat="44.83285" lon="5.41239">
        <ele>1513.4</ele>
        <time>2021-10-08T13:17:58Z</time>
      </trkpt>
      <trkpt lat="44.83284" lon="5.41241">
        <ele>1513.4</ele>
        <time>2021-10-08T13:17:59Z</time>
      </trkpt>
      <trkpt lat="44.83283" lon="5.41242">
        <ele>1513.4</ele>
        <time>2021-10-08T13:18:00Z</time>
      </trkpt>
      <trkpt lat="44.83281" lon="5.41243">
        <ele>1513.4</ele>
        <time>2021-10-08T13:18:01Z</time>
      </trkpt>
      <trkpt lat="44.8328" lon="5.41244">
        <ele>1513.4</ele>
        <time>2021-10-08T13:18:02Z</time>
      </trkpt>
      <trkpt lat="44.83278" lon="5.41245">
        <ele>1513.4</ele>
        <time>2021-10-08T13:18:03Z</time>
      </trkpt>
      <trkpt lat="44.83277" lon="5.41247">
        <ele>1513.4</ele>
        <time>2021-10-08T13:18:04Z</time>
      </trkpt>
      <trkpt lat="44.83276" lon="5.41248">
        <ele>1513.6</ele>
        <time>2021-10-08T13:18:05Z</time>
      </trkpt>
      <trkpt lat="44.83275" lon="5.41249">
        <ele>1513.4</ele>
        <time>2021-10-08T13:18:06Z</time>
      </trkpt>
      <trkpt lat="44.83273" lon="5.4125">
        <ele>1513.4</ele>
        <time>2021-10-08T13:18:07Z</time>
      </trkpt>
      <trkpt lat="44.83272" lon="5.41251">
        <ele>1513.4</ele>
        <time>2021-10-08T13:18:08Z</time>
      </trkpt>
      <trkpt lat="44.83271" lon="5.41253">
        <ele>1513.4</ele>
        <time>2021-10-08T13:18:09Z</time>
      </trkpt>
      <trkpt lat="44.8327" lon="5.41254">
        <ele>1513.6</ele>
        <time>2021-10-08T13:18:10Z</time>
      </trkpt>
      <trkpt lat="44.83268" lon="5.41255">
        <ele>1513.6</ele>
        <time>2021-10-08T13:18:11Z</time>
      </trkpt>
      <trkpt lat="44.83267" lon="5.41257">
        <ele>1513.6</ele>
        <time>2021-10-08T13:18:12Z</time>
      </trkpt>
      <trkpt lat="44.83266" lon="5.41258">
        <ele>1513.6</ele>
        <time>2021-10-08T13:18:13Z</time>
      </trkpt>
      <trkpt lat="44.83265" lon="5.4126">
        <ele>1513.4</ele>
        <time>2021-10-08T13:18:14Z</time>
      </trkpt>
      <trkpt lat="44.83263" lon="5.41261">
        <ele>1513.4</ele>
        <time>2021-10-08T13:18:15Z</time>
      </trkpt>
      <trkpt lat="44.83262" lon="5.41263">
        <ele>1513.4</ele>
        <time>2021-10-08T13:18:16Z</time>
      </trkpt>
      <trkpt lat="44.83261" lon="5.41264">
        <ele>1513.4</ele>
        <time>2021-10-08T13:18:17Z</time>
      </trkpt>
      <trkpt lat="44.83259" lon="5.41266">
        <ele>1513.4</ele>
        <time>2021-10-08T13:18:18Z</time>
      </trkpt>
      <trkpt lat="44.83258" lon="5.41267">
        <ele>1513.4</ele>
        <time>2021-10-08T13:18:19Z</time>
      </trkpt>
      <trkpt lat="44.83257" lon="5.41269">
        <ele>1513.4</ele>
        <time>2021-10-08T13:18:20Z</time>
      </trkpt>
      <trkpt lat="44.83256" lon="5.4127">
        <ele>1513.4</ele>
        <time>2021-10-08T13:18:21Z</time>
      </trkpt>
      <trkpt lat="44.83254" lon="5.41272">
        <ele>1513.4</ele>
        <time>2021-10-08T13:18:22Z</time>
      </trkpt>
      <trkpt lat="44.83253" lon="5.41273">
        <ele>1513.4</ele>
        <time>2021-10-08T13:18:23Z</time>
      </trkpt>
      <trkpt lat="44.83252" lon="5.41275">
        <ele>1513.4</ele>
        <time>2021-10-08T13:18:24Z</time>
      </trkpt>
      <trkpt lat="44.83251" lon="5.41276">
        <ele>1513.8</ele>
        <time>2021-10-08T13:18:25Z</time>
      </trkpt>
      <trkpt lat="44.83249" lon="5.41278">
        <ele>1513.8</ele>
        <time>2021-10-08T13:18:26Z</time>
      </trkpt>
      <trkpt lat="44.83248" lon="5.41279">
        <ele>1513.8</ele>
        <time>2021-10-08T13:18:27Z</time>
      </trkpt>
      <trkpt lat="44.83247" lon="5.41281">
        <ele>1513.8</ele>
        <time>2021-10-08T13:18:28Z</time>
      </trkpt>
      <trkpt lat="44.83246" lon="5.41283">
        <ele>1514.2</ele>
        <time>2021-10-08T13:18:29Z</time>
      </trkpt>
      <trkpt lat="44.83244" lon="5.41284">
        <ele>1514.8</ele>
        <time>2021-10-08T13:18:30Z</time>
      </trkpt>
      <trkpt lat="44.83243" lon="5.41285">
        <ele>1514.8</ele>
        <time>2021-10-08T13:18:31Z</time>
      </trkpt>
      <trkpt lat="44.83242" lon="5.41287">
        <ele>1514.8</ele>
        <time>2021-10-08T13:18:32Z</time>
      </trkpt>
      <trkpt lat="44.8324" lon="5.41288">
        <ele>1514.8</ele>
        <time>2021-10-08T13:18:33Z</time>
      </trkpt>
      <trkpt lat="44.83239" lon="5.41289">
        <ele>1514.8</ele>
        <time>2021-10-08T13:18:34Z</time>
      </trkpt>
      <trkpt lat="44.83238" lon="5.41291">
        <ele>1514.8</ele>
        <time>2021-10-08T13:18:35Z</time>
      </trkpt>
      <trkpt lat="44.83237" lon="5.41292">
        <ele>1514.8</ele>
        <time>2021-10-08T13:18:36Z</time>
      </trkpt>
      <trkpt lat="44.83235" lon="5.41294">
        <ele>1514.8</ele>
        <time>2021-10-08T13:18:37Z</time>
      </trkpt>
      <trkpt lat="44.83234" lon="5.41295">
        <ele>1514.6</ele>
        <time>2021-10-08T13:18:38Z</time>
      </trkpt>
      <trkpt lat="44.83233" lon="5.41297">
        <ele>1514.6</ele>
        <time>2021-10-08T13:18:39Z</time>
      </trkpt>
      <trkpt lat="44.83231" lon="5.41298">
        <ele>1514.6</ele>
        <time>2021-10-08T13:18:40Z</time>
      </trkpt>
      <trkpt lat="44.8323" lon="5.413">
        <ele>1515.2</ele>
        <time>2021-10-08T13:18:41Z</time>
      </trkpt>
      <trkpt lat="44.83229" lon="5.41301">
        <ele>1514.8</ele>
        <time>2021-10-08T13:18:42Z</time>
      </trkpt>
      <trkpt lat="44.83228" lon="5.41303">
        <ele>1514.8</ele>
        <time>2021-10-08T13:18:43Z</time>
      </trkpt>
      <trkpt lat="44.83227" lon="5.41304">
        <ele>1514.8</ele>
        <time>2021-10-08T13:18:44Z</time>
      </trkpt>
      <trkpt lat="44.83226" lon="5.41306">
        <ele>1514.8</ele>
        <time>2021-10-08T13:18:45Z</time>
      </trkpt>
      <trkpt lat="44.83225" lon="5.41307">
        <ele>1515.8</ele>
        <time>2021-10-08T13:18:46Z</time>
      </trkpt>
      <trkpt lat="44.83224" lon="5.41309">
        <ele>1515.8</ele>
        <time>2021-10-08T13:18:47Z</time>
      </trkpt>
      <trkpt lat="44.83222" lon="5.4131">
        <ele>1515.8</ele>
        <time>2021-10-08T13:18:48Z</time>
      </trkpt>
      <trkpt lat="44.83221" lon="5.41312">
        <ele>1515.8</ele>
        <time>2021-10-08T13:18:49Z</time>
      </trkpt>
      <trkpt lat="44.8322" lon="5.41313">
        <ele>1516.8</ele>
        <time>2021-10-08T13:18:50Z</time>
      </trkpt>
      <trkpt lat="44.83219" lon="5.41315">
        <ele>1516.8</ele>
        <time>2021-10-08T13:18:51Z</time>
      </trkpt>
      <trkpt lat="44.83218" lon="5.41317">
        <ele>1516.8</ele>
        <time>2021-10-08T13:18:52Z</time>
      </trkpt>
      <trkpt lat="44.83217" lon="5.41318">
        <ele>1517.2</ele>
        <time>2021-10-08T13:18:53Z</time>
      </trkpt>
      <trkpt lat="44.83216" lon="5.41319">
        <ele>1517.2</ele>
        <time>2021-10-08T13:18:54Z</time>
      </trkpt>
      <trkpt lat="44.83214" lon="5.41321">
        <ele>1517.2</ele>
        <time>2021-10-08T13:18:55Z</time>
      </trkpt>
      <trkpt lat="44.83213" lon="5.41322">
        <ele>1517.2</ele>
        <time>2021-10-08T13:18:56Z</time>
      </trkpt>
      <trkpt lat="44.83212" lon="5.41323">
        <ele>1518.2</ele>
        <time>2021-10-08T13:18:57Z</time>
      </trkpt>
      <trkpt lat="44.83211" lon="5.41324">
        <ele>1518.4</ele>
        <time>2021-10-08T13:18:58Z</time>
      </trkpt>
      <trkpt lat="44.8321" lon="5.41325">
        <ele>1518.4</ele>
        <time>2021-10-08T13:18:59Z</time>
      </trkpt>
      <trkpt lat="44.83209" lon="5.41326">
        <ele>1518.4</ele>
        <time>2021-10-08T13:19:00Z</time>
      </trkpt>
      <trkpt lat="44.83208" lon="5.41328">
        <ele>1518.4</ele>
        <time>2021-10-08T13:19:01Z</time>
      </trkpt>
      <trkpt lat="44.83207" lon="5.41329">
        <ele>1519</ele>
        <time>2021-10-08T13:19:02Z</time>
      </trkpt>
      <trkpt lat="44.83205" lon="5.4133">
        <ele>1519</ele>
        <time>2021-10-08T13:19:03Z</time>
      </trkpt>
      <trkpt lat="44.83204" lon="5.41331">
        <ele>1519</ele>
        <time>2021-10-08T13:19:04Z</time>
      </trkpt>
      <trkpt lat="44.83203" lon="5.41332">
        <ele>1519.4</ele>
        <time>2021-10-08T13:19:05Z</time>
      </trkpt>
      <trkpt lat="44.83202" lon="5.41334">
        <ele>1519.4</ele>
        <time>2021-10-08T13:19:06Z</time>
      </trkpt>
      <trkpt lat="44.832" lon="5.41335">
        <ele>1519.4</ele>
        <time>2021-10-08T13:19:07Z</time>
      </trkpt>
      <trkpt lat="44.83199" lon="5.41336">
        <ele>1519.4</ele>
        <time>2021-10-08T13:19:08Z</time>
      </trkpt>
      <trkpt lat="44.83198" lon="5.41337">
        <ele>1520</ele>
        <time>2021-10-08T13:19:09Z</time>
      </trkpt>
      <trkpt lat="44.83197" lon="5.41338">
        <ele>1520</ele>
        <time>2021-10-08T13:19:10Z</time>
      </trkpt>
      <trkpt lat="44.83195" lon="5.41339">
        <ele>1520.6</ele>
        <time>2021-10-08T13:19:11Z</time>
      </trkpt>
      <trkpt lat="44.83194" lon="5.4134">
        <ele>1520.6</ele>
        <time>2021-10-08T13:19:12Z</time>
      </trkpt>
      <trkpt lat="44.83193" lon="5.41341">
        <ele>1520.6</ele>
        <time>2021-10-08T13:19:13Z</time>
      </trkpt>
      <trkpt lat="44.83192" lon="5.41342">
        <ele>1520.4</ele>
        <time>2021-10-08T13:19:14Z</time>
      </trkpt>
      <trkpt lat="44.83192" lon="5.41343">
        <ele>1520.4</ele>
        <time>2021-10-08T13:19:15Z</time>
      </trkpt>
      <trkpt lat="44.83191" lon="5.41344">
        <ele>1520.4</ele>
        <time>2021-10-08T13:19:16Z</time>
      </trkpt>
      <trkpt lat="44.8319" lon="5.41344">
        <ele>1521</ele>
        <time>2021-10-08T13:19:17Z</time>
      </trkpt>
      <trkpt lat="44.83189" lon="5.41345">
        <ele>1521</ele>
        <time>2021-10-08T13:19:18Z</time>
      </trkpt>
      <trkpt lat="44.83189" lon="5.41345">
        <ele>1521</ele>
        <time>2021-10-08T13:19:19Z</time>
      </trkpt>
      <trkpt lat="44.83188" lon="5.41346">
        <ele>1521</ele>
        <time>2021-10-08T13:19:20Z</time>
      </trkpt>
      <trkpt lat="44.83187" lon="5.41346">
        <ele>1521</ele>
        <time>2021-10-08T13:19:21Z</time>
      </trkpt>
      <trkpt lat="44.83186" lon="5.41346">
        <ele>1520.6</ele>
        <time>2021-10-08T13:19:22Z</time>
      </trkpt>
      <trkpt lat="44.83186" lon="5.41346">
        <ele>1520.6</ele>
        <time>2021-10-08T13:19:23Z</time>
      </trkpt>
      <trkpt lat="44.83174" lon="5.4138">
        <ele>1521.4</ele>
        <time>2021-10-08T13:22:12Z</time>
      </trkpt>
      <trkpt lat="44.83173" lon="5.41381">
        <ele>1520.4</ele>
        <time>2021-10-08T13:22:13Z</time>
      </trkpt>
      <trkpt lat="44.83173" lon="5.41383">
        <ele>1520.4</ele>
        <time>2021-10-08T13:22:14Z</time>
      </trkpt>
      <trkpt lat="44.83172" lon="5.41385">
        <ele>1520.4</ele>
        <time>2021-10-08T13:22:15Z</time>
      </trkpt>
      <trkpt lat="44.83171" lon="5.41386">
        <ele>1520.4</ele>
        <time>2021-10-08T13:22:16Z</time>
      </trkpt>
      <trkpt lat="44.8317" lon="5.41388">
        <ele>1521</ele>
        <time>2021-10-08T13:22:17Z</time>
      </trkpt>
      <trkpt lat="44.83169" lon="5.4139">
        <ele>1521</ele>
        <time>2021-10-08T13:22:18Z</time>
      </trkpt>
      <trkpt lat="44.83168" lon="5.41391">
        <ele>1521</ele>
        <time>2021-10-08T13:22:19Z</time>
      </trkpt>
      <trkpt lat="44.83168" lon="5.41393">
        <ele>1521</ele>
        <time>2021-10-08T13:22:20Z</time>
      </trkpt>
      <trkpt lat="44.83166" lon="5.41395">
        <ele>1521</ele>
        <time>2021-10-08T13:22:21Z</time>
      </trkpt>
      <trkpt lat="44.83165" lon="5.41397">
        <ele>1521</ele>
        <time>2021-10-08T13:22:22Z</time>
      </trkpt>
      <trkpt lat="44.83164" lon="5.41399">
        <ele>1521</ele>
        <time>2021-10-08T13:22:23Z</time>
      </trkpt>
      <trkpt lat="44.83163" lon="5.414">
        <ele>1521</ele>
        <time>2021-10-08T13:22:24Z</time>
      </trkpt>
      <trkpt lat="44.83162" lon="5.41402">
        <ele>1521</ele>
        <time>2021-10-08T13:22:25Z</time>
      </trkpt>
      <trkpt lat="44.83161" lon="5.41404">
        <ele>1521.8</ele>
        <time>2021-10-08T13:22:26Z</time>
      </trkpt>
      <trkpt lat="44.8316" lon="5.41406">
        <ele>1521.8</ele>
        <time>2021-10-08T13:22:27Z</time>
      </trkpt>
      <trkpt lat="44.8316" lon="5.41408">
        <ele>1521.8</ele>
        <time>2021-10-08T13:22:28Z</time>
      </trkpt>
      <trkpt lat="44.83159" lon="5.41409">
        <ele>1521.8</ele>
        <time>2021-10-08T13:22:29Z</time>
      </trkpt>
      <trkpt lat="44.83158" lon="5.41411">
        <ele>1522.6</ele>
        <time>2021-10-08T13:22:30Z</time>
      </trkpt>
      <trkpt lat="44.83157" lon="5.41412">
        <ele>1522.6</ele>
        <time>2021-10-08T13:22:31Z</time>
      </trkpt>
      <trkpt lat="44.83156" lon="5.41412">
        <ele>1522.6</ele>
        <time>2021-10-08T13:22:32Z</time>
      </trkpt>
      <trkpt lat="44.83155" lon="5.41412">
        <ele>1522.6</ele>
        <time>2021-10-08T13:22:33Z</time>
      </trkpt>
      <trkpt lat="44.83154" lon="5.41412">
        <ele>1522.4</ele>
        <time>2021-10-08T13:22:34Z</time>
      </trkpt>
      <trkpt lat="44.83152" lon="5.41412">
        <ele>1522.4</ele>
        <time>2021-10-08T13:22:35Z</time>
      </trkpt>
      <trkpt lat="44.83151" lon="5.41413">
        <ele>1522.4</ele>
        <time>2021-10-08T13:22:36Z</time>
      </trkpt>
      <trkpt lat="44.8315" lon="5.41414">
        <ele>1523</ele>
        <time>2021-10-08T13:22:37Z</time>
      </trkpt>
      <trkpt lat="44.83149" lon="5.41415">
        <ele>1523.8</ele>
        <time>2021-10-08T13:22:38Z</time>
      </trkpt>
      <trkpt lat="44.83148" lon="5.41416">
        <ele>1523.8</ele>
        <time>2021-10-08T13:22:39Z</time>
      </trkpt>
      <trkpt lat="44.83147" lon="5.41418">
        <ele>1523.8</ele>
        <time>2021-10-08T13:22:40Z</time>
      </trkpt>
      <trkpt lat="44.83146" lon="5.41419">
        <ele>1523.8</ele>
        <time>2021-10-08T13:22:41Z</time>
      </trkpt>
      <trkpt lat="44.83145" lon="5.41421">
        <ele>1524</ele>
        <time>2021-10-08T13:22:42Z</time>
      </trkpt>
      <trkpt lat="44.83144" lon="5.41422">
        <ele>1524</ele>
        <time>2021-10-08T13:22:43Z</time>
      </trkpt>
      <trkpt lat="44.83143" lon="5.41423">
        <ele>1524</ele>
        <time>2021-10-08T13:22:44Z</time>
      </trkpt>
      <trkpt lat="44.83142" lon="5.41425">
        <ele>1524.6</ele>
        <time>2021-10-08T13:22:45Z</time>
      </trkpt>
      <trkpt lat="44.83142" lon="5.41426">
        <ele>1524</ele>
        <time>2021-10-08T13:22:46Z</time>
      </trkpt>
      <trkpt lat="44.83141" lon="5.41428">
        <ele>1524</ele>
        <time>2021-10-08T13:22:47Z</time>
      </trkpt>
      <trkpt lat="44.83141" lon="5.4143">
        <ele>1524</ele>
        <time>2021-10-08T13:22:48Z</time>
      </trkpt>
      <trkpt lat="44.8314" lon="5.41431">
        <ele>1524</ele>
        <time>2021-10-08T13:22:49Z</time>
      </trkpt>
      <trkpt lat="44.83139" lon="5.41432">
        <ele>1525</ele>
        <time>2021-10-08T13:22:50Z</time>
      </trkpt>
      <trkpt lat="44.83137" lon="5.41433">
        <ele>1525</ele>
        <time>2021-10-08T13:22:51Z</time>
      </trkpt>
      <trkpt lat="44.83136" lon="5.41435">
        <ele>1525</ele>
        <time>2021-10-08T13:22:52Z</time>
      </trkpt>
      <trkpt lat="44.83136" lon="5.41436">
        <ele>1525</ele>
        <time>2021-10-08T13:22:53Z</time>
      </trkpt>
      <trkpt lat="44.83135" lon="5.41437">
        <ele>1524.6</ele>
        <time>2021-10-08T13:22:54Z</time>
      </trkpt>
      <trkpt lat="44.83134" lon="5.41439">
        <ele>1524.6</ele>
        <time>2021-10-08T13:22:55Z</time>
      </trkpt>
      <trkpt lat="44.83133" lon="5.4144">
        <ele>1524.6</ele>
        <time>2021-10-08T13:22:56Z</time>
      </trkpt>
      <trkpt lat="44.83133" lon="5.41441">
        <ele>1524.6</ele>
        <time>2021-10-08T13:22:57Z</time>
      </trkpt>
      <trkpt lat="44.83132" lon="5.41443">
        <ele>1525.8</ele>
        <time>2021-10-08T13:22:58Z</time>
      </trkpt>
      <trkpt lat="44.83131" lon="5.41444">
        <ele>1525.8</ele>
        <time>2021-10-08T13:22:59Z</time>
      </trkpt>
      <trkpt lat="44.8313" lon="5.41446">
        <ele>1525.8</ele>
        <time>2021-10-08T13:23:00Z</time>
      </trkpt>
      <trkpt lat="44.83129" lon="5.41447">
        <ele>1525.8</ele>
        <time>2021-10-08T13:23:01Z</time>
      </trkpt>
      <trkpt lat="44.83128" lon="5.41449">
        <ele>1525.8</ele>
        <time>2021-10-08T13:23:02Z</time>
      </trkpt>
      <trkpt lat="44.83127" lon="5.4145">
        <ele>1525.8</ele>
        <time>2021-10-08T13:23:03Z</time>
      </trkpt>
      <trkpt lat="44.83126" lon="5.41452">
        <ele>1525.8</ele>
        <time>2021-10-08T13:23:04Z</time>
      </trkpt>
      <trkpt lat="44.83125" lon="5.41453">
        <ele>1526.2</ele>
        <time>2021-10-08T13:23:05Z</time>
      </trkpt>
      <trkpt lat="44.83125" lon="5.41454">
        <ele>1526.4</ele>
        <time>2021-10-08T13:23:06Z</time>
      </trkpt>
      <trkpt lat="44.83124" lon="5.41455">
        <ele>1526.4</ele>
        <time>2021-10-08T13:23:07Z</time>
      </trkpt>
      <trkpt lat="44.83122" lon="5.41455">
        <ele>1526.4</ele>
        <time>2021-10-08T13:23:08Z</time>
      </trkpt>
      <trkpt lat="44.83121" lon="5.41455">
        <ele>1526.4</ele>
        <time>2021-10-08T13:23:09Z</time>
      </trkpt>
      <trkpt lat="44.8312" lon="5.41455">
        <ele>1526.2</ele>
        <time>2021-10-08T13:23:10Z</time>
      </trkpt>
      <trkpt lat="44.83119" lon="5.41456">
        <ele>1526.2</ele>
        <time>2021-10-08T13:23:11Z</time>
      </trkpt>
      <trkpt lat="44.83118" lon="5.41458">
        <ele>1526.2</ele>
        <time>2021-10-08T13:23:12Z</time>
      </trkpt>
      <trkpt lat="44.83117" lon="5.41459">
        <ele>1526.6</ele>
        <time>2021-10-08T13:23:13Z</time>
      </trkpt>
      <trkpt lat="44.83116" lon="5.4146">
        <ele>1527</ele>
        <time>2021-10-08T13:23:14Z</time>
      </trkpt>
      <trkpt lat="44.83115" lon="5.41462">
        <ele>1527</ele>
        <time>2021-10-08T13:23:15Z</time>
      </trkpt>
      <trkpt lat="44.83114" lon="5.41463">
        <ele>1527</ele>
        <time>2021-10-08T13:23:16Z</time>
      </trkpt>
      <trkpt lat="44.83113" lon="5.41464">
        <ele>1526.4</ele>
        <time>2021-10-08T13:23:17Z</time>
      </trkpt>
      <trkpt lat="44.83112" lon="5.41466">
        <ele>1526.4</ele>
        <time>2021-10-08T13:23:18Z</time>
      </trkpt>
      <trkpt lat="44.83111" lon="5.41467">
        <ele>1526.4</ele>
        <time>2021-10-08T13:23:19Z</time>
      </trkpt>
      <trkpt lat="44.8311" lon="5.41468">
        <ele>1526.4</ele>
        <time>2021-10-08T13:23:20Z</time>
      </trkpt>
      <trkpt lat="44.83109" lon="5.4147">
        <ele>1526.8</ele>
        <time>2021-10-08T13:23:21Z</time>
      </trkpt>
      <trkpt lat="44.83108" lon="5.41471">
        <ele>1527.2</ele>
        <time>2021-10-08T13:23:22Z</time>
      </trkpt>
      <trkpt lat="44.83106" lon="5.41473">
        <ele>1527.2</ele>
        <time>2021-10-08T13:23:23Z</time>
      </trkpt>
      <trkpt lat="44.83105" lon="5.41474">
        <ele>1527.2</ele>
        <time>2021-10-08T13:23:24Z</time>
      </trkpt>
      <trkpt lat="44.83103" lon="5.41476">
        <ele>1527.2</ele>
        <time>2021-10-08T13:23:25Z</time>
      </trkpt>
      <trkpt lat="44.83102" lon="5.41477">
        <ele>1526.8</ele>
        <time>2021-10-08T13:23:26Z</time>
      </trkpt>
      <trkpt lat="44.83101" lon="5.41478">
        <ele>1526.8</ele>
        <time>2021-10-08T13:23:27Z</time>
      </trkpt>
      <trkpt lat="44.83099" lon="5.41479">
        <ele>1526.8</ele>
        <time>2021-10-08T13:23:28Z</time>
      </trkpt>
      <trkpt lat="44.83098" lon="5.4148">
        <ele>1526.8</ele>
        <time>2021-10-08T13:23:29Z</time>
      </trkpt>
      <trkpt lat="44.83097" lon="5.41481">
        <ele>1526.8</ele>
        <time>2021-10-08T13:23:30Z</time>
      </trkpt>
      <trkpt lat="44.83095" lon="5.41482">
        <ele>1526.2</ele>
        <time>2021-10-08T13:23:31Z</time>
      </trkpt>
      <trkpt lat="44.83094" lon="5.41483">
        <ele>1526.2</ele>
        <time>2021-10-08T13:23:32Z</time>
      </trkpt>
      <trkpt lat="44.83092" lon="5.41484">
        <ele>1526.2</ele>
        <time>2021-10-08T13:23:33Z</time>
      </trkpt>
      <trkpt lat="44.83091" lon="5.41485">
        <ele>1526.4</ele>
        <time>2021-10-08T13:23:34Z</time>
      </trkpt>
      <trkpt lat="44.83089" lon="5.41486">
        <ele>1526.4</ele>
        <time>2021-10-08T13:23:35Z</time>
      </trkpt>
      <trkpt lat="44.83088" lon="5.41487">
        <ele>1526.4</ele>
        <time>2021-10-08T13:23:36Z</time>
      </trkpt>
      <trkpt lat="44.83086" lon="5.41488">
        <ele>1526.4</ele>
        <time>2021-10-08T13:23:37Z</time>
      </trkpt>
      <trkpt lat="44.83085" lon="5.41489">
        <ele>1527.4</ele>
        <time>2021-10-08T13:23:38Z</time>
      </trkpt>
      <trkpt lat="44.83084" lon="5.4149">
        <ele>1527.4</ele>
        <time>2021-10-08T13:23:39Z</time>
      </trkpt>
      <trkpt lat="44.83082" lon="5.41491">
        <ele>1527.4</ele>
        <time>2021-10-08T13:23:40Z</time>
      </trkpt>
      <trkpt lat="44.83081" lon="5.41492">
        <ele>1527.6</ele>
        <time>2021-10-08T13:23:41Z</time>
      </trkpt>
      <trkpt lat="44.8308" lon="5.41493">
        <ele>1528</ele>
        <time>2021-10-08T13:23:42Z</time>
      </trkpt>
      <trkpt lat="44.83079" lon="5.41494">
        <ele>1528</ele>
        <time>2021-10-08T13:23:43Z</time>
      </trkpt>
      <trkpt lat="44.83077" lon="5.41495">
        <ele>1528</ele>
        <time>2021-10-08T13:23:44Z</time>
      </trkpt>
      <trkpt lat="44.83076" lon="5.41496">
        <ele>1528</ele>
        <time>2021-10-08T13:23:45Z</time>
      </trkpt>
      <trkpt lat="44.83075" lon="5.41496">
        <ele>1528.2</ele>
        <time>2021-10-08T13:23:46Z</time>
      </trkpt>
      <trkpt lat="44.83073" lon="5.41497">
        <ele>1528.2</ele>
        <time>2021-10-08T13:23:47Z</time>
      </trkpt>
      <trkpt lat="44.83072" lon="5.41498">
        <ele>1528.2</ele>
        <time>2021-10-08T13:23:48Z</time>
      </trkpt>
      <trkpt lat="44.83071" lon="5.41499">
        <ele>1529.2</ele>
        <time>2021-10-08T13:23:49Z</time>
      </trkpt>
      <trkpt lat="44.8307" lon="5.415">
        <ele>1529.6</ele>
        <time>2021-10-08T13:23:50Z</time>
      </trkpt>
      <trkpt lat="44.83068" lon="5.41501">
        <ele>1529.6</ele>
        <time>2021-10-08T13:23:51Z</time>
      </trkpt>
      <trkpt lat="44.83067" lon="5.41501">
        <ele>1529.6</ele>
        <time>2021-10-08T13:23:52Z</time>
      </trkpt>
      <trkpt lat="44.83066" lon="5.41502">
        <ele>1529.6</ele>
        <time>2021-10-08T13:23:53Z</time>
      </trkpt>
      <trkpt lat="44.83065" lon="5.41503">
        <ele>1529.6</ele>
        <time>2021-10-08T13:23:54Z</time>
      </trkpt>
      <trkpt lat="44.83064" lon="5.41504">
        <ele>1529.6</ele>
        <time>2021-10-08T13:23:55Z</time>
      </trkpt>
      <trkpt lat="44.83062" lon="5.41504">
        <ele>1529.6</ele>
        <time>2021-10-08T13:23:56Z</time>
      </trkpt>
      <trkpt lat="44.83061" lon="5.41505">
        <ele>1530.4</ele>
        <time>2021-10-08T13:23:57Z</time>
      </trkpt>
      <trkpt lat="44.8306" lon="5.41506">
        <ele>1530.6</ele>
        <time>2021-10-08T13:23:58Z</time>
      </trkpt>
      <trkpt lat="44.83059" lon="5.41506">
        <ele>1530.6</ele>
        <time>2021-10-08T13:23:59Z</time>
      </trkpt>
      <trkpt lat="44.83057" lon="5.41506">
        <ele>1530.6</ele>
        <time>2021-10-08T13:24:00Z</time>
      </trkpt>
      <trkpt lat="44.83056" lon="5.41507">
        <ele>1530.6</ele>
        <time>2021-10-08T13:24:01Z</time>
      </trkpt>
      <trkpt lat="44.83055" lon="5.41508">
        <ele>1531.2</ele>
        <time>2021-10-08T13:24:02Z</time>
      </trkpt>
      <trkpt lat="44.83054" lon="5.41508">
        <ele>1531.2</ele>
        <time>2021-10-08T13:24:03Z</time>
      </trkpt>
      <trkpt lat="44.83052" lon="5.41508">
        <ele>1531.2</ele>
        <time>2021-10-08T13:24:04Z</time>
      </trkpt>
      <trkpt lat="44.83051" lon="5.41509">
        <ele>1531.2</ele>
        <time>2021-10-08T13:24:05Z</time>
      </trkpt>
      <trkpt lat="44.8305" lon="5.41509">
        <ele>1531.6</ele>
        <time>2021-10-08T13:24:06Z</time>
      </trkpt>
      <trkpt lat="44.83049" lon="5.4151">
        <ele>1531.6</ele>
        <time>2021-10-08T13:24:07Z</time>
      </trkpt>
      <trkpt lat="44.83047" lon="5.4151">
        <ele>1531.6</ele>
        <time>2021-10-08T13:24:08Z</time>
      </trkpt>
      <trkpt lat="44.83046" lon="5.4151">
        <ele>1532.6</ele>
        <time>2021-10-08T13:24:09Z</time>
      </trkpt>
      <trkpt lat="44.83045" lon="5.41511">
        <ele>1532.4</ele>
        <time>2021-10-08T13:24:10Z</time>
      </trkpt>
      <trkpt lat="44.83044" lon="5.41511">
        <ele>1532.4</ele>
        <time>2021-10-08T13:24:11Z</time>
      </trkpt>
      <trkpt lat="44.83043" lon="5.41512">
        <ele>1532.4</ele>
        <time>2021-10-08T13:24:12Z</time>
      </trkpt>
      <trkpt lat="44.83042" lon="5.41512">
        <ele>1533.4</ele>
        <time>2021-10-08T13:24:13Z</time>
      </trkpt>
      <trkpt lat="44.8304" lon="5.41512">
        <ele>1533.4</ele>
        <time>2021-10-08T13:24:14Z</time>
      </trkpt>
      <trkpt lat="44.83039" lon="5.41513">
        <ele>1533.4</ele>
        <time>2021-10-08T13:24:15Z</time>
      </trkpt>
      <trkpt lat="44.83038" lon="5.41513">
        <ele>1533.4</ele>
        <time>2021-10-08T13:24:16Z</time>
      </trkpt>
      <trkpt lat="44.83036" lon="5.41513">
        <ele>1533.4</ele>
        <time>2021-10-08T13:24:17Z</time>
      </trkpt>
      <trkpt lat="44.83035" lon="5.41513">
        <ele>1534</ele>
        <time>2021-10-08T13:24:18Z</time>
      </trkpt>
      <trkpt lat="44.83034" lon="5.41514">
        <ele>1534</ele>
        <time>2021-10-08T13:24:19Z</time>
      </trkpt>
      <trkpt lat="44.83033" lon="5.41514">
        <ele>1534</ele>
        <time>2021-10-08T13:24:20Z</time>
      </trkpt>
      <trkpt lat="44.83032" lon="5.41514">
        <ele>1534.2</ele>
        <time>2021-10-08T13:24:21Z</time>
      </trkpt>
      <trkpt lat="44.82865" lon="5.41568">
        <ele>1559.2</ele>
        <time>2021-10-08T13:27:46Z</time>
      </trkpt>
      <trkpt lat="44.82863" lon="5.41568">
        <ele>1559.2</ele>
        <time>2021-10-08T13:27:47Z</time>
      </trkpt>
      <trkpt lat="44.82862" lon="5.41569">
        <ele>1559.2</ele>
        <time>2021-10-08T13:27:48Z</time>
      </trkpt>
      <trkpt lat="44.82861" lon="5.41569">
        <ele>1560</ele>
        <time>2021-10-08T13:27:49Z</time>
      </trkpt>
      <trkpt lat="44.8286" lon="5.4157">
        <ele>1560</ele>
        <time>2021-10-08T13:27:50Z</time>
      </trkpt>
      <trkpt lat="44.82859" lon="5.4157">
        <ele>1560</ele>
        <time>2021-10-08T13:27:51Z</time>
      </trkpt>
      <trkpt lat="44.82857" lon="5.41571">
        <ele>1560</ele>
        <time>2021-10-08T13:27:52Z</time>
      </trkpt>
      <trkpt lat="44.82856" lon="5.41571">
        <ele>1560</ele>
        <time>2021-10-08T13:27:53Z</time>
      </trkpt>
      <trkpt lat="44.82855" lon="5.41571">
        <ele>1560.6</ele>
        <time>2021-10-08T13:27:54Z</time>
      </trkpt>
      <trkpt lat="44.82853" lon="5.41571">
        <ele>1560.6</ele>
        <time>2021-10-08T13:27:55Z</time>
      </trkpt>
      <trkpt lat="44.82852" lon="5.41571">
        <ele>1560.6</ele>
        <time>2021-10-08T13:27:56Z</time>
      </trkpt>
      <trkpt lat="44.82851" lon="5.41571">
        <ele>1560.6</ele>
        <time>2021-10-08T13:27:57Z</time>
      </trkpt>
      <trkpt lat="44.8285" lon="5.41572">
        <ele>1561.4</ele>
        <time>2021-10-08T13:27:58Z</time>
      </trkpt>
      <trkpt lat="44.82849" lon="5.41573">
        <ele>1561.4</ele>
        <time>2021-10-08T13:27:59Z</time>
      </trkpt>
      <trkpt lat="44.82848" lon="5.41573">
        <ele>1561.4</ele>
        <time>2021-10-08T13:28:00Z</time>
      </trkpt>
      <trkpt lat="44.82847" lon="5.41573">
        <ele>1562.4</ele>
        <time>2021-10-08T13:28:01Z</time>
      </trkpt>
      <trkpt lat="44.82846" lon="5.41574">
        <ele>1563</ele>
        <time>2021-10-08T13:28:02Z</time>
      </trkpt>
      <trkpt lat="44.82845" lon="5.41575">
        <ele>1563</ele>
        <time>2021-10-08T13:28:03Z</time>
      </trkpt>
      <trkpt lat="44.82843" lon="5.41575">
        <ele>1563</ele>
        <time>2021-10-08T13:28:04Z</time>
      </trkpt>
      <trkpt lat="44.82842" lon="5.41575">
        <ele>1563</ele>
        <time>2021-10-08T13:28:05Z</time>
      </trkpt>
      <trkpt lat="44.82841" lon="5.41576">
        <ele>1563.2</ele>
        <time>2021-10-08T13:28:06Z</time>
      </trkpt>
      <trkpt lat="44.8284" lon="5.41576">
        <ele>1563.2</ele>
        <time>2021-10-08T13:28:07Z</time>
      </trkpt>
      <trkpt lat="44.82839" lon="5.41576">
        <ele>1563.2</ele>
        <time>2021-10-08T13:28:08Z</time>
      </trkpt>
      <trkpt lat="44.82838" lon="5.41576">
        <ele>1563.2</ele>
        <time>2021-10-08T13:28:09Z</time>
      </trkpt>
      <trkpt lat="44.82837" lon="5.41576">
        <ele>1563.8</ele>
        <time>2021-10-08T13:28:10Z</time>
      </trkpt>
      <trkpt lat="44.82837" lon="5.41577">
        <ele>1563.8</ele>
        <time>2021-10-08T13:28:11Z</time>
      </trkpt>
      <trkpt lat="44.82836" lon="5.41577">
        <ele>1563.8</ele>
        <time>2021-10-08T13:28:12Z</time>
      </trkpt>
      <trkpt lat="44.82835" lon="5.41577">
        <ele>1564</ele>
        <time>2021-10-08T13:28:13Z</time>
      </trkpt>
      <trkpt lat="44.82834" lon="5.41577">
        <ele>1564.8</ele>
        <time>2021-10-08T13:28:14Z</time>
      </trkpt>
      <trkpt lat="44.82833" lon="5.41577">
        <ele>1564.8</ele>
        <time>2021-10-08T13:28:15Z</time>
      </trkpt>
      <trkpt lat="44.82832" lon="5.41577">
        <ele>1564.8</ele>
        <time>2021-10-08T13:28:16Z</time>
      </trkpt>
      <trkpt lat="44.82831" lon="5.41577">
        <ele>1565.4</ele>
        <time>2021-10-08T13:28:17Z</time>
      </trkpt>
      <trkpt lat="44.8283" lon="5.41577">
        <ele>1565.4</ele>
        <time>2021-10-08T13:28:18Z</time>
      </trkpt>
      <trkpt lat="44.8283" lon="5.41577">
        <ele>1565.4</ele>
        <time>2021-10-08T13:28:19Z</time>
      </trkpt>
      <trkpt lat="44.82829" lon="5.41577">
        <ele>1565.4</ele>
        <time>2021-10-08T13:28:20Z</time>
      </trkpt>
      <trkpt lat="44.82828" lon="5.41577">
        <ele>1566.4</ele>
        <time>2021-10-08T13:28:21Z</time>
      </trkpt>
      <trkpt lat="44.82827" lon="5.41578">
        <ele>1566.8</ele>
        <time>2021-10-08T13:28:22Z</time>
      </trkpt>
      <trkpt lat="44.82826" lon="5.41578">
        <ele>1566.8</ele>
        <time>2021-10-08T13:28:23Z</time>
      </trkpt>
      <trkpt lat="44.82825" lon="5.41579">
        <ele>1566.8</ele>
        <time>2021-10-08T13:28:24Z</time>
      </trkpt>
      <trkpt lat="44.82825" lon="5.4158">
        <ele>1567</ele>
        <time>2021-10-08T13:28:25Z</time>
      </trkpt>
      <trkpt lat="44.82824" lon="5.4158">
        <ele>1566.6</ele>
        <time>2021-10-08T13:28:26Z</time>
      </trkpt>
      <trkpt lat="44.82824" lon="5.41581">
        <ele>1566.6</ele>
        <time>2021-10-08T13:28:27Z</time>
      </trkpt>
      <trkpt lat="44.82823" lon="5.41582">
        <ele>1566.6</ele>
        <time>2021-10-08T13:28:28Z</time>
      </trkpt>
      <trkpt lat="44.82822" lon="5.41583">
        <ele>1567.6</ele>
        <time>2021-10-08T13:28:29Z</time>
      </trkpt>
      <trkpt lat="44.82822" lon="5.41584">
        <ele>1567.6</ele>
        <time>2021-10-08T13:28:30Z</time>
      </trkpt>
      <trkpt lat="44.82821" lon="5.41585">
        <ele>1567.6</ele>
        <time>2021-10-08T13:28:31Z</time>
      </trkpt>
      <trkpt lat="44.8282" lon="5.41585">
        <ele>1567.6</ele>
        <time>2021-10-08T13:28:32Z</time>
      </trkpt>
      <trkpt lat="44.82819" lon="5.41586">
        <ele>1567.6</ele>
        <time>2021-10-08T13:28:33Z</time>
      </trkpt>
      <trkpt lat="44.82819" lon="5.41587">
        <ele>1567.4</ele>
        <time>2021-10-08T13:28:34Z</time>
      </trkpt>
      <trkpt lat="44.82818" lon="5.41587">
        <ele>1567.4</ele>
        <time>2021-10-08T13:28:35Z</time>
      </trkpt>
      <trkpt lat="44.82816" lon="5.41587">
        <ele>1567.4</ele>
        <time>2021-10-08T13:28:36Z</time>
      </trkpt>
      <trkpt lat="44.82816" lon="5.41588">
        <ele>1567.4</ele>
        <time>2021-10-08T13:28:37Z</time>
      </trkpt>
      <trkpt lat="44.82815" lon="5.41588">
        <ele>1568.2</ele>
        <time>2021-10-08T13:28:38Z</time>
      </trkpt>
      <trkpt lat="44.82814" lon="5.41589">
        <ele>1568.2</ele>
        <time>2021-10-08T13:28:39Z</time>
      </trkpt>
      <trkpt lat="44.82813" lon="5.4159">
        <ele>1568.2</ele>
        <time>2021-10-08T13:28:40Z</time>
      </trkpt>
      <trkpt lat="44.82812" lon="5.4159">
        <ele>1569</ele>
        <time>2021-10-08T13:28:41Z</time>
      </trkpt>
      <trkpt lat="44.82811" lon="5.41591">
        <ele>1569.4</ele>
        <time>2021-10-08T13:28:42Z</time>
      </trkpt>
      <trkpt lat="44.8281" lon="5.41591">
        <ele>1569.4</ele>
        <time>2021-10-08T13:28:43Z</time>
      </trkpt>
      <trkpt lat="44.8281" lon="5.41592">
        <ele>1569.4</ele>
        <time>2021-10-08T13:28:44Z</time>
      </trkpt>
      <trkpt lat="44.8281" lon="5.41592">
        <ele>1569.2</ele>
        <time>2021-10-08T13:28:45Z</time>
      </trkpt>
      <trkpt lat="44.8281" lon="5.41592">
        <ele>1569</ele>
        <time>2021-10-08T13:28:46Z</time>
      </trkpt>
      <trkpt lat="44.82644" lon="5.41748">
        <ele>1609</ele>
        <time>2021-10-08T13:39:52Z</time>
      </trkpt>
      <trkpt lat="44.82645" lon="5.4175">
        <ele>1608.4</ele>
        <time>2021-10-08T13:39:53Z</time>
      </trkpt>
      <trkpt lat="44.82647" lon="5.41752">
        <ele>1608.4</ele>
        <time>2021-10-08T13:39:54Z</time>
      </trkpt>
      <trkpt lat="44.82648" lon="5.41755">
        <ele>1608.4</ele>
        <time>2021-10-08T13:39:55Z</time>
      </trkpt>
      <trkpt lat="44.82649" lon="5.41757">
        <ele>1608.4</ele>
        <time>2021-10-08T13:39:56Z</time>
      </trkpt>
      <trkpt lat="44.82651" lon="5.4176">
        <ele>1607.2</ele>
        <time>2021-10-08T13:39:57Z</time>
      </trkpt>
      <trkpt lat="44.82653" lon="5.41763">
        <ele>1607.2</ele>
        <time>2021-10-08T13:39:58Z</time>
      </trkpt>
      <trkpt lat="44.82655" lon="5.41766">
        <ele>1607.2</ele>
        <time>2021-10-08T13:39:59Z</time>
      </trkpt>
      <trkpt lat="44.82656" lon="5.41769">
        <ele>1607.2</ele>
        <time>2021-10-08T13:40:00Z</time>
      </trkpt>
      <trkpt lat="44.82658" lon="5.41772">
        <ele>1606.2</ele>
        <time>2021-10-08T13:40:01Z</time>
      </trkpt>
      <trkpt lat="44.8266" lon="5.41775">
        <ele>1606</ele>
        <time>2021-10-08T13:40:02Z</time>
      </trkpt>
      <trkpt lat="44.82662" lon="5.41778">
        <ele>1606</ele>
        <time>2021-10-08T13:40:03Z</time>
      </trkpt>
      <trkpt lat="44.82664" lon="5.41781">
        <ele>1606</ele>
        <time>2021-10-08T13:40:04Z</time>
      </trkpt>
      <trkpt lat="44.82665" lon="5.41783">
        <ele>1606</ele>
        <time>2021-10-08T13:40:05Z</time>
      </trkpt>
      <trkpt lat="44.82666" lon="5.41786">
        <ele>1605.4</ele>
        <time>2021-10-08T13:40:06Z</time>
      </trkpt>
      <trkpt lat="44.82668" lon="5.41788">
        <ele>1605.4</ele>
        <time>2021-10-08T13:40:07Z</time>
      </trkpt>
      <trkpt lat="44.8267" lon="5.41791">
        <ele>1605.4</ele>
        <time>2021-10-08T13:40:08Z</time>
      </trkpt>
      <trkpt lat="44.82672" lon="5.41794">
        <ele>1605.4</ele>
        <time>2021-10-08T13:40:09Z</time>
      </trkpt>
      <trkpt lat="44.82674" lon="5.41797">
        <ele>1605.2</ele>
        <time>2021-10-08T13:40:10Z</time>
      </trkpt>
      <trkpt lat="44.82675" lon="5.418">
        <ele>1605.2</ele>
        <time>2021-10-08T13:40:11Z</time>
      </trkpt>
      <trkpt lat="44.82677" lon="5.41803">
        <ele>1605.2</ele>
        <time>2021-10-08T13:40:12Z</time>
      </trkpt>
      <trkpt lat="44.82678" lon="5.41807">
        <ele>1605.2</ele>
        <time>2021-10-08T13:40:13Z</time>
      </trkpt>
      <trkpt lat="44.8268" lon="5.4181">
        <ele>1604</ele>
        <time>2021-10-08T13:40:14Z</time>
      </trkpt>
      <trkpt lat="44.82681" lon="5.41813">
        <ele>1604</ele>
        <time>2021-10-08T13:40:15Z</time>
      </trkpt>
      <trkpt lat="44.82683" lon="5.41817">
        <ele>1604</ele>
        <time>2021-10-08T13:40:16Z</time>
      </trkpt>
      <trkpt lat="44.82684" lon="5.41821">
        <ele>1603</ele>
        <time>2021-10-08T13:40:17Z</time>
      </trkpt>
      <trkpt lat="44.82685" lon="5.41824">
        <ele>1603</ele>
        <time>2021-10-08T13:40:18Z</time>
      </trkpt>
      <trkpt lat="44.82686" lon="5.41826">
        <ele>1603.4</ele>
        <time>2021-10-08T13:40:19Z</time>
      </trkpt>
      <trkpt lat="44.82686" lon="5.41828">
        <ele>1603.4</ele>
        <time>2021-10-08T13:40:20Z</time>
      </trkpt>
      <trkpt lat="44.82686" lon="5.41829">
        <ele>1603.4</ele>
        <time>2021-10-08T13:40:21Z</time>
      </trkpt>
      <trkpt lat="44.82687" lon="5.4183">
        <ele>1602.6</ele>
        <time>2021-10-08T13:40:22Z</time>
      </trkpt>
      <trkpt lat="44.82688" lon="5.41832">
        <ele>1602.6</ele>
        <time>2021-10-08T13:40:23Z</time>
      </trkpt>
      <trkpt lat="44.82688" lon="5.41834">
        <ele>1602.6</ele>
        <time>2021-10-08T13:40:24Z</time>
      </trkpt>
      <trkpt lat="44.82689" lon="5.41836">
        <ele>1602.4</ele>
        <time>2021-10-08T13:40:25Z</time>
      </trkpt>
      <trkpt lat="44.82689" lon="5.41838">
        <ele>1603.8</ele>
        <time>2021-10-08T13:40:26Z</time>
      </trkpt>
      <trkpt lat="44.82689" lon="5.4184">
        <ele>1603.8</ele>
        <time>2021-10-08T13:40:27Z</time>
      </trkpt>
      <trkpt lat="44.82689" lon="5.41843">
        <ele>1603.8</ele>
        <time>2021-10-08T13:40:28Z</time>
      </trkpt>
      <trkpt lat="44.82689" lon="5.41845">
        <ele>1604.4</ele>
        <time>2021-10-08T13:40:29Z</time>
      </trkpt>
      <trkpt lat="44.82689" lon="5.41847">
        <ele>1605</ele>
        <time>2021-10-08T13:40:30Z</time>
      </trkpt>
      <trkpt lat="44.82689" lon="5.4185">
        <ele>1605</ele>
        <time>2021-10-08T13:40:31Z</time>
      </trkpt>
      <trkpt lat="44.82689" lon="5.41852">
        <ele>1605</ele>
        <time>2021-10-08T13:40:32Z</time>
      </trkpt>
      <trkpt lat="44.82689" lon="5.41854">
        <ele>1605</ele>
        <time>2021-10-08T13:40:33Z</time>
      </trkpt>
      <trkpt lat="44.8269" lon="5.41857">
        <ele>1604.4</ele>
        <time>2021-10-08T13:40:34Z</time>
      </trkpt>
      <trkpt lat="44.8269" lon="5.41859">
        <ele>1604.4</ele>
        <time>2021-10-08T13:40:35Z</time>
      </trkpt>
      <trkpt lat="44.8269" lon="5.41862">
        <ele>1604.4</ele>
        <time>2021-10-08T13:40:36Z</time>
      </trkpt>
      <trkpt lat="44.8269" lon="5.41865">
        <ele>1605.2</ele>
        <time>2021-10-08T13:40:37Z</time>
      </trkpt>
      <trkpt lat="44.82691" lon="5.41868">
        <ele>1605.6</ele>
        <time>2021-10-08T13:40:38Z</time>
      </trkpt>
      <trkpt lat="44.82691" lon="5.41871">
        <ele>1605.6</ele>
        <time>2021-10-08T13:40:39Z</time>
      </trkpt>
      <trkpt lat="44.82691" lon="5.41873">
        <ele>1605.6</ele>
        <time>2021-10-08T13:40:40Z</time>
      </trkpt>
      <trkpt lat="44.82692" lon="5.41876">
        <ele>1605.6</ele>
        <time>2021-10-08T13:40:41Z</time>
      </trkpt>
      <trkpt lat="44.82692" lon="5.41879">
        <ele>1604.2</ele>
        <time>2021-10-08T13:40:42Z</time>
      </trkpt>
      <trkpt lat="44.82692" lon="5.41882">
        <ele>1604.2</ele>
        <time>2021-10-08T13:40:43Z</time>
      </trkpt>
      <trkpt lat="44.82692" lon="5.41885">
        <ele>1604.2</ele>
        <time>2021-10-08T13:40:44Z</time>
      </trkpt>
      <trkpt lat="44.82693" lon="5.41887">
        <ele>1603.6</ele>
        <time>2021-10-08T13:40:45Z</time>
      </trkpt>
      <trkpt lat="44.82693" lon="5.4189">
        <ele>1603.8</ele>
        <time>2021-10-08T13:40:46Z</time>
      </trkpt>
      <trkpt lat="44.82693" lon="5.41893">
        <ele>1603.8</ele>
        <time>2021-10-08T13:40:47Z</time>
      </trkpt>
      <trkpt lat="44.82694" lon="5.41896">
        <ele>1603.8</ele>
        <time>2021-10-08T13:40:48Z</time>
      </trkpt>
      <trkpt lat="44.82694" lon="5.41899">
        <ele>1603.8</ele>
        <time>2021-10-08T13:40:49Z</time>
      </trkpt>
      <trkpt lat="44.82694" lon="5.41902">
        <ele>1604.2</ele>
        <time>2021-10-08T13:40:50Z</time>
      </trkpt>
      <trkpt lat="44.82695" lon="5.41905">
        <ele>1604.2</ele>
        <time>2021-10-08T13:40:51Z</time>
      </trkpt>
      <trkpt lat="44.82695" lon="5.41908">
        <ele>1604.2</ele>
        <time>2021-10-08T13:40:52Z</time>
      </trkpt>
      <trkpt lat="44.82696" lon="5.41912">
        <ele>1603.2</ele>
        <time>2021-10-08T13:40:53Z</time>
      </trkpt>
      <trkpt lat="44.82696" lon="5.41916">
        <ele>1602.8</ele>
        <time>2021-10-08T13:40:54Z</time>
      </trkpt>
      <trkpt lat="44.82697" lon="5.4192">
        <ele>1602.8</ele>
        <time>2021-10-08T13:40:55Z</time>
      </trkpt>
      <trkpt lat="44.82697" lon="5.41924">
        <ele>1602.8</ele>
        <time>2021-10-08T13:40:56Z</time>
      </trkpt>
      <trkpt lat="44.82697" lon="5.41928">
        <ele>1602.2</ele>
        <time>2021-10-08T13:40:57Z</time>
      </trkpt>
      <trkpt lat="44.82698" lon="5.41931">
        <ele>1602.6</ele>
        <time>2021-10-08T13:40:58Z</time>
      </trkpt>
      <trkpt lat="44.82698" lon="5.41934">
        <ele>1602.6</ele>
        <time>2021-10-08T13:40:59Z</time>
      </trkpt>
      <trkpt lat="44.82698" lon="5.41936">
        <ele>1602.6</ele>
        <time>2021-10-08T13:41:00Z</time>
      </trkpt>
      <trkpt lat="44.82698" lon="5.41939">
        <ele>1602.6</ele>
        <time>2021-10-08T13:41:01Z</time>
      </trkpt>
      <trkpt lat="44.82698" lon="5.41942">
        <ele>1603</ele>
        <time>2021-10-08T13:41:02Z</time>
      </trkpt>
      <trkpt lat="44.82698" lon="5.41945">
        <ele>1603</ele>
        <time>2021-10-08T13:41:03Z</time>
      </trkpt>
      <trkpt lat="44.82698" lon="5.41948">
        <ele>1603</ele>
        <time>2021-10-08T13:41:04Z</time>
      </trkpt>
      <trkpt lat="44.82699" lon="5.41952">
        <ele>1603</ele>
        <time>2021-10-08T13:41:05Z</time>
      </trkpt>
      <trkpt lat="44.82699" lon="5.41957">
        <ele>1600.2</ele>
        <time>2021-10-08T13:41:06Z</time>
      </trkpt>
      <trkpt lat="44.82699" lon="5.41962">
        <ele>1600.2</ele>
        <time>2021-10-08T13:41:07Z</time>
      </trkpt>
      <trkpt lat="44.82699" lon="5.41967">
        <ele>1600.2</ele>
        <time>2021-10-08T13:41:08Z</time>
      </trkpt>
      <trkpt lat="44.827" lon="5.41972">
        <ele>1599.4</ele>
        <time>2021-10-08T13:41:09Z</time>
      </trkpt>
      <trkpt lat="44.827" lon="5.41978">
        <ele>1597.8</ele>
        <time>2021-10-08T13:41:10Z</time>
      </trkpt>
      <trkpt lat="44.82701" lon="5.41984">
        <ele>1597.8</ele>
        <time>2021-10-08T13:41:11Z</time>
      </trkpt>
      <trkpt lat="44.82702" lon="5.4199">
        <ele>1597.8</ele>
        <time>2021-10-08T13:41:12Z</time>
      </trkpt>
      <trkpt lat="44.82702" lon="5.41997">
        <ele>1597.8</ele>
        <time>2021-10-08T13:41:13Z</time>
      </trkpt>
      <trkpt lat="44.82702" lon="5.42002">
        <ele>1598.4</ele>
        <time>2021-10-08T13:41:14Z</time>
      </trkpt>
      <trkpt lat="44.82702" lon="5.42007">
        <ele>1598.4</ele>
        <time>2021-10-08T13:41:15Z</time>
      </trkpt>
      <trkpt lat="44.82701" lon="5.42013">
        <ele>1598.4</ele>
        <time>2021-10-08T13:41:16Z</time>
      </trkpt>
      <trkpt lat="44.82699" lon="5.42018">
        <ele>1597.8</ele>
        <time>2021-10-08T13:41:17Z</time>
      </trkpt>
      <trkpt lat="44.82697" lon="5.42023">
        <ele>1596.6</ele>
        <time>2021-10-08T13:41:18Z</time>
      </trkpt>
      <trkpt lat="44.82696" lon="5.42028">
        <ele>1596.6</ele>
        <time>2021-10-08T13:41:19Z</time>
      </trkpt>
      <trkpt lat="44.82695" lon="5.42033">
        <ele>1596.6</ele>
        <time>2021-10-08T13:41:20Z</time>
      </trkpt>
      <trkpt lat="44.82694" lon="5.42038">
        <ele>1596.6</ele>
        <time>2021-10-08T13:41:21Z</time>
      </trkpt>
      <trkpt lat="44.82694" lon="5.42043">
        <ele>1595.8</ele>
        <time>2021-10-08T13:41:22Z</time>
      </trkpt>
      <trkpt lat="44.82694" lon="5.42048">
        <ele>1595.8</ele>
        <time>2021-10-08T13:41:23Z</time>
      </trkpt>
      <trkpt lat="44.82694" lon="5.42052">
        <ele>1595.8</ele>
        <time>2021-10-08T13:41:24Z</time>
      </trkpt>
      <trkpt lat="44.82693" lon="5.42056">
        <ele>1596.4</ele>
        <time>2021-10-08T13:41:25Z</time>
      </trkpt>
      <trkpt lat="44.82693" lon="5.42059">
        <ele>1596.4</ele>
        <time>2021-10-08T13:41:26Z</time>
      </trkpt>
      <trkpt lat="44.82692" lon="5.42063">
        <ele>1596.4</ele>
        <time>2021-10-08T13:41:27Z</time>
      </trkpt>
      <trkpt lat="44.82691" lon="5.42067">
        <ele>1596.4</ele>
        <time>2021-10-08T13:41:28Z</time>
      </trkpt>
      <trkpt lat="44.82689" lon="5.42072">
        <ele>1596.4</ele>
        <time>2021-10-08T13:41:29Z</time>
      </trkpt>
      <trkpt lat="44.82688" lon="5.42077">
        <ele>1594.2</ele>
        <time>2021-10-08T13:41:30Z</time>
      </trkpt>
      <trkpt lat="44.82686" lon="5.42081">
        <ele>1594.2</ele>
        <time>2021-10-08T13:41:31Z</time>
      </trkpt>
      <trkpt lat="44.82685" lon="5.42085">
        <ele>1594.2</ele>
        <time>2021-10-08T13:41:32Z</time>
      </trkpt>
      <trkpt lat="44.82685" lon="5.42088">
        <ele>1593.2</ele>
        <time>2021-10-08T13:41:33Z</time>
      </trkpt>
      <trkpt lat="44.82684" lon="5.4209">
        <ele>1592.8</ele>
        <time>2021-10-08T13:41:34Z</time>
      </trkpt>
      <trkpt lat="44.82684" lon="5.42092">
        <ele>1592.8</ele>
        <time>2021-10-08T13:41:35Z</time>
      </trkpt>
      <trkpt lat="44.82683" lon="5.42092">
        <ele>1592.8</ele>
        <time>2021-10-08T13:41:36Z</time>
      </trkpt>
      <trkpt lat="44.82683" lon="5.42092">
        <ele>1592.2</ele>
        <time>2021-10-08T13:41:37Z</time>
      </trkpt>
      <trkpt lat="44.82683" lon="5.42096">
        <ele>1592.8</ele>
        <time>2021-10-08T13:41:52Z</time>
      </trkpt>
      <trkpt lat="44.82683" lon="5.42099">
        <ele>1592.8</ele>
        <time>2021-10-08T13:41:53Z</time>
      </trkpt>
      <trkpt lat="44.82683" lon="5.42101">
        <ele>1592.6</ele>
        <time>2021-10-08T13:41:54Z</time>
      </trkpt>
      <trkpt lat="44.82683" lon="5.42103">
        <ele>1592.6</ele>
        <time>2021-10-08T13:41:55Z</time>
      </trkpt>
      <trkpt lat="44.82683" lon="5.42107">
        <ele>1592.6</ele>
        <time>2021-10-08T13:41:56Z</time>
      </trkpt>
      <trkpt lat="44.82683" lon="5.4211">
        <ele>1591.8</ele>
        <time>2021-10-08T13:41:57Z</time>
      </trkpt>
      <trkpt lat="44.82683" lon="5.42114">
        <ele>1590.4</ele>
        <time>2021-10-08T13:41:58Z</time>
      </trkpt>
      <trkpt lat="44.82683" lon="5.42118">
        <ele>1590.4</ele>
        <time>2021-10-08T13:41:59Z</time>
      </trkpt>
      <trkpt lat="44.82683" lon="5.42122">
        <ele>1590.4</ele>
        <time>2021-10-08T13:42:00Z</time>
      </trkpt>
      <trkpt lat="44.82684" lon="5.42126">
        <ele>1589.4</ele>
        <time>2021-10-08T13:42:01Z</time>
      </trkpt>
      <trkpt lat="44.82684" lon="5.4213">
        <ele>1589.8</ele>
        <time>2021-10-08T13:42:02Z</time>
      </trkpt>
      <trkpt lat="44.82684" lon="5.42134">
        <ele>1589.8</ele>
        <time>2021-10-08T13:42:03Z</time>
      </trkpt>
      <trkpt lat="44.82684" lon="5.42138">
        <ele>1589.8</ele>
        <time>2021-10-08T13:42:04Z</time>
      </trkpt>
      <trkpt lat="44.82684" lon="5.42142">
        <ele>1590.6</ele>
        <time>2021-10-08T13:42:05Z</time>
      </trkpt>
      <trkpt lat="44.82685" lon="5.42146">
        <ele>1590.2</ele>
        <time>2021-10-08T13:42:06Z</time>
      </trkpt>
      <trkpt lat="44.82685" lon="5.4215">
        <ele>1590.2</ele>
        <time>2021-10-08T13:42:07Z</time>
      </trkpt>
      <trkpt lat="44.82686" lon="5.42154">
        <ele>1590.2</ele>
        <time>2021-10-08T13:42:08Z</time>
      </trkpt>
      <trkpt lat="44.82687" lon="5.42157">
        <ele>1590.2</ele>
        <time>2021-10-08T13:42:09Z</time>
      </trkpt>
      <trkpt lat="44.82688" lon="5.4216">
        <ele>1589.8</ele>
        <time>2021-10-08T13:42:10Z</time>
      </trkpt>
      <trkpt lat="44.82689" lon="5.42164">
        <ele>1589.8</ele>
        <time>2021-10-08T13:42:11Z</time>
      </trkpt>
      <trkpt lat="44.82691" lon="5.42167">
        <ele>1589.8</ele>
        <time>2021-10-08T13:42:12Z</time>
      </trkpt>
      <trkpt lat="44.82692" lon="5.42171">
        <ele>1589.8</ele>
        <time>2021-10-08T13:42:13Z</time>
      </trkpt>
      <trkpt lat="44.82693" lon="5.42174">
        <ele>1590.6</ele>
        <time>2021-10-08T13:42:14Z</time>
      </trkpt>
      <trkpt lat="44.82694" lon="5.42178">
        <ele>1590.6</ele>
        <time>2021-10-08T13:42:15Z</time>
      </trkpt>
      <trkpt lat="44.82695" lon="5.42182">
        <ele>1590.6</ele>
        <time>2021-10-08T13:42:16Z</time>
      </trkpt>
      <trkpt lat="44.82696" lon="5.42186">
        <ele>1590.6</ele>
        <time>2021-10-08T13:42:17Z</time>
      </trkpt>
      <trkpt lat="44.82697" lon="5.42189">
        <ele>1590.6</ele>
        <time>2021-10-08T13:42:18Z</time>
      </trkpt>
      <trkpt lat="44.82698" lon="5.42193">
        <ele>1590.6</ele>
        <time>2021-10-08T13:42:19Z</time>
      </trkpt>
      <trkpt lat="44.82699" lon="5.42197">
        <ele>1590.6</ele>
        <time>2021-10-08T13:42:20Z</time>
      </trkpt>
      <trkpt lat="44.827" lon="5.42201">
        <ele>1589.6</ele>
        <time>2021-10-08T13:42:21Z</time>
      </trkpt>
      <trkpt lat="44.827" lon="5.42206">
        <ele>1589.4</ele>
        <time>2021-10-08T13:42:22Z</time>
      </trkpt>
      <trkpt lat="44.82701" lon="5.4221">
        <ele>1589.4</ele>
        <time>2021-10-08T13:42:23Z</time>
      </trkpt>
      <trkpt lat="44.82701" lon="5.42215">
        <ele>1589.4</ele>
        <time>2021-10-08T13:42:24Z</time>
      </trkpt>
      <trkpt lat="44.82702" lon="5.4222">
        <ele>1589.8</ele>
        <time>2021-10-08T13:42:25Z</time>
      </trkpt>
      <trkpt lat="44.82703" lon="5.42225">
        <ele>1590.2</ele>
        <time>2021-10-08T13:42:26Z</time>
      </trkpt>
      <trkpt lat="44.82704" lon="5.4223">
        <ele>1590.2</ele>
        <time>2021-10-08T13:42:27Z</time>
      </trkpt>
      <trkpt lat="44.82704" lon="5.42235">
        <ele>1590.2</ele>
        <time>2021-10-08T13:42:28Z</time>
      </trkpt>
      <trkpt lat="44.82705" lon="5.42241">
        <ele>1589.2</ele>
        <time>2021-10-08T13:42:29Z</time>
      </trkpt>
      <trkpt lat="44.82706" lon="5.42247">
        <ele>1588.8</ele>
        <time>2021-10-08T13:42:30Z</time>
      </trkpt>
      <trkpt lat="44.82706" lon="5.42252">
        <ele>1588.8</ele>
        <time>2021-10-08T13:42:31Z</time>
      </trkpt>
      <trkpt lat="44.82707" lon="5.42258">
        <ele>1588.8</ele>
        <time>2021-10-08T13:42:32Z</time>
      </trkpt>
      <trkpt lat="44.82707" lon="5.42263">
        <ele>1588.8</ele>
        <time>2021-10-08T13:42:33Z</time>
      </trkpt>
      <trkpt lat="44.82708" lon="5.42268">
        <ele>1588.2</ele>
        <time>2021-10-08T13:42:34Z</time>
      </trkpt>
      <trkpt lat="44.82709" lon="5.42273">
        <ele>1588.2</ele>
        <time>2021-10-08T13:42:35Z</time>
      </trkpt>
      <trkpt lat="44.8271" lon="5.42278">
        <ele>1588.2</ele>
        <time>2021-10-08T13:42:36Z</time>
      </trkpt>
      <trkpt lat="44.8271" lon="5.42281">
        <ele>1588.2</ele>
        <time>2021-10-08T13:42:37Z</time>
      </trkpt>
      <trkpt lat="44.82711" lon="5.42282">
        <ele>1589</ele>
        <time>2021-10-08T13:42:38Z</time>
      </trkpt>
      <trkpt lat="44.82711" lon="5.42282">
        <ele>1589</ele>
        <time>2021-10-08T13:42:39Z</time>
      </trkpt>
      <trkpt lat="44.82711" lon="5.42282">
        <ele>1589</ele>
        <time>2021-10-08T13:42:40Z</time>
      </trkpt>
      <trkpt lat="44.82711" lon="5.42283">
        <ele>1589</ele>
        <time>2021-10-08T13:42:41Z</time>
      </trkpt>
      <trkpt lat="44.82712" lon="5.42283">
        <ele>1589.2</ele>
        <time>2021-10-08T13:42:42Z</time>
      </trkpt>
      <trkpt lat="44.82713" lon="5.42284">
        <ele>1589.2</ele>
        <time>2021-10-08T13:42:43Z</time>
      </trkpt>
      <trkpt lat="44.82713" lon="5.42283">
        <ele>1589.2</ele>
        <time>2021-10-08T13:42:44Z</time>
      </trkpt>
      <trkpt lat="44.82714" lon="5.42283">
        <ele>1588.8</ele>
        <time>2021-10-08T13:42:45Z</time>
      </trkpt>
      <trkpt lat="44.82714" lon="5.42283">
        <ele>1588.8</ele>
        <time>2021-10-08T13:42:46Z</time>
      </trkpt>
      <trkpt lat="44.82715" lon="5.42283">
        <ele>1588.8</ele>
        <time>2021-10-08T13:42:47Z</time>
      </trkpt>
      <trkpt lat="44.82715" lon="5.42283">
        <ele>1588.8</ele>
        <time>2021-10-08T13:42:48Z</time>
      </trkpt>
      <trkpt lat="44.82757" lon="5.42498">
        <ele>1604.2</ele>
        <time>2021-10-08T13:47:47Z</time>
      </trkpt>
      <trkpt lat="44.82757" lon="5.425">
        <ele>1604.2</ele>
        <time>2021-10-08T13:47:48Z</time>
      </trkpt>
      <trkpt lat="44.82757" lon="5.42501">
        <ele>1604.8</ele>
        <time>2021-10-08T13:47:49Z</time>
      </trkpt>
      <trkpt lat="44.82757" lon="5.42503">
        <ele>1604.6</ele>
        <time>2021-10-08T13:47:50Z</time>
      </trkpt>
      <trkpt lat="44.82757" lon="5.42505">
        <ele>1604.6</ele>
        <time>2021-10-08T13:47:51Z</time>
      </trkpt>
      <trkpt lat="44.82757" lon="5.42507">
        <ele>1604.6</ele>
        <time>2021-10-08T13:47:52Z</time>
      </trkpt>
      <trkpt lat="44.82758" lon="5.42508">
        <ele>1604.6</ele>
        <time>2021-10-08T13:47:53Z</time>
      </trkpt>
      <trkpt lat="44.82758" lon="5.4251">
        <ele>1604.6</ele>
        <time>2021-10-08T13:47:54Z</time>
      </trkpt>
      <trkpt lat="44.82758" lon="5.42511">
        <ele>1604.6</ele>
        <time>2021-10-08T13:47:55Z</time>
      </trkpt>
      <trkpt lat="44.82758" lon="5.42513">
        <ele>1604.6</ele>
        <time>2021-10-08T13:47:56Z</time>
      </trkpt>
      <trkpt lat="44.82758" lon="5.42514">
        <ele>1605</ele>
        <time>2021-10-08T13:47:57Z</time>
      </trkpt>
      <trkpt lat="44.82758" lon="5.42516">
        <ele>1605</ele>
        <time>2021-10-08T13:47:58Z</time>
      </trkpt>
      <trkpt lat="44.82759" lon="5.42517">
        <ele>1605</ele>
        <time>2021-10-08T13:47:59Z</time>
      </trkpt>
      <trkpt lat="44.82759" lon="5.42519">
        <ele>1605</ele>
        <time>2021-10-08T13:48:00Z</time>
      </trkpt>
      <trkpt lat="44.8276" lon="5.42519">
        <ele>1605.4</ele>
        <time>2021-10-08T13:48:01Z</time>
      </trkpt>
      <trkpt lat="44.82761" lon="5.4252">
        <ele>1605.2</ele>
        <time>2021-10-08T13:48:02Z</time>
      </trkpt>
      <trkpt lat="44.82762" lon="5.4252">
        <ele>1605.2</ele>
        <time>2021-10-08T13:48:03Z</time>
      </trkpt>
      <trkpt lat="44.82763" lon="5.4252">
        <ele>1605.2</ele>
        <time>2021-10-08T13:48:04Z</time>
      </trkpt>
      <trkpt lat="44.82763" lon="5.4252">
        <ele>1605.2</ele>
        <time>2021-10-08T13:48:05Z</time>
      </trkpt>
      <trkpt lat="44.82764" lon="5.42521">
        <ele>1605.6</ele>
        <time>2021-10-08T13:48:06Z</time>
      </trkpt>
      <trkpt lat="44.82765" lon="5.42521">
        <ele>1605.6</ele>
        <time>2021-10-08T13:48:07Z</time>
      </trkpt>
      <trkpt lat="44.82765" lon="5.42522">
        <ele>1605.6</ele>
        <time>2021-10-08T13:48:08Z</time>
      </trkpt>
      <trkpt lat="44.82766" lon="5.42523">
        <ele>1606</ele>
        <time>2021-10-08T13:48:09Z</time>
      </trkpt>
      <trkpt lat="44.82766" lon="5.42524">
        <ele>1606</ele>
        <time>2021-10-08T13:48:10Z</time>
      </trkpt>
      <trkpt lat="44.82766" lon="5.42524">
        <ele>1606</ele>
        <time>2021-10-08T13:48:11Z</time>
      </trkpt>
      <trkpt lat="44.82767" lon="5.42525">
        <ele>1606</ele>
        <time>2021-10-08T13:48:12Z</time>
      </trkpt>
      <trkpt lat="44.82767" lon="5.42526">
        <ele>1606.6</ele>
        <time>2021-10-08T13:48:13Z</time>
      </trkpt>
      <trkpt lat="44.82767" lon="5.42527">
        <ele>1607.8</ele>
        <time>2021-10-08T13:48:14Z</time>
      </trkpt>
      <trkpt lat="44.82767" lon="5.42528">
        <ele>1607.8</ele>
        <time>2021-10-08T13:48:15Z</time>
      </trkpt>
      <trkpt lat="44.82767" lon="5.42529">
        <ele>1607.8</ele>
        <time>2021-10-08T13:48:16Z</time>
      </trkpt>
      <trkpt lat="44.82768" lon="5.4253">
        <ele>1608.4</ele>
        <time>2021-10-08T13:48:17Z</time>
      </trkpt>
      <trkpt lat="44.82768" lon="5.42531">
        <ele>1608.6</ele>
        <time>2021-10-08T13:48:18Z</time>
      </trkpt>
      <trkpt lat="44.82768" lon="5.42531">
        <ele>1608.6</ele>
        <time>2021-10-08T13:48:19Z</time>
      </trkpt>
      <trkpt lat="44.82776" lon="5.42613">
        <ele>1614.8</ele>
        <time>2021-10-08T13:49:36Z</time>
      </trkpt>
      <trkpt lat="44.82776" lon="5.42614">
        <ele>1614.4</ele>
        <time>2021-10-08T13:49:37Z</time>
      </trkpt>
      <trkpt lat="44.82776" lon="5.42616">
        <ele>1614.2</ele>
        <time>2021-10-08T13:49:38Z</time>
      </trkpt>
      <trkpt lat="44.82776" lon="5.42618">
        <ele>1614.2</ele>
        <time>2021-10-08T13:49:39Z</time>
      </trkpt>
      <trkpt lat="44.82776" lon="5.4262">
        <ele>1614.2</ele>
        <time>2021-10-08T13:49:40Z</time>
      </trkpt>
      <trkpt lat="44.82777" lon="5.42621">
        <ele>1614.2</ele>
        <time>2021-10-08T13:49:41Z</time>
      </trkpt>
      <trkpt lat="44.82777" lon="5.42623">
        <ele>1614.8</ele>
        <time>2021-10-08T13:49:42Z</time>
      </trkpt>
      <trkpt lat="44.82777" lon="5.42625">
        <ele>1614.8</ele>
        <time>2021-10-08T13:49:43Z</time>
      </trkpt>
      <trkpt lat="44.82777" lon="5.42626">
        <ele>1614.8</ele>
        <time>2021-10-08T13:49:44Z</time>
      </trkpt>
      <trkpt lat="44.82777" lon="5.42628">
        <ele>1614.8</ele>
        <time>2021-10-08T13:49:45Z</time>
      </trkpt>
      <trkpt lat="44.82778" lon="5.42629">
        <ele>1614.6</ele>
        <time>2021-10-08T13:49:46Z</time>
      </trkpt>
      <trkpt lat="44.82778" lon="5.42631">
        <ele>1614.6</ele>
        <time>2021-10-08T13:49:47Z</time>
      </trkpt>
      <trkpt lat="44.82778" lon="5.42633">
        <ele>1614.6</ele>
        <time>2021-10-08T13:49:48Z</time>
      </trkpt>
      <trkpt lat="44.82778" lon="5.42634">
        <ele>1614.6</ele>
        <time>2021-10-08T13:49:49Z</time>
      </trkpt>
      <trkpt lat="44.82778" lon="5.42636">
        <ele>1614.4</ele>
        <time>2021-10-08T13:49:50Z</time>
      </trkpt>
      <trkpt lat="44.82778" lon="5.42638">
        <ele>1614.4</ele>
        <time>2021-10-08T13:49:51Z</time>
      </trkpt>
      <trkpt lat="44.82779" lon="5.42639">
        <ele>1614.4</ele>
        <time>2021-10-08T13:49:52Z</time>
      </trkpt>
      <trkpt lat="44.82779" lon="5.42641">
        <ele>1615</ele>
        <time>2021-10-08T13:49:53Z</time>
      </trkpt>
      <trkpt lat="44.82779" lon="5.42643">
        <ele>1614.6</ele>
        <time>2021-10-08T13:49:54Z</time>
      </trkpt>
      <trkpt lat="44.82779" lon="5.42645">
        <ele>1614.6</ele>
        <time>2021-10-08T13:49:55Z</time>
      </trkpt>
      <trkpt lat="44.82779" lon="5.42646">
        <ele>1614.6</ele>
        <time>2021-10-08T13:49:56Z</time>
      </trkpt>
      <trkpt lat="44.82779" lon="5.42648">
        <ele>1614.6</ele>
        <time>2021-10-08T13:49:57Z</time>
      </trkpt>
      <trkpt lat="44.8278" lon="5.4265">
        <ele>1614.2</ele>
        <time>2021-10-08T13:49:58Z</time>
      </trkpt>
      <trkpt lat="44.8278" lon="5.42652">
        <ele>1614.2</ele>
        <time>2021-10-08T13:49:59Z</time>
      </trkpt>
      <trkpt lat="44.8278" lon="5.42654">
        <ele>1614.2</ele>
        <time>2021-10-08T13:50:00Z</time>
      </trkpt>
      <trkpt lat="44.82781" lon="5.42656">
        <ele>1614.2</ele>
        <time>2021-10-08T13:50:01Z</time>
      </trkpt>
      <trkpt lat="44.82781" lon="5.42658">
        <ele>1614.4</ele>
        <time>2021-10-08T13:50:02Z</time>
      </trkpt>
      <trkpt lat="44.82781" lon="5.42659">
        <ele>1614.4</ele>
        <time>2021-10-08T13:50:03Z</time>
      </trkpt>
      <trkpt lat="44.82781" lon="5.42661">
        <ele>1614.4</ele>
        <time>2021-10-08T13:50:04Z</time>
      </trkpt>
      <trkpt lat="44.82781" lon="5.42663">
        <ele>1614.4</ele>
        <time>2021-10-08T13:50:05Z</time>
      </trkpt>
      <trkpt lat="44.82781" lon="5.42665">
        <ele>1614</ele>
        <time>2021-10-08T13:50:06Z</time>
      </trkpt>
      <trkpt lat="44.82782" lon="5.42666">
        <ele>1614</ele>
        <time>2021-10-08T13:50:07Z</time>
      </trkpt>
      <trkpt lat="44.82782" lon="5.42668">
        <ele>1614</ele>
        <time>2021-10-08T13:50:08Z</time>
      </trkpt>
      <trkpt lat="44.82782" lon="5.42669">
        <ele>1614</ele>
        <time>2021-10-08T13:50:09Z</time>
      </trkpt>
      <trkpt lat="44.82782" lon="5.42671">
        <ele>1613.8</ele>
        <time>2021-10-08T13:50:10Z</time>
      </trkpt>
      <trkpt lat="44.82783" lon="5.42672">
        <ele>1613.8</ele>
        <time>2021-10-08T13:50:11Z</time>
      </trkpt>
      <trkpt lat="44.82783" lon="5.42674">
        <ele>1613.8</ele>
        <time>2021-10-08T13:50:12Z</time>
      </trkpt>
      <trkpt lat="44.82783" lon="5.42675">
        <ele>1613.8</ele>
        <time>2021-10-08T13:50:13Z</time>
      </trkpt>
      <trkpt lat="44.82784" lon="5.42676">
        <ele>1613.4</ele>
        <time>2021-10-08T13:50:14Z</time>
      </trkpt>
      <trkpt lat="44.82784" lon="5.42677">
        <ele>1613.4</ele>
        <time>2021-10-08T13:50:15Z</time>
      </trkpt>
      <trkpt lat="44.82785" lon="5.42679">
        <ele>1613.4</ele>
        <time>2021-10-08T13:50:16Z</time>
      </trkpt>
      <trkpt lat="44.82785" lon="5.4268">
        <ele>1612.8</ele>
        <time>2021-10-08T13:50:17Z</time>
      </trkpt>
      <trkpt lat="44.82785" lon="5.4268">
        <ele>1612.8</ele>
        <time>2021-10-08T13:50:18Z</time>
      </trkpt>
      <trkpt lat="44.82787" lon="5.42701">
        <ele>1612</ele>
        <time>2021-10-08T13:50:38Z</time>
      </trkpt>
      <trkpt lat="44.82787" lon="5.42703">
        <ele>1612</ele>
        <time>2021-10-08T13:50:39Z</time>
      </trkpt>
      <trkpt lat="44.82787" lon="5.42706">
        <ele>1612</ele>
        <time>2021-10-08T13:50:40Z</time>
      </trkpt>
      <trkpt lat="44.82786" lon="5.42709">
        <ele>1612</ele>
        <time>2021-10-08T13:50:41Z</time>
      </trkpt>
      <trkpt lat="44.82786" lon="5.42711">
        <ele>1611.6</ele>
        <time>2021-10-08T13:50:42Z</time>
      </trkpt>
      <trkpt lat="44.82786" lon="5.42714">
        <ele>1611.6</ele>
        <time>2021-10-08T13:50:43Z</time>
      </trkpt>
      <trkpt lat="44.82785" lon="5.42716">
        <ele>1611.6</ele>
        <time>2021-10-08T13:50:44Z</time>
      </trkpt>
      <trkpt lat="44.82786" lon="5.42719">
        <ele>1610.6</ele>
        <time>2021-10-08T13:50:45Z</time>
      </trkpt>
      <trkpt lat="44.82786" lon="5.42722">
        <ele>1610.6</ele>
        <time>2021-10-08T13:50:46Z</time>
      </trkpt>
      <trkpt lat="44.82786" lon="5.42725">
        <ele>1610.6</ele>
        <time>2021-10-08T13:50:47Z</time>
      </trkpt>
      <trkpt lat="44.82786" lon="5.42728">
        <ele>1610.6</ele>
        <time>2021-10-08T13:50:48Z</time>
      </trkpt>
      <trkpt lat="44.82786" lon="5.4273">
        <ele>1610.6</ele>
        <time>2021-10-08T13:50:49Z</time>
      </trkpt>
      <trkpt lat="44.82785" lon="5.42731">
        <ele>1610.4</ele>
        <time>2021-10-08T13:50:50Z</time>
      </trkpt>
      <trkpt lat="44.82785" lon="5.42732">
        <ele>1610.4</ele>
        <time>2021-10-08T13:50:51Z</time>
      </trkpt>
      <trkpt lat="44.82784" lon="5.42735">
        <ele>1610.4</ele>
        <time>2021-10-08T13:51:03Z</time>
      </trkpt>
      <trkpt lat="44.82784" lon="5.42738">
        <ele>1610.4</ele>
        <time>2021-10-08T13:51:04Z</time>
      </trkpt>
      <trkpt lat="44.82783" lon="5.42738">
        <ele>1610.4</ele>
        <time>2021-10-08T13:51:05Z</time>
      </trkpt>
      <trkpt lat="44.82783" lon="5.42738">
        <ele>1609.8</ele>
        <time>2021-10-08T13:51:06Z</time>
      </trkpt>
      <trkpt lat="44.82783" lon="5.42742">
        <ele>1609.8</ele>
        <time>2021-10-08T13:51:37Z</time>
      </trkpt>
      <trkpt lat="44.82783" lon="5.42745">
        <ele>1609.4</ele>
        <time>2021-10-08T13:51:38Z</time>
      </trkpt>
      <trkpt lat="44.82782" lon="5.42747">
        <ele>1609.4</ele>
        <time>2021-10-08T13:51:39Z</time>
      </trkpt>
      <trkpt lat="44.82782" lon="5.42749">
        <ele>1609.4</ele>
        <time>2021-10-08T13:51:40Z</time>
      </trkpt>
      <trkpt lat="44.82781" lon="5.42752">
        <ele>1608.4</ele>
        <time>2021-10-08T13:51:41Z</time>
      </trkpt>
      <trkpt lat="44.8278" lon="5.42754">
        <ele>1608.6</ele>
        <time>2021-10-08T13:51:42Z</time>
      </trkpt>
      <trkpt lat="44.82779" lon="5.42757">
        <ele>1608.6</ele>
        <time>2021-10-08T13:51:43Z</time>
      </trkpt>
      <trkpt lat="44.82779" lon="5.4276">
        <ele>1608.6</ele>
        <time>2021-10-08T13:51:44Z</time>
      </trkpt>
      <trkpt lat="44.82778" lon="5.42763">
        <ele>1607.6</ele>
        <time>2021-10-08T13:51:45Z</time>
      </trkpt>
      <trkpt lat="44.82777" lon="5.42766">
        <ele>1606.2</ele>
        <time>2021-10-08T13:51:46Z</time>
      </trkpt>
      <trkpt lat="44.82776" lon="5.42768">
        <ele>1606.2</ele>
        <time>2021-10-08T13:51:47Z</time>
      </trkpt>
      <trkpt lat="44.82775" lon="5.42771">
        <ele>1606.2</ele>
        <time>2021-10-08T13:51:48Z</time>
      </trkpt>
      <trkpt lat="44.82774" lon="5.42775">
        <ele>1606.2</ele>
        <time>2021-10-08T13:51:49Z</time>
      </trkpt>
      <trkpt lat="44.82774" lon="5.42778">
        <ele>1604.2</ele>
        <time>2021-10-08T13:51:50Z</time>
      </trkpt>
      <trkpt lat="44.82774" lon="5.42782">
        <ele>1604.2</ele>
        <time>2021-10-08T13:51:51Z</time>
      </trkpt>
      <trkpt lat="44.82773" lon="5.42785">
        <ele>1604.2</ele>
        <time>2021-10-08T13:51:52Z</time>
      </trkpt>
      <trkpt lat="44.82773" lon="5.42789">
        <ele>1603.2</ele>
        <time>2021-10-08T13:51:53Z</time>
      </trkpt>
      <trkpt lat="44.82772" lon="5.42792">
        <ele>1602.4</ele>
        <time>2021-10-08T13:51:54Z</time>
      </trkpt>
      <trkpt lat="44.82771" lon="5.42795">
        <ele>1602.4</ele>
        <time>2021-10-08T13:51:55Z</time>
      </trkpt>
      <trkpt lat="44.82769" lon="5.42798">
        <ele>1602.4</ele>
        <time>2021-10-08T13:51:56Z</time>
      </trkpt>
      <trkpt lat="44.82768" lon="5.42802">
        <ele>1603</ele>
        <time>2021-10-08T13:51:57Z</time>
      </trkpt>
      <trkpt lat="44.82766" lon="5.42806">
        <ele>1602.4</ele>
        <time>2021-10-08T13:51:58Z</time>
      </trkpt>
      <trkpt lat="44.82765" lon="5.42809">
        <ele>1602.4</ele>
        <time>2021-10-08T13:51:59Z</time>
      </trkpt>
      <trkpt lat="44.82765" lon="5.42812">
        <ele>1602.4</ele>
        <time>2021-10-08T13:52:00Z</time>
      </trkpt>
      <trkpt lat="44.82765" lon="5.42814">
        <ele>1602.4</ele>
        <time>2021-10-08T13:52:01Z</time>
      </trkpt>
      <trkpt lat="44.82765" lon="5.42815">
        <ele>1600.4</ele>
        <time>2021-10-08T13:52:02Z</time>
      </trkpt>
      <trkpt lat="44.82765" lon="5.42818">
        <ele>1600.4</ele>
        <time>2021-10-08T13:52:03Z</time>
      </trkpt>
      <trkpt lat="44.82765" lon="5.42821">
        <ele>1600.4</ele>
        <time>2021-10-08T13:52:04Z</time>
      </trkpt>
      <trkpt lat="44.82766" lon="5.42823">
        <ele>1601.2</ele>
        <time>2021-10-08T13:52:05Z</time>
      </trkpt>
      <trkpt lat="44.82765" lon="5.42826">
        <ele>1600.4</ele>
        <time>2021-10-08T13:52:06Z</time>
      </trkpt>
      <trkpt lat="44.82765" lon="5.42829">
        <ele>1600.4</ele>
        <time>2021-10-08T13:52:07Z</time>
      </trkpt>
      <trkpt lat="44.82765" lon="5.42831">
        <ele>1600.4</ele>
        <time>2021-10-08T13:52:08Z</time>
      </trkpt>
      <trkpt lat="44.82765" lon="5.42834">
        <ele>1600.4</ele>
        <time>2021-10-08T13:52:09Z</time>
      </trkpt>
      <trkpt lat="44.82766" lon="5.42838">
        <ele>1599</ele>
        <time>2021-10-08T13:52:10Z</time>
      </trkpt>
      <trkpt lat="44.82766" lon="5.42842">
        <ele>1599</ele>
        <time>2021-10-08T13:52:11Z</time>
      </trkpt>
      <trkpt lat="44.82768" lon="5.42845">
        <ele>1599</ele>
        <time>2021-10-08T13:52:12Z</time>
      </trkpt>
      <trkpt lat="44.82768" lon="5.42848">
        <ele>1598.4</ele>
        <time>2021-10-08T13:52:13Z</time>
      </trkpt>
      <trkpt lat="44.82769" lon="5.4285">
        <ele>1596.6</ele>
        <time>2021-10-08T13:52:14Z</time>
      </trkpt>
      <trkpt lat="44.82771" lon="5.42852">
        <ele>1596.6</ele>
        <time>2021-10-08T13:52:15Z</time>
      </trkpt>
      <trkpt lat="44.82773" lon="5.42855">
        <ele>1596.6</ele>
        <time>2021-10-08T13:52:16Z</time>
      </trkpt>
      <trkpt lat="44.82774" lon="5.42859">
        <ele>1595.6</ele>
        <time>2021-10-08T13:52:17Z</time>
      </trkpt>
      <trkpt lat="44.82775" lon="5.42865">
        <ele>1595.6</ele>
        <time>2021-10-08T13:52:18Z</time>
      </trkpt>
      <trkpt lat="44.82776" lon="5.42871">
        <ele>1595.6</ele>
        <time>2021-10-08T13:52:19Z</time>
      </trkpt>
      <trkpt lat="44.82778" lon="5.42877">
        <ele>1595.2</ele>
        <time>2021-10-08T13:52:20Z</time>
      </trkpt>
      <trkpt lat="44.8278" lon="5.42883">
        <ele>1594.2</ele>
        <time>2021-10-08T13:52:21Z</time>
      </trkpt>
      <trkpt lat="44.82781" lon="5.42888">
        <ele>1592.4</ele>
        <time>2021-10-08T13:52:22Z</time>
      </trkpt>
      <trkpt lat="44.82783" lon="5.42893">
        <ele>1592.4</ele>
        <time>2021-10-08T13:52:23Z</time>
      </trkpt>
      <trkpt lat="44.82786" lon="5.42896">
        <ele>1592.4</ele>
        <time>2021-10-08T13:52:24Z</time>
      </trkpt>
      <trkpt lat="44.82788" lon="5.42899">
        <ele>1592.8</ele>
        <time>2021-10-08T13:52:25Z</time>
      </trkpt>
      <trkpt lat="44.82789" lon="5.42901">
        <ele>1593.2</ele>
        <time>2021-10-08T13:52:26Z</time>
      </trkpt>
      <trkpt lat="44.82791" lon="5.42903">
        <ele>1593.2</ele>
        <time>2021-10-08T13:52:27Z</time>
      </trkpt>
      <trkpt lat="44.82792" lon="5.42906">
        <ele>1593.2</ele>
        <time>2021-10-08T13:52:28Z</time>
      </trkpt>
      <trkpt lat="44.82794" lon="5.42909">
        <ele>1593.2</ele>
        <time>2021-10-08T13:52:29Z</time>
      </trkpt>
      <trkpt lat="44.82796" lon="5.42912">
        <ele>1592.4</ele>
        <time>2021-10-08T13:52:30Z</time>
      </trkpt>
      <trkpt lat="44.82797" lon="5.42915">
        <ele>1592.4</ele>
        <time>2021-10-08T13:52:31Z</time>
      </trkpt>
      <trkpt lat="44.82799" lon="5.42918">
        <ele>1592.4</ele>
        <time>2021-10-08T13:52:32Z</time>
      </trkpt>
      <trkpt lat="44.82801" lon="5.42921">
        <ele>1592.4</ele>
        <time>2021-10-08T13:52:33Z</time>
      </trkpt>
      <trkpt lat="44.82802" lon="5.42924">
        <ele>1593.8</ele>
        <time>2021-10-08T13:52:34Z</time>
      </trkpt>
      <trkpt lat="44.82804" lon="5.42927">
        <ele>1593.8</ele>
        <time>2021-10-08T13:52:35Z</time>
      </trkpt>
      <trkpt lat="44.82806" lon="5.4293">
        <ele>1593.8</ele>
        <time>2021-10-08T13:52:36Z</time>
      </trkpt>
      <trkpt lat="44.82807" lon="5.42933">
        <ele>1593.8</ele>
        <time>2021-10-08T13:52:37Z</time>
      </trkpt>
      <trkpt lat="44.8281" lon="5.42936">
        <ele>1593</ele>
        <time>2021-10-08T13:52:38Z</time>
      </trkpt>
      <trkpt lat="44.82812" lon="5.42939">
        <ele>1593</ele>
        <time>2021-10-08T13:52:39Z</time>
      </trkpt>
      <trkpt lat="44.82814" lon="5.42942">
        <ele>1593</ele>
        <time>2021-10-08T13:52:40Z</time>
      </trkpt>
      <trkpt lat="44.82816" lon="5.42945">
        <ele>1593</ele>
        <time>2021-10-08T13:52:41Z</time>
      </trkpt>
      <trkpt lat="44.82819" lon="5.42948">
        <ele>1592.8</ele>
        <time>2021-10-08T13:52:42Z</time>
      </trkpt>
      <trkpt lat="44.82821" lon="5.4295">
        <ele>1592.8</ele>
        <time>2021-10-08T13:52:43Z</time>
      </trkpt>
      <trkpt lat="44.82824" lon="5.42953">
        <ele>1592.8</ele>
        <time>2021-10-08T13:52:44Z</time>
      </trkpt>
      <trkpt lat="44.82827" lon="5.42956">
        <ele>1592</ele>
        <time>2021-10-08T13:52:45Z</time>
      </trkpt>
      <trkpt lat="44.82829" lon="5.42958">
        <ele>1591.8</ele>
        <time>2021-10-08T13:52:46Z</time>
      </trkpt>
      <trkpt lat="44.82832" lon="5.42961">
        <ele>1591.8</ele>
        <time>2021-10-08T13:52:47Z</time>
      </trkpt>
      <trkpt lat="44.82834" lon="5.42963">
        <ele>1591.8</ele>
        <time>2021-10-08T13:52:48Z</time>
      </trkpt>
      <trkpt lat="44.82837" lon="5.42966">
        <ele>1591.8</ele>
        <time>2021-10-08T13:52:49Z</time>
      </trkpt>
      <trkpt lat="44.82839" lon="5.42968">
        <ele>1591.4</ele>
        <time>2021-10-08T13:52:50Z</time>
      </trkpt>
      <trkpt lat="44.82841" lon="5.42971">
        <ele>1591.4</ele>
        <time>2021-10-08T13:52:51Z</time>
      </trkpt>
      <trkpt lat="44.82844" lon="5.42973">
        <ele>1591.4</ele>
        <time>2021-10-08T13:52:52Z</time>
      </trkpt>
      <trkpt lat="44.82846" lon="5.42975">
        <ele>1591.8</ele>
        <time>2021-10-08T13:52:53Z</time>
      </trkpt>
      <trkpt lat="44.82848" lon="5.42978">
        <ele>1592.2</ele>
        <time>2021-10-08T13:52:54Z</time>
      </trkpt>
      <trkpt lat="44.82851" lon="5.4298">
        <ele>1592.2</ele>
        <time>2021-10-08T13:52:55Z</time>
      </trkpt>
      <trkpt lat="44.82854" lon="5.42982">
        <ele>1592.2</ele>
        <time>2021-10-08T13:52:56Z</time>
      </trkpt>
      <trkpt lat="44.82857" lon="5.42983">
        <ele>1591.2</ele>
        <time>2021-10-08T13:52:57Z</time>
      </trkpt>
      <trkpt lat="44.8286" lon="5.42985">
        <ele>1590.4</ele>
        <time>2021-10-08T13:52:58Z</time>
      </trkpt>
      <trkpt lat="44.82862" lon="5.42986">
        <ele>1590.4</ele>
        <time>2021-10-08T13:52:59Z</time>
      </trkpt>
      <trkpt lat="44.82865" lon="5.42988">
        <ele>1590.4</ele>
        <time>2021-10-08T13:53:00Z</time>
      </trkpt>
      <trkpt lat="44.82868" lon="5.42989">
        <ele>1591</ele>
        <time>2021-10-08T13:53:01Z</time>
      </trkpt>
      <trkpt lat="44.8287" lon="5.4299">
        <ele>1590.8</ele>
        <time>2021-10-08T13:53:02Z</time>
      </trkpt>
      <trkpt lat="44.82873" lon="5.4299">
        <ele>1590.8</ele>
        <time>2021-10-08T13:53:03Z</time>
      </trkpt>
      <trkpt lat="44.82876" lon="5.42991">
        <ele>1590.8</ele>
        <time>2021-10-08T13:53:04Z</time>
      </trkpt>
      <trkpt lat="44.82879" lon="5.42991">
        <ele>1590.8</ele>
        <time>2021-10-08T13:53:05Z</time>
      </trkpt>
      <trkpt lat="44.82883" lon="5.42991">
        <ele>1590.6</ele>
        <time>2021-10-08T13:53:06Z</time>
      </trkpt>
      <trkpt lat="44.82886" lon="5.42992">
        <ele>1590.6</ele>
        <time>2021-10-08T13:53:07Z</time>
      </trkpt>
      <trkpt lat="44.82889" lon="5.42993">
        <ele>1590.6</ele>
        <time>2021-10-08T13:53:08Z</time>
      </trkpt>
      <trkpt lat="44.82892" lon="5.42993">
        <ele>1590.6</ele>
        <time>2021-10-08T13:53:09Z</time>
      </trkpt>
      <trkpt lat="44.82895" lon="5.42994">
        <ele>1590.4</ele>
        <time>2021-10-08T13:53:10Z</time>
      </trkpt>
      <trkpt lat="44.82897" lon="5.42994">
        <ele>1590.4</ele>
        <time>2021-10-08T13:53:11Z</time>
      </trkpt>
      <trkpt lat="44.829" lon="5.42994">
        <ele>1590.4</ele>
        <time>2021-10-08T13:53:12Z</time>
      </trkpt>
      <trkpt lat="44.82902" lon="5.42995">
        <ele>1591.2</ele>
        <time>2021-10-08T13:53:13Z</time>
      </trkpt>
      <trkpt lat="44.82904" lon="5.42995">
        <ele>1590.6</ele>
        <time>2021-10-08T13:53:14Z</time>
      </trkpt>
      <trkpt lat="44.82907" lon="5.42996">
        <ele>1590.6</ele>
        <time>2021-10-08T13:53:15Z</time>
      </trkpt>
      <trkpt lat="44.8291" lon="5.42996">
        <ele>1590.6</ele>
        <time>2021-10-08T13:53:16Z</time>
      </trkpt>
      <trkpt lat="44.82912" lon="5.42997">
        <ele>1590.6</ele>
        <time>2021-10-08T13:53:17Z</time>
      </trkpt>
      <trkpt lat="44.82915" lon="5.42998">
        <ele>1590.2</ele>
        <time>2021-10-08T13:53:18Z</time>
      </trkpt>
      <trkpt lat="44.82917" lon="5.42998">
        <ele>1590.2</ele>
        <time>2021-10-08T13:53:19Z</time>
      </trkpt>
      <trkpt lat="44.8292" lon="5.42999">
        <ele>1590.2</ele>
        <time>2021-10-08T13:53:20Z</time>
      </trkpt>
      <trkpt lat="44.82922" lon="5.43">
        <ele>1590.6</ele>
        <time>2021-10-08T13:53:21Z</time>
      </trkpt>
      <trkpt lat="44.82924" lon="5.43001">
        <ele>1590.2</ele>
        <time>2021-10-08T13:53:22Z</time>
      </trkpt>
      <trkpt lat="44.82927" lon="5.43001">
        <ele>1590.2</ele>
        <time>2021-10-08T13:53:23Z</time>
      </trkpt>
      <trkpt lat="44.82929" lon="5.43002">
        <ele>1590.2</ele>
        <time>2021-10-08T13:53:24Z</time>
      </trkpt>
      <trkpt lat="44.82932" lon="5.43003">
        <ele>1590.2</ele>
        <time>2021-10-08T13:53:25Z</time>
      </trkpt>
      <trkpt lat="44.82935" lon="5.43004">
        <ele>1589.6</ele>
        <time>2021-10-08T13:53:26Z</time>
      </trkpt>
      <trkpt lat="44.82938" lon="5.43005">
        <ele>1589.6</ele>
        <time>2021-10-08T13:53:27Z</time>
      </trkpt>
      <trkpt lat="44.82941" lon="5.43006">
        <ele>1589.6</ele>
        <time>2021-10-08T13:53:28Z</time>
      </trkpt>
      <trkpt lat="44.82944" lon="5.43008">
        <ele>1589.6</ele>
        <time>2021-10-08T13:53:29Z</time>
      </trkpt>
      <trkpt lat="44.82948" lon="5.4301">
        <ele>1589.6</ele>
        <time>2021-10-08T13:53:30Z</time>
      </trkpt>
      <trkpt lat="44.82952" lon="5.43012">
        <ele>1588.8</ele>
        <time>2021-10-08T13:53:31Z</time>
      </trkpt>
      <trkpt lat="44.82957" lon="5.43014">
        <ele>1588.8</ele>
        <time>2021-10-08T13:53:32Z</time>
      </trkpt>
      <trkpt lat="44.82961" lon="5.43015">
        <ele>1587.8</ele>
        <time>2021-10-08T13:53:33Z</time>
      </trkpt>
      <trkpt lat="44.82965" lon="5.43017">
        <ele>1585.8</ele>
        <time>2021-10-08T13:53:34Z</time>
      </trkpt>
      <trkpt lat="44.82969" lon="5.43019">
        <ele>1585.8</ele>
        <time>2021-10-08T13:53:35Z</time>
      </trkpt>
      <trkpt lat="44.82972" lon="5.43021">
        <ele>1585.8</ele>
        <time>2021-10-08T13:53:36Z</time>
      </trkpt>
      <trkpt lat="44.82976" lon="5.43023">
        <ele>1585.8</ele>
        <time>2021-10-08T13:53:37Z</time>
      </trkpt>
      <trkpt lat="44.82981" lon="5.43025">
        <ele>1583.8</ele>
        <time>2021-10-08T13:53:38Z</time>
      </trkpt>
      <trkpt lat="44.82985" lon="5.43028">
        <ele>1583.8</ele>
        <time>2021-10-08T13:53:39Z</time>
      </trkpt>
      <trkpt lat="44.82989" lon="5.43032">
        <ele>1583.8</ele>
        <time>2021-10-08T13:53:40Z</time>
      </trkpt>
      <trkpt lat="44.82992" lon="5.43036">
        <ele>1583.8</ele>
        <time>2021-10-08T13:53:41Z</time>
      </trkpt>
      <trkpt lat="44.82995" lon="5.4304">
        <ele>1583.6</ele>
        <time>2021-10-08T13:53:42Z</time>
      </trkpt>
      <trkpt lat="44.82998" lon="5.43043">
        <ele>1583.6</ele>
        <time>2021-10-08T13:53:43Z</time>
      </trkpt>
      <trkpt lat="44.83" lon="5.43047">
        <ele>1583.6</ele>
        <time>2021-10-08T13:53:44Z</time>
      </trkpt>
      <trkpt lat="44.83002" lon="5.43051">
        <ele>1584.6</ele>
        <time>2021-10-08T13:53:45Z</time>
      </trkpt>
      <trkpt lat="44.83004" lon="5.43055">
        <ele>1584.8</ele>
        <time>2021-10-08T13:53:46Z</time>
      </trkpt>
      <trkpt lat="44.83006" lon="5.43058">
        <ele>1584.8</ele>
        <time>2021-10-08T13:53:47Z</time>
      </trkpt>
      <trkpt lat="44.83008" lon="5.43062">
        <ele>1584.8</ele>
        <time>2021-10-08T13:53:48Z</time>
      </trkpt>
      <trkpt lat="44.8301" lon="5.43066">
        <ele>1584.8</ele>
        <time>2021-10-08T13:53:49Z</time>
      </trkpt>
      <trkpt lat="44.83013" lon="5.4307">
        <ele>1585.2</ele>
        <time>2021-10-08T13:53:50Z</time>
      </trkpt>
      <trkpt lat="44.83015" lon="5.43074">
        <ele>1585.2</ele>
        <time>2021-10-08T13:53:51Z</time>
      </trkpt>
      <trkpt lat="44.83017" lon="5.43079">
        <ele>1585.2</ele>
        <time>2021-10-08T13:53:52Z</time>
      </trkpt>
      <trkpt lat="44.83018" lon="5.43083">
        <ele>1584.2</ele>
        <time>2021-10-08T13:53:53Z</time>
      </trkpt>
      <trkpt lat="44.83021" lon="5.43086">
        <ele>1582.8</ele>
        <time>2021-10-08T13:53:54Z</time>
      </trkpt>
      <trkpt lat="44.83025" lon="5.43089">
        <ele>1582.8</ele>
        <time>2021-10-08T13:53:55Z</time>
      </trkpt>
      <trkpt lat="44.83028" lon="5.43093">
        <ele>1582.8</ele>
        <time>2021-10-08T13:53:56Z</time>
      </trkpt>
      <trkpt lat="44.83031" lon="5.43099">
        <ele>1582.8</ele>
        <time>2021-10-08T13:53:57Z</time>
      </trkpt>
      <trkpt lat="44.83034" lon="5.43104">
        <ele>1580.4</ele>
        <time>2021-10-08T13:53:58Z</time>
      </trkpt>
      <trkpt lat="44.83036" lon="5.4311">
        <ele>1580.4</ele>
        <time>2021-10-08T13:53:59Z</time>
      </trkpt>
      <trkpt lat="44.83038" lon="5.43115">
        <ele>1580.4</ele>
        <time>2021-10-08T13:54:00Z</time>
      </trkpt>
      <trkpt lat="44.83041" lon="5.43121">
        <ele>1581.2</ele>
        <time>2021-10-08T13:54:01Z</time>
      </trkpt>
      <trkpt lat="44.83042" lon="5.43127">
        <ele>1581</ele>
        <time>2021-10-08T13:54:02Z</time>
      </trkpt>
      <trkpt lat="44.83044" lon="5.43132">
        <ele>1581</ele>
        <time>2021-10-08T13:54:03Z</time>
      </trkpt>
      <trkpt lat="44.83046" lon="5.43136">
        <ele>1581</ele>
        <time>2021-10-08T13:54:04Z</time>
      </trkpt>
      <trkpt lat="44.83047" lon="5.43139">
        <ele>1582</ele>
        <time>2021-10-08T13:54:05Z</time>
      </trkpt>
      <trkpt lat="44.83049" lon="5.43142">
        <ele>1583.4</ele>
        <time>2021-10-08T13:54:06Z</time>
      </trkpt>
      <trkpt lat="44.8305" lon="5.43145">
        <ele>1583.4</ele>
        <time>2021-10-08T13:54:07Z</time>
      </trkpt>
      <trkpt lat="44.83051" lon="5.43148">
        <ele>1583.4</ele>
        <time>2021-10-08T13:54:08Z</time>
      </trkpt>
      <trkpt lat="44.83053" lon="5.43152">
        <ele>1584</ele>
        <time>2021-10-08T13:54:09Z</time>
      </trkpt>
      <trkpt lat="44.83054" lon="5.43155">
        <ele>1584.2</ele>
        <time>2021-10-08T13:54:10Z</time>
      </trkpt>
      <trkpt lat="44.83056" lon="5.43159">
        <ele>1584.2</ele>
        <time>2021-10-08T13:54:11Z</time>
      </trkpt>
      <trkpt lat="44.83057" lon="5.43162">
        <ele>1584.2</ele>
        <time>2021-10-08T13:54:12Z</time>
      </trkpt>
      <trkpt lat="44.83059" lon="5.43164">
        <ele>1584</ele>
        <time>2021-10-08T13:54:13Z</time>
      </trkpt>
      <trkpt lat="44.83059" lon="5.43167">
        <ele>1583.6</ele>
        <time>2021-10-08T13:54:14Z</time>
      </trkpt>
      <trkpt lat="44.83061" lon="5.43171">
        <ele>1583.6</ele>
        <time>2021-10-08T13:54:15Z</time>
      </trkpt>
      <trkpt lat="44.83062" lon="5.43174">
        <ele>1583.6</ele>
        <time>2021-10-08T13:54:16Z</time>
      </trkpt>
      <trkpt lat="44.83063" lon="5.43178">
        <ele>1583.6</ele>
        <time>2021-10-08T13:54:17Z</time>
      </trkpt>
      <trkpt lat="44.83064" lon="5.43182">
        <ele>1582.2</ele>
        <time>2021-10-08T13:54:18Z</time>
      </trkpt>
      <trkpt lat="44.83066" lon="5.43187">
        <ele>1582.2</ele>
        <time>2021-10-08T13:54:19Z</time>
      </trkpt>
      <trkpt lat="44.83067" lon="5.43192">
        <ele>1582.2</ele>
        <time>2021-10-08T13:54:20Z</time>
      </trkpt>
      <trkpt lat="44.83068" lon="5.43198">
        <ele>1582.2</ele>
        <time>2021-10-08T13:54:21Z</time>
      </trkpt>
      <trkpt lat="44.83069" lon="5.43203">
        <ele>1581.6</ele>
        <time>2021-10-08T13:54:22Z</time>
      </trkpt>
      <trkpt lat="44.83069" lon="5.43208">
        <ele>1581.6</ele>
        <time>2021-10-08T13:54:23Z</time>
      </trkpt>
      <trkpt lat="44.83069" lon="5.43213">
        <ele>1581.6</ele>
        <time>2021-10-08T13:54:24Z</time>
      </trkpt>
      <trkpt lat="44.83069" lon="5.43218">
        <ele>1582.6</ele>
        <time>2021-10-08T13:54:25Z</time>
      </trkpt>
      <trkpt lat="44.83068" lon="5.43221">
        <ele>1583.8</ele>
        <time>2021-10-08T13:54:26Z</time>
      </trkpt>
      <trkpt lat="44.83068" lon="5.43225">
        <ele>1583.8</ele>
        <time>2021-10-08T13:54:27Z</time>
      </trkpt>
      <trkpt lat="44.83068" lon="5.43229">
        <ele>1583.8</ele>
        <time>2021-10-08T13:54:28Z</time>
      </trkpt>
      <trkpt lat="44.83069" lon="5.43232">
        <ele>1582.8</ele>
        <time>2021-10-08T13:54:29Z</time>
      </trkpt>
      <trkpt lat="44.83069" lon="5.43236">
        <ele>1582.8</ele>
        <time>2021-10-08T13:54:30Z</time>
      </trkpt>
      <trkpt lat="44.83069" lon="5.4324">
        <ele>1582.8</ele>
        <time>2021-10-08T13:54:31Z</time>
      </trkpt>
      <trkpt lat="44.83069" lon="5.43243">
        <ele>1582.8</ele>
        <time>2021-10-08T13:54:32Z</time>
      </trkpt>
      <trkpt lat="44.83068" lon="5.43247">
        <ele>1582.8</ele>
        <time>2021-10-08T13:54:33Z</time>
      </trkpt>
      <trkpt lat="44.83068" lon="5.43251">
        <ele>1583</ele>
        <time>2021-10-08T13:54:34Z</time>
      </trkpt>
      <trkpt lat="44.83068" lon="5.43255">
        <ele>1583</ele>
        <time>2021-10-08T13:54:35Z</time>
      </trkpt>
      <trkpt lat="44.83068" lon="5.43259">
        <ele>1583</ele>
        <time>2021-10-08T13:54:36Z</time>
      </trkpt>
      <trkpt lat="44.83068" lon="5.43262">
        <ele>1583</ele>
        <time>2021-10-08T13:54:37Z</time>
      </trkpt>
      <trkpt lat="44.83068" lon="5.43266">
        <ele>1583.4</ele>
        <time>2021-10-08T13:54:38Z</time>
      </trkpt>
      <trkpt lat="44.83068" lon="5.4327">
        <ele>1583.4</ele>
        <time>2021-10-08T13:54:39Z</time>
      </trkpt>
      <trkpt lat="44.83069" lon="5.43273">
        <ele>1583.4</ele>
        <time>2021-10-08T13:54:40Z</time>
      </trkpt>
      <trkpt lat="44.83071" lon="5.43275">
        <ele>1583.4</ele>
        <time>2021-10-08T13:54:41Z</time>
      </trkpt>
      <trkpt lat="44.83072" lon="5.43278">
        <ele>1584</ele>
        <time>2021-10-08T13:54:42Z</time>
      </trkpt>
      <trkpt lat="44.83074" lon="5.4328">
        <ele>1584</ele>
        <time>2021-10-08T13:54:43Z</time>
      </trkpt>
      <trkpt lat="44.83075" lon="5.43282">
        <ele>1584</ele>
        <time>2021-10-08T13:54:44Z</time>
      </trkpt>
      <trkpt lat="44.83076" lon="5.43285">
        <ele>1585</ele>
        <time>2021-10-08T13:54:45Z</time>
      </trkpt>
      <trkpt lat="44.83077" lon="5.43287">
        <ele>1585.6</ele>
        <time>2021-10-08T13:54:46Z</time>
      </trkpt>
      <trkpt lat="44.83078" lon="5.43289">
        <ele>1585.6</ele>
        <time>2021-10-08T13:54:47Z</time>
      </trkpt>
      <trkpt lat="44.83078" lon="5.43291">
        <ele>1585.6</ele>
        <time>2021-10-08T13:54:48Z</time>
      </trkpt>
      <trkpt lat="44.83079" lon="5.43294">
        <ele>1585.6</ele>
        <time>2021-10-08T13:54:49Z</time>
      </trkpt>
      <trkpt lat="44.8308" lon="5.43296">
        <ele>1585.6</ele>
        <time>2021-10-08T13:54:50Z</time>
      </trkpt>
      <trkpt lat="44.8308" lon="5.43298">
        <ele>1585.6</ele>
        <time>2021-10-08T13:54:51Z</time>
      </trkpt>
      <trkpt lat="44.83081" lon="5.43301">
        <ele>1585.6</ele>
        <time>2021-10-08T13:54:52Z</time>
      </trkpt>
      <trkpt lat="44.83081" lon="5.43303">
        <ele>1586.6</ele>
        <time>2021-10-08T13:54:53Z</time>
      </trkpt>
      <trkpt lat="44.83081" lon="5.43305">
        <ele>1587.8</ele>
        <time>2021-10-08T13:54:54Z</time>
      </trkpt>
      <trkpt lat="44.83082" lon="5.43308">
        <ele>1587.8</ele>
        <time>2021-10-08T13:54:55Z</time>
      </trkpt>
      <trkpt lat="44.83082" lon="5.4331">
        <ele>1587.8</ele>
        <time>2021-10-08T13:54:56Z</time>
      </trkpt>
      <trkpt lat="44.83082" lon="5.43313">
        <ele>1587.6</ele>
        <time>2021-10-08T13:54:57Z</time>
      </trkpt>
      <trkpt lat="44.83083" lon="5.43315">
        <ele>1587.8</ele>
        <time>2021-10-08T13:54:58Z</time>
      </trkpt>
      <trkpt lat="44.83083" lon="5.43317">
        <ele>1587.8</ele>
        <time>2021-10-08T13:54:59Z</time>
      </trkpt>
      <trkpt lat="44.83083" lon="5.4332">
        <ele>1587.8</ele>
        <time>2021-10-08T13:55:00Z</time>
      </trkpt>
      <trkpt lat="44.83084" lon="5.43322">
        <ele>1587.8</ele>
        <time>2021-10-08T13:55:01Z</time>
      </trkpt>
      <trkpt lat="44.83084" lon="5.43325">
        <ele>1587.8</ele>
        <time>2021-10-08T13:55:02Z</time>
      </trkpt>
      <trkpt lat="44.83085" lon="5.43327">
        <ele>1588</ele>
        <time>2021-10-08T13:55:03Z</time>
      </trkpt>
      <trkpt lat="44.83085" lon="5.4333">
        <ele>1588</ele>
        <time>2021-10-08T13:55:04Z</time>
      </trkpt>
      <trkpt lat="44.83086" lon="5.43332">
        <ele>1588</ele>
        <time>2021-10-08T13:55:05Z</time>
      </trkpt>
      <trkpt lat="44.83086" lon="5.43334">
        <ele>1588.8</ele>
        <time>2021-10-08T13:55:06Z</time>
      </trkpt>
      <trkpt lat="44.83086" lon="5.43337">
        <ele>1588.8</ele>
        <time>2021-10-08T13:55:07Z</time>
      </trkpt>
      <trkpt lat="44.83086" lon="5.43339">
        <ele>1588.8</ele>
        <time>2021-10-08T13:55:08Z</time>
      </trkpt>
      <trkpt lat="44.83087" lon="5.43342">
        <ele>1588</ele>
        <time>2021-10-08T13:55:09Z</time>
      </trkpt>
      <trkpt lat="44.83088" lon="5.43344">
        <ele>1587.8</ele>
        <time>2021-10-08T13:55:10Z</time>
      </trkpt>
      <trkpt lat="44.83089" lon="5.43346">
        <ele>1587.8</ele>
        <time>2021-10-08T13:55:11Z</time>
      </trkpt>
      <trkpt lat="44.8309" lon="5.43348">
        <ele>1587.8</ele>
        <time>2021-10-08T13:55:12Z</time>
      </trkpt>
      <trkpt lat="44.8309" lon="5.4335">
        <ele>1587.8</ele>
        <time>2021-10-08T13:55:13Z</time>
      </trkpt>
      <trkpt lat="44.83091" lon="5.43353">
        <ele>1588.4</ele>
        <time>2021-10-08T13:55:14Z</time>
      </trkpt>
      <trkpt lat="44.83092" lon="5.43355">
        <ele>1588.4</ele>
        <time>2021-10-08T13:55:15Z</time>
      </trkpt>
      <trkpt lat="44.83094" lon="5.43357">
        <ele>1588.4</ele>
        <time>2021-10-08T13:55:16Z</time>
      </trkpt>
      <trkpt lat="44.83095" lon="5.43359">
        <ele>1588.4</ele>
        <time>2021-10-08T13:55:17Z</time>
      </trkpt>
      <trkpt lat="44.83096" lon="5.43362">
        <ele>1589</ele>
        <time>2021-10-08T13:55:18Z</time>
      </trkpt>
      <trkpt lat="44.83097" lon="5.43364">
        <ele>1589</ele>
        <time>2021-10-08T13:55:19Z</time>
      </trkpt>
      <trkpt lat="44.83098" lon="5.43366">
        <ele>1589</ele>
        <time>2021-10-08T13:55:20Z</time>
      </trkpt>
      <trkpt lat="44.83099" lon="5.43369">
        <ele>1589</ele>
        <time>2021-10-08T13:55:21Z</time>
      </trkpt>
      <trkpt lat="44.831" lon="5.43371">
        <ele>1589.8</ele>
        <time>2021-10-08T13:55:22Z</time>
      </trkpt>
      <trkpt lat="44.83101" lon="5.43373">
        <ele>1589.8</ele>
        <time>2021-10-08T13:55:23Z</time>
      </trkpt>
      <trkpt lat="44.83102" lon="5.43376">
        <ele>1589.8</ele>
        <time>2021-10-08T13:55:24Z</time>
      </trkpt>
      <trkpt lat="44.83103" lon="5.43378">
        <ele>1589.8</ele>
        <time>2021-10-08T13:55:25Z</time>
      </trkpt>
      <trkpt lat="44.83104" lon="5.43381">
        <ele>1589.8</ele>
        <time>2021-10-08T13:55:26Z</time>
      </trkpt>
      <trkpt lat="44.83105" lon="5.43383">
        <ele>1590</ele>
        <time>2021-10-08T13:55:27Z</time>
      </trkpt>
      <trkpt lat="44.83106" lon="5.43386">
        <ele>1590</ele>
        <time>2021-10-08T13:55:28Z</time>
      </trkpt>
      <trkpt lat="44.83107" lon="5.43388">
        <ele>1590.8</ele>
        <time>2021-10-08T13:55:29Z</time>
      </trkpt>
      <trkpt lat="44.83108" lon="5.4339">
        <ele>1591.2</ele>
        <time>2021-10-08T13:55:30Z</time>
      </trkpt>
      <trkpt lat="44.83109" lon="5.43392">
        <ele>1591.2</ele>
        <time>2021-10-08T13:55:31Z</time>
      </trkpt>
      <trkpt lat="44.8311" lon="5.43394">
        <ele>1591.2</ele>
        <time>2021-10-08T13:55:32Z</time>
      </trkpt>
      <trkpt lat="44.83112" lon="5.43396">
        <ele>1591</ele>
        <time>2021-10-08T13:55:33Z</time>
      </trkpt>
      <trkpt lat="44.83113" lon="5.43397">
        <ele>1591.2</ele>
        <time>2021-10-08T13:55:34Z</time>
      </trkpt>
      <trkpt lat="44.83114" lon="5.43399">
        <ele>1591.2</ele>
        <time>2021-10-08T13:55:35Z</time>
      </trkpt>
      <trkpt lat="44.83115" lon="5.43401">
        <ele>1591.2</ele>
        <time>2021-10-08T13:55:36Z</time>
      </trkpt>
      <trkpt lat="44.83116" lon="5.43402">
        <ele>1591.6</ele>
        <time>2021-10-08T13:55:37Z</time>
      </trkpt>
      <trkpt lat="44.83117" lon="5.43404">
        <ele>1592</ele>
        <time>2021-10-08T13:55:38Z</time>
      </trkpt>
      <trkpt lat="44.83117" lon="5.43405">
        <ele>1592</ele>
        <time>2021-10-08T13:55:39Z</time>
      </trkpt>
      <trkpt lat="44.83119" lon="5.43407">
        <ele>1592</ele>
        <time>2021-10-08T13:55:40Z</time>
      </trkpt>
      <trkpt lat="44.8312" lon="5.43409">
        <ele>1592</ele>
        <time>2021-10-08T13:55:41Z</time>
      </trkpt>
      <trkpt lat="44.83121" lon="5.43411">
        <ele>1592.4</ele>
        <time>2021-10-08T13:55:42Z</time>
      </trkpt>
      <trkpt lat="44.83122" lon="5.43413">
        <ele>1592.4</ele>
        <time>2021-10-08T13:55:43Z</time>
      </trkpt>
      <trkpt lat="44.83123" lon="5.43415">
        <ele>1592.4</ele>
        <time>2021-10-08T13:55:44Z</time>
      </trkpt>
      <trkpt lat="44.83124" lon="5.43416">
        <ele>1592.4</ele>
        <time>2021-10-08T13:55:45Z</time>
      </trkpt>
      <trkpt lat="44.83125" lon="5.43418">
        <ele>1592</ele>
        <time>2021-10-08T13:55:46Z</time>
      </trkpt>
      <trkpt lat="44.83126" lon="5.4342">
        <ele>1592</ele>
        <time>2021-10-08T13:55:47Z</time>
      </trkpt>
      <trkpt lat="44.83128" lon="5.43422">
        <ele>1592</ele>
        <time>2021-10-08T13:55:48Z</time>
      </trkpt>
      <trkpt lat="44.83129" lon="5.43423">
        <ele>1592</ele>
        <time>2021-10-08T13:55:49Z</time>
      </trkpt>
      <trkpt lat="44.8313" lon="5.43425">
        <ele>1592.8</ele>
        <time>2021-10-08T13:55:50Z</time>
      </trkpt>
      <trkpt lat="44.83131" lon="5.43427">
        <ele>1592.8</ele>
        <time>2021-10-08T13:55:51Z</time>
      </trkpt>
      <trkpt lat="44.83133" lon="5.43428">
        <ele>1592.8</ele>
        <time>2021-10-08T13:55:52Z</time>
      </trkpt>
      <trkpt lat="44.83134" lon="5.4343">
        <ele>1592.8</ele>
        <time>2021-10-08T13:55:53Z</time>
      </trkpt>
      <trkpt lat="44.83135" lon="5.43432">
        <ele>1593.2</ele>
        <time>2021-10-08T13:55:54Z</time>
      </trkpt>
      <trkpt lat="44.83136" lon="5.43434">
        <ele>1593.2</ele>
        <time>2021-10-08T13:55:55Z</time>
      </trkpt>
      <trkpt lat="44.83137" lon="5.43436">
        <ele>1593.2</ele>
        <time>2021-10-08T13:55:56Z</time>
      </trkpt>
      <trkpt lat="44.83138" lon="5.43438">
        <ele>1593.2</ele>
        <time>2021-10-08T13:55:57Z</time>
      </trkpt>
      <trkpt lat="44.83138" lon="5.4344">
        <ele>1593.4</ele>
        <time>2021-10-08T13:55:58Z</time>
      </trkpt>
      <trkpt lat="44.83139" lon="5.43441">
        <ele>1593.4</ele>
        <time>2021-10-08T13:55:59Z</time>
      </trkpt>
      <trkpt lat="44.83139" lon="5.43443">
        <ele>1593.4</ele>
        <time>2021-10-08T13:56:00Z</time>
      </trkpt>
      <trkpt lat="44.8314" lon="5.43445">
        <ele>1593.6</ele>
        <time>2021-10-08T13:56:01Z</time>
      </trkpt>
      <trkpt lat="44.8314" lon="5.43447">
        <ele>1593.6</ele>
        <time>2021-10-08T13:56:02Z</time>
      </trkpt>
      <trkpt lat="44.83141" lon="5.43449">
        <ele>1593.6</ele>
        <time>2021-10-08T13:56:03Z</time>
      </trkpt>
      <trkpt lat="44.83142" lon="5.43451">
        <ele>1593.6</ele>
        <time>2021-10-08T13:56:04Z</time>
      </trkpt>
      <trkpt lat="44.83143" lon="5.43453">
        <ele>1593.6</ele>
        <time>2021-10-08T13:56:05Z</time>
      </trkpt>
      <trkpt lat="44.83145" lon="5.43454">
        <ele>1594</ele>
        <time>2021-10-08T13:56:06Z</time>
      </trkpt>
      <trkpt lat="44.83146" lon="5.43455">
        <ele>1594</ele>
        <time>2021-10-08T13:56:07Z</time>
      </trkpt>
      <trkpt lat="44.83146" lon="5.43456">
        <ele>1594</ele>
        <time>2021-10-08T13:56:08Z</time>
      </trkpt>
      <trkpt lat="44.83179" lon="5.43507">
        <ele>1601.8</ele>
        <time>2021-10-08T13:57:39Z</time>
      </trkpt>
      <trkpt lat="44.8318" lon="5.43509">
        <ele>1601.8</ele>
        <time>2021-10-08T13:57:40Z</time>
      </trkpt>
      <trkpt lat="44.83181" lon="5.43511">
        <ele>1601.8</ele>
        <time>2021-10-08T13:57:41Z</time>
      </trkpt>
      <trkpt lat="44.83181" lon="5.43513">
        <ele>1601.8</ele>
        <time>2021-10-08T13:57:42Z</time>
      </trkpt>
      <trkpt lat="44.83182" lon="5.43515">
        <ele>1601.2</ele>
        <time>2021-10-08T13:57:43Z</time>
      </trkpt>
      <trkpt lat="44.83183" lon="5.43517">
        <ele>1601.2</ele>
        <time>2021-10-08T13:57:44Z</time>
      </trkpt>
      <trkpt lat="44.83184" lon="5.43519">
        <ele>1601.4</ele>
        <time>2021-10-08T13:57:45Z</time>
      </trkpt>
      <trkpt lat="44.83184" lon="5.43522">
        <ele>1602</ele>
        <time>2021-10-08T13:57:46Z</time>
      </trkpt>
      <trkpt lat="44.83185" lon="5.43524">
        <ele>1602</ele>
        <time>2021-10-08T13:57:47Z</time>
      </trkpt>
      <trkpt lat="44.83186" lon="5.43527">
        <ele>1602</ele>
        <time>2021-10-08T13:57:48Z</time>
      </trkpt>
      <trkpt lat="44.83186" lon="5.43529">
        <ele>1602</ele>
        <time>2021-10-08T13:57:49Z</time>
      </trkpt>
      <trkpt lat="44.83187" lon="5.43532">
        <ele>1602.6</ele>
        <time>2021-10-08T13:57:50Z</time>
      </trkpt>
      <trkpt lat="44.83187" lon="5.43534">
        <ele>1602.6</ele>
        <time>2021-10-08T13:57:51Z</time>
      </trkpt>
      <trkpt lat="44.83188" lon="5.43537">
        <ele>1602.6</ele>
        <time>2021-10-08T13:57:52Z</time>
      </trkpt>
      <trkpt lat="44.83189" lon="5.43539">
        <ele>1602.6</ele>
        <time>2021-10-08T13:57:53Z</time>
      </trkpt>
      <trkpt lat="44.8319" lon="5.43541">
        <ele>1602.6</ele>
        <time>2021-10-08T13:57:54Z</time>
      </trkpt>
      <trkpt lat="44.83191" lon="5.43543">
        <ele>1602.6</ele>
        <time>2021-10-08T13:57:55Z</time>
      </trkpt>
      <trkpt lat="44.83192" lon="5.43546">
        <ele>1602.6</ele>
        <time>2021-10-08T13:57:56Z</time>
      </trkpt>
      <trkpt lat="44.83193" lon="5.43548">
        <ele>1603.4</ele>
        <time>2021-10-08T13:57:57Z</time>
      </trkpt>
      <trkpt lat="44.83193" lon="5.43551">
        <ele>1603.4</ele>
        <time>2021-10-08T13:57:58Z</time>
      </trkpt>
      <trkpt lat="44.83194" lon="5.43553">
        <ele>1603.4</ele>
        <time>2021-10-08T13:57:59Z</time>
      </trkpt>
      <trkpt lat="44.83195" lon="5.43555">
        <ele>1603.4</ele>
        <time>2021-10-08T13:58:00Z</time>
      </trkpt>
      <trkpt lat="44.83196" lon="5.43558">
        <ele>1603.4</ele>
        <time>2021-10-08T13:58:01Z</time>
      </trkpt>
      <trkpt lat="44.83197" lon="5.4356">
        <ele>1604.2</ele>
        <time>2021-10-08T13:58:02Z</time>
      </trkpt>
      <trkpt lat="44.83197" lon="5.43563">
        <ele>1604.2</ele>
        <time>2021-10-08T13:58:03Z</time>
      </trkpt>
      <trkpt lat="44.83198" lon="5.43565">
        <ele>1604.2</ele>
        <time>2021-10-08T13:58:04Z</time>
      </trkpt>
      <trkpt lat="44.83198" lon="5.43568">
        <ele>1604.2</ele>
        <time>2021-10-08T13:58:05Z</time>
      </trkpt>
      <trkpt lat="44.83199" lon="5.4357">
        <ele>1604.2</ele>
        <time>2021-10-08T13:58:06Z</time>
      </trkpt>
      <trkpt lat="44.832" lon="5.43573">
        <ele>1604.2</ele>
        <time>2021-10-08T13:58:07Z</time>
      </trkpt>
      <trkpt lat="44.832" lon="5.43576">
        <ele>1604.2</ele>
        <time>2021-10-08T13:58:08Z</time>
      </trkpt>
      <trkpt lat="44.83201" lon="5.43578">
        <ele>1604.2</ele>
        <time>2021-10-08T13:58:09Z</time>
      </trkpt>
      <trkpt lat="44.83201" lon="5.43581">
        <ele>1605</ele>
        <time>2021-10-08T13:58:10Z</time>
      </trkpt>
      <trkpt lat="44.83202" lon="5.43583">
        <ele>1605</ele>
        <time>2021-10-08T13:58:11Z</time>
      </trkpt>
      <trkpt lat="44.83202" lon="5.43586">
        <ele>1605</ele>
        <time>2021-10-08T13:58:12Z</time>
      </trkpt>
      <trkpt lat="44.83203" lon="5.43588">
        <ele>1605</ele>
        <time>2021-10-08T13:58:13Z</time>
      </trkpt>
      <trkpt lat="44.83204" lon="5.43591">
        <ele>1604.8</ele>
        <time>2021-10-08T13:58:14Z</time>
      </trkpt>
      <trkpt lat="44.83205" lon="5.43594">
        <ele>1604.8</ele>
        <time>2021-10-08T13:58:15Z</time>
      </trkpt>
      <trkpt lat="44.83205" lon="5.43596">
        <ele>1604.8</ele>
        <time>2021-10-08T13:58:16Z</time>
      </trkpt>
      <trkpt lat="44.83205" lon="5.43599">
        <ele>1604.8</ele>
        <time>2021-10-08T13:58:17Z</time>
      </trkpt>
      <trkpt lat="44.83205" lon="5.43601">
        <ele>1605.8</ele>
        <time>2021-10-08T13:58:18Z</time>
      </trkpt>
      <trkpt lat="44.83206" lon="5.43604">
        <ele>1605.8</ele>
        <time>2021-10-08T13:58:19Z</time>
      </trkpt>
      <trkpt lat="44.83206" lon="5.43606">
        <ele>1605.8</ele>
        <time>2021-10-08T13:58:20Z</time>
      </trkpt>
      <trkpt lat="44.83207" lon="5.43608">
        <ele>1605.8</ele>
        <time>2021-10-08T13:58:21Z</time>
      </trkpt>
      <trkpt lat="44.83207" lon="5.43611">
        <ele>1605.8</ele>
        <time>2021-10-08T13:58:22Z</time>
      </trkpt>
      <trkpt lat="44.83208" lon="5.43613">
        <ele>1605.8</ele>
        <time>2021-10-08T13:58:23Z</time>
      </trkpt>
      <trkpt lat="44.83208" lon="5.43616">
        <ele>1605.8</ele>
        <time>2021-10-08T13:58:24Z</time>
      </trkpt>
      <trkpt lat="44.83209" lon="5.43618">
        <ele>1605.8</ele>
        <time>2021-10-08T13:58:25Z</time>
      </trkpt>
      <trkpt lat="44.8321" lon="5.43621">
        <ele>1606</ele>
        <time>2021-10-08T13:58:26Z</time>
      </trkpt>
      <trkpt lat="44.83211" lon="5.43624">
        <ele>1606</ele>
        <time>2021-10-08T13:58:27Z</time>
      </trkpt>
      <trkpt lat="44.83212" lon="5.43626">
        <ele>1606</ele>
        <time>2021-10-08T13:58:28Z</time>
      </trkpt>
      <trkpt lat="44.83212" lon="5.43628">
        <ele>1606.2</ele>
        <time>2021-10-08T13:58:29Z</time>
      </trkpt>
      <trkpt lat="44.83213" lon="5.43631">
        <ele>1606.4</ele>
        <time>2021-10-08T13:58:30Z</time>
      </trkpt>
      <trkpt lat="44.83213" lon="5.43633">
        <ele>1606.4</ele>
        <time>2021-10-08T13:58:31Z</time>
      </trkpt>
      <trkpt lat="44.83213" lon="5.43636">
        <ele>1606.4</ele>
        <time>2021-10-08T13:58:32Z</time>
      </trkpt>
      <trkpt lat="44.83213" lon="5.43639">
        <ele>1607</ele>
        <time>2021-10-08T13:58:33Z</time>
      </trkpt>
      <trkpt lat="44.83214" lon="5.43641">
        <ele>1607.6</ele>
        <time>2021-10-08T13:58:34Z</time>
      </trkpt>
      <trkpt lat="44.83215" lon="5.43643">
        <ele>1607.6</ele>
        <time>2021-10-08T13:58:35Z</time>
      </trkpt>
      <trkpt lat="44.83217" lon="5.43645">
        <ele>1607.6</ele>
        <time>2021-10-08T13:58:36Z</time>
      </trkpt>
      <trkpt lat="44.83218" lon="5.43647">
        <ele>1607.6</ele>
        <time>2021-10-08T13:58:37Z</time>
      </trkpt>
      <trkpt lat="44.8322" lon="5.43648">
        <ele>1609.6</ele>
        <time>2021-10-08T13:58:38Z</time>
      </trkpt>
      <trkpt lat="44.83221" lon="5.4365">
        <ele>1609.6</ele>
        <time>2021-10-08T13:58:39Z</time>
      </trkpt>
      <trkpt lat="44.83222" lon="5.43651">
        <ele>1609.6</ele>
        <time>2021-10-08T13:58:40Z</time>
      </trkpt>
      <trkpt lat="44.83223" lon="5.43652">
        <ele>1609.6</ele>
        <time>2021-10-08T13:58:41Z</time>
      </trkpt>
      <trkpt lat="44.83225" lon="5.43653">
        <ele>1609.6</ele>
        <time>2021-10-08T13:58:42Z</time>
      </trkpt>
      <trkpt lat="44.83226" lon="5.43654">
        <ele>1609.6</ele>
        <time>2021-10-08T13:58:43Z</time>
      </trkpt>
      <trkpt lat="44.83227" lon="5.43655">
        <ele>1609.6</ele>
        <time>2021-10-08T13:58:44Z</time>
      </trkpt>
      <trkpt lat="44.83227" lon="5.43657">
        <ele>1610</ele>
        <time>2021-10-08T13:58:45Z</time>
      </trkpt>
      <trkpt lat="44.83228" lon="5.43658">
        <ele>1610.2</ele>
        <time>2021-10-08T13:58:46Z</time>
      </trkpt>
      <trkpt lat="44.83229" lon="5.43659">
        <ele>1610.2</ele>
        <time>2021-10-08T13:58:47Z</time>
      </trkpt>
      <trkpt lat="44.8323" lon="5.43661">
        <ele>1610.2</ele>
        <time>2021-10-08T13:58:48Z</time>
      </trkpt>
      <trkpt lat="44.8323" lon="5.43662">
        <ele>1610.2</ele>
        <time>2021-10-08T13:58:49Z</time>
      </trkpt>
      <trkpt lat="44.83231" lon="5.43664">
        <ele>1610.2</ele>
        <time>2021-10-08T13:58:50Z</time>
      </trkpt>
      <trkpt lat="44.8323" lon="5.43666">
        <ele>1610.2</ele>
        <time>2021-10-08T13:58:51Z</time>
      </trkpt>
      <trkpt lat="44.8323" lon="5.43668">
        <ele>1610.6</ele>
        <time>2021-10-08T13:58:52Z</time>
      </trkpt>
      <trkpt lat="44.83229" lon="5.4367">
        <ele>1610.6</ele>
        <time>2021-10-08T13:58:53Z</time>
      </trkpt>
      <trkpt lat="44.83228" lon="5.43672">
        <ele>1611.6</ele>
        <time>2021-10-08T13:58:54Z</time>
      </trkpt>
      <trkpt lat="44.83227" lon="5.43674">
        <ele>1611.6</ele>
        <time>2021-10-08T13:58:55Z</time>
      </trkpt>
      <trkpt lat="44.83227" lon="5.43676">
        <ele>1611.6</ele>
        <time>2021-10-08T13:58:56Z</time>
      </trkpt>
      <trkpt lat="44.83227" lon="5.43678">
        <ele>1612.6</ele>
        <time>2021-10-08T13:58:57Z</time>
      </trkpt>
      <trkpt lat="44.83227" lon="5.4368">
        <ele>1612.6</ele>
        <time>2021-10-08T13:58:58Z</time>
      </trkpt>
      <trkpt lat="44.83226" lon="5.43681">
        <ele>1612.6</ele>
        <time>2021-10-08T13:58:59Z</time>
      </trkpt>
      <trkpt lat="44.83226" lon="5.43683">
        <ele>1612.6</ele>
        <time>2021-10-08T13:59:00Z</time>
      </trkpt>
      <trkpt lat="44.83226" lon="5.43685">
        <ele>1613.6</ele>
        <time>2021-10-08T13:59:01Z</time>
      </trkpt>
      <trkpt lat="44.83227" lon="5.43687">
        <ele>1613.8</ele>
        <time>2021-10-08T13:59:02Z</time>
      </trkpt>
      <trkpt lat="44.83226" lon="5.43689">
        <ele>1613.8</ele>
        <time>2021-10-08T13:59:03Z</time>
      </trkpt>
      <trkpt lat="44.83227" lon="5.43691">
        <ele>1613.8</ele>
        <time>2021-10-08T13:59:04Z</time>
      </trkpt>
      <trkpt lat="44.83227" lon="5.43692">
        <ele>1613.8</ele>
        <time>2021-10-08T13:59:05Z</time>
      </trkpt>
      <trkpt lat="44.83227" lon="5.43694">
        <ele>1614.4</ele>
        <time>2021-10-08T13:59:06Z</time>
      </trkpt>
      <trkpt lat="44.83227" lon="5.43695">
        <ele>1614.4</ele>
        <time>2021-10-08T13:59:07Z</time>
      </trkpt>
      <trkpt lat="44.83227" lon="5.43696">
        <ele>1614.4</ele>
        <time>2021-10-08T13:59:08Z</time>
      </trkpt>
      <trkpt lat="44.83228" lon="5.43698">
        <ele>1614.6</ele>
        <time>2021-10-08T13:59:09Z</time>
      </trkpt>
      <trkpt lat="44.83228" lon="5.437">
        <ele>1615</ele>
        <time>2021-10-08T13:59:10Z</time>
      </trkpt>
      <trkpt lat="44.83227" lon="5.43701">
        <ele>1615</ele>
        <time>2021-10-08T13:59:11Z</time>
      </trkpt>
      <trkpt lat="44.83227" lon="5.43702">
        <ele>1615</ele>
        <time>2021-10-08T13:59:12Z</time>
      </trkpt>
      <trkpt lat="44.83227" lon="5.43704">
        <ele>1615</ele>
        <time>2021-10-08T13:59:13Z</time>
      </trkpt>
      <trkpt lat="44.83227" lon="5.43706">
        <ele>1615</ele>
        <time>2021-10-08T13:59:14Z</time>
      </trkpt>
      <trkpt lat="44.83227" lon="5.43707">
        <ele>1615.2</ele>
        <time>2021-10-08T13:59:15Z</time>
      </trkpt>
      <trkpt lat="44.83226" lon="5.43709">
        <ele>1615.2</ele>
        <time>2021-10-08T13:59:16Z</time>
      </trkpt>
      <trkpt lat="44.83226" lon="5.4371">
        <ele>1615.2</ele>
        <time>2021-10-08T13:59:17Z</time>
      </trkpt>
      <trkpt lat="44.83226" lon="5.43712">
        <ele>1616.4</ele>
        <time>2021-10-08T13:59:18Z</time>
      </trkpt>
      <trkpt lat="44.83226" lon="5.43714">
        <ele>1616.4</ele>
        <time>2021-10-08T13:59:19Z</time>
      </trkpt>
      <trkpt lat="44.83226" lon="5.43716">
        <ele>1616.4</ele>
        <time>2021-10-08T13:59:20Z</time>
      </trkpt>
      <trkpt lat="44.83226" lon="5.43718">
        <ele>1616.2</ele>
        <time>2021-10-08T13:59:21Z</time>
      </trkpt>
      <trkpt lat="44.83226" lon="5.4372">
        <ele>1616.8</ele>
        <time>2021-10-08T13:59:22Z</time>
      </trkpt>
      <trkpt lat="44.83226" lon="5.43722">
        <ele>1616.8</ele>
        <time>2021-10-08T13:59:23Z</time>
      </trkpt>
      <trkpt lat="44.83227" lon="5.43724">
        <ele>1616.8</ele>
        <time>2021-10-08T13:59:24Z</time>
      </trkpt>
      <trkpt lat="44.83227" lon="5.43726">
        <ele>1616.8</ele>
        <time>2021-10-08T13:59:25Z</time>
      </trkpt>
      <trkpt lat="44.83227" lon="5.43728">
        <ele>1617.2</ele>
        <time>2021-10-08T13:59:26Z</time>
      </trkpt>
      <trkpt lat="44.83227" lon="5.4373">
        <ele>1617.2</ele>
        <time>2021-10-08T13:59:27Z</time>
      </trkpt>
      <trkpt lat="44.83228" lon="5.43732">
        <ele>1617.2</ele>
        <time>2021-10-08T13:59:28Z</time>
      </trkpt>
      <trkpt lat="44.83228" lon="5.43735">
        <ele>1617.2</ele>
        <time>2021-10-08T13:59:29Z</time>
      </trkpt>
      <trkpt lat="44.83227" lon="5.43737">
        <ele>1617.4</ele>
        <time>2021-10-08T13:59:30Z</time>
      </trkpt>
      <trkpt lat="44.83227" lon="5.43739">
        <ele>1617.4</ele>
        <time>2021-10-08T13:59:31Z</time>
      </trkpt>
      <trkpt lat="44.83228" lon="5.43741">
        <ele>1617.4</ele>
        <time>2021-10-08T13:59:32Z</time>
      </trkpt>
      <trkpt lat="44.83229" lon="5.43742">
        <ele>1618.4</ele>
        <time>2021-10-08T13:59:33Z</time>
      </trkpt>
      <trkpt lat="44.8323" lon="5.43744">
        <ele>1618.6</ele>
        <time>2021-10-08T13:59:34Z</time>
      </trkpt>
      <trkpt lat="44.83231" lon="5.43745">
        <ele>1618.6</ele>
        <time>2021-10-08T13:59:35Z</time>
      </trkpt>
      <trkpt lat="44.83232" lon="5.43746">
        <ele>1618.6</ele>
        <time>2021-10-08T13:59:36Z</time>
      </trkpt>
      <trkpt lat="44.83233" lon="5.43748">
        <ele>1618.6</ele>
        <time>2021-10-08T13:59:37Z</time>
      </trkpt>
      <trkpt lat="44.83234" lon="5.43749">
        <ele>1619.2</ele>
        <time>2021-10-08T13:59:38Z</time>
      </trkpt>
      <trkpt lat="44.83235" lon="5.43751">
        <ele>1619.2</ele>
        <time>2021-10-08T13:59:39Z</time>
      </trkpt>
      <trkpt lat="44.83236" lon="5.43753">
        <ele>1619.2</ele>
        <time>2021-10-08T13:59:40Z</time>
      </trkpt>
      <trkpt lat="44.83237" lon="5.43754">
        <ele>1619.2</ele>
        <time>2021-10-08T13:59:41Z</time>
      </trkpt>
      <trkpt lat="44.83238" lon="5.43756">
        <ele>1619</ele>
        <time>2021-10-08T13:59:42Z</time>
      </trkpt>
      <trkpt lat="44.83239" lon="5.43758">
        <ele>1619</ele>
        <time>2021-10-08T13:59:43Z</time>
      </trkpt>
      <trkpt lat="44.8324" lon="5.4376">
        <ele>1619</ele>
        <time>2021-10-08T13:59:44Z</time>
      </trkpt>
      <trkpt lat="44.83241" lon="5.43762">
        <ele>1619</ele>
        <time>2021-10-08T13:59:45Z</time>
      </trkpt>
      <trkpt lat="44.83242" lon="5.43763">
        <ele>1619.4</ele>
        <time>2021-10-08T13:59:46Z</time>
      </trkpt>
      <trkpt lat="44.83243" lon="5.43765">
        <ele>1619.4</ele>
        <time>2021-10-08T13:59:47Z</time>
      </trkpt>
      <trkpt lat="44.83244" lon="5.43767">
        <ele>1619.4</ele>
        <time>2021-10-08T13:59:48Z</time>
      </trkpt>
      <trkpt lat="44.83245" lon="5.43769">
        <ele>1619.8</ele>
        <time>2021-10-08T13:59:49Z</time>
      </trkpt>
      <trkpt lat="44.83246" lon="5.4377">
        <ele>1620.2</ele>
        <time>2021-10-08T13:59:50Z</time>
      </trkpt>
      <trkpt lat="44.83247" lon="5.43772">
        <ele>1620.2</ele>
        <time>2021-10-08T13:59:51Z</time>
      </trkpt>
      <trkpt lat="44.83247" lon="5.43773">
        <ele>1620.2</ele>
        <time>2021-10-08T13:59:52Z</time>
      </trkpt>
      <trkpt lat="44.83248" lon="5.43775">
        <ele>1620.2</ele>
        <time>2021-10-08T13:59:53Z</time>
      </trkpt>
      <trkpt lat="44.83249" lon="5.43777">
        <ele>1620.6</ele>
        <time>2021-10-08T13:59:54Z</time>
      </trkpt>
      <trkpt lat="44.8325" lon="5.43778">
        <ele>1620.6</ele>
        <time>2021-10-08T13:59:55Z</time>
      </trkpt>
      <trkpt lat="44.83251" lon="5.4378">
        <ele>1620.6</ele>
        <time>2021-10-08T13:59:56Z</time>
      </trkpt>
      <trkpt lat="44.83252" lon="5.43781">
        <ele>1620.4</ele>
        <time>2021-10-08T13:59:57Z</time>
      </trkpt>
      <trkpt lat="44.83254" lon="5.43781">
        <ele>1620.4</ele>
        <time>2021-10-08T13:59:58Z</time>
      </trkpt>
      <trkpt lat="44.83255" lon="5.43782">
        <ele>1620.4</ele>
        <time>2021-10-08T13:59:59Z</time>
      </trkpt>
      <trkpt lat="44.83257" lon="5.43781">
        <ele>1620.4</ele>
        <time>2021-10-08T14:00:00Z</time>
      </trkpt>
      <trkpt lat="44.83258" lon="5.43781">
        <ele>1620.4</ele>
        <time>2021-10-08T14:00:01Z</time>
      </trkpt>
      <trkpt lat="44.8326" lon="5.43782">
        <ele>1621.2</ele>
        <time>2021-10-08T14:00:02Z</time>
      </trkpt>
      <trkpt lat="44.83262" lon="5.43782">
        <ele>1621.2</ele>
        <time>2021-10-08T14:00:03Z</time>
      </trkpt>
      <trkpt lat="44.83263" lon="5.43783">
        <ele>1621.2</ele>
        <time>2021-10-08T14:00:04Z</time>
      </trkpt>
      <trkpt lat="44.83264" lon="5.43784">
        <ele>1621.6</ele>
        <time>2021-10-08T14:00:05Z</time>
      </trkpt>
      <trkpt lat="44.83265" lon="5.43785">
        <ele>1621.8</ele>
        <time>2021-10-08T14:00:06Z</time>
      </trkpt>
      <trkpt lat="44.83266" lon="5.43787">
        <ele>1621.8</ele>
        <time>2021-10-08T14:00:07Z</time>
      </trkpt>
      <trkpt lat="44.83266" lon="5.4379">
        <ele>1621.8</ele>
        <time>2021-10-08T14:00:08Z</time>
      </trkpt>
      <trkpt lat="44.83266" lon="5.43791">
        <ele>1621.8</ele>
        <time>2021-10-08T14:00:09Z</time>
      </trkpt>
      <trkpt lat="44.83266" lon="5.43793">
        <ele>1622.6</ele>
        <time>2021-10-08T14:00:10Z</time>
      </trkpt>
      <trkpt lat="44.83266" lon="5.43795">
        <ele>1622.6</ele>
        <time>2021-10-08T14:00:11Z</time>
      </trkpt>
      <trkpt lat="44.83265" lon="5.43797">
        <ele>1622.6</ele>
        <time>2021-10-08T14:00:12Z</time>
      </trkpt>
      <trkpt lat="44.83265" lon="5.43799">
        <ele>1623.2</ele>
        <time>2021-10-08T14:00:13Z</time>
      </trkpt>
      <trkpt lat="44.83264" lon="5.43801">
        <ele>1623.8</ele>
        <time>2021-10-08T14:00:14Z</time>
      </trkpt>
      <trkpt lat="44.83264" lon="5.43803">
        <ele>1623.8</ele>
        <time>2021-10-08T14:00:15Z</time>
      </trkpt>
      <trkpt lat="44.83264" lon="5.43805">
        <ele>1623.8</ele>
        <time>2021-10-08T14:00:16Z</time>
      </trkpt>
      <trkpt lat="44.83264" lon="5.43807">
        <ele>1623.2</ele>
        <time>2021-10-08T14:00:17Z</time>
      </trkpt>
      <trkpt lat="44.83263" lon="5.43809">
        <ele>1623.6</ele>
        <time>2021-10-08T14:00:18Z</time>
      </trkpt>
      <trkpt lat="44.83263" lon="5.43811">
        <ele>1623.6</ele>
        <time>2021-10-08T14:00:19Z</time>
      </trkpt>
      <trkpt lat="44.83263" lon="5.43813">
        <ele>1623.6</ele>
        <time>2021-10-08T14:00:20Z</time>
      </trkpt>
      <trkpt lat="44.83263" lon="5.43815">
        <ele>1623.2</ele>
        <time>2021-10-08T14:00:21Z</time>
      </trkpt>
      <trkpt lat="44.83262" lon="5.43817">
        <ele>1623.2</ele>
        <time>2021-10-08T14:00:22Z</time>
      </trkpt>
      <trkpt lat="44.83262" lon="5.43819">
        <ele>1623.2</ele>
        <time>2021-10-08T14:00:23Z</time>
      </trkpt>
      <trkpt lat="44.83262" lon="5.43821">
        <ele>1623.2</ele>
        <time>2021-10-08T14:00:24Z</time>
      </trkpt>
      <trkpt lat="44.83262" lon="5.43823">
        <ele>1623.2</ele>
        <time>2021-10-08T14:00:25Z</time>
      </trkpt>
      <trkpt lat="44.83261" lon="5.43825">
        <ele>1624.2</ele>
        <time>2021-10-08T14:00:26Z</time>
      </trkpt>
      <trkpt lat="44.83261" lon="5.43827">
        <ele>1624.2</ele>
        <time>2021-10-08T14:00:27Z</time>
      </trkpt>
      <trkpt lat="44.83261" lon="5.43829">
        <ele>1624.2</ele>
        <time>2021-10-08T14:00:28Z</time>
      </trkpt>
      <trkpt lat="44.8326" lon="5.4383">
        <ele>1625</ele>
        <time>2021-10-08T14:00:29Z</time>
      </trkpt>
      <trkpt lat="44.8326" lon="5.43832">
        <ele>1625</ele>
        <time>2021-10-08T14:00:30Z</time>
      </trkpt>
      <trkpt lat="44.8326" lon="5.43835">
        <ele>1625</ele>
        <time>2021-10-08T14:00:31Z</time>
      </trkpt>
      <trkpt lat="44.83259" lon="5.43837">
        <ele>1625</ele>
        <time>2021-10-08T14:00:32Z</time>
      </trkpt>
      <trkpt lat="44.83259" lon="5.43839">
        <ele>1625</ele>
        <time>2021-10-08T14:00:33Z</time>
      </trkpt>
      <trkpt lat="44.83258" lon="5.43841">
        <ele>1625</ele>
        <time>2021-10-08T14:00:34Z</time>
      </trkpt>
      <trkpt lat="44.83258" lon="5.43843">
        <ele>1625</ele>
        <time>2021-10-08T14:00:35Z</time>
      </trkpt>
      <trkpt lat="44.83259" lon="5.43846">
        <ele>1625</ele>
        <time>2021-10-08T14:00:36Z</time>
      </trkpt>
      <trkpt lat="44.8326" lon="5.43848">
        <ele>1625</ele>
        <time>2021-10-08T14:00:37Z</time>
      </trkpt>
      <trkpt lat="44.8326" lon="5.43849">
        <ele>1625.6</ele>
        <time>2021-10-08T14:00:38Z</time>
      </trkpt>
      <trkpt lat="44.83261" lon="5.43851">
        <ele>1625.6</ele>
        <time>2021-10-08T14:00:39Z</time>
      </trkpt>
      <trkpt lat="44.83261" lon="5.43853">
        <ele>1625.6</ele>
        <time>2021-10-08T14:00:40Z</time>
      </trkpt>
      <trkpt lat="44.83261" lon="5.43854">
        <ele>1625.6</ele>
        <time>2021-10-08T14:00:41Z</time>
      </trkpt>
      <trkpt lat="44.83261" lon="5.43856">
        <ele>1625.6</ele>
        <time>2021-10-08T14:00:42Z</time>
      </trkpt>
      <trkpt lat="44.83261" lon="5.43857">
        <ele>1625.6</ele>
        <time>2021-10-08T14:00:43Z</time>
      </trkpt>
      <trkpt lat="44.8326" lon="5.43858">
        <ele>1625.6</ele>
        <time>2021-10-08T14:00:44Z</time>
      </trkpt>
      <trkpt lat="44.8326" lon="5.43858">
        <ele>1626</ele>
        <time>2021-10-08T14:00:45Z</time>
      </trkpt>
      <trkpt lat="44.8326" lon="5.43859">
        <ele>1626</ele>
        <time>2021-10-08T14:00:46Z</time>
      </trkpt>
      <trkpt lat="44.83259" lon="5.43859">
        <ele>1626</ele>
        <time>2021-10-08T14:00:47Z</time>
      </trkpt>
      <trkpt lat="44.83258" lon="5.43859">
        <ele>1626</ele>
        <time>2021-10-08T14:00:48Z</time>
      </trkpt>
      <trkpt lat="44.83257" lon="5.43859">
        <ele>1626</ele>
        <time>2021-10-08T14:00:49Z</time>
      </trkpt>
      <trkpt lat="44.83257" lon="5.43859">
        <ele>1626.2</ele>
        <time>2021-10-08T14:00:50Z</time>
      </trkpt>
      <trkpt lat="44.83255" lon="5.43865">
        <ele>1625.4</ele>
        <time>2021-10-08T14:01:50Z</time>
      </trkpt>
      <trkpt lat="44.83254" lon="5.43867">
        <ele>1625.4</ele>
        <time>2021-10-08T14:01:51Z</time>
      </trkpt>
      <trkpt lat="44.83254" lon="5.43869">
        <ele>1625.4</ele>
        <time>2021-10-08T14:01:52Z</time>
      </trkpt>
      <trkpt lat="44.83253" lon="5.43871">
        <ele>1625.2</ele>
        <time>2021-10-08T14:01:53Z</time>
      </trkpt>
      <trkpt lat="44.83252" lon="5.43873">
        <ele>1625</ele>
        <time>2021-10-08T14:01:54Z</time>
      </trkpt>
      <trkpt lat="44.83252" lon="5.43875">
        <ele>1625</ele>
        <time>2021-10-08T14:01:55Z</time>
      </trkpt>
      <trkpt lat="44.83251" lon="5.43877">
        <ele>1625</ele>
        <time>2021-10-08T14:01:56Z</time>
      </trkpt>
      <trkpt lat="44.8325" lon="5.43879">
        <ele>1625.6</ele>
        <time>2021-10-08T14:01:57Z</time>
      </trkpt>
      <trkpt lat="44.8325" lon="5.43881">
        <ele>1626.2</ele>
        <time>2021-10-08T14:01:58Z</time>
      </trkpt>
      <trkpt lat="44.83249" lon="5.43882">
        <ele>1626.2</ele>
        <time>2021-10-08T14:01:59Z</time>
      </trkpt>
      <trkpt lat="44.83249" lon="5.43884">
        <ele>1626.2</ele>
        <time>2021-10-08T14:02:00Z</time>
      </trkpt>
      <trkpt lat="44.83249" lon="5.43885">
        <ele>1625.4</ele>
        <time>2021-10-08T14:02:01Z</time>
      </trkpt>
      <trkpt lat="44.83248" lon="5.43885">
        <ele>1626.2</ele>
        <time>2021-10-08T14:02:02Z</time>
      </trkpt>
      <trkpt lat="44.83247" lon="5.43886">
        <ele>1626.2</ele>
        <time>2021-10-08T14:02:03Z</time>
      </trkpt>
      <trkpt lat="44.83247" lon="5.43887">
        <ele>1626.2</ele>
        <time>2021-10-08T14:02:04Z</time>
      </trkpt>
      <trkpt lat="44.83246" lon="5.43888">
        <ele>1626.8</ele>
        <time>2021-10-08T14:02:05Z</time>
      </trkpt>
      <trkpt lat="44.83246" lon="5.4389">
        <ele>1627.4</ele>
        <time>2021-10-08T14:02:06Z</time>
      </trkpt>
      <trkpt lat="44.83246" lon="5.43891">
        <ele>1627.4</ele>
        <time>2021-10-08T14:02:07Z</time>
      </trkpt>
      <trkpt lat="44.83245" lon="5.43892">
        <ele>1627.4</ele>
        <time>2021-10-08T14:02:08Z</time>
      </trkpt>
      <trkpt lat="44.83245" lon="5.43893">
        <ele>1627.4</ele>
        <time>2021-10-08T14:02:09Z</time>
      </trkpt>
      <trkpt lat="44.83245" lon="5.43894">
        <ele>1627.4</ele>
        <time>2021-10-08T14:02:10Z</time>
      </trkpt>
      <trkpt lat="44.83245" lon="5.43895">
        <ele>1628.2</ele>
        <time>2021-10-08T14:02:11Z</time>
      </trkpt>
      <trkpt lat="44.83245" lon="5.43897">
        <ele>1628.2</ele>
        <time>2021-10-08T14:02:12Z</time>
      </trkpt>
      <trkpt lat="44.83245" lon="5.43898">
        <ele>1628.2</ele>
        <time>2021-10-08T14:02:13Z</time>
      </trkpt>
      <trkpt lat="44.83245" lon="5.439">
        <ele>1629.4</ele>
        <time>2021-10-08T14:02:14Z</time>
      </trkpt>
      <trkpt lat="44.83245" lon="5.43901">
        <ele>1629.4</ele>
        <time>2021-10-08T14:02:15Z</time>
      </trkpt>
      <trkpt lat="44.83245" lon="5.43902">
        <ele>1629.4</ele>
        <time>2021-10-08T14:02:16Z</time>
      </trkpt>
      <trkpt lat="44.83244" lon="5.43903">
        <ele>1629.2</ele>
        <time>2021-10-08T14:02:17Z</time>
      </trkpt>
      <trkpt lat="44.83244" lon="5.43904">
        <ele>1629.2</ele>
        <time>2021-10-08T14:02:18Z</time>
      </trkpt>
      <trkpt lat="44.83244" lon="5.43906">
        <ele>1629.2</ele>
        <time>2021-10-08T14:02:19Z</time>
      </trkpt>
      <trkpt lat="44.83244" lon="5.43907">
        <ele>1629.2</ele>
        <time>2021-10-08T14:02:20Z</time>
      </trkpt>
      <trkpt lat="44.83244" lon="5.43908">
        <ele>1629.8</ele>
        <time>2021-10-08T14:02:21Z</time>
      </trkpt>
      <trkpt lat="44.83244" lon="5.4391">
        <ele>1629.8</ele>
        <time>2021-10-08T14:02:22Z</time>
      </trkpt>
      <trkpt lat="44.83243" lon="5.43911">
        <ele>1629.8</ele>
        <time>2021-10-08T14:02:23Z</time>
      </trkpt>
      <trkpt lat="44.83243" lon="5.43912">
        <ele>1629.8</ele>
        <time>2021-10-08T14:02:24Z</time>
      </trkpt>
      <trkpt lat="44.83242" lon="5.43913">
        <ele>1630.8</ele>
        <time>2021-10-08T14:02:25Z</time>
      </trkpt>
      <trkpt lat="44.83242" lon="5.43914">
        <ele>1630.6</ele>
        <time>2021-10-08T14:02:26Z</time>
      </trkpt>
      <trkpt lat="44.83241" lon="5.43916">
        <ele>1630.6</ele>
        <time>2021-10-08T14:02:27Z</time>
      </trkpt>
      <trkpt lat="44.83241" lon="5.43917">
        <ele>1630.6</ele>
        <time>2021-10-08T14:02:28Z</time>
      </trkpt>
      <trkpt lat="44.83241" lon="5.43918">
        <ele>1631</ele>
        <time>2021-10-08T14:02:29Z</time>
      </trkpt>
      <trkpt lat="44.8324" lon="5.43919">
        <ele>1631.6</ele>
        <time>2021-10-08T14:02:30Z</time>
      </trkpt>
      <trkpt lat="44.8324" lon="5.4392">
        <ele>1631.6</ele>
        <time>2021-10-08T14:02:31Z</time>
      </trkpt>
      <trkpt lat="44.83239" lon="5.43921">
        <ele>1631.6</ele>
        <time>2021-10-08T14:02:32Z</time>
      </trkpt>
      <trkpt lat="44.83239" lon="5.43922">
        <ele>1631.8</ele>
        <time>2021-10-08T14:02:33Z</time>
      </trkpt>
      <trkpt lat="44.83238" lon="5.43923">
        <ele>1632.2</ele>
        <time>2021-10-08T14:02:34Z</time>
      </trkpt>
      <trkpt lat="44.83238" lon="5.43925">
        <ele>1632.2</ele>
        <time>2021-10-08T14:02:35Z</time>
      </trkpt>
      <trkpt lat="44.83238" lon="5.43926">
        <ele>1632.2</ele>
        <time>2021-10-08T14:02:36Z</time>
      </trkpt>
      <trkpt lat="44.83237" lon="5.43928">
        <ele>1632.2</ele>
        <time>2021-10-08T14:02:37Z</time>
      </trkpt>
      <trkpt lat="44.83237" lon="5.4393">
        <ele>1632</ele>
        <time>2021-10-08T14:02:38Z</time>
      </trkpt>
      <trkpt lat="44.83237" lon="5.43931">
        <ele>1632</ele>
        <time>2021-10-08T14:02:39Z</time>
      </trkpt>
      <trkpt lat="44.83236" lon="5.43932">
        <ele>1632</ele>
        <time>2021-10-08T14:02:40Z</time>
      </trkpt>
      <trkpt lat="44.83236" lon="5.43933">
        <ele>1632.8</ele>
        <time>2021-10-08T14:02:41Z</time>
      </trkpt>
      <trkpt lat="44.83235" lon="5.43935">
        <ele>1633</ele>
        <time>2021-10-08T14:02:42Z</time>
      </trkpt>
      <trkpt lat="44.83235" lon="5.43936">
        <ele>1633</ele>
        <time>2021-10-08T14:02:43Z</time>
      </trkpt>
      <trkpt lat="44.83235" lon="5.43937">
        <ele>1633</ele>
        <time>2021-10-08T14:02:44Z</time>
      </trkpt>
      <trkpt lat="44.83235" lon="5.43939">
        <ele>1633.2</ele>
        <time>2021-10-08T14:02:45Z</time>
      </trkpt>
      <trkpt lat="44.83234" lon="5.4394">
        <ele>1634</ele>
        <time>2021-10-08T14:02:46Z</time>
      </trkpt>
      <trkpt lat="44.83234" lon="5.43942">
        <ele>1634</ele>
        <time>2021-10-08T14:02:47Z</time>
      </trkpt>
      <trkpt lat="44.83234" lon="5.43943">
        <ele>1634</ele>
        <time>2021-10-08T14:02:48Z</time>
      </trkpt>
      <trkpt lat="44.83233" lon="5.43944">
        <ele>1634</ele>
        <time>2021-10-08T14:02:49Z</time>
      </trkpt>
      <trkpt lat="44.83233" lon="5.43946">
        <ele>1634.6</ele>
        <time>2021-10-08T14:02:50Z</time>
      </trkpt>
      <trkpt lat="44.83232" lon="5.43947">
        <ele>1634.6</ele>
        <time>2021-10-08T14:02:51Z</time>
      </trkpt>
      <trkpt lat="44.83232" lon="5.43949">
        <ele>1634.6</ele>
        <time>2021-10-08T14:02:52Z</time>
      </trkpt>
      <trkpt lat="44.83231" lon="5.4395">
        <ele>1634.6</ele>
        <time>2021-10-08T14:02:53Z</time>
      </trkpt>
      <trkpt lat="44.83231" lon="5.43951">
        <ele>1634.4</ele>
        <time>2021-10-08T14:02:54Z</time>
      </trkpt>
      <trkpt lat="44.83231" lon="5.43953">
        <ele>1634.4</ele>
        <time>2021-10-08T14:02:55Z</time>
      </trkpt>
      <trkpt lat="44.8323" lon="5.43954">
        <ele>1634.4</ele>
        <time>2021-10-08T14:02:56Z</time>
      </trkpt>
      <trkpt lat="44.8323" lon="5.43956">
        <ele>1634.4</ele>
        <time>2021-10-08T14:02:57Z</time>
      </trkpt>
      <trkpt lat="44.83229" lon="5.43957">
        <ele>1634.8</ele>
        <time>2021-10-08T14:02:58Z</time>
      </trkpt>
      <trkpt lat="44.83229" lon="5.43959">
        <ele>1634.8</ele>
        <time>2021-10-08T14:02:59Z</time>
      </trkpt>
      <trkpt lat="44.83228" lon="5.4396">
        <ele>1634.8</ele>
        <time>2021-10-08T14:03:00Z</time>
      </trkpt>
      <trkpt lat="44.83228" lon="5.43962">
        <ele>1634.8</ele>
        <time>2021-10-08T14:03:01Z</time>
      </trkpt>
      <trkpt lat="44.83228" lon="5.43964">
        <ele>1634.8</ele>
        <time>2021-10-08T14:03:02Z</time>
      </trkpt>
      <trkpt lat="44.83227" lon="5.43966">
        <ele>1634.8</ele>
        <time>2021-10-08T14:03:03Z</time>
      </trkpt>
      <trkpt lat="44.83227" lon="5.43967">
        <ele>1634.8</ele>
        <time>2021-10-08T14:03:04Z</time>
      </trkpt>
      <trkpt lat="44.83227" lon="5.43969">
        <ele>1634.8</ele>
        <time>2021-10-08T14:03:05Z</time>
      </trkpt>
      <trkpt lat="44.83227" lon="5.4397">
        <ele>1635.2</ele>
        <time>2021-10-08T14:03:06Z</time>
      </trkpt>
      <trkpt lat="44.83227" lon="5.43972">
        <ele>1635.2</ele>
        <time>2021-10-08T14:03:07Z</time>
      </trkpt>
      <trkpt lat="44.83227" lon="5.43974">
        <ele>1635.2</ele>
        <time>2021-10-08T14:03:08Z</time>
      </trkpt>
      <trkpt lat="44.83227" lon="5.43976">
        <ele>1635</ele>
        <time>2021-10-08T14:03:09Z</time>
      </trkpt>
      <trkpt lat="44.83227" lon="5.43978">
        <ele>1634.6</ele>
        <time>2021-10-08T14:03:10Z</time>
      </trkpt>
      <trkpt lat="44.83227" lon="5.43979">
        <ele>1634.6</ele>
        <time>2021-10-08T14:03:11Z</time>
      </trkpt>
      <trkpt lat="44.83226" lon="5.4398">
        <ele>1634.6</ele>
        <time>2021-10-08T14:03:12Z</time>
      </trkpt>
      <trkpt lat="44.83226" lon="5.43982">
        <ele>1635</ele>
        <time>2021-10-08T14:03:13Z</time>
      </trkpt>
      <trkpt lat="44.83225" lon="5.43984">
        <ele>1635.2</ele>
        <time>2021-10-08T14:03:14Z</time>
      </trkpt>
      <trkpt lat="44.83225" lon="5.43985">
        <ele>1635.2</ele>
        <time>2021-10-08T14:03:15Z</time>
      </trkpt>
      <trkpt lat="44.83226" lon="5.43987">
        <ele>1635.2</ele>
        <time>2021-10-08T14:03:16Z</time>
      </trkpt>
      <trkpt lat="44.83227" lon="5.43989">
        <ele>1635.2</ele>
        <time>2021-10-08T14:03:17Z</time>
      </trkpt>
      <trkpt lat="44.83227" lon="5.43991">
        <ele>1634.6</ele>
        <time>2021-10-08T14:03:18Z</time>
      </trkpt>
      <trkpt lat="44.83227" lon="5.43994">
        <ele>1634.6</ele>
        <time>2021-10-08T14:03:19Z</time>
      </trkpt>
      <trkpt lat="44.83227" lon="5.43996">
        <ele>1634.6</ele>
        <time>2021-10-08T14:03:20Z</time>
      </trkpt>
      <trkpt lat="44.83227" lon="5.43999">
        <ele>1635.6</ele>
        <time>2021-10-08T14:03:21Z</time>
      </trkpt>
      <trkpt lat="44.83227" lon="5.44002">
        <ele>1635.6</ele>
        <time>2021-10-08T14:03:22Z</time>
      </trkpt>
      <trkpt lat="44.83227" lon="5.44005">
        <ele>1635.6</ele>
        <time>2021-10-08T14:03:23Z</time>
      </trkpt>
      <trkpt lat="44.83228" lon="5.44007">
        <ele>1635.6</ele>
        <time>2021-10-08T14:03:24Z</time>
      </trkpt>
      <trkpt lat="44.83228" lon="5.4401">
        <ele>1635.6</ele>
        <time>2021-10-08T14:03:25Z</time>
      </trkpt>
      <trkpt lat="44.83228" lon="5.44012">
        <ele>1635.6</ele>
        <time>2021-10-08T14:03:26Z</time>
      </trkpt>
      <trkpt lat="44.83228" lon="5.44015">
        <ele>1635.6</ele>
        <time>2021-10-08T14:03:27Z</time>
      </trkpt>
      <trkpt lat="44.83228" lon="5.44018">
        <ele>1635.6</ele>
        <time>2021-10-08T14:03:28Z</time>
      </trkpt>
      <trkpt lat="44.83228" lon="5.4402">
        <ele>1635.6</ele>
        <time>2021-10-08T14:03:29Z</time>
      </trkpt>
      <trkpt lat="44.83228" lon="5.44023">
        <ele>1635.6</ele>
        <time>2021-10-08T14:03:30Z</time>
      </trkpt>
      <trkpt lat="44.83229" lon="5.44025">
        <ele>1635.6</ele>
        <time>2021-10-08T14:03:31Z</time>
      </trkpt>
      <trkpt lat="44.83229" lon="5.44028">
        <ele>1635.6</ele>
        <time>2021-10-08T14:03:32Z</time>
      </trkpt>
      <trkpt lat="44.83229" lon="5.4403">
        <ele>1636.4</ele>
        <time>2021-10-08T14:03:33Z</time>
      </trkpt>
      <trkpt lat="44.83229" lon="5.44033">
        <ele>1637</ele>
        <time>2021-10-08T14:03:34Z</time>
      </trkpt>
      <trkpt lat="44.83229" lon="5.44035">
        <ele>1637</ele>
        <time>2021-10-08T14:03:35Z</time>
      </trkpt>
      <trkpt lat="44.83229" lon="5.44037">
        <ele>1637</ele>
        <time>2021-10-08T14:03:36Z</time>
      </trkpt>
      <trkpt lat="44.83229" lon="5.44039">
        <ele>1637</ele>
        <time>2021-10-08T14:03:37Z</time>
      </trkpt>
      <trkpt lat="44.83229" lon="5.44041">
        <ele>1637</ele>
        <time>2021-10-08T14:03:38Z</time>
      </trkpt>
      <trkpt lat="44.83229" lon="5.44043">
        <ele>1637</ele>
        <time>2021-10-08T14:03:39Z</time>
      </trkpt>
      <trkpt lat="44.83229" lon="5.44046">
        <ele>1637</ele>
        <time>2021-10-08T14:03:40Z</time>
      </trkpt>
      <trkpt lat="44.83229" lon="5.44049">
        <ele>1637</ele>
        <time>2021-10-08T14:03:41Z</time>
      </trkpt>
      <trkpt lat="44.83229" lon="5.44052">
        <ele>1637</ele>
        <time>2021-10-08T14:03:42Z</time>
      </trkpt>
      <trkpt lat="44.83228" lon="5.44055">
        <ele>1637</ele>
        <time>2021-10-08T14:03:43Z</time>
      </trkpt>
      <trkpt lat="44.83229" lon="5.44058">
        <ele>1635.8</ele>
        <time>2021-10-08T14:03:44Z</time>
      </trkpt>
      <trkpt lat="44.83229" lon="5.44059">
        <ele>1636</ele>
        <time>2021-10-08T14:03:45Z</time>
      </trkpt>
      <trkpt lat="44.83229" lon="5.4406">
        <ele>1636.2</ele>
        <time>2021-10-08T14:03:46Z</time>
      </trkpt>
      <trkpt lat="44.83229" lon="5.44061">
        <ele>1636.2</ele>
        <time>2021-10-08T14:03:47Z</time>
      </trkpt>
      <trkpt lat="44.8323" lon="5.44061">
        <ele>1636.2</ele>
        <time>2021-10-08T14:03:48Z</time>
      </trkpt>
      <trkpt lat="44.83229" lon="5.44062">
        <ele>1635.4</ele>
        <time>2021-10-08T14:04:22Z</time>
      </trkpt>
      <trkpt lat="44.83229" lon="5.44064">
        <ele>1635.4</ele>
        <time>2021-10-08T14:04:23Z</time>
      </trkpt>
      <trkpt lat="44.83228" lon="5.44066">
        <ele>1635.4</ele>
        <time>2021-10-08T14:04:24Z</time>
      </trkpt>
      <trkpt lat="44.83227" lon="5.44068">
        <ele>1635.6</ele>
        <time>2021-10-08T14:04:25Z</time>
      </trkpt>
      <trkpt lat="44.83226" lon="5.44071">
        <ele>1635.6</ele>
        <time>2021-10-08T14:04:26Z</time>
      </trkpt>
      <trkpt lat="44.83225" lon="5.44074">
        <ele>1635.6</ele>
        <time>2021-10-08T14:04:27Z</time>
      </trkpt>
      <trkpt lat="44.83225" lon="5.44078">
        <ele>1635.6</ele>
        <time>2021-10-08T14:04:28Z</time>
      </trkpt>
      <trkpt lat="44.83224" lon="5.44082">
        <ele>1634.6</ele>
        <time>2021-10-08T14:04:29Z</time>
      </trkpt>
      <trkpt lat="44.83223" lon="5.44086">
        <ele>1634.2</ele>
        <time>2021-10-08T14:04:30Z</time>
      </trkpt>
      <trkpt lat="44.83223" lon="5.4409">
        <ele>1634.2</ele>
        <time>2021-10-08T14:04:31Z</time>
      </trkpt>
      <trkpt lat="44.83223" lon="5.44094">
        <ele>1634.2</ele>
        <time>2021-10-08T14:04:32Z</time>
      </trkpt>
      <trkpt lat="44.83223" lon="5.44097">
        <ele>1634</ele>
        <time>2021-10-08T14:04:33Z</time>
      </trkpt>
      <trkpt lat="44.83223" lon="5.441">
        <ele>1634</ele>
        <time>2021-10-08T14:04:34Z</time>
      </trkpt>
      <trkpt lat="44.83223" lon="5.44103">
        <ele>1634</ele>
        <time>2021-10-08T14:04:35Z</time>
      </trkpt>
      <trkpt lat="44.83223" lon="5.44106">
        <ele>1634</ele>
        <time>2021-10-08T14:04:36Z</time>
      </trkpt>
      <trkpt lat="44.83223" lon="5.44109">
        <ele>1634</ele>
        <time>2021-10-08T14:04:37Z</time>
      </trkpt>
      <trkpt lat="44.83223" lon="5.44113">
        <ele>1631.2</ele>
        <time>2021-10-08T14:04:38Z</time>
      </trkpt>
      <trkpt lat="44.83224" lon="5.44116">
        <ele>1631.2</ele>
        <time>2021-10-08T14:04:39Z</time>
      </trkpt>
      <trkpt lat="44.83225" lon="5.44119">
        <ele>1631.2</ele>
        <time>2021-10-08T14:04:40Z</time>
      </trkpt>
      <trkpt lat="44.83226" lon="5.44122">
        <ele>1631.4</ele>
        <time>2021-10-08T14:04:41Z</time>
      </trkpt>
      <trkpt lat="44.83226" lon="5.44125">
        <ele>1631.2</ele>
        <time>2021-10-08T14:04:42Z</time>
      </trkpt>
      <trkpt lat="44.83226" lon="5.44128">
        <ele>1631.2</ele>
        <time>2021-10-08T14:04:43Z</time>
      </trkpt>
      <trkpt lat="44.83227" lon="5.4413">
        <ele>1631.2</ele>
        <time>2021-10-08T14:04:44Z</time>
      </trkpt>
      <trkpt lat="44.83226" lon="5.44132">
        <ele>1630.2</ele>
        <time>2021-10-08T14:04:45Z</time>
      </trkpt>
      <trkpt lat="44.83226" lon="5.44135">
        <ele>1629.6</ele>
        <time>2021-10-08T14:04:46Z</time>
      </trkpt>
      <trkpt lat="44.83225" lon="5.44138">
        <ele>1629.6</ele>
        <time>2021-10-08T14:04:47Z</time>
      </trkpt>
      <trkpt lat="44.83225" lon="5.4414">
        <ele>1629.6</ele>
        <time>2021-10-08T14:04:48Z</time>
      </trkpt>
      <trkpt lat="44.83226" lon="5.44143">
        <ele>1628.6</ele>
        <time>2021-10-08T14:04:49Z</time>
      </trkpt>
      <trkpt lat="44.83226" lon="5.44146">
        <ele>1627.4</ele>
        <time>2021-10-08T14:04:50Z</time>
      </trkpt>
      <trkpt lat="44.83226" lon="5.44149">
        <ele>1627.4</ele>
        <time>2021-10-08T14:04:51Z</time>
      </trkpt>
      <trkpt lat="44.83225" lon="5.44152">
        <ele>1627.4</ele>
        <time>2021-10-08T14:04:52Z</time>
      </trkpt>
      <trkpt lat="44.83224" lon="5.44155">
        <ele>1626.4</ele>
        <time>2021-10-08T14:04:53Z</time>
      </trkpt>
      <trkpt lat="44.83223" lon="5.44158">
        <ele>1624.8</ele>
        <time>2021-10-08T14:04:54Z</time>
      </trkpt>
      <trkpt lat="44.83222" lon="5.44161">
        <ele>1624.8</ele>
        <time>2021-10-08T14:04:55Z</time>
      </trkpt>
      <trkpt lat="44.83221" lon="5.44163">
        <ele>1624.8</ele>
        <time>2021-10-08T14:04:56Z</time>
      </trkpt>
      <trkpt lat="44.8322" lon="5.44165">
        <ele>1624.8</ele>
        <time>2021-10-08T14:04:57Z</time>
      </trkpt>
      <trkpt lat="44.83219" lon="5.44166">
        <ele>1623.4</ele>
        <time>2021-10-08T14:04:58Z</time>
      </trkpt>
      <trkpt lat="44.83218" lon="5.44169">
        <ele>1623.4</ele>
        <time>2021-10-08T14:04:59Z</time>
      </trkpt>
      <trkpt lat="44.83217" lon="5.44171">
        <ele>1623.4</ele>
        <time>2021-10-08T14:05:00Z</time>
      </trkpt>
      <trkpt lat="44.83216" lon="5.44173">
        <ele>1623.4</ele>
        <time>2021-10-08T14:05:01Z</time>
      </trkpt>
      <trkpt lat="44.83215" lon="5.44176">
        <ele>1623</ele>
        <time>2021-10-08T14:05:02Z</time>
      </trkpt>
      <trkpt lat="44.83214" lon="5.44178">
        <ele>1623</ele>
        <time>2021-10-08T14:05:03Z</time>
      </trkpt>
      <trkpt lat="44.83214" lon="5.4418">
        <ele>1623</ele>
        <time>2021-10-08T14:05:04Z</time>
      </trkpt>
      <trkpt lat="44.83213" lon="5.44183">
        <ele>1622</ele>
        <time>2021-10-08T14:05:05Z</time>
      </trkpt>
      <trkpt lat="44.83212" lon="5.44186">
        <ele>1619.6</ele>
        <time>2021-10-08T14:05:06Z</time>
      </trkpt>
      <trkpt lat="44.8321" lon="5.44191">
        <ele>1619.6</ele>
        <time>2021-10-08T14:05:07Z</time>
      </trkpt>
      <trkpt lat="44.83208" lon="5.44195">
        <ele>1619.6</ele>
        <time>2021-10-08T14:05:08Z</time>
      </trkpt>
      <trkpt lat="44.83206" lon="5.442">
        <ele>1619.6</ele>
        <time>2021-10-08T14:05:09Z</time>
      </trkpt>
      <trkpt lat="44.83204" lon="5.44205">
        <ele>1618.8</ele>
        <time>2021-10-08T14:05:10Z</time>
      </trkpt>
      <trkpt lat="44.83203" lon="5.4421">
        <ele>1618.8</ele>
        <time>2021-10-08T14:05:11Z</time>
      </trkpt>
      <trkpt lat="44.83201" lon="5.44215">
        <ele>1618.8</ele>
        <time>2021-10-08T14:05:12Z</time>
      </trkpt>
      <trkpt lat="44.832" lon="5.44219">
        <ele>1618.8</ele>
        <time>2021-10-08T14:05:13Z</time>
      </trkpt>
      <trkpt lat="44.83199" lon="5.44223">
        <ele>1619.6</ele>
        <time>2021-10-08T14:05:14Z</time>
      </trkpt>
      <trkpt lat="44.83198" lon="5.44226">
        <ele>1619.6</ele>
        <time>2021-10-08T14:05:15Z</time>
      </trkpt>
      <trkpt lat="44.83197" lon="5.44229">
        <ele>1619.6</ele>
        <time>2021-10-08T14:05:16Z</time>
      </trkpt>
      <trkpt lat="44.83197" lon="5.44232">
        <ele>1619.6</ele>
        <time>2021-10-08T14:05:17Z</time>
      </trkpt>
      <trkpt lat="44.83196" lon="5.44235">
        <ele>1620</ele>
        <time>2021-10-08T14:05:18Z</time>
      </trkpt>
      <trkpt lat="44.83195" lon="5.44238">
        <ele>1620</ele>
        <time>2021-10-08T14:05:19Z</time>
      </trkpt>
      <trkpt lat="44.83195" lon="5.44241">
        <ele>1620</ele>
        <time>2021-10-08T14:05:20Z</time>
      </trkpt>
      <trkpt lat="44.83194" lon="5.44244">
        <ele>1619</ele>
        <time>2021-10-08T14:05:21Z</time>
      </trkpt>
      <trkpt lat="44.83193" lon="5.44247">
        <ele>1620</ele>
        <time>2021-10-08T14:05:22Z</time>
      </trkpt>
      <trkpt lat="44.83192" lon="5.4425">
        <ele>1620</ele>
        <time>2021-10-08T14:05:23Z</time>
      </trkpt>
      <trkpt lat="44.83192" lon="5.44254">
        <ele>1620</ele>
        <time>2021-10-08T14:05:24Z</time>
      </trkpt>
      <trkpt lat="44.83191" lon="5.44257">
        <ele>1620.2</ele>
        <time>2021-10-08T14:05:25Z</time>
      </trkpt>
      <trkpt lat="44.83191" lon="5.4426">
        <ele>1621.4</ele>
        <time>2021-10-08T14:05:26Z</time>
      </trkpt>
      <trkpt lat="44.8319" lon="5.44262">
        <ele>1621.4</ele>
        <time>2021-10-08T14:05:27Z</time>
      </trkpt>
      <trkpt lat="44.8319" lon="5.44264">
        <ele>1621.4</ele>
        <time>2021-10-08T14:05:28Z</time>
      </trkpt>
      <trkpt lat="44.83189" lon="5.44266">
        <ele>1621.8</ele>
        <time>2021-10-08T14:05:29Z</time>
      </trkpt>
      <trkpt lat="44.83188" lon="5.44268">
        <ele>1621.6</ele>
        <time>2021-10-08T14:05:30Z</time>
      </trkpt>
      <trkpt lat="44.83187" lon="5.4427">
        <ele>1621.6</ele>
        <time>2021-10-08T14:05:31Z</time>
      </trkpt>
      <trkpt lat="44.83187" lon="5.44272">
        <ele>1621.6</ele>
        <time>2021-10-08T14:05:32Z</time>
      </trkpt>
      <trkpt lat="44.83186" lon="5.44274">
        <ele>1621.6</ele>
        <time>2021-10-08T14:05:33Z</time>
      </trkpt>
      <trkpt lat="44.83186" lon="5.44276">
        <ele>1621.8</ele>
        <time>2021-10-08T14:05:34Z</time>
      </trkpt>
      <trkpt lat="44.83186" lon="5.44278">
        <ele>1621.8</ele>
        <time>2021-10-08T14:05:35Z</time>
      </trkpt>
      <trkpt lat="44.83186" lon="5.44281">
        <ele>1621.8</ele>
        <time>2021-10-08T14:05:36Z</time>
      </trkpt>
      <trkpt lat="44.83186" lon="5.44283">
        <ele>1622.2</ele>
        <time>2021-10-08T14:05:37Z</time>
      </trkpt>
      <trkpt lat="44.83186" lon="5.44286">
        <ele>1622.6</ele>
        <time>2021-10-08T14:05:38Z</time>
      </trkpt>
      <trkpt lat="44.83186" lon="5.44288">
        <ele>1622.6</ele>
        <time>2021-10-08T14:05:39Z</time>
      </trkpt>
      <trkpt lat="44.83186" lon="5.44291">
        <ele>1622.6</ele>
        <time>2021-10-08T14:05:40Z</time>
      </trkpt>
      <trkpt lat="44.83186" lon="5.44293">
        <ele>1623.2</ele>
        <time>2021-10-08T14:05:41Z</time>
      </trkpt>
      <trkpt lat="44.83186" lon="5.44295">
        <ele>1623.4</ele>
        <time>2021-10-08T14:05:42Z</time>
      </trkpt>
      <trkpt lat="44.83186" lon="5.44297">
        <ele>1623.4</ele>
        <time>2021-10-08T14:05:43Z</time>
      </trkpt>
      <trkpt lat="44.83185" lon="5.44299">
        <ele>1623.4</ele>
        <time>2021-10-08T14:05:44Z</time>
      </trkpt>
      <trkpt lat="44.83188" lon="5.44346">
        <ele>1627.4</ele>
        <time>2021-10-08T14:06:37Z</time>
      </trkpt>
      <trkpt lat="44.83189" lon="5.44348">
        <ele>1627.8</ele>
        <time>2021-10-08T14:06:38Z</time>
      </trkpt>
      <trkpt lat="44.83189" lon="5.4435">
        <ele>1627.8</ele>
        <time>2021-10-08T14:06:39Z</time>
      </trkpt>
      <trkpt lat="44.83189" lon="5.44353">
        <ele>1627.8</ele>
        <time>2021-10-08T14:06:40Z</time>
      </trkpt>
      <trkpt lat="44.83189" lon="5.44355">
        <ele>1627.8</ele>
        <time>2021-10-08T14:06:41Z</time>
      </trkpt>
      <trkpt lat="44.8319" lon="5.44357">
        <ele>1628.4</ele>
        <time>2021-10-08T14:06:42Z</time>
      </trkpt>
      <trkpt lat="44.8319" lon="5.4436">
        <ele>1628.4</ele>
        <time>2021-10-08T14:06:43Z</time>
      </trkpt>
      <trkpt lat="44.83191" lon="5.44362">
        <ele>1628.4</ele>
        <time>2021-10-08T14:06:44Z</time>
      </trkpt>
      <trkpt lat="44.83191" lon="5.44365">
        <ele>1628.4</ele>
        <time>2021-10-08T14:06:45Z</time>
      </trkpt>
      <trkpt lat="44.83192" lon="5.44368">
        <ele>1628.8</ele>
        <time>2021-10-08T14:06:46Z</time>
      </trkpt>
      <trkpt lat="44.83193" lon="5.4437">
        <ele>1628.8</ele>
        <time>2021-10-08T14:06:47Z</time>
      </trkpt>
      <trkpt lat="44.83194" lon="5.44374">
        <ele>1628.8</ele>
        <time>2021-10-08T14:06:48Z</time>
      </trkpt>
      <trkpt lat="44.83195" lon="5.44378">
        <ele>1627.8</ele>
        <time>2021-10-08T14:06:49Z</time>
      </trkpt>
      <trkpt lat="44.83195" lon="5.44382">
        <ele>1627.8</ele>
        <time>2021-10-08T14:06:50Z</time>
      </trkpt>
      <trkpt lat="44.83196" lon="5.44386">
        <ele>1627.8</ele>
        <time>2021-10-08T14:06:51Z</time>
      </trkpt>
      <trkpt lat="44.83197" lon="5.4439">
        <ele>1627.8</ele>
        <time>2021-10-08T14:06:52Z</time>
      </trkpt>
      <trkpt lat="44.83198" lon="5.44394">
        <ele>1626.8</ele>
        <time>2021-10-08T14:06:53Z</time>
      </trkpt>
      <trkpt lat="44.83199" lon="5.44398">
        <ele>1625.8</ele>
        <time>2021-10-08T14:06:54Z</time>
      </trkpt>
      <trkpt lat="44.83199" lon="5.44402">
        <ele>1625.8</ele>
        <time>2021-10-08T14:06:55Z</time>
      </trkpt>
      <trkpt lat="44.832" lon="5.44406">
        <ele>1625.8</ele>
        <time>2021-10-08T14:06:56Z</time>
      </trkpt>
      <trkpt lat="44.83201" lon="5.44409">
        <ele>1625</ele>
        <time>2021-10-08T14:06:57Z</time>
      </trkpt>
      <trkpt lat="44.83201" lon="5.44413">
        <ele>1626</ele>
        <time>2021-10-08T14:06:58Z</time>
      </trkpt>
      <trkpt lat="44.83202" lon="5.44416">
        <ele>1626</ele>
        <time>2021-10-08T14:06:59Z</time>
      </trkpt>
      <trkpt lat="44.83203" lon="5.44419">
        <ele>1626</ele>
        <time>2021-10-08T14:07:00Z</time>
      </trkpt>
      <trkpt lat="44.83202" lon="5.44422">
        <ele>1626</ele>
        <time>2021-10-08T14:07:01Z</time>
      </trkpt>
      <trkpt lat="44.83202" lon="5.44425">
        <ele>1625.8</ele>
        <time>2021-10-08T14:07:02Z</time>
      </trkpt>
      <trkpt lat="44.83202" lon="5.44428">
        <ele>1625.8</ele>
        <time>2021-10-08T14:07:03Z</time>
      </trkpt>
      <trkpt lat="44.83202" lon="5.44432">
        <ele>1625.8</ele>
        <time>2021-10-08T14:07:04Z</time>
      </trkpt>
      <trkpt lat="44.83201" lon="5.44435">
        <ele>1625.8</ele>
        <time>2021-10-08T14:07:05Z</time>
      </trkpt>
      <trkpt lat="44.83201" lon="5.44438">
        <ele>1625.8</ele>
        <time>2021-10-08T14:07:06Z</time>
      </trkpt>
      <trkpt lat="44.83199" lon="5.44441">
        <ele>1625.8</ele>
        <time>2021-10-08T14:07:07Z</time>
      </trkpt>
      <trkpt lat="44.83199" lon="5.44444">
        <ele>1625.8</ele>
        <time>2021-10-08T14:07:08Z</time>
      </trkpt>
      <trkpt lat="44.83198" lon="5.44447">
        <ele>1624.8</ele>
        <time>2021-10-08T14:07:09Z</time>
      </trkpt>
      <trkpt lat="44.83197" lon="5.44451">
        <ele>1624.8</ele>
        <time>2021-10-08T14:07:10Z</time>
      </trkpt>
      <trkpt lat="44.83197" lon="5.44454">
        <ele>1624.8</ele>
        <time>2021-10-08T14:07:11Z</time>
      </trkpt>
      <trkpt lat="44.83197" lon="5.44457">
        <ele>1624.8</ele>
        <time>2021-10-08T14:07:12Z</time>
      </trkpt>
      <trkpt lat="44.83197" lon="5.4446">
        <ele>1624.8</ele>
        <time>2021-10-08T14:07:13Z</time>
      </trkpt>
      <trkpt lat="44.83197" lon="5.44463">
        <ele>1624.6</ele>
        <time>2021-10-08T14:07:14Z</time>
      </trkpt>
      <trkpt lat="44.83197" lon="5.44466">
        <ele>1624.6</ele>
        <time>2021-10-08T14:07:15Z</time>
      </trkpt>
      <trkpt lat="44.83197" lon="5.44469">
        <ele>1624.6</ele>
        <time>2021-10-08T14:07:16Z</time>
      </trkpt>
      <trkpt lat="44.83197" lon="5.44471">
        <ele>1624.6</ele>
        <time>2021-10-08T14:07:17Z</time>
      </trkpt>
      <trkpt lat="44.83197" lon="5.44474">
        <ele>1622</ele>
        <time>2021-10-08T14:07:18Z</time>
      </trkpt>
      <trkpt lat="44.83197" lon="5.44478">
        <ele>1622</ele>
        <time>2021-10-08T14:07:19Z</time>
      </trkpt>
      <trkpt lat="44.83198" lon="5.44482">
        <ele>1622</ele>
        <time>2021-10-08T14:07:20Z</time>
      </trkpt>
      <trkpt lat="44.83198" lon="5.44487">
        <ele>1622</ele>
        <time>2021-10-08T14:07:21Z</time>
      </trkpt>
      <trkpt lat="44.83199" lon="5.44491">
        <ele>1622.2</ele>
        <time>2021-10-08T14:07:22Z</time>
      </trkpt>
      <trkpt lat="44.83199" lon="5.44496">
        <ele>1622.2</ele>
        <time>2021-10-08T14:07:23Z</time>
      </trkpt>
      <trkpt lat="44.83199" lon="5.44501">
        <ele>1622.2</ele>
        <time>2021-10-08T14:07:24Z</time>
      </trkpt>
      <trkpt lat="44.83199" lon="5.44506">
        <ele>1621.2</ele>
        <time>2021-10-08T14:07:25Z</time>
      </trkpt>
      <trkpt lat="44.83198" lon="5.4451">
        <ele>1620.4</ele>
        <time>2021-10-08T14:07:26Z</time>
      </trkpt>
      <trkpt lat="44.83198" lon="5.44514">
        <ele>1620.4</ele>
        <time>2021-10-08T14:07:27Z</time>
      </trkpt>
      <trkpt lat="44.83197" lon="5.44517">
        <ele>1620.4</ele>
        <time>2021-10-08T14:07:28Z</time>
      </trkpt>
      <trkpt lat="44.83197" lon="5.44521">
        <ele>1619.4</ele>
        <time>2021-10-08T14:07:29Z</time>
      </trkpt>
      <trkpt lat="44.83195" lon="5.44526">
        <ele>1618</ele>
        <time>2021-10-08T14:07:30Z</time>
      </trkpt>
      <trkpt lat="44.83194" lon="5.44531">
        <ele>1618</ele>
        <time>2021-10-08T14:07:31Z</time>
      </trkpt>
      <trkpt lat="44.83192" lon="5.44536">
        <ele>1618</ele>
        <time>2021-10-08T14:07:32Z</time>
      </trkpt>
      <trkpt lat="44.8319" lon="5.44539">
        <ele>1617.6</ele>
        <time>2021-10-08T14:07:33Z</time>
      </trkpt>
      <trkpt lat="44.83189" lon="5.44541">
        <ele>1618</ele>
        <time>2021-10-08T14:07:34Z</time>
      </trkpt>
      <trkpt lat="44.83188" lon="5.44543">
        <ele>1618</ele>
        <time>2021-10-08T14:07:35Z</time>
      </trkpt>
      <trkpt lat="44.83187" lon="5.44546">
        <ele>1618</ele>
        <time>2021-10-08T14:07:36Z</time>
      </trkpt>
      <trkpt lat="44.83186" lon="5.44548">
        <ele>1617</ele>
        <time>2021-10-08T14:07:37Z</time>
      </trkpt>
      <trkpt lat="44.83185" lon="5.44551">
        <ele>1615.6</ele>
        <time>2021-10-08T14:07:38Z</time>
      </trkpt>
      <trkpt lat="44.83185" lon="5.44554">
        <ele>1615.6</ele>
        <time>2021-10-08T14:07:39Z</time>
      </trkpt>
      <trkpt lat="44.83185" lon="5.44557">
        <ele>1615.6</ele>
        <time>2021-10-08T14:07:40Z</time>
      </trkpt>
      <trkpt lat="44.83185" lon="5.4456">
        <ele>1615.6</ele>
        <time>2021-10-08T14:07:41Z</time>
      </trkpt>
      <trkpt lat="44.83186" lon="5.44564">
        <ele>1613.8</ele>
        <time>2021-10-08T14:07:42Z</time>
      </trkpt>
      <trkpt lat="44.83186" lon="5.44568">
        <ele>1613.8</ele>
        <time>2021-10-08T14:07:43Z</time>
      </trkpt>
      <trkpt lat="44.83187" lon="5.44571">
        <ele>1613.8</ele>
        <time>2021-10-08T14:07:44Z</time>
      </trkpt>
      <trkpt lat="44.83188" lon="5.44575">
        <ele>1612.8</ele>
        <time>2021-10-08T14:07:45Z</time>
      </trkpt>
      <trkpt lat="44.83188" lon="5.44579">
        <ele>1610.8</ele>
        <time>2021-10-08T14:07:46Z</time>
      </trkpt>
      <trkpt lat="44.83189" lon="5.44583">
        <ele>1610.8</ele>
        <time>2021-10-08T14:07:47Z</time>
      </trkpt>
      <trkpt lat="44.83189" lon="5.44587">
        <ele>1610.8</ele>
        <time>2021-10-08T14:07:48Z</time>
      </trkpt>
      <trkpt lat="44.8319" lon="5.44591">
        <ele>1611.4</ele>
        <time>2021-10-08T14:07:49Z</time>
      </trkpt>
      <trkpt lat="44.8319" lon="5.44594">
        <ele>1611</ele>
        <time>2021-10-08T14:07:50Z</time>
      </trkpt>
      <trkpt lat="44.83191" lon="5.44598">
        <ele>1611</ele>
        <time>2021-10-08T14:07:51Z</time>
      </trkpt>
      <trkpt lat="44.83192" lon="5.44603">
        <ele>1611</ele>
        <time>2021-10-08T14:07:52Z</time>
      </trkpt>
      <trkpt lat="44.83193" lon="5.44606">
        <ele>1610</ele>
        <time>2021-10-08T14:07:53Z</time>
      </trkpt>
      <trkpt lat="44.83193" lon="5.4461">
        <ele>1610</ele>
        <time>2021-10-08T14:07:54Z</time>
      </trkpt>
      <trkpt lat="44.83193" lon="5.44614">
        <ele>1610</ele>
        <time>2021-10-08T14:07:55Z</time>
      </trkpt>
      <trkpt lat="44.83194" lon="5.44617">
        <ele>1610</ele>
        <time>2021-10-08T14:07:56Z</time>
      </trkpt>
      <trkpt lat="44.83194" lon="5.44621">
        <ele>1609</ele>
        <time>2021-10-08T14:07:57Z</time>
      </trkpt>
      <trkpt lat="44.83195" lon="5.44624">
        <ele>1608.2</ele>
        <time>2021-10-08T14:07:58Z</time>
      </trkpt>
      <trkpt lat="44.83195" lon="5.44628">
        <ele>1608.2</ele>
        <time>2021-10-08T14:07:59Z</time>
      </trkpt>
      <trkpt lat="44.83196" lon="5.44632">
        <ele>1608.2</ele>
        <time>2021-10-08T14:08:00Z</time>
      </trkpt>
      <trkpt lat="44.83196" lon="5.44636">
        <ele>1608</ele>
        <time>2021-10-08T14:08:01Z</time>
      </trkpt>
      <trkpt lat="44.83196" lon="5.4464">
        <ele>1608.2</ele>
        <time>2021-10-08T14:08:02Z</time>
      </trkpt>
      <trkpt lat="44.83196" lon="5.44644">
        <ele>1608.2</ele>
        <time>2021-10-08T14:08:03Z</time>
      </trkpt>
      <trkpt lat="44.83196" lon="5.44647">
        <ele>1608.2</ele>
        <time>2021-10-08T14:08:04Z</time>
      </trkpt>
      <trkpt lat="44.83195" lon="5.44651">
        <ele>1607.4</ele>
        <time>2021-10-08T14:08:05Z</time>
      </trkpt>
      <trkpt lat="44.83194" lon="5.44653">
        <ele>1608.4</ele>
        <time>2021-10-08T14:08:06Z</time>
      </trkpt>
      <trkpt lat="44.83194" lon="5.44656">
        <ele>1608.4</ele>
        <time>2021-10-08T14:08:07Z</time>
      </trkpt>
      <trkpt lat="44.83193" lon="5.44659">
        <ele>1608.4</ele>
        <time>2021-10-08T14:08:08Z</time>
      </trkpt>
      <trkpt lat="44.83193" lon="5.44662">
        <ele>1608.4</ele>
        <time>2021-10-08T14:08:09Z</time>
      </trkpt>
      <trkpt lat="44.83192" lon="5.44665">
        <ele>1608</ele>
        <time>2021-10-08T14:08:10Z</time>
      </trkpt>
      <trkpt lat="44.83192" lon="5.44669">
        <ele>1608</ele>
        <time>2021-10-08T14:08:11Z</time>
      </trkpt>
      <trkpt lat="44.83191" lon="5.44673">
        <ele>1608</ele>
        <time>2021-10-08T14:08:12Z</time>
      </trkpt>
      <trkpt lat="44.83189" lon="5.44677">
        <ele>1608</ele>
        <time>2021-10-08T14:08:13Z</time>
      </trkpt>
      <trkpt lat="44.83188" lon="5.44681">
        <ele>1607.8</ele>
        <time>2021-10-08T14:08:14Z</time>
      </trkpt>
      <trkpt lat="44.83187" lon="5.44685">
        <ele>1607.8</ele>
        <time>2021-10-08T14:08:15Z</time>
      </trkpt>
      <trkpt lat="44.83186" lon="5.44688">
        <ele>1607.8</ele>
        <time>2021-10-08T14:08:16Z</time>
      </trkpt>
      <trkpt lat="44.83185" lon="5.44691">
        <ele>1608.8</ele>
        <time>2021-10-08T14:08:17Z</time>
      </trkpt>
      <trkpt lat="44.83184" lon="5.44694">
        <ele>1610</ele>
        <time>2021-10-08T14:08:18Z</time>
      </trkpt>
      <trkpt lat="44.83182" lon="5.44696">
        <ele>1610</ele>
        <time>2021-10-08T14:08:19Z</time>
      </trkpt>
      <trkpt lat="44.83181" lon="5.44699">
        <ele>1610</ele>
        <time>2021-10-08T14:08:20Z</time>
      </trkpt>
      <trkpt lat="44.83179" lon="5.44703">
        <ele>1610</ele>
        <time>2021-10-08T14:08:21Z</time>
      </trkpt>
      <trkpt lat="44.83178" lon="5.44706">
        <ele>1610</ele>
        <time>2021-10-08T14:08:22Z</time>
      </trkpt>
      <trkpt lat="44.83176" lon="5.44709">
        <ele>1610</ele>
        <time>2021-10-08T14:08:23Z</time>
      </trkpt>
      <trkpt lat="44.83175" lon="5.44713">
        <ele>1610</ele>
        <time>2021-10-08T14:08:24Z</time>
      </trkpt>
      <trkpt lat="44.83173" lon="5.44716">
        <ele>1610</ele>
        <time>2021-10-08T14:08:25Z</time>
      </trkpt>
      <trkpt lat="44.83172" lon="5.44719">
        <ele>1610.8</ele>
        <time>2021-10-08T14:08:26Z</time>
      </trkpt>
      <trkpt lat="44.8317" lon="5.44722">
        <ele>1610.8</ele>
        <time>2021-10-08T14:08:27Z</time>
      </trkpt>
      <trkpt lat="44.83169" lon="5.44725">
        <ele>1610.8</ele>
        <time>2021-10-08T14:08:28Z</time>
      </trkpt>
      <trkpt lat="44.83168" lon="5.44728">
        <ele>1611</ele>
        <time>2021-10-08T14:08:29Z</time>
      </trkpt>
      <trkpt lat="44.83167" lon="5.44731">
        <ele>1611</ele>
        <time>2021-10-08T14:08:30Z</time>
      </trkpt>
      <trkpt lat="44.83166" lon="5.44735">
        <ele>1611</ele>
        <time>2021-10-08T14:08:31Z</time>
      </trkpt>
      <trkpt lat="44.83165" lon="5.44739">
        <ele>1611</ele>
        <time>2021-10-08T14:08:32Z</time>
      </trkpt>
      <trkpt lat="44.83164" lon="5.44742">
        <ele>1611</ele>
        <time>2021-10-08T14:08:33Z</time>
      </trkpt>
      <trkpt lat="44.83164" lon="5.44746">
        <ele>1610.6</ele>
        <time>2021-10-08T14:08:34Z</time>
      </trkpt>
      <trkpt lat="44.83163" lon="5.4475">
        <ele>1610.6</ele>
        <time>2021-10-08T14:08:35Z</time>
      </trkpt>
      <trkpt lat="44.83162" lon="5.44754">
        <ele>1610.6</ele>
        <time>2021-10-08T14:08:36Z</time>
      </trkpt>
      <trkpt lat="44.83161" lon="5.4476">
        <ele>1609.6</ele>
        <time>2021-10-08T14:08:37Z</time>
      </trkpt>
      <trkpt lat="44.8316" lon="5.44766">
        <ele>1608.4</ele>
        <time>2021-10-08T14:08:38Z</time>
      </trkpt>
      <trkpt lat="44.83159" lon="5.44771">
        <ele>1608.4</ele>
        <time>2021-10-08T14:08:39Z</time>
      </trkpt>
      <trkpt lat="44.83158" lon="5.44774">
        <ele>1608.4</ele>
        <time>2021-10-08T14:08:40Z</time>
      </trkpt>
      <trkpt lat="44.83157" lon="5.44778">
        <ele>1608.4</ele>
        <time>2021-10-08T14:08:41Z</time>
      </trkpt>
      <trkpt lat="44.83156" lon="5.4478">
        <ele>1607.2</ele>
        <time>2021-10-08T14:08:42Z</time>
      </trkpt>
      <trkpt lat="44.83154" lon="5.44782">
        <ele>1607.2</ele>
        <time>2021-10-08T14:08:43Z</time>
      </trkpt>
      <trkpt lat="44.83153" lon="5.44783">
        <ele>1607.2</ele>
        <time>2021-10-08T14:08:44Z</time>
      </trkpt>
      <trkpt lat="44.83152" lon="5.44786">
        <ele>1606.8</ele>
        <time>2021-10-08T14:08:45Z</time>
      </trkpt>
      <trkpt lat="44.83152" lon="5.44788">
        <ele>1605.6</ele>
        <time>2021-10-08T14:08:46Z</time>
      </trkpt>
      <trkpt lat="44.8315" lon="5.44792">
        <ele>1605.6</ele>
        <time>2021-10-08T14:08:47Z</time>
      </trkpt>
      <trkpt lat="44.8315" lon="5.44794">
        <ele>1605.6</ele>
        <time>2021-10-08T14:08:48Z</time>
      </trkpt>
      <trkpt lat="44.83149" lon="5.44796">
        <ele>1605</ele>
        <time>2021-10-08T14:08:49Z</time>
      </trkpt>
      <trkpt lat="44.83148" lon="5.44798">
        <ele>1604.6</ele>
        <time>2021-10-08T14:08:50Z</time>
      </trkpt>
      <trkpt lat="44.83146" lon="5.448">
        <ele>1604.6</ele>
        <time>2021-10-08T14:08:51Z</time>
      </trkpt>
      <trkpt lat="44.83145" lon="5.44801">
        <ele>1604.6</ele>
        <time>2021-10-08T14:08:52Z</time>
      </trkpt>
      <trkpt lat="44.83144" lon="5.44804">
        <ele>1603.6</ele>
        <time>2021-10-08T14:08:53Z</time>
      </trkpt>
      <trkpt lat="44.83142" lon="5.44807">
        <ele>1601.8</ele>
        <time>2021-10-08T14:08:54Z</time>
      </trkpt>
      <trkpt lat="44.83141" lon="5.44812">
        <ele>1601.8</ele>
        <time>2021-10-08T14:08:55Z</time>
      </trkpt>
      <trkpt lat="44.83139" lon="5.44817">
        <ele>1601.8</ele>
        <time>2021-10-08T14:08:56Z</time>
      </trkpt>
      <trkpt lat="44.83138" lon="5.44823">
        <ele>1601.8</ele>
        <time>2021-10-08T14:08:57Z</time>
      </trkpt>
      <trkpt lat="44.83138" lon="5.44829">
        <ele>1601.8</ele>
        <time>2021-10-08T14:08:58Z</time>
      </trkpt>
      <trkpt lat="44.83138" lon="5.44835">
        <ele>1599.8</ele>
        <time>2021-10-08T14:08:59Z</time>
      </trkpt>
      <trkpt lat="44.83138" lon="5.4484">
        <ele>1599.8</ele>
        <time>2021-10-08T14:09:00Z</time>
      </trkpt>
      <trkpt lat="44.83138" lon="5.44844">
        <ele>1600.8</ele>
        <time>2021-10-08T14:09:01Z</time>
      </trkpt>
      <trkpt lat="44.83137" lon="5.44849">
        <ele>1600.6</ele>
        <time>2021-10-08T14:09:02Z</time>
      </trkpt>
      <trkpt lat="44.83136" lon="5.44854">
        <ele>1600.6</ele>
        <time>2021-10-08T14:09:03Z</time>
      </trkpt>
      <trkpt lat="44.83135" lon="5.4486">
        <ele>1600.6</ele>
        <time>2021-10-08T14:09:04Z</time>
      </trkpt>
      <trkpt lat="44.83135" lon="5.44866">
        <ele>1600.6</ele>
        <time>2021-10-08T14:09:05Z</time>
      </trkpt>
      <trkpt lat="44.83134" lon="5.44872">
        <ele>1598.6</ele>
        <time>2021-10-08T14:09:06Z</time>
      </trkpt>
      <trkpt lat="44.83132" lon="5.44877">
        <ele>1598.6</ele>
        <time>2021-10-08T14:09:07Z</time>
      </trkpt>
      <trkpt lat="44.83131" lon="5.44882">
        <ele>1598.6</ele>
        <time>2021-10-08T14:09:08Z</time>
      </trkpt>
      <trkpt lat="44.8313" lon="5.44887">
        <ele>1598.6</ele>
        <time>2021-10-08T14:09:09Z</time>
      </trkpt>
      <trkpt lat="44.83129" lon="5.44892">
        <ele>1598</ele>
        <time>2021-10-08T14:09:10Z</time>
      </trkpt>
      <trkpt lat="44.83128" lon="5.44897">
        <ele>1598</ele>
        <time>2021-10-08T14:09:11Z</time>
      </trkpt>
      <trkpt lat="44.83128" lon="5.44901">
        <ele>1598</ele>
        <time>2021-10-08T14:09:12Z</time>
      </trkpt>
      <trkpt lat="44.83128" lon="5.44905">
        <ele>1598.8</ele>
        <time>2021-10-08T14:09:13Z</time>
      </trkpt>
      <trkpt lat="44.83127" lon="5.44909">
        <ele>1599.2</ele>
        <time>2021-10-08T14:09:14Z</time>
      </trkpt>
      <trkpt lat="44.83127" lon="5.44912">
        <ele>1599.2</ele>
        <time>2021-10-08T14:09:15Z</time>
      </trkpt>
      <trkpt lat="44.83127" lon="5.44915">
        <ele>1599.2</ele>
        <time>2021-10-08T14:09:16Z</time>
      </trkpt>
      <trkpt lat="44.83126" lon="5.44919">
        <ele>1599.2</ele>
        <time>2021-10-08T14:09:17Z</time>
      </trkpt>
      <trkpt lat="44.83126" lon="5.44922">
        <ele>1598.6</ele>
        <time>2021-10-08T14:09:18Z</time>
      </trkpt>
      <trkpt lat="44.83125" lon="5.44925">
        <ele>1598.6</ele>
        <time>2021-10-08T14:09:19Z</time>
      </trkpt>
      <trkpt lat="44.83125" lon="5.44928">
        <ele>1598.6</ele>
        <time>2021-10-08T14:09:20Z</time>
      </trkpt>
      <trkpt lat="44.83124" lon="5.44931">
        <ele>1598.6</ele>
        <time>2021-10-08T14:09:21Z</time>
      </trkpt>
      <trkpt lat="44.83123" lon="5.44934">
        <ele>1598.6</ele>
        <time>2021-10-08T14:09:22Z</time>
      </trkpt>
      <trkpt lat="44.83122" lon="5.44937">
        <ele>1598.6</ele>
        <time>2021-10-08T14:09:23Z</time>
      </trkpt>
      <trkpt lat="44.83121" lon="5.4494">
        <ele>1598.6</ele>
        <time>2021-10-08T14:09:24Z</time>
      </trkpt>
      <trkpt lat="44.8312" lon="5.44942">
        <ele>1598</ele>
        <time>2021-10-08T14:09:25Z</time>
      </trkpt>
      <trkpt lat="44.83119" lon="5.44943">
        <ele>1597.8</ele>
        <time>2021-10-08T14:09:26Z</time>
      </trkpt>
      <trkpt lat="44.83119" lon="5.44943">
        <ele>1597.8</ele>
        <time>2021-10-08T14:09:27Z</time>
      </trkpt>
      <trkpt lat="44.83119" lon="5.44943">
        <ele>1597.8</ele>
        <time>2021-10-08T14:09:28Z</time>
      </trkpt>
      <trkpt lat="44.8312" lon="5.44947">
        <ele>1596.2</ele>
        <time>2021-10-08T14:10:51Z</time>
      </trkpt>
      <trkpt lat="44.83112" lon="5.4497">
        <ele>1597</ele>
        <time>2021-10-08T14:15:46Z</time>
      </trkpt>
      <trkpt lat="44.83111" lon="5.44971">
        <ele>1597</ele>
        <time>2021-10-08T14:15:47Z</time>
      </trkpt>
      <trkpt lat="44.83111" lon="5.44973">
        <ele>1597</ele>
        <time>2021-10-08T14:15:48Z</time>
      </trkpt>
      <trkpt lat="44.8311" lon="5.44976">
        <ele>1596</ele>
        <time>2021-10-08T14:15:49Z</time>
      </trkpt>
      <trkpt lat="44.83109" lon="5.44979">
        <ele>1593.8</ele>
        <time>2021-10-08T14:15:50Z</time>
      </trkpt>
      <trkpt lat="44.83108" lon="5.44982">
        <ele>1593.8</ele>
        <time>2021-10-08T14:15:51Z</time>
      </trkpt>
      <trkpt lat="44.83107" lon="5.44985">
        <ele>1593.8</ele>
        <time>2021-10-08T14:15:52Z</time>
      </trkpt>
      <trkpt lat="44.83105" lon="5.44988">
        <ele>1593.8</ele>
        <time>2021-10-08T14:15:53Z</time>
      </trkpt>
      <trkpt lat="44.83104" lon="5.44991">
        <ele>1594.2</ele>
        <time>2021-10-08T14:15:54Z</time>
      </trkpt>
      <trkpt lat="44.83103" lon="5.44994">
        <ele>1594.2</ele>
        <time>2021-10-08T14:15:55Z</time>
      </trkpt>
      <trkpt lat="44.83102" lon="5.44997">
        <ele>1594.2</ele>
        <time>2021-10-08T14:15:56Z</time>
      </trkpt>
      <trkpt lat="44.831" lon="5.45001">
        <ele>1594.2</ele>
        <time>2021-10-08T14:15:57Z</time>
      </trkpt>
      <trkpt lat="44.83099" lon="5.45004">
        <ele>1594.2</ele>
        <time>2021-10-08T14:15:58Z</time>
      </trkpt>
      <trkpt lat="44.83097" lon="5.45006">
        <ele>1592.8</ele>
        <time>2021-10-08T14:15:59Z</time>
      </trkpt>
      <trkpt lat="44.83096" lon="5.45009">
        <ele>1592.8</ele>
        <time>2021-10-08T14:16:00Z</time>
      </trkpt>
      <trkpt lat="44.83094" lon="5.45013">
        <ele>1592.6</ele>
        <time>2021-10-08T14:16:01Z</time>
      </trkpt>
      <trkpt lat="44.83092" lon="5.45016">
        <ele>1590.6</ele>
        <time>2021-10-08T14:16:02Z</time>
      </trkpt>
      <trkpt lat="44.8309" lon="5.4502">
        <ele>1590.6</ele>
        <time>2021-10-08T14:16:03Z</time>
      </trkpt>
      <trkpt lat="44.83088" lon="5.45024">
        <ele>1590.6</ele>
        <time>2021-10-08T14:16:04Z</time>
      </trkpt>
      <trkpt lat="44.83086" lon="5.45028">
        <ele>1590.6</ele>
        <time>2021-10-08T14:16:05Z</time>
      </trkpt>
      <trkpt lat="44.83083" lon="5.45032">
        <ele>1590.2</ele>
        <time>2021-10-08T14:16:06Z</time>
      </trkpt>
      <trkpt lat="44.8308" lon="5.45035">
        <ele>1590.2</ele>
        <time>2021-10-08T14:16:07Z</time>
      </trkpt>
      <trkpt lat="44.83078" lon="5.4504">
        <ele>1590.2</ele>
        <time>2021-10-08T14:16:08Z</time>
      </trkpt>
      <trkpt lat="44.83075" lon="5.45045">
        <ele>1589.6</ele>
        <time>2021-10-08T14:16:09Z</time>
      </trkpt>
      <trkpt lat="44.83072" lon="5.4505">
        <ele>1588.8</ele>
        <time>2021-10-08T14:16:10Z</time>
      </trkpt>
      <trkpt lat="44.83069" lon="5.45055">
        <ele>1588.8</ele>
        <time>2021-10-08T14:16:11Z</time>
      </trkpt>
      <trkpt lat="44.83066" lon="5.45059">
        <ele>1588.8</ele>
        <time>2021-10-08T14:16:12Z</time>
      </trkpt>
      <trkpt lat="44.83063" lon="5.45064">
        <ele>1587.8</ele>
        <time>2021-10-08T14:16:13Z</time>
      </trkpt>
      <trkpt lat="44.8306" lon="5.45069">
        <ele>1587.6</ele>
        <time>2021-10-08T14:16:14Z</time>
      </trkpt>
      <trkpt lat="44.83057" lon="5.45073">
        <ele>1587.6</ele>
        <time>2021-10-08T14:16:15Z</time>
      </trkpt>
      <trkpt lat="44.83055" lon="5.45077">
        <ele>1587.6</ele>
        <time>2021-10-08T14:16:16Z</time>
      </trkpt>
      <trkpt lat="44.83053" lon="5.45081">
        <ele>1586.6</ele>
        <time>2021-10-08T14:16:17Z</time>
      </trkpt>
      <trkpt lat="44.83051" lon="5.45086">
        <ele>1584</ele>
        <time>2021-10-08T14:16:18Z</time>
      </trkpt>
      <trkpt lat="44.83049" lon="5.4509">
        <ele>1584</ele>
        <time>2021-10-08T14:16:19Z</time>
      </trkpt>
      <trkpt lat="44.83046" lon="5.45095">
        <ele>1584</ele>
        <time>2021-10-08T14:16:20Z</time>
      </trkpt>
      <trkpt lat="44.83044" lon="5.451">
        <ele>1584</ele>
        <time>2021-10-08T14:16:21Z</time>
      </trkpt>
      <trkpt lat="44.83041" lon="5.45105">
        <ele>1580.4</ele>
        <time>2021-10-08T14:16:22Z</time>
      </trkpt>
      <trkpt lat="44.83038" lon="5.45111">
        <ele>1580.4</ele>
        <time>2021-10-08T14:16:23Z</time>
      </trkpt>
      <trkpt lat="44.83035" lon="5.45117">
        <ele>1580.4</ele>
        <time>2021-10-08T14:16:24Z</time>
      </trkpt>
      <trkpt lat="44.83031" lon="5.45122">
        <ele>1579.4</ele>
        <time>2021-10-08T14:16:25Z</time>
      </trkpt>
      <trkpt lat="44.83028" lon="5.45127">
        <ele>1576.8</ele>
        <time>2021-10-08T14:16:26Z</time>
      </trkpt>
      <trkpt lat="44.83024" lon="5.45132">
        <ele>1576.8</ele>
        <time>2021-10-08T14:16:27Z</time>
      </trkpt>
      <trkpt lat="44.83021" lon="5.45136">
        <ele>1576.8</ele>
        <time>2021-10-08T14:16:28Z</time>
      </trkpt>
      <trkpt lat="44.83018" lon="5.45141">
        <ele>1575.8</ele>
        <time>2021-10-08T14:16:29Z</time>
      </trkpt>
      <trkpt lat="44.83015" lon="5.45145">
        <ele>1574.6</ele>
        <time>2021-10-08T14:16:30Z</time>
      </trkpt>
      <trkpt lat="44.83011" lon="5.45148">
        <ele>1574.6</ele>
        <time>2021-10-08T14:16:31Z</time>
      </trkpt>
      <trkpt lat="44.83008" lon="5.45151">
        <ele>1574.6</ele>
        <time>2021-10-08T14:16:32Z</time>
      </trkpt>
      <trkpt lat="44.83006" lon="5.45154">
        <ele>1573.6</ele>
        <time>2021-10-08T14:16:33Z</time>
      </trkpt>
      <trkpt lat="44.83004" lon="5.45158">
        <ele>1572.8</ele>
        <time>2021-10-08T14:16:34Z</time>
      </trkpt>
      <trkpt lat="44.83002" lon="5.45162">
        <ele>1572.8</ele>
        <time>2021-10-08T14:16:35Z</time>
      </trkpt>
      <trkpt lat="44.83" lon="5.45166">
        <ele>1572.8</ele>
        <time>2021-10-08T14:16:36Z</time>
      </trkpt>
      <trkpt lat="44.82998" lon="5.4517">
        <ele>1571.8</ele>
        <time>2021-10-08T14:16:37Z</time>
      </trkpt>
      <trkpt lat="44.82996" lon="5.45174">
        <ele>1568.6</ele>
        <time>2021-10-08T14:16:38Z</time>
      </trkpt>
      <trkpt lat="44.82993" lon="5.45179">
        <ele>1568.6</ele>
        <time>2021-10-08T14:16:39Z</time>
      </trkpt>
      <trkpt lat="44.82991" lon="5.45184">
        <ele>1568.6</ele>
        <time>2021-10-08T14:16:40Z</time>
      </trkpt>
      <trkpt lat="44.82988" lon="5.45188">
        <ele>1567.6</ele>
        <time>2021-10-08T14:16:41Z</time>
      </trkpt>
      <trkpt lat="44.82985" lon="5.45193">
        <ele>1564.8</ele>
        <time>2021-10-08T14:16:42Z</time>
      </trkpt>
      <trkpt lat="44.82983" lon="5.45197">
        <ele>1564.8</ele>
        <time>2021-10-08T14:16:43Z</time>
      </trkpt>
      <trkpt lat="44.82979" lon="5.45203">
        <ele>1564.8</ele>
        <time>2021-10-08T14:16:44Z</time>
      </trkpt>
      <trkpt lat="44.82976" lon="5.45209">
        <ele>1564.8</ele>
        <time>2021-10-08T14:16:45Z</time>
      </trkpt>
      <trkpt lat="44.82973" lon="5.45216">
        <ele>1559.2</ele>
        <time>2021-10-08T14:16:46Z</time>
      </trkpt>
      <trkpt lat="44.82969" lon="5.45222">
        <ele>1559.2</ele>
        <time>2021-10-08T14:16:47Z</time>
      </trkpt>
      <trkpt lat="44.82966" lon="5.45229">
        <ele>1559.2</ele>
        <time>2021-10-08T14:16:48Z</time>
      </trkpt>
      <trkpt lat="44.82963" lon="5.45236">
        <ele>1558.2</ele>
        <time>2021-10-08T14:16:49Z</time>
      </trkpt>
      <trkpt lat="44.82961" lon="5.45243">
        <ele>1553.8</ele>
        <time>2021-10-08T14:16:50Z</time>
      </trkpt>
      <trkpt lat="44.8296" lon="5.4525">
        <ele>1553.8</ele>
        <time>2021-10-08T14:16:51Z</time>
      </trkpt>
      <trkpt lat="44.82961" lon="5.45258">
        <ele>1553.8</ele>
        <time>2021-10-08T14:16:52Z</time>
      </trkpt>
      <trkpt lat="44.82962" lon="5.45265">
        <ele>1552.8</ele>
        <time>2021-10-08T14:16:53Z</time>
      </trkpt>
      <trkpt lat="44.82965" lon="5.45273">
        <ele>1546.8</ele>
        <time>2021-10-08T14:16:54Z</time>
      </trkpt>
      <trkpt lat="44.82969" lon="5.45282">
        <ele>1546.8</ele>
        <time>2021-10-08T14:16:55Z</time>
      </trkpt>
      <trkpt lat="44.82974" lon="5.45291">
        <ele>1546.8</ele>
        <time>2021-10-08T14:16:56Z</time>
      </trkpt>
      <trkpt lat="44.82978" lon="5.453">
        <ele>1546.2</ele>
        <time>2021-10-08T14:16:57Z</time>
      </trkpt>
      <trkpt lat="44.82981" lon="5.45307">
        <ele>1545.4</ele>
        <time>2021-10-08T14:16:58Z</time>
      </trkpt>
      <trkpt lat="44.82983" lon="5.45313">
        <ele>1545.4</ele>
        <time>2021-10-08T14:16:59Z</time>
      </trkpt>
      <trkpt lat="44.82986" lon="5.4532">
        <ele>1545.4</ele>
        <time>2021-10-08T14:17:00Z</time>
      </trkpt>
      <trkpt lat="44.8299" lon="5.45327">
        <ele>1544.4</ele>
        <time>2021-10-08T14:17:01Z</time>
      </trkpt>
      <trkpt lat="44.82993" lon="5.45334">
        <ele>1542.4</ele>
        <time>2021-10-08T14:17:02Z</time>
      </trkpt>
      <trkpt lat="44.82997" lon="5.45342">
        <ele>1542.4</ele>
        <time>2021-10-08T14:17:03Z</time>
      </trkpt>
      <trkpt lat="44.83001" lon="5.4535">
        <ele>1542.4</ele>
        <time>2021-10-08T14:17:04Z</time>
      </trkpt>
      <trkpt lat="44.83004" lon="5.45357">
        <ele>1542.2</ele>
        <time>2021-10-08T14:17:05Z</time>
      </trkpt>
      <trkpt lat="44.83007" lon="5.45362">
        <ele>1543.2</ele>
        <time>2021-10-08T14:17:06Z</time>
      </trkpt>
      <trkpt lat="44.83009" lon="5.45366">
        <ele>1543.2</ele>
        <time>2021-10-08T14:17:07Z</time>
      </trkpt>
      <trkpt lat="44.8301" lon="5.45369">
        <ele>1543.2</ele>
        <time>2021-10-08T14:17:08Z</time>
      </trkpt>
      <trkpt lat="44.83011" lon="5.45372">
        <ele>1544.2</ele>
        <time>2021-10-08T14:17:09Z</time>
      </trkpt>
      <trkpt lat="44.83013" lon="5.45375">
        <ele>1546.8</ele>
        <time>2021-10-08T14:17:10Z</time>
      </trkpt>
      <trkpt lat="44.83014" lon="5.45379">
        <ele>1546.8</ele>
        <time>2021-10-08T14:17:11Z</time>
      </trkpt>
      <trkpt lat="44.83015" lon="5.45382">
        <ele>1546.8</ele>
        <time>2021-10-08T14:17:12Z</time>
      </trkpt>
      <trkpt lat="44.83016" lon="5.45386">
        <ele>1546.8</ele>
        <time>2021-10-08T14:17:13Z</time>
      </trkpt>
      <trkpt lat="44.83017" lon="5.4539">
        <ele>1547</ele>
        <time>2021-10-08T14:17:14Z</time>
      </trkpt>
      <trkpt lat="44.83018" lon="5.45394">
        <ele>1547</ele>
        <time>2021-10-08T14:17:15Z</time>
      </trkpt>
      <trkpt lat="44.83019" lon="5.45398">
        <ele>1547</ele>
        <time>2021-10-08T14:17:16Z</time>
      </trkpt>
      <trkpt lat="44.8302" lon="5.45401">
        <ele>1547</ele>
        <time>2021-10-08T14:17:17Z</time>
      </trkpt>
      <trkpt lat="44.83022" lon="5.45405">
        <ele>1546.8</ele>
        <time>2021-10-08T14:17:18Z</time>
      </trkpt>
      <trkpt lat="44.83023" lon="5.4541">
        <ele>1546.8</ele>
        <time>2021-10-08T14:17:19Z</time>
      </trkpt>
      <trkpt lat="44.83025" lon="5.45414">
        <ele>1546.8</ele>
        <time>2021-10-08T14:17:20Z</time>
      </trkpt>
      <trkpt lat="44.83027" lon="5.45419">
        <ele>1545.8</ele>
        <time>2021-10-08T14:17:21Z</time>
      </trkpt>
      <trkpt lat="44.83028" lon="5.45422">
        <ele>1546</ele>
        <time>2021-10-08T14:17:22Z</time>
      </trkpt>
      <trkpt lat="44.8303" lon="5.45424">
        <ele>1546</ele>
        <time>2021-10-08T14:17:23Z</time>
      </trkpt>
      <trkpt lat="44.83031" lon="5.45426">
        <ele>1546</ele>
        <time>2021-10-08T14:17:24Z</time>
      </trkpt>
      <trkpt lat="44.83033" lon="5.45428">
        <ele>1547</ele>
        <time>2021-10-08T14:17:25Z</time>
      </trkpt>
      <trkpt lat="44.83034" lon="5.4543">
        <ele>1548.6</ele>
        <time>2021-10-08T14:17:26Z</time>
      </trkpt>
      <trkpt lat="44.83035" lon="5.45432">
        <ele>1548.6</ele>
        <time>2021-10-08T14:17:27Z</time>
      </trkpt>
      <trkpt lat="44.83037" lon="5.45434">
        <ele>1548.6</ele>
        <time>2021-10-08T14:17:28Z</time>
      </trkpt>
      <trkpt lat="44.83038" lon="5.45436">
        <ele>1548.6</ele>
        <time>2021-10-08T14:17:29Z</time>
      </trkpt>
      <trkpt lat="44.8304" lon="5.45438">
        <ele>1548.6</ele>
        <time>2021-10-08T14:17:30Z</time>
      </trkpt>
      <trkpt lat="44.83041" lon="5.4544">
        <ele>1548.6</ele>
        <time>2021-10-08T14:17:31Z</time>
      </trkpt>
      <trkpt lat="44.83043" lon="5.45442">
        <ele>1550</ele>
        <time>2021-10-08T14:17:32Z</time>
      </trkpt>
      <trkpt lat="44.83044" lon="5.45444">
        <ele>1549.6</ele>
        <time>2021-10-08T14:17:33Z</time>
      </trkpt>
      <trkpt lat="44.83046" lon="5.45446">
        <ele>1549.8</ele>
        <time>2021-10-08T14:17:34Z</time>
      </trkpt>
      <trkpt lat="44.83048" lon="5.45449">
        <ele>1549.8</ele>
        <time>2021-10-08T14:17:35Z</time>
      </trkpt>
      <trkpt lat="44.8305" lon="5.45451">
        <ele>1549.8</ele>
        <time>2021-10-08T14:17:36Z</time>
      </trkpt>
      <trkpt lat="44.83051" lon="5.45453">
        <ele>1549.8</ele>
        <time>2021-10-08T14:17:37Z</time>
      </trkpt>
      <trkpt lat="44.83053" lon="5.45455">
        <ele>1550.2</ele>
        <time>2021-10-08T14:17:38Z</time>
      </trkpt>
      <trkpt lat="44.83055" lon="5.45456">
        <ele>1550.2</ele>
        <time>2021-10-08T14:17:39Z</time>
      </trkpt>
      <trkpt lat="44.83056" lon="5.45458">
        <ele>1550.2</ele>
        <time>2021-10-08T14:17:40Z</time>
      </trkpt>
      <trkpt lat="44.83058" lon="5.4546">
        <ele>1551</ele>
        <time>2021-10-08T14:17:41Z</time>
      </trkpt>
      <trkpt lat="44.83059" lon="5.45461">
        <ele>1551.2</ele>
        <time>2021-10-08T14:17:42Z</time>
      </trkpt>
      <trkpt lat="44.83061" lon="5.45462">
        <ele>1551.2</ele>
        <time>2021-10-08T14:17:43Z</time>
      </trkpt>
      <trkpt lat="44.83062" lon="5.45464">
        <ele>1551.2</ele>
        <time>2021-10-08T14:17:44Z</time>
      </trkpt>
      <trkpt lat="44.83064" lon="5.45465">
        <ele>1551.2</ele>
        <time>2021-10-08T14:17:45Z</time>
      </trkpt>
      <trkpt lat="44.83065" lon="5.45467">
        <ele>1552</ele>
        <time>2021-10-08T14:17:46Z</time>
      </trkpt>
      <trkpt lat="44.83066" lon="5.45468">
        <ele>1552</ele>
        <time>2021-10-08T14:17:47Z</time>
      </trkpt>
      <trkpt lat="44.83068" lon="5.45469">
        <ele>1552</ele>
        <time>2021-10-08T14:17:48Z</time>
      </trkpt>
      <trkpt lat="44.83069" lon="5.4547">
        <ele>1552.6</ele>
        <time>2021-10-08T14:17:49Z</time>
      </trkpt>
      <trkpt lat="44.83071" lon="5.45471">
        <ele>1552.6</ele>
        <time>2021-10-08T14:17:50Z</time>
      </trkpt>
      <trkpt lat="44.83072" lon="5.45472">
        <ele>1552.6</ele>
        <time>2021-10-08T14:17:51Z</time>
      </trkpt>
      <trkpt lat="44.83074" lon="5.45474">
        <ele>1552.6</ele>
        <time>2021-10-08T14:17:52Z</time>
      </trkpt>
      <trkpt lat="44.83075" lon="5.45475">
        <ele>1552.6</ele>
        <time>2021-10-08T14:17:53Z</time>
      </trkpt>
      <trkpt lat="44.83076" lon="5.45476">
        <ele>1553.8</ele>
        <time>2021-10-08T14:17:54Z</time>
      </trkpt>
      <trkpt lat="44.83078" lon="5.45477">
        <ele>1553.8</ele>
        <time>2021-10-08T14:17:55Z</time>
      </trkpt>
      <trkpt lat="44.83079" lon="5.45477">
        <ele>1553.8</ele>
        <time>2021-10-08T14:17:56Z</time>
      </trkpt>
      <trkpt lat="44.8308" lon="5.45478">
        <ele>1553.8</ele>
        <time>2021-10-08T14:17:57Z</time>
      </trkpt>
      <trkpt lat="44.83082" lon="5.45479">
        <ele>1554.2</ele>
        <time>2021-10-08T14:17:58Z</time>
      </trkpt>
      <trkpt lat="44.83083" lon="5.4548">
        <ele>1554.2</ele>
        <time>2021-10-08T14:17:59Z</time>
      </trkpt>
      <trkpt lat="44.83084" lon="5.45481">
        <ele>1554.2</ele>
        <time>2021-10-08T14:18:00Z</time>
      </trkpt>
      <trkpt lat="44.83086" lon="5.45482">
        <ele>1553.8</ele>
        <time>2021-10-08T14:18:01Z</time>
      </trkpt>
      <trkpt lat="44.83087" lon="5.45482">
        <ele>1554.4</ele>
        <time>2021-10-08T14:18:02Z</time>
      </trkpt>
      <trkpt lat="44.83089" lon="5.45483">
        <ele>1554.4</ele>
        <time>2021-10-08T14:18:03Z</time>
      </trkpt>
      <trkpt lat="44.8309" lon="5.45483">
        <ele>1554.4</ele>
        <time>2021-10-08T14:18:04Z</time>
      </trkpt>
      <trkpt lat="44.83091" lon="5.45483">
        <ele>1554.4</ele>
        <time>2021-10-08T14:18:05Z</time>
      </trkpt>
      <trkpt lat="44.83093" lon="5.45484">
        <ele>1554.8</ele>
        <time>2021-10-08T14:18:06Z</time>
      </trkpt>
      <trkpt lat="44.83094" lon="5.45484">
        <ele>1554.8</ele>
        <time>2021-10-08T14:18:07Z</time>
      </trkpt>
      <trkpt lat="44.83095" lon="5.45485">
        <ele>1554.8</ele>
        <time>2021-10-08T14:18:08Z</time>
      </trkpt>
      <trkpt lat="44.83097" lon="5.45486">
        <ele>1554.8</ele>
        <time>2021-10-08T14:18:09Z</time>
      </trkpt>
      <trkpt lat="44.83098" lon="5.45486">
        <ele>1555.6</ele>
        <time>2021-10-08T14:18:10Z</time>
      </trkpt>
      <trkpt lat="44.83099" lon="5.45487">
        <ele>1555.6</ele>
        <time>2021-10-08T14:18:11Z</time>
      </trkpt>
      <trkpt lat="44.83101" lon="5.45488">
        <ele>1555.6</ele>
        <time>2021-10-08T14:18:12Z</time>
      </trkpt>
      <trkpt lat="44.83102" lon="5.45489">
        <ele>1555.4</ele>
        <time>2021-10-08T14:18:13Z</time>
      </trkpt>
      <trkpt lat="44.83103" lon="5.45489">
        <ele>1555.2</ele>
        <time>2021-10-08T14:18:14Z</time>
      </trkpt>
      <trkpt lat="44.83105" lon="5.4549">
        <ele>1555.2</ele>
        <time>2021-10-08T14:18:15Z</time>
      </trkpt>
      <trkpt lat="44.83106" lon="5.45491">
        <ele>1555.2</ele>
        <time>2021-10-08T14:18:16Z</time>
      </trkpt>
      <trkpt lat="44.83108" lon="5.45491">
        <ele>1555.2</ele>
        <time>2021-10-08T14:18:17Z</time>
      </trkpt>
      <trkpt lat="44.83109" lon="5.45492">
        <ele>1555.2</ele>
        <time>2021-10-08T14:18:18Z</time>
      </trkpt>
      <trkpt lat="44.83111" lon="5.45494">
        <ele>1555.2</ele>
        <time>2021-10-08T14:18:19Z</time>
      </trkpt>
      <trkpt lat="44.83112" lon="5.45495">
        <ele>1554.8</ele>
        <time>2021-10-08T14:18:20Z</time>
      </trkpt>
      <trkpt lat="44.83114" lon="5.45496">
        <ele>1555.4</ele>
        <time>2021-10-08T14:18:21Z</time>
      </trkpt>
      <trkpt lat="44.83115" lon="5.45497">
        <ele>1555.8</ele>
        <time>2021-10-08T14:18:22Z</time>
      </trkpt>
      <trkpt lat="44.83117" lon="5.45498">
        <ele>1555.8</ele>
        <time>2021-10-08T14:18:23Z</time>
      </trkpt>
      <trkpt lat="44.83118" lon="5.45498">
        <ele>1555.8</ele>
        <time>2021-10-08T14:18:24Z</time>
      </trkpt>
      <trkpt lat="44.83119" lon="5.45499">
        <ele>1555.8</ele>
        <time>2021-10-08T14:18:25Z</time>
      </trkpt>
      <trkpt lat="44.83121" lon="5.455">
        <ele>1556.6</ele>
        <time>2021-10-08T14:18:26Z</time>
      </trkpt>
      <trkpt lat="44.83122" lon="5.45501">
        <ele>1556.6</ele>
        <time>2021-10-08T14:18:27Z</time>
      </trkpt>
      <trkpt lat="44.83124" lon="5.45501">
        <ele>1556.6</ele>
        <time>2021-10-08T14:18:28Z</time>
      </trkpt>
      <trkpt lat="44.83125" lon="5.45502">
        <ele>1556.6</ele>
        <time>2021-10-08T14:18:29Z</time>
      </trkpt>
      <trkpt lat="44.83127" lon="5.45503">
        <ele>1556.4</ele>
        <time>2021-10-08T14:18:30Z</time>
      </trkpt>
      <trkpt lat="44.83128" lon="5.45504">
        <ele>1556.4</ele>
        <time>2021-10-08T14:18:31Z</time>
      </trkpt>
      <trkpt lat="44.8313" lon="5.45505">
        <ele>1556.4</ele>
        <time>2021-10-08T14:18:32Z</time>
      </trkpt>
      <trkpt lat="44.83132" lon="5.45506">
        <ele>1556.4</ele>
        <time>2021-10-08T14:18:33Z</time>
      </trkpt>
      <trkpt lat="44.83133" lon="5.45507">
        <ele>1557</ele>
        <time>2021-10-08T14:18:34Z</time>
      </trkpt>
      <trkpt lat="44.83135" lon="5.45508">
        <ele>1557</ele>
        <time>2021-10-08T14:18:35Z</time>
      </trkpt>
      <trkpt lat="44.83136" lon="5.45508">
        <ele>1557</ele>
        <time>2021-10-08T14:18:36Z</time>
      </trkpt>
      <trkpt lat="44.83137" lon="5.45508">
        <ele>1557.8</ele>
        <time>2021-10-08T14:18:37Z</time>
      </trkpt>
      <trkpt lat="44.83139" lon="5.45509">
        <ele>1557.8</ele>
        <time>2021-10-08T14:18:38Z</time>
      </trkpt>
      <trkpt lat="44.8314" lon="5.4551">
        <ele>1557.8</ele>
        <time>2021-10-08T14:18:39Z</time>
      </trkpt>
      <trkpt lat="44.83141" lon="5.4551">
        <ele>1557.8</ele>
        <time>2021-10-08T14:18:40Z</time>
      </trkpt>
      <trkpt lat="44.83143" lon="5.4551">
        <ele>1557.8</ele>
        <time>2021-10-08T14:18:41Z</time>
      </trkpt>
      <trkpt lat="44.83145" lon="5.45511">
        <ele>1558.4</ele>
        <time>2021-10-08T14:18:42Z</time>
      </trkpt>
      <trkpt lat="44.83146" lon="5.45512">
        <ele>1558.4</ele>
        <time>2021-10-08T14:18:43Z</time>
      </trkpt>
      <trkpt lat="44.83148" lon="5.45513">
        <ele>1558.4</ele>
        <time>2021-10-08T14:18:44Z</time>
      </trkpt>
      <trkpt lat="44.83149" lon="5.45513">
        <ele>1559.4</ele>
        <time>2021-10-08T14:18:45Z</time>
      </trkpt>
      <trkpt lat="44.83151" lon="5.45514">
        <ele>1559.8</ele>
        <time>2021-10-08T14:18:46Z</time>
      </trkpt>
      <trkpt lat="44.83152" lon="5.45515">
        <ele>1559.8</ele>
        <time>2021-10-08T14:18:47Z</time>
      </trkpt>
      <trkpt lat="44.83154" lon="5.45516">
        <ele>1559.8</ele>
        <time>2021-10-08T14:18:48Z</time>
      </trkpt>
      <trkpt lat="44.83155" lon="5.45516">
        <ele>1559.4</ele>
        <time>2021-10-08T14:18:49Z</time>
      </trkpt>
      <trkpt lat="44.83157" lon="5.45517">
        <ele>1559.4</ele>
        <time>2021-10-08T14:18:50Z</time>
      </trkpt>
      <trkpt lat="44.83159" lon="5.45518">
        <ele>1559.4</ele>
        <time>2021-10-08T14:18:51Z</time>
      </trkpt>
      <trkpt lat="44.83161" lon="5.45518">
        <ele>1559.4</ele>
        <time>2021-10-08T14:18:52Z</time>
      </trkpt>
      <trkpt lat="44.83163" lon="5.4552">
        <ele>1559.2</ele>
        <time>2021-10-08T14:18:53Z</time>
      </trkpt>
      <trkpt lat="44.83165" lon="5.45521">
        <ele>1559.2</ele>
        <time>2021-10-08T14:18:54Z</time>
      </trkpt>
      <trkpt lat="44.83166" lon="5.45522">
        <ele>1559.2</ele>
        <time>2021-10-08T14:18:55Z</time>
      </trkpt>
      <trkpt lat="44.83167" lon="5.45523">
        <ele>1559.2</ele>
        <time>2021-10-08T14:18:56Z</time>
      </trkpt>
      <trkpt lat="44.83169" lon="5.45524">
        <ele>1559.8</ele>
        <time>2021-10-08T14:18:57Z</time>
      </trkpt>
      <trkpt lat="44.8317" lon="5.45525">
        <ele>1559.4</ele>
        <time>2021-10-08T14:18:58Z</time>
      </trkpt>
      <trkpt lat="44.83172" lon="5.45526">
        <ele>1559.4</ele>
        <time>2021-10-08T14:18:59Z</time>
      </trkpt>
      <trkpt lat="44.83173" lon="5.45528">
        <ele>1559.4</ele>
        <time>2021-10-08T14:19:00Z</time>
      </trkpt>
      <trkpt lat="44.83175" lon="5.4553">
        <ele>1559.4</ele>
        <time>2021-10-08T14:19:01Z</time>
      </trkpt>
      <trkpt lat="44.83178" lon="5.45531">
        <ele>1558.8</ele>
        <time>2021-10-08T14:19:02Z</time>
      </trkpt>
      <trkpt lat="44.8318" lon="5.45533">
        <ele>1558.8</ele>
        <time>2021-10-08T14:19:03Z</time>
      </trkpt>
      <trkpt lat="44.83182" lon="5.45533">
        <ele>1558.8</ele>
        <time>2021-10-08T14:19:04Z</time>
      </trkpt>
      <trkpt lat="44.83184" lon="5.45535">
        <ele>1558.8</ele>
        <time>2021-10-08T14:19:05Z</time>
      </trkpt>
      <trkpt lat="44.83186" lon="5.45536">
        <ele>1559.2</ele>
        <time>2021-10-08T14:19:06Z</time>
      </trkpt>
      <trkpt lat="44.83188" lon="5.45537">
        <ele>1559.2</ele>
        <time>2021-10-08T14:19:07Z</time>
      </trkpt>
      <trkpt lat="44.83189" lon="5.45539">
        <ele>1559.2</ele>
        <time>2021-10-08T14:19:08Z</time>
      </trkpt>
      <trkpt lat="44.83191" lon="5.4554">
        <ele>1559.8</ele>
        <time>2021-10-08T14:19:09Z</time>
      </trkpt>
      <trkpt lat="44.83192" lon="5.45541">
        <ele>1560.4</ele>
        <time>2021-10-08T14:19:10Z</time>
      </trkpt>
      <trkpt lat="44.83194" lon="5.45543">
        <ele>1560.4</ele>
        <time>2021-10-08T14:19:11Z</time>
      </trkpt>
      <trkpt lat="44.83196" lon="5.45544">
        <ele>1560.4</ele>
        <time>2021-10-08T14:19:12Z</time>
      </trkpt>
      <trkpt lat="44.83197" lon="5.45546">
        <ele>1561.4</ele>
        <time>2021-10-08T14:19:13Z</time>
      </trkpt>
      <trkpt lat="44.83198" lon="5.45547">
        <ele>1561</ele>
        <time>2021-10-08T14:19:14Z</time>
      </trkpt>
      <trkpt lat="44.832" lon="5.45549">
        <ele>1561</ele>
        <time>2021-10-08T14:19:15Z</time>
      </trkpt>
      <trkpt lat="44.83201" lon="5.45551">
        <ele>1561</ele>
        <time>2021-10-08T14:19:16Z</time>
      </trkpt>
      <trkpt lat="44.83203" lon="5.45553">
        <ele>1561.6</ele>
        <time>2021-10-08T14:19:17Z</time>
      </trkpt>
      <trkpt lat="44.83204" lon="5.45555">
        <ele>1561</ele>
        <time>2021-10-08T14:19:18Z</time>
      </trkpt>
      <trkpt lat="44.83205" lon="5.45557">
        <ele>1561</ele>
        <time>2021-10-08T14:19:19Z</time>
      </trkpt>
      <trkpt lat="44.83207" lon="5.45559">
        <ele>1561</ele>
        <time>2021-10-08T14:19:20Z</time>
      </trkpt>
      <trkpt lat="44.83209" lon="5.45561">
        <ele>1561</ele>
        <time>2021-10-08T14:19:21Z</time>
      </trkpt>
      <trkpt lat="44.83211" lon="5.45564">
        <ele>1559.8</ele>
        <time>2021-10-08T14:19:22Z</time>
      </trkpt>
      <trkpt lat="44.83212" lon="5.45566">
        <ele>1559.8</ele>
        <time>2021-10-08T14:19:23Z</time>
      </trkpt>
      <trkpt lat="44.83214" lon="5.45568">
        <ele>1559.8</ele>
        <time>2021-10-08T14:19:24Z</time>
      </trkpt>
      <trkpt lat="44.83215" lon="5.45571">
        <ele>1560.4</ele>
        <time>2021-10-08T14:19:25Z</time>
      </trkpt>
      <trkpt lat="44.83215" lon="5.45573">
        <ele>1560.4</ele>
        <time>2021-10-08T14:19:26Z</time>
      </trkpt>
      <trkpt lat="44.83216" lon="5.45575">
        <ele>1560.8</ele>
        <time>2021-10-08T14:19:27Z</time>
      </trkpt>
      <trkpt lat="44.83217" lon="5.45578">
        <ele>1560.8</ele>
        <time>2021-10-08T14:19:28Z</time>
      </trkpt>
      <trkpt lat="44.83219" lon="5.45581">
        <ele>1560.8</ele>
        <time>2021-10-08T14:19:29Z</time>
      </trkpt>
      <trkpt lat="44.8322" lon="5.45583">
        <ele>1560.8</ele>
        <time>2021-10-08T14:19:30Z</time>
      </trkpt>
      <trkpt lat="44.83221" lon="5.45586">
        <ele>1560.8</ele>
        <time>2021-10-08T14:19:31Z</time>
      </trkpt>
      <trkpt lat="44.83222" lon="5.45588">
        <ele>1560.8</ele>
        <time>2021-10-08T14:19:32Z</time>
      </trkpt>
      <trkpt lat="44.83223" lon="5.45591">
        <ele>1560.8</ele>
        <time>2021-10-08T14:19:33Z</time>
      </trkpt>
      <trkpt lat="44.83223" lon="5.45593">
        <ele>1561</ele>
        <time>2021-10-08T14:19:34Z</time>
      </trkpt>
      <trkpt lat="44.83224" lon="5.45595">
        <ele>1561</ele>
        <time>2021-10-08T14:19:35Z</time>
      </trkpt>
      <trkpt lat="44.83225" lon="5.45598">
        <ele>1561</ele>
        <time>2021-10-08T14:19:36Z</time>
      </trkpt>
      <trkpt lat="44.83226" lon="5.456">
        <ele>1562</ele>
        <time>2021-10-08T14:19:37Z</time>
      </trkpt>
      <trkpt lat="44.83226" lon="5.45602">
        <ele>1562.2</ele>
        <time>2021-10-08T14:19:38Z</time>
      </trkpt>
      <trkpt lat="44.83227" lon="5.45604">
        <ele>1562.2</ele>
        <time>2021-10-08T14:19:39Z</time>
      </trkpt>
      <trkpt lat="44.83227" lon="5.45606">
        <ele>1562.2</ele>
        <time>2021-10-08T14:19:40Z</time>
      </trkpt>
      <trkpt lat="44.83227" lon="5.45609">
        <ele>1563</ele>
        <time>2021-10-08T14:19:41Z</time>
      </trkpt>
      <trkpt lat="44.83227" lon="5.45611">
        <ele>1563.4</ele>
        <time>2021-10-08T14:19:42Z</time>
      </trkpt>
      <trkpt lat="44.83228" lon="5.45612">
        <ele>1563.4</ele>
        <time>2021-10-08T14:19:43Z</time>
      </trkpt>
      <trkpt lat="44.83228" lon="5.45613">
        <ele>1563.4</ele>
        <time>2021-10-08T14:19:44Z</time>
      </trkpt>
      <trkpt lat="44.83229" lon="5.45614">
        <ele>1563.4</ele>
        <time>2021-10-08T14:19:45Z</time>
      </trkpt>
      <trkpt lat="44.83229" lon="5.45615">
        <ele>1563.8</ele>
        <time>2021-10-08T14:19:46Z</time>
      </trkpt>
      <trkpt lat="44.8323" lon="5.45615">
        <ele>1563.8</ele>
        <time>2021-10-08T14:19:47Z</time>
      </trkpt>
      <trkpt lat="44.8323" lon="5.45616">
        <ele>1563.8</ele>
        <time>2021-10-08T14:19:48Z</time>
      </trkpt>
      <trkpt lat="44.83231" lon="5.45617">
        <ele>1563.8</ele>
        <time>2021-10-08T14:19:49Z</time>
      </trkpt>
      <trkpt lat="44.83231" lon="5.45618">
        <ele>1563.8</ele>
        <time>2021-10-08T14:19:50Z</time>
      </trkpt>
      <trkpt lat="44.83232" lon="5.4562">
        <ele>1563.8</ele>
        <time>2021-10-08T14:19:51Z</time>
      </trkpt>
      <trkpt lat="44.83232" lon="5.45622">
        <ele>1563.8</ele>
        <time>2021-10-08T14:19:52Z</time>
      </trkpt>
      <trkpt lat="44.83233" lon="5.45625">
        <ele>1563.8</ele>
        <time>2021-10-08T14:19:53Z</time>
      </trkpt>
      <trkpt lat="44.83234" lon="5.45627">
        <ele>1563.6</ele>
        <time>2021-10-08T14:19:54Z</time>
      </trkpt>
      <trkpt lat="44.83235" lon="5.45629">
        <ele>1563.6</ele>
        <time>2021-10-08T14:19:55Z</time>
      </trkpt>
      <trkpt lat="44.83236" lon="5.45631">
        <ele>1563.6</ele>
        <time>2021-10-08T14:19:56Z</time>
      </trkpt>
      <trkpt lat="44.83237" lon="5.45633">
        <ele>1563.6</ele>
        <time>2021-10-08T14:19:57Z</time>
      </trkpt>
      <trkpt lat="44.83238" lon="5.45635">
        <ele>1564.4</ele>
        <time>2021-10-08T14:19:58Z</time>
      </trkpt>
      <trkpt lat="44.8324" lon="5.45637">
        <ele>1564.4</ele>
        <time>2021-10-08T14:19:59Z</time>
      </trkpt>
      <trkpt lat="44.83241" lon="5.45639">
        <ele>1564.4</ele>
        <time>2021-10-08T14:20:00Z</time>
      </trkpt>
      <trkpt lat="44.83242" lon="5.45641">
        <ele>1564</ele>
        <time>2021-10-08T14:20:01Z</time>
      </trkpt>
      <trkpt lat="44.83243" lon="5.45643">
        <ele>1563.6</ele>
        <time>2021-10-08T14:20:02Z</time>
      </trkpt>
      <trkpt lat="44.83244" lon="5.45646">
        <ele>1563.6</ele>
        <time>2021-10-08T14:20:03Z</time>
      </trkpt>
      <trkpt lat="44.83245" lon="5.45649">
        <ele>1563.6</ele>
        <time>2021-10-08T14:20:04Z</time>
      </trkpt>
      <trkpt lat="44.83247" lon="5.45653">
        <ele>1563.6</ele>
        <time>2021-10-08T14:20:05Z</time>
      </trkpt>
      <trkpt lat="44.83249" lon="5.45657">
        <ele>1562.4</ele>
        <time>2021-10-08T14:20:06Z</time>
      </trkpt>
      <trkpt lat="44.83251" lon="5.45661">
        <ele>1562.4</ele>
        <time>2021-10-08T14:20:07Z</time>
      </trkpt>
      <trkpt lat="44.83252" lon="5.45665">
        <ele>1562.4</ele>
        <time>2021-10-08T14:20:08Z</time>
      </trkpt>
      <trkpt lat="44.83254" lon="5.45669">
        <ele>1562.4</ele>
        <time>2021-10-08T14:20:09Z</time>
      </trkpt>
      <trkpt lat="44.83255" lon="5.45672">
        <ele>1563.2</ele>
        <time>2021-10-08T14:20:10Z</time>
      </trkpt>
      <trkpt lat="44.83256" lon="5.45674">
        <ele>1563.2</ele>
        <time>2021-10-08T14:20:11Z</time>
      </trkpt>
      <trkpt lat="44.83257" lon="5.45677">
        <ele>1563.2</ele>
        <time>2021-10-08T14:20:12Z</time>
      </trkpt>
      <trkpt lat="44.83258" lon="5.4568">
        <ele>1563.2</ele>
        <time>2021-10-08T14:20:13Z</time>
      </trkpt>
      <trkpt lat="44.83259" lon="5.45683">
        <ele>1563.2</ele>
        <time>2021-10-08T14:20:14Z</time>
      </trkpt>
      <trkpt lat="44.83259" lon="5.45686">
        <ele>1563.8</ele>
        <time>2021-10-08T14:20:15Z</time>
      </trkpt>
      <trkpt lat="44.8326" lon="5.45689">
        <ele>1563.8</ele>
        <time>2021-10-08T14:20:16Z</time>
      </trkpt>
      <trkpt lat="44.83261" lon="5.45691">
        <ele>1564.6</ele>
        <time>2021-10-08T14:20:17Z</time>
      </trkpt>
      <trkpt lat="44.83262" lon="5.45693">
        <ele>1564.6</ele>
        <time>2021-10-08T14:20:18Z</time>
      </trkpt>
      <trkpt lat="44.83264" lon="5.45695">
        <ele>1564.6</ele>
        <time>2021-10-08T14:20:19Z</time>
      </trkpt>
      <trkpt lat="44.83265" lon="5.45698">
        <ele>1564.6</ele>
        <time>2021-10-08T14:20:20Z</time>
      </trkpt>
      <trkpt lat="44.83266" lon="5.45702">
        <ele>1563.8</ele>
        <time>2021-10-08T14:20:21Z</time>
      </trkpt>
      <trkpt lat="44.83266" lon="5.45705">
        <ele>1563.8</ele>
        <time>2021-10-08T14:20:22Z</time>
      </trkpt>
      <trkpt lat="44.83267" lon="5.45708">
        <ele>1563.8</ele>
        <time>2021-10-08T14:20:23Z</time>
      </trkpt>
      <trkpt lat="44.83267" lon="5.45711">
        <ele>1563.8</ele>
        <time>2021-10-08T14:20:24Z</time>
      </trkpt>
      <trkpt lat="44.83267" lon="5.45714">
        <ele>1564</ele>
        <time>2021-10-08T14:20:25Z</time>
      </trkpt>
      <trkpt lat="44.83267" lon="5.45718">
        <ele>1564.2</ele>
        <time>2021-10-08T14:20:26Z</time>
      </trkpt>
      <trkpt lat="44.83268" lon="5.45721">
        <ele>1564.2</ele>
        <time>2021-10-08T14:20:27Z</time>
      </trkpt>
      <trkpt lat="44.83269" lon="5.45724">
        <ele>1564.2</ele>
        <time>2021-10-08T14:20:28Z</time>
      </trkpt>
      <trkpt lat="44.83269" lon="5.45726">
        <ele>1564.8</ele>
        <time>2021-10-08T14:20:29Z</time>
      </trkpt>
      <trkpt lat="44.8327" lon="5.45728">
        <ele>1565.2</ele>
        <time>2021-10-08T14:20:30Z</time>
      </trkpt>
      <trkpt lat="44.8327" lon="5.45731">
        <ele>1565.2</ele>
        <time>2021-10-08T14:20:31Z</time>
      </trkpt>
      <trkpt lat="44.8327" lon="5.45733">
        <ele>1565.2</ele>
        <time>2021-10-08T14:20:32Z</time>
      </trkpt>
      <trkpt lat="44.83271" lon="5.45736">
        <ele>1565.8</ele>
        <time>2021-10-08T14:20:33Z</time>
      </trkpt>
      <trkpt lat="44.83271" lon="5.45738">
        <ele>1566.2</ele>
        <time>2021-10-08T14:20:34Z</time>
      </trkpt>
      <trkpt lat="44.83272" lon="5.45741">
        <ele>1566.2</ele>
        <time>2021-10-08T14:20:35Z</time>
      </trkpt>
      <trkpt lat="44.83272" lon="5.45743">
        <ele>1566.2</ele>
        <time>2021-10-08T14:20:36Z</time>
      </trkpt>
      <trkpt lat="44.83273" lon="5.45745">
        <ele>1566.2</ele>
        <time>2021-10-08T14:20:37Z</time>
      </trkpt>
      <trkpt lat="44.83274" lon="5.45747">
        <ele>1566.2</ele>
        <time>2021-10-08T14:20:38Z</time>
      </trkpt>
      <trkpt lat="44.83274" lon="5.45749">
        <ele>1566.6</ele>
        <time>2021-10-08T14:20:39Z</time>
      </trkpt>
      <trkpt lat="44.83275" lon="5.45751">
        <ele>1566.6</ele>
        <time>2021-10-08T14:20:40Z</time>
      </trkpt>
      <trkpt lat="44.83276" lon="5.45753">
        <ele>1567.2</ele>
        <time>2021-10-08T14:20:41Z</time>
      </trkpt>
      <trkpt lat="44.83276" lon="5.45755">
        <ele>1567.6</ele>
        <time>2021-10-08T14:20:42Z</time>
      </trkpt>
      <trkpt lat="44.83276" lon="5.45757">
        <ele>1567.6</ele>
        <time>2021-10-08T14:20:43Z</time>
      </trkpt>
      <trkpt lat="44.83276" lon="5.45759">
        <ele>1567.6</ele>
        <time>2021-10-08T14:20:44Z</time>
      </trkpt>
      <trkpt lat="44.83275" lon="5.45761">
        <ele>1568</ele>
        <time>2021-10-08T14:20:45Z</time>
      </trkpt>
      <trkpt lat="44.83276" lon="5.45763">
        <ele>1567.8</ele>
        <time>2021-10-08T14:20:46Z</time>
      </trkpt>
      <trkpt lat="44.83276" lon="5.45765">
        <ele>1567.8</ele>
        <time>2021-10-08T14:20:47Z</time>
      </trkpt>
      <trkpt lat="44.83276" lon="5.45768">
        <ele>1567.8</ele>
        <time>2021-10-08T14:20:48Z</time>
      </trkpt>
      <trkpt lat="44.83276" lon="5.4577">
        <ele>1568.2</ele>
        <time>2021-10-08T14:20:49Z</time>
      </trkpt>
      <trkpt lat="44.83277" lon="5.45772">
        <ele>1568.6</ele>
        <time>2021-10-08T14:20:50Z</time>
      </trkpt>
      <trkpt lat="44.83277" lon="5.45774">
        <ele>1568.6</ele>
        <time>2021-10-08T14:20:51Z</time>
      </trkpt>
      <trkpt lat="44.83277" lon="5.45776">
        <ele>1568.6</ele>
        <time>2021-10-08T14:20:52Z</time>
      </trkpt>
      <trkpt lat="44.83276" lon="5.45778">
        <ele>1569.4</ele>
        <time>2021-10-08T14:20:53Z</time>
      </trkpt>
      <trkpt lat="44.83276" lon="5.45781">
        <ele>1569.2</ele>
        <time>2021-10-08T14:20:54Z</time>
      </trkpt>
      <trkpt lat="44.83277" lon="5.45783">
        <ele>1569.2</ele>
        <time>2021-10-08T14:20:55Z</time>
      </trkpt>
      <trkpt lat="44.83277" lon="5.45785">
        <ele>1569.2</ele>
        <time>2021-10-08T14:20:56Z</time>
      </trkpt>
      <trkpt lat="44.83277" lon="5.45788">
        <ele>1569.2</ele>
        <time>2021-10-08T14:20:57Z</time>
      </trkpt>
      <trkpt lat="44.83278" lon="5.4579">
        <ele>1570.2</ele>
        <time>2021-10-08T14:20:58Z</time>
      </trkpt>
      <trkpt lat="44.83278" lon="5.45792">
        <ele>1570.2</ele>
        <time>2021-10-08T14:20:59Z</time>
      </trkpt>
      <trkpt lat="44.83278" lon="5.45794">
        <ele>1570.2</ele>
        <time>2021-10-08T14:21:00Z</time>
      </trkpt>
      <trkpt lat="44.83278" lon="5.45796">
        <ele>1570.6</ele>
        <time>2021-10-08T14:21:01Z</time>
      </trkpt>
      <trkpt lat="44.83279" lon="5.45798">
        <ele>1570.8</ele>
        <time>2021-10-08T14:21:02Z</time>
      </trkpt>
      <trkpt lat="44.83279" lon="5.45801">
        <ele>1570.8</ele>
        <time>2021-10-08T14:21:03Z</time>
      </trkpt>
      <trkpt lat="44.83279" lon="5.45803">
        <ele>1570.8</ele>
        <time>2021-10-08T14:21:04Z</time>
      </trkpt>
      <trkpt lat="44.83279" lon="5.45806">
        <ele>1570.8</ele>
        <time>2021-10-08T14:21:05Z</time>
      </trkpt>
      <trkpt lat="44.83279" lon="5.45808">
        <ele>1570.8</ele>
        <time>2021-10-08T14:21:06Z</time>
      </trkpt>
      <trkpt lat="44.83279" lon="5.4581">
        <ele>1570.8</ele>
        <time>2021-10-08T14:21:07Z</time>
      </trkpt>
      <trkpt lat="44.83279" lon="5.45813">
        <ele>1570.8</ele>
        <time>2021-10-08T14:21:08Z</time>
      </trkpt>
      <trkpt lat="44.83279" lon="5.45815">
        <ele>1570.8</ele>
        <time>2021-10-08T14:21:09Z</time>
      </trkpt>
      <trkpt lat="44.83279" lon="5.45818">
        <ele>1571</ele>
        <time>2021-10-08T14:21:10Z</time>
      </trkpt>
      <trkpt lat="44.83279" lon="5.4582">
        <ele>1571</ele>
        <time>2021-10-08T14:21:11Z</time>
      </trkpt>
      <trkpt lat="44.83279" lon="5.45822">
        <ele>1571</ele>
        <time>2021-10-08T14:21:12Z</time>
      </trkpt>
      <trkpt lat="44.83279" lon="5.45825">
        <ele>1571.8</ele>
        <time>2021-10-08T14:21:13Z</time>
      </trkpt>
      <trkpt lat="44.83279" lon="5.45827">
        <ele>1572</ele>
        <time>2021-10-08T14:21:14Z</time>
      </trkpt>
      <trkpt lat="44.83279" lon="5.45829">
        <ele>1572</ele>
        <time>2021-10-08T14:21:15Z</time>
      </trkpt>
      <trkpt lat="44.83279" lon="5.45831">
        <ele>1572</ele>
        <time>2021-10-08T14:21:16Z</time>
      </trkpt>
      <trkpt lat="44.83279" lon="5.45833">
        <ele>1572.4</ele>
        <time>2021-10-08T14:21:17Z</time>
      </trkpt>
      <trkpt lat="44.83279" lon="5.45835">
        <ele>1572.6</ele>
        <time>2021-10-08T14:21:18Z</time>
      </trkpt>
      <trkpt lat="44.83279" lon="5.45837">
        <ele>1572.6</ele>
        <time>2021-10-08T14:21:19Z</time>
      </trkpt>
      <trkpt lat="44.83278" lon="5.45839">
        <ele>1572.6</ele>
        <time>2021-10-08T14:21:20Z</time>
      </trkpt>
      <trkpt lat="44.83278" lon="5.45841">
        <ele>1573.2</ele>
        <time>2021-10-08T14:21:21Z</time>
      </trkpt>
      <trkpt lat="44.83278" lon="5.45842">
        <ele>1573.2</ele>
        <time>2021-10-08T14:21:22Z</time>
      </trkpt>
      <trkpt lat="44.83277" lon="5.45844">
        <ele>1573.2</ele>
        <time>2021-10-08T14:21:23Z</time>
      </trkpt>
      <trkpt lat="44.83276" lon="5.45846">
        <ele>1573.2</ele>
        <time>2021-10-08T14:21:24Z</time>
      </trkpt>
      <trkpt lat="44.83276" lon="5.45848">
        <ele>1573.2</ele>
        <time>2021-10-08T14:21:25Z</time>
      </trkpt>
      <trkpt lat="44.83276" lon="5.45851">
        <ele>1574</ele>
        <time>2021-10-08T14:21:26Z</time>
      </trkpt>
      <trkpt lat="44.83275" lon="5.45853">
        <ele>1574</ele>
        <time>2021-10-08T14:21:27Z</time>
      </trkpt>
      <trkpt lat="44.83275" lon="5.45855">
        <ele>1574</ele>
        <time>2021-10-08T14:21:28Z</time>
      </trkpt>
      <trkpt lat="44.83275" lon="5.45857">
        <ele>1574</ele>
        <time>2021-10-08T14:21:29Z</time>
      </trkpt>
      <trkpt lat="44.83275" lon="5.4586">
        <ele>1574.2</ele>
        <time>2021-10-08T14:21:30Z</time>
      </trkpt>
      <trkpt lat="44.83275" lon="5.45862">
        <ele>1574.2</ele>
        <time>2021-10-08T14:21:31Z</time>
      </trkpt>
      <trkpt lat="44.83274" lon="5.45864">
        <ele>1574.2</ele>
        <time>2021-10-08T14:21:32Z</time>
      </trkpt>
      <trkpt lat="44.83274" lon="5.45866">
        <ele>1574.2</ele>
        <time>2021-10-08T14:21:33Z</time>
      </trkpt>
      <trkpt lat="44.83273" lon="5.45867">
        <ele>1574.2</ele>
        <time>2021-10-08T14:21:34Z</time>
      </trkpt>
      <trkpt lat="44.83273" lon="5.4587">
        <ele>1574.2</ele>
        <time>2021-10-08T14:21:35Z</time>
      </trkpt>
      <trkpt lat="44.83273" lon="5.45871">
        <ele>1574.2</ele>
        <time>2021-10-08T14:21:36Z</time>
      </trkpt>
      <trkpt lat="44.83273" lon="5.45874">
        <ele>1575</ele>
        <time>2021-10-08T14:21:37Z</time>
      </trkpt>
      <trkpt lat="44.83273" lon="5.45876">
        <ele>1575.2</ele>
        <time>2021-10-08T14:21:38Z</time>
      </trkpt>
      <trkpt lat="44.83273" lon="5.45878">
        <ele>1575.2</ele>
        <time>2021-10-08T14:21:39Z</time>
      </trkpt>
      <trkpt lat="44.83272" lon="5.4588">
        <ele>1575.2</ele>
        <time>2021-10-08T14:21:40Z</time>
      </trkpt>
      <trkpt lat="44.83272" lon="5.45882">
        <ele>1575.2</ele>
        <time>2021-10-08T14:21:41Z</time>
      </trkpt>
      <trkpt lat="44.83271" lon="5.45884">
        <ele>1575.6</ele>
        <time>2021-10-08T14:21:42Z</time>
      </trkpt>
      <trkpt lat="44.83271" lon="5.45887">
        <ele>1575.6</ele>
        <time>2021-10-08T14:21:43Z</time>
      </trkpt>
      <trkpt lat="44.83271" lon="5.45889">
        <ele>1575.6</ele>
        <time>2021-10-08T14:21:44Z</time>
      </trkpt>
      <trkpt lat="44.83271" lon="5.45891">
        <ele>1575.6</ele>
        <time>2021-10-08T14:21:45Z</time>
      </trkpt>
      <trkpt lat="44.83271" lon="5.45893">
        <ele>1576.2</ele>
        <time>2021-10-08T14:21:46Z</time>
      </trkpt>
      <trkpt lat="44.83271" lon="5.45895">
        <ele>1576.2</ele>
        <time>2021-10-08T14:21:47Z</time>
      </trkpt>
      <trkpt lat="44.8327" lon="5.45897">
        <ele>1576.2</ele>
        <time>2021-10-08T14:21:48Z</time>
      </trkpt>
      <trkpt lat="44.83269" lon="5.45899">
        <ele>1576.2</ele>
        <time>2021-10-08T14:21:49Z</time>
      </trkpt>
      <trkpt lat="44.83269" lon="5.45901">
        <ele>1576.4</ele>
        <time>2021-10-08T14:21:50Z</time>
      </trkpt>
      <trkpt lat="44.83269" lon="5.45903">
        <ele>1576.4</ele>
        <time>2021-10-08T14:21:51Z</time>
      </trkpt>
      <trkpt lat="44.83268" lon="5.45904">
        <ele>1576.4</ele>
        <time>2021-10-08T14:21:52Z</time>
      </trkpt>
      <trkpt lat="44.83267" lon="5.45906">
        <ele>1576.4</ele>
        <time>2021-10-08T14:21:53Z</time>
      </trkpt>
      <trkpt lat="44.83267" lon="5.45908">
        <ele>1576.6</ele>
        <time>2021-10-08T14:21:54Z</time>
      </trkpt>
      <trkpt lat="44.83266" lon="5.4591">
        <ele>1576.6</ele>
        <time>2021-10-08T14:21:55Z</time>
      </trkpt>
      <trkpt lat="44.83266" lon="5.45911">
        <ele>1576.6</ele>
        <time>2021-10-08T14:21:56Z</time>
      </trkpt>
      <trkpt lat="44.83265" lon="5.45913">
        <ele>1577.6</ele>
        <time>2021-10-08T14:21:57Z</time>
      </trkpt>
      <trkpt lat="44.83264" lon="5.45915">
        <ele>1577.8</ele>
        <time>2021-10-08T14:21:58Z</time>
      </trkpt>
      <trkpt lat="44.83264" lon="5.45917">
        <ele>1577.8</ele>
        <time>2021-10-08T14:21:59Z</time>
      </trkpt>
      <trkpt lat="44.83264" lon="5.45919">
        <ele>1577.8</ele>
        <time>2021-10-08T14:22:00Z</time>
      </trkpt>
      <trkpt lat="44.83264" lon="5.45921">
        <ele>1577.8</ele>
        <time>2021-10-08T14:22:01Z</time>
      </trkpt>
      <trkpt lat="44.83264" lon="5.45923">
        <ele>1578.4</ele>
        <time>2021-10-08T14:22:02Z</time>
      </trkpt>
      <trkpt lat="44.83263" lon="5.45925">
        <ele>1578.4</ele>
        <time>2021-10-08T14:22:03Z</time>
      </trkpt>
      <trkpt lat="44.83263" lon="5.45927">
        <ele>1578.4</ele>
        <time>2021-10-08T14:22:04Z</time>
      </trkpt>
      <trkpt lat="44.83263" lon="5.45929">
        <ele>1578.4</ele>
        <time>2021-10-08T14:22:05Z</time>
      </trkpt>
      <trkpt lat="44.83263" lon="5.45931">
        <ele>1578.8</ele>
        <time>2021-10-08T14:22:06Z</time>
      </trkpt>
      <trkpt lat="44.83262" lon="5.45933">
        <ele>1578.8</ele>
        <time>2021-10-08T14:22:07Z</time>
      </trkpt>
      <trkpt lat="44.83262" lon="5.45935">
        <ele>1578.8</ele>
        <time>2021-10-08T14:22:08Z</time>
      </trkpt>
      <trkpt lat="44.83261" lon="5.45937">
        <ele>1579.4</ele>
        <time>2021-10-08T14:22:09Z</time>
      </trkpt>
      <trkpt lat="44.83261" lon="5.45939">
        <ele>1579.4</ele>
        <time>2021-10-08T14:22:10Z</time>
      </trkpt>
      <trkpt lat="44.83261" lon="5.4594">
        <ele>1579.4</ele>
        <time>2021-10-08T14:22:11Z</time>
      </trkpt>
      <trkpt lat="44.8326" lon="5.45942">
        <ele>1580</ele>
        <time>2021-10-08T14:22:12Z</time>
      </trkpt>
      <trkpt lat="44.8326" lon="5.45943">
        <ele>1580</ele>
        <time>2021-10-08T14:22:13Z</time>
      </trkpt>
      <trkpt lat="44.8326" lon="5.45945">
        <ele>1580.4</ele>
        <time>2021-10-08T14:22:14Z</time>
      </trkpt>
      <trkpt lat="44.8326" lon="5.45947">
        <ele>1580.4</ele>
        <time>2021-10-08T14:22:15Z</time>
      </trkpt>
      <trkpt lat="44.8326" lon="5.45949">
        <ele>1580.4</ele>
        <time>2021-10-08T14:22:16Z</time>
      </trkpt>
      <trkpt lat="44.83261" lon="5.4595">
        <ele>1580.8</ele>
        <time>2021-10-08T14:22:17Z</time>
      </trkpt>
      <trkpt lat="44.83261" lon="5.45952">
        <ele>1580.8</ele>
        <time>2021-10-08T14:22:18Z</time>
      </trkpt>
      <trkpt lat="44.83261" lon="5.45955">
        <ele>1580.8</ele>
        <time>2021-10-08T14:22:19Z</time>
      </trkpt>
      <trkpt lat="44.83261" lon="5.45956">
        <ele>1580.8</ele>
        <time>2021-10-08T14:22:20Z</time>
      </trkpt>
      <trkpt lat="44.83261" lon="5.45958">
        <ele>1581.6</ele>
        <time>2021-10-08T14:22:21Z</time>
      </trkpt>
      <trkpt lat="44.83261" lon="5.4596">
        <ele>1581.4</ele>
        <time>2021-10-08T14:22:22Z</time>
      </trkpt>
      <trkpt lat="44.83261" lon="5.45962">
        <ele>1581.4</ele>
        <time>2021-10-08T14:22:23Z</time>
      </trkpt>
      <trkpt lat="44.8326" lon="5.45964">
        <ele>1581.4</ele>
        <time>2021-10-08T14:22:24Z</time>
      </trkpt>
      <trkpt lat="44.83261" lon="5.45965">
        <ele>1581.4</ele>
        <time>2021-10-08T14:22:25Z</time>
      </trkpt>
      <trkpt lat="44.8326" lon="5.45967">
        <ele>1582</ele>
        <time>2021-10-08T14:22:26Z</time>
      </trkpt>
      <trkpt lat="44.83261" lon="5.45969">
        <ele>1582</ele>
        <time>2021-10-08T14:22:27Z</time>
      </trkpt>
      <trkpt lat="44.83261" lon="5.4597">
        <ele>1582</ele>
        <time>2021-10-08T14:22:28Z</time>
      </trkpt>
      <trkpt lat="44.83262" lon="5.45972">
        <ele>1582</ele>
        <time>2021-10-08T14:22:29Z</time>
      </trkpt>
      <trkpt lat="44.83262" lon="5.45974">
        <ele>1582.2</ele>
        <time>2021-10-08T14:22:30Z</time>
      </trkpt>
      <trkpt lat="44.83262" lon="5.45976">
        <ele>1582.2</ele>
        <time>2021-10-08T14:22:31Z</time>
      </trkpt>
      <trkpt lat="44.83261" lon="5.45977">
        <ele>1582.2</ele>
        <time>2021-10-08T14:22:32Z</time>
      </trkpt>
      <trkpt lat="44.83261" lon="5.45979">
        <ele>1582.2</ele>
        <time>2021-10-08T14:22:33Z</time>
      </trkpt>
      <trkpt lat="44.83261" lon="5.45981">
        <ele>1582</ele>
        <time>2021-10-08T14:22:34Z</time>
      </trkpt>
      <trkpt lat="44.83261" lon="5.45982">
        <ele>1582</ele>
        <time>2021-10-08T14:22:35Z</time>
      </trkpt>
      <trkpt lat="44.83261" lon="5.45984">
        <ele>1582</ele>
        <time>2021-10-08T14:22:36Z</time>
      </trkpt>
      <trkpt lat="44.83261" lon="5.45986">
        <ele>1582</ele>
        <time>2021-10-08T14:22:37Z</time>
      </trkpt>
      <trkpt lat="44.83261" lon="5.45988">
        <ele>1582.2</ele>
        <time>2021-10-08T14:22:38Z</time>
      </trkpt>
      <trkpt lat="44.83261" lon="5.4599">
        <ele>1582.2</ele>
        <time>2021-10-08T14:22:39Z</time>
      </trkpt>
      <trkpt lat="44.8326" lon="5.45992">
        <ele>1582.2</ele>
        <time>2021-10-08T14:22:40Z</time>
      </trkpt>
      <trkpt lat="44.8326" lon="5.45994">
        <ele>1582.6</ele>
        <time>2021-10-08T14:22:41Z</time>
      </trkpt>
      <trkpt lat="44.8326" lon="5.45996">
        <ele>1582.8</ele>
        <time>2021-10-08T14:22:42Z</time>
      </trkpt>
      <trkpt lat="44.8326" lon="5.45999">
        <ele>1582.8</ele>
        <time>2021-10-08T14:22:43Z</time>
      </trkpt>
      <trkpt lat="44.83259" lon="5.46001">
        <ele>1582.8</ele>
        <time>2021-10-08T14:22:44Z</time>
      </trkpt>
      <trkpt lat="44.83259" lon="5.46004">
        <ele>1582.8</ele>
        <time>2021-10-08T14:22:45Z</time>
      </trkpt>
      <trkpt lat="44.83259" lon="5.46006">
        <ele>1583.6</ele>
        <time>2021-10-08T14:22:46Z</time>
      </trkpt>
      <trkpt lat="44.83258" lon="5.46008">
        <ele>1583.6</ele>
        <time>2021-10-08T14:22:47Z</time>
      </trkpt>
      <trkpt lat="44.83258" lon="5.4601">
        <ele>1583.6</ele>
        <time>2021-10-08T14:22:48Z</time>
      </trkpt>
      <trkpt lat="44.83258" lon="5.46012">
        <ele>1583.6</ele>
        <time>2021-10-08T14:22:49Z</time>
      </trkpt>
      <trkpt lat="44.83257" lon="5.46014">
        <ele>1584</ele>
        <time>2021-10-08T14:22:50Z</time>
      </trkpt>
      <trkpt lat="44.83257" lon="5.46016">
        <ele>1584</ele>
        <time>2021-10-08T14:22:51Z</time>
      </trkpt>
      <trkpt lat="44.83256" lon="5.46018">
        <ele>1584</ele>
        <time>2021-10-08T14:22:52Z</time>
      </trkpt>
      <trkpt lat="44.83256" lon="5.46021">
        <ele>1584</ele>
        <time>2021-10-08T14:22:53Z</time>
      </trkpt>
      <trkpt lat="44.83255" lon="5.46023">
        <ele>1584</ele>
        <time>2021-10-08T14:22:54Z</time>
      </trkpt>
      <trkpt lat="44.83255" lon="5.46025">
        <ele>1584</ele>
        <time>2021-10-08T14:22:55Z</time>
      </trkpt>
      <trkpt lat="44.83254" lon="5.46027">
        <ele>1584</ele>
        <time>2021-10-08T14:22:56Z</time>
      </trkpt>
      <trkpt lat="44.83254" lon="5.46029">
        <ele>1584</ele>
        <time>2021-10-08T14:22:57Z</time>
      </trkpt>
      <trkpt lat="44.83253" lon="5.46031">
        <ele>1584.8</ele>
        <time>2021-10-08T14:22:58Z</time>
      </trkpt>
      <trkpt lat="44.83253" lon="5.46033">
        <ele>1584.8</ele>
        <time>2021-10-08T14:22:59Z</time>
      </trkpt>
      <trkpt lat="44.83253" lon="5.46035">
        <ele>1584.8</ele>
        <time>2021-10-08T14:23:00Z</time>
      </trkpt>
      <trkpt lat="44.83252" lon="5.46038">
        <ele>1584.6</ele>
        <time>2021-10-08T14:23:01Z</time>
      </trkpt>
      <trkpt lat="44.83252" lon="5.4604">
        <ele>1585.2</ele>
        <time>2021-10-08T14:23:02Z</time>
      </trkpt>
      <trkpt lat="44.83251" lon="5.46042">
        <ele>1585.2</ele>
        <time>2021-10-08T14:23:03Z</time>
      </trkpt>
      <trkpt lat="44.83251" lon="5.46044">
        <ele>1585.2</ele>
        <time>2021-10-08T14:23:04Z</time>
      </trkpt>
      <trkpt lat="44.8325" lon="5.46047">
        <ele>1585.2</ele>
        <time>2021-10-08T14:23:05Z</time>
      </trkpt>
      <trkpt lat="44.8325" lon="5.46049">
        <ele>1585.4</ele>
        <time>2021-10-08T14:23:06Z</time>
      </trkpt>
      <trkpt lat="44.83249" lon="5.46051">
        <ele>1585.4</ele>
        <time>2021-10-08T14:23:07Z</time>
      </trkpt>
      <trkpt lat="44.83248" lon="5.46054">
        <ele>1585.4</ele>
        <time>2021-10-08T14:23:08Z</time>
      </trkpt>
      <trkpt lat="44.83248" lon="5.46056">
        <ele>1585.4</ele>
        <time>2021-10-08T14:23:09Z</time>
      </trkpt>
      <trkpt lat="44.83247" lon="5.46058">
        <ele>1585</ele>
        <time>2021-10-08T14:23:10Z</time>
      </trkpt>
      <trkpt lat="44.83247" lon="5.46061">
        <ele>1585</ele>
        <time>2021-10-08T14:23:11Z</time>
      </trkpt>
      <trkpt lat="44.83246" lon="5.46063">
        <ele>1585</ele>
        <time>2021-10-08T14:23:12Z</time>
      </trkpt>
      <trkpt lat="44.83246" lon="5.46065">
        <ele>1586</ele>
        <time>2021-10-08T14:23:13Z</time>
      </trkpt>
      <trkpt lat="44.83245" lon="5.46067">
        <ele>1585.8</ele>
        <time>2021-10-08T14:23:14Z</time>
      </trkpt>
      <trkpt lat="44.83245" lon="5.4607">
        <ele>1585.8</ele>
        <time>2021-10-08T14:23:15Z</time>
      </trkpt>
      <trkpt lat="44.83244" lon="5.46072">
        <ele>1585.8</ele>
        <time>2021-10-08T14:23:16Z</time>
      </trkpt>
      <trkpt lat="44.83243" lon="5.46074">
        <ele>1586</ele>
        <time>2021-10-08T14:23:17Z</time>
      </trkpt>
      <trkpt lat="44.83243" lon="5.46076">
        <ele>1586.2</ele>
        <time>2021-10-08T14:23:18Z</time>
      </trkpt>
      <trkpt lat="44.83242" lon="5.46079">
        <ele>1586.2</ele>
        <time>2021-10-08T14:23:19Z</time>
      </trkpt>
      <trkpt lat="44.83242" lon="5.46081">
        <ele>1586.2</ele>
        <time>2021-10-08T14:23:20Z</time>
      </trkpt>
      <trkpt lat="44.83241" lon="5.46083">
        <ele>1586.6</ele>
        <time>2021-10-08T14:23:21Z</time>
      </trkpt>
      <trkpt lat="44.83241" lon="5.46085">
        <ele>1587.2</ele>
        <time>2021-10-08T14:23:22Z</time>
      </trkpt>
      <trkpt lat="44.8324" lon="5.46087">
        <ele>1587.2</ele>
        <time>2021-10-08T14:23:23Z</time>
      </trkpt>
      <trkpt lat="44.8324" lon="5.4609">
        <ele>1587.2</ele>
        <time>2021-10-08T14:23:24Z</time>
      </trkpt>
      <trkpt lat="44.8324" lon="5.46092">
        <ele>1587.2</ele>
        <time>2021-10-08T14:23:25Z</time>
      </trkpt>
      <trkpt lat="44.83239" lon="5.46094">
        <ele>1587.6</ele>
        <time>2021-10-08T14:23:26Z</time>
      </trkpt>
      <trkpt lat="44.83239" lon="5.46096">
        <ele>1587.6</ele>
        <time>2021-10-08T14:23:27Z</time>
      </trkpt>
      <trkpt lat="44.83238" lon="5.46098">
        <ele>1587.6</ele>
        <time>2021-10-08T14:23:28Z</time>
      </trkpt>
      <trkpt lat="44.83238" lon="5.461">
        <ele>1587.8</ele>
        <time>2021-10-08T14:23:29Z</time>
      </trkpt>
      <trkpt lat="44.83237" lon="5.46103">
        <ele>1588</ele>
        <time>2021-10-08T14:23:30Z</time>
      </trkpt>
      <trkpt lat="44.83237" lon="5.46105">
        <ele>1588</ele>
        <time>2021-10-08T14:23:31Z</time>
      </trkpt>
      <trkpt lat="44.83237" lon="5.46108">
        <ele>1588</ele>
        <time>2021-10-08T14:23:32Z</time>
      </trkpt>
      <trkpt lat="44.83236" lon="5.4611">
        <ele>1588</ele>
        <time>2021-10-08T14:23:33Z</time>
      </trkpt>
      <trkpt lat="44.83236" lon="5.46112">
        <ele>1589</ele>
        <time>2021-10-08T14:23:34Z</time>
      </trkpt>
      <trkpt lat="44.83235" lon="5.46115">
        <ele>1589</ele>
        <time>2021-10-08T14:23:35Z</time>
      </trkpt>
      <trkpt lat="44.83235" lon="5.46117">
        <ele>1589</ele>
        <time>2021-10-08T14:23:36Z</time>
      </trkpt>
      <trkpt lat="44.83234" lon="5.46119">
        <ele>1589</ele>
        <time>2021-10-08T14:23:37Z</time>
      </trkpt>
      <trkpt lat="44.83234" lon="5.46121">
        <ele>1589.2</ele>
        <time>2021-10-08T14:23:38Z</time>
      </trkpt>
      <trkpt lat="44.83234" lon="5.46123">
        <ele>1589.2</ele>
        <time>2021-10-08T14:23:39Z</time>
      </trkpt>
      <trkpt lat="44.83233" lon="5.46125">
        <ele>1589.2</ele>
        <time>2021-10-08T14:23:40Z</time>
      </trkpt>
      <trkpt lat="44.83233" lon="5.46127">
        <ele>1589.6</ele>
        <time>2021-10-08T14:23:41Z</time>
      </trkpt>
      <trkpt lat="44.83233" lon="5.4613">
        <ele>1589.6</ele>
        <time>2021-10-08T14:23:42Z</time>
      </trkpt>
      <trkpt lat="44.83233" lon="5.46132">
        <ele>1589.6</ele>
        <time>2021-10-08T14:23:43Z</time>
      </trkpt>
      <trkpt lat="44.83233" lon="5.46134">
        <ele>1589.6</ele>
        <time>2021-10-08T14:23:44Z</time>
      </trkpt>
      <trkpt lat="44.83232" lon="5.46137">
        <ele>1589.6</ele>
        <time>2021-10-08T14:23:45Z</time>
      </trkpt>
      <trkpt lat="44.83232" lon="5.46139">
        <ele>1590.2</ele>
        <time>2021-10-08T14:23:46Z</time>
      </trkpt>
      <trkpt lat="44.83232" lon="5.46141">
        <ele>1590.2</ele>
        <time>2021-10-08T14:23:47Z</time>
      </trkpt>
      <trkpt lat="44.83232" lon="5.46143">
        <ele>1590.2</ele>
        <time>2021-10-08T14:23:48Z</time>
      </trkpt>
      <trkpt lat="44.83232" lon="5.46146">
        <ele>1590.2</ele>
        <time>2021-10-08T14:23:49Z</time>
      </trkpt>
      <trkpt lat="44.83231" lon="5.46148">
        <ele>1590.2</ele>
        <time>2021-10-08T14:23:50Z</time>
      </trkpt>
      <trkpt lat="44.83231" lon="5.4615">
        <ele>1590.2</ele>
        <time>2021-10-08T14:23:51Z</time>
      </trkpt>
      <trkpt lat="44.8323" lon="5.46152">
        <ele>1590.2</ele>
        <time>2021-10-08T14:23:52Z</time>
      </trkpt>
      <trkpt lat="44.83229" lon="5.46154">
        <ele>1590.8</ele>
        <time>2021-10-08T14:23:53Z</time>
      </trkpt>
      <trkpt lat="44.83228" lon="5.46156">
        <ele>1590.4</ele>
        <time>2021-10-08T14:23:54Z</time>
      </trkpt>
      <trkpt lat="44.83227" lon="5.46158">
        <ele>1590.4</ele>
        <time>2021-10-08T14:23:55Z</time>
      </trkpt>
      <trkpt lat="44.83226" lon="5.4616">
        <ele>1590.4</ele>
        <time>2021-10-08T14:23:56Z</time>
      </trkpt>
      <trkpt lat="44.83226" lon="5.46162">
        <ele>1591.2</ele>
        <time>2021-10-08T14:23:57Z</time>
      </trkpt>
      <trkpt lat="44.83225" lon="5.46164">
        <ele>1591.4</ele>
        <time>2021-10-08T14:23:58Z</time>
      </trkpt>
      <trkpt lat="44.83224" lon="5.46166">
        <ele>1591.4</ele>
        <time>2021-10-08T14:23:59Z</time>
      </trkpt>
      <trkpt lat="44.83223" lon="5.46168">
        <ele>1591.4</ele>
        <time>2021-10-08T14:24:00Z</time>
      </trkpt>
      <trkpt lat="44.83222" lon="5.4617">
        <ele>1591.4</ele>
        <time>2021-10-08T14:24:01Z</time>
      </trkpt>
      <trkpt lat="44.83221" lon="5.46172">
        <ele>1591.6</ele>
        <time>2021-10-08T14:24:02Z</time>
      </trkpt>
      <trkpt lat="44.8322" lon="5.46174">
        <ele>1591.6</ele>
        <time>2021-10-08T14:24:03Z</time>
      </trkpt>
      <trkpt lat="44.8322" lon="5.46176">
        <ele>1591.6</ele>
        <time>2021-10-08T14:24:04Z</time>
      </trkpt>
      <trkpt lat="44.83219" lon="5.46178">
        <ele>1591.6</ele>
        <time>2021-10-08T14:24:05Z</time>
      </trkpt>
      <trkpt lat="44.83218" lon="5.46179">
        <ele>1591.6</ele>
        <time>2021-10-08T14:24:06Z</time>
      </trkpt>
      <trkpt lat="44.83218" lon="5.46181">
        <ele>1592.8</ele>
        <time>2021-10-08T14:24:07Z</time>
      </trkpt>
      <trkpt lat="44.83217" lon="5.46183">
        <ele>1592.8</ele>
        <time>2021-10-08T14:24:08Z</time>
      </trkpt>
      <trkpt lat="44.83216" lon="5.46185">
        <ele>1592.8</ele>
        <time>2021-10-08T14:24:09Z</time>
      </trkpt>
      <trkpt lat="44.83215" lon="5.46186">
        <ele>1593</ele>
        <time>2021-10-08T14:24:10Z</time>
      </trkpt>
      <trkpt lat="44.83214" lon="5.46188">
        <ele>1593</ele>
        <time>2021-10-08T14:24:11Z</time>
      </trkpt>
      <trkpt lat="44.83213" lon="5.4619">
        <ele>1593</ele>
        <time>2021-10-08T14:24:12Z</time>
      </trkpt>
      <trkpt lat="44.83212" lon="5.46192">
        <ele>1593</ele>
        <time>2021-10-08T14:24:13Z</time>
      </trkpt>
      <trkpt lat="44.83211" lon="5.46193">
        <ele>1594</ele>
        <time>2021-10-08T14:24:14Z</time>
      </trkpt>
      <trkpt lat="44.8321" lon="5.46195">
        <ele>1594</ele>
        <time>2021-10-08T14:24:15Z</time>
      </trkpt>
      <trkpt lat="44.83209" lon="5.46197">
        <ele>1594</ele>
        <time>2021-10-08T14:24:16Z</time>
      </trkpt>
      <trkpt lat="44.83209" lon="5.46198">
        <ele>1594.2</ele>
        <time>2021-10-08T14:24:17Z</time>
      </trkpt>
      <trkpt lat="44.83208" lon="5.462">
        <ele>1594.8</ele>
        <time>2021-10-08T14:24:18Z</time>
      </trkpt>
      <trkpt lat="44.83207" lon="5.46201">
        <ele>1594.8</ele>
        <time>2021-10-08T14:24:19Z</time>
      </trkpt>
      <trkpt lat="44.83206" lon="5.46203">
        <ele>1594.8</ele>
        <time>2021-10-08T14:24:20Z</time>
      </trkpt>
      <trkpt lat="44.83206" lon="5.46204">
        <ele>1594.8</ele>
        <time>2021-10-08T14:24:21Z</time>
      </trkpt>
      <trkpt lat="44.83205" lon="5.46206">
        <ele>1595.2</ele>
        <time>2021-10-08T14:24:22Z</time>
      </trkpt>
      <trkpt lat="44.83204" lon="5.46207">
        <ele>1595.2</ele>
        <time>2021-10-08T14:24:23Z</time>
      </trkpt>
      <trkpt lat="44.83203" lon="5.46208">
        <ele>1595.2</ele>
        <time>2021-10-08T14:24:24Z</time>
      </trkpt>
      <trkpt lat="44.83203" lon="5.46208">
        <ele>1595.2</ele>
        <time>2021-10-08T14:24:25Z</time>
      </trkpt>
      <trkpt lat="44.83203" lon="5.46208">
        <ele>1595.6</ele>
        <time>2021-10-08T14:24:26Z</time>
      </trkpt>
      <trkpt lat="44.83203" lon="5.46208">
        <ele>1595.6</ele>
        <time>2021-10-08T14:24:27Z</time>
      </trkpt>
      <trkpt lat="44.83202" lon="5.46209">
        <ele>1595.6</ele>
        <time>2021-10-08T14:24:28Z</time>
      </trkpt>
      <trkpt lat="44.83202" lon="5.46209">
        <ele>1595.6</ele>
        <time>2021-10-08T14:24:29Z</time>
      </trkpt>
      <trkpt lat="44.83202" lon="5.4621">
        <ele>1595.6</ele>
        <time>2021-10-08T14:24:30Z</time>
      </trkpt>
      <trkpt lat="44.83201" lon="5.46211">
        <ele>1595.6</ele>
        <time>2021-10-08T14:24:31Z</time>
      </trkpt>
      <trkpt lat="44.83201" lon="5.46212">
        <ele>1595.6</ele>
        <time>2021-10-08T14:24:32Z</time>
      </trkpt>
      <trkpt lat="44.832" lon="5.46214">
        <ele>1596.2</ele>
        <time>2021-10-08T14:24:33Z</time>
      </trkpt>
      <trkpt lat="44.832" lon="5.46215">
        <ele>1596.8</ele>
        <time>2021-10-08T14:24:34Z</time>
      </trkpt>
      <trkpt lat="44.832" lon="5.46216">
        <ele>1596.8</ele>
        <time>2021-10-08T14:24:35Z</time>
      </trkpt>
      <trkpt lat="44.832" lon="5.46217">
        <ele>1596.8</ele>
        <time>2021-10-08T14:24:36Z</time>
      </trkpt>
      <trkpt lat="44.83199" lon="5.46219">
        <ele>1597.2</ele>
        <time>2021-10-08T14:24:37Z</time>
      </trkpt>
      <trkpt lat="44.83122" lon="5.46591">
        <ele>1633.6</ele>
        <time>2021-10-08T14:30:03Z</time>
      </trkpt>
      <trkpt lat="44.83121" lon="5.46592">
        <ele>1633.6</ele>
        <time>2021-10-08T14:30:04Z</time>
      </trkpt>
      <trkpt lat="44.83121" lon="5.46594">
        <ele>1634</ele>
        <time>2021-10-08T14:30:05Z</time>
      </trkpt>
      <trkpt lat="44.83121" lon="5.46595">
        <ele>1634</ele>
        <time>2021-10-08T14:30:06Z</time>
      </trkpt>
      <trkpt lat="44.83121" lon="5.46597">
        <ele>1634</ele>
        <time>2021-10-08T14:30:07Z</time>
      </trkpt>
      <trkpt lat="44.83121" lon="5.46598">
        <ele>1634</ele>
        <time>2021-10-08T14:30:08Z</time>
      </trkpt>
      <trkpt lat="44.83121" lon="5.46599">
        <ele>1634.6</ele>
        <time>2021-10-08T14:30:09Z</time>
      </trkpt>
      <trkpt lat="44.83122" lon="5.466">
        <ele>1634.6</ele>
        <time>2021-10-08T14:30:10Z</time>
      </trkpt>
      <trkpt lat="44.83122" lon="5.46602">
        <ele>1634.6</ele>
        <time>2021-10-08T14:30:11Z</time>
      </trkpt>
      <trkpt lat="44.83122" lon="5.46604">
        <ele>1634.6</ele>
        <time>2021-10-08T14:30:12Z</time>
      </trkpt>
      <trkpt lat="44.83123" lon="5.46605">
        <ele>1634.6</ele>
        <time>2021-10-08T14:30:13Z</time>
      </trkpt>
      <trkpt lat="44.83123" lon="5.46606">
        <ele>1634.6</ele>
        <time>2021-10-08T14:30:14Z</time>
      </trkpt>
      <trkpt lat="44.83123" lon="5.46608">
        <ele>1634.6</ele>
        <time>2021-10-08T14:30:15Z</time>
      </trkpt>
      <trkpt lat="44.83123" lon="5.46609">
        <ele>1634.6</ele>
        <time>2021-10-08T14:30:16Z</time>
      </trkpt>
      <trkpt lat="44.83123" lon="5.4661">
        <ele>1634.6</ele>
        <time>2021-10-08T14:30:17Z</time>
      </trkpt>
      <trkpt lat="44.83123" lon="5.46612">
        <ele>1635</ele>
        <time>2021-10-08T14:30:18Z</time>
      </trkpt>
      <trkpt lat="44.83123" lon="5.46613">
        <ele>1635</ele>
        <time>2021-10-08T14:30:19Z</time>
      </trkpt>
      <trkpt lat="44.83123" lon="5.46615">
        <ele>1635</ele>
        <time>2021-10-08T14:30:20Z</time>
      </trkpt>
      <trkpt lat="44.83123" lon="5.46616">
        <ele>1635</ele>
        <time>2021-10-08T14:30:21Z</time>
      </trkpt>
      <trkpt lat="44.83123" lon="5.46618">
        <ele>1636</ele>
        <time>2021-10-08T14:30:22Z</time>
      </trkpt>
      <trkpt lat="44.83123" lon="5.46619">
        <ele>1636</ele>
        <time>2021-10-08T14:30:23Z</time>
      </trkpt>
      <trkpt lat="44.83123" lon="5.46621">
        <ele>1636</ele>
        <time>2021-10-08T14:30:24Z</time>
      </trkpt>
      <trkpt lat="44.83123" lon="5.46623">
        <ele>1635.6</ele>
        <time>2021-10-08T14:30:25Z</time>
      </trkpt>
      <trkpt lat="44.83122" lon="5.46624">
        <ele>1635.2</ele>
        <time>2021-10-08T14:30:26Z</time>
      </trkpt>
      <trkpt lat="44.83122" lon="5.46626">
        <ele>1635.2</ele>
        <time>2021-10-08T14:30:27Z</time>
      </trkpt>
      <trkpt lat="44.83122" lon="5.46628">
        <ele>1635.2</ele>
        <time>2021-10-08T14:30:28Z</time>
      </trkpt>
      <trkpt lat="44.83122" lon="5.46629">
        <ele>1635.2</ele>
        <time>2021-10-08T14:30:29Z</time>
      </trkpt>
      <trkpt lat="44.83122" lon="5.46631">
        <ele>1635.8</ele>
        <time>2021-10-08T14:30:30Z</time>
      </trkpt>
      <trkpt lat="44.83122" lon="5.46633">
        <ele>1635.8</ele>
        <time>2021-10-08T14:30:31Z</time>
      </trkpt>
      <trkpt lat="44.83122" lon="5.46634">
        <ele>1635.8</ele>
        <time>2021-10-08T14:30:32Z</time>
      </trkpt>
      <trkpt lat="44.83121" lon="5.46636">
        <ele>1635.8</ele>
        <time>2021-10-08T14:30:33Z</time>
      </trkpt>
      <trkpt lat="44.83121" lon="5.46638">
        <ele>1636</ele>
        <time>2021-10-08T14:30:34Z</time>
      </trkpt>
      <trkpt lat="44.83121" lon="5.4664">
        <ele>1636</ele>
        <time>2021-10-08T14:30:35Z</time>
      </trkpt>
      <trkpt lat="44.83121" lon="5.46641">
        <ele>1636</ele>
        <time>2021-10-08T14:30:36Z</time>
      </trkpt>
      <trkpt lat="44.83121" lon="5.46643">
        <ele>1635.8</ele>
        <time>2021-10-08T14:30:37Z</time>
      </trkpt>
      <trkpt lat="44.83121" lon="5.46645">
        <ele>1635.6</ele>
        <time>2021-10-08T14:30:38Z</time>
      </trkpt>
      <trkpt lat="44.83121" lon="5.46646">
        <ele>1635.6</ele>
        <time>2021-10-08T14:30:39Z</time>
      </trkpt>
      <trkpt lat="44.83121" lon="5.46648">
        <ele>1635.6</ele>
        <time>2021-10-08T14:30:40Z</time>
      </trkpt>
      <trkpt lat="44.83121" lon="5.4665">
        <ele>1636.6</ele>
        <time>2021-10-08T14:30:41Z</time>
      </trkpt>
      <trkpt lat="44.83121" lon="5.46652">
        <ele>1636.2</ele>
        <time>2021-10-08T14:30:42Z</time>
      </trkpt>
      <trkpt lat="44.83121" lon="5.46653">
        <ele>1636.2</ele>
        <time>2021-10-08T14:30:43Z</time>
      </trkpt>
      <trkpt lat="44.83121" lon="5.46655">
        <ele>1636.2</ele>
        <time>2021-10-08T14:30:44Z</time>
      </trkpt>
      <trkpt lat="44.8312" lon="5.46657">
        <ele>1637</ele>
        <time>2021-10-08T14:30:45Z</time>
      </trkpt>
      <trkpt lat="44.8312" lon="5.46658">
        <ele>1637.4</ele>
        <time>2021-10-08T14:30:46Z</time>
      </trkpt>
      <trkpt lat="44.83119" lon="5.4666">
        <ele>1637.4</ele>
        <time>2021-10-08T14:30:47Z</time>
      </trkpt>
      <trkpt lat="44.83119" lon="5.46662">
        <ele>1637.4</ele>
        <time>2021-10-08T14:30:48Z</time>
      </trkpt>
      <trkpt lat="44.83119" lon="5.46663">
        <ele>1637.2</ele>
        <time>2021-10-08T14:30:49Z</time>
      </trkpt>
      <trkpt lat="44.83119" lon="5.46665">
        <ele>1637.4</ele>
        <time>2021-10-08T14:30:50Z</time>
      </trkpt>
      <trkpt lat="44.83119" lon="5.46666">
        <ele>1637.4</ele>
        <time>2021-10-08T14:30:51Z</time>
      </trkpt>
      <trkpt lat="44.83119" lon="5.46667">
        <ele>1637.4</ele>
        <time>2021-10-08T14:30:52Z</time>
      </trkpt>
      <trkpt lat="44.83119" lon="5.46668">
        <ele>1637.2</ele>
        <time>2021-10-08T14:30:53Z</time>
      </trkpt>
      <trkpt lat="44.83119" lon="5.46669">
        <ele>1637.2</ele>
        <time>2021-10-08T14:30:54Z</time>
      </trkpt>
      <trkpt lat="44.83119" lon="5.4667">
        <ele>1637.2</ele>
        <time>2021-10-08T14:30:55Z</time>
      </trkpt>
      <trkpt lat="44.83119" lon="5.46671">
        <ele>1637.2</ele>
        <time>2021-10-08T14:30:56Z</time>
      </trkpt>
      <trkpt lat="44.83119" lon="5.46673">
        <ele>1637.8</ele>
        <time>2021-10-08T14:30:57Z</time>
      </trkpt>
      <trkpt lat="44.83118" lon="5.46674">
        <ele>1637.8</ele>
        <time>2021-10-08T14:30:58Z</time>
      </trkpt>
      <trkpt lat="44.83118" lon="5.46675">
        <ele>1637.8</ele>
        <time>2021-10-08T14:30:59Z</time>
      </trkpt>
      <trkpt lat="44.83118" lon="5.46677">
        <ele>1637.8</ele>
        <time>2021-10-08T14:31:00Z</time>
      </trkpt>
      <trkpt lat="44.83118" lon="5.46678">
        <ele>1638.2</ele>
        <time>2021-10-08T14:31:01Z</time>
      </trkpt>
      <trkpt lat="44.83117" lon="5.46679">
        <ele>1638.6</ele>
        <time>2021-10-08T14:31:02Z</time>
      </trkpt>
      <trkpt lat="44.83118" lon="5.46681">
        <ele>1638.6</ele>
        <time>2021-10-08T14:31:03Z</time>
      </trkpt>
      <trkpt lat="44.83117" lon="5.46682">
        <ele>1638.6</ele>
        <time>2021-10-08T14:31:04Z</time>
      </trkpt>
      <trkpt lat="44.83117" lon="5.46683">
        <ele>1638.6</ele>
        <time>2021-10-08T14:31:05Z</time>
      </trkpt>
      <trkpt lat="44.83117" lon="5.46684">
        <ele>1638.8</ele>
        <time>2021-10-08T14:31:06Z</time>
      </trkpt>
      <trkpt lat="44.83117" lon="5.46686">
        <ele>1638.8</ele>
        <time>2021-10-08T14:31:07Z</time>
      </trkpt>
      <trkpt lat="44.83117" lon="5.46687">
        <ele>1638.8</ele>
        <time>2021-10-08T14:31:08Z</time>
      </trkpt>
      <trkpt lat="44.83117" lon="5.46688">
        <ele>1638.8</ele>
        <time>2021-10-08T14:31:09Z</time>
      </trkpt>
      <trkpt lat="44.83117" lon="5.46689">
        <ele>1639.2</ele>
        <time>2021-10-08T14:31:10Z</time>
      </trkpt>
      <trkpt lat="44.83117" lon="5.4669">
        <ele>1639.2</ele>
        <time>2021-10-08T14:31:11Z</time>
      </trkpt>
      <trkpt lat="44.83116" lon="5.46692">
        <ele>1639.2</ele>
        <time>2021-10-08T14:31:12Z</time>
      </trkpt>
      <trkpt lat="44.83117" lon="5.46693">
        <ele>1639.4</ele>
        <time>2021-10-08T14:31:13Z</time>
      </trkpt>
      <trkpt lat="44.83117" lon="5.46694">
        <ele>1638.8</ele>
        <time>2021-10-08T14:31:14Z</time>
      </trkpt>
      <trkpt lat="44.83116" lon="5.46696">
        <ele>1638.8</ele>
        <time>2021-10-08T14:31:15Z</time>
      </trkpt>
      <trkpt lat="44.83116" lon="5.46697">
        <ele>1638.8</ele>
        <time>2021-10-08T14:31:16Z</time>
      </trkpt>
      <trkpt lat="44.83116" lon="5.46698">
        <ele>1639.8</ele>
        <time>2021-10-08T14:31:17Z</time>
      </trkpt>
      <trkpt lat="44.83116" lon="5.46699">
        <ele>1640</ele>
        <time>2021-10-08T14:31:18Z</time>
      </trkpt>
      <trkpt lat="44.83116" lon="5.467">
        <ele>1640</ele>
        <time>2021-10-08T14:31:19Z</time>
      </trkpt>
      <trkpt lat="44.83116" lon="5.46702">
        <ele>1640</ele>
        <time>2021-10-08T14:31:20Z</time>
      </trkpt>
      <trkpt lat="44.83115" lon="5.46703">
        <ele>1640.6</ele>
        <time>2021-10-08T14:31:21Z</time>
      </trkpt>
      <trkpt lat="44.83115" lon="5.46704">
        <ele>1640.6</ele>
        <time>2021-10-08T14:31:22Z</time>
      </trkpt>
      <trkpt lat="44.83115" lon="5.46705">
        <ele>1640.6</ele>
        <time>2021-10-08T14:31:23Z</time>
      </trkpt>
      <trkpt lat="44.83115" lon="5.46706">
        <ele>1640.6</ele>
        <time>2021-10-08T14:31:24Z</time>
      </trkpt>
      <trkpt lat="44.83115" lon="5.46707">
        <ele>1640.8</ele>
        <time>2021-10-08T14:31:25Z</time>
      </trkpt>
      <trkpt lat="44.83115" lon="5.46708">
        <ele>1640.8</ele>
        <time>2021-10-08T14:31:26Z</time>
      </trkpt>
      <trkpt lat="44.83114" lon="5.46709">
        <ele>1640.8</ele>
        <time>2021-10-08T14:31:27Z</time>
      </trkpt>
      <trkpt lat="44.83114" lon="5.4671">
        <ele>1640.8</ele>
        <time>2021-10-08T14:31:28Z</time>
      </trkpt>
      <trkpt lat="44.83113" lon="5.46711">
        <ele>1641.6</ele>
        <time>2021-10-08T14:31:29Z</time>
      </trkpt>
      <trkpt lat="44.83113" lon="5.46712">
        <ele>1641.6</ele>
        <time>2021-10-08T14:31:30Z</time>
      </trkpt>
      <trkpt lat="44.83112" lon="5.46713">
        <ele>1641.6</ele>
        <time>2021-10-08T14:31:31Z</time>
      </trkpt>
      <trkpt lat="44.83112" lon="5.46714">
        <ele>1641.6</ele>
        <time>2021-10-08T14:31:32Z</time>
      </trkpt>
      <trkpt lat="44.83112" lon="5.46714">
        <ele>1641.6</ele>
        <time>2021-10-08T14:31:33Z</time>
      </trkpt>
      <trkpt lat="44.83111" lon="5.46715">
        <ele>1642.2</ele>
        <time>2021-10-08T14:31:34Z</time>
      </trkpt>
      <trkpt lat="44.83111" lon="5.46716">
        <ele>1642.2</ele>
        <time>2021-10-08T14:31:35Z</time>
      </trkpt>
      <trkpt lat="44.83111" lon="5.46717">
        <ele>1642.2</ele>
        <time>2021-10-08T14:31:36Z</time>
      </trkpt>
      <trkpt lat="44.83111" lon="5.46718">
        <ele>1642.8</ele>
        <time>2021-10-08T14:31:37Z</time>
      </trkpt>
      <trkpt lat="44.83111" lon="5.46719">
        <ele>1642.8</ele>
        <time>2021-10-08T14:31:38Z</time>
      </trkpt>
      <trkpt lat="44.83111" lon="5.4672">
        <ele>1642.8</ele>
        <time>2021-10-08T14:31:39Z</time>
      </trkpt>
      <trkpt lat="44.8311" lon="5.46721">
        <ele>1642.8</ele>
        <time>2021-10-08T14:31:40Z</time>
      </trkpt>
      <trkpt lat="44.8311" lon="5.46722">
        <ele>1642.8</ele>
        <time>2021-10-08T14:31:41Z</time>
      </trkpt>
      <trkpt lat="44.8311" lon="5.46723">
        <ele>1643</ele>
        <time>2021-10-08T14:31:42Z</time>
      </trkpt>
      <trkpt lat="44.83109" lon="5.46724">
        <ele>1643</ele>
        <time>2021-10-08T14:31:43Z</time>
      </trkpt>
      <trkpt lat="44.83109" lon="5.46725">
        <ele>1643</ele>
        <time>2021-10-08T14:31:44Z</time>
      </trkpt>
      <trkpt lat="44.83109" lon="5.46726">
        <ele>1643</ele>
        <time>2021-10-08T14:31:45Z</time>
      </trkpt>
      <trkpt lat="44.83108" lon="5.46727">
        <ele>1643.6</ele>
        <time>2021-10-08T14:31:46Z</time>
      </trkpt>
      <trkpt lat="44.83108" lon="5.46728">
        <ele>1643.6</ele>
        <time>2021-10-08T14:31:47Z</time>
      </trkpt>
      <trkpt lat="44.83108" lon="5.46729">
        <ele>1643.6</ele>
        <time>2021-10-08T14:31:48Z</time>
      </trkpt>
      <trkpt lat="44.83107" lon="5.4673">
        <ele>1643.6</ele>
        <time>2021-10-08T14:31:49Z</time>
      </trkpt>
      <trkpt lat="44.83107" lon="5.46731">
        <ele>1643.6</ele>
        <time>2021-10-08T14:31:50Z</time>
      </trkpt>
      <trkpt lat="44.83107" lon="5.46732">
        <ele>1643.8</ele>
        <time>2021-10-08T14:31:51Z</time>
      </trkpt>
      <trkpt lat="44.83106" lon="5.46733">
        <ele>1643.8</ele>
        <time>2021-10-08T14:31:52Z</time>
      </trkpt>
      <trkpt lat="44.83105" lon="5.46734">
        <ele>1644.4</ele>
        <time>2021-10-08T14:31:53Z</time>
      </trkpt>
      <trkpt lat="44.83105" lon="5.46735">
        <ele>1644.2</ele>
        <time>2021-10-08T14:31:54Z</time>
      </trkpt>
      <trkpt lat="44.83105" lon="5.46736">
        <ele>1644.2</ele>
        <time>2021-10-08T14:31:55Z</time>
      </trkpt>
      <trkpt lat="44.83104" lon="5.46737">
        <ele>1644.2</ele>
        <time>2021-10-08T14:31:56Z</time>
      </trkpt>
      <trkpt lat="44.83104" lon="5.46738">
        <ele>1644.2</ele>
        <time>2021-10-08T14:31:57Z</time>
      </trkpt>
      <trkpt lat="44.83103" lon="5.46739">
        <ele>1644.2</ele>
        <time>2021-10-08T14:31:58Z</time>
      </trkpt>
      <trkpt lat="44.83103" lon="5.4674">
        <ele>1644.2</ele>
        <time>2021-10-08T14:31:59Z</time>
      </trkpt>
      <trkpt lat="44.83103" lon="5.46741">
        <ele>1644.2</ele>
        <time>2021-10-08T14:32:00Z</time>
      </trkpt>
      <trkpt lat="44.83102" lon="5.46742">
        <ele>1644.2</ele>
        <time>2021-10-08T14:32:01Z</time>
      </trkpt>
      <trkpt lat="44.83102" lon="5.46743">
        <ele>1644.4</ele>
        <time>2021-10-08T14:32:02Z</time>
      </trkpt>
      <trkpt lat="44.83102" lon="5.46744">
        <ele>1644.4</ele>
        <time>2021-10-08T14:32:03Z</time>
      </trkpt>
      <trkpt lat="44.83101" lon="5.46745">
        <ele>1644.4</ele>
        <time>2021-10-08T14:32:04Z</time>
      </trkpt>
      <trkpt lat="44.83101" lon="5.46746">
        <ele>1645.2</ele>
        <time>2021-10-08T14:32:05Z</time>
      </trkpt>
      <trkpt lat="44.831" lon="5.46747">
        <ele>1644.8</ele>
        <time>2021-10-08T14:32:06Z</time>
      </trkpt>
      <trkpt lat="44.831" lon="5.46748">
        <ele>1644.8</ele>
        <time>2021-10-08T14:32:07Z</time>
      </trkpt>
      <trkpt lat="44.831" lon="5.46749">
        <ele>1644.8</ele>
        <time>2021-10-08T14:32:08Z</time>
      </trkpt>
      <trkpt lat="44.831" lon="5.4675">
        <ele>1645.4</ele>
        <time>2021-10-08T14:32:09Z</time>
      </trkpt>
      <trkpt lat="44.831" lon="5.46751">
        <ele>1645.8</ele>
        <time>2021-10-08T14:32:10Z</time>
      </trkpt>
      <trkpt lat="44.831" lon="5.46752">
        <ele>1645.8</ele>
        <time>2021-10-08T14:32:11Z</time>
      </trkpt>
      <trkpt lat="44.83044" lon="5.46947">
        <ele>1660</ele>
        <time>2021-10-08T14:34:55Z</time>
      </trkpt>
      <trkpt lat="44.83044" lon="5.46949">
        <ele>1660</ele>
        <time>2021-10-08T14:34:56Z</time>
      </trkpt>
      <trkpt lat="44.83043" lon="5.46951">
        <ele>1660.2</ele>
        <time>2021-10-08T14:34:57Z</time>
      </trkpt>
      <trkpt lat="44.83043" lon="5.46953">
        <ele>1660.4</ele>
        <time>2021-10-08T14:34:58Z</time>
      </trkpt>
      <trkpt lat="44.83042" lon="5.46955">
        <ele>1660.4</ele>
        <time>2021-10-08T14:34:59Z</time>
      </trkpt>
      <trkpt lat="44.83041" lon="5.46957">
        <ele>1660.4</ele>
        <time>2021-10-08T14:35:00Z</time>
      </trkpt>
      <trkpt lat="44.83041" lon="5.46959">
        <ele>1660.4</ele>
        <time>2021-10-08T14:35:01Z</time>
      </trkpt>
      <trkpt lat="44.83041" lon="5.46962">
        <ele>1660.4</ele>
        <time>2021-10-08T14:35:02Z</time>
      </trkpt>
      <trkpt lat="44.83041" lon="5.46964">
        <ele>1660.4</ele>
        <time>2021-10-08T14:35:03Z</time>
      </trkpt>
      <trkpt lat="44.8304" lon="5.46966">
        <ele>1660.4</ele>
        <time>2021-10-08T14:35:04Z</time>
      </trkpt>
      <trkpt lat="44.8304" lon="5.46968">
        <ele>1660.4</ele>
        <time>2021-10-08T14:35:05Z</time>
      </trkpt>
      <trkpt lat="44.8304" lon="5.46971">
        <ele>1660.6</ele>
        <time>2021-10-08T14:35:06Z</time>
      </trkpt>
      <trkpt lat="44.8304" lon="5.46973">
        <ele>1660.6</ele>
        <time>2021-10-08T14:35:07Z</time>
      </trkpt>
      <trkpt lat="44.8304" lon="5.46975">
        <ele>1660.6</ele>
        <time>2021-10-08T14:35:08Z</time>
      </trkpt>
      <trkpt lat="44.8304" lon="5.46977">
        <ele>1660.4</ele>
        <time>2021-10-08T14:35:09Z</time>
      </trkpt>
      <trkpt lat="44.83039" lon="5.46979">
        <ele>1660.2</ele>
        <time>2021-10-08T14:35:10Z</time>
      </trkpt>
      <trkpt lat="44.83039" lon="5.46981">
        <ele>1660.2</ele>
        <time>2021-10-08T14:35:11Z</time>
      </trkpt>
      <trkpt lat="44.83038" lon="5.46983">
        <ele>1660.2</ele>
        <time>2021-10-08T14:35:12Z</time>
      </trkpt>
      <trkpt lat="44.83037" lon="5.46985">
        <ele>1661</ele>
        <time>2021-10-08T14:35:13Z</time>
      </trkpt>
      <trkpt lat="44.83036" lon="5.46987">
        <ele>1660.8</ele>
        <time>2021-10-08T14:35:14Z</time>
      </trkpt>
      <trkpt lat="44.83035" lon="5.46988">
        <ele>1660.8</ele>
        <time>2021-10-08T14:35:15Z</time>
      </trkpt>
      <trkpt lat="44.83034" lon="5.4699">
        <ele>1660.8</ele>
        <time>2021-10-08T14:35:16Z</time>
      </trkpt>
      <trkpt lat="44.83032" lon="5.46991">
        <ele>1661.8</ele>
        <time>2021-10-08T14:35:17Z</time>
      </trkpt>
      <trkpt lat="44.83031" lon="5.46992">
        <ele>1661.8</ele>
        <time>2021-10-08T14:35:18Z</time>
      </trkpt>
      <trkpt lat="44.8303" lon="5.46992">
        <ele>1662.2</ele>
        <time>2021-10-08T14:35:19Z</time>
      </trkpt>
      <trkpt lat="44.83029" lon="5.46994">
        <ele>1662.2</ele>
        <time>2021-10-08T14:35:20Z</time>
      </trkpt>
      <trkpt lat="44.83029" lon="5.46996">
        <ele>1662.6</ele>
        <time>2021-10-08T14:35:21Z</time>
      </trkpt>
      <trkpt lat="44.83029" lon="5.46998">
        <ele>1662.2</ele>
        <time>2021-10-08T14:35:22Z</time>
      </trkpt>
      <trkpt lat="44.83028" lon="5.47">
        <ele>1662.2</ele>
        <time>2021-10-08T14:35:23Z</time>
      </trkpt>
      <trkpt lat="44.83028" lon="5.47002">
        <ele>1662.2</ele>
        <time>2021-10-08T14:35:24Z</time>
      </trkpt>
      <trkpt lat="44.83027" lon="5.47004">
        <ele>1662.2</ele>
        <time>2021-10-08T14:35:25Z</time>
      </trkpt>
      <trkpt lat="44.83026" lon="5.47006">
        <ele>1662.6</ele>
        <time>2021-10-08T14:35:26Z</time>
      </trkpt>
      <trkpt lat="44.83025" lon="5.47008">
        <ele>1662.6</ele>
        <time>2021-10-08T14:35:27Z</time>
      </trkpt>
      <trkpt lat="44.83025" lon="5.47009">
        <ele>1662.6</ele>
        <time>2021-10-08T14:35:28Z</time>
      </trkpt>
      <trkpt lat="44.83024" lon="5.47011">
        <ele>1663.2</ele>
        <time>2021-10-08T14:35:29Z</time>
      </trkpt>
      <trkpt lat="44.83023" lon="5.47013">
        <ele>1663</ele>
        <time>2021-10-08T14:35:30Z</time>
      </trkpt>
      <trkpt lat="44.83023" lon="5.47015">
        <ele>1663</ele>
        <time>2021-10-08T14:35:31Z</time>
      </trkpt>
      <trkpt lat="44.83022" lon="5.47016">
        <ele>1663</ele>
        <time>2021-10-08T14:35:32Z</time>
      </trkpt>
      <trkpt lat="44.83022" lon="5.47017">
        <ele>1664</ele>
        <time>2021-10-08T14:35:33Z</time>
      </trkpt>
      <trkpt lat="44.83021" lon="5.47019">
        <ele>1663.8</ele>
        <time>2021-10-08T14:35:34Z</time>
      </trkpt>
      <trkpt lat="44.83021" lon="5.47021">
        <ele>1663.8</ele>
        <time>2021-10-08T14:35:35Z</time>
      </trkpt>
      <trkpt lat="44.8302" lon="5.47023">
        <ele>1663.8</ele>
        <time>2021-10-08T14:35:36Z</time>
      </trkpt>
      <trkpt lat="44.8302" lon="5.47024">
        <ele>1663.8</ele>
        <time>2021-10-08T14:35:37Z</time>
      </trkpt>
      <trkpt lat="44.83019" lon="5.47027">
        <ele>1663.2</ele>
        <time>2021-10-08T14:35:38Z</time>
      </trkpt>
      <trkpt lat="44.83019" lon="5.47029">
        <ele>1663.2</ele>
        <time>2021-10-08T14:35:39Z</time>
      </trkpt>
      <trkpt lat="44.83019" lon="5.47032">
        <ele>1663.2</ele>
        <time>2021-10-08T14:35:40Z</time>
      </trkpt>
      <trkpt lat="44.83018" lon="5.47034">
        <ele>1663.2</ele>
        <time>2021-10-08T14:35:41Z</time>
      </trkpt>
      <trkpt lat="44.83017" lon="5.47036">
        <ele>1663.2</ele>
        <time>2021-10-08T14:35:42Z</time>
      </trkpt>
      <trkpt lat="44.83017" lon="5.47038">
        <ele>1663.6</ele>
        <time>2021-10-08T14:35:43Z</time>
      </trkpt>
      <trkpt lat="44.83016" lon="5.47039">
        <ele>1663.6</ele>
        <time>2021-10-08T14:35:44Z</time>
      </trkpt>
      <trkpt lat="44.83016" lon="5.47041">
        <ele>1664</ele>
        <time>2021-10-08T14:35:45Z</time>
      </trkpt>
      <trkpt lat="44.83015" lon="5.47042">
        <ele>1664</ele>
        <time>2021-10-08T14:35:46Z</time>
      </trkpt>
      <trkpt lat="44.83015" lon="5.47044">
        <ele>1664</ele>
        <time>2021-10-08T14:35:47Z</time>
      </trkpt>
      <trkpt lat="44.83014" lon="5.47046">
        <ele>1664</ele>
        <time>2021-10-08T14:35:48Z</time>
      </trkpt>
      <trkpt lat="44.83014" lon="5.47048">
        <ele>1664</ele>
        <time>2021-10-08T14:35:49Z</time>
      </trkpt>
      <trkpt lat="44.83013" lon="5.47049">
        <ele>1664.2</ele>
        <time>2021-10-08T14:35:50Z</time>
      </trkpt>
      <trkpt lat="44.83013" lon="5.47051">
        <ele>1664.2</ele>
        <time>2021-10-08T14:35:51Z</time>
      </trkpt>
      <trkpt lat="44.83013" lon="5.47054">
        <ele>1664.2</ele>
        <time>2021-10-08T14:35:52Z</time>
      </trkpt>
      <trkpt lat="44.83013" lon="5.47056">
        <ele>1663.8</ele>
        <time>2021-10-08T14:35:53Z</time>
      </trkpt>
      <trkpt lat="44.83013" lon="5.47058">
        <ele>1664</ele>
        <time>2021-10-08T14:35:54Z</time>
      </trkpt>
      <trkpt lat="44.83013" lon="5.47059">
        <ele>1664</ele>
        <time>2021-10-08T14:35:55Z</time>
      </trkpt>
      <trkpt lat="44.83013" lon="5.47061">
        <ele>1664</ele>
        <time>2021-10-08T14:35:56Z</time>
      </trkpt>
      <trkpt lat="44.83013" lon="5.47062">
        <ele>1664</ele>
        <time>2021-10-08T14:35:57Z</time>
      </trkpt>
      <trkpt lat="44.83013" lon="5.47063">
        <ele>1664.2</ele>
        <time>2021-10-08T14:35:58Z</time>
      </trkpt>
      <trkpt lat="44.83013" lon="5.47063">
        <ele>1664.2</ele>
        <time>2021-10-08T14:35:59Z</time>
      </trkpt>
      <trkpt lat="44.83013" lon="5.4707">
        <ele>1663.2</ele>
        <time>2021-10-08T14:45:03Z</time>
      </trkpt>
      <trkpt lat="44.83013" lon="5.47073">
        <ele>1663.2</ele>
        <time>2021-10-08T14:45:04Z</time>
      </trkpt>
      <trkpt lat="44.83013" lon="5.47078">
        <ele>1663.2</ele>
        <time>2021-10-08T14:45:05Z</time>
      </trkpt>
      <trkpt lat="44.83014" lon="5.47083">
        <ele>1662</ele>
        <time>2021-10-08T14:45:06Z</time>
      </trkpt>
      <trkpt lat="44.83013" lon="5.47087">
        <ele>1662</ele>
        <time>2021-10-08T14:45:07Z</time>
      </trkpt>
      <trkpt lat="44.83014" lon="5.47092">
        <ele>1662</ele>
        <time>2021-10-08T14:45:08Z</time>
      </trkpt>
      <trkpt lat="44.83014" lon="5.47096">
        <ele>1661.2</ele>
        <time>2021-10-08T14:45:09Z</time>
      </trkpt>
      <trkpt lat="44.83014" lon="5.471">
        <ele>1660.4</ele>
        <time>2021-10-08T14:45:10Z</time>
      </trkpt>
      <trkpt lat="44.83015" lon="5.47106">
        <ele>1660.4</ele>
        <time>2021-10-08T14:45:11Z</time>
      </trkpt>
      <trkpt lat="44.83016" lon="5.47112">
        <ele>1660.4</ele>
        <time>2021-10-08T14:45:12Z</time>
      </trkpt>
      <trkpt lat="44.83017" lon="5.47118">
        <ele>1660.4</ele>
        <time>2021-10-08T14:45:13Z</time>
      </trkpt>
      <trkpt lat="44.83017" lon="5.47124">
        <ele>1659.8</ele>
        <time>2021-10-08T14:45:14Z</time>
      </trkpt>
      <trkpt lat="44.83018" lon="5.4713">
        <ele>1659.8</ele>
        <time>2021-10-08T14:45:15Z</time>
      </trkpt>
      <trkpt lat="44.83018" lon="5.47134">
        <ele>1659.8</ele>
        <time>2021-10-08T14:45:16Z</time>
      </trkpt>
      <trkpt lat="44.83018" lon="5.47138">
        <ele>1660.6</ele>
        <time>2021-10-08T14:45:17Z</time>
      </trkpt>
      <trkpt lat="44.83018" lon="5.47141">
        <ele>1660.8</ele>
        <time>2021-10-08T14:45:18Z</time>
      </trkpt>
      <trkpt lat="44.83019" lon="5.47144">
        <ele>1660.8</ele>
        <time>2021-10-08T14:45:19Z</time>
      </trkpt>
      <trkpt lat="44.83019" lon="5.47147">
        <ele>1660.8</ele>
        <time>2021-10-08T14:45:20Z</time>
      </trkpt>
      <trkpt lat="44.83018" lon="5.47151">
        <ele>1660.4</ele>
        <time>2021-10-08T14:45:21Z</time>
      </trkpt>
      <trkpt lat="44.83018" lon="5.47154">
        <ele>1660.4</ele>
        <time>2021-10-08T14:45:22Z</time>
      </trkpt>
      <trkpt lat="44.83017" lon="5.47158">
        <ele>1660.4</ele>
        <time>2021-10-08T14:45:23Z</time>
      </trkpt>
      <trkpt lat="44.83017" lon="5.47161">
        <ele>1660.4</ele>
        <time>2021-10-08T14:45:24Z</time>
      </trkpt>
      <trkpt lat="44.83016" lon="5.47163">
        <ele>1660.4</ele>
        <time>2021-10-08T14:45:25Z</time>
      </trkpt>
      <trkpt lat="44.83015" lon="5.47166">
        <ele>1660.8</ele>
        <time>2021-10-08T14:45:26Z</time>
      </trkpt>
      <trkpt lat="44.83015" lon="5.47168">
        <ele>1660.8</ele>
        <time>2021-10-08T14:45:27Z</time>
      </trkpt>
      <trkpt lat="44.83013" lon="5.47171">
        <ele>1660.8</ele>
        <time>2021-10-08T14:45:28Z</time>
      </trkpt>
      <trkpt lat="44.83012" lon="5.47173">
        <ele>1660.8</ele>
        <time>2021-10-08T14:45:29Z</time>
      </trkpt>
      <trkpt lat="44.83012" lon="5.47176">
        <ele>1660.8</ele>
        <time>2021-10-08T14:45:30Z</time>
      </trkpt>
      <trkpt lat="44.83011" lon="5.47179">
        <ele>1660.8</ele>
        <time>2021-10-08T14:45:31Z</time>
      </trkpt>
      <trkpt lat="44.83011" lon="5.47182">
        <ele>1661.6</ele>
        <time>2021-10-08T14:45:32Z</time>
      </trkpt>
      <trkpt lat="44.8301" lon="5.47185">
        <ele>1661.2</ele>
        <time>2021-10-08T14:45:33Z</time>
      </trkpt>
      <trkpt lat="44.83009" lon="5.47188">
        <ele>1661.6</ele>
        <time>2021-10-08T14:45:34Z</time>
      </trkpt>
      <trkpt lat="44.83008" lon="5.4719">
        <ele>1661.6</ele>
        <time>2021-10-08T14:45:35Z</time>
      </trkpt>
      <trkpt lat="44.83007" lon="5.47192">
        <ele>1661.6</ele>
        <time>2021-10-08T14:45:36Z</time>
      </trkpt>
      <trkpt lat="44.83005" lon="5.47195">
        <ele>1661.6</ele>
        <time>2021-10-08T14:45:37Z</time>
      </trkpt>
      <trkpt lat="44.83004" lon="5.47198">
        <ele>1660.8</ele>
        <time>2021-10-08T14:45:38Z</time>
      </trkpt>
      <trkpt lat="44.83003" lon="5.47202">
        <ele>1660.8</ele>
        <time>2021-10-08T14:45:39Z</time>
      </trkpt>
      <trkpt lat="44.83001" lon="5.47207">
        <ele>1660.8</ele>
        <time>2021-10-08T14:45:40Z</time>
      </trkpt>
      <trkpt lat="44.82998" lon="5.47212">
        <ele>1659.8</ele>
        <time>2021-10-08T14:45:41Z</time>
      </trkpt>
      <trkpt lat="44.82996" lon="5.47216">
        <ele>1660</ele>
        <time>2021-10-08T14:45:42Z</time>
      </trkpt>
      <trkpt lat="44.82993" lon="5.47221">
        <ele>1660</ele>
        <time>2021-10-08T14:45:43Z</time>
      </trkpt>
      <trkpt lat="44.82991" lon="5.47225">
        <ele>1660</ele>
        <time>2021-10-08T14:45:44Z</time>
      </trkpt>
      <trkpt lat="44.82989" lon="5.4723">
        <ele>1659</ele>
        <time>2021-10-08T14:45:45Z</time>
      </trkpt>
      <trkpt lat="44.82987" lon="5.47235">
        <ele>1658.6</ele>
        <time>2021-10-08T14:45:46Z</time>
      </trkpt>
      <trkpt lat="44.82984" lon="5.47241">
        <ele>1658.6</ele>
        <time>2021-10-08T14:45:47Z</time>
      </trkpt>
      <trkpt lat="44.82981" lon="5.47247">
        <ele>1658.6</ele>
        <time>2021-10-08T14:45:48Z</time>
      </trkpt>
      <trkpt lat="44.82978" lon="5.47253">
        <ele>1657.6</ele>
        <time>2021-10-08T14:45:49Z</time>
      </trkpt>
      <trkpt lat="44.82975" lon="5.4726">
        <ele>1659.2</ele>
        <time>2021-10-08T14:45:50Z</time>
      </trkpt>
      <trkpt lat="44.82972" lon="5.47266">
        <ele>1659.2</ele>
        <time>2021-10-08T14:45:51Z</time>
      </trkpt>
      <trkpt lat="44.82969" lon="5.47272">
        <ele>1659.2</ele>
        <time>2021-10-08T14:45:52Z</time>
      </trkpt>
      <trkpt lat="44.82967" lon="5.47278">
        <ele>1659.2</ele>
        <time>2021-10-08T14:45:53Z</time>
      </trkpt>
      <trkpt lat="44.82965" lon="5.47285">
        <ele>1655.4</ele>
        <time>2021-10-08T14:45:54Z</time>
      </trkpt>
      <trkpt lat="44.82962" lon="5.47292">
        <ele>1655.4</ele>
        <time>2021-10-08T14:45:55Z</time>
      </trkpt>
      <trkpt lat="44.82961" lon="5.47298">
        <ele>1655.4</ele>
        <time>2021-10-08T14:45:56Z</time>
      </trkpt>
      <trkpt lat="44.8296" lon="5.47305">
        <ele>1654.4</ele>
        <time>2021-10-08T14:45:57Z</time>
      </trkpt>
      <trkpt lat="44.82959" lon="5.47312">
        <ele>1653.2</ele>
        <time>2021-10-08T14:45:58Z</time>
      </trkpt>
      <trkpt lat="44.82959" lon="5.47319">
        <ele>1653.2</ele>
        <time>2021-10-08T14:45:59Z</time>
      </trkpt>
      <trkpt lat="44.82959" lon="5.47326">
        <ele>1653.2</ele>
        <time>2021-10-08T14:46:00Z</time>
      </trkpt>
      <trkpt lat="44.82959" lon="5.47333">
        <ele>1652.2</ele>
        <time>2021-10-08T14:46:01Z</time>
      </trkpt>
      <trkpt lat="44.8296" lon="5.47339">
        <ele>1651.8</ele>
        <time>2021-10-08T14:46:02Z</time>
      </trkpt>
      <trkpt lat="44.82961" lon="5.47344">
        <ele>1651.8</ele>
        <time>2021-10-08T14:46:03Z</time>
      </trkpt>
      <trkpt lat="44.82964" lon="5.47348">
        <ele>1651.8</ele>
        <time>2021-10-08T14:46:04Z</time>
      </trkpt>
      <trkpt lat="44.82966" lon="5.47351">
        <ele>1650.8</ele>
        <time>2021-10-08T14:46:05Z</time>
      </trkpt>
      <trkpt lat="44.82969" lon="5.47354">
        <ele>1650.8</ele>
        <time>2021-10-08T14:46:06Z</time>
      </trkpt>
      <trkpt lat="44.82972" lon="5.47358">
        <ele>1650.8</ele>
        <time>2021-10-08T14:46:07Z</time>
      </trkpt>
      <trkpt lat="44.82974" lon="5.47361">
        <ele>1650.8</ele>
        <time>2021-10-08T14:46:08Z</time>
      </trkpt>
      <trkpt lat="44.82977" lon="5.47365">
        <ele>1650.8</ele>
        <time>2021-10-08T14:46:09Z</time>
      </trkpt>
      <trkpt lat="44.8298" lon="5.4737">
        <ele>1649.8</ele>
        <time>2021-10-08T14:46:10Z</time>
      </trkpt>
      <trkpt lat="44.82982" lon="5.47374">
        <ele>1649.8</ele>
        <time>2021-10-08T14:46:11Z</time>
      </trkpt>
      <trkpt lat="44.82984" lon="5.47377">
        <ele>1649.8</ele>
        <time>2021-10-08T14:46:12Z</time>
      </trkpt>
      <trkpt lat="44.82986" lon="5.4738">
        <ele>1650.8</ele>
        <time>2021-10-08T14:46:13Z</time>
      </trkpt>
      <trkpt lat="44.82988" lon="5.47383">
        <ele>1650.8</ele>
        <time>2021-10-08T14:46:14Z</time>
      </trkpt>
      <trkpt lat="44.8299" lon="5.47387">
        <ele>1650.8</ele>
        <time>2021-10-08T14:46:15Z</time>
      </trkpt>
      <trkpt lat="44.82992" lon="5.4739">
        <ele>1650.8</ele>
        <time>2021-10-08T14:46:16Z</time>
      </trkpt>
      <trkpt lat="44.82994" lon="5.47393">
        <ele>1650.8</ele>
        <time>2021-10-08T14:46:17Z</time>
      </trkpt>
      <trkpt lat="44.82995" lon="5.47395">
        <ele>1650.8</ele>
        <time>2021-10-08T14:46:18Z</time>
      </trkpt>
      <trkpt lat="44.82997" lon="5.47397">
        <ele>1650.8</ele>
        <time>2021-10-08T14:46:19Z</time>
      </trkpt>
      <trkpt lat="44.82999" lon="5.47399">
        <ele>1650.8</ele>
        <time>2021-10-08T14:46:20Z</time>
      </trkpt>
      <trkpt lat="44.83" lon="5.47402">
        <ele>1650.8</ele>
        <time>2021-10-08T14:46:21Z</time>
      </trkpt>
      <trkpt lat="44.83002" lon="5.47404">
        <ele>1651.2</ele>
        <time>2021-10-08T14:46:22Z</time>
      </trkpt>
      <trkpt lat="44.83004" lon="5.47406">
        <ele>1651.2</ele>
        <time>2021-10-08T14:46:23Z</time>
      </trkpt>
      <trkpt lat="44.83006" lon="5.47409">
        <ele>1651.2</ele>
        <time>2021-10-08T14:46:24Z</time>
      </trkpt>
      <trkpt lat="44.83008" lon="5.47412">
        <ele>1650.4</ele>
        <time>2021-10-08T14:46:25Z</time>
      </trkpt>
      <trkpt lat="44.8301" lon="5.47415">
        <ele>1650</ele>
        <time>2021-10-08T14:46:26Z</time>
      </trkpt>
      <trkpt lat="44.83012" lon="5.47417">
        <ele>1650</ele>
        <time>2021-10-08T14:46:27Z</time>
      </trkpt>
      <trkpt lat="44.83014" lon="5.4742">
        <ele>1650</ele>
        <time>2021-10-08T14:46:28Z</time>
      </trkpt>
      <trkpt lat="44.83017" lon="5.47423">
        <ele>1650</ele>
        <time>2021-10-08T14:46:29Z</time>
      </trkpt>
      <trkpt lat="44.83019" lon="5.47425">
        <ele>1650.4</ele>
        <time>2021-10-08T14:46:30Z</time>
      </trkpt>
      <trkpt lat="44.83021" lon="5.47427">
        <ele>1650.4</ele>
        <time>2021-10-08T14:46:31Z</time>
      </trkpt>
      <trkpt lat="44.83024" lon="5.4743">
        <ele>1650.4</ele>
        <time>2021-10-08T14:46:32Z</time>
      </trkpt>
      <trkpt lat="44.83027" lon="5.47433">
        <ele>1649.4</ele>
        <time>2021-10-08T14:46:33Z</time>
      </trkpt>
      <trkpt lat="44.8303" lon="5.47437">
        <ele>1647</ele>
        <time>2021-10-08T14:46:34Z</time>
      </trkpt>
      <trkpt lat="44.83034" lon="5.47441">
        <ele>1647</ele>
        <time>2021-10-08T14:46:35Z</time>
      </trkpt>
      <trkpt lat="44.83038" lon="5.47446">
        <ele>1647</ele>
        <time>2021-10-08T14:46:36Z</time>
      </trkpt>
      <trkpt lat="44.83042" lon="5.47451">
        <ele>1647</ele>
        <time>2021-10-08T14:46:37Z</time>
      </trkpt>
      <trkpt lat="44.83046" lon="5.47455">
        <ele>1646.2</ele>
        <time>2021-10-08T14:46:38Z</time>
      </trkpt>
      <trkpt lat="44.83049" lon="5.47461">
        <ele>1646.2</ele>
        <time>2021-10-08T14:46:39Z</time>
      </trkpt>
      <trkpt lat="44.83053" lon="5.47466">
        <ele>1646.2</ele>
        <time>2021-10-08T14:46:40Z</time>
      </trkpt>
      <trkpt lat="44.83056" lon="5.47471">
        <ele>1645.8</ele>
        <time>2021-10-08T14:46:41Z</time>
      </trkpt>
      <trkpt lat="44.8306" lon="5.47476">
        <ele>1644.8</ele>
        <time>2021-10-08T14:46:42Z</time>
      </trkpt>
      <trkpt lat="44.83063" lon="5.47481">
        <ele>1644.8</ele>
        <time>2021-10-08T14:46:43Z</time>
      </trkpt>
      <trkpt lat="44.83066" lon="5.47487">
        <ele>1644.8</ele>
        <time>2021-10-08T14:46:44Z</time>
      </trkpt>
      <trkpt lat="44.83068" lon="5.47493">
        <ele>1644.8</ele>
        <time>2021-10-08T14:46:45Z</time>
      </trkpt>
      <trkpt lat="44.83069" lon="5.475">
        <ele>1643.6</ele>
        <time>2021-10-08T14:46:46Z</time>
      </trkpt>
      <trkpt lat="44.83071" lon="5.47505">
        <ele>1643.6</ele>
        <time>2021-10-08T14:46:47Z</time>
      </trkpt>
      <trkpt lat="44.83073" lon="5.47511">
        <ele>1643.6</ele>
        <time>2021-10-08T14:46:48Z</time>
      </trkpt>
      <trkpt lat="44.83076" lon="5.47515">
        <ele>1643.6</ele>
        <time>2021-10-08T14:46:49Z</time>
      </trkpt>
      <trkpt lat="44.8308" lon="5.47518">
        <ele>1643</ele>
        <time>2021-10-08T14:46:50Z</time>
      </trkpt>
      <trkpt lat="44.83084" lon="5.47521">
        <ele>1643</ele>
        <time>2021-10-08T14:46:51Z</time>
      </trkpt>
      <trkpt lat="44.83087" lon="5.47524">
        <ele>1643</ele>
        <time>2021-10-08T14:46:52Z</time>
      </trkpt>
      <trkpt lat="44.8309" lon="5.47527">
        <ele>1643</ele>
        <time>2021-10-08T14:46:53Z</time>
      </trkpt>
      <trkpt lat="44.83093" lon="5.47532">
        <ele>1643.4</ele>
        <time>2021-10-08T14:46:54Z</time>
      </trkpt>
      <trkpt lat="44.83094" lon="5.47536">
        <ele>1643.4</ele>
        <time>2021-10-08T14:46:55Z</time>
      </trkpt>
      <trkpt lat="44.83096" lon="5.47539">
        <ele>1643.4</ele>
        <time>2021-10-08T14:46:56Z</time>
      </trkpt>
      <trkpt lat="44.83096" lon="5.47542">
        <ele>1643.4</ele>
        <time>2021-10-08T14:46:57Z</time>
      </trkpt>
      <trkpt lat="44.83097" lon="5.47543">
        <ele>1643.2</ele>
        <time>2021-10-08T14:46:58Z</time>
      </trkpt>
      <trkpt lat="44.83097" lon="5.47544">
        <ele>1643.2</ele>
        <time>2021-10-08T14:46:59Z</time>
      </trkpt>
      <trkpt lat="44.83097" lon="5.47543">
        <ele>1643.2</ele>
        <time>2021-10-08T14:47:00Z</time>
      </trkpt>
      <trkpt lat="44.83097" lon="5.47543">
        <ele>1643.2</ele>
        <time>2021-10-08T14:47:01Z</time>
      </trkpt>
      <trkpt lat="44.831" lon="5.47553">
        <ele>1642</ele>
        <time>2021-10-08T14:48:49Z</time>
      </trkpt>
      <trkpt lat="44.83102" lon="5.47556">
        <ele>1641.8</ele>
        <time>2021-10-08T14:48:50Z</time>
      </trkpt>
      <trkpt lat="44.83103" lon="5.4756">
        <ele>1641.8</ele>
        <time>2021-10-08T14:48:51Z</time>
      </trkpt>
      <trkpt lat="44.83104" lon="5.47563">
        <ele>1641.8</ele>
        <time>2021-10-08T14:48:52Z</time>
      </trkpt>
      <trkpt lat="44.83106" lon="5.47568">
        <ele>1640.8</ele>
        <time>2021-10-08T14:48:53Z</time>
      </trkpt>
      <trkpt lat="44.83107" lon="5.47572">
        <ele>1638.8</ele>
        <time>2021-10-08T14:48:54Z</time>
      </trkpt>
      <trkpt lat="44.83108" lon="5.47576">
        <ele>1638.8</ele>
        <time>2021-10-08T14:48:55Z</time>
      </trkpt>
      <trkpt lat="44.83109" lon="5.47581">
        <ele>1638.8</ele>
        <time>2021-10-08T14:48:56Z</time>
      </trkpt>
      <trkpt lat="44.83109" lon="5.47585">
        <ele>1638.4</ele>
        <time>2021-10-08T14:48:57Z</time>
      </trkpt>
      <trkpt lat="44.8311" lon="5.4759">
        <ele>1638.2</ele>
        <time>2021-10-08T14:48:58Z</time>
      </trkpt>
      <trkpt lat="44.83111" lon="5.47594">
        <ele>1638.2</ele>
        <time>2021-10-08T14:48:59Z</time>
      </trkpt>
      <trkpt lat="44.83112" lon="5.47598">
        <ele>1638.2</ele>
        <time>2021-10-08T14:49:00Z</time>
      </trkpt>
      <trkpt lat="44.83114" lon="5.47603">
        <ele>1637.2</ele>
        <time>2021-10-08T14:49:01Z</time>
      </trkpt>
      <trkpt lat="44.83117" lon="5.47606">
        <ele>1636</ele>
        <time>2021-10-08T14:49:02Z</time>
      </trkpt>
      <trkpt lat="44.8312" lon="5.4761">
        <ele>1636</ele>
        <time>2021-10-08T14:49:03Z</time>
      </trkpt>
      <trkpt lat="44.83123" lon="5.47614">
        <ele>1636</ele>
        <time>2021-10-08T14:49:04Z</time>
      </trkpt>
      <trkpt lat="44.83126" lon="5.47619">
        <ele>1636</ele>
        <time>2021-10-08T14:49:05Z</time>
      </trkpt>
      <trkpt lat="44.83129" lon="5.47623">
        <ele>1635</ele>
        <time>2021-10-08T14:49:06Z</time>
      </trkpt>
      <trkpt lat="44.83132" lon="5.47628">
        <ele>1635</ele>
        <time>2021-10-08T14:49:07Z</time>
      </trkpt>
      <trkpt lat="44.83135" lon="5.47632">
        <ele>1635</ele>
        <time>2021-10-08T14:49:08Z</time>
      </trkpt>
      <trkpt lat="44.83138" lon="5.47637">
        <ele>1634.6</ele>
        <time>2021-10-08T14:49:09Z</time>
      </trkpt>
      <trkpt lat="44.83141" lon="5.47642">
        <ele>1634.6</ele>
        <time>2021-10-08T14:49:10Z</time>
      </trkpt>
      <trkpt lat="44.83143" lon="5.47646">
        <ele>1634.6</ele>
        <time>2021-10-08T14:49:11Z</time>
      </trkpt>
      <trkpt lat="44.83145" lon="5.47649">
        <ele>1634.6</ele>
        <time>2021-10-08T14:49:12Z</time>
      </trkpt>
      <trkpt lat="44.83148" lon="5.47653">
        <ele>1635</ele>
        <time>2021-10-08T14:49:13Z</time>
      </trkpt>
      <trkpt lat="44.8315" lon="5.47657">
        <ele>1634.6</ele>
        <time>2021-10-08T14:49:14Z</time>
      </trkpt>
      <trkpt lat="44.83151" lon="5.47661">
        <ele>1634.6</ele>
        <time>2021-10-08T14:49:15Z</time>
      </trkpt>
      <trkpt lat="44.83153" lon="5.47665">
        <ele>1634.6</ele>
        <time>2021-10-08T14:49:16Z</time>
      </trkpt>
      <trkpt lat="44.83155" lon="5.47668">
        <ele>1634.2</ele>
        <time>2021-10-08T14:49:17Z</time>
      </trkpt>
      <trkpt lat="44.83157" lon="5.47672">
        <ele>1633</ele>
        <time>2021-10-08T14:49:18Z</time>
      </trkpt>
      <trkpt lat="44.8316" lon="5.47675">
        <ele>1633</ele>
        <time>2021-10-08T14:49:19Z</time>
      </trkpt>
      <trkpt lat="44.83162" lon="5.47678">
        <ele>1633</ele>
        <time>2021-10-08T14:49:20Z</time>
      </trkpt>
      <trkpt lat="44.83165" lon="5.47681">
        <ele>1632.6</ele>
        <time>2021-10-08T14:49:21Z</time>
      </trkpt>
      <trkpt lat="44.83169" lon="5.47683">
        <ele>1632</ele>
        <time>2021-10-08T14:49:22Z</time>
      </trkpt>
      <trkpt lat="44.83173" lon="5.47686">
        <ele>1632</ele>
        <time>2021-10-08T14:49:23Z</time>
      </trkpt>
      <trkpt lat="44.83177" lon="5.47689">
        <ele>1632</ele>
        <time>2021-10-08T14:49:24Z</time>
      </trkpt>
      <trkpt lat="44.8318" lon="5.47693">
        <ele>1631</ele>
        <time>2021-10-08T14:49:25Z</time>
      </trkpt>
      <trkpt lat="44.83184" lon="5.47697">
        <ele>1631.2</ele>
        <time>2021-10-08T14:49:26Z</time>
      </trkpt>
      <trkpt lat="44.83188" lon="5.47701">
        <ele>1631.2</ele>
        <time>2021-10-08T14:49:27Z</time>
      </trkpt>
      <trkpt lat="44.83192" lon="5.47705">
        <ele>1631.2</ele>
        <time>2021-10-08T14:49:28Z</time>
      </trkpt>
      <trkpt lat="44.83196" lon="5.47709">
        <ele>1630.2</ele>
        <time>2021-10-08T14:49:29Z</time>
      </trkpt>
      <trkpt lat="44.83201" lon="5.47713">
        <ele>1629.4</ele>
        <time>2021-10-08T14:49:30Z</time>
      </trkpt>
      <trkpt lat="44.83207" lon="5.47717">
        <ele>1629.4</ele>
        <time>2021-10-08T14:49:31Z</time>
      </trkpt>
      <trkpt lat="44.83212" lon="5.47719">
        <ele>1629.4</ele>
        <time>2021-10-08T14:49:32Z</time>
      </trkpt>
      <trkpt lat="44.83218" lon="5.47722">
        <ele>1628.4</ele>
        <time>2021-10-08T14:49:33Z</time>
      </trkpt>
      <trkpt lat="44.83224" lon="5.47725">
        <ele>1626.2</ele>
        <time>2021-10-08T14:49:34Z</time>
      </trkpt>
      <trkpt lat="44.83229" lon="5.47729">
        <ele>1626.2</ele>
        <time>2021-10-08T14:49:35Z</time>
      </trkpt>
      <trkpt lat="44.83234" lon="5.47732">
        <ele>1626.2</ele>
        <time>2021-10-08T14:49:36Z</time>
      </trkpt>
      <trkpt lat="44.8324" lon="5.47736">
        <ele>1626.2</ele>
        <time>2021-10-08T14:49:37Z</time>
      </trkpt>
      <trkpt lat="44.83245" lon="5.47737">
        <ele>1625.8</ele>
        <time>2021-10-08T14:49:38Z</time>
      </trkpt>
      <trkpt lat="44.83251" lon="5.47738">
        <ele>1625.8</ele>
        <time>2021-10-08T14:49:39Z</time>
      </trkpt>
      <trkpt lat="44.83257" lon="5.47737">
        <ele>1625.8</ele>
        <time>2021-10-08T14:49:40Z</time>
      </trkpt>
      <trkpt lat="44.83263" lon="5.47737">
        <ele>1624.8</ele>
        <time>2021-10-08T14:49:41Z</time>
      </trkpt>
      <trkpt lat="44.83269" lon="5.47735">
        <ele>1625</ele>
        <time>2021-10-08T14:49:42Z</time>
      </trkpt>
      <trkpt lat="44.83272" lon="5.47732">
        <ele>1625</ele>
        <time>2021-10-08T14:49:43Z</time>
      </trkpt>
      <trkpt lat="44.83275" lon="5.4773">
        <ele>1625</ele>
        <time>2021-10-08T14:49:44Z</time>
      </trkpt>
      <trkpt lat="44.83278" lon="5.47732">
        <ele>1625</ele>
        <time>2021-10-08T14:49:45Z</time>
      </trkpt>
      <trkpt lat="44.8328" lon="5.47736">
        <ele>1626.4</ele>
        <time>2021-10-08T14:49:46Z</time>
      </trkpt>
      <trkpt lat="44.8328" lon="5.47739">
        <ele>1626.4</ele>
        <time>2021-10-08T14:49:47Z</time>
      </trkpt>
      <trkpt lat="44.8328" lon="5.47744">
        <ele>1626.4</ele>
        <time>2021-10-08T14:49:48Z</time>
      </trkpt>
      <trkpt lat="44.83279" lon="5.47748">
        <ele>1626.4</ele>
        <time>2021-10-08T14:49:49Z</time>
      </trkpt>
      <trkpt lat="44.83279" lon="5.47752">
        <ele>1626.2</ele>
        <time>2021-10-08T14:49:50Z</time>
      </trkpt>
      <trkpt lat="44.8328" lon="5.47756">
        <ele>1626.2</ele>
        <time>2021-10-08T14:49:51Z</time>
      </trkpt>
      <trkpt lat="44.83281" lon="5.47761">
        <ele>1626.2</ele>
        <time>2021-10-08T14:49:52Z</time>
      </trkpt>
      <trkpt lat="44.83281" lon="5.47765">
        <ele>1625.4</ele>
        <time>2021-10-08T14:49:53Z</time>
      </trkpt>
      <trkpt lat="44.83282" lon="5.47768">
        <ele>1624.6</ele>
        <time>2021-10-08T14:49:54Z</time>
      </trkpt>
      <trkpt lat="44.83283" lon="5.47773">
        <ele>1624.6</ele>
        <time>2021-10-08T14:49:55Z</time>
      </trkpt>
      <trkpt lat="44.83285" lon="5.47777">
        <ele>1624.6</ele>
        <time>2021-10-08T14:49:56Z</time>
      </trkpt>
      <trkpt lat="44.83286" lon="5.47782">
        <ele>1625.4</ele>
        <time>2021-10-08T14:49:57Z</time>
      </trkpt>
      <trkpt lat="44.83288" lon="5.47786">
        <ele>1625</ele>
        <time>2021-10-08T14:49:58Z</time>
      </trkpt>
      <trkpt lat="44.8329" lon="5.4779">
        <ele>1625</ele>
        <time>2021-10-08T14:49:59Z</time>
      </trkpt>
      <trkpt lat="44.83292" lon="5.47794">
        <ele>1625</ele>
        <time>2021-10-08T14:50:00Z</time>
      </trkpt>
      <trkpt lat="44.83293" lon="5.47798">
        <ele>1625</ele>
        <time>2021-10-08T14:50:01Z</time>
      </trkpt>
      <trkpt lat="44.83294" lon="5.47804">
        <ele>1624.2</ele>
        <time>2021-10-08T14:50:02Z</time>
      </trkpt>
      <trkpt lat="44.83295" lon="5.4781">
        <ele>1624.2</ele>
        <time>2021-10-08T14:50:03Z</time>
      </trkpt>
      <trkpt lat="44.83297" lon="5.47816">
        <ele>1624.2</ele>
        <time>2021-10-08T14:50:04Z</time>
      </trkpt>
      <trkpt lat="44.83298" lon="5.47823">
        <ele>1624.2</ele>
        <time>2021-10-08T14:50:05Z</time>
      </trkpt>
      <trkpt lat="44.83301" lon="5.47831">
        <ele>1620.2</ele>
        <time>2021-10-08T14:50:06Z</time>
      </trkpt>
      <trkpt lat="44.83305" lon="5.47837">
        <ele>1620.2</ele>
        <time>2021-10-08T14:50:07Z</time>
      </trkpt>
      <trkpt lat="44.83308" lon="5.47844">
        <ele>1620.2</ele>
        <time>2021-10-08T14:50:08Z</time>
      </trkpt>
      <trkpt lat="44.83312" lon="5.47851">
        <ele>1619.2</ele>
        <time>2021-10-08T14:50:09Z</time>
      </trkpt>
      <trkpt lat="44.83316" lon="5.47858">
        <ele>1618.2</ele>
        <time>2021-10-08T14:50:10Z</time>
      </trkpt>
      <trkpt lat="44.83319" lon="5.47866">
        <ele>1618.2</ele>
        <time>2021-10-08T14:50:11Z</time>
      </trkpt>
      <trkpt lat="44.83321" lon="5.47874">
        <ele>1618.2</ele>
        <time>2021-10-08T14:50:12Z</time>
      </trkpt>
      <trkpt lat="44.83323" lon="5.47882">
        <ele>1618.2</ele>
        <time>2021-10-08T14:50:13Z</time>
      </trkpt>
      <trkpt lat="44.83324" lon="5.4789">
        <ele>1619</ele>
        <time>2021-10-08T14:50:14Z</time>
      </trkpt>
      <trkpt lat="44.83324" lon="5.47897">
        <ele>1619</ele>
        <time>2021-10-08T14:50:15Z</time>
      </trkpt>
      <trkpt lat="44.83323" lon="5.47904">
        <ele>1619</ele>
        <time>2021-10-08T14:50:16Z</time>
      </trkpt>
      <trkpt lat="44.83322" lon="5.4791">
        <ele>1618.6</ele>
        <time>2021-10-08T14:50:17Z</time>
      </trkpt>
      <trkpt lat="44.83321" lon="5.47916">
        <ele>1620</ele>
        <time>2021-10-08T14:50:18Z</time>
      </trkpt>
      <trkpt lat="44.8332" lon="5.47922">
        <ele>1620</ele>
        <time>2021-10-08T14:50:19Z</time>
      </trkpt>
      <trkpt lat="44.83319" lon="5.47928">
        <ele>1620</ele>
        <time>2021-10-08T14:50:20Z</time>
      </trkpt>
      <trkpt lat="44.83318" lon="5.47933">
        <ele>1619</ele>
        <time>2021-10-08T14:50:21Z</time>
      </trkpt>
      <trkpt lat="44.83318" lon="5.47939">
        <ele>1619</ele>
        <time>2021-10-08T14:50:22Z</time>
      </trkpt>
      <trkpt lat="44.83317" lon="5.47944">
        <ele>1619</ele>
        <time>2021-10-08T14:50:23Z</time>
      </trkpt>
      <trkpt lat="44.83316" lon="5.47949">
        <ele>1619</ele>
        <time>2021-10-08T14:50:24Z</time>
      </trkpt>
      <trkpt lat="44.83315" lon="5.47954">
        <ele>1619</ele>
        <time>2021-10-08T14:50:25Z</time>
      </trkpt>
      <trkpt lat="44.83314" lon="5.4796">
        <ele>1618.6</ele>
        <time>2021-10-08T14:50:26Z</time>
      </trkpt>
      <trkpt lat="44.83314" lon="5.47965">
        <ele>1618.6</ele>
        <time>2021-10-08T14:50:27Z</time>
      </trkpt>
      <trkpt lat="44.83314" lon="5.47971">
        <ele>1618.6</ele>
        <time>2021-10-08T14:50:28Z</time>
      </trkpt>
      <trkpt lat="44.83314" lon="5.47976">
        <ele>1618.6</ele>
        <time>2021-10-08T14:50:29Z</time>
      </trkpt>
      <trkpt lat="44.83315" lon="5.47981">
        <ele>1617.8</ele>
        <time>2021-10-08T14:50:30Z</time>
      </trkpt>
      <trkpt lat="44.83316" lon="5.47987">
        <ele>1617.8</ele>
        <time>2021-10-08T14:50:31Z</time>
      </trkpt>
      <trkpt lat="44.83316" lon="5.47992">
        <ele>1617.8</ele>
        <time>2021-10-08T14:50:32Z</time>
      </trkpt>
      <trkpt lat="44.83317" lon="5.47997">
        <ele>1617.8</ele>
        <time>2021-10-08T14:50:33Z</time>
      </trkpt>
      <trkpt lat="44.83317" lon="5.48001">
        <ele>1618.6</ele>
        <time>2021-10-08T14:50:34Z</time>
      </trkpt>
      <trkpt lat="44.83317" lon="5.48005">
        <ele>1618.6</ele>
        <time>2021-10-08T14:50:35Z</time>
      </trkpt>
      <trkpt lat="44.83317" lon="5.4801">
        <ele>1618.6</ele>
        <time>2021-10-08T14:50:36Z</time>
      </trkpt>
      <trkpt lat="44.83316" lon="5.48015">
        <ele>1618.6</ele>
        <time>2021-10-08T14:50:37Z</time>
      </trkpt>
      <trkpt lat="44.83316" lon="5.4802">
        <ele>1618.6</ele>
        <time>2021-10-08T14:50:38Z</time>
      </trkpt>
      <trkpt lat="44.83315" lon="5.48025">
        <ele>1618.6</ele>
        <time>2021-10-08T14:50:39Z</time>
      </trkpt>
      <trkpt lat="44.83315" lon="5.48031">
        <ele>1618.6</ele>
        <time>2021-10-08T14:50:40Z</time>
      </trkpt>
      <trkpt lat="44.83314" lon="5.48037">
        <ele>1618.4</ele>
        <time>2021-10-08T14:50:41Z</time>
      </trkpt>
      <trkpt lat="44.83314" lon="5.48043">
        <ele>1618.6</ele>
        <time>2021-10-08T14:50:42Z</time>
      </trkpt>
      <trkpt lat="44.83313" lon="5.48049">
        <ele>1618.6</ele>
        <time>2021-10-08T14:50:43Z</time>
      </trkpt>
      <trkpt lat="44.83312" lon="5.48054">
        <ele>1618.6</ele>
        <time>2021-10-08T14:50:44Z</time>
      </trkpt>
      <trkpt lat="44.83311" lon="5.48058">
        <ele>1618.6</ele>
        <time>2021-10-08T14:50:45Z</time>
      </trkpt>
      <trkpt lat="44.8331" lon="5.48062">
        <ele>1618.8</ele>
        <time>2021-10-08T14:50:46Z</time>
      </trkpt>
      <trkpt lat="44.8331" lon="5.48067">
        <ele>1618.8</ele>
        <time>2021-10-08T14:50:47Z</time>
      </trkpt>
      <trkpt lat="44.83309" lon="5.4807">
        <ele>1618.8</ele>
        <time>2021-10-08T14:50:48Z</time>
      </trkpt>
      <trkpt lat="44.83309" lon="5.48073">
        <ele>1619</ele>
        <time>2021-10-08T14:50:49Z</time>
      </trkpt>
      <trkpt lat="44.83308" lon="5.48075">
        <ele>1619</ele>
        <time>2021-10-08T14:50:50Z</time>
      </trkpt>
      <trkpt lat="44.83308" lon="5.48077">
        <ele>1619</ele>
        <time>2021-10-08T14:50:51Z</time>
      </trkpt>
      <trkpt lat="44.83307" lon="5.4808">
        <ele>1619</ele>
        <time>2021-10-08T14:50:52Z</time>
      </trkpt>
      <trkpt lat="44.83307" lon="5.48082">
        <ele>1619</ele>
        <time>2021-10-08T14:50:53Z</time>
      </trkpt>
      <trkpt lat="44.83306" lon="5.48084">
        <ele>1618.8</ele>
        <time>2021-10-08T14:50:54Z</time>
      </trkpt>
      <trkpt lat="44.83305" lon="5.48085">
        <ele>1618.8</ele>
        <time>2021-10-08T14:50:55Z</time>
      </trkpt>
      <trkpt lat="44.83305" lon="5.48087">
        <ele>1618.8</ele>
        <time>2021-10-08T14:50:56Z</time>
      </trkpt>
      <trkpt lat="44.83304" lon="5.48088">
        <ele>1618.8</ele>
        <time>2021-10-08T14:50:57Z</time>
      </trkpt>
      <trkpt lat="44.83304" lon="5.4809">
        <ele>1618.6</ele>
        <time>2021-10-08T14:50:58Z</time>
      </trkpt>
      <trkpt lat="44.83303" lon="5.48092">
        <ele>1618.6</ele>
        <time>2021-10-08T14:50:59Z</time>
      </trkpt>
      <trkpt lat="44.83304" lon="5.48094">
        <ele>1618.6</ele>
        <time>2021-10-08T14:51:00Z</time>
      </trkpt>
      <trkpt lat="44.83305" lon="5.48094">
        <ele>1618.6</ele>
        <time>2021-10-08T14:51:01Z</time>
      </trkpt>
      <trkpt lat="44.83306" lon="5.48094">
        <ele>1617.6</ele>
        <time>2021-10-08T14:51:02Z</time>
      </trkpt>
      <trkpt lat="44.83307" lon="5.48093">
        <ele>1617.6</ele>
        <time>2021-10-08T14:51:03Z</time>
      </trkpt>
      <trkpt lat="44.83308" lon="5.48091">
        <ele>1617.6</ele>
        <time>2021-10-08T14:51:04Z</time>
      </trkpt>
      <trkpt lat="44.83309" lon="5.48089">
        <ele>1618.4</ele>
        <time>2021-10-08T14:51:05Z</time>
      </trkpt>
      <trkpt lat="44.83309" lon="5.48086">
        <ele>1618</ele>
        <time>2021-10-08T14:51:06Z</time>
      </trkpt>
      <trkpt lat="44.8331" lon="5.48083">
        <ele>1618</ele>
        <time>2021-10-08T14:51:07Z</time>
      </trkpt>
      <trkpt lat="44.8331" lon="5.4808">
        <ele>1618</ele>
        <time>2021-10-08T14:51:08Z</time>
      </trkpt>
      <trkpt lat="44.8331" lon="5.48077">
        <ele>1618</ele>
        <time>2021-10-08T14:51:09Z</time>
      </trkpt>
      <trkpt lat="44.8331" lon="5.48073">
        <ele>1618.4</ele>
        <time>2021-10-08T14:51:10Z</time>
      </trkpt>
      <trkpt lat="44.8331" lon="5.4807">
        <ele>1618.4</ele>
        <time>2021-10-08T14:51:11Z</time>
      </trkpt>
      <trkpt lat="44.83311" lon="5.48066">
        <ele>1618.4</ele>
        <time>2021-10-08T14:51:12Z</time>
      </trkpt>
      <trkpt lat="44.83312" lon="5.48063">
        <ele>1618.4</ele>
        <time>2021-10-08T14:51:13Z</time>
      </trkpt>
      <trkpt lat="44.83313" lon="5.48059">
        <ele>1617.2</ele>
        <time>2021-10-08T14:51:14Z</time>
      </trkpt>
      <trkpt lat="44.83315" lon="5.48055">
        <ele>1617.2</ele>
        <time>2021-10-08T14:51:15Z</time>
      </trkpt>
      <trkpt lat="44.83317" lon="5.48051">
        <ele>1617.2</ele>
        <time>2021-10-08T14:51:16Z</time>
      </trkpt>
      <trkpt lat="44.8332" lon="5.48047">
        <ele>1616.6</ele>
        <time>2021-10-08T14:51:17Z</time>
      </trkpt>
      <trkpt lat="44.83322" lon="5.48043">
        <ele>1615.8</ele>
        <time>2021-10-08T14:51:18Z</time>
      </trkpt>
      <trkpt lat="44.83324" lon="5.48039">
        <ele>1615.8</ele>
        <time>2021-10-08T14:51:19Z</time>
      </trkpt>
      <trkpt lat="44.83327" lon="5.48037">
        <ele>1615.8</ele>
        <time>2021-10-08T14:51:20Z</time>
      </trkpt>
      <trkpt lat="44.8333" lon="5.48034">
        <ele>1615.8</ele>
        <time>2021-10-08T14:51:21Z</time>
      </trkpt>
      <trkpt lat="44.83334" lon="5.48033">
        <ele>1616.2</ele>
        <time>2021-10-08T14:51:22Z</time>
      </trkpt>
      <trkpt lat="44.83337" lon="5.48033">
        <ele>1616.2</ele>
        <time>2021-10-08T14:51:23Z</time>
      </trkpt>
      <trkpt lat="44.83341" lon="5.48034">
        <ele>1616.2</ele>
        <time>2021-10-08T14:51:24Z</time>
      </trkpt>
      <trkpt lat="44.83344" lon="5.48035">
        <ele>1616.2</ele>
        <time>2021-10-08T14:51:25Z</time>
      </trkpt>
      <trkpt lat="44.83346" lon="5.48037">
        <ele>1619</ele>
        <time>2021-10-08T14:51:26Z</time>
      </trkpt>
      <trkpt lat="44.83349" lon="5.48039">
        <ele>1619</ele>
        <time>2021-10-08T14:51:27Z</time>
      </trkpt>
      <trkpt lat="44.83351" lon="5.48041">
        <ele>1619</ele>
        <time>2021-10-08T14:51:28Z</time>
      </trkpt>
      <trkpt lat="44.83354" lon="5.48044">
        <ele>1618</ele>
        <time>2021-10-08T14:51:29Z</time>
      </trkpt>
      <trkpt lat="44.83357" lon="5.48047">
        <ele>1616.2</ele>
        <time>2021-10-08T14:51:30Z</time>
      </trkpt>
      <trkpt lat="44.83359" lon="5.48049">
        <ele>1616.2</ele>
        <time>2021-10-08T14:51:31Z</time>
      </trkpt>
      <trkpt lat="44.83361" lon="5.48052">
        <ele>1616.2</ele>
        <time>2021-10-08T14:51:32Z</time>
      </trkpt>
      <trkpt lat="44.83363" lon="5.48056">
        <ele>1616.2</ele>
        <time>2021-10-08T14:51:33Z</time>
      </trkpt>
      <trkpt lat="44.83365" lon="5.48059">
        <ele>1617</ele>
        <time>2021-10-08T14:51:34Z</time>
      </trkpt>
      <trkpt lat="44.83367" lon="5.48062">
        <ele>1617</ele>
        <time>2021-10-08T14:51:35Z</time>
      </trkpt>
      <trkpt lat="44.83368" lon="5.48065">
        <ele>1617</ele>
        <time>2021-10-08T14:51:36Z</time>
      </trkpt>
      <trkpt lat="44.8337" lon="5.48068">
        <ele>1617.6</ele>
        <time>2021-10-08T14:51:37Z</time>
      </trkpt>
      <trkpt lat="44.83372" lon="5.48071">
        <ele>1618.4</ele>
        <time>2021-10-08T14:51:38Z</time>
      </trkpt>
      <trkpt lat="44.83374" lon="5.48073">
        <ele>1618.4</ele>
        <time>2021-10-08T14:51:39Z</time>
      </trkpt>
      <trkpt lat="44.83375" lon="5.48076">
        <ele>1618.4</ele>
        <time>2021-10-08T14:51:40Z</time>
      </trkpt>
      <trkpt lat="44.83377" lon="5.48078">
        <ele>1618.4</ele>
        <time>2021-10-08T14:51:41Z</time>
      </trkpt>
      <trkpt lat="44.83378" lon="5.4808">
        <ele>1619</ele>
        <time>2021-10-08T14:51:42Z</time>
      </trkpt>
      <trkpt lat="44.8338" lon="5.48081">
        <ele>1619</ele>
        <time>2021-10-08T14:51:43Z</time>
      </trkpt>
      <trkpt lat="44.83381" lon="5.48084">
        <ele>1619</ele>
        <time>2021-10-08T14:51:44Z</time>
      </trkpt>
      <trkpt lat="44.83383" lon="5.48086">
        <ele>1619</ele>
        <time>2021-10-08T14:51:45Z</time>
      </trkpt>
      <trkpt lat="44.83385" lon="5.48089">
        <ele>1618.6</ele>
        <time>2021-10-08T14:51:46Z</time>
      </trkpt>
      <trkpt lat="44.83386" lon="5.48091">
        <ele>1618.6</ele>
        <time>2021-10-08T14:51:47Z</time>
      </trkpt>
      <trkpt lat="44.83388" lon="5.48093">
        <ele>1618.6</ele>
        <time>2021-10-08T14:51:48Z</time>
      </trkpt>
      <trkpt lat="44.8339" lon="5.48096">
        <ele>1618.6</ele>
        <time>2021-10-08T14:51:49Z</time>
      </trkpt>
      <trkpt lat="44.83391" lon="5.48098">
        <ele>1618.6</ele>
        <time>2021-10-08T14:51:50Z</time>
      </trkpt>
      <trkpt lat="44.83393" lon="5.48101">
        <ele>1618.6</ele>
        <time>2021-10-08T14:51:51Z</time>
      </trkpt>
      <trkpt lat="44.83394" lon="5.48103">
        <ele>1618.6</ele>
        <time>2021-10-08T14:51:52Z</time>
      </trkpt>
      <trkpt lat="44.83395" lon="5.48105">
        <ele>1619.6</ele>
        <time>2021-10-08T14:51:53Z</time>
      </trkpt>
      <trkpt lat="44.83396" lon="5.48107">
        <ele>1619.8</ele>
        <time>2021-10-08T14:51:54Z</time>
      </trkpt>
      <trkpt lat="44.83398" lon="5.4811">
        <ele>1619.8</ele>
        <time>2021-10-08T14:51:55Z</time>
      </trkpt>
      <trkpt lat="44.83398" lon="5.48112">
        <ele>1619.8</ele>
        <time>2021-10-08T14:51:56Z</time>
      </trkpt>
      <trkpt lat="44.83399" lon="5.48114">
        <ele>1619.8</ele>
        <time>2021-10-08T14:51:57Z</time>
      </trkpt>
      <trkpt lat="44.834" lon="5.48116">
        <ele>1620.4</ele>
        <time>2021-10-08T14:51:58Z</time>
      </trkpt>
      <trkpt lat="44.834" lon="5.48119">
        <ele>1620.4</ele>
        <time>2021-10-08T14:51:59Z</time>
      </trkpt>
      <trkpt lat="44.834" lon="5.48121">
        <ele>1620.4</ele>
        <time>2021-10-08T14:52:00Z</time>
      </trkpt>
      <trkpt lat="44.83401" lon="5.48123">
        <ele>1620.4</ele>
        <time>2021-10-08T14:52:01Z</time>
      </trkpt>
      <trkpt lat="44.83401" lon="5.48125">
        <ele>1621.6</ele>
        <time>2021-10-08T14:52:02Z</time>
      </trkpt>
      <trkpt lat="44.83401" lon="5.48127">
        <ele>1621.6</ele>
        <time>2021-10-08T14:52:03Z</time>
      </trkpt>
      <trkpt lat="44.83401" lon="5.48129">
        <ele>1621.6</ele>
        <time>2021-10-08T14:52:04Z</time>
      </trkpt>
      <trkpt lat="44.83401" lon="5.48131">
        <ele>1622.6</ele>
        <time>2021-10-08T14:52:05Z</time>
      </trkpt>
      <trkpt lat="44.83401" lon="5.48133">
        <ele>1623.2</ele>
        <time>2021-10-08T14:52:06Z</time>
      </trkpt>
      <trkpt lat="44.83401" lon="5.48134">
        <ele>1623.2</ele>
        <time>2021-10-08T14:52:07Z</time>
      </trkpt>
      <trkpt lat="44.83401" lon="5.48136">
        <ele>1623.2</ele>
        <time>2021-10-08T14:52:08Z</time>
      </trkpt>
      <trkpt lat="44.83401" lon="5.48138">
        <ele>1623.2</ele>
        <time>2021-10-08T14:52:09Z</time>
      </trkpt>
      <trkpt lat="44.83401" lon="5.4814">
        <ele>1623.2</ele>
        <time>2021-10-08T14:52:10Z</time>
      </trkpt>
      <trkpt lat="44.83401" lon="5.48142">
        <ele>1623.2</ele>
        <time>2021-10-08T14:52:11Z</time>
      </trkpt>
      <trkpt lat="44.83401" lon="5.48144">
        <ele>1623.2</ele>
        <time>2021-10-08T14:52:12Z</time>
      </trkpt>
      <trkpt lat="44.83402" lon="5.48146">
        <ele>1623.8</ele>
        <time>2021-10-08T14:52:13Z</time>
      </trkpt>
      <trkpt lat="44.83402" lon="5.48148">
        <ele>1623.8</ele>
        <time>2021-10-08T14:52:14Z</time>
      </trkpt>
      <trkpt lat="44.83402" lon="5.4815">
        <ele>1623.8</ele>
        <time>2021-10-08T14:52:15Z</time>
      </trkpt>
      <trkpt lat="44.83402" lon="5.48152">
        <ele>1623.8</ele>
        <time>2021-10-08T14:52:16Z</time>
      </trkpt>
      <trkpt lat="44.83402" lon="5.48154">
        <ele>1624.2</ele>
        <time>2021-10-08T14:52:17Z</time>
      </trkpt>
      <trkpt lat="44.83403" lon="5.48156">
        <ele>1624.8</ele>
        <time>2021-10-08T14:52:18Z</time>
      </trkpt>
      <trkpt lat="44.83403" lon="5.48158">
        <ele>1624.8</ele>
        <time>2021-10-08T14:52:19Z</time>
      </trkpt>
      <trkpt lat="44.83404" lon="5.4816">
        <ele>1624.8</ele>
        <time>2021-10-08T14:52:20Z</time>
      </trkpt>
      <trkpt lat="44.83405" lon="5.48162">
        <ele>1624.2</ele>
        <time>2021-10-08T14:52:21Z</time>
      </trkpt>
      <trkpt lat="44.83406" lon="5.48164">
        <ele>1624.2</ele>
        <time>2021-10-08T14:52:22Z</time>
      </trkpt>
      <trkpt lat="44.83408" lon="5.48165">
        <ele>1624.2</ele>
        <time>2021-10-08T14:52:23Z</time>
      </trkpt>
      <trkpt lat="44.83409" lon="5.48167">
        <ele>1624.2</ele>
        <time>2021-10-08T14:52:24Z</time>
      </trkpt>
      <trkpt lat="44.8341" lon="5.48168">
        <ele>1624.2</ele>
        <time>2021-10-08T14:52:25Z</time>
      </trkpt>
      <trkpt lat="44.83411" lon="5.48169">
        <ele>1625.4</ele>
        <time>2021-10-08T14:52:26Z</time>
      </trkpt>
      <trkpt lat="44.83412" lon="5.4817">
        <ele>1625.4</ele>
        <time>2021-10-08T14:52:27Z</time>
      </trkpt>
      <trkpt lat="44.83413" lon="5.48171">
        <ele>1625.4</ele>
        <time>2021-10-08T14:52:28Z</time>
      </trkpt>
      <trkpt lat="44.83414" lon="5.48171">
        <ele>1625.2</ele>
        <time>2021-10-08T14:52:29Z</time>
      </trkpt>
      <trkpt lat="44.83415" lon="5.48171">
        <ele>1625.4</ele>
        <time>2021-10-08T14:52:30Z</time>
      </trkpt>
      <trkpt lat="44.83416" lon="5.4817">
        <ele>1625.4</ele>
        <time>2021-10-08T14:52:31Z</time>
      </trkpt>
      <trkpt lat="44.83418" lon="5.4817">
        <ele>1625.4</ele>
        <time>2021-10-08T14:52:32Z</time>
      </trkpt>
      <trkpt lat="44.83419" lon="5.4817">
        <ele>1626</ele>
        <time>2021-10-08T14:52:33Z</time>
      </trkpt>
      <trkpt lat="44.8342" lon="5.4817">
        <ele>1626.4</ele>
        <time>2021-10-08T14:52:34Z</time>
      </trkpt>
      <trkpt lat="44.83422" lon="5.48171">
        <ele>1626.4</ele>
        <time>2021-10-08T14:52:35Z</time>
      </trkpt>
      <trkpt lat="44.83423" lon="5.48171">
        <ele>1626.4</ele>
        <time>2021-10-08T14:52:36Z</time>
      </trkpt>
      <trkpt lat="44.83424" lon="5.48172">
        <ele>1626.4</ele>
        <time>2021-10-08T14:52:37Z</time>
      </trkpt>
      <trkpt lat="44.83426" lon="5.48172">
        <ele>1627.2</ele>
        <time>2021-10-08T14:52:38Z</time>
      </trkpt>
      <trkpt lat="44.83428" lon="5.48172">
        <ele>1627.2</ele>
        <time>2021-10-08T14:52:39Z</time>
      </trkpt>
      <trkpt lat="44.83429" lon="5.48173">
        <ele>1627.2</ele>
        <time>2021-10-08T14:52:40Z</time>
      </trkpt>
      <trkpt lat="44.83431" lon="5.48173">
        <ele>1627.2</ele>
        <time>2021-10-08T14:52:41Z</time>
      </trkpt>
      <trkpt lat="44.83433" lon="5.48173">
        <ele>1627.2</ele>
        <time>2021-10-08T14:52:42Z</time>
      </trkpt>
      <trkpt lat="44.83435" lon="5.48173">
        <ele>1627</ele>
        <time>2021-10-08T14:52:43Z</time>
      </trkpt>
      <trkpt lat="44.83437" lon="5.48173">
        <ele>1627</ele>
        <time>2021-10-08T14:52:44Z</time>
      </trkpt>
      <trkpt lat="44.83439" lon="5.48172">
        <ele>1627.6</ele>
        <time>2021-10-08T14:52:45Z</time>
      </trkpt>
      <trkpt lat="44.83441" lon="5.48172">
        <ele>1627.4</ele>
        <time>2021-10-08T14:52:46Z</time>
      </trkpt>
      <trkpt lat="44.83442" lon="5.48172">
        <ele>1627.4</ele>
        <time>2021-10-08T14:52:47Z</time>
      </trkpt>
      <trkpt lat="44.83444" lon="5.48171">
        <ele>1627.4</ele>
        <time>2021-10-08T14:52:48Z</time>
      </trkpt>
      <trkpt lat="44.83446" lon="5.48169">
        <ele>1627.2</ele>
        <time>2021-10-08T14:52:49Z</time>
      </trkpt>
      <trkpt lat="44.83447" lon="5.48168">
        <ele>1627.4</ele>
        <time>2021-10-08T14:52:50Z</time>
      </trkpt>
      <trkpt lat="44.8345" lon="5.48167">
        <ele>1627.4</ele>
        <time>2021-10-08T14:52:51Z</time>
      </trkpt>
      <trkpt lat="44.83452" lon="5.48167">
        <ele>1627.4</ele>
        <time>2021-10-08T14:52:52Z</time>
      </trkpt>
      <trkpt lat="44.83454" lon="5.48167">
        <ele>1627.4</ele>
        <time>2021-10-08T14:52:53Z</time>
      </trkpt>
      <trkpt lat="44.83456" lon="5.48167">
        <ele>1627</ele>
        <time>2021-10-08T14:52:54Z</time>
      </trkpt>
      <trkpt lat="44.83458" lon="5.48167">
        <ele>1627</ele>
        <time>2021-10-08T14:52:55Z</time>
      </trkpt>
      <trkpt lat="44.8346" lon="5.48167">
        <ele>1627</ele>
        <time>2021-10-08T14:52:56Z</time>
      </trkpt>
      <trkpt lat="44.83462" lon="5.48166">
        <ele>1627</ele>
        <time>2021-10-08T14:52:57Z</time>
      </trkpt>
      <trkpt lat="44.83465" lon="5.48165">
        <ele>1626.4</ele>
        <time>2021-10-08T14:52:58Z</time>
      </trkpt>
      <trkpt lat="44.83467" lon="5.48164">
        <ele>1626.4</ele>
        <time>2021-10-08T14:52:59Z</time>
      </trkpt>
      <trkpt lat="44.8347" lon="5.48164">
        <ele>1626.4</ele>
        <time>2021-10-08T14:53:00Z</time>
      </trkpt>
      <trkpt lat="44.83473" lon="5.48163">
        <ele>1626.4</ele>
        <time>2021-10-08T14:53:01Z</time>
      </trkpt>
      <trkpt lat="44.83475" lon="5.48162">
        <ele>1626</ele>
        <time>2021-10-08T14:53:02Z</time>
      </trkpt>
      <trkpt lat="44.83478" lon="5.48162">
        <ele>1626</ele>
        <time>2021-10-08T14:53:03Z</time>
      </trkpt>
      <trkpt lat="44.83481" lon="5.48161">
        <ele>1626</ele>
        <time>2021-10-08T14:53:04Z</time>
      </trkpt>
      <trkpt lat="44.83484" lon="5.4816">
        <ele>1626</ele>
        <time>2021-10-08T14:53:05Z</time>
      </trkpt>
      <trkpt lat="44.83487" lon="5.48159">
        <ele>1626</ele>
        <time>2021-10-08T14:53:06Z</time>
      </trkpt>
      <trkpt lat="44.83489" lon="5.48158">
        <ele>1625.6</ele>
        <time>2021-10-08T14:53:07Z</time>
      </trkpt>
      <trkpt lat="44.83492" lon="5.48157">
        <ele>1625.6</ele>
        <time>2021-10-08T14:53:08Z</time>
      </trkpt>
      <trkpt lat="44.83494" lon="5.48155">
        <ele>1626.2</ele>
        <time>2021-10-08T14:53:09Z</time>
      </trkpt>
      <trkpt lat="44.83496" lon="5.48154">
        <ele>1626.2</ele>
        <time>2021-10-08T14:53:10Z</time>
      </trkpt>
      <trkpt lat="44.83498" lon="5.48153">
        <ele>1626.2</ele>
        <time>2021-10-08T14:53:11Z</time>
      </trkpt>
      <trkpt lat="44.835" lon="5.48151">
        <ele>1626.2</ele>
        <time>2021-10-08T14:53:12Z</time>
      </trkpt>
      <trkpt lat="44.83503" lon="5.48151">
        <ele>1625.2</ele>
        <time>2021-10-08T14:53:13Z</time>
      </trkpt>
      <trkpt lat="44.83506" lon="5.4815">
        <ele>1624.6</ele>
        <time>2021-10-08T14:53:14Z</time>
      </trkpt>
      <trkpt lat="44.8351" lon="5.48149">
        <ele>1624.6</ele>
        <time>2021-10-08T14:53:15Z</time>
      </trkpt>
      <trkpt lat="44.83514" lon="5.48148">
        <ele>1624.6</ele>
        <time>2021-10-08T14:53:16Z</time>
      </trkpt>
      <trkpt lat="44.83518" lon="5.48147">
        <ele>1624</ele>
        <time>2021-10-08T14:53:17Z</time>
      </trkpt>
      <trkpt lat="44.83521" lon="5.48145">
        <ele>1623</ele>
        <time>2021-10-08T14:53:18Z</time>
      </trkpt>
      <trkpt lat="44.83525" lon="5.48144">
        <ele>1623</ele>
        <time>2021-10-08T14:53:19Z</time>
      </trkpt>
      <trkpt lat="44.83529" lon="5.48144">
        <ele>1623</ele>
        <time>2021-10-08T14:53:20Z</time>
      </trkpt>
      <trkpt lat="44.83533" lon="5.48144">
        <ele>1623.6</ele>
        <time>2021-10-08T14:53:21Z</time>
      </trkpt>
      <trkpt lat="44.83536" lon="5.48144">
        <ele>1623.8</ele>
        <time>2021-10-08T14:53:22Z</time>
      </trkpt>
      <trkpt lat="44.83539" lon="5.48143">
        <ele>1623.8</ele>
        <time>2021-10-08T14:53:23Z</time>
      </trkpt>
      <trkpt lat="44.83543" lon="5.48142">
        <ele>1623.8</ele>
        <time>2021-10-08T14:53:24Z</time>
      </trkpt>
      <trkpt lat="44.83546" lon="5.48142">
        <ele>1623.8</ele>
        <time>2021-10-08T14:53:25Z</time>
      </trkpt>
      <trkpt lat="44.83549" lon="5.48141">
        <ele>1623.2</ele>
        <time>2021-10-08T14:53:26Z</time>
      </trkpt>
      <trkpt lat="44.83552" lon="5.48141">
        <ele>1623.2</ele>
        <time>2021-10-08T14:53:27Z</time>
      </trkpt>
      <trkpt lat="44.83556" lon="5.4814">
        <ele>1623.2</ele>
        <time>2021-10-08T14:53:28Z</time>
      </trkpt>
      <trkpt lat="44.83558" lon="5.48141">
        <ele>1623.2</ele>
        <time>2021-10-08T14:53:29Z</time>
      </trkpt>
      <trkpt lat="44.83561" lon="5.48142">
        <ele>1623.2</ele>
        <time>2021-10-08T14:53:30Z</time>
      </trkpt>
      <trkpt lat="44.83563" lon="5.48143">
        <ele>1624.4</ele>
        <time>2021-10-08T14:53:31Z</time>
      </trkpt>
      <trkpt lat="44.83565" lon="5.48144">
        <ele>1624.4</ele>
        <time>2021-10-08T14:53:32Z</time>
      </trkpt>
      <trkpt lat="44.83568" lon="5.48145">
        <ele>1624.8</ele>
        <time>2021-10-08T14:53:33Z</time>
      </trkpt>
      <trkpt lat="44.8357" lon="5.48145">
        <ele>1625.4</ele>
        <time>2021-10-08T14:53:34Z</time>
      </trkpt>
      <trkpt lat="44.83573" lon="5.48145">
        <ele>1625.4</ele>
        <time>2021-10-08T14:53:35Z</time>
      </trkpt>
      <trkpt lat="44.83576" lon="5.48145">
        <ele>1625.4</ele>
        <time>2021-10-08T14:53:36Z</time>
      </trkpt>
      <trkpt lat="44.83579" lon="5.48146">
        <ele>1624.8</ele>
        <time>2021-10-08T14:53:37Z</time>
      </trkpt>
      <trkpt lat="44.83582" lon="5.48147">
        <ele>1624.6</ele>
        <time>2021-10-08T14:53:38Z</time>
      </trkpt>
      <trkpt lat="44.83585" lon="5.48147">
        <ele>1624.6</ele>
        <time>2021-10-08T14:53:39Z</time>
      </trkpt>
      <trkpt lat="44.83588" lon="5.48147">
        <ele>1624.6</ele>
        <time>2021-10-08T14:53:40Z</time>
      </trkpt>
      <trkpt lat="44.83591" lon="5.48147">
        <ele>1624.4</ele>
        <time>2021-10-08T14:53:41Z</time>
      </trkpt>
      <trkpt lat="44.83595" lon="5.48148">
        <ele>1624.4</ele>
        <time>2021-10-08T14:53:42Z</time>
      </trkpt>
      <trkpt lat="44.83598" lon="5.48149">
        <ele>1624.4</ele>
        <time>2021-10-08T14:53:43Z</time>
      </trkpt>
      <trkpt lat="44.83601" lon="5.4815">
        <ele>1624.4</ele>
        <time>2021-10-08T14:53:44Z</time>
      </trkpt>
      <trkpt lat="44.83604" lon="5.48151">
        <ele>1624.4</ele>
        <time>2021-10-08T14:53:45Z</time>
      </trkpt>
      <trkpt lat="44.83607" lon="5.48151">
        <ele>1624.4</ele>
        <time>2021-10-08T14:53:46Z</time>
      </trkpt>
      <trkpt lat="44.83609" lon="5.48152">
        <ele>1624.4</ele>
        <time>2021-10-08T14:53:47Z</time>
      </trkpt>
      <trkpt lat="44.8361" lon="5.48153">
        <ele>1624.4</ele>
        <time>2021-10-08T14:53:48Z</time>
      </trkpt>
      <trkpt lat="44.83613" lon="5.48153">
        <ele>1624.4</ele>
        <time>2021-10-08T14:53:49Z</time>
      </trkpt>
      <trkpt lat="44.83616" lon="5.48154">
        <ele>1624</ele>
        <time>2021-10-08T14:53:50Z</time>
      </trkpt>
      <trkpt lat="44.83619" lon="5.48155">
        <ele>1624</ele>
        <time>2021-10-08T14:53:51Z</time>
      </trkpt>
      <trkpt lat="44.83624" lon="5.48156">
        <ele>1624</ele>
        <time>2021-10-08T14:53:52Z</time>
      </trkpt>
      <trkpt lat="44.83629" lon="5.48158">
        <ele>1623</ele>
        <time>2021-10-08T14:53:53Z</time>
      </trkpt>
      <trkpt lat="44.83633" lon="5.48161">
        <ele>1620.6</ele>
        <time>2021-10-08T14:53:54Z</time>
      </trkpt>
      <trkpt lat="44.83638" lon="5.48165">
        <ele>1620.6</ele>
        <time>2021-10-08T14:53:55Z</time>
      </trkpt>
      <trkpt lat="44.83641" lon="5.48167">
        <ele>1620.6</ele>
        <time>2021-10-08T14:53:56Z</time>
      </trkpt>
      <trkpt lat="44.83645" lon="5.48169">
        <ele>1621.6</ele>
        <time>2021-10-08T14:53:57Z</time>
      </trkpt>
      <trkpt lat="44.83648" lon="5.4817">
        <ele>1622.6</ele>
        <time>2021-10-08T14:53:58Z</time>
      </trkpt>
      <trkpt lat="44.83651" lon="5.48171">
        <ele>1622.6</ele>
        <time>2021-10-08T14:53:59Z</time>
      </trkpt>
      <trkpt lat="44.83654" lon="5.48172">
        <ele>1622.6</ele>
        <time>2021-10-08T14:54:00Z</time>
      </trkpt>
      <trkpt lat="44.83657" lon="5.48174">
        <ele>1622.2</ele>
        <time>2021-10-08T14:54:01Z</time>
      </trkpt>
      <trkpt lat="44.8366" lon="5.48175">
        <ele>1622.4</ele>
        <time>2021-10-08T14:54:02Z</time>
      </trkpt>
      <trkpt lat="44.83663" lon="5.48177">
        <ele>1622.4</ele>
        <time>2021-10-08T14:54:03Z</time>
      </trkpt>
      <trkpt lat="44.83667" lon="5.48179">
        <ele>1622.4</ele>
        <time>2021-10-08T14:54:04Z</time>
      </trkpt>
      <trkpt lat="44.83671" lon="5.48181">
        <ele>1621.4</ele>
        <time>2021-10-08T14:54:05Z</time>
      </trkpt>
      <trkpt lat="44.83676" lon="5.48182">
        <ele>1619</ele>
        <time>2021-10-08T14:54:06Z</time>
      </trkpt>
      <trkpt lat="44.8368" lon="5.48185">
        <ele>1619</ele>
        <time>2021-10-08T14:54:07Z</time>
      </trkpt>
      <trkpt lat="44.83685" lon="5.48187">
        <ele>1619</ele>
        <time>2021-10-08T14:54:08Z</time>
      </trkpt>
      <trkpt lat="44.8369" lon="5.48189">
        <ele>1620</ele>
        <time>2021-10-08T14:54:09Z</time>
      </trkpt>
      <trkpt lat="44.83693" lon="5.4819">
        <ele>1620.2</ele>
        <time>2021-10-08T14:54:10Z</time>
      </trkpt>
      <trkpt lat="44.83697" lon="5.48192">
        <ele>1620.2</ele>
        <time>2021-10-08T14:54:11Z</time>
      </trkpt>
      <trkpt lat="44.837" lon="5.48193">
        <ele>1620.2</ele>
        <time>2021-10-08T14:54:12Z</time>
      </trkpt>
      <trkpt lat="44.83703" lon="5.48193">
        <ele>1621.2</ele>
        <time>2021-10-08T14:54:13Z</time>
      </trkpt>
      <trkpt lat="44.83706" lon="5.48194">
        <ele>1621.6</ele>
        <time>2021-10-08T14:54:14Z</time>
      </trkpt>
      <trkpt lat="44.83709" lon="5.48194">
        <ele>1621.6</ele>
        <time>2021-10-08T14:54:15Z</time>
      </trkpt>
      <trkpt lat="44.83711" lon="5.48194">
        <ele>1621.6</ele>
        <time>2021-10-08T14:54:16Z</time>
      </trkpt>
      <trkpt lat="44.83713" lon="5.48194">
        <ele>1621.6</ele>
        <time>2021-10-08T14:54:17Z</time>
      </trkpt>
      <trkpt lat="44.83716" lon="5.48193">
        <ele>1621.8</ele>
        <time>2021-10-08T14:54:18Z</time>
      </trkpt>
      <trkpt lat="44.83719" lon="5.48193">
        <ele>1621.8</ele>
        <time>2021-10-08T14:54:19Z</time>
      </trkpt>
      <trkpt lat="44.83721" lon="5.48193">
        <ele>1621.8</ele>
        <time>2021-10-08T14:54:20Z</time>
      </trkpt>
      <trkpt lat="44.83724" lon="5.48193">
        <ele>1621.8</ele>
        <time>2021-10-08T14:54:21Z</time>
      </trkpt>
      <trkpt lat="44.83727" lon="5.48194">
        <ele>1623</ele>
        <time>2021-10-08T14:54:22Z</time>
      </trkpt>
      <trkpt lat="44.83729" lon="5.48194">
        <ele>1623</ele>
        <time>2021-10-08T14:54:23Z</time>
      </trkpt>
      <trkpt lat="44.83732" lon="5.48194">
        <ele>1623</ele>
        <time>2021-10-08T14:54:24Z</time>
      </trkpt>
      <trkpt lat="44.83734" lon="5.48193">
        <ele>1623</ele>
        <time>2021-10-08T14:54:25Z</time>
      </trkpt>
      <trkpt lat="44.83737" lon="5.48191">
        <ele>1623.2</ele>
        <time>2021-10-08T14:54:26Z</time>
      </trkpt>
      <trkpt lat="44.8374" lon="5.4819">
        <ele>1623.2</ele>
        <time>2021-10-08T14:54:27Z</time>
      </trkpt>
      <trkpt lat="44.83742" lon="5.48189">
        <ele>1623.2</ele>
        <time>2021-10-08T14:54:28Z</time>
      </trkpt>
      <trkpt lat="44.83745" lon="5.48189">
        <ele>1623.2</ele>
        <time>2021-10-08T14:54:29Z</time>
      </trkpt>
      <trkpt lat="44.83748" lon="5.48189">
        <ele>1623.4</ele>
        <time>2021-10-08T14:54:30Z</time>
      </trkpt>
      <trkpt lat="44.8375" lon="5.48189">
        <ele>1623.4</ele>
        <time>2021-10-08T14:54:31Z</time>
      </trkpt>
      <trkpt lat="44.83753" lon="5.4819">
        <ele>1623.4</ele>
        <time>2021-10-08T14:54:32Z</time>
      </trkpt>
      <trkpt lat="44.83756" lon="5.4819">
        <ele>1623.4</ele>
        <time>2021-10-08T14:54:33Z</time>
      </trkpt>
      <trkpt lat="44.83759" lon="5.4819">
        <ele>1623</ele>
        <time>2021-10-08T14:54:34Z</time>
      </trkpt>
      <trkpt lat="44.83762" lon="5.48191">
        <ele>1623</ele>
        <time>2021-10-08T14:54:35Z</time>
      </trkpt>
      <trkpt lat="44.83766" lon="5.48191">
        <ele>1623</ele>
        <time>2021-10-08T14:54:36Z</time>
      </trkpt>
      <trkpt lat="44.83769" lon="5.48192">
        <ele>1622</ele>
        <time>2021-10-08T14:54:37Z</time>
      </trkpt>
      <trkpt lat="44.83773" lon="5.48193">
        <ele>1622.6</ele>
        <time>2021-10-08T14:54:38Z</time>
      </trkpt>
      <trkpt lat="44.83776" lon="5.48194">
        <ele>1622.6</ele>
        <time>2021-10-08T14:54:39Z</time>
      </trkpt>
      <trkpt lat="44.8378" lon="5.48195">
        <ele>1622.6</ele>
        <time>2021-10-08T14:54:40Z</time>
      </trkpt>
      <trkpt lat="44.83783" lon="5.48197">
        <ele>1621.8</ele>
        <time>2021-10-08T14:54:41Z</time>
      </trkpt>
      <trkpt lat="44.83787" lon="5.48198">
        <ele>1620.8</ele>
        <time>2021-10-08T14:54:42Z</time>
      </trkpt>
      <trkpt lat="44.8379" lon="5.48199">
        <ele>1620.8</ele>
        <time>2021-10-08T14:54:43Z</time>
      </trkpt>
      <trkpt lat="44.83793" lon="5.482">
        <ele>1620.8</ele>
        <time>2021-10-08T14:54:44Z</time>
      </trkpt>
      <trkpt lat="44.83797" lon="5.48201">
        <ele>1620.8</ele>
        <time>2021-10-08T14:54:45Z</time>
      </trkpt>
      <trkpt lat="44.838" lon="5.48202">
        <ele>1620.8</ele>
        <time>2021-10-08T14:54:46Z</time>
      </trkpt>
      <trkpt lat="44.83804" lon="5.48204">
        <ele>1620.8</ele>
        <time>2021-10-08T14:54:47Z</time>
      </trkpt>
      <trkpt lat="44.83808" lon="5.48205">
        <ele>1620.8</ele>
        <time>2021-10-08T14:54:48Z</time>
      </trkpt>
      <trkpt lat="44.83812" lon="5.48206">
        <ele>1620.8</ele>
        <time>2021-10-08T14:54:49Z</time>
      </trkpt>
      <trkpt lat="44.83816" lon="5.48207">
        <ele>1620</ele>
        <time>2021-10-08T14:54:50Z</time>
      </trkpt>
      <trkpt lat="44.83821" lon="5.48208">
        <ele>1620</ele>
        <time>2021-10-08T14:54:51Z</time>
      </trkpt>
      <trkpt lat="44.83824" lon="5.4821">
        <ele>1620</ele>
        <time>2021-10-08T14:54:52Z</time>
      </trkpt>
      <trkpt lat="44.83828" lon="5.48211">
        <ele>1620</ele>
        <time>2021-10-08T14:54:53Z</time>
      </trkpt>
      <trkpt lat="44.83832" lon="5.48211">
        <ele>1618.8</ele>
        <time>2021-10-08T14:54:54Z</time>
      </trkpt>
      <trkpt lat="44.83836" lon="5.48212">
        <ele>1618.8</ele>
        <time>2021-10-08T14:54:55Z</time>
      </trkpt>
      <trkpt lat="44.83839" lon="5.48214">
        <ele>1618.8</ele>
        <time>2021-10-08T14:54:56Z</time>
      </trkpt>
      <trkpt lat="44.83842" lon="5.48215">
        <ele>1619</ele>
        <time>2021-10-08T14:54:57Z</time>
      </trkpt>
      <trkpt lat="44.83846" lon="5.48215">
        <ele>1619.6</ele>
        <time>2021-10-08T14:54:58Z</time>
      </trkpt>
      <trkpt lat="44.8385" lon="5.48215">
        <ele>1619.6</ele>
        <time>2021-10-08T14:54:59Z</time>
      </trkpt>
      <trkpt lat="44.83854" lon="5.48216">
        <ele>1619.6</ele>
        <time>2021-10-08T14:55:00Z</time>
      </trkpt>
      <trkpt lat="44.83858" lon="5.48218">
        <ele>1619.6</ele>
        <time>2021-10-08T14:55:01Z</time>
      </trkpt>
      <trkpt lat="44.83861" lon="5.48221">
        <ele>1619.6</ele>
        <time>2021-10-08T14:55:02Z</time>
      </trkpt>
      <trkpt lat="44.83865" lon="5.48224">
        <ele>1617.6</ele>
        <time>2021-10-08T14:55:03Z</time>
      </trkpt>
      <trkpt lat="44.83869" lon="5.48228">
        <ele>1617.6</ele>
        <time>2021-10-08T14:55:04Z</time>
      </trkpt>
      <trkpt lat="44.83873" lon="5.48231">
        <ele>1617.6</ele>
        <time>2021-10-08T14:55:05Z</time>
      </trkpt>
      <trkpt lat="44.83877" lon="5.48234">
        <ele>1616.6</ele>
        <time>2021-10-08T14:55:06Z</time>
      </trkpt>
      <trkpt lat="44.83881" lon="5.48237">
        <ele>1616.6</ele>
        <time>2021-10-08T14:55:07Z</time>
      </trkpt>
      <trkpt lat="44.83885" lon="5.48239">
        <ele>1616.6</ele>
        <time>2021-10-08T14:55:08Z</time>
      </trkpt>
      <trkpt lat="44.83887" lon="5.48241">
        <ele>1617.4</ele>
        <time>2021-10-08T14:55:09Z</time>
      </trkpt>
      <trkpt lat="44.8389" lon="5.48244">
        <ele>1616.8</ele>
        <time>2021-10-08T14:55:10Z</time>
      </trkpt>
      <trkpt lat="44.83894" lon="5.48247">
        <ele>1616.8</ele>
        <time>2021-10-08T14:55:11Z</time>
      </trkpt>
      <trkpt lat="44.83898" lon="5.4825">
        <ele>1616.8</ele>
        <time>2021-10-08T14:55:12Z</time>
      </trkpt>
      <trkpt lat="44.83902" lon="5.48253">
        <ele>1616.4</ele>
        <time>2021-10-08T14:55:13Z</time>
      </trkpt>
      <trkpt lat="44.83905" lon="5.48255">
        <ele>1616.6</ele>
        <time>2021-10-08T14:55:14Z</time>
      </trkpt>
      <trkpt lat="44.83909" lon="5.48257">
        <ele>1616.6</ele>
        <time>2021-10-08T14:55:15Z</time>
      </trkpt>
      <trkpt lat="44.83911" lon="5.48258">
        <ele>1616.6</ele>
        <time>2021-10-08T14:55:16Z</time>
      </trkpt>
      <trkpt lat="44.83915" lon="5.4826">
        <ele>1616.6</ele>
        <time>2021-10-08T14:55:17Z</time>
      </trkpt>
      <trkpt lat="44.83919" lon="5.48261">
        <ele>1616</ele>
        <time>2021-10-08T14:55:18Z</time>
      </trkpt>
      <trkpt lat="44.83923" lon="5.48264">
        <ele>1616</ele>
        <time>2021-10-08T14:55:19Z</time>
      </trkpt>
      <trkpt lat="44.83928" lon="5.48267">
        <ele>1616</ele>
        <time>2021-10-08T14:55:20Z</time>
      </trkpt>
      <trkpt lat="44.83932" lon="5.48271">
        <ele>1615</ele>
        <time>2021-10-08T14:55:21Z</time>
      </trkpt>
      <trkpt lat="44.83935" lon="5.48274">
        <ele>1615</ele>
        <time>2021-10-08T14:55:22Z</time>
      </trkpt>
      <trkpt lat="44.8394" lon="5.48278">
        <ele>1615</ele>
        <time>2021-10-08T14:55:23Z</time>
      </trkpt>
      <trkpt lat="44.83944" lon="5.48281">
        <ele>1615</ele>
        <time>2021-10-08T14:55:24Z</time>
      </trkpt>
      <trkpt lat="44.83946" lon="5.48282">
        <ele>1615</ele>
        <time>2021-10-08T14:55:25Z</time>
      </trkpt>
      <trkpt lat="44.8395" lon="5.48285">
        <ele>1614.8</ele>
        <time>2021-10-08T14:55:26Z</time>
      </trkpt>
      <trkpt lat="44.83954" lon="5.48287">
        <ele>1614.8</ele>
        <time>2021-10-08T14:55:27Z</time>
      </trkpt>
      <trkpt lat="44.83958" lon="5.48288">
        <ele>1614.8</ele>
        <time>2021-10-08T14:55:28Z</time>
      </trkpt>
      <trkpt lat="44.83963" lon="5.4829">
        <ele>1613.8</ele>
        <time>2021-10-08T14:55:29Z</time>
      </trkpt>
      <trkpt lat="44.83967" lon="5.48293">
        <ele>1614</ele>
        <time>2021-10-08T14:55:30Z</time>
      </trkpt>
      <trkpt lat="44.83971" lon="5.48296">
        <ele>1614</ele>
        <time>2021-10-08T14:55:31Z</time>
      </trkpt>
      <trkpt lat="44.83975" lon="5.48299">
        <ele>1614</ele>
        <time>2021-10-08T14:55:32Z</time>
      </trkpt>
      <trkpt lat="44.8398" lon="5.48302">
        <ele>1614</ele>
        <time>2021-10-08T14:55:33Z</time>
      </trkpt>
      <trkpt lat="44.83985" lon="5.48306">
        <ele>1611.8</ele>
        <time>2021-10-08T14:55:34Z</time>
      </trkpt>
      <trkpt lat="44.83988" lon="5.4831">
        <ele>1611.8</ele>
        <time>2021-10-08T14:55:35Z</time>
      </trkpt>
      <trkpt lat="44.83993" lon="5.48313">
        <ele>1611.8</ele>
        <time>2021-10-08T14:55:36Z</time>
      </trkpt>
      <trkpt lat="44.83997" lon="5.48316">
        <ele>1611.8</ele>
        <time>2021-10-08T14:55:37Z</time>
      </trkpt>
      <trkpt lat="44.84002" lon="5.48319">
        <ele>1611.4</ele>
        <time>2021-10-08T14:55:38Z</time>
      </trkpt>
      <trkpt lat="44.84006" lon="5.48322">
        <ele>1611.4</ele>
        <time>2021-10-08T14:55:39Z</time>
      </trkpt>
      <trkpt lat="44.8401" lon="5.48323">
        <ele>1611.4</ele>
        <time>2021-10-08T14:55:40Z</time>
      </trkpt>
      <trkpt lat="44.84013" lon="5.48325">
        <ele>1612</ele>
        <time>2021-10-08T14:55:41Z</time>
      </trkpt>
      <trkpt lat="44.84016" lon="5.48327">
        <ele>1611.2</ele>
        <time>2021-10-08T14:55:42Z</time>
      </trkpt>
      <trkpt lat="44.84019" lon="5.48328">
        <ele>1611.2</ele>
        <time>2021-10-08T14:55:43Z</time>
      </trkpt>
      <trkpt lat="44.84022" lon="5.48327">
        <ele>1611.2</ele>
        <time>2021-10-08T14:55:44Z</time>
      </trkpt>
      <trkpt lat="44.84025" lon="5.48328">
        <ele>1611.2</ele>
        <time>2021-10-08T14:55:45Z</time>
      </trkpt>
      <trkpt lat="44.84029" lon="5.4833">
        <ele>1610</ele>
        <time>2021-10-08T14:55:46Z</time>
      </trkpt>
      <trkpt lat="44.84033" lon="5.48331">
        <ele>1610</ele>
        <time>2021-10-08T14:55:47Z</time>
      </trkpt>
      <trkpt lat="44.84037" lon="5.48333">
        <ele>1610</ele>
        <time>2021-10-08T14:55:48Z</time>
      </trkpt>
      <trkpt lat="44.84041" lon="5.48335">
        <ele>1610</ele>
        <time>2021-10-08T14:55:49Z</time>
      </trkpt>
      <trkpt lat="44.84044" lon="5.48338">
        <ele>1610</ele>
        <time>2021-10-08T14:55:50Z</time>
      </trkpt>
      <trkpt lat="44.84046" lon="5.48341">
        <ele>1609.4</ele>
        <time>2021-10-08T14:55:51Z</time>
      </trkpt>
      <trkpt lat="44.84048" lon="5.48344">
        <ele>1609.4</ele>
        <time>2021-10-08T14:55:52Z</time>
      </trkpt>
      <trkpt lat="44.8405" lon="5.48347">
        <ele>1608.4</ele>
        <time>2021-10-08T14:55:53Z</time>
      </trkpt>
      <trkpt lat="44.84053" lon="5.48349">
        <ele>1606.8</ele>
        <time>2021-10-08T14:55:54Z</time>
      </trkpt>
      <trkpt lat="44.84057" lon="5.48351">
        <ele>1606.8</ele>
        <time>2021-10-08T14:55:55Z</time>
      </trkpt>
      <trkpt lat="44.84061" lon="5.48352">
        <ele>1606.8</ele>
        <time>2021-10-08T14:55:56Z</time>
      </trkpt>
      <trkpt lat="44.84065" lon="5.48353">
        <ele>1606.8</ele>
        <time>2021-10-08T14:55:57Z</time>
      </trkpt>
      <trkpt lat="44.84069" lon="5.48352">
        <ele>1605.2</ele>
        <time>2021-10-08T14:55:58Z</time>
      </trkpt>
      <trkpt lat="44.84073" lon="5.48352">
        <ele>1605.2</ele>
        <time>2021-10-08T14:55:59Z</time>
      </trkpt>
      <trkpt lat="44.84077" lon="5.48352">
        <ele>1605.2</ele>
        <time>2021-10-08T14:56:00Z</time>
      </trkpt>
      <trkpt lat="44.8408" lon="5.48351">
        <ele>1605.2</ele>
        <time>2021-10-08T14:56:01Z</time>
      </trkpt>
      <trkpt lat="44.84084" lon="5.48351">
        <ele>1603.8</ele>
        <time>2021-10-08T14:56:02Z</time>
      </trkpt>
      <trkpt lat="44.84087" lon="5.4835">
        <ele>1603.8</ele>
        <time>2021-10-08T14:56:03Z</time>
      </trkpt>
      <trkpt lat="44.84091" lon="5.4835">
        <ele>1603.8</ele>
        <time>2021-10-08T14:56:04Z</time>
      </trkpt>
      <trkpt lat="44.84093" lon="5.48349">
        <ele>1602.8</ele>
        <time>2021-10-08T14:56:05Z</time>
      </trkpt>
      <trkpt lat="44.84096" lon="5.4835">
        <ele>1601.8</ele>
        <time>2021-10-08T14:56:06Z</time>
      </trkpt>
      <trkpt lat="44.841" lon="5.48351">
        <ele>1601.8</ele>
        <time>2021-10-08T14:56:07Z</time>
      </trkpt>
      <trkpt lat="44.84104" lon="5.48351">
        <ele>1601.8</ele>
        <time>2021-10-08T14:56:08Z</time>
      </trkpt>
      <trkpt lat="44.84109" lon="5.48352">
        <ele>1600.8</ele>
        <time>2021-10-08T14:56:09Z</time>
      </trkpt>
      <trkpt lat="44.84114" lon="5.48354">
        <ele>1600.2</ele>
        <time>2021-10-08T14:56:10Z</time>
      </trkpt>
      <trkpt lat="44.84118" lon="5.48355">
        <ele>1600.2</ele>
        <time>2021-10-08T14:56:11Z</time>
      </trkpt>
      <trkpt lat="44.84122" lon="5.48355">
        <ele>1600.2</ele>
        <time>2021-10-08T14:56:12Z</time>
      </trkpt>
      <trkpt lat="44.84126" lon="5.48355">
        <ele>1599.2</ele>
        <time>2021-10-08T14:56:13Z</time>
      </trkpt>
      <trkpt lat="44.84131" lon="5.48355">
        <ele>1597.8</ele>
        <time>2021-10-08T14:56:14Z</time>
      </trkpt>
      <trkpt lat="44.84135" lon="5.48356">
        <ele>1597.8</ele>
        <time>2021-10-08T14:56:15Z</time>
      </trkpt>
      <trkpt lat="44.84139" lon="5.48356">
        <ele>1597.8</ele>
        <time>2021-10-08T14:56:16Z</time>
      </trkpt>
      <trkpt lat="44.84143" lon="5.48357">
        <ele>1597.8</ele>
        <time>2021-10-08T14:56:17Z</time>
      </trkpt>
      <trkpt lat="44.84147" lon="5.48358">
        <ele>1597.8</ele>
        <time>2021-10-08T14:56:18Z</time>
      </trkpt>
      <trkpt lat="44.8415" lon="5.48358">
        <ele>1597.8</ele>
        <time>2021-10-08T14:56:19Z</time>
      </trkpt>
      <trkpt lat="44.84153" lon="5.48359">
        <ele>1597.8</ele>
        <time>2021-10-08T14:56:20Z</time>
      </trkpt>
      <trkpt lat="44.84155" lon="5.4836">
        <ele>1596.8</ele>
        <time>2021-10-08T14:56:21Z</time>
      </trkpt>
      <trkpt lat="44.84158" lon="5.48362">
        <ele>1593.4</ele>
        <time>2021-10-08T14:56:22Z</time>
      </trkpt>
      <trkpt lat="44.84161" lon="5.48363">
        <ele>1593.4</ele>
        <time>2021-10-08T14:56:23Z</time>
      </trkpt>
      <trkpt lat="44.84164" lon="5.48363">
        <ele>1593.4</ele>
        <time>2021-10-08T14:56:24Z</time>
      </trkpt>
      <trkpt lat="44.84167" lon="5.48363">
        <ele>1593.4</ele>
        <time>2021-10-08T14:56:25Z</time>
      </trkpt>
      <trkpt lat="44.8417" lon="5.48362">
        <ele>1594</ele>
        <time>2021-10-08T14:56:26Z</time>
      </trkpt>
      <trkpt lat="44.84174" lon="5.48362">
        <ele>1594</ele>
        <time>2021-10-08T14:56:27Z</time>
      </trkpt>
      <trkpt lat="44.84178" lon="5.48361">
        <ele>1594</ele>
        <time>2021-10-08T14:56:28Z</time>
      </trkpt>
      <trkpt lat="44.84182" lon="5.48361">
        <ele>1593</ele>
        <time>2021-10-08T14:56:29Z</time>
      </trkpt>
      <trkpt lat="44.84186" lon="5.48361">
        <ele>1591.8</ele>
        <time>2021-10-08T14:56:30Z</time>
      </trkpt>
      <trkpt lat="44.8419" lon="5.4836">
        <ele>1591.8</ele>
        <time>2021-10-08T14:56:31Z</time>
      </trkpt>
      <trkpt lat="44.84194" lon="5.4836">
        <ele>1591.8</ele>
        <time>2021-10-08T14:56:32Z</time>
      </trkpt>
      <trkpt lat="44.84198" lon="5.48361">
        <ele>1591.8</ele>
        <time>2021-10-08T14:56:33Z</time>
      </trkpt>
      <trkpt lat="44.84202" lon="5.48361">
        <ele>1590.6</ele>
        <time>2021-10-08T14:56:34Z</time>
      </trkpt>
      <trkpt lat="44.84206" lon="5.48362">
        <ele>1590.6</ele>
        <time>2021-10-08T14:56:35Z</time>
      </trkpt>
      <trkpt lat="44.8421" lon="5.48362">
        <ele>1590.6</ele>
        <time>2021-10-08T14:56:36Z</time>
      </trkpt>
      <trkpt lat="44.84214" lon="5.48363">
        <ele>1589.8</ele>
        <time>2021-10-08T14:56:37Z</time>
      </trkpt>
      <trkpt lat="44.84218" lon="5.48363">
        <ele>1588.6</ele>
        <time>2021-10-08T14:56:38Z</time>
      </trkpt>
      <trkpt lat="44.84223" lon="5.48363">
        <ele>1588.6</ele>
        <time>2021-10-08T14:56:39Z</time>
      </trkpt>
      <trkpt lat="44.84226" lon="5.48364">
        <ele>1588.6</ele>
        <time>2021-10-08T14:56:40Z</time>
      </trkpt>
      <trkpt lat="44.84231" lon="5.48366">
        <ele>1587.8</ele>
        <time>2021-10-08T14:56:41Z</time>
      </trkpt>
      <trkpt lat="44.84235" lon="5.48369">
        <ele>1587.4</ele>
        <time>2021-10-08T14:56:42Z</time>
      </trkpt>
      <trkpt lat="44.84239" lon="5.48372">
        <ele>1587.4</ele>
        <time>2021-10-08T14:56:43Z</time>
      </trkpt>
      <trkpt lat="44.84243" lon="5.48375">
        <ele>1587.4</ele>
        <time>2021-10-08T14:56:44Z</time>
      </trkpt>
      <trkpt lat="44.84247" lon="5.48378">
        <ele>1587.4</ele>
        <time>2021-10-08T14:56:45Z</time>
      </trkpt>
      <trkpt lat="44.84251" lon="5.4838">
        <ele>1585.8</ele>
        <time>2021-10-08T14:56:46Z</time>
      </trkpt>
      <trkpt lat="44.84254" lon="5.48383">
        <ele>1585.8</ele>
        <time>2021-10-08T14:56:47Z</time>
      </trkpt>
      <trkpt lat="44.84258" lon="5.48386">
        <ele>1585.8</ele>
        <time>2021-10-08T14:56:48Z</time>
      </trkpt>
      <trkpt lat="44.84262" lon="5.4839">
        <ele>1585.8</ele>
        <time>2021-10-08T14:56:49Z</time>
      </trkpt>
      <trkpt lat="44.84267" lon="5.48393">
        <ele>1586.4</ele>
        <time>2021-10-08T14:56:50Z</time>
      </trkpt>
      <trkpt lat="44.84271" lon="5.48395">
        <ele>1586.4</ele>
        <time>2021-10-08T14:56:51Z</time>
      </trkpt>
      <trkpt lat="44.84276" lon="5.48398">
        <ele>1586.4</ele>
        <time>2021-10-08T14:56:52Z</time>
      </trkpt>
      <trkpt lat="44.84281" lon="5.48402">
        <ele>1585.4</ele>
        <time>2021-10-08T14:56:53Z</time>
      </trkpt>
      <trkpt lat="44.84286" lon="5.48406">
        <ele>1583</ele>
        <time>2021-10-08T14:56:54Z</time>
      </trkpt>
      <trkpt lat="44.8429" lon="5.4841">
        <ele>1583</ele>
        <time>2021-10-08T14:56:55Z</time>
      </trkpt>
      <trkpt lat="44.84295" lon="5.48412">
        <ele>1583</ele>
        <time>2021-10-08T14:56:56Z</time>
      </trkpt>
      <trkpt lat="44.843" lon="5.48413">
        <ele>1582.2</ele>
        <time>2021-10-08T14:56:57Z</time>
      </trkpt>
      <trkpt lat="44.84304" lon="5.48415">
        <ele>1582.2</ele>
        <time>2021-10-08T14:56:58Z</time>
      </trkpt>
      <trkpt lat="44.84308" lon="5.48416">
        <ele>1582</ele>
        <time>2021-10-08T14:56:59Z</time>
      </trkpt>
      <trkpt lat="44.84312" lon="5.48416">
        <ele>1582</ele>
        <time>2021-10-08T14:57:00Z</time>
      </trkpt>
      <trkpt lat="44.84316" lon="5.48416">
        <ele>1582</ele>
        <time>2021-10-08T14:57:01Z</time>
      </trkpt>
      <trkpt lat="44.84321" lon="5.48416">
        <ele>1580.2</ele>
        <time>2021-10-08T14:57:02Z</time>
      </trkpt>
      <trkpt lat="44.84326" lon="5.48416">
        <ele>1580.2</ele>
        <time>2021-10-08T14:57:03Z</time>
      </trkpt>
      <trkpt lat="44.84331" lon="5.48416">
        <ele>1580.2</ele>
        <time>2021-10-08T14:57:04Z</time>
      </trkpt>
      <trkpt lat="44.84334" lon="5.48416">
        <ele>1580.2</ele>
        <time>2021-10-08T14:57:05Z</time>
      </trkpt>
      <trkpt lat="44.84337" lon="5.48417">
        <ele>1580.8</ele>
        <time>2021-10-08T14:57:06Z</time>
      </trkpt>
      <trkpt lat="44.84339" lon="5.48417">
        <ele>1580.8</ele>
        <time>2021-10-08T14:57:07Z</time>
      </trkpt>
      <trkpt lat="44.84341" lon="5.48417">
        <ele>1580.8</ele>
        <time>2021-10-08T14:57:08Z</time>
      </trkpt>
      <trkpt lat="44.84343" lon="5.48417">
        <ele>1580.8</ele>
        <time>2021-10-08T14:57:09Z</time>
      </trkpt>
      <trkpt lat="44.84344" lon="5.48417">
        <ele>1580.8</ele>
        <time>2021-10-08T14:57:10Z</time>
      </trkpt>
      <trkpt lat="44.84346" lon="5.48416">
        <ele>1580.8</ele>
        <time>2021-10-08T14:57:11Z</time>
      </trkpt>
      <trkpt lat="44.84347" lon="5.48415">
        <ele>1580.8</ele>
        <time>2021-10-08T14:57:12Z</time>
      </trkpt>
      <trkpt lat="44.84349" lon="5.48414">
        <ele>1580</ele>
        <time>2021-10-08T14:57:13Z</time>
      </trkpt>
      <trkpt lat="44.8435" lon="5.48413">
        <ele>1579.4</ele>
        <time>2021-10-08T14:57:14Z</time>
      </trkpt>
      <trkpt lat="44.84351" lon="5.48411">
        <ele>1579.4</ele>
        <time>2021-10-08T14:57:15Z</time>
      </trkpt>
      <trkpt lat="44.84352" lon="5.4841">
        <ele>1579.4</ele>
        <time>2021-10-08T14:57:16Z</time>
      </trkpt>
      <trkpt lat="44.84353" lon="5.48409">
        <ele>1579.4</ele>
        <time>2021-10-08T14:57:17Z</time>
      </trkpt>
      <trkpt lat="44.84353" lon="5.48409">
        <ele>1579.6</ele>
        <time>2021-10-08T14:57:18Z</time>
      </trkpt>
      <trkpt lat="44.84353" lon="5.48409">
        <ele>1579.6</ele>
        <time>2021-10-08T14:57:19Z</time>
      </trkpt>
      <trkpt lat="44.84356" lon="5.48401">
        <ele>1578.6</ele>
        <time>2021-10-08T14:57:51Z</time>
      </trkpt>
      <trkpt lat="44.84357" lon="5.48398">
        <ele>1578.6</ele>
        <time>2021-10-08T14:57:52Z</time>
      </trkpt>
      <trkpt lat="44.84358" lon="5.48395">
        <ele>1578.4</ele>
        <time>2021-10-08T14:57:53Z</time>
      </trkpt>
      <trkpt lat="44.84358" lon="5.48392">
        <ele>1578.2</ele>
        <time>2021-10-08T14:57:54Z</time>
      </trkpt>
      <trkpt lat="44.84358" lon="5.48389">
        <ele>1578.2</ele>
        <time>2021-10-08T14:57:55Z</time>
      </trkpt>
      <trkpt lat="44.84359" lon="5.48385">
        <ele>1578.2</ele>
        <time>2021-10-08T14:57:56Z</time>
      </trkpt>
      <trkpt lat="44.84359" lon="5.48381">
        <ele>1578.2</ele>
        <time>2021-10-08T14:57:57Z</time>
      </trkpt>
      <trkpt lat="44.8436" lon="5.48376">
        <ele>1577.4</ele>
        <time>2021-10-08T14:57:58Z</time>
      </trkpt>
      <trkpt lat="44.8436" lon="5.48372">
        <ele>1577.4</ele>
        <time>2021-10-08T14:57:59Z</time>
      </trkpt>
      <trkpt lat="44.84359" lon="5.48367">
        <ele>1577.4</ele>
        <time>2021-10-08T14:58:00Z</time>
      </trkpt>
      <trkpt lat="44.84358" lon="5.48362">
        <ele>1577.4</ele>
        <time>2021-10-08T14:58:01Z</time>
      </trkpt>
      <trkpt lat="44.84358" lon="5.48357">
        <ele>1577</ele>
        <time>2021-10-08T14:58:02Z</time>
      </trkpt>
      <trkpt lat="44.84358" lon="5.48354">
        <ele>1577</ele>
        <time>2021-10-08T14:58:03Z</time>
      </trkpt>
      <trkpt lat="44.8436" lon="5.4835">
        <ele>1577</ele>
        <time>2021-10-08T14:58:04Z</time>
      </trkpt>
      <trkpt lat="44.84361" lon="5.48346">
        <ele>1576</ele>
        <time>2021-10-08T14:58:05Z</time>
      </trkpt>
      <trkpt lat="44.84363" lon="5.48342">
        <ele>1575.2</ele>
        <time>2021-10-08T14:58:06Z</time>
      </trkpt>
      <trkpt lat="44.84364" lon="5.48336">
        <ele>1575.2</ele>
        <time>2021-10-08T14:58:07Z</time>
      </trkpt>
      <trkpt lat="44.84366" lon="5.48331">
        <ele>1575.2</ele>
        <time>2021-10-08T14:58:08Z</time>
      </trkpt>
      <trkpt lat="44.84367" lon="5.48326">
        <ele>1574.2</ele>
        <time>2021-10-08T14:58:09Z</time>
      </trkpt>
      <trkpt lat="44.84368" lon="5.48321">
        <ele>1574.2</ele>
        <time>2021-10-08T14:58:10Z</time>
      </trkpt>
      <trkpt lat="44.84369" lon="5.48316">
        <ele>1574.2</ele>
        <time>2021-10-08T14:58:11Z</time>
      </trkpt>
      <trkpt lat="44.8437" lon="5.48311">
        <ele>1574.2</ele>
        <time>2021-10-08T14:58:12Z</time>
      </trkpt>
      <trkpt lat="44.84371" lon="5.48304">
        <ele>1574.2</ele>
        <time>2021-10-08T14:58:13Z</time>
      </trkpt>
      <trkpt lat="44.84373" lon="5.48299">
        <ele>1574.2</ele>
        <time>2021-10-08T14:58:14Z</time>
      </trkpt>
      <trkpt lat="44.84375" lon="5.48294">
        <ele>1572.6</ele>
        <time>2021-10-08T14:58:15Z</time>
      </trkpt>
      <trkpt lat="44.84375" lon="5.48288">
        <ele>1572.6</ele>
        <time>2021-10-08T14:58:16Z</time>
      </trkpt>
      <trkpt lat="44.84376" lon="5.48283">
        <ele>1572.6</ele>
        <time>2021-10-08T14:58:17Z</time>
      </trkpt>
      <trkpt lat="44.84378" lon="5.48279">
        <ele>1572</ele>
        <time>2021-10-08T14:58:18Z</time>
      </trkpt>
      <trkpt lat="44.84379" lon="5.48274">
        <ele>1572</ele>
        <time>2021-10-08T14:58:19Z</time>
      </trkpt>
      <trkpt lat="44.8438" lon="5.48268">
        <ele>1572</ele>
        <time>2021-10-08T14:58:20Z</time>
      </trkpt>
      <trkpt lat="44.84381" lon="5.48263">
        <ele>1571</ele>
        <time>2021-10-08T14:58:21Z</time>
      </trkpt>
      <trkpt lat="44.84383" lon="5.48257">
        <ele>1570.2</ele>
        <time>2021-10-08T14:58:22Z</time>
      </trkpt>
      <trkpt lat="44.84385" lon="5.48251">
        <ele>1570.2</ele>
        <time>2021-10-08T14:58:23Z</time>
      </trkpt>
      <trkpt lat="44.84385" lon="5.48245">
        <ele>1570.2</ele>
        <time>2021-10-08T14:58:24Z</time>
      </trkpt>
      <trkpt lat="44.84386" lon="5.48239">
        <ele>1569.2</ele>
        <time>2021-10-08T14:58:25Z</time>
      </trkpt>
      <trkpt lat="44.84388" lon="5.48234">
        <ele>1570</ele>
        <time>2021-10-08T14:58:26Z</time>
      </trkpt>
      <trkpt lat="44.84389" lon="5.4823">
        <ele>1570</ele>
        <time>2021-10-08T14:58:27Z</time>
      </trkpt>
      <trkpt lat="44.84391" lon="5.48224">
        <ele>1570</ele>
        <time>2021-10-08T14:58:28Z</time>
      </trkpt>
      <trkpt lat="44.84394" lon="5.4822">
        <ele>1569</ele>
        <time>2021-10-08T14:58:29Z</time>
      </trkpt>
      <trkpt lat="44.84395" lon="5.48214">
        <ele>1568.8</ele>
        <time>2021-10-08T14:58:30Z</time>
      </trkpt>
      <trkpt lat="44.84395" lon="5.48209">
        <ele>1568.8</ele>
        <time>2021-10-08T14:58:31Z</time>
      </trkpt>
      <trkpt lat="44.84397" lon="5.48204">
        <ele>1568.8</ele>
        <time>2021-10-08T14:58:32Z</time>
      </trkpt>
      <trkpt lat="44.84398" lon="5.48199">
        <ele>1567.8</ele>
        <time>2021-10-08T14:58:33Z</time>
      </trkpt>
      <trkpt lat="44.84399" lon="5.48194">
        <ele>1566</ele>
        <time>2021-10-08T14:58:34Z</time>
      </trkpt>
      <trkpt lat="44.84401" lon="5.48189">
        <ele>1566</ele>
        <time>2021-10-08T14:58:35Z</time>
      </trkpt>
      <trkpt lat="44.84402" lon="5.48185">
        <ele>1566</ele>
        <time>2021-10-08T14:58:36Z</time>
      </trkpt>
      <trkpt lat="44.84403" lon="5.4818">
        <ele>1566</ele>
        <time>2021-10-08T14:58:37Z</time>
      </trkpt>
      <trkpt lat="44.84404" lon="5.48177">
        <ele>1566</ele>
        <time>2021-10-08T14:58:38Z</time>
      </trkpt>
      <trkpt lat="44.84406" lon="5.48171">
        <ele>1566</ele>
        <time>2021-10-08T14:58:39Z</time>
      </trkpt>
      <trkpt lat="44.84408" lon="5.48165">
        <ele>1564</ele>
        <time>2021-10-08T14:58:40Z</time>
      </trkpt>
      <trkpt lat="44.84409" lon="5.4816">
        <ele>1564.8</ele>
        <time>2021-10-08T14:58:41Z</time>
      </trkpt>
      <trkpt lat="44.84411" lon="5.48154">
        <ele>1564.4</ele>
        <time>2021-10-08T14:58:42Z</time>
      </trkpt>
      <trkpt lat="44.84414" lon="5.48149">
        <ele>1564.4</ele>
        <time>2021-10-08T14:58:43Z</time>
      </trkpt>
      <trkpt lat="44.84415" lon="5.48144">
        <ele>1564.4</ele>
        <time>2021-10-08T14:58:44Z</time>
      </trkpt>
      <trkpt lat="44.84417" lon="5.48139">
        <ele>1563.4</ele>
        <time>2021-10-08T14:58:45Z</time>
      </trkpt>
      <trkpt lat="44.84418" lon="5.48135">
        <ele>1563.2</ele>
        <time>2021-10-08T14:58:46Z</time>
      </trkpt>
      <trkpt lat="44.8442" lon="5.48132">
        <ele>1563.2</ele>
        <time>2021-10-08T14:58:47Z</time>
      </trkpt>
      <trkpt lat="44.84422" lon="5.48127">
        <ele>1563.2</ele>
        <time>2021-10-08T14:58:48Z</time>
      </trkpt>
      <trkpt lat="44.84423" lon="5.48123">
        <ele>1562.2</ele>
        <time>2021-10-08T14:58:49Z</time>
      </trkpt>
      <trkpt lat="44.84424" lon="5.48119">
        <ele>1561.8</ele>
        <time>2021-10-08T14:58:50Z</time>
      </trkpt>
      <trkpt lat="44.84426" lon="5.48114">
        <ele>1561.8</ele>
        <time>2021-10-08T14:58:51Z</time>
      </trkpt>
      <trkpt lat="44.84427" lon="5.4811">
        <ele>1561.8</ele>
        <time>2021-10-08T14:58:52Z</time>
      </trkpt>
      <trkpt lat="44.8443" lon="5.48107">
        <ele>1560.8</ele>
        <time>2021-10-08T14:58:53Z</time>
      </trkpt>
      <trkpt lat="44.84433" lon="5.48105">
        <ele>1560.6</ele>
        <time>2021-10-08T14:58:54Z</time>
      </trkpt>
      <trkpt lat="44.84436" lon="5.48102">
        <ele>1560.6</ele>
        <time>2021-10-08T14:58:55Z</time>
      </trkpt>
      <trkpt lat="44.84439" lon="5.481">
        <ele>1560.6</ele>
        <time>2021-10-08T14:58:56Z</time>
      </trkpt>
      <trkpt lat="44.84441" lon="5.48099">
        <ele>1560</ele>
        <time>2021-10-08T14:58:57Z</time>
      </trkpt>
      <trkpt lat="44.84442" lon="5.48099">
        <ele>1561.2</ele>
        <time>2021-10-08T14:58:58Z</time>
      </trkpt>
      <trkpt lat="44.84443" lon="5.48098">
        <ele>1561.2</ele>
        <time>2021-10-08T14:58:59Z</time>
      </trkpt>
      <trkpt lat="44.84443" lon="5.48098">
        <ele>1561.2</ele>
        <time>2021-10-08T14:59:00Z</time>
      </trkpt>
      <trkpt lat="44.84444" lon="5.48097">
        <ele>1561.2</ele>
        <time>2021-10-08T14:59:01Z</time>
      </trkpt>
      <trkpt lat="44.84444" lon="5.48096">
        <ele>1561</ele>
        <time>2021-10-08T14:59:02Z</time>
      </trkpt>
      <trkpt lat="44.84445" lon="5.48096">
        <ele>1561</ele>
        <time>2021-10-08T14:59:03Z</time>
      </trkpt>
      <trkpt lat="44.84446" lon="5.48095">
        <ele>1561</ele>
        <time>2021-10-08T14:59:04Z</time>
      </trkpt>
      <trkpt lat="44.84447" lon="5.48094">
        <ele>1562</ele>
        <time>2021-10-08T14:59:05Z</time>
      </trkpt>
      <trkpt lat="44.84447" lon="5.48092">
        <ele>1562</ele>
        <time>2021-10-08T14:59:06Z</time>
      </trkpt>
      <trkpt lat="44.84448" lon="5.48091">
        <ele>1562</ele>
        <time>2021-10-08T14:59:07Z</time>
      </trkpt>
      <trkpt lat="44.84449" lon="5.4809">
        <ele>1562</ele>
        <time>2021-10-08T14:59:08Z</time>
      </trkpt>
      <trkpt lat="44.84449" lon="5.48089">
        <ele>1562</ele>
        <time>2021-10-08T14:59:09Z</time>
      </trkpt>
      <trkpt lat="44.8445" lon="5.48089">
        <ele>1561.2</ele>
        <time>2021-10-08T14:59:10Z</time>
      </trkpt>
      <trkpt lat="44.84451" lon="5.48088">
        <ele>1561.2</ele>
        <time>2021-10-08T14:59:11Z</time>
      </trkpt>
      <trkpt lat="44.84453" lon="5.48086">
        <ele>1561.2</ele>
        <time>2021-10-08T14:59:12Z</time>
      </trkpt>
      <trkpt lat="44.84455" lon="5.48084">
        <ele>1560.4</ele>
        <time>2021-10-08T14:59:13Z</time>
      </trkpt>
      <trkpt lat="44.84457" lon="5.48083">
        <ele>1559.8</ele>
        <time>2021-10-08T14:59:14Z</time>
      </trkpt>
      <trkpt lat="44.84459" lon="5.48083">
        <ele>1559.8</ele>
        <time>2021-10-08T14:59:15Z</time>
      </trkpt>
      <trkpt lat="44.84461" lon="5.48083">
        <ele>1559.8</ele>
        <time>2021-10-08T14:59:16Z</time>
      </trkpt>
      <trkpt lat="44.84463" lon="5.48082">
        <ele>1560.6</ele>
        <time>2021-10-08T14:59:17Z</time>
      </trkpt>
      <trkpt lat="44.84465" lon="5.48081">
        <ele>1560.6</ele>
        <time>2021-10-08T14:59:18Z</time>
      </trkpt>
      <trkpt lat="44.84466" lon="5.48079">
        <ele>1560.6</ele>
        <time>2021-10-08T14:59:19Z</time>
      </trkpt>
      <trkpt lat="44.84468" lon="5.48078">
        <ele>1560.6</ele>
        <time>2021-10-08T14:59:20Z</time>
      </trkpt>
      <trkpt lat="44.8447" lon="5.48077">
        <ele>1560</ele>
        <time>2021-10-08T14:59:21Z</time>
      </trkpt>
      <trkpt lat="44.84473" lon="5.48075">
        <ele>1559.4</ele>
        <time>2021-10-08T14:59:22Z</time>
      </trkpt>
      <trkpt lat="44.84476" lon="5.48072">
        <ele>1559.4</ele>
        <time>2021-10-08T14:59:23Z</time>
      </trkpt>
      <trkpt lat="44.84479" lon="5.4807">
        <ele>1559.4</ele>
        <time>2021-10-08T14:59:24Z</time>
      </trkpt>
      <trkpt lat="44.84483" lon="5.48068">
        <ele>1559.4</ele>
        <time>2021-10-08T14:59:25Z</time>
      </trkpt>
      <trkpt lat="44.84487" lon="5.48066">
        <ele>1557.2</ele>
        <time>2021-10-08T14:59:26Z</time>
      </trkpt>
      <trkpt lat="44.84491" lon="5.48064">
        <ele>1557.2</ele>
        <time>2021-10-08T14:59:27Z</time>
      </trkpt>
      <trkpt lat="44.84494" lon="5.48062">
        <ele>1557.2</ele>
        <time>2021-10-08T14:59:28Z</time>
      </trkpt>
      <trkpt lat="44.84496" lon="5.48061">
        <ele>1557.2</ele>
        <time>2021-10-08T14:59:29Z</time>
      </trkpt>
      <trkpt lat="44.845" lon="5.48059">
        <ele>1559</ele>
        <time>2021-10-08T14:59:30Z</time>
      </trkpt>
      <trkpt lat="44.84502" lon="5.48058">
        <ele>1559</ele>
        <time>2021-10-08T14:59:31Z</time>
      </trkpt>
      <trkpt lat="44.84505" lon="5.48056">
        <ele>1559</ele>
        <time>2021-10-08T14:59:32Z</time>
      </trkpt>
      <trkpt lat="44.84507" lon="5.48054">
        <ele>1559.4</ele>
        <time>2021-10-08T14:59:33Z</time>
      </trkpt>
      <trkpt lat="44.8451" lon="5.48053">
        <ele>1559</ele>
        <time>2021-10-08T14:59:34Z</time>
      </trkpt>
      <trkpt lat="44.84514" lon="5.48051">
        <ele>1559</ele>
        <time>2021-10-08T14:59:35Z</time>
      </trkpt>
      <trkpt lat="44.84517" lon="5.48049">
        <ele>1559</ele>
        <time>2021-10-08T14:59:36Z</time>
      </trkpt>
      <trkpt lat="44.84521" lon="5.48047">
        <ele>1558</ele>
        <time>2021-10-08T14:59:37Z</time>
      </trkpt>
      <trkpt lat="44.84526" lon="5.48045">
        <ele>1557</ele>
        <time>2021-10-08T14:59:38Z</time>
      </trkpt>
      <trkpt lat="44.8453" lon="5.48043">
        <ele>1557</ele>
        <time>2021-10-08T14:59:39Z</time>
      </trkpt>
      <trkpt lat="44.84533" lon="5.48042">
        <ele>1557</ele>
        <time>2021-10-08T14:59:40Z</time>
      </trkpt>
      <trkpt lat="44.84535" lon="5.48041">
        <ele>1557.8</ele>
        <time>2021-10-08T14:59:41Z</time>
      </trkpt>
      <trkpt lat="44.84537" lon="5.4804">
        <ele>1558.4</ele>
        <time>2021-10-08T14:59:42Z</time>
      </trkpt>
      <trkpt lat="44.84539" lon="5.48039">
        <ele>1558.4</ele>
        <time>2021-10-08T14:59:43Z</time>
      </trkpt>
      <trkpt lat="44.84542" lon="5.48037">
        <ele>1558.4</ele>
        <time>2021-10-08T14:59:44Z</time>
      </trkpt>
      <trkpt lat="44.84545" lon="5.48035">
        <ele>1558.4</ele>
        <time>2021-10-08T14:59:45Z</time>
      </trkpt>
      <trkpt lat="44.84548" lon="5.48033">
        <ele>1558.8</ele>
        <time>2021-10-08T14:59:46Z</time>
      </trkpt>
      <trkpt lat="44.84551" lon="5.48032">
        <ele>1558.8</ele>
        <time>2021-10-08T14:59:47Z</time>
      </trkpt>
      <trkpt lat="44.84554" lon="5.48031">
        <ele>1558.8</ele>
        <time>2021-10-08T14:59:48Z</time>
      </trkpt>
      <trkpt lat="44.84557" lon="5.48029">
        <ele>1558.8</ele>
        <time>2021-10-08T14:59:49Z</time>
      </trkpt>
      <trkpt lat="44.84559" lon="5.48027">
        <ele>1559.2</ele>
        <time>2021-10-08T14:59:50Z</time>
      </trkpt>
      <trkpt lat="44.84561" lon="5.48024">
        <ele>1559.2</ele>
        <time>2021-10-08T14:59:51Z</time>
      </trkpt>
      <trkpt lat="44.84563" lon="5.48021">
        <ele>1559.2</ele>
        <time>2021-10-08T14:59:52Z</time>
      </trkpt>
      <trkpt lat="44.84565" lon="5.48018">
        <ele>1558.8</ele>
        <time>2021-10-08T14:59:53Z</time>
      </trkpt>
      <trkpt lat="44.84568" lon="5.48017">
        <ele>1558.8</ele>
        <time>2021-10-08T14:59:54Z</time>
      </trkpt>
      <trkpt lat="44.84571" lon="5.48016">
        <ele>1558.8</ele>
        <time>2021-10-08T14:59:55Z</time>
      </trkpt>
      <trkpt lat="44.84574" lon="5.48015">
        <ele>1558.8</ele>
        <time>2021-10-08T14:59:56Z</time>
      </trkpt>
      <trkpt lat="44.84577" lon="5.48014">
        <ele>1558.8</ele>
        <time>2021-10-08T14:59:57Z</time>
      </trkpt>
      <trkpt lat="44.8458" lon="5.48014">
        <ele>1559</ele>
        <time>2021-10-08T14:59:58Z</time>
      </trkpt>
      <trkpt lat="44.84583" lon="5.48014">
        <ele>1559</ele>
        <time>2021-10-08T14:59:59Z</time>
      </trkpt>
      <trkpt lat="44.84585" lon="5.48014">
        <ele>1559</ele>
        <time>2021-10-08T15:00:00Z</time>
      </trkpt>
      <trkpt lat="44.84588" lon="5.48014">
        <ele>1559</ele>
        <time>2021-10-08T15:00:01Z</time>
      </trkpt>
      <trkpt lat="44.8459" lon="5.48014">
        <ele>1558</ele>
        <time>2021-10-08T15:00:02Z</time>
      </trkpt>
      <trkpt lat="44.84594" lon="5.48014">
        <ele>1558</ele>
        <time>2021-10-08T15:00:03Z</time>
      </trkpt>
      <trkpt lat="44.84597" lon="5.48014">
        <ele>1558</ele>
        <time>2021-10-08T15:00:04Z</time>
      </trkpt>
      <trkpt lat="44.84601" lon="5.48014">
        <ele>1557</ele>
        <time>2021-10-08T15:00:05Z</time>
      </trkpt>
      <trkpt lat="44.84605" lon="5.48014">
        <ele>1556.8</ele>
        <time>2021-10-08T15:00:06Z</time>
      </trkpt>
      <trkpt lat="44.84608" lon="5.48013">
        <ele>1556.8</ele>
        <time>2021-10-08T15:00:07Z</time>
      </trkpt>
      <trkpt lat="44.84611" lon="5.48013">
        <ele>1556.8</ele>
        <time>2021-10-08T15:00:08Z</time>
      </trkpt>
      <trkpt lat="44.84614" lon="5.48012">
        <ele>1556.8</ele>
        <time>2021-10-08T15:00:09Z</time>
      </trkpt>
      <trkpt lat="44.84618" lon="5.48009">
        <ele>1556.8</ele>
        <time>2021-10-08T15:00:10Z</time>
      </trkpt>
      <trkpt lat="44.84622" lon="5.48006">
        <ele>1556.8</ele>
        <time>2021-10-08T15:00:11Z</time>
      </trkpt>
      <trkpt lat="44.84626" lon="5.48003">
        <ele>1555</ele>
        <time>2021-10-08T15:00:12Z</time>
      </trkpt>
      <trkpt lat="44.84628" lon="5.48">
        <ele>1555</ele>
        <time>2021-10-08T15:00:13Z</time>
      </trkpt>
      <trkpt lat="44.8463" lon="5.47998">
        <ele>1555.4</ele>
        <time>2021-10-08T15:00:14Z</time>
      </trkpt>
      <trkpt lat="44.84632" lon="5.47995">
        <ele>1555.4</ele>
        <time>2021-10-08T15:00:15Z</time>
      </trkpt>
      <trkpt lat="44.84633" lon="5.47993">
        <ele>1555.4</ele>
        <time>2021-10-08T15:00:16Z</time>
      </trkpt>
      <trkpt lat="44.84635" lon="5.47991">
        <ele>1556.2</ele>
        <time>2021-10-08T15:00:17Z</time>
      </trkpt>
      <trkpt lat="44.84637" lon="5.47988">
        <ele>1555.4</ele>
        <time>2021-10-08T15:00:18Z</time>
      </trkpt>
      <trkpt lat="44.84639" lon="5.47985">
        <ele>1555.4</ele>
        <time>2021-10-08T15:00:19Z</time>
      </trkpt>
      <trkpt lat="44.84641" lon="5.47982">
        <ele>1555.4</ele>
        <time>2021-10-08T15:00:20Z</time>
      </trkpt>
      <trkpt lat="44.84643" lon="5.47979">
        <ele>1555.4</ele>
        <time>2021-10-08T15:00:21Z</time>
      </trkpt>
      <trkpt lat="44.84645" lon="5.47975">
        <ele>1555.2</ele>
        <time>2021-10-08T15:00:22Z</time>
      </trkpt>
      <trkpt lat="44.84648" lon="5.47972">
        <ele>1555.2</ele>
        <time>2021-10-08T15:00:23Z</time>
      </trkpt>
      <trkpt lat="44.8465" lon="5.4797">
        <ele>1555.2</ele>
        <time>2021-10-08T15:00:24Z</time>
      </trkpt>
      <trkpt lat="44.84652" lon="5.47968">
        <ele>1556.2</ele>
        <time>2021-10-08T15:00:25Z</time>
      </trkpt>
      <trkpt lat="44.84654" lon="5.47966">
        <ele>1556.8</ele>
        <time>2021-10-08T15:00:26Z</time>
      </trkpt>
      <trkpt lat="44.84656" lon="5.47965">
        <ele>1556.8</ele>
        <time>2021-10-08T15:00:27Z</time>
      </trkpt>
      <trkpt lat="44.84658" lon="5.47964">
        <ele>1556.8</ele>
        <time>2021-10-08T15:00:28Z</time>
      </trkpt>
      <trkpt lat="44.8466" lon="5.47963">
        <ele>1556.8</ele>
        <time>2021-10-08T15:00:29Z</time>
      </trkpt>
      <trkpt lat="44.84662" lon="5.47962">
        <ele>1557</ele>
        <time>2021-10-08T15:00:30Z</time>
      </trkpt>
      <trkpt lat="44.84665" lon="5.47963">
        <ele>1557</ele>
        <time>2021-10-08T15:00:31Z</time>
      </trkpt>
      <trkpt lat="44.84668" lon="5.47964">
        <ele>1557</ele>
        <time>2021-10-08T15:00:32Z</time>
      </trkpt>
      <trkpt lat="44.8467" lon="5.47966">
        <ele>1557</ele>
        <time>2021-10-08T15:00:33Z</time>
      </trkpt>
      <trkpt lat="44.84673" lon="5.47967">
        <ele>1556.6</ele>
        <time>2021-10-08T15:00:34Z</time>
      </trkpt>
      <trkpt lat="44.84675" lon="5.47968">
        <ele>1556.6</ele>
        <time>2021-10-08T15:00:35Z</time>
      </trkpt>
      <trkpt lat="44.84678" lon="5.47969">
        <ele>1556.6</ele>
        <time>2021-10-08T15:00:36Z</time>
      </trkpt>
      <trkpt lat="44.8468" lon="5.47971">
        <ele>1557.4</ele>
        <time>2021-10-08T15:00:37Z</time>
      </trkpt>
      <trkpt lat="44.84682" lon="5.47973">
        <ele>1557.8</ele>
        <time>2021-10-08T15:00:38Z</time>
      </trkpt>
      <trkpt lat="44.84685" lon="5.47974">
        <ele>1557.8</ele>
        <time>2021-10-08T15:00:39Z</time>
      </trkpt>
      <trkpt lat="44.84687" lon="5.47975">
        <ele>1557.8</ele>
        <time>2021-10-08T15:00:40Z</time>
      </trkpt>
      <trkpt lat="44.84689" lon="5.47975">
        <ele>1558.6</ele>
        <time>2021-10-08T15:00:41Z</time>
      </trkpt>
      <trkpt lat="44.84691" lon="5.47975">
        <ele>1558.6</ele>
        <time>2021-10-08T15:00:42Z</time>
      </trkpt>
      <trkpt lat="44.84694" lon="5.47975">
        <ele>1558.6</ele>
        <time>2021-10-08T15:00:43Z</time>
      </trkpt>
      <trkpt lat="44.84696" lon="5.47973">
        <ele>1558.6</ele>
        <time>2021-10-08T15:00:44Z</time>
      </trkpt>
      <trkpt lat="44.84699" lon="5.47973">
        <ele>1557.8</ele>
        <time>2021-10-08T15:00:45Z</time>
      </trkpt>
      <trkpt lat="44.84702" lon="5.47971">
        <ele>1558</ele>
        <time>2021-10-08T15:00:46Z</time>
      </trkpt>
      <trkpt lat="44.84706" lon="5.4797">
        <ele>1558</ele>
        <time>2021-10-08T15:00:47Z</time>
      </trkpt>
      <trkpt lat="44.84709" lon="5.47969">
        <ele>1558</ele>
        <time>2021-10-08T15:00:48Z</time>
      </trkpt>
      <trkpt lat="44.84713" lon="5.47968">
        <ele>1557</ele>
        <time>2021-10-08T15:00:49Z</time>
      </trkpt>
      <trkpt lat="44.84716" lon="5.47968">
        <ele>1556.2</ele>
        <time>2021-10-08T15:00:50Z</time>
      </trkpt>
      <trkpt lat="44.84721" lon="5.47968">
        <ele>1556.2</ele>
        <time>2021-10-08T15:00:51Z</time>
      </trkpt>
      <trkpt lat="44.84725" lon="5.47968">
        <ele>1556.2</ele>
        <time>2021-10-08T15:00:52Z</time>
      </trkpt>
      <trkpt lat="44.8473" lon="5.47968">
        <ele>1556.2</ele>
        <time>2021-10-08T15:00:53Z</time>
      </trkpt>
      <trkpt lat="44.84735" lon="5.4797">
        <ele>1556</ele>
        <time>2021-10-08T15:00:54Z</time>
      </trkpt>
      <trkpt lat="44.84739" lon="5.47972">
        <ele>1556</ele>
        <time>2021-10-08T15:00:55Z</time>
      </trkpt>
      <trkpt lat="44.84744" lon="5.47974">
        <ele>1556</ele>
        <time>2021-10-08T15:00:56Z</time>
      </trkpt>
      <trkpt lat="44.84748" lon="5.47977">
        <ele>1556</ele>
        <time>2021-10-08T15:00:57Z</time>
      </trkpt>
      <trkpt lat="44.84752" lon="5.47979">
        <ele>1556</ele>
        <time>2021-10-08T15:00:58Z</time>
      </trkpt>
      <trkpt lat="44.84756" lon="5.4798">
        <ele>1555.2</ele>
        <time>2021-10-08T15:00:59Z</time>
      </trkpt>
      <trkpt lat="44.8476" lon="5.47982">
        <ele>1555.2</ele>
        <time>2021-10-08T15:01:00Z</time>
      </trkpt>
      <trkpt lat="44.84763" lon="5.47983">
        <ele>1554.4</ele>
        <time>2021-10-08T15:01:01Z</time>
      </trkpt>
      <trkpt lat="44.84767" lon="5.47985">
        <ele>1553.6</ele>
        <time>2021-10-08T15:01:02Z</time>
      </trkpt>
      <trkpt lat="44.84772" lon="5.47986">
        <ele>1553.6</ele>
        <time>2021-10-08T15:01:03Z</time>
      </trkpt>
      <trkpt lat="44.84776" lon="5.47987">
        <ele>1553.6</ele>
        <time>2021-10-08T15:01:04Z</time>
      </trkpt>
      <trkpt lat="44.84779" lon="5.47988">
        <ele>1553.6</ele>
        <time>2021-10-08T15:01:05Z</time>
      </trkpt>
      <trkpt lat="44.84782" lon="5.47988">
        <ele>1553.8</ele>
        <time>2021-10-08T15:01:06Z</time>
      </trkpt>
      <trkpt lat="44.84786" lon="5.47988">
        <ele>1553.8</ele>
        <time>2021-10-08T15:01:07Z</time>
      </trkpt>
      <trkpt lat="44.8479" lon="5.47986">
        <ele>1553.8</ele>
        <time>2021-10-08T15:01:08Z</time>
      </trkpt>
      <trkpt lat="44.84794" lon="5.47984">
        <ele>1553.8</ele>
        <time>2021-10-08T15:01:09Z</time>
      </trkpt>
      <trkpt lat="44.84797" lon="5.47983">
        <ele>1554</ele>
        <time>2021-10-08T15:01:10Z</time>
      </trkpt>
      <trkpt lat="44.84801" lon="5.47981">
        <ele>1554</ele>
        <time>2021-10-08T15:01:11Z</time>
      </trkpt>
      <trkpt lat="44.84804" lon="5.47978">
        <ele>1554</ele>
        <time>2021-10-08T15:01:12Z</time>
      </trkpt>
      <trkpt lat="44.84807" lon="5.47975">
        <ele>1554</ele>
        <time>2021-10-08T15:01:13Z</time>
      </trkpt>
      <trkpt lat="44.84809" lon="5.47972">
        <ele>1556</ele>
        <time>2021-10-08T15:01:14Z</time>
      </trkpt>
      <trkpt lat="44.84811" lon="5.4797">
        <ele>1556</ele>
        <time>2021-10-08T15:01:15Z</time>
      </trkpt>
      <trkpt lat="44.84813" lon="5.47967">
        <ele>1556</ele>
        <time>2021-10-08T15:01:16Z</time>
      </trkpt>
      <trkpt lat="44.84816" lon="5.47963">
        <ele>1555.6</ele>
        <time>2021-10-08T15:01:17Z</time>
      </trkpt>
      <trkpt lat="44.84818" lon="5.47959">
        <ele>1556.4</ele>
        <time>2021-10-08T15:01:18Z</time>
      </trkpt>
      <trkpt lat="44.8482" lon="5.47955">
        <ele>1556.4</ele>
        <time>2021-10-08T15:01:19Z</time>
      </trkpt>
      <trkpt lat="44.84822" lon="5.47951">
        <ele>1556.4</ele>
        <time>2021-10-08T15:01:20Z</time>
      </trkpt>
      <trkpt lat="44.84824" lon="5.47947">
        <ele>1555.6</ele>
        <time>2021-10-08T15:01:21Z</time>
      </trkpt>
      <trkpt lat="44.84826" lon="5.47944">
        <ele>1555</ele>
        <time>2021-10-08T15:01:22Z</time>
      </trkpt>
      <trkpt lat="44.84829" lon="5.4794">
        <ele>1555</ele>
        <time>2021-10-08T15:01:23Z</time>
      </trkpt>
      <trkpt lat="44.84831" lon="5.47937">
        <ele>1555</ele>
        <time>2021-10-08T15:01:24Z</time>
      </trkpt>
      <trkpt lat="44.84833" lon="5.47934">
        <ele>1555</ele>
        <time>2021-10-08T15:01:25Z</time>
      </trkpt>
      <trkpt lat="44.84836" lon="5.47931">
        <ele>1556.2</ele>
        <time>2021-10-08T15:01:26Z</time>
      </trkpt>
      <trkpt lat="44.84839" lon="5.47929">
        <ele>1556.2</ele>
        <time>2021-10-08T15:01:27Z</time>
      </trkpt>
      <trkpt lat="44.84842" lon="5.47927">
        <ele>1556.2</ele>
        <time>2021-10-08T15:01:28Z</time>
      </trkpt>
      <trkpt lat="44.84845" lon="5.47925">
        <ele>1556.2</ele>
        <time>2021-10-08T15:01:29Z</time>
      </trkpt>
      <trkpt lat="44.84848" lon="5.47924">
        <ele>1555.6</ele>
        <time>2021-10-08T15:01:30Z</time>
      </trkpt>
      <trkpt lat="44.84852" lon="5.47922">
        <ele>1555.6</ele>
        <time>2021-10-08T15:01:31Z</time>
      </trkpt>
      <trkpt lat="44.84855" lon="5.4792">
        <ele>1555.6</ele>
        <time>2021-10-08T15:01:32Z</time>
      </trkpt>
      <trkpt lat="44.84858" lon="5.47919">
        <ele>1555.6</ele>
        <time>2021-10-08T15:01:33Z</time>
      </trkpt>
      <trkpt lat="44.84862" lon="5.47919">
        <ele>1555.2</ele>
        <time>2021-10-08T15:01:34Z</time>
      </trkpt>
      <trkpt lat="44.84866" lon="5.47919">
        <ele>1555.2</ele>
        <time>2021-10-08T15:01:35Z</time>
      </trkpt>
      <trkpt lat="44.8487" lon="5.4792">
        <ele>1555.2</ele>
        <time>2021-10-08T15:01:36Z</time>
      </trkpt>
      <trkpt lat="44.84874" lon="5.4792">
        <ele>1554.2</ele>
        <time>2021-10-08T15:01:37Z</time>
      </trkpt>
      <trkpt lat="44.84878" lon="5.47919">
        <ele>1554</ele>
        <time>2021-10-08T15:01:38Z</time>
      </trkpt>
      <trkpt lat="44.84882" lon="5.47919">
        <ele>1554</ele>
        <time>2021-10-08T15:01:39Z</time>
      </trkpt>
      <trkpt lat="44.84886" lon="5.47919">
        <ele>1554</ele>
        <time>2021-10-08T15:01:40Z</time>
      </trkpt>
      <trkpt lat="44.8489" lon="5.47919">
        <ele>1553.6</ele>
        <time>2021-10-08T15:01:41Z</time>
      </trkpt>
      <trkpt lat="44.84893" lon="5.47918">
        <ele>1554.6</ele>
        <time>2021-10-08T15:01:42Z</time>
      </trkpt>
      <trkpt lat="44.84894" lon="5.47917">
        <ele>1554.6</ele>
        <time>2021-10-08T15:01:43Z</time>
      </trkpt>
      <trkpt lat="44.84896" lon="5.47916">
        <ele>1554.6</ele>
        <time>2021-10-08T15:01:44Z</time>
      </trkpt>
      <trkpt lat="44.84899" lon="5.47915">
        <ele>1554.6</ele>
        <time>2021-10-08T15:01:45Z</time>
      </trkpt>
      <trkpt lat="44.84902" lon="5.47914">
        <ele>1554.4</ele>
        <time>2021-10-08T15:01:46Z</time>
      </trkpt>
      <trkpt lat="44.84905" lon="5.47913">
        <ele>1554.4</ele>
        <time>2021-10-08T15:01:47Z</time>
      </trkpt>
      <trkpt lat="44.84908" lon="5.47913">
        <ele>1554.4</ele>
        <time>2021-10-08T15:01:48Z</time>
      </trkpt>
      <trkpt lat="44.84911" lon="5.47913">
        <ele>1554.4</ele>
        <time>2021-10-08T15:01:49Z</time>
      </trkpt>
      <trkpt lat="44.84914" lon="5.47913">
        <ele>1553.4</ele>
        <time>2021-10-08T15:01:50Z</time>
      </trkpt>
      <trkpt lat="44.84918" lon="5.47912">
        <ele>1553.4</ele>
        <time>2021-10-08T15:01:51Z</time>
      </trkpt>
      <trkpt lat="44.84923" lon="5.47911">
        <ele>1553.4</ele>
        <time>2021-10-08T15:01:52Z</time>
      </trkpt>
      <trkpt lat="44.84928" lon="5.47911">
        <ele>1552.4</ele>
        <time>2021-10-08T15:01:53Z</time>
      </trkpt>
      <trkpt lat="44.84932" lon="5.4791">
        <ele>1551.4</ele>
        <time>2021-10-08T15:01:54Z</time>
      </trkpt>
      <trkpt lat="44.84937" lon="5.47908">
        <ele>1551.4</ele>
        <time>2021-10-08T15:01:55Z</time>
      </trkpt>
      <trkpt lat="44.84941" lon="5.47906">
        <ele>1551.4</ele>
        <time>2021-10-08T15:01:56Z</time>
      </trkpt>
      <trkpt lat="44.84943" lon="5.47905">
        <ele>1552.4</ele>
        <time>2021-10-08T15:01:57Z</time>
      </trkpt>
      <trkpt lat="44.84945" lon="5.47904">
        <ele>1554.8</ele>
        <time>2021-10-08T15:01:58Z</time>
      </trkpt>
      <trkpt lat="44.84947" lon="5.47903">
        <ele>1554.8</ele>
        <time>2021-10-08T15:01:59Z</time>
      </trkpt>
      <trkpt lat="44.8495" lon="5.47902">
        <ele>1554.8</ele>
        <time>2021-10-08T15:02:00Z</time>
      </trkpt>
      <trkpt lat="44.84952" lon="5.47901">
        <ele>1554.8</ele>
        <time>2021-10-08T15:02:01Z</time>
      </trkpt>
      <trkpt lat="44.84954" lon="5.479">
        <ele>1554.6</ele>
        <time>2021-10-08T15:02:02Z</time>
      </trkpt>
      <trkpt lat="44.84956" lon="5.47897">
        <ele>1554.6</ele>
        <time>2021-10-08T15:02:03Z</time>
      </trkpt>
      <trkpt lat="44.8496" lon="5.47896">
        <ele>1554.6</ele>
        <time>2021-10-08T15:02:04Z</time>
      </trkpt>
      <trkpt lat="44.84964" lon="5.47896">
        <ele>1553.6</ele>
        <time>2021-10-08T15:02:05Z</time>
      </trkpt>
      <trkpt lat="44.84967" lon="5.47897">
        <ele>1553.2</ele>
        <time>2021-10-08T15:02:06Z</time>
      </trkpt>
      <trkpt lat="44.8497" lon="5.47898">
        <ele>1553.2</ele>
        <time>2021-10-08T15:02:07Z</time>
      </trkpt>
      <trkpt lat="44.84973" lon="5.47898">
        <ele>1553.2</ele>
        <time>2021-10-08T15:02:08Z</time>
      </trkpt>
      <trkpt lat="44.84976" lon="5.47897">
        <ele>1552.2</ele>
        <time>2021-10-08T15:02:09Z</time>
      </trkpt>
      <trkpt lat="44.84979" lon="5.47896">
        <ele>1550.6</ele>
        <time>2021-10-08T15:02:10Z</time>
      </trkpt>
      <trkpt lat="44.84982" lon="5.47893">
        <ele>1550.6</ele>
        <time>2021-10-08T15:02:11Z</time>
      </trkpt>
      <trkpt lat="44.84986" lon="5.4789">
        <ele>1550.6</ele>
        <time>2021-10-08T15:02:12Z</time>
      </trkpt>
      <trkpt lat="44.8499" lon="5.47886">
        <ele>1550.6</ele>
        <time>2021-10-08T15:02:13Z</time>
      </trkpt>
      <trkpt lat="44.84992" lon="5.47882">
        <ele>1550.2</ele>
        <time>2021-10-08T15:02:14Z</time>
      </trkpt>
      <trkpt lat="44.84993" lon="5.47878">
        <ele>1550.2</ele>
        <time>2021-10-08T15:02:15Z</time>
      </trkpt>
      <trkpt lat="44.84995" lon="5.47874">
        <ele>1550.2</ele>
        <time>2021-10-08T15:02:16Z</time>
      </trkpt>
      <trkpt lat="44.84997" lon="5.47871">
        <ele>1550.2</ele>
        <time>2021-10-08T15:02:17Z</time>
      </trkpt>
      <trkpt lat="44.84998" lon="5.47868">
        <ele>1551.4</ele>
        <time>2021-10-08T15:02:18Z</time>
      </trkpt>
      <trkpt lat="44.85" lon="5.47865">
        <ele>1551.4</ele>
        <time>2021-10-08T15:02:19Z</time>
      </trkpt>
      <trkpt lat="44.85001" lon="5.47863">
        <ele>1551.4</ele>
        <time>2021-10-08T15:02:20Z</time>
      </trkpt>
      <trkpt lat="44.85003" lon="5.47859">
        <ele>1550.8</ele>
        <time>2021-10-08T15:02:21Z</time>
      </trkpt>
      <trkpt lat="44.85005" lon="5.47856">
        <ele>1551.4</ele>
        <time>2021-10-08T15:02:22Z</time>
      </trkpt>
      <trkpt lat="44.85006" lon="5.47852">
        <ele>1551.4</ele>
        <time>2021-10-08T15:02:23Z</time>
      </trkpt>
      <trkpt lat="44.85007" lon="5.47848">
        <ele>1551.4</ele>
        <time>2021-10-08T15:02:24Z</time>
      </trkpt>
      <trkpt lat="44.85009" lon="5.47845">
        <ele>1550.6</ele>
        <time>2021-10-08T15:02:25Z</time>
      </trkpt>
      <trkpt lat="44.8501" lon="5.47841">
        <ele>1551.4</ele>
        <time>2021-10-08T15:02:26Z</time>
      </trkpt>
      <trkpt lat="44.85011" lon="5.47839">
        <ele>1551.4</ele>
        <time>2021-10-08T15:02:27Z</time>
      </trkpt>
      <trkpt lat="44.85011" lon="5.47836">
        <ele>1551.4</ele>
        <time>2021-10-08T15:02:28Z</time>
      </trkpt>
      <trkpt lat="44.85011" lon="5.47832">
        <ele>1551.4</ele>
        <time>2021-10-08T15:02:29Z</time>
      </trkpt>
      <trkpt lat="44.85011" lon="5.47828">
        <ele>1550.8</ele>
        <time>2021-10-08T15:02:30Z</time>
      </trkpt>
      <trkpt lat="44.85012" lon="5.47824">
        <ele>1550.8</ele>
        <time>2021-10-08T15:02:31Z</time>
      </trkpt>
      <trkpt lat="44.85013" lon="5.4782">
        <ele>1550.8</ele>
        <time>2021-10-08T15:02:32Z</time>
      </trkpt>
      <trkpt lat="44.85014" lon="5.47816">
        <ele>1551.8</ele>
        <time>2021-10-08T15:02:33Z</time>
      </trkpt>
      <trkpt lat="44.85016" lon="5.47813">
        <ele>1553.2</ele>
        <time>2021-10-08T15:02:34Z</time>
      </trkpt>
      <trkpt lat="44.85017" lon="5.47811">
        <ele>1553.2</ele>
        <time>2021-10-08T15:02:35Z</time>
      </trkpt>
      <trkpt lat="44.85019" lon="5.47808">
        <ele>1553.2</ele>
        <time>2021-10-08T15:02:36Z</time>
      </trkpt>
      <trkpt lat="44.8502" lon="5.47807">
        <ele>1554.2</ele>
        <time>2021-10-08T15:02:37Z</time>
      </trkpt>
      <trkpt lat="44.85022" lon="5.47806">
        <ele>1553.6</ele>
        <time>2021-10-08T15:02:38Z</time>
      </trkpt>
      <trkpt lat="44.85024" lon="5.47806">
        <ele>1553.6</ele>
        <time>2021-10-08T15:02:39Z</time>
      </trkpt>
      <trkpt lat="44.85026" lon="5.47806">
        <ele>1553.6</ele>
        <time>2021-10-08T15:02:40Z</time>
      </trkpt>
      <trkpt lat="44.85028" lon="5.47807">
        <ele>1553.6</ele>
        <time>2021-10-08T15:02:41Z</time>
      </trkpt>
      <trkpt lat="44.8503" lon="5.47808">
        <ele>1553.4</ele>
        <time>2021-10-08T15:02:42Z</time>
      </trkpt>
      <trkpt lat="44.85033" lon="5.4781">
        <ele>1553.4</ele>
        <time>2021-10-08T15:02:43Z</time>
      </trkpt>
      <trkpt lat="44.85035" lon="5.47812">
        <ele>1553.4</ele>
        <time>2021-10-08T15:02:44Z</time>
      </trkpt>
      <trkpt lat="44.85036" lon="5.47814">
        <ele>1553.4</ele>
        <time>2021-10-08T15:02:45Z</time>
      </trkpt>
      <trkpt lat="44.85038" lon="5.47815">
        <ele>1553</ele>
        <time>2021-10-08T15:02:46Z</time>
      </trkpt>
      <trkpt lat="44.8504" lon="5.47817">
        <ele>1553</ele>
        <time>2021-10-08T15:02:47Z</time>
      </trkpt>
      <trkpt lat="44.85042" lon="5.47818">
        <ele>1553</ele>
        <time>2021-10-08T15:02:48Z</time>
      </trkpt>
      <trkpt lat="44.85045" lon="5.47819">
        <ele>1552.4</ele>
        <time>2021-10-08T15:02:49Z</time>
      </trkpt>
      <trkpt lat="44.85047" lon="5.4782">
        <ele>1552.2</ele>
        <time>2021-10-08T15:02:50Z</time>
      </trkpt>
      <trkpt lat="44.8505" lon="5.47821">
        <ele>1552.2</ele>
        <time>2021-10-08T15:02:51Z</time>
      </trkpt>
      <trkpt lat="44.85052" lon="5.47822">
        <ele>1552.2</ele>
        <time>2021-10-08T15:02:52Z</time>
      </trkpt>
      <trkpt lat="44.85055" lon="5.47824">
        <ele>1552.2</ele>
        <time>2021-10-08T15:02:53Z</time>
      </trkpt>
      <trkpt lat="44.85057" lon="5.47826">
        <ele>1552</ele>
        <time>2021-10-08T15:02:54Z</time>
      </trkpt>
      <trkpt lat="44.8506" lon="5.47827">
        <ele>1552</ele>
        <time>2021-10-08T15:02:55Z</time>
      </trkpt>
      <trkpt lat="44.85063" lon="5.47829">
        <ele>1552</ele>
        <time>2021-10-08T15:02:56Z</time>
      </trkpt>
      <trkpt lat="44.85065" lon="5.47831">
        <ele>1552</ele>
        <time>2021-10-08T15:02:57Z</time>
      </trkpt>
      <trkpt lat="44.85068" lon="5.47832">
        <ele>1552</ele>
        <time>2021-10-08T15:02:58Z</time>
      </trkpt>
      <trkpt lat="44.8507" lon="5.47834">
        <ele>1552</ele>
        <time>2021-10-08T15:02:59Z</time>
      </trkpt>
      <trkpt lat="44.85073" lon="5.47836">
        <ele>1552</ele>
        <time>2021-10-08T15:03:00Z</time>
      </trkpt>
      <trkpt lat="44.85075" lon="5.47838">
        <ele>1552</ele>
        <time>2021-10-08T15:03:01Z</time>
      </trkpt>
      <trkpt lat="44.85078" lon="5.47839">
        <ele>1551.2</ele>
        <time>2021-10-08T15:03:02Z</time>
      </trkpt>
      <trkpt lat="44.85081" lon="5.47841">
        <ele>1551.2</ele>
        <time>2021-10-08T15:03:03Z</time>
      </trkpt>
      <trkpt lat="44.85084" lon="5.47842">
        <ele>1551.2</ele>
        <time>2021-10-08T15:03:04Z</time>
      </trkpt>
      <trkpt lat="44.85086" lon="5.47843">
        <ele>1551.2</ele>
        <time>2021-10-08T15:03:05Z</time>
      </trkpt>
      <trkpt lat="44.85089" lon="5.47844">
        <ele>1551.6</ele>
        <time>2021-10-08T15:03:06Z</time>
      </trkpt>
      <trkpt lat="44.85091" lon="5.47845">
        <ele>1551.6</ele>
        <time>2021-10-08T15:03:07Z</time>
      </trkpt>
      <trkpt lat="44.85094" lon="5.47847">
        <ele>1551.6</ele>
        <time>2021-10-08T15:03:08Z</time>
      </trkpt>
      <trkpt lat="44.85098" lon="5.47848">
        <ele>1550.6</ele>
        <time>2021-10-08T15:03:09Z</time>
      </trkpt>
      <trkpt lat="44.85102" lon="5.4785">
        <ele>1550.6</ele>
        <time>2021-10-08T15:03:10Z</time>
      </trkpt>
      <trkpt lat="44.85106" lon="5.47852">
        <ele>1550.6</ele>
        <time>2021-10-08T15:03:11Z</time>
      </trkpt>
      <trkpt lat="44.8511" lon="5.47854">
        <ele>1550.6</ele>
        <time>2021-10-08T15:03:12Z</time>
      </trkpt>
      <trkpt lat="44.85113" lon="5.47856">
        <ele>1550.2</ele>
        <time>2021-10-08T15:03:13Z</time>
      </trkpt>
      <trkpt lat="44.85117" lon="5.47858">
        <ele>1549.4</ele>
        <time>2021-10-08T15:03:14Z</time>
      </trkpt>
      <trkpt lat="44.85121" lon="5.4786">
        <ele>1549.4</ele>
        <time>2021-10-08T15:03:15Z</time>
      </trkpt>
      <trkpt lat="44.85125" lon="5.47862">
        <ele>1549.4</ele>
        <time>2021-10-08T15:03:16Z</time>
      </trkpt>
      <trkpt lat="44.8513" lon="5.47864">
        <ele>1549.4</ele>
        <time>2021-10-08T15:03:17Z</time>
      </trkpt>
      <trkpt lat="44.85134" lon="5.47866">
        <ele>1549.4</ele>
        <time>2021-10-08T15:03:18Z</time>
      </trkpt>
      <trkpt lat="44.85139" lon="5.47868">
        <ele>1549.4</ele>
        <time>2021-10-08T15:03:19Z</time>
      </trkpt>
      <trkpt lat="44.85144" lon="5.47868">
        <ele>1549.4</ele>
        <time>2021-10-08T15:03:20Z</time>
      </trkpt>
      <trkpt lat="44.85149" lon="5.47868">
        <ele>1547.8</ele>
        <time>2021-10-08T15:03:21Z</time>
      </trkpt>
      <trkpt lat="44.85153" lon="5.47868">
        <ele>1548.4</ele>
        <time>2021-10-08T15:03:22Z</time>
      </trkpt>
      <trkpt lat="44.85157" lon="5.47867">
        <ele>1548.4</ele>
        <time>2021-10-08T15:03:23Z</time>
      </trkpt>
      <trkpt lat="44.8516" lon="5.47865">
        <ele>1548.4</ele>
        <time>2021-10-08T15:03:24Z</time>
      </trkpt>
      <trkpt lat="44.85164" lon="5.47864">
        <ele>1549.2</ele>
        <time>2021-10-08T15:03:25Z</time>
      </trkpt>
      <trkpt lat="44.85168" lon="5.47862">
        <ele>1549.2</ele>
        <time>2021-10-08T15:03:26Z</time>
      </trkpt>
      <trkpt lat="44.85171" lon="5.47861">
        <ele>1549.2</ele>
        <time>2021-10-08T15:03:27Z</time>
      </trkpt>
      <trkpt lat="44.85174" lon="5.47859">
        <ele>1549.2</ele>
        <time>2021-10-08T15:03:28Z</time>
      </trkpt>
      <trkpt lat="44.85177" lon="5.47858">
        <ele>1549.8</ele>
        <time>2021-10-08T15:03:29Z</time>
      </trkpt>
      <trkpt lat="44.8518" lon="5.47856">
        <ele>1550.6</ele>
        <time>2021-10-08T15:03:30Z</time>
      </trkpt>
      <trkpt lat="44.85183" lon="5.47855">
        <ele>1550.6</ele>
        <time>2021-10-08T15:03:31Z</time>
      </trkpt>
      <trkpt lat="44.85185" lon="5.47854">
        <ele>1550.6</ele>
        <time>2021-10-08T15:03:32Z</time>
      </trkpt>
      <trkpt lat="44.85187" lon="5.47852">
        <ele>1550.6</ele>
        <time>2021-10-08T15:03:33Z</time>
      </trkpt>
      <trkpt lat="44.85189" lon="5.4785">
        <ele>1550.8</ele>
        <time>2021-10-08T15:03:34Z</time>
      </trkpt>
      <trkpt lat="44.85191" lon="5.47848">
        <ele>1550.8</ele>
        <time>2021-10-08T15:03:35Z</time>
      </trkpt>
      <trkpt lat="44.85194" lon="5.47847">
        <ele>1550.8</ele>
        <time>2021-10-08T15:03:36Z</time>
      </trkpt>
      <trkpt lat="44.85196" lon="5.47845">
        <ele>1551.8</ele>
        <time>2021-10-08T15:03:37Z</time>
      </trkpt>
      <trkpt lat="44.85198" lon="5.47844">
        <ele>1551.8</ele>
        <time>2021-10-08T15:03:38Z</time>
      </trkpt>
      <trkpt lat="44.85201" lon="5.47842">
        <ele>1551.8</ele>
        <time>2021-10-08T15:03:39Z</time>
      </trkpt>
      <trkpt lat="44.85203" lon="5.4784">
        <ele>1551.8</ele>
        <time>2021-10-08T15:03:40Z</time>
      </trkpt>
      <trkpt lat="44.85205" lon="5.47839">
        <ele>1551.8</ele>
        <time>2021-10-08T15:03:41Z</time>
      </trkpt>
      <trkpt lat="44.85207" lon="5.47839">
        <ele>1553.8</ele>
        <time>2021-10-08T15:03:42Z</time>
      </trkpt>
      <trkpt lat="44.85208" lon="5.47838">
        <ele>1553.8</ele>
        <time>2021-10-08T15:03:43Z</time>
      </trkpt>
      <trkpt lat="44.8521" lon="5.47838">
        <ele>1553.8</ele>
        <time>2021-10-08T15:03:44Z</time>
      </trkpt>
      <trkpt lat="44.85212" lon="5.47838">
        <ele>1553.8</ele>
        <time>2021-10-08T15:03:45Z</time>
      </trkpt>
      <trkpt lat="44.85214" lon="5.47838">
        <ele>1553.4</ele>
        <time>2021-10-08T15:03:46Z</time>
      </trkpt>
      <trkpt lat="44.85216" lon="5.47838">
        <ele>1553.4</ele>
        <time>2021-10-08T15:03:47Z</time>
      </trkpt>
      <trkpt lat="44.85218" lon="5.47837">
        <ele>1553.4</ele>
        <time>2021-10-08T15:03:48Z</time>
      </trkpt>
      <trkpt lat="44.8522" lon="5.47835">
        <ele>1554.4</ele>
        <time>2021-10-08T15:03:49Z</time>
      </trkpt>
      <trkpt lat="44.85222" lon="5.47834">
        <ele>1554.6</ele>
        <time>2021-10-08T15:03:50Z</time>
      </trkpt>
      <trkpt lat="44.85224" lon="5.47832">
        <ele>1554.6</ele>
        <time>2021-10-08T15:03:51Z</time>
      </trkpt>
      <trkpt lat="44.85226" lon="5.47832">
        <ele>1554.6</ele>
        <time>2021-10-08T15:03:52Z</time>
      </trkpt>
      <trkpt lat="44.85228" lon="5.47831">
        <ele>1555</ele>
        <time>2021-10-08T15:03:53Z</time>
      </trkpt>
      <trkpt lat="44.8523" lon="5.4783">
        <ele>1554.8</ele>
        <time>2021-10-08T15:03:54Z</time>
      </trkpt>
      <trkpt lat="44.85232" lon="5.4783">
        <ele>1554.8</ele>
        <time>2021-10-08T15:03:55Z</time>
      </trkpt>
      <trkpt lat="44.85234" lon="5.47829">
        <ele>1554.8</ele>
        <time>2021-10-08T15:03:56Z</time>
      </trkpt>
      <trkpt lat="44.85236" lon="5.47829">
        <ele>1554.8</ele>
        <time>2021-10-08T15:03:57Z</time>
      </trkpt>
      <trkpt lat="44.85239" lon="5.47828">
        <ele>1554.2</ele>
        <time>2021-10-08T15:03:58Z</time>
      </trkpt>
      <trkpt lat="44.85242" lon="5.47828">
        <ele>1554.2</ele>
        <time>2021-10-08T15:03:59Z</time>
      </trkpt>
      <trkpt lat="44.85247" lon="5.47829">
        <ele>1554.2</ele>
        <time>2021-10-08T15:04:00Z</time>
      </trkpt>
      <trkpt lat="44.85251" lon="5.4783">
        <ele>1553.4</ele>
        <time>2021-10-08T15:04:01Z</time>
      </trkpt>
      <trkpt lat="44.85254" lon="5.47831">
        <ele>1553.4</ele>
        <time>2021-10-08T15:04:02Z</time>
      </trkpt>
      <trkpt lat="44.85258" lon="5.47831">
        <ele>1553.4</ele>
        <time>2021-10-08T15:04:03Z</time>
      </trkpt>
      <trkpt lat="44.85262" lon="5.4783">
        <ele>1553.4</ele>
        <time>2021-10-08T15:04:04Z</time>
      </trkpt>
      <trkpt lat="44.85266" lon="5.4783">
        <ele>1553.4</ele>
        <time>2021-10-08T15:04:05Z</time>
      </trkpt>
      <trkpt lat="44.8527" lon="5.4783">
        <ele>1553.2</ele>
        <time>2021-10-08T15:04:06Z</time>
      </trkpt>
      <trkpt lat="44.85274" lon="5.47831">
        <ele>1553.2</ele>
        <time>2021-10-08T15:04:07Z</time>
      </trkpt>
      <trkpt lat="44.85276" lon="5.47833">
        <ele>1553.2</ele>
        <time>2021-10-08T15:04:08Z</time>
      </trkpt>
      <trkpt lat="44.85279" lon="5.47834">
        <ele>1553.2</ele>
        <time>2021-10-08T15:04:09Z</time>
      </trkpt>
      <trkpt lat="44.85281" lon="5.47835">
        <ele>1551.4</ele>
        <time>2021-10-08T15:04:10Z</time>
      </trkpt>
      <trkpt lat="44.85284" lon="5.47835">
        <ele>1551.4</ele>
        <time>2021-10-08T15:04:11Z</time>
      </trkpt>
      <trkpt lat="44.85288" lon="5.47836">
        <ele>1551.4</ele>
        <time>2021-10-08T15:04:12Z</time>
      </trkpt>
      <trkpt lat="44.85292" lon="5.47837">
        <ele>1551.4</ele>
        <time>2021-10-08T15:04:13Z</time>
      </trkpt>
      <trkpt lat="44.85296" lon="5.47839">
        <ele>1551.2</ele>
        <time>2021-10-08T15:04:14Z</time>
      </trkpt>
      <trkpt lat="44.853" lon="5.47841">
        <ele>1551.2</ele>
        <time>2021-10-08T15:04:15Z</time>
      </trkpt>
      <trkpt lat="44.85304" lon="5.47842">
        <ele>1551.2</ele>
        <time>2021-10-08T15:04:16Z</time>
      </trkpt>
      <trkpt lat="44.85308" lon="5.47843">
        <ele>1550.2</ele>
        <time>2021-10-08T15:04:17Z</time>
      </trkpt>
      <trkpt lat="44.85312" lon="5.47844">
        <ele>1548.4</ele>
        <time>2021-10-08T15:04:18Z</time>
      </trkpt>
      <trkpt lat="44.85316" lon="5.47844">
        <ele>1548.4</ele>
        <time>2021-10-08T15:04:19Z</time>
      </trkpt>
      <trkpt lat="44.85321" lon="5.47843">
        <ele>1548.4</ele>
        <time>2021-10-08T15:04:20Z</time>
      </trkpt>
      <trkpt lat="44.85325" lon="5.47843">
        <ele>1548.4</ele>
        <time>2021-10-08T15:04:21Z</time>
      </trkpt>
      <trkpt lat="44.8533" lon="5.47843">
        <ele>1548.2</ele>
        <time>2021-10-08T15:04:22Z</time>
      </trkpt>
      <trkpt lat="44.85334" lon="5.47842">
        <ele>1548.2</ele>
        <time>2021-10-08T15:04:23Z</time>
      </trkpt>
      <trkpt lat="44.85338" lon="5.47841">
        <ele>1548.2</ele>
        <time>2021-10-08T15:04:24Z</time>
      </trkpt>
      <trkpt lat="44.85342" lon="5.47841">
        <ele>1548.2</ele>
        <time>2021-10-08T15:04:25Z</time>
      </trkpt>
      <trkpt lat="44.85346" lon="5.4784">
        <ele>1548.2</ele>
        <time>2021-10-08T15:04:26Z</time>
      </trkpt>
      <trkpt lat="44.8535" lon="5.4784">
        <ele>1548.2</ele>
        <time>2021-10-08T15:04:27Z</time>
      </trkpt>
      <trkpt lat="44.85354" lon="5.4784">
        <ele>1546.8</ele>
        <time>2021-10-08T15:04:28Z</time>
      </trkpt>
      <trkpt lat="44.85357" lon="5.47841">
        <ele>1546.2</ele>
        <time>2021-10-08T15:04:29Z</time>
      </trkpt>
      <trkpt lat="44.85362" lon="5.47841">
        <ele>1546.4</ele>
        <time>2021-10-08T15:04:30Z</time>
      </trkpt>
      <trkpt lat="44.85366" lon="5.47841">
        <ele>1546.4</ele>
        <time>2021-10-08T15:04:31Z</time>
      </trkpt>
      <trkpt lat="44.85371" lon="5.4784">
        <ele>1546.4</ele>
        <time>2021-10-08T15:04:32Z</time>
      </trkpt>
      <trkpt lat="44.85375" lon="5.47839">
        <ele>1545.4</ele>
        <time>2021-10-08T15:04:33Z</time>
      </trkpt>
      <trkpt lat="44.85379" lon="5.47839">
        <ele>1545</ele>
        <time>2021-10-08T15:04:34Z</time>
      </trkpt>
      <trkpt lat="44.85384" lon="5.47838">
        <ele>1545</ele>
        <time>2021-10-08T15:04:35Z</time>
      </trkpt>
      <trkpt lat="44.85388" lon="5.47838">
        <ele>1545</ele>
        <time>2021-10-08T15:04:36Z</time>
      </trkpt>
      <trkpt lat="44.85392" lon="5.47837">
        <ele>1544</ele>
        <time>2021-10-08T15:04:37Z</time>
      </trkpt>
      <trkpt lat="44.85396" lon="5.47835">
        <ele>1544.2</ele>
        <time>2021-10-08T15:04:38Z</time>
      </trkpt>
      <trkpt lat="44.854" lon="5.47833">
        <ele>1544.2</ele>
        <time>2021-10-08T15:04:39Z</time>
      </trkpt>
      <trkpt lat="44.85404" lon="5.47831">
        <ele>1544.2</ele>
        <time>2021-10-08T15:04:40Z</time>
      </trkpt>
      <trkpt lat="44.85408" lon="5.47828">
        <ele>1543.2</ele>
        <time>2021-10-08T15:04:41Z</time>
      </trkpt>
      <trkpt lat="44.85411" lon="5.47824">
        <ele>1542</ele>
        <time>2021-10-08T15:04:42Z</time>
      </trkpt>
      <trkpt lat="44.85415" lon="5.47819">
        <ele>1542</ele>
        <time>2021-10-08T15:04:43Z</time>
      </trkpt>
      <trkpt lat="44.85418" lon="5.47814">
        <ele>1542</ele>
        <time>2021-10-08T15:04:44Z</time>
      </trkpt>
      <trkpt lat="44.85421" lon="5.47809">
        <ele>1541.6</ele>
        <time>2021-10-08T15:04:45Z</time>
      </trkpt>
      <trkpt lat="44.85425" lon="5.47805">
        <ele>1540</ele>
        <time>2021-10-08T15:04:46Z</time>
      </trkpt>
      <trkpt lat="44.85429" lon="5.47802">
        <ele>1540</ele>
        <time>2021-10-08T15:04:47Z</time>
      </trkpt>
      <trkpt lat="44.85432" lon="5.478">
        <ele>1540</ele>
        <time>2021-10-08T15:04:48Z</time>
      </trkpt>
      <trkpt lat="44.85437" lon="5.47798">
        <ele>1540</ele>
        <time>2021-10-08T15:04:49Z</time>
      </trkpt>
      <trkpt lat="44.85442" lon="5.47796">
        <ele>1535.8</ele>
        <time>2021-10-08T15:04:50Z</time>
      </trkpt>
      <trkpt lat="44.85447" lon="5.47795">
        <ele>1535.8</ele>
        <time>2021-10-08T15:04:51Z</time>
      </trkpt>
      <trkpt lat="44.85453" lon="5.47794">
        <ele>1535.8</ele>
        <time>2021-10-08T15:04:52Z</time>
      </trkpt>
      <trkpt lat="44.85458" lon="5.47793">
        <ele>1535.8</ele>
        <time>2021-10-08T15:04:53Z</time>
      </trkpt>
      <trkpt lat="44.85464" lon="5.47793">
        <ele>1536</ele>
        <time>2021-10-08T15:04:54Z</time>
      </trkpt>
      <trkpt lat="44.85469" lon="5.47793">
        <ele>1536</ele>
        <time>2021-10-08T15:04:55Z</time>
      </trkpt>
      <trkpt lat="44.85473" lon="5.47793">
        <ele>1536</ele>
        <time>2021-10-08T15:04:56Z</time>
      </trkpt>
      <trkpt lat="44.85478" lon="5.47793">
        <ele>1536.8</ele>
        <time>2021-10-08T15:04:57Z</time>
      </trkpt>
      <trkpt lat="44.85482" lon="5.47792">
        <ele>1537.8</ele>
        <time>2021-10-08T15:04:58Z</time>
      </trkpt>
      <trkpt lat="44.85488" lon="5.4779">
        <ele>1537.8</ele>
        <time>2021-10-08T15:04:59Z</time>
      </trkpt>
      <trkpt lat="44.85494" lon="5.47789">
        <ele>1537.8</ele>
        <time>2021-10-08T15:05:00Z</time>
      </trkpt>
      <trkpt lat="44.855" lon="5.47788">
        <ele>1536.8</ele>
        <time>2021-10-08T15:05:01Z</time>
      </trkpt>
      <trkpt lat="44.85507" lon="5.47787">
        <ele>1533.6</ele>
        <time>2021-10-08T15:05:02Z</time>
      </trkpt>
      <trkpt lat="44.85513" lon="5.47786">
        <ele>1533.6</ele>
        <time>2021-10-08T15:05:03Z</time>
      </trkpt>
      <trkpt lat="44.8552" lon="5.47785">
        <ele>1533.6</ele>
        <time>2021-10-08T15:05:04Z</time>
      </trkpt>
      <trkpt lat="44.85527" lon="5.47785">
        <ele>1532.8</ele>
        <time>2021-10-08T15:05:05Z</time>
      </trkpt>
      <trkpt lat="44.85534" lon="5.47786">
        <ele>1530.6</ele>
        <time>2021-10-08T15:05:06Z</time>
      </trkpt>
      <trkpt lat="44.85541" lon="5.47787">
        <ele>1530.6</ele>
        <time>2021-10-08T15:05:07Z</time>
      </trkpt>
      <trkpt lat="44.85547" lon="5.47789">
        <ele>1530.6</ele>
        <time>2021-10-08T15:05:08Z</time>
      </trkpt>
      <trkpt lat="44.85552" lon="5.4779">
        <ele>1530.6</ele>
        <time>2021-10-08T15:05:09Z</time>
      </trkpt>
      <trkpt lat="44.85559" lon="5.4779">
        <ele>1531</ele>
        <time>2021-10-08T15:05:10Z</time>
      </trkpt>
      <trkpt lat="44.85564" lon="5.47787">
        <ele>1531</ele>
        <time>2021-10-08T15:05:11Z</time>
      </trkpt>
      <trkpt lat="44.85569" lon="5.47781">
        <ele>1531</ele>
        <time>2021-10-08T15:05:12Z</time>
      </trkpt>
      <trkpt lat="44.85574" lon="5.47775">
        <ele>1531</ele>
        <time>2021-10-08T15:05:13Z</time>
      </trkpt>
      <trkpt lat="44.85579" lon="5.47769">
        <ele>1527.6</ele>
        <time>2021-10-08T15:05:14Z</time>
      </trkpt>
      <trkpt lat="44.85585" lon="5.47764">
        <ele>1527.6</ele>
        <time>2021-10-08T15:05:15Z</time>
      </trkpt>
      <trkpt lat="44.85591" lon="5.47759">
        <ele>1527.6</ele>
        <time>2021-10-08T15:05:16Z</time>
      </trkpt>
      <trkpt lat="44.85597" lon="5.47753">
        <ele>1526.6</ele>
        <time>2021-10-08T15:05:17Z</time>
      </trkpt>
      <trkpt lat="44.85603" lon="5.47749">
        <ele>1526.6</ele>
        <time>2021-10-08T15:05:18Z</time>
      </trkpt>
      <trkpt lat="44.85608" lon="5.47744">
        <ele>1526.6</ele>
        <time>2021-10-08T15:05:19Z</time>
      </trkpt>
      <trkpt lat="44.85612" lon="5.47739">
        <ele>1526.6</ele>
        <time>2021-10-08T15:05:20Z</time>
      </trkpt>
      <trkpt lat="44.85616" lon="5.47735">
        <ele>1527.4</ele>
        <time>2021-10-08T15:05:21Z</time>
      </trkpt>
      <trkpt lat="44.8562" lon="5.4773">
        <ele>1524.4</ele>
        <time>2021-10-08T15:05:22Z</time>
      </trkpt>
      <trkpt lat="44.85624" lon="5.47726">
        <ele>1524.4</ele>
        <time>2021-10-08T15:05:23Z</time>
      </trkpt>
      <trkpt lat="44.85629" lon="5.47721">
        <ele>1524.4</ele>
        <time>2021-10-08T15:05:24Z</time>
      </trkpt>
      <trkpt lat="44.85634" lon="5.47718">
        <ele>1524.4</ele>
        <time>2021-10-08T15:05:25Z</time>
      </trkpt>
      <trkpt lat="44.85638" lon="5.47713">
        <ele>1526.2</ele>
        <time>2021-10-08T15:05:26Z</time>
      </trkpt>
      <trkpt lat="44.85643" lon="5.47711">
        <ele>1526.2</ele>
        <time>2021-10-08T15:05:27Z</time>
      </trkpt>
      <trkpt lat="44.85648" lon="5.47709">
        <ele>1526.2</ele>
        <time>2021-10-08T15:05:28Z</time>
      </trkpt>
      <trkpt lat="44.85653" lon="5.47706">
        <ele>1526.2</ele>
        <time>2021-10-08T15:05:29Z</time>
      </trkpt>
      <trkpt lat="44.85657" lon="5.47704">
        <ele>1525.4</ele>
        <time>2021-10-08T15:05:30Z</time>
      </trkpt>
      <trkpt lat="44.85661" lon="5.47701">
        <ele>1525.4</ele>
        <time>2021-10-08T15:05:31Z</time>
      </trkpt>
      <trkpt lat="44.85665" lon="5.47699">
        <ele>1525.4</ele>
        <time>2021-10-08T15:05:32Z</time>
      </trkpt>
      <trkpt lat="44.85668" lon="5.47696">
        <ele>1526.4</ele>
        <time>2021-10-08T15:05:33Z</time>
      </trkpt>
      <trkpt lat="44.85672" lon="5.47694">
        <ele>1525.4</ele>
        <time>2021-10-08T15:05:34Z</time>
      </trkpt>
      <trkpt lat="44.85675" lon="5.47691">
        <ele>1525.4</ele>
        <time>2021-10-08T15:05:35Z</time>
      </trkpt>
      <trkpt lat="44.85679" lon="5.47688">
        <ele>1525.4</ele>
        <time>2021-10-08T15:05:36Z</time>
      </trkpt>
      <trkpt lat="44.85683" lon="5.47686">
        <ele>1525.4</ele>
        <time>2021-10-08T15:05:37Z</time>
      </trkpt>
      <trkpt lat="44.85688" lon="5.47685">
        <ele>1525.4</ele>
        <time>2021-10-08T15:05:38Z</time>
      </trkpt>
      <trkpt lat="44.85692" lon="5.47685">
        <ele>1524.8</ele>
        <time>2021-10-08T15:05:39Z</time>
      </trkpt>
      <trkpt lat="44.85697" lon="5.47684">
        <ele>1524.8</ele>
        <time>2021-10-08T15:05:40Z</time>
      </trkpt>
      <trkpt lat="44.85701" lon="5.47683">
        <ele>1525.8</ele>
        <time>2021-10-08T15:05:41Z</time>
      </trkpt>
      <trkpt lat="44.85705" lon="5.47682">
        <ele>1525.8</ele>
        <time>2021-10-08T15:05:42Z</time>
      </trkpt>
      <trkpt lat="44.85709" lon="5.47681">
        <ele>1525.8</ele>
        <time>2021-10-08T15:05:43Z</time>
      </trkpt>
      <trkpt lat="44.85713" lon="5.47681">
        <ele>1525.8</ele>
        <time>2021-10-08T15:05:44Z</time>
      </trkpt>
      <trkpt lat="44.85717" lon="5.4768">
        <ele>1525.8</ele>
        <time>2021-10-08T15:05:45Z</time>
      </trkpt>
      <trkpt lat="44.85722" lon="5.4768">
        <ele>1524.6</ele>
        <time>2021-10-08T15:05:46Z</time>
      </trkpt>
      <trkpt lat="44.85727" lon="5.47681">
        <ele>1524.6</ele>
        <time>2021-10-08T15:05:47Z</time>
      </trkpt>
      <trkpt lat="44.85732" lon="5.47682">
        <ele>1524.6</ele>
        <time>2021-10-08T15:05:48Z</time>
      </trkpt>
      <trkpt lat="44.85737" lon="5.47683">
        <ele>1524.6</ele>
        <time>2021-10-08T15:05:49Z</time>
      </trkpt>
      <trkpt lat="44.85742" lon="5.47684">
        <ele>1523.6</ele>
        <time>2021-10-08T15:05:50Z</time>
      </trkpt>
      <trkpt lat="44.85747" lon="5.47685">
        <ele>1523.6</ele>
        <time>2021-10-08T15:05:51Z</time>
      </trkpt>
      <trkpt lat="44.85751" lon="5.47687">
        <ele>1523.6</ele>
        <time>2021-10-08T15:05:52Z</time>
      </trkpt>
      <trkpt lat="44.85755" lon="5.47688">
        <ele>1523.6</ele>
        <time>2021-10-08T15:05:53Z</time>
      </trkpt>
      <trkpt lat="44.8576" lon="5.47688">
        <ele>1524</ele>
        <time>2021-10-08T15:05:54Z</time>
      </trkpt>
      <trkpt lat="44.85765" lon="5.47689">
        <ele>1524</ele>
        <time>2021-10-08T15:05:55Z</time>
      </trkpt>
      <trkpt lat="44.8577" lon="5.4769">
        <ele>1524</ele>
        <time>2021-10-08T15:05:56Z</time>
      </trkpt>
      <trkpt lat="44.85775" lon="5.4769">
        <ele>1524</ele>
        <time>2021-10-08T15:05:57Z</time>
      </trkpt>
      <trkpt lat="44.85779" lon="5.4769">
        <ele>1523.4</ele>
        <time>2021-10-08T15:05:58Z</time>
      </trkpt>
      <trkpt lat="44.85784" lon="5.4769">
        <ele>1523.4</ele>
        <time>2021-10-08T15:05:59Z</time>
      </trkpt>
      <trkpt lat="44.85788" lon="5.4769">
        <ele>1523.4</ele>
        <time>2021-10-08T15:06:00Z</time>
      </trkpt>
      <trkpt lat="44.85793" lon="5.47691">
        <ele>1523.4</ele>
        <time>2021-10-08T15:06:01Z</time>
      </trkpt>
      <trkpt lat="44.85797" lon="5.47692">
        <ele>1523.2</ele>
        <time>2021-10-08T15:06:02Z</time>
      </trkpt>
      <trkpt lat="44.85802" lon="5.47694">
        <ele>1523.2</ele>
        <time>2021-10-08T15:06:03Z</time>
      </trkpt>
      <trkpt lat="44.85808" lon="5.47695">
        <ele>1523.2</ele>
        <time>2021-10-08T15:06:04Z</time>
      </trkpt>
      <trkpt lat="44.85812" lon="5.47697">
        <ele>1522.6</ele>
        <time>2021-10-08T15:06:05Z</time>
      </trkpt>
      <trkpt lat="44.85817" lon="5.47699">
        <ele>1522.8</ele>
        <time>2021-10-08T15:06:06Z</time>
      </trkpt>
      <trkpt lat="44.85822" lon="5.477">
        <ele>1522.8</ele>
        <time>2021-10-08T15:06:07Z</time>
      </trkpt>
      <trkpt lat="44.85827" lon="5.47702">
        <ele>1522.8</ele>
        <time>2021-10-08T15:06:08Z</time>
      </trkpt>
      <trkpt lat="44.85831" lon="5.47704">
        <ele>1522.8</ele>
        <time>2021-10-08T15:06:09Z</time>
      </trkpt>
      <trkpt lat="44.85837" lon="5.47705">
        <ele>1520.8</ele>
        <time>2021-10-08T15:06:10Z</time>
      </trkpt>
      <trkpt lat="44.85842" lon="5.47705">
        <ele>1520.8</ele>
        <time>2021-10-08T15:06:11Z</time>
      </trkpt>
      <trkpt lat="44.85848" lon="5.47706">
        <ele>1520.8</ele>
        <time>2021-10-08T15:06:12Z</time>
      </trkpt>
      <trkpt lat="44.85854" lon="5.47706">
        <ele>1520.8</ele>
        <time>2021-10-08T15:06:13Z</time>
      </trkpt>
      <trkpt lat="44.85859" lon="5.47705">
        <ele>1520.8</ele>
        <time>2021-10-08T15:06:14Z</time>
      </trkpt>
      <trkpt lat="44.85865" lon="5.47705">
        <ele>1520.8</ele>
        <time>2021-10-08T15:06:15Z</time>
      </trkpt>
      <trkpt lat="44.8587" lon="5.47705">
        <ele>1520.8</ele>
        <time>2021-10-08T15:06:16Z</time>
      </trkpt>
      <trkpt lat="44.85874" lon="5.47704">
        <ele>1520.8</ele>
        <time>2021-10-08T15:06:17Z</time>
      </trkpt>
      <trkpt lat="44.85879" lon="5.47704">
        <ele>1520.6</ele>
        <time>2021-10-08T15:06:18Z</time>
      </trkpt>
      <trkpt lat="44.85883" lon="5.47703">
        <ele>1520.6</ele>
        <time>2021-10-08T15:06:19Z</time>
      </trkpt>
      <trkpt lat="44.85889" lon="5.47702">
        <ele>1520.6</ele>
        <time>2021-10-08T15:06:20Z</time>
      </trkpt>
      <trkpt lat="44.85894" lon="5.477">
        <ele>1520.2</ele>
        <time>2021-10-08T15:06:21Z</time>
      </trkpt>
      <trkpt lat="44.85899" lon="5.47697">
        <ele>1519.8</ele>
        <time>2021-10-08T15:06:22Z</time>
      </trkpt>
      <trkpt lat="44.85904" lon="5.47694">
        <ele>1519.8</ele>
        <time>2021-10-08T15:06:23Z</time>
      </trkpt>
      <trkpt lat="44.85909" lon="5.47691">
        <ele>1519.8</ele>
        <time>2021-10-08T15:06:24Z</time>
      </trkpt>
      <trkpt lat="44.85915" lon="5.47689">
        <ele>1518.8</ele>
        <time>2021-10-08T15:06:25Z</time>
      </trkpt>
      <trkpt lat="44.8592" lon="5.47688">
        <ele>1518</ele>
        <time>2021-10-08T15:06:26Z</time>
      </trkpt>
      <trkpt lat="44.85925" lon="5.47686">
        <ele>1518</ele>
        <time>2021-10-08T15:06:27Z</time>
      </trkpt>
      <trkpt lat="44.85931" lon="5.47686">
        <ele>1518</ele>
        <time>2021-10-08T15:06:28Z</time>
      </trkpt>
      <trkpt lat="44.85935" lon="5.47685">
        <ele>1518</ele>
        <time>2021-10-08T15:06:29Z</time>
      </trkpt>
      <trkpt lat="44.85941" lon="5.47685">
        <ele>1515.4</ele>
        <time>2021-10-08T15:06:30Z</time>
      </trkpt>
      <trkpt lat="44.85947" lon="5.47685">
        <ele>1515.4</ele>
        <time>2021-10-08T15:06:31Z</time>
      </trkpt>
      <trkpt lat="44.85953" lon="5.47684">
        <ele>1515.4</ele>
        <time>2021-10-08T15:06:32Z</time>
      </trkpt>
      <trkpt lat="44.85962" lon="5.47682">
        <ele>1515.4</ele>
        <time>2021-10-08T15:06:33Z</time>
      </trkpt>
      <trkpt lat="44.85968" lon="5.4768">
        <ele>1513.8</ele>
        <time>2021-10-08T15:06:34Z</time>
      </trkpt>
      <trkpt lat="44.85974" lon="5.4768">
        <ele>1513.8</ele>
        <time>2021-10-08T15:06:35Z</time>
      </trkpt>
      <trkpt lat="44.85981" lon="5.47681">
        <ele>1513.8</ele>
        <time>2021-10-08T15:06:36Z</time>
      </trkpt>
      <trkpt lat="44.85986" lon="5.47682">
        <ele>1513.8</ele>
        <time>2021-10-08T15:06:37Z</time>
      </trkpt>
      <trkpt lat="44.85991" lon="5.47683">
        <ele>1514.8</ele>
        <time>2021-10-08T15:06:38Z</time>
      </trkpt>
      <trkpt lat="44.85996" lon="5.47683">
        <ele>1514.8</ele>
        <time>2021-10-08T15:06:39Z</time>
      </trkpt>
      <trkpt lat="44.86" lon="5.47682">
        <ele>1514.8</ele>
        <time>2021-10-08T15:06:40Z</time>
      </trkpt>
      <trkpt lat="44.86005" lon="5.4768">
        <ele>1514.8</ele>
        <time>2021-10-08T15:06:41Z</time>
      </trkpt>
      <trkpt lat="44.86009" lon="5.47678">
        <ele>1514.8</ele>
        <time>2021-10-08T15:06:42Z</time>
      </trkpt>
      <trkpt lat="44.86014" lon="5.47675">
        <ele>1514.8</ele>
        <time>2021-10-08T15:06:43Z</time>
      </trkpt>
      <trkpt lat="44.86019" lon="5.47672">
        <ele>1514.8</ele>
        <time>2021-10-08T15:06:44Z</time>
      </trkpt>
      <trkpt lat="44.86024" lon="5.4767">
        <ele>1513.8</ele>
        <time>2021-10-08T15:06:45Z</time>
      </trkpt>
      <trkpt lat="44.86029" lon="5.47668">
        <ele>1513.8</ele>
        <time>2021-10-08T15:06:46Z</time>
      </trkpt>
      <trkpt lat="44.86033" lon="5.47665">
        <ele>1513.8</ele>
        <time>2021-10-08T15:06:47Z</time>
      </trkpt>
      <trkpt lat="44.86038" lon="5.47663">
        <ele>1512.8</ele>
        <time>2021-10-08T15:06:48Z</time>
      </trkpt>
      <trkpt lat="44.86043" lon="5.47662">
        <ele>1512.8</ele>
        <time>2021-10-08T15:06:49Z</time>
      </trkpt>
      <trkpt lat="44.86048" lon="5.47661">
        <ele>1513.4</ele>
        <time>2021-10-08T15:06:50Z</time>
      </trkpt>
      <trkpt lat="44.86052" lon="5.4766">
        <ele>1513.4</ele>
        <time>2021-10-08T15:06:51Z</time>
      </trkpt>
      <trkpt lat="44.86057" lon="5.47659">
        <ele>1513.4</ele>
        <time>2021-10-08T15:06:52Z</time>
      </trkpt>
      <trkpt lat="44.86061" lon="5.47659">
        <ele>1512.6</ele>
        <time>2021-10-08T15:06:53Z</time>
      </trkpt>
      <trkpt lat="44.86066" lon="5.47658">
        <ele>1511.4</ele>
        <time>2021-10-08T15:06:54Z</time>
      </trkpt>
      <trkpt lat="44.86071" lon="5.47656">
        <ele>1511.4</ele>
        <time>2021-10-08T15:06:55Z</time>
      </trkpt>
      <trkpt lat="44.86076" lon="5.47654">
        <ele>1511.4</ele>
        <time>2021-10-08T15:06:56Z</time>
      </trkpt>
      <trkpt lat="44.86079" lon="5.47652">
        <ele>1510.8</ele>
        <time>2021-10-08T15:06:57Z</time>
      </trkpt>
      <trkpt lat="44.86083" lon="5.4765">
        <ele>1508.6</ele>
        <time>2021-10-08T15:06:58Z</time>
      </trkpt>
      <trkpt lat="44.86087" lon="5.47647">
        <ele>1508.6</ele>
        <time>2021-10-08T15:06:59Z</time>
      </trkpt>
      <trkpt lat="44.86091" lon="5.47643">
        <ele>1508.6</ele>
        <time>2021-10-08T15:07:00Z</time>
      </trkpt>
      <trkpt lat="44.86096" lon="5.47639">
        <ele>1507.6</ele>
        <time>2021-10-08T15:07:01Z</time>
      </trkpt>
      <trkpt lat="44.86101" lon="5.47634">
        <ele>1505.2</ele>
        <time>2021-10-08T15:07:02Z</time>
      </trkpt>
      <trkpt lat="44.86105" lon="5.47628">
        <ele>1505.2</ele>
        <time>2021-10-08T15:07:03Z</time>
      </trkpt>
      <trkpt lat="44.8611" lon="5.47622">
        <ele>1505.2</ele>
        <time>2021-10-08T15:07:04Z</time>
      </trkpt>
      <trkpt lat="44.86115" lon="5.47617">
        <ele>1506.2</ele>
        <time>2021-10-08T15:07:05Z</time>
      </trkpt>
      <trkpt lat="44.86119" lon="5.47612">
        <ele>1506.2</ele>
        <time>2021-10-08T15:07:06Z</time>
      </trkpt>
      <trkpt lat="44.86122" lon="5.47609">
        <ele>1506.2</ele>
        <time>2021-10-08T15:07:07Z</time>
      </trkpt>
      <trkpt lat="44.86126" lon="5.47607">
        <ele>1506.2</ele>
        <time>2021-10-08T15:07:08Z</time>
      </trkpt>
      <trkpt lat="44.8613" lon="5.47605">
        <ele>1506.2</ele>
        <time>2021-10-08T15:07:09Z</time>
      </trkpt>
      <trkpt lat="44.86133" lon="5.47604">
        <ele>1506.2</ele>
        <time>2021-10-08T15:07:10Z</time>
      </trkpt>
      <trkpt lat="44.86137" lon="5.47604">
        <ele>1506.2</ele>
        <time>2021-10-08T15:07:11Z</time>
      </trkpt>
      <trkpt lat="44.86141" lon="5.47604">
        <ele>1505.2</ele>
        <time>2021-10-08T15:07:12Z</time>
      </trkpt>
      <trkpt lat="44.86146" lon="5.47603">
        <ele>1505.2</ele>
        <time>2021-10-08T15:07:13Z</time>
      </trkpt>
      <trkpt lat="44.86151" lon="5.47604">
        <ele>1503.6</ele>
        <time>2021-10-08T15:07:14Z</time>
      </trkpt>
      <trkpt lat="44.86155" lon="5.47606">
        <ele>1503.6</ele>
        <time>2021-10-08T15:07:15Z</time>
      </trkpt>
      <trkpt lat="44.86161" lon="5.47608">
        <ele>1503.6</ele>
        <time>2021-10-08T15:07:16Z</time>
      </trkpt>
      <trkpt lat="44.86167" lon="5.47609">
        <ele>1502.6</ele>
        <time>2021-10-08T15:07:17Z</time>
      </trkpt>
      <trkpt lat="44.86173" lon="5.47609">
        <ele>1503.2</ele>
        <time>2021-10-08T15:07:18Z</time>
      </trkpt>
      <trkpt lat="44.86177" lon="5.47608">
        <ele>1503.2</ele>
        <time>2021-10-08T15:07:19Z</time>
      </trkpt>
      <trkpt lat="44.86183" lon="5.47607">
        <ele>1503.2</ele>
        <time>2021-10-08T15:07:20Z</time>
      </trkpt>
      <trkpt lat="44.86188" lon="5.47606">
        <ele>1503.2</ele>
        <time>2021-10-08T15:07:21Z</time>
      </trkpt>
      <trkpt lat="44.86192" lon="5.47603">
        <ele>1504.2</ele>
        <time>2021-10-08T15:07:22Z</time>
      </trkpt>
      <trkpt lat="44.86197" lon="5.47601">
        <ele>1504.2</ele>
        <time>2021-10-08T15:07:23Z</time>
      </trkpt>
      <trkpt lat="44.86203" lon="5.47598">
        <ele>1504.2</ele>
        <time>2021-10-08T15:07:24Z</time>
      </trkpt>
      <trkpt lat="44.86208" lon="5.47594">
        <ele>1503.2</ele>
        <time>2021-10-08T15:07:25Z</time>
      </trkpt>
      <trkpt lat="44.86213" lon="5.47591">
        <ele>1499.8</ele>
        <time>2021-10-08T15:07:26Z</time>
      </trkpt>
      <trkpt lat="44.86217" lon="5.47585">
        <ele>1499.8</ele>
        <time>2021-10-08T15:07:27Z</time>
      </trkpt>
      <trkpt lat="44.86222" lon="5.47579">
        <ele>1499.8</ele>
        <time>2021-10-08T15:07:28Z</time>
      </trkpt>
      <trkpt lat="44.86227" lon="5.47573">
        <ele>1499.8</ele>
        <time>2021-10-08T15:07:29Z</time>
      </trkpt>
      <trkpt lat="44.86231" lon="5.47567">
        <ele>1498.6</ele>
        <time>2021-10-08T15:07:30Z</time>
      </trkpt>
      <trkpt lat="44.86235" lon="5.4756">
        <ele>1498.6</ele>
        <time>2021-10-08T15:07:31Z</time>
      </trkpt>
      <trkpt lat="44.86239" lon="5.47554">
        <ele>1498.6</ele>
        <time>2021-10-08T15:07:32Z</time>
      </trkpt>
      <trkpt lat="44.86243" lon="5.47548">
        <ele>1498.6</ele>
        <time>2021-10-08T15:07:33Z</time>
      </trkpt>
      <trkpt lat="44.86247" lon="5.47542">
        <ele>1499.6</ele>
        <time>2021-10-08T15:07:34Z</time>
      </trkpt>
      <trkpt lat="44.8625" lon="5.47536">
        <ele>1499.6</ele>
        <time>2021-10-08T15:07:35Z</time>
      </trkpt>
      <trkpt lat="44.86254" lon="5.47529">
        <ele>1499.6</ele>
        <time>2021-10-08T15:07:36Z</time>
      </trkpt>
      <trkpt lat="44.86259" lon="5.47524">
        <ele>1499.6</ele>
        <time>2021-10-08T15:07:37Z</time>
      </trkpt>
      <trkpt lat="44.86263" lon="5.47518">
        <ele>1498.8</ele>
        <time>2021-10-08T15:07:38Z</time>
      </trkpt>
      <trkpt lat="44.86268" lon="5.47513">
        <ele>1498.8</ele>
        <time>2021-10-08T15:07:39Z</time>
      </trkpt>
      <trkpt lat="44.86273" lon="5.47508">
        <ele>1498.8</ele>
        <time>2021-10-08T15:07:40Z</time>
      </trkpt>
      <trkpt lat="44.86278" lon="5.47505">
        <ele>1498</ele>
        <time>2021-10-08T15:07:41Z</time>
      </trkpt>
      <trkpt lat="44.86284" lon="5.47503">
        <ele>1497.6</ele>
        <time>2021-10-08T15:07:42Z</time>
      </trkpt>
      <trkpt lat="44.86289" lon="5.47504">
        <ele>1497.6</ele>
        <time>2021-10-08T15:07:43Z</time>
      </trkpt>
      <trkpt lat="44.86295" lon="5.47506">
        <ele>1497.6</ele>
        <time>2021-10-08T15:07:44Z</time>
      </trkpt>
      <trkpt lat="44.863" lon="5.47509">
        <ele>1497.6</ele>
        <time>2021-10-08T15:07:45Z</time>
      </trkpt>
      <trkpt lat="44.86306" lon="5.47509">
        <ele>1495.6</ele>
        <time>2021-10-08T15:07:46Z</time>
      </trkpt>
      <trkpt lat="44.86312" lon="5.4751">
        <ele>1495.6</ele>
        <time>2021-10-08T15:07:47Z</time>
      </trkpt>
      <trkpt lat="44.86319" lon="5.47512">
        <ele>1495.6</ele>
        <time>2021-10-08T15:07:48Z</time>
      </trkpt>
      <trkpt lat="44.86325" lon="5.47514">
        <ele>1495.6</ele>
        <time>2021-10-08T15:07:49Z</time>
      </trkpt>
      <trkpt lat="44.8633" lon="5.47516">
        <ele>1498.4</ele>
        <time>2021-10-08T15:07:50Z</time>
      </trkpt>
      <trkpt lat="44.86334" lon="5.47518">
        <ele>1498.4</ele>
        <time>2021-10-08T15:07:51Z</time>
      </trkpt>
      <trkpt lat="44.86339" lon="5.47519">
        <ele>1498.4</ele>
        <time>2021-10-08T15:07:52Z</time>
      </trkpt>
      <trkpt lat="44.86343" lon="5.47522">
        <ele>1498.4</ele>
        <time>2021-10-08T15:07:53Z</time>
      </trkpt>
      <trkpt lat="44.86348" lon="5.47524">
        <ele>1497.2</ele>
        <time>2021-10-08T15:07:54Z</time>
      </trkpt>
      <trkpt lat="44.86353" lon="5.47527">
        <ele>1497.2</ele>
        <time>2021-10-08T15:07:55Z</time>
      </trkpt>
      <trkpt lat="44.86357" lon="5.47529">
        <ele>1497.2</ele>
        <time>2021-10-08T15:07:56Z</time>
      </trkpt>
      <trkpt lat="44.86361" lon="5.47531">
        <ele>1497.2</ele>
        <time>2021-10-08T15:07:57Z</time>
      </trkpt>
      <trkpt lat="44.86365" lon="5.47533">
        <ele>1497.2</ele>
        <time>2021-10-08T15:07:58Z</time>
      </trkpt>
      <trkpt lat="44.86369" lon="5.47537">
        <ele>1497</ele>
        <time>2021-10-08T15:07:59Z</time>
      </trkpt>
      <trkpt lat="44.86374" lon="5.47543">
        <ele>1497</ele>
        <time>2021-10-08T15:08:00Z</time>
      </trkpt>
      <trkpt lat="44.86378" lon="5.47549">
        <ele>1496</ele>
        <time>2021-10-08T15:08:01Z</time>
      </trkpt>
      <trkpt lat="44.86383" lon="5.47554">
        <ele>1493.4</ele>
        <time>2021-10-08T15:08:02Z</time>
      </trkpt>
      <trkpt lat="44.86387" lon="5.4756">
        <ele>1493.4</ele>
        <time>2021-10-08T15:08:03Z</time>
      </trkpt>
      <trkpt lat="44.86392" lon="5.47565">
        <ele>1493.4</ele>
        <time>2021-10-08T15:08:04Z</time>
      </trkpt>
      <trkpt lat="44.86397" lon="5.4757">
        <ele>1494.4</ele>
        <time>2021-10-08T15:08:05Z</time>
      </trkpt>
      <trkpt lat="44.86401" lon="5.47574">
        <ele>1495.2</ele>
        <time>2021-10-08T15:08:06Z</time>
      </trkpt>
      <trkpt lat="44.86406" lon="5.47576">
        <ele>1495.2</ele>
        <time>2021-10-08T15:08:07Z</time>
      </trkpt>
      <trkpt lat="44.86411" lon="5.47578">
        <ele>1495.2</ele>
        <time>2021-10-08T15:08:08Z</time>
      </trkpt>
      <trkpt lat="44.86415" lon="5.47579">
        <ele>1495.4</ele>
        <time>2021-10-08T15:08:09Z</time>
      </trkpt>
      <trkpt lat="44.86419" lon="5.47581">
        <ele>1495.4</ele>
        <time>2021-10-08T15:08:10Z</time>
      </trkpt>
      <trkpt lat="44.86424" lon="5.47581">
        <ele>1495.4</ele>
        <time>2021-10-08T15:08:11Z</time>
      </trkpt>
      <trkpt lat="44.86429" lon="5.4758">
        <ele>1495.4</ele>
        <time>2021-10-08T15:08:12Z</time>
      </trkpt>
      <trkpt lat="44.86434" lon="5.47577">
        <ele>1495.4</ele>
        <time>2021-10-08T15:08:13Z</time>
      </trkpt>
      <trkpt lat="44.86439" lon="5.47576">
        <ele>1494.6</ele>
        <time>2021-10-08T15:08:14Z</time>
      </trkpt>
      <trkpt lat="44.86444" lon="5.47575">
        <ele>1494.6</ele>
        <time>2021-10-08T15:08:15Z</time>
      </trkpt>
      <trkpt lat="44.86449" lon="5.47573">
        <ele>1494.6</ele>
        <time>2021-10-08T15:08:16Z</time>
      </trkpt>
      <trkpt lat="44.86453" lon="5.47572">
        <ele>1494.6</ele>
        <time>2021-10-08T15:08:17Z</time>
      </trkpt>
      <trkpt lat="44.86458" lon="5.47573">
        <ele>1494.6</ele>
        <time>2021-10-08T15:08:18Z</time>
      </trkpt>
      <trkpt lat="44.86461" lon="5.47574">
        <ele>1494.6</ele>
        <time>2021-10-08T15:08:19Z</time>
      </trkpt>
      <trkpt lat="44.86465" lon="5.47576">
        <ele>1494.6</ele>
        <time>2021-10-08T15:08:20Z</time>
      </trkpt>
      <trkpt lat="44.86468" lon="5.47579">
        <ele>1495.6</ele>
        <time>2021-10-08T15:08:21Z</time>
      </trkpt>
      <trkpt lat="44.8647" lon="5.47581">
        <ele>1495.8</ele>
        <time>2021-10-08T15:08:22Z</time>
      </trkpt>
      <trkpt lat="44.86473" lon="5.47583">
        <ele>1495.8</ele>
        <time>2021-10-08T15:08:23Z</time>
      </trkpt>
      <trkpt lat="44.86477" lon="5.47585">
        <ele>1495.8</ele>
        <time>2021-10-08T15:08:24Z</time>
      </trkpt>
      <trkpt lat="44.8648" lon="5.47586">
        <ele>1495.8</ele>
        <time>2021-10-08T15:08:25Z</time>
      </trkpt>
      <trkpt lat="44.86484" lon="5.47586">
        <ele>1493.6</ele>
        <time>2021-10-08T15:08:26Z</time>
      </trkpt>
      <trkpt lat="44.86488" lon="5.47586">
        <ele>1493.6</ele>
        <time>2021-10-08T15:08:27Z</time>
      </trkpt>
      <trkpt lat="44.86492" lon="5.47586">
        <ele>1493.6</ele>
        <time>2021-10-08T15:08:28Z</time>
      </trkpt>
      <trkpt lat="44.86496" lon="5.47586">
        <ele>1494</ele>
        <time>2021-10-08T15:08:29Z</time>
      </trkpt>
      <trkpt lat="44.865" lon="5.47585">
        <ele>1494.4</ele>
        <time>2021-10-08T15:08:30Z</time>
      </trkpt>
      <trkpt lat="44.86503" lon="5.47584">
        <ele>1494.4</ele>
        <time>2021-10-08T15:08:31Z</time>
      </trkpt>
      <trkpt lat="44.86507" lon="5.47583">
        <ele>1494.4</ele>
        <time>2021-10-08T15:08:32Z</time>
      </trkpt>
      <trkpt lat="44.8651" lon="5.47582">
        <ele>1495</ele>
        <time>2021-10-08T15:08:33Z</time>
      </trkpt>
      <trkpt lat="44.86514" lon="5.47581">
        <ele>1492.8</ele>
        <time>2021-10-08T15:08:34Z</time>
      </trkpt>
      <trkpt lat="44.86518" lon="5.47578">
        <ele>1492.8</ele>
        <time>2021-10-08T15:08:35Z</time>
      </trkpt>
      <trkpt lat="44.86522" lon="5.47575">
        <ele>1492.8</ele>
        <time>2021-10-08T15:08:36Z</time>
      </trkpt>
      <trkpt lat="44.86527" lon="5.47572">
        <ele>1492.8</ele>
        <time>2021-10-08T15:08:37Z</time>
      </trkpt>
      <trkpt lat="44.86532" lon="5.47568">
        <ele>1491.2</ele>
        <time>2021-10-08T15:08:38Z</time>
      </trkpt>
      <trkpt lat="44.86537" lon="5.47565">
        <ele>1491.2</ele>
        <time>2021-10-08T15:08:39Z</time>
      </trkpt>
      <trkpt lat="44.86542" lon="5.47561">
        <ele>1491.2</ele>
        <time>2021-10-08T15:08:40Z</time>
      </trkpt>
      <trkpt lat="44.86546" lon="5.47557">
        <ele>1491.4</ele>
        <time>2021-10-08T15:08:41Z</time>
      </trkpt>
      <trkpt lat="44.86551" lon="5.47553">
        <ele>1491.4</ele>
        <time>2021-10-08T15:08:42Z</time>
      </trkpt>
      <trkpt lat="44.86555" lon="5.47549">
        <ele>1491.4</ele>
        <time>2021-10-08T15:08:43Z</time>
      </trkpt>
      <trkpt lat="44.8656" lon="5.47544">
        <ele>1491.8</ele>
        <time>2021-10-08T15:08:44Z</time>
      </trkpt>
      <trkpt lat="44.86564" lon="5.4754">
        <ele>1491.8</ele>
        <time>2021-10-08T15:08:45Z</time>
      </trkpt>
      <trkpt lat="44.86567" lon="5.47535">
        <ele>1490.2</ele>
        <time>2021-10-08T15:08:46Z</time>
      </trkpt>
      <trkpt lat="44.86571" lon="5.47531">
        <ele>1490.2</ele>
        <time>2021-10-08T15:08:47Z</time>
      </trkpt>
      <trkpt lat="44.86576" lon="5.47526">
        <ele>1490.2</ele>
        <time>2021-10-08T15:08:48Z</time>
      </trkpt>
      <trkpt lat="44.8658" lon="5.47522">
        <ele>1490.2</ele>
        <time>2021-10-08T15:08:49Z</time>
      </trkpt>
      <trkpt lat="44.86585" lon="5.47519">
        <ele>1489.8</ele>
        <time>2021-10-08T15:08:50Z</time>
      </trkpt>
      <trkpt lat="44.8659" lon="5.47515">
        <ele>1489.8</ele>
        <time>2021-10-08T15:08:51Z</time>
      </trkpt>
      <trkpt lat="44.86595" lon="5.47513">
        <ele>1489.8</ele>
        <time>2021-10-08T15:08:52Z</time>
      </trkpt>
      <trkpt lat="44.866" lon="5.4751">
        <ele>1490.6</ele>
        <time>2021-10-08T15:08:53Z</time>
      </trkpt>
      <trkpt lat="44.86605" lon="5.47509">
        <ele>1491.4</ele>
        <time>2021-10-08T15:08:54Z</time>
      </trkpt>
      <trkpt lat="44.86609" lon="5.47508">
        <ele>1491.4</ele>
        <time>2021-10-08T15:08:55Z</time>
      </trkpt>
      <trkpt lat="44.86613" lon="5.47508">
        <ele>1491.4</ele>
        <time>2021-10-08T15:08:56Z</time>
      </trkpt>
      <trkpt lat="44.86617" lon="5.47508">
        <ele>1492.4</ele>
        <time>2021-10-08T15:08:57Z</time>
      </trkpt>
      <trkpt lat="44.8662" lon="5.47508">
        <ele>1493.2</ele>
        <time>2021-10-08T15:08:58Z</time>
      </trkpt>
      <trkpt lat="44.86623" lon="5.47508">
        <ele>1493.2</ele>
        <time>2021-10-08T15:08:59Z</time>
      </trkpt>
      <trkpt lat="44.86626" lon="5.47508">
        <ele>1493.2</ele>
        <time>2021-10-08T15:09:00Z</time>
      </trkpt>
      <trkpt lat="44.8663" lon="5.47508">
        <ele>1493.2</ele>
        <time>2021-10-08T15:09:01Z</time>
      </trkpt>
      <trkpt lat="44.86633" lon="5.47509">
        <ele>1493.2</ele>
        <time>2021-10-08T15:09:02Z</time>
      </trkpt>
      <trkpt lat="44.86637" lon="5.4751">
        <ele>1493.2</ele>
        <time>2021-10-08T15:09:03Z</time>
      </trkpt>
      <trkpt lat="44.86641" lon="5.47511">
        <ele>1493.2</ele>
        <time>2021-10-08T15:09:04Z</time>
      </trkpt>
      <trkpt lat="44.86645" lon="5.47512">
        <ele>1493.2</ele>
        <time>2021-10-08T15:09:05Z</time>
      </trkpt>
      <trkpt lat="44.86648" lon="5.47514">
        <ele>1493.4</ele>
        <time>2021-10-08T15:09:06Z</time>
      </trkpt>
      <trkpt lat="44.86652" lon="5.47515">
        <ele>1493.4</ele>
        <time>2021-10-08T15:09:07Z</time>
      </trkpt>
      <trkpt lat="44.86656" lon="5.47516">
        <ele>1493.4</ele>
        <time>2021-10-08T15:09:08Z</time>
      </trkpt>
      <trkpt lat="44.8666" lon="5.47518">
        <ele>1494</ele>
        <time>2021-10-08T15:09:09Z</time>
      </trkpt>
      <trkpt lat="44.86663" lon="5.4752">
        <ele>1494.6</ele>
        <time>2021-10-08T15:09:10Z</time>
      </trkpt>
      <trkpt lat="44.86667" lon="5.47522">
        <ele>1494.6</ele>
        <time>2021-10-08T15:09:11Z</time>
      </trkpt>
      <trkpt lat="44.8667" lon="5.47524">
        <ele>1494.6</ele>
        <time>2021-10-08T15:09:12Z</time>
      </trkpt>
      <trkpt lat="44.86673" lon="5.47527">
        <ele>1494.6</ele>
        <time>2021-10-08T15:09:13Z</time>
      </trkpt>
      <trkpt lat="44.86677" lon="5.4753">
        <ele>1495</ele>
        <time>2021-10-08T15:09:14Z</time>
      </trkpt>
      <trkpt lat="44.8668" lon="5.47533">
        <ele>1495</ele>
        <time>2021-10-08T15:09:15Z</time>
      </trkpt>
      <trkpt lat="44.86683" lon="5.47535">
        <ele>1495</ele>
        <time>2021-10-08T15:09:16Z</time>
      </trkpt>
      <trkpt lat="44.86687" lon="5.47537">
        <ele>1495</ele>
        <time>2021-10-08T15:09:17Z</time>
      </trkpt>
      <trkpt lat="44.86689" lon="5.47539">
        <ele>1495.6</ele>
        <time>2021-10-08T15:09:18Z</time>
      </trkpt>
      <trkpt lat="44.86693" lon="5.47541">
        <ele>1495.6</ele>
        <time>2021-10-08T15:09:19Z</time>
      </trkpt>
      <trkpt lat="44.86696" lon="5.47543">
        <ele>1495.6</ele>
        <time>2021-10-08T15:09:20Z</time>
      </trkpt>
      <trkpt lat="44.86699" lon="5.47545">
        <ele>1495.6</ele>
        <time>2021-10-08T15:09:21Z</time>
      </trkpt>
      <trkpt lat="44.86701" lon="5.47547">
        <ele>1496</ele>
        <time>2021-10-08T15:09:22Z</time>
      </trkpt>
      <trkpt lat="44.86704" lon="5.47549">
        <ele>1496</ele>
        <time>2021-10-08T15:09:23Z</time>
      </trkpt>
      <trkpt lat="44.86707" lon="5.47551">
        <ele>1496</ele>
        <time>2021-10-08T15:09:24Z</time>
      </trkpt>
      <trkpt lat="44.8671" lon="5.47552">
        <ele>1496</ele>
        <time>2021-10-08T15:09:25Z</time>
      </trkpt>
      <trkpt lat="44.86713" lon="5.47554">
        <ele>1496</ele>
        <time>2021-10-08T15:09:26Z</time>
      </trkpt>
      <trkpt lat="44.86716" lon="5.47555">
        <ele>1496</ele>
        <time>2021-10-08T15:09:27Z</time>
      </trkpt>
      <trkpt lat="44.86719" lon="5.47556">
        <ele>1496</ele>
        <time>2021-10-08T15:09:28Z</time>
      </trkpt>
      <trkpt lat="44.86723" lon="5.47556">
        <ele>1496</ele>
        <time>2021-10-08T15:09:29Z</time>
      </trkpt>
      <trkpt lat="44.86727" lon="5.47557">
        <ele>1496</ele>
        <time>2021-10-08T15:09:30Z</time>
      </trkpt>
      <trkpt lat="44.86729" lon="5.47556">
        <ele>1495.2</ele>
        <time>2021-10-08T15:09:31Z</time>
      </trkpt>
      <trkpt lat="44.86731" lon="5.47555">
        <ele>1495.2</ele>
        <time>2021-10-08T15:09:32Z</time>
      </trkpt>
      <trkpt lat="44.86732" lon="5.47555">
        <ele>1495.6</ele>
        <time>2021-10-08T15:09:33Z</time>
      </trkpt>
      <trkpt lat="44.86732" lon="5.47555">
        <ele>1495.8</ele>
        <time>2021-10-08T15:09:34Z</time>
      </trkpt>
      <trkpt lat="44.86725" lon="5.47544">
        <ele>1494</ele>
        <time>2021-10-08T15:09:49Z</time>
      </trkpt>
      <trkpt lat="44.86725" lon="5.47542">
        <ele>1493.4</ele>
        <time>2021-10-08T15:09:50Z</time>
      </trkpt>
      <trkpt lat="44.86724" lon="5.47541">
        <ele>1493.4</ele>
        <time>2021-10-08T15:09:51Z</time>
      </trkpt>
      <trkpt lat="44.86724" lon="5.4754">
        <ele>1493.4</ele>
        <time>2021-10-08T15:09:52Z</time>
      </trkpt>
      <trkpt lat="44.86724" lon="5.47538">
        <ele>1493.4</ele>
        <time>2021-10-08T15:09:53Z</time>
      </trkpt>
      <trkpt lat="44.86724" lon="5.47537">
        <ele>1493.6</ele>
        <time>2021-10-08T15:09:54Z</time>
      </trkpt>
      <trkpt lat="44.86724" lon="5.47535">
        <ele>1493.6</ele>
        <time>2021-10-08T15:09:55Z</time>
      </trkpt>
      <trkpt lat="44.86723" lon="5.47534">
        <ele>1493.6</ele>
        <time>2021-10-08T15:09:56Z</time>
      </trkpt>
      <trkpt lat="44.86723" lon="5.47533">
        <ele>1493.6</ele>
        <time>2021-10-08T15:09:57Z</time>
      </trkpt>
      <trkpt lat="44.86722" lon="5.47533">
        <ele>1493.4</ele>
        <time>2021-10-08T15:09:58Z</time>
      </trkpt>
      <trkpt lat="44.86722" lon="5.47534">
        <ele>1493.4</ele>
        <time>2021-10-08T15:09:59Z</time>
      </trkpt>
      <trkpt lat="44.8673" lon="5.47556">
        <ele>1495.2</ele>
        <time>2021-10-08T15:15:21Z</time>
      </trkpt>
      <trkpt lat="44.86732" lon="5.47555">
        <ele>1495.2</ele>
        <time>2021-10-08T15:15:22Z</time>
      </trkpt>
      <trkpt lat="44.86734" lon="5.47554">
        <ele>1495.2</ele>
        <time>2021-10-08T15:15:23Z</time>
      </trkpt>
      <trkpt lat="44.86736" lon="5.47553">
        <ele>1495.2</ele>
        <time>2021-10-08T15:15:24Z</time>
      </trkpt>
      <trkpt lat="44.86739" lon="5.47552">
        <ele>1495.2</ele>
        <time>2021-10-08T15:15:25Z</time>
      </trkpt>
      <trkpt lat="44.86741" lon="5.4755">
        <ele>1495.2</ele>
        <time>2021-10-08T15:15:26Z</time>
      </trkpt>
      <trkpt lat="44.86743" lon="5.47548">
        <ele>1495.2</ele>
        <time>2021-10-08T15:15:27Z</time>
      </trkpt>
      <trkpt lat="44.86745" lon="5.47546">
        <ele>1495.2</ele>
        <time>2021-10-08T15:15:28Z</time>
      </trkpt>
      <trkpt lat="44.86747" lon="5.47544">
        <ele>1494.4</ele>
        <time>2021-10-08T15:15:29Z</time>
      </trkpt>
      <trkpt lat="44.86748" lon="5.47542">
        <ele>1495.2</ele>
        <time>2021-10-08T15:15:30Z</time>
      </trkpt>
      <trkpt lat="44.8675" lon="5.4754">
        <ele>1495.2</ele>
        <time>2021-10-08T15:15:31Z</time>
      </trkpt>
      <trkpt lat="44.86752" lon="5.47538">
        <ele>1495.2</ele>
        <time>2021-10-08T15:15:32Z</time>
      </trkpt>
      <trkpt lat="44.86754" lon="5.47536">
        <ele>1495.2</ele>
        <time>2021-10-08T15:15:33Z</time>
      </trkpt>
      <trkpt lat="44.86756" lon="5.47534">
        <ele>1495</ele>
        <time>2021-10-08T15:15:34Z</time>
      </trkpt>
      <trkpt lat="44.86758" lon="5.47532">
        <ele>1495</ele>
        <time>2021-10-08T15:15:35Z</time>
      </trkpt>
      <trkpt lat="44.86761" lon="5.47529">
        <ele>1495</ele>
        <time>2021-10-08T15:15:36Z</time>
      </trkpt>
      <trkpt lat="44.86763" lon="5.47526">
        <ele>1494</ele>
        <time>2021-10-08T15:15:37Z</time>
      </trkpt>
      <trkpt lat="44.86766" lon="5.47522">
        <ele>1493.6</ele>
        <time>2021-10-08T15:15:38Z</time>
      </trkpt>
      <trkpt lat="44.86768" lon="5.47519">
        <ele>1493.6</ele>
        <time>2021-10-08T15:15:39Z</time>
      </trkpt>
      <trkpt lat="44.86771" lon="5.47515">
        <ele>1493.6</ele>
        <time>2021-10-08T15:15:40Z</time>
      </trkpt>
      <trkpt lat="44.86774" lon="5.4751">
        <ele>1492.8</ele>
        <time>2021-10-08T15:15:41Z</time>
      </trkpt>
      <trkpt lat="44.86777" lon="5.47506">
        <ele>1493.2</ele>
        <time>2021-10-08T15:15:42Z</time>
      </trkpt>
      <trkpt lat="44.8678" lon="5.47502">
        <ele>1493.2</ele>
        <time>2021-10-08T15:15:43Z</time>
      </trkpt>
      <trkpt lat="44.86783" lon="5.47498">
        <ele>1493.2</ele>
        <time>2021-10-08T15:15:44Z</time>
      </trkpt>
      <trkpt lat="44.86786" lon="5.47494">
        <ele>1492.2</ele>
        <time>2021-10-08T15:15:45Z</time>
      </trkpt>
      <trkpt lat="44.8679" lon="5.4749">
        <ele>1490.4</ele>
        <time>2021-10-08T15:15:46Z</time>
      </trkpt>
      <trkpt lat="44.86793" lon="5.47485">
        <ele>1490.4</ele>
        <time>2021-10-08T15:15:47Z</time>
      </trkpt>
      <trkpt lat="44.86796" lon="5.4748">
        <ele>1490.4</ele>
        <time>2021-10-08T15:15:48Z</time>
      </trkpt>
      <trkpt lat="44.868" lon="5.47475">
        <ele>1490.4</ele>
        <time>2021-10-08T15:15:49Z</time>
      </trkpt>
      <trkpt lat="44.86804" lon="5.4747">
        <ele>1489.4</ele>
        <time>2021-10-08T15:15:50Z</time>
      </trkpt>
      <trkpt lat="44.86808" lon="5.47465">
        <ele>1489.4</ele>
        <time>2021-10-08T15:15:51Z</time>
      </trkpt>
      <trkpt lat="44.86813" lon="5.4746">
        <ele>1489.4</ele>
        <time>2021-10-08T15:15:52Z</time>
      </trkpt>
      <trkpt lat="44.86818" lon="5.47456">
        <ele>1488.4</ele>
        <time>2021-10-08T15:15:53Z</time>
      </trkpt>
      <trkpt lat="44.86823" lon="5.47451">
        <ele>1487.8</ele>
        <time>2021-10-08T15:15:54Z</time>
      </trkpt>
      <trkpt lat="44.86828" lon="5.47447">
        <ele>1487.8</ele>
        <time>2021-10-08T15:15:55Z</time>
      </trkpt>
      <trkpt lat="44.86832" lon="5.47443">
        <ele>1487.8</ele>
        <time>2021-10-08T15:15:56Z</time>
      </trkpt>
      <trkpt lat="44.86836" lon="5.47439">
        <ele>1488.6</ele>
        <time>2021-10-08T15:15:57Z</time>
      </trkpt>
      <trkpt lat="44.8684" lon="5.47435">
        <ele>1487.6</ele>
        <time>2021-10-08T15:15:58Z</time>
      </trkpt>
      <trkpt lat="44.86844" lon="5.4743">
        <ele>1487.6</ele>
        <time>2021-10-08T15:15:59Z</time>
      </trkpt>
      <trkpt lat="44.86848" lon="5.47426">
        <ele>1487.6</ele>
        <time>2021-10-08T15:16:00Z</time>
      </trkpt>
      <trkpt lat="44.86852" lon="5.47421">
        <ele>1487.6</ele>
        <time>2021-10-08T15:16:01Z</time>
      </trkpt>
      <trkpt lat="44.86855" lon="5.47417">
        <ele>1488.6</ele>
        <time>2021-10-08T15:16:02Z</time>
      </trkpt>
      <trkpt lat="44.86858" lon="5.47412">
        <ele>1488.6</ele>
        <time>2021-10-08T15:16:03Z</time>
      </trkpt>
      <trkpt lat="44.86861" lon="5.47407">
        <ele>1488.6</ele>
        <time>2021-10-08T15:16:04Z</time>
      </trkpt>
      <trkpt lat="44.86864" lon="5.47403">
        <ele>1488.6</ele>
        <time>2021-10-08T15:16:05Z</time>
      </trkpt>
      <trkpt lat="44.86867" lon="5.47399">
        <ele>1488.4</ele>
        <time>2021-10-08T15:16:06Z</time>
      </trkpt>
      <trkpt lat="44.86869" lon="5.47395">
        <ele>1488.4</ele>
        <time>2021-10-08T15:16:07Z</time>
      </trkpt>
      <trkpt lat="44.86872" lon="5.4739">
        <ele>1488.4</ele>
        <time>2021-10-08T15:16:08Z</time>
      </trkpt>
      <trkpt lat="44.86875" lon="5.47386">
        <ele>1488.4</ele>
        <time>2021-10-08T15:16:09Z</time>
      </trkpt>
      <trkpt lat="44.86879" lon="5.47383">
        <ele>1487.4</ele>
        <time>2021-10-08T15:16:10Z</time>
      </trkpt>
      <trkpt lat="44.86883" lon="5.47379">
        <ele>1487.4</ele>
        <time>2021-10-08T15:16:11Z</time>
      </trkpt>
      <trkpt lat="44.86886" lon="5.47374">
        <ele>1487.4</ele>
        <time>2021-10-08T15:16:12Z</time>
      </trkpt>
      <trkpt lat="44.86889" lon="5.47369">
        <ele>1487.4</ele>
        <time>2021-10-08T15:16:13Z</time>
      </trkpt>
      <trkpt lat="44.86891" lon="5.47365">
        <ele>1487.6</ele>
        <time>2021-10-08T15:16:14Z</time>
      </trkpt>
      <trkpt lat="44.86894" lon="5.47361">
        <ele>1487.6</ele>
        <time>2021-10-08T15:16:15Z</time>
      </trkpt>
      <trkpt lat="44.86897" lon="5.47358">
        <ele>1487.6</ele>
        <time>2021-10-08T15:16:16Z</time>
      </trkpt>
      <trkpt lat="44.869" lon="5.47354">
        <ele>1486.6</ele>
        <time>2021-10-08T15:16:17Z</time>
      </trkpt>
      <trkpt lat="44.86903" lon="5.4735">
        <ele>1485</ele>
        <time>2021-10-08T15:16:18Z</time>
      </trkpt>
      <trkpt lat="44.86906" lon="5.47346">
        <ele>1485</ele>
        <time>2021-10-08T15:16:19Z</time>
      </trkpt>
      <trkpt lat="44.8691" lon="5.47341">
        <ele>1485</ele>
        <time>2021-10-08T15:16:20Z</time>
      </trkpt>
      <trkpt lat="44.86913" lon="5.47337">
        <ele>1485</ele>
        <time>2021-10-08T15:16:21Z</time>
      </trkpt>
      <trkpt lat="44.86916" lon="5.47333">
        <ele>1485.4</ele>
        <time>2021-10-08T15:16:22Z</time>
      </trkpt>
      <trkpt lat="44.86919" lon="5.47328">
        <ele>1485.4</ele>
        <time>2021-10-08T15:16:23Z</time>
      </trkpt>
      <trkpt lat="44.86921" lon="5.47322">
        <ele>1485.4</ele>
        <time>2021-10-08T15:16:24Z</time>
      </trkpt>
      <trkpt lat="44.86924" lon="5.47317">
        <ele>1484.4</ele>
        <time>2021-10-08T15:16:25Z</time>
      </trkpt>
      <trkpt lat="44.86927" lon="5.47311">
        <ele>1484.2</ele>
        <time>2021-10-08T15:16:26Z</time>
      </trkpt>
      <trkpt lat="44.86929" lon="5.47305">
        <ele>1484.2</ele>
        <time>2021-10-08T15:16:27Z</time>
      </trkpt>
      <trkpt lat="44.86932" lon="5.473">
        <ele>1484.2</ele>
        <time>2021-10-08T15:16:28Z</time>
      </trkpt>
      <trkpt lat="44.86935" lon="5.47295">
        <ele>1484.2</ele>
        <time>2021-10-08T15:16:29Z</time>
      </trkpt>
      <trkpt lat="44.86939" lon="5.47289">
        <ele>1483.8</ele>
        <time>2021-10-08T15:16:30Z</time>
      </trkpt>
      <trkpt lat="44.86942" lon="5.47284">
        <ele>1483.8</ele>
        <time>2021-10-08T15:16:31Z</time>
      </trkpt>
      <trkpt lat="44.86945" lon="5.47278">
        <ele>1483.8</ele>
        <time>2021-10-08T15:16:32Z</time>
      </trkpt>
      <trkpt lat="44.86949" lon="5.47271">
        <ele>1482.8</ele>
        <time>2021-10-08T15:16:33Z</time>
      </trkpt>
      <trkpt lat="44.86951" lon="5.47265">
        <ele>1481.2</ele>
        <time>2021-10-08T15:16:34Z</time>
      </trkpt>
      <trkpt lat="44.86954" lon="5.47258">
        <ele>1481.2</ele>
        <time>2021-10-08T15:16:35Z</time>
      </trkpt>
      <trkpt lat="44.86957" lon="5.47253">
        <ele>1481.2</ele>
        <time>2021-10-08T15:16:36Z</time>
      </trkpt>
      <trkpt lat="44.86961" lon="5.47248">
        <ele>1481.2</ele>
        <time>2021-10-08T15:16:37Z</time>
      </trkpt>
      <trkpt lat="44.86966" lon="5.47245">
        <ele>1481.4</ele>
        <time>2021-10-08T15:16:38Z</time>
      </trkpt>
      <trkpt lat="44.8697" lon="5.47242">
        <ele>1481.4</ele>
        <time>2021-10-08T15:16:39Z</time>
      </trkpt>
      <trkpt lat="44.86975" lon="5.47242">
        <ele>1481.4</ele>
        <time>2021-10-08T15:16:40Z</time>
      </trkpt>
      <trkpt lat="44.8698" lon="5.47241">
        <ele>1481.4</ele>
        <time>2021-10-08T15:16:41Z</time>
      </trkpt>
      <trkpt lat="44.86984" lon="5.47241">
        <ele>1482</ele>
        <time>2021-10-08T15:16:42Z</time>
      </trkpt>
      <trkpt lat="44.86987" lon="5.47242">
        <ele>1482</ele>
        <time>2021-10-08T15:16:43Z</time>
      </trkpt>
      <trkpt lat="44.86991" lon="5.47241">
        <ele>1482</ele>
        <time>2021-10-08T15:16:44Z</time>
      </trkpt>
      <trkpt lat="44.86995" lon="5.4724">
        <ele>1481</ele>
        <time>2021-10-08T15:16:45Z</time>
      </trkpt>
      <trkpt lat="44.86999" lon="5.47237">
        <ele>1481.8</ele>
        <time>2021-10-08T15:16:46Z</time>
      </trkpt>
      <trkpt lat="44.87002" lon="5.47234">
        <ele>1481.8</ele>
        <time>2021-10-08T15:16:47Z</time>
      </trkpt>
      <trkpt lat="44.87006" lon="5.47229">
        <ele>1481.8</ele>
        <time>2021-10-08T15:16:48Z</time>
      </trkpt>
      <trkpt lat="44.87009" lon="5.47225">
        <ele>1480.8</ele>
        <time>2021-10-08T15:16:49Z</time>
      </trkpt>
      <trkpt lat="44.87012" lon="5.4722">
        <ele>1478.8</ele>
        <time>2021-10-08T15:16:50Z</time>
      </trkpt>
      <trkpt lat="44.87016" lon="5.47215">
        <ele>1478.8</ele>
        <time>2021-10-08T15:16:51Z</time>
      </trkpt>
      <trkpt lat="44.87019" lon="5.4721">
        <ele>1478.8</ele>
        <time>2021-10-08T15:16:52Z</time>
      </trkpt>
      <trkpt lat="44.87023" lon="5.47206">
        <ele>1478.8</ele>
        <time>2021-10-08T15:16:53Z</time>
      </trkpt>
      <trkpt lat="44.87027" lon="5.47201">
        <ele>1479</ele>
        <time>2021-10-08T15:16:54Z</time>
      </trkpt>
      <trkpt lat="44.87031" lon="5.47196">
        <ele>1479</ele>
        <time>2021-10-08T15:16:55Z</time>
      </trkpt>
      <trkpt lat="44.87036" lon="5.4719">
        <ele>1479</ele>
        <time>2021-10-08T15:16:56Z</time>
      </trkpt>
      <trkpt lat="44.8704" lon="5.47184">
        <ele>1478</ele>
        <time>2021-10-08T15:16:57Z</time>
      </trkpt>
      <trkpt lat="44.87045" lon="5.47179">
        <ele>1478</ele>
        <time>2021-10-08T15:16:58Z</time>
      </trkpt>
      <trkpt lat="44.8705" lon="5.47174">
        <ele>1474.4</ele>
        <time>2021-10-08T15:16:59Z</time>
      </trkpt>
      <trkpt lat="44.87056" lon="5.47169">
        <ele>1474.4</ele>
        <time>2021-10-08T15:17:00Z</time>
      </trkpt>
      <trkpt lat="44.87061" lon="5.47164">
        <ele>1473.4</ele>
        <time>2021-10-08T15:17:01Z</time>
      </trkpt>
      <trkpt lat="44.87066" lon="5.47159">
        <ele>1472.2</ele>
        <time>2021-10-08T15:17:02Z</time>
      </trkpt>
      <trkpt lat="44.87072" lon="5.47154">
        <ele>1472.2</ele>
        <time>2021-10-08T15:17:03Z</time>
      </trkpt>
      <trkpt lat="44.87077" lon="5.47149">
        <ele>1472.2</ele>
        <time>2021-10-08T15:17:04Z</time>
      </trkpt>
      <trkpt lat="44.87082" lon="5.47144">
        <ele>1472.2</ele>
        <time>2021-10-08T15:17:05Z</time>
      </trkpt>
      <trkpt lat="44.87087" lon="5.4714">
        <ele>1472.4</ele>
        <time>2021-10-08T15:17:06Z</time>
      </trkpt>
      <trkpt lat="44.87092" lon="5.47135">
        <ele>1472.4</ele>
        <time>2021-10-08T15:17:07Z</time>
      </trkpt>
      <trkpt lat="44.87097" lon="5.47131">
        <ele>1472.4</ele>
        <time>2021-10-08T15:17:08Z</time>
      </trkpt>
      <trkpt lat="44.87101" lon="5.47127">
        <ele>1471.6</ele>
        <time>2021-10-08T15:17:09Z</time>
      </trkpt>
      <trkpt lat="44.87104" lon="5.47122">
        <ele>1473.8</ele>
        <time>2021-10-08T15:17:10Z</time>
      </trkpt>
      <trkpt lat="44.87108" lon="5.47118">
        <ele>1473.8</ele>
        <time>2021-10-08T15:17:11Z</time>
      </trkpt>
      <trkpt lat="44.87111" lon="5.47113">
        <ele>1473.8</ele>
        <time>2021-10-08T15:17:12Z</time>
      </trkpt>
      <trkpt lat="44.87114" lon="5.47107">
        <ele>1473.6</ele>
        <time>2021-10-08T15:17:13Z</time>
      </trkpt>
      <trkpt lat="44.87116" lon="5.47102">
        <ele>1473.6</ele>
        <time>2021-10-08T15:17:14Z</time>
      </trkpt>
      <trkpt lat="44.87118" lon="5.47097">
        <ele>1473.6</ele>
        <time>2021-10-08T15:17:15Z</time>
      </trkpt>
      <trkpt lat="44.8712" lon="5.47092">
        <ele>1473.6</ele>
        <time>2021-10-08T15:17:16Z</time>
      </trkpt>
      <trkpt lat="44.87122" lon="5.47086">
        <ele>1473.6</ele>
        <time>2021-10-08T15:17:17Z</time>
      </trkpt>
      <trkpt lat="44.87124" lon="5.4708">
        <ele>1472.2</ele>
        <time>2021-10-08T15:17:18Z</time>
      </trkpt>
      <trkpt lat="44.87126" lon="5.47074">
        <ele>1472.2</ele>
        <time>2021-10-08T15:17:19Z</time>
      </trkpt>
      <trkpt lat="44.87127" lon="5.47068">
        <ele>1472.2</ele>
        <time>2021-10-08T15:17:20Z</time>
      </trkpt>
      <trkpt lat="44.87129" lon="5.47061">
        <ele>1472.2</ele>
        <time>2021-10-08T15:17:21Z</time>
      </trkpt>
      <trkpt lat="44.8713" lon="5.47055">
        <ele>1472.2</ele>
        <time>2021-10-08T15:17:22Z</time>
      </trkpt>
      <trkpt lat="44.87132" lon="5.47049">
        <ele>1472.2</ele>
        <time>2021-10-08T15:17:23Z</time>
      </trkpt>
      <trkpt lat="44.87134" lon="5.47042">
        <ele>1472.2</ele>
        <time>2021-10-08T15:17:24Z</time>
      </trkpt>
      <trkpt lat="44.87136" lon="5.47035">
        <ele>1472</ele>
        <time>2021-10-08T15:17:25Z</time>
      </trkpt>
      <trkpt lat="44.87137" lon="5.47028">
        <ele>1472.2</ele>
        <time>2021-10-08T15:17:26Z</time>
      </trkpt>
      <trkpt lat="44.87139" lon="5.47021">
        <ele>1472.2</ele>
        <time>2021-10-08T15:17:27Z</time>
      </trkpt>
      <trkpt lat="44.87141" lon="5.47014">
        <ele>1472.2</ele>
        <time>2021-10-08T15:17:28Z</time>
      </trkpt>
      <trkpt lat="44.87143" lon="5.47007">
        <ele>1471.2</ele>
        <time>2021-10-08T15:17:29Z</time>
      </trkpt>
      <trkpt lat="44.87144" lon="5.46999">
        <ele>1470.2</ele>
        <time>2021-10-08T15:17:30Z</time>
      </trkpt>
      <trkpt lat="44.87146" lon="5.46991">
        <ele>1470.2</ele>
        <time>2021-10-08T15:17:31Z</time>
      </trkpt>
      <trkpt lat="44.87148" lon="5.46984">
        <ele>1470.2</ele>
        <time>2021-10-08T15:17:32Z</time>
      </trkpt>
      <trkpt lat="44.87149" lon="5.46976">
        <ele>1470.2</ele>
        <time>2021-10-08T15:17:33Z</time>
      </trkpt>
      <trkpt lat="44.8715" lon="5.46969">
        <ele>1469.2</ele>
        <time>2021-10-08T15:17:34Z</time>
      </trkpt>
      <trkpt lat="44.87152" lon="5.46961">
        <ele>1469.2</ele>
        <time>2021-10-08T15:17:35Z</time>
      </trkpt>
      <trkpt lat="44.87154" lon="5.46954">
        <ele>1469.2</ele>
        <time>2021-10-08T15:17:36Z</time>
      </trkpt>
      <trkpt lat="44.87155" lon="5.46946">
        <ele>1469.2</ele>
        <time>2021-10-08T15:17:37Z</time>
      </trkpt>
      <trkpt lat="44.87158" lon="5.46939">
        <ele>1468.4</ele>
        <time>2021-10-08T15:17:38Z</time>
      </trkpt>
      <trkpt lat="44.87161" lon="5.46932">
        <ele>1468.4</ele>
        <time>2021-10-08T15:17:39Z</time>
      </trkpt>
      <trkpt lat="44.87164" lon="5.46925">
        <ele>1468.4</ele>
        <time>2021-10-08T15:17:40Z</time>
      </trkpt>
      <trkpt lat="44.87167" lon="5.46919">
        <ele>1468</ele>
        <time>2021-10-08T15:17:41Z</time>
      </trkpt>
      <trkpt lat="44.87171" lon="5.46913">
        <ele>1468.4</ele>
        <time>2021-10-08T15:17:42Z</time>
      </trkpt>
      <trkpt lat="44.87175" lon="5.46908">
        <ele>1468.4</ele>
        <time>2021-10-08T15:17:43Z</time>
      </trkpt>
      <trkpt lat="44.87178" lon="5.46904">
        <ele>1468.4</ele>
        <time>2021-10-08T15:17:44Z</time>
      </trkpt>
      <trkpt lat="44.87183" lon="5.46899">
        <ele>1468.4</ele>
        <time>2021-10-08T15:17:45Z</time>
      </trkpt>
      <trkpt lat="44.87187" lon="5.46896">
        <ele>1468.4</ele>
        <time>2021-10-08T15:17:46Z</time>
      </trkpt>
      <trkpt lat="44.87191" lon="5.46893">
        <ele>1469</ele>
        <time>2021-10-08T15:17:47Z</time>
      </trkpt>
      <trkpt lat="44.87196" lon="5.46891">
        <ele>1469</ele>
        <time>2021-10-08T15:17:48Z</time>
      </trkpt>
      <trkpt lat="44.87201" lon="5.46888">
        <ele>1469</ele>
        <time>2021-10-08T15:17:49Z</time>
      </trkpt>
      <trkpt lat="44.87205" lon="5.46884">
        <ele>1466.8</ele>
        <time>2021-10-08T15:17:50Z</time>
      </trkpt>
      <trkpt lat="44.87209" lon="5.46878">
        <ele>1466.8</ele>
        <time>2021-10-08T15:17:51Z</time>
      </trkpt>
      <trkpt lat="44.87213" lon="5.46871">
        <ele>1466.8</ele>
        <time>2021-10-08T15:17:52Z</time>
      </trkpt>
      <trkpt lat="44.87217" lon="5.46864">
        <ele>1466.2</ele>
        <time>2021-10-08T15:17:53Z</time>
      </trkpt>
      <trkpt lat="44.8722" lon="5.46858">
        <ele>1466</ele>
        <time>2021-10-08T15:17:54Z</time>
      </trkpt>
      <trkpt lat="44.87224" lon="5.46852">
        <ele>1466</ele>
        <time>2021-10-08T15:17:55Z</time>
      </trkpt>
      <trkpt lat="44.87228" lon="5.46846">
        <ele>1466</ele>
        <time>2021-10-08T15:17:56Z</time>
      </trkpt>
      <trkpt lat="44.87233" lon="5.46841">
        <ele>1466.4</ele>
        <time>2021-10-08T15:17:57Z</time>
      </trkpt>
      <trkpt lat="44.87237" lon="5.46836">
        <ele>1466</ele>
        <time>2021-10-08T15:17:58Z</time>
      </trkpt>
      <trkpt lat="44.87241" lon="5.46831">
        <ele>1466</ele>
        <time>2021-10-08T15:17:59Z</time>
      </trkpt>
      <trkpt lat="44.87246" lon="5.46826">
        <ele>1466</ele>
        <time>2021-10-08T15:18:00Z</time>
      </trkpt>
      <trkpt lat="44.87251" lon="5.46821">
        <ele>1465.8</ele>
        <time>2021-10-08T15:18:01Z</time>
      </trkpt>
      <trkpt lat="44.87256" lon="5.46816">
        <ele>1465.4</ele>
        <time>2021-10-08T15:18:02Z</time>
      </trkpt>
      <trkpt lat="44.8726" lon="5.46812">
        <ele>1465.4</ele>
        <time>2021-10-08T15:18:03Z</time>
      </trkpt>
      <trkpt lat="44.87265" lon="5.46807">
        <ele>1465.4</ele>
        <time>2021-10-08T15:18:04Z</time>
      </trkpt>
      <trkpt lat="44.87269" lon="5.46801">
        <ele>1465.4</ele>
        <time>2021-10-08T15:18:05Z</time>
      </trkpt>
      <trkpt lat="44.87272" lon="5.46795">
        <ele>1464.4</ele>
        <time>2021-10-08T15:18:06Z</time>
      </trkpt>
      <trkpt lat="44.87275" lon="5.46788">
        <ele>1464.4</ele>
        <time>2021-10-08T15:18:07Z</time>
      </trkpt>
      <trkpt lat="44.87277" lon="5.46781">
        <ele>1464.4</ele>
        <time>2021-10-08T15:18:08Z</time>
      </trkpt>
      <trkpt lat="44.87279" lon="5.46773">
        <ele>1464.4</ele>
        <time>2021-10-08T15:18:09Z</time>
      </trkpt>
      <trkpt lat="44.87281" lon="5.46765">
        <ele>1463.2</ele>
        <time>2021-10-08T15:18:10Z</time>
      </trkpt>
      <trkpt lat="44.87283" lon="5.46757">
        <ele>1463.2</ele>
        <time>2021-10-08T15:18:11Z</time>
      </trkpt>
      <trkpt lat="44.87285" lon="5.46749">
        <ele>1463.2</ele>
        <time>2021-10-08T15:18:12Z</time>
      </trkpt>
      <trkpt lat="44.87287" lon="5.46741">
        <ele>1464</ele>
        <time>2021-10-08T15:18:13Z</time>
      </trkpt>
      <trkpt lat="44.87289" lon="5.46733">
        <ele>1463.2</ele>
        <time>2021-10-08T15:18:14Z</time>
      </trkpt>
      <trkpt lat="44.87291" lon="5.46725">
        <ele>1463.2</ele>
        <time>2021-10-08T15:18:15Z</time>
      </trkpt>
      <trkpt lat="44.87293" lon="5.46717">
        <ele>1463.2</ele>
        <time>2021-10-08T15:18:16Z</time>
      </trkpt>
      <trkpt lat="44.87295" lon="5.4671">
        <ele>1463.2</ele>
        <time>2021-10-08T15:18:17Z</time>
      </trkpt>
      <trkpt lat="44.87297" lon="5.46702">
        <ele>1462.8</ele>
        <time>2021-10-08T15:18:18Z</time>
      </trkpt>
      <trkpt lat="44.873" lon="5.46695">
        <ele>1462.8</ele>
        <time>2021-10-08T15:18:19Z</time>
      </trkpt>
      <trkpt lat="44.87302" lon="5.46687">
        <ele>1462.8</ele>
        <time>2021-10-08T15:18:20Z</time>
      </trkpt>
      <trkpt lat="44.87305" lon="5.4668">
        <ele>1463.8</ele>
        <time>2021-10-08T15:18:21Z</time>
      </trkpt>
      <trkpt lat="44.87306" lon="5.46672">
        <ele>1464.4</ele>
        <time>2021-10-08T15:18:22Z</time>
      </trkpt>
      <trkpt lat="44.87308" lon="5.46664">
        <ele>1464.4</ele>
        <time>2021-10-08T15:18:23Z</time>
      </trkpt>
      <trkpt lat="44.8731" lon="5.46657">
        <ele>1464.4</ele>
        <time>2021-10-08T15:18:24Z</time>
      </trkpt>
      <trkpt lat="44.87311" lon="5.46649">
        <ele>1463.4</ele>
        <time>2021-10-08T15:18:25Z</time>
      </trkpt>
      <trkpt lat="44.87311" lon="5.46641">
        <ele>1463.4</ele>
        <time>2021-10-08T15:18:26Z</time>
      </trkpt>
      <trkpt lat="44.87312" lon="5.46634">
        <ele>1463.4</ele>
        <time>2021-10-08T15:18:27Z</time>
      </trkpt>
      <trkpt lat="44.87313" lon="5.46626">
        <ele>1463.4</ele>
        <time>2021-10-08T15:18:28Z</time>
      </trkpt>
      <trkpt lat="44.87315" lon="5.46619">
        <ele>1463.6</ele>
        <time>2021-10-08T15:18:29Z</time>
      </trkpt>
      <trkpt lat="44.87316" lon="5.46612">
        <ele>1464.2</ele>
        <time>2021-10-08T15:18:30Z</time>
      </trkpt>
      <trkpt lat="44.87317" lon="5.46605">
        <ele>1464.2</ele>
        <time>2021-10-08T15:18:31Z</time>
      </trkpt>
      <trkpt lat="44.87318" lon="5.46599">
        <ele>1464.2</ele>
        <time>2021-10-08T15:18:32Z</time>
      </trkpt>
      <trkpt lat="44.87319" lon="5.46592">
        <ele>1464.2</ele>
        <time>2021-10-08T15:18:33Z</time>
      </trkpt>
      <trkpt lat="44.8732" lon="5.46586">
        <ele>1464.2</ele>
        <time>2021-10-08T15:18:34Z</time>
      </trkpt>
      <trkpt lat="44.87321" lon="5.46579">
        <ele>1464.2</ele>
        <time>2021-10-08T15:18:35Z</time>
      </trkpt>
      <trkpt lat="44.87322" lon="5.46572">
        <ele>1464.2</ele>
        <time>2021-10-08T15:18:36Z</time>
      </trkpt>
      <trkpt lat="44.87323" lon="5.46565">
        <ele>1464.2</ele>
        <time>2021-10-08T15:18:37Z</time>
      </trkpt>
      <trkpt lat="44.87324" lon="5.46559">
        <ele>1464.2</ele>
        <time>2021-10-08T15:18:38Z</time>
      </trkpt>
      <trkpt lat="44.87326" lon="5.46552">
        <ele>1464.2</ele>
        <time>2021-10-08T15:18:39Z</time>
      </trkpt>
      <trkpt lat="44.87327" lon="5.46546">
        <ele>1464.2</ele>
        <time>2021-10-08T15:18:40Z</time>
      </trkpt>
      <trkpt lat="44.87328" lon="5.4654">
        <ele>1464.2</ele>
        <time>2021-10-08T15:18:41Z</time>
      </trkpt>
      <trkpt lat="44.8733" lon="5.46534">
        <ele>1465</ele>
        <time>2021-10-08T15:18:42Z</time>
      </trkpt>
      <trkpt lat="44.87331" lon="5.46528">
        <ele>1465</ele>
        <time>2021-10-08T15:18:43Z</time>
      </trkpt>
      <trkpt lat="44.87332" lon="5.46522">
        <ele>1465</ele>
        <time>2021-10-08T15:18:44Z</time>
      </trkpt>
      <trkpt lat="44.87334" lon="5.46517">
        <ele>1465.4</ele>
        <time>2021-10-08T15:18:45Z</time>
      </trkpt>
      <trkpt lat="44.87335" lon="5.46511">
        <ele>1465.8</ele>
        <time>2021-10-08T15:18:46Z</time>
      </trkpt>
      <trkpt lat="44.87336" lon="5.46504">
        <ele>1465.8</ele>
        <time>2021-10-08T15:18:47Z</time>
      </trkpt>
      <trkpt lat="44.87337" lon="5.46498">
        <ele>1465.8</ele>
        <time>2021-10-08T15:18:48Z</time>
      </trkpt>
      <trkpt lat="44.87339" lon="5.46492">
        <ele>1464.8</ele>
        <time>2021-10-08T15:18:49Z</time>
      </trkpt>
      <trkpt lat="44.87341" lon="5.46486">
        <ele>1465</ele>
        <time>2021-10-08T15:18:50Z</time>
      </trkpt>
      <trkpt lat="44.87343" lon="5.46479">
        <ele>1465</ele>
        <time>2021-10-08T15:18:51Z</time>
      </trkpt>
      <trkpt lat="44.87345" lon="5.46473">
        <ele>1465</ele>
        <time>2021-10-08T15:18:52Z</time>
      </trkpt>
      <trkpt lat="44.87347" lon="5.46466">
        <ele>1464</ele>
        <time>2021-10-08T15:18:53Z</time>
      </trkpt>
      <trkpt lat="44.87349" lon="5.46458">
        <ele>1464</ele>
        <time>2021-10-08T15:18:54Z</time>
      </trkpt>
      <trkpt lat="44.87351" lon="5.46451">
        <ele>1464</ele>
        <time>2021-10-08T15:18:55Z</time>
      </trkpt>
      <trkpt lat="44.87352" lon="5.46444">
        <ele>1464</ele>
        <time>2021-10-08T15:18:56Z</time>
      </trkpt>
      <trkpt lat="44.87354" lon="5.46437">
        <ele>1463.8</ele>
        <time>2021-10-08T15:18:57Z</time>
      </trkpt>
      <trkpt lat="44.87355" lon="5.46431">
        <ele>1463.8</ele>
        <time>2021-10-08T15:18:58Z</time>
      </trkpt>
      <trkpt lat="44.87357" lon="5.46424">
        <ele>1463.8</ele>
        <time>2021-10-08T15:18:59Z</time>
      </trkpt>
      <trkpt lat="44.8736" lon="5.46419">
        <ele>1463.8</ele>
        <time>2021-10-08T15:19:00Z</time>
      </trkpt>
      <trkpt lat="44.87362" lon="5.46413">
        <ele>1463.8</ele>
        <time>2021-10-08T15:19:01Z</time>
      </trkpt>
      <trkpt lat="44.87364" lon="5.46407">
        <ele>1463.4</ele>
        <time>2021-10-08T15:19:02Z</time>
      </trkpt>
      <trkpt lat="44.87366" lon="5.46401">
        <ele>1463.4</ele>
        <time>2021-10-08T15:19:03Z</time>
      </trkpt>
      <trkpt lat="44.87369" lon="5.46396">
        <ele>1463.4</ele>
        <time>2021-10-08T15:19:04Z</time>
      </trkpt>
      <trkpt lat="44.87373" lon="5.46392">
        <ele>1463.4</ele>
        <time>2021-10-08T15:19:05Z</time>
      </trkpt>
      <trkpt lat="44.87375" lon="5.46386">
        <ele>1462.6</ele>
        <time>2021-10-08T15:19:06Z</time>
      </trkpt>
      <trkpt lat="44.87378" lon="5.4638">
        <ele>1462.6</ele>
        <time>2021-10-08T15:19:07Z</time>
      </trkpt>
      <trkpt lat="44.87381" lon="5.46375">
        <ele>1462.6</ele>
        <time>2021-10-08T15:19:08Z</time>
      </trkpt>
      <trkpt lat="44.87383" lon="5.46369">
        <ele>1462.6</ele>
        <time>2021-10-08T15:19:09Z</time>
      </trkpt>
      <trkpt lat="44.87386" lon="5.46363">
        <ele>1462</ele>
        <time>2021-10-08T15:19:10Z</time>
      </trkpt>
      <trkpt lat="44.87389" lon="5.46357">
        <ele>1462</ele>
        <time>2021-10-08T15:19:11Z</time>
      </trkpt>
      <trkpt lat="44.87392" lon="5.46351">
        <ele>1462</ele>
        <time>2021-10-08T15:19:12Z</time>
      </trkpt>
      <trkpt lat="44.87395" lon="5.46345">
        <ele>1462</ele>
        <time>2021-10-08T15:19:13Z</time>
      </trkpt>
      <trkpt lat="44.87398" lon="5.46338">
        <ele>1461</ele>
        <time>2021-10-08T15:19:14Z</time>
      </trkpt>
      <trkpt lat="44.87401" lon="5.46331">
        <ele>1461</ele>
        <time>2021-10-08T15:19:15Z</time>
      </trkpt>
      <trkpt lat="44.87404" lon="5.46325">
        <ele>1461</ele>
        <time>2021-10-08T15:19:16Z</time>
      </trkpt>
      <trkpt lat="44.87407" lon="5.46318">
        <ele>1460.4</ele>
        <time>2021-10-08T15:19:17Z</time>
      </trkpt>
      <trkpt lat="44.87411" lon="5.46312">
        <ele>1460.4</ele>
        <time>2021-10-08T15:19:18Z</time>
      </trkpt>
      <trkpt lat="44.87414" lon="5.46306">
        <ele>1460.4</ele>
        <time>2021-10-08T15:19:19Z</time>
      </trkpt>
      <trkpt lat="44.87418" lon="5.46301">
        <ele>1460.2</ele>
        <time>2021-10-08T15:19:20Z</time>
      </trkpt>
      <trkpt lat="44.87422" lon="5.46295">
        <ele>1459.2</ele>
        <time>2021-10-08T15:19:21Z</time>
      </trkpt>
      <trkpt lat="44.87426" lon="5.4629">
        <ele>1459.4</ele>
        <time>2021-10-08T15:19:22Z</time>
      </trkpt>
      <trkpt lat="44.8743" lon="5.46284">
        <ele>1459.4</ele>
        <time>2021-10-08T15:19:23Z</time>
      </trkpt>
      <trkpt lat="44.87434" lon="5.46278">
        <ele>1459.4</ele>
        <time>2021-10-08T15:19:24Z</time>
      </trkpt>
      <trkpt lat="44.87438" lon="5.46271">
        <ele>1458.4</ele>
        <time>2021-10-08T15:19:25Z</time>
      </trkpt>
      <trkpt lat="44.87441" lon="5.46263">
        <ele>1458</ele>
        <time>2021-10-08T15:19:26Z</time>
      </trkpt>
      <trkpt lat="44.87444" lon="5.46255">
        <ele>1458</ele>
        <time>2021-10-08T15:19:27Z</time>
      </trkpt>
      <trkpt lat="44.87447" lon="5.46247">
        <ele>1458</ele>
        <time>2021-10-08T15:19:28Z</time>
      </trkpt>
      <trkpt lat="44.8745" lon="5.46238">
        <ele>1457</ele>
        <time>2021-10-08T15:19:29Z</time>
      </trkpt>
      <trkpt lat="44.87453" lon="5.4623">
        <ele>1457.2</ele>
        <time>2021-10-08T15:19:30Z</time>
      </trkpt>
      <trkpt lat="44.87457" lon="5.46222">
        <ele>1457.2</ele>
        <time>2021-10-08T15:19:31Z</time>
      </trkpt>
      <trkpt lat="44.87461" lon="5.46214">
        <ele>1457.2</ele>
        <time>2021-10-08T15:19:32Z</time>
      </trkpt>
      <trkpt lat="44.87466" lon="5.46207">
        <ele>1457</ele>
        <time>2021-10-08T15:19:33Z</time>
      </trkpt>
      <trkpt lat="44.8747" lon="5.462">
        <ele>1456.4</ele>
        <time>2021-10-08T15:19:34Z</time>
      </trkpt>
      <trkpt lat="44.87475" lon="5.46192">
        <ele>1456.4</ele>
        <time>2021-10-08T15:19:35Z</time>
      </trkpt>
      <trkpt lat="44.87479" lon="5.46184">
        <ele>1456.4</ele>
        <time>2021-10-08T15:19:36Z</time>
      </trkpt>
      <trkpt lat="44.87482" lon="5.46175">
        <ele>1455.4</ele>
        <time>2021-10-08T15:19:37Z</time>
      </trkpt>
      <trkpt lat="44.87486" lon="5.46167">
        <ele>1455.8</ele>
        <time>2021-10-08T15:19:38Z</time>
      </trkpt>
      <trkpt lat="44.8749" lon="5.46158">
        <ele>1455.8</ele>
        <time>2021-10-08T15:19:39Z</time>
      </trkpt>
      <trkpt lat="44.87493" lon="5.46149">
        <ele>1455.8</ele>
        <time>2021-10-08T15:19:40Z</time>
      </trkpt>
      <trkpt lat="44.87497" lon="5.46141">
        <ele>1454.8</ele>
        <time>2021-10-08T15:19:41Z</time>
      </trkpt>
      <trkpt lat="44.87499" lon="5.46132">
        <ele>1454.8</ele>
        <time>2021-10-08T15:19:42Z</time>
      </trkpt>
      <trkpt lat="44.87503" lon="5.46124">
        <ele>1454.8</ele>
        <time>2021-10-08T15:19:43Z</time>
      </trkpt>
      <trkpt lat="44.87508" lon="5.46116">
        <ele>1453.4</ele>
        <time>2021-10-08T15:19:44Z</time>
      </trkpt>
      <trkpt lat="44.87512" lon="5.46108">
        <ele>1452.4</ele>
        <time>2021-10-08T15:19:45Z</time>
      </trkpt>
      <trkpt lat="44.87517" lon="5.46101">
        <ele>1453</ele>
        <time>2021-10-08T15:19:46Z</time>
      </trkpt>
      <trkpt lat="44.87521" lon="5.46093">
        <ele>1453</ele>
        <time>2021-10-08T15:19:47Z</time>
      </trkpt>
      <trkpt lat="44.87526" lon="5.46086">
        <ele>1453</ele>
        <time>2021-10-08T15:19:48Z</time>
      </trkpt>
      <trkpt lat="44.87531" lon="5.46078">
        <ele>1452</ele>
        <time>2021-10-08T15:19:49Z</time>
      </trkpt>
      <trkpt lat="44.87536" lon="5.46071">
        <ele>1451.8</ele>
        <time>2021-10-08T15:19:50Z</time>
      </trkpt>
      <trkpt lat="44.8754" lon="5.46063">
        <ele>1451.8</ele>
        <time>2021-10-08T15:19:51Z</time>
      </trkpt>
      <trkpt lat="44.87544" lon="5.46055">
        <ele>1451.8</ele>
        <time>2021-10-08T15:19:52Z</time>
      </trkpt>
      <trkpt lat="44.87549" lon="5.46048">
        <ele>1451.4</ele>
        <time>2021-10-08T15:19:53Z</time>
      </trkpt>
      <trkpt lat="44.87554" lon="5.46041">
        <ele>1451.6</ele>
        <time>2021-10-08T15:19:54Z</time>
      </trkpt>
      <trkpt lat="44.87558" lon="5.46033">
        <ele>1451.6</ele>
        <time>2021-10-08T15:19:55Z</time>
      </trkpt>
      <trkpt lat="44.87562" lon="5.46026">
        <ele>1451.6</ele>
        <time>2021-10-08T15:19:56Z</time>
      </trkpt>
      <trkpt lat="44.87566" lon="5.46018">
        <ele>1450.6</ele>
        <time>2021-10-08T15:19:57Z</time>
      </trkpt>
      <trkpt lat="44.8757" lon="5.46011">
        <ele>1450.4</ele>
        <time>2021-10-08T15:19:58Z</time>
      </trkpt>
      <trkpt lat="44.87574" lon="5.46003">
        <ele>1450.4</ele>
        <time>2021-10-08T15:19:59Z</time>
      </trkpt>
      <trkpt lat="44.87578" lon="5.45996">
        <ele>1450.4</ele>
        <time>2021-10-08T15:20:00Z</time>
      </trkpt>
      <trkpt lat="44.87584" lon="5.45989">
        <ele>1449.4</ele>
        <time>2021-10-08T15:20:01Z</time>
      </trkpt>
      <trkpt lat="44.87589" lon="5.45981">
        <ele>1447.2</ele>
        <time>2021-10-08T15:20:02Z</time>
      </trkpt>
      <trkpt lat="44.87594" lon="5.45972">
        <ele>1447.2</ele>
        <time>2021-10-08T15:20:03Z</time>
      </trkpt>
      <trkpt lat="44.87597" lon="5.45964">
        <ele>1447.2</ele>
        <time>2021-10-08T15:20:04Z</time>
      </trkpt>
      <trkpt lat="44.87601" lon="5.45956">
        <ele>1446.2</ele>
        <time>2021-10-08T15:20:05Z</time>
      </trkpt>
      <trkpt lat="44.87606" lon="5.45949">
        <ele>1445.2</ele>
        <time>2021-10-08T15:20:06Z</time>
      </trkpt>
      <trkpt lat="44.87609" lon="5.4594">
        <ele>1445.2</ele>
        <time>2021-10-08T15:20:07Z</time>
      </trkpt>
      <trkpt lat="44.87611" lon="5.45931">
        <ele>1445.2</ele>
        <time>2021-10-08T15:20:08Z</time>
      </trkpt>
      <trkpt lat="44.87614" lon="5.45921">
        <ele>1444.2</ele>
        <time>2021-10-08T15:20:09Z</time>
      </trkpt>
      <trkpt lat="44.87618" lon="5.45912">
        <ele>1442.6</ele>
        <time>2021-10-08T15:20:10Z</time>
      </trkpt>
      <trkpt lat="44.87622" lon="5.45902">
        <ele>1442.6</ele>
        <time>2021-10-08T15:20:11Z</time>
      </trkpt>
      <trkpt lat="44.87627" lon="5.45893">
        <ele>1442.6</ele>
        <time>2021-10-08T15:20:12Z</time>
      </trkpt>
      <trkpt lat="44.87632" lon="5.45884">
        <ele>1441.6</ele>
        <time>2021-10-08T15:20:13Z</time>
      </trkpt>
      <trkpt lat="44.87637" lon="5.45875">
        <ele>1439.2</ele>
        <time>2021-10-08T15:20:14Z</time>
      </trkpt>
      <trkpt lat="44.87642" lon="5.45865">
        <ele>1439.2</ele>
        <time>2021-10-08T15:20:15Z</time>
      </trkpt>
      <trkpt lat="44.87647" lon="5.45855">
        <ele>1439.2</ele>
        <time>2021-10-08T15:20:16Z</time>
      </trkpt>
      <trkpt lat="44.87652" lon="5.45845">
        <ele>1438.2</ele>
        <time>2021-10-08T15:20:17Z</time>
      </trkpt>
      <trkpt lat="44.87658" lon="5.45836">
        <ele>1437</ele>
        <time>2021-10-08T15:20:18Z</time>
      </trkpt>
      <trkpt lat="44.87663" lon="5.45828">
        <ele>1437</ele>
        <time>2021-10-08T15:20:19Z</time>
      </trkpt>
      <trkpt lat="44.8767" lon="5.4582">
        <ele>1437</ele>
        <time>2021-10-08T15:20:20Z</time>
      </trkpt>
      <trkpt lat="44.87676" lon="5.45813">
        <ele>1437</ele>
        <time>2021-10-08T15:20:21Z</time>
      </trkpt>
      <trkpt lat="44.87682" lon="5.45806">
        <ele>1436.4</ele>
        <time>2021-10-08T15:20:22Z</time>
      </trkpt>
      <trkpt lat="44.87686" lon="5.45797">
        <ele>1436.4</ele>
        <time>2021-10-08T15:20:23Z</time>
      </trkpt>
      <trkpt lat="44.8769" lon="5.45788">
        <ele>1436.4</ele>
        <time>2021-10-08T15:20:24Z</time>
      </trkpt>
      <trkpt lat="44.87693" lon="5.45778">
        <ele>1437.4</ele>
        <time>2021-10-08T15:20:25Z</time>
      </trkpt>
      <trkpt lat="44.87695" lon="5.45768">
        <ele>1435.6</ele>
        <time>2021-10-08T15:20:26Z</time>
      </trkpt>
      <trkpt lat="44.87698" lon="5.45758">
        <ele>1435.6</ele>
        <time>2021-10-08T15:20:27Z</time>
      </trkpt>
      <trkpt lat="44.877" lon="5.45749">
        <ele>1435.6</ele>
        <time>2021-10-08T15:20:28Z</time>
      </trkpt>
      <trkpt lat="44.87702" lon="5.45739">
        <ele>1435.6</ele>
        <time>2021-10-08T15:20:29Z</time>
      </trkpt>
      <trkpt lat="44.87703" lon="5.45729">
        <ele>1435.6</ele>
        <time>2021-10-08T15:20:30Z</time>
      </trkpt>
      <trkpt lat="44.87705" lon="5.45718">
        <ele>1435</ele>
        <time>2021-10-08T15:20:31Z</time>
      </trkpt>
      <trkpt lat="44.87707" lon="5.45707">
        <ele>1435</ele>
        <time>2021-10-08T15:20:32Z</time>
      </trkpt>
      <trkpt lat="44.8771" lon="5.45697">
        <ele>1434</ele>
        <time>2021-10-08T15:20:33Z</time>
      </trkpt>
      <trkpt lat="44.87713" lon="5.45686">
        <ele>1431</ele>
        <time>2021-10-08T15:20:34Z</time>
      </trkpt>
      <trkpt lat="44.87717" lon="5.45675">
        <ele>1431</ele>
        <time>2021-10-08T15:20:35Z</time>
      </trkpt>
      <trkpt lat="44.8772" lon="5.45665">
        <ele>1431</ele>
        <time>2021-10-08T15:20:36Z</time>
      </trkpt>
      <trkpt lat="44.87725" lon="5.45655">
        <ele>1431</ele>
        <time>2021-10-08T15:20:37Z</time>
      </trkpt>
      <trkpt lat="44.87731" lon="5.45646">
        <ele>1428</ele>
        <time>2021-10-08T15:20:38Z</time>
      </trkpt>
      <trkpt lat="44.87736" lon="5.45638">
        <ele>1428</ele>
        <time>2021-10-08T15:20:39Z</time>
      </trkpt>
      <trkpt lat="44.8774" lon="5.45628">
        <ele>1428</ele>
        <time>2021-10-08T15:20:40Z</time>
      </trkpt>
      <trkpt lat="44.87745" lon="5.45618">
        <ele>1428</ele>
        <time>2021-10-08T15:20:41Z</time>
      </trkpt>
      <trkpt lat="44.87747" lon="5.45608">
        <ele>1426.4</ele>
        <time>2021-10-08T15:20:42Z</time>
      </trkpt>
      <trkpt lat="44.8775" lon="5.45597">
        <ele>1426.4</ele>
        <time>2021-10-08T15:20:43Z</time>
      </trkpt>
      <trkpt lat="44.87752" lon="5.45586">
        <ele>1426.4</ele>
        <time>2021-10-08T15:20:44Z</time>
      </trkpt>
      <trkpt lat="44.87755" lon="5.45575">
        <ele>1425.4</ele>
        <time>2021-10-08T15:20:45Z</time>
      </trkpt>
      <trkpt lat="44.87758" lon="5.45564">
        <ele>1420.8</ele>
        <time>2021-10-08T15:20:46Z</time>
      </trkpt>
      <trkpt lat="44.87763" lon="5.45553">
        <ele>1420.8</ele>
        <time>2021-10-08T15:20:47Z</time>
      </trkpt>
      <trkpt lat="44.87768" lon="5.45541">
        <ele>1420.8</ele>
        <time>2021-10-08T15:20:48Z</time>
      </trkpt>
      <trkpt lat="44.87772" lon="5.45529">
        <ele>1419.8</ele>
        <time>2021-10-08T15:20:49Z</time>
      </trkpt>
      <trkpt lat="44.87777" lon="5.45517">
        <ele>1416.6</ele>
        <time>2021-10-08T15:20:50Z</time>
      </trkpt>
      <trkpt lat="44.87783" lon="5.45505">
        <ele>1416.6</ele>
        <time>2021-10-08T15:20:51Z</time>
      </trkpt>
      <trkpt lat="44.87788" lon="5.45495">
        <ele>1416.6</ele>
        <time>2021-10-08T15:20:52Z</time>
      </trkpt>
      <trkpt lat="44.87793" lon="5.45484">
        <ele>1415.6</ele>
        <time>2021-10-08T15:20:53Z</time>
      </trkpt>
      <trkpt lat="44.87794" lon="5.45472">
        <ele>1415</ele>
        <time>2021-10-08T15:20:54Z</time>
      </trkpt>
      <trkpt lat="44.87797" lon="5.45464">
        <ele>1415</ele>
        <time>2021-10-08T15:20:55Z</time>
      </trkpt>
      <trkpt lat="44.87798" lon="5.45456">
        <ele>1415</ele>
        <time>2021-10-08T15:20:56Z</time>
      </trkpt>
      <trkpt lat="44.87798" lon="5.45449">
        <ele>1415</ele>
        <time>2021-10-08T15:20:57Z</time>
      </trkpt>
      <trkpt lat="44.87797" lon="5.45441">
        <ele>1412.6</ele>
        <time>2021-10-08T15:20:58Z</time>
      </trkpt>
      <trkpt lat="44.87797" lon="5.45433">
        <ele>1412.6</ele>
        <time>2021-10-08T15:20:59Z</time>
      </trkpt>
      <trkpt lat="44.87798" lon="5.45422">
        <ele>1412.6</ele>
        <time>2021-10-08T15:21:00Z</time>
      </trkpt>
      <trkpt lat="44.878" lon="5.45411">
        <ele>1411.6</ele>
        <time>2021-10-08T15:21:01Z</time>
      </trkpt>
      <trkpt lat="44.87803" lon="5.45399">
        <ele>1408.8</ele>
        <time>2021-10-08T15:21:02Z</time>
      </trkpt>
      <trkpt lat="44.87806" lon="5.45387">
        <ele>1408.8</ele>
        <time>2021-10-08T15:21:03Z</time>
      </trkpt>
      <trkpt lat="44.87807" lon="5.45375">
        <ele>1408.8</ele>
        <time>2021-10-08T15:21:04Z</time>
      </trkpt>
      <trkpt lat="44.87808" lon="5.45363">
        <ele>1408.6</ele>
        <time>2021-10-08T15:21:05Z</time>
      </trkpt>
      <trkpt lat="44.87808" lon="5.45351">
        <ele>1408.4</ele>
        <time>2021-10-08T15:21:06Z</time>
      </trkpt>
      <trkpt lat="44.87809" lon="5.4534">
        <ele>1408.4</ele>
        <time>2021-10-08T15:21:07Z</time>
      </trkpt>
      <trkpt lat="44.87809" lon="5.45329">
        <ele>1408.4</ele>
        <time>2021-10-08T15:21:08Z</time>
      </trkpt>
      <trkpt lat="44.87809" lon="5.45318">
        <ele>1408.4</ele>
        <time>2021-10-08T15:21:09Z</time>
      </trkpt>
      <trkpt lat="44.87807" lon="5.45308">
        <ele>1408.2</ele>
        <time>2021-10-08T15:21:10Z</time>
      </trkpt>
      <trkpt lat="44.87805" lon="5.45298">
        <ele>1408.2</ele>
        <time>2021-10-08T15:21:11Z</time>
      </trkpt>
      <trkpt lat="44.87802" lon="5.45288">
        <ele>1408.2</ele>
        <time>2021-10-08T15:21:12Z</time>
      </trkpt>
      <trkpt lat="44.87799" lon="5.45278">
        <ele>1408.2</ele>
        <time>2021-10-08T15:21:13Z</time>
      </trkpt>
      <trkpt lat="44.87798" lon="5.45268">
        <ele>1408.2</ele>
        <time>2021-10-08T15:21:14Z</time>
      </trkpt>
      <trkpt lat="44.87795" lon="5.45257">
        <ele>1408.2</ele>
        <time>2021-10-08T15:21:15Z</time>
      </trkpt>
      <trkpt lat="44.87794" lon="5.45247">
        <ele>1408.2</ele>
        <time>2021-10-08T15:21:16Z</time>
      </trkpt>
      <trkpt lat="44.87792" lon="5.45238">
        <ele>1408</ele>
        <time>2021-10-08T15:21:17Z</time>
      </trkpt>
      <trkpt lat="44.87791" lon="5.45228">
        <ele>1408.4</ele>
        <time>2021-10-08T15:21:18Z</time>
      </trkpt>
      <trkpt lat="44.87788" lon="5.45218">
        <ele>1408.4</ele>
        <time>2021-10-08T15:21:19Z</time>
      </trkpt>
      <trkpt lat="44.87786" lon="5.45211">
        <ele>1408.4</ele>
        <time>2021-10-08T15:21:20Z</time>
      </trkpt>
      <trkpt lat="44.87786" lon="5.45202">
        <ele>1409</ele>
        <time>2021-10-08T15:21:21Z</time>
      </trkpt>
      <trkpt lat="44.87788" lon="5.45194">
        <ele>1408.6</ele>
        <time>2021-10-08T15:21:22Z</time>
      </trkpt>
      <trkpt lat="44.8779" lon="5.45186">
        <ele>1408.6</ele>
        <time>2021-10-08T15:21:23Z</time>
      </trkpt>
      <trkpt lat="44.87793" lon="5.45181">
        <ele>1408.6</ele>
        <time>2021-10-08T15:21:24Z</time>
      </trkpt>
      <trkpt lat="44.87795" lon="5.45177">
        <ele>1408.8</ele>
        <time>2021-10-08T15:21:25Z</time>
      </trkpt>
      <trkpt lat="44.87798" lon="5.45172">
        <ele>1408.4</ele>
        <time>2021-10-08T15:21:26Z</time>
      </trkpt>
      <trkpt lat="44.878" lon="5.45169">
        <ele>1408.4</ele>
        <time>2021-10-08T15:21:27Z</time>
      </trkpt>
      <trkpt lat="44.87801" lon="5.45166">
        <ele>1408.4</ele>
        <time>2021-10-08T15:21:28Z</time>
      </trkpt>
      <trkpt lat="44.87802" lon="5.45166">
        <ele>1408.4</ele>
        <time>2021-10-08T15:21:29Z</time>
      </trkpt>
      <trkpt lat="44.87802" lon="5.45165">
        <ele>1409</ele>
        <time>2021-10-08T15:21:30Z</time>
      </trkpt>
      <trkpt lat="44.87802" lon="5.45162">
        <ele>1408.6</ele>
        <time>2021-10-08T15:21:45Z</time>
      </trkpt>
      <trkpt lat="44.87803" lon="5.45159">
        <ele>1407.6</ele>
        <time>2021-10-08T15:21:46Z</time>
      </trkpt>
      <trkpt lat="44.87805" lon="5.45156">
        <ele>1407.6</ele>
        <time>2021-10-08T15:21:47Z</time>
      </trkpt>
      <trkpt lat="44.87806" lon="5.45152">
        <ele>1407.6</ele>
        <time>2021-10-08T15:21:48Z</time>
      </trkpt>
      <trkpt lat="44.87809" lon="5.45148">
        <ele>1406.6</ele>
        <time>2021-10-08T15:21:49Z</time>
      </trkpt>
      <trkpt lat="44.87811" lon="5.45143">
        <ele>1405.8</ele>
        <time>2021-10-08T15:21:50Z</time>
      </trkpt>
      <trkpt lat="44.87814" lon="5.45139">
        <ele>1405.8</ele>
        <time>2021-10-08T15:21:51Z</time>
      </trkpt>
      <trkpt lat="44.87818" lon="5.45134">
        <ele>1405.8</ele>
        <time>2021-10-08T15:21:52Z</time>
      </trkpt>
      <trkpt lat="44.87821" lon="5.45129">
        <ele>1405.8</ele>
        <time>2021-10-08T15:21:53Z</time>
      </trkpt>
      <trkpt lat="44.87825" lon="5.45123">
        <ele>1403</ele>
        <time>2021-10-08T15:21:54Z</time>
      </trkpt>
      <trkpt lat="44.87829" lon="5.45117">
        <ele>1403</ele>
        <time>2021-10-08T15:21:55Z</time>
      </trkpt>
      <trkpt lat="44.87833" lon="5.45111">
        <ele>1403</ele>
        <time>2021-10-08T15:21:56Z</time>
      </trkpt>
      <trkpt lat="44.87836" lon="5.45103">
        <ele>1402</ele>
        <time>2021-10-08T15:21:57Z</time>
      </trkpt>
      <trkpt lat="44.87839" lon="5.45094">
        <ele>1400.6</ele>
        <time>2021-10-08T15:21:58Z</time>
      </trkpt>
      <trkpt lat="44.8784" lon="5.45085">
        <ele>1400.6</ele>
        <time>2021-10-08T15:21:59Z</time>
      </trkpt>
      <trkpt lat="44.8784" lon="5.45076">
        <ele>1400.6</ele>
        <time>2021-10-08T15:22:00Z</time>
      </trkpt>
      <trkpt lat="44.87842" lon="5.45067">
        <ele>1399.6</ele>
        <time>2021-10-08T15:22:01Z</time>
      </trkpt>
      <trkpt lat="44.87843" lon="5.4506">
        <ele>1398.6</ele>
        <time>2021-10-08T15:22:02Z</time>
      </trkpt>
      <trkpt lat="44.87846" lon="5.45053">
        <ele>1398.6</ele>
        <time>2021-10-08T15:22:03Z</time>
      </trkpt>
      <trkpt lat="44.8785" lon="5.45048">
        <ele>1398.6</ele>
        <time>2021-10-08T15:22:04Z</time>
      </trkpt>
      <trkpt lat="44.87855" lon="5.45046">
        <ele>1397.6</ele>
        <time>2021-10-08T15:22:05Z</time>
      </trkpt>
      <trkpt lat="44.87861" lon="5.45046">
        <ele>1396.4</ele>
        <time>2021-10-08T15:22:06Z</time>
      </trkpt>
      <trkpt lat="44.87866" lon="5.45048">
        <ele>1396.4</ele>
        <time>2021-10-08T15:22:07Z</time>
      </trkpt>
      <trkpt lat="44.87872" lon="5.4505">
        <ele>1396.4</ele>
        <time>2021-10-08T15:22:08Z</time>
      </trkpt>
      <trkpt lat="44.87879" lon="5.4505">
        <ele>1395.4</ele>
        <time>2021-10-08T15:22:09Z</time>
      </trkpt>
      <trkpt lat="44.87886" lon="5.4505">
        <ele>1392.2</ele>
        <time>2021-10-08T15:22:10Z</time>
      </trkpt>
      <trkpt lat="44.87892" lon="5.45049">
        <ele>1392.2</ele>
        <time>2021-10-08T15:22:11Z</time>
      </trkpt>
      <trkpt lat="44.87898" lon="5.45047">
        <ele>1392.2</ele>
        <time>2021-10-08T15:22:12Z</time>
      </trkpt>
      <trkpt lat="44.87903" lon="5.45043">
        <ele>1392.2</ele>
        <time>2021-10-08T15:22:13Z</time>
      </trkpt>
      <trkpt lat="44.87905" lon="5.45038">
        <ele>1392.2</ele>
        <time>2021-10-08T15:22:14Z</time>
      </trkpt>
      <trkpt lat="44.87907" lon="5.4503">
        <ele>1392.2</ele>
        <time>2021-10-08T15:22:15Z</time>
      </trkpt>
      <trkpt lat="44.87909" lon="5.45023">
        <ele>1391.2</ele>
        <time>2021-10-08T15:22:16Z</time>
      </trkpt>
      <trkpt lat="44.87911" lon="5.45015">
        <ele>1390.2</ele>
        <time>2021-10-08T15:22:17Z</time>
      </trkpt>
      <trkpt lat="44.87913" lon="5.45007">
        <ele>1388</ele>
        <time>2021-10-08T15:22:18Z</time>
      </trkpt>
      <trkpt lat="44.87915" lon="5.44998">
        <ele>1388</ele>
        <time>2021-10-08T15:22:19Z</time>
      </trkpt>
      <trkpt lat="44.87918" lon="5.44988">
        <ele>1388</ele>
        <time>2021-10-08T15:22:20Z</time>
      </trkpt>
      <trkpt lat="44.87919" lon="5.44977">
        <ele>1387</ele>
        <time>2021-10-08T15:22:21Z</time>
      </trkpt>
      <trkpt lat="44.87921" lon="5.44967">
        <ele>1384.4</ele>
        <time>2021-10-08T15:22:22Z</time>
      </trkpt>
      <trkpt lat="44.87922" lon="5.44956">
        <ele>1384.4</ele>
        <time>2021-10-08T15:22:23Z</time>
      </trkpt>
      <trkpt lat="44.87925" lon="5.44946">
        <ele>1384.4</ele>
        <time>2021-10-08T15:22:24Z</time>
      </trkpt>
      <trkpt lat="44.87927" lon="5.44935">
        <ele>1383.4</ele>
        <time>2021-10-08T15:22:25Z</time>
      </trkpt>
      <trkpt lat="44.8793" lon="5.44924">
        <ele>1381</ele>
        <time>2021-10-08T15:22:26Z</time>
      </trkpt>
      <trkpt lat="44.87933" lon="5.44914">
        <ele>1381</ele>
        <time>2021-10-08T15:22:27Z</time>
      </trkpt>
      <trkpt lat="44.87936" lon="5.44903">
        <ele>1381</ele>
        <time>2021-10-08T15:22:28Z</time>
      </trkpt>
      <trkpt lat="44.87938" lon="5.44894">
        <ele>1380</ele>
        <time>2021-10-08T15:22:29Z</time>
      </trkpt>
      <trkpt lat="44.87941" lon="5.44886">
        <ele>1379.2</ele>
        <time>2021-10-08T15:22:30Z</time>
      </trkpt>
      <trkpt lat="44.87945" lon="5.44879">
        <ele>1379.2</ele>
        <time>2021-10-08T15:22:31Z</time>
      </trkpt>
      <trkpt lat="44.87948" lon="5.44872">
        <ele>1379.2</ele>
        <time>2021-10-08T15:22:32Z</time>
      </trkpt>
      <trkpt lat="44.87953" lon="5.4487">
        <ele>1378.2</ele>
        <time>2021-10-08T15:22:33Z</time>
      </trkpt>
      <trkpt lat="44.87958" lon="5.44872">
        <ele>1378</ele>
        <time>2021-10-08T15:22:34Z</time>
      </trkpt>
      <trkpt lat="44.87964" lon="5.44874">
        <ele>1378</ele>
        <time>2021-10-08T15:22:35Z</time>
      </trkpt>
      <trkpt lat="44.87969" lon="5.44875">
        <ele>1378</ele>
        <time>2021-10-08T15:22:36Z</time>
      </trkpt>
      <trkpt lat="44.87974" lon="5.44874">
        <ele>1377.4</ele>
        <time>2021-10-08T15:22:37Z</time>
      </trkpt>
      <trkpt lat="44.87977" lon="5.4487">
        <ele>1375.8</ele>
        <time>2021-10-08T15:22:38Z</time>
      </trkpt>
      <trkpt lat="44.8798" lon="5.44863">
        <ele>1375.8</ele>
        <time>2021-10-08T15:22:39Z</time>
      </trkpt>
      <trkpt lat="44.87981" lon="5.44854">
        <ele>1375.8</ele>
        <time>2021-10-08T15:22:40Z</time>
      </trkpt>
      <trkpt lat="44.87981" lon="5.44846">
        <ele>1374.8</ele>
        <time>2021-10-08T15:22:41Z</time>
      </trkpt>
      <trkpt lat="44.87979" lon="5.44838">
        <ele>1373.2</ele>
        <time>2021-10-08T15:22:42Z</time>
      </trkpt>
      <trkpt lat="44.87977" lon="5.44829">
        <ele>1373.2</ele>
        <time>2021-10-08T15:22:43Z</time>
      </trkpt>
      <trkpt lat="44.87976" lon="5.4482">
        <ele>1373.2</ele>
        <time>2021-10-08T15:22:44Z</time>
      </trkpt>
      <trkpt lat="44.87979" lon="5.4481">
        <ele>1372.2</ele>
        <time>2021-10-08T15:22:45Z</time>
      </trkpt>
      <trkpt lat="44.87982" lon="5.44802">
        <ele>1370.4</ele>
        <time>2021-10-08T15:22:46Z</time>
      </trkpt>
      <trkpt lat="44.87986" lon="5.44795">
        <ele>1370.4</ele>
        <time>2021-10-08T15:22:47Z</time>
      </trkpt>
      <trkpt lat="44.87991" lon="5.44792">
        <ele>1370.4</ele>
        <time>2021-10-08T15:22:48Z</time>
      </trkpt>
      <trkpt lat="44.87997" lon="5.44789">
        <ele>1369.4</ele>
        <time>2021-10-08T15:22:49Z</time>
      </trkpt>
      <trkpt lat="44.88003" lon="5.44787">
        <ele>1368.6</ele>
        <time>2021-10-08T15:22:50Z</time>
      </trkpt>
      <trkpt lat="44.8801" lon="5.44784">
        <ele>1368.6</ele>
        <time>2021-10-08T15:22:51Z</time>
      </trkpt>
      <trkpt lat="44.88017" lon="5.44782">
        <ele>1368.6</ele>
        <time>2021-10-08T15:22:52Z</time>
      </trkpt>
      <trkpt lat="44.88024" lon="5.44779">
        <ele>1368.6</ele>
        <time>2021-10-08T15:22:53Z</time>
      </trkpt>
      <trkpt lat="44.8803" lon="5.44775">
        <ele>1369.2</ele>
        <time>2021-10-08T15:22:54Z</time>
      </trkpt>
      <trkpt lat="44.88035" lon="5.44768">
        <ele>1369.2</ele>
        <time>2021-10-08T15:22:55Z</time>
      </trkpt>
      <trkpt lat="44.88039" lon="5.4476">
        <ele>1369.2</ele>
        <time>2021-10-08T15:22:56Z</time>
      </trkpt>
      <trkpt lat="44.88042" lon="5.44751">
        <ele>1368.2</ele>
        <time>2021-10-08T15:22:57Z</time>
      </trkpt>
      <trkpt lat="44.88045" lon="5.44741">
        <ele>1366.2</ele>
        <time>2021-10-08T15:22:58Z</time>
      </trkpt>
      <trkpt lat="44.88049" lon="5.44731">
        <ele>1366.2</ele>
        <time>2021-10-08T15:22:59Z</time>
      </trkpt>
      <trkpt lat="44.88051" lon="5.44721">
        <ele>1366.2</ele>
        <time>2021-10-08T15:23:00Z</time>
      </trkpt>
      <trkpt lat="44.88054" lon="5.44711">
        <ele>1366.2</ele>
        <time>2021-10-08T15:23:01Z</time>
      </trkpt>
      <trkpt lat="44.88058" lon="5.44702">
        <ele>1365</ele>
        <time>2021-10-08T15:23:02Z</time>
      </trkpt>
      <trkpt lat="44.88063" lon="5.44695">
        <ele>1365</ele>
        <time>2021-10-08T15:23:03Z</time>
      </trkpt>
      <trkpt lat="44.88069" lon="5.44689">
        <ele>1365</ele>
        <time>2021-10-08T15:23:04Z</time>
      </trkpt>
      <trkpt lat="44.88075" lon="5.44684">
        <ele>1365</ele>
        <time>2021-10-08T15:23:05Z</time>
      </trkpt>
      <trkpt lat="44.88081" lon="5.44677">
        <ele>1364.2</ele>
        <time>2021-10-08T15:23:06Z</time>
      </trkpt>
      <trkpt lat="44.88088" lon="5.4467">
        <ele>1364.2</ele>
        <time>2021-10-08T15:23:07Z</time>
      </trkpt>
      <trkpt lat="44.88095" lon="5.44663">
        <ele>1364.2</ele>
        <time>2021-10-08T15:23:08Z</time>
      </trkpt>
      <trkpt lat="44.88102" lon="5.44657">
        <ele>1363.8</ele>
        <time>2021-10-08T15:23:09Z</time>
      </trkpt>
      <trkpt lat="44.88107" lon="5.44651">
        <ele>1363.6</ele>
        <time>2021-10-08T15:23:10Z</time>
      </trkpt>
      <trkpt lat="44.88113" lon="5.44646">
        <ele>1363.6</ele>
        <time>2021-10-08T15:23:11Z</time>
      </trkpt>
      <trkpt lat="44.88116" lon="5.44642">
        <ele>1363.6</ele>
        <time>2021-10-08T15:23:12Z</time>
      </trkpt>
      <trkpt lat="44.8812" lon="5.44638">
        <ele>1364.6</ele>
        <time>2021-10-08T15:23:13Z</time>
      </trkpt>
      <trkpt lat="44.88124" lon="5.44634">
        <ele>1365.4</ele>
        <time>2021-10-08T15:23:14Z</time>
      </trkpt>
      <trkpt lat="44.88127" lon="5.4463">
        <ele>1365.4</ele>
        <time>2021-10-08T15:23:15Z</time>
      </trkpt>
      <trkpt lat="44.88128" lon="5.44627">
        <ele>1365.4</ele>
        <time>2021-10-08T15:23:16Z</time>
      </trkpt>
      <trkpt lat="44.88129" lon="5.44623">
        <ele>1365.6</ele>
        <time>2021-10-08T15:23:17Z</time>
      </trkpt>
      <trkpt lat="44.8813" lon="5.44619">
        <ele>1365.8</ele>
        <time>2021-10-08T15:23:18Z</time>
      </trkpt>
      <trkpt lat="44.88132" lon="5.44613">
        <ele>1365.8</ele>
        <time>2021-10-08T15:23:19Z</time>
      </trkpt>
      <trkpt lat="44.88134" lon="5.44607">
        <ele>1365.8</ele>
        <time>2021-10-08T15:23:20Z</time>
      </trkpt>
      <trkpt lat="44.88136" lon="5.44601">
        <ele>1364.8</ele>
        <time>2021-10-08T15:23:21Z</time>
      </trkpt>
      <trkpt lat="44.88138" lon="5.44594">
        <ele>1364.2</ele>
        <time>2021-10-08T15:23:22Z</time>
      </trkpt>
      <trkpt lat="44.88139" lon="5.44586">
        <ele>1364.2</ele>
        <time>2021-10-08T15:23:23Z</time>
      </trkpt>
      <trkpt lat="44.88141" lon="5.4458">
        <ele>1364.2</ele>
        <time>2021-10-08T15:23:24Z</time>
      </trkpt>
      <trkpt lat="44.88143" lon="5.44574">
        <ele>1363.8</ele>
        <time>2021-10-08T15:23:25Z</time>
      </trkpt>
      <trkpt lat="44.88144" lon="5.44567">
        <ele>1364</ele>
        <time>2021-10-08T15:23:26Z</time>
      </trkpt>
      <trkpt lat="44.88146" lon="5.4456">
        <ele>1364</ele>
        <time>2021-10-08T15:23:27Z</time>
      </trkpt>
      <trkpt lat="44.88147" lon="5.44552">
        <ele>1364</ele>
        <time>2021-10-08T15:23:28Z</time>
      </trkpt>
      <trkpt lat="44.88148" lon="5.44545">
        <ele>1363.8</ele>
        <time>2021-10-08T15:23:29Z</time>
      </trkpt>
      <trkpt lat="44.8815" lon="5.44538">
        <ele>1363.8</ele>
        <time>2021-10-08T15:23:30Z</time>
      </trkpt>
      <trkpt lat="44.88151" lon="5.4453">
        <ele>1363.8</ele>
        <time>2021-10-08T15:23:31Z</time>
      </trkpt>
      <trkpt lat="44.88151" lon="5.44522">
        <ele>1363.8</ele>
        <time>2021-10-08T15:23:32Z</time>
      </trkpt>
      <trkpt lat="44.88153" lon="5.44513">
        <ele>1363.8</ele>
        <time>2021-10-08T15:23:33Z</time>
      </trkpt>
      <trkpt lat="44.88154" lon="5.44505">
        <ele>1363.6</ele>
        <time>2021-10-08T15:23:34Z</time>
      </trkpt>
      <trkpt lat="44.88156" lon="5.44497">
        <ele>1363.6</ele>
        <time>2021-10-08T15:23:35Z</time>
      </trkpt>
      <trkpt lat="44.88157" lon="5.44489">
        <ele>1363.6</ele>
        <time>2021-10-08T15:23:36Z</time>
      </trkpt>
      <trkpt lat="44.88158" lon="5.44481">
        <ele>1363.6</ele>
        <time>2021-10-08T15:23:37Z</time>
      </trkpt>
      <trkpt lat="44.8816" lon="5.44473">
        <ele>1363.2</ele>
        <time>2021-10-08T15:23:38Z</time>
      </trkpt>
      <trkpt lat="44.88161" lon="5.44466">
        <ele>1363.2</ele>
        <time>2021-10-08T15:23:39Z</time>
      </trkpt>
      <trkpt lat="44.88162" lon="5.44458">
        <ele>1363.2</ele>
        <time>2021-10-08T15:23:40Z</time>
      </trkpt>
      <trkpt lat="44.88162" lon="5.44452">
        <ele>1364.2</ele>
        <time>2021-10-08T15:23:41Z</time>
      </trkpt>
      <trkpt lat="44.88162" lon="5.44446">
        <ele>1365.4</ele>
        <time>2021-10-08T15:23:42Z</time>
      </trkpt>
      <trkpt lat="44.88162" lon="5.44442">
        <ele>1365.4</ele>
        <time>2021-10-08T15:23:43Z</time>
      </trkpt>
      <trkpt lat="44.88161" lon="5.44438">
        <ele>1365.4</ele>
        <time>2021-10-08T15:23:44Z</time>
      </trkpt>
      <trkpt lat="44.88159" lon="5.44435">
        <ele>1364.8</ele>
        <time>2021-10-08T15:23:45Z</time>
      </trkpt>
      <trkpt lat="44.88158" lon="5.44433">
        <ele>1365.4</ele>
        <time>2021-10-08T15:23:46Z</time>
      </trkpt>
      <trkpt lat="44.88157" lon="5.44432">
        <ele>1365.4</ele>
        <time>2021-10-08T15:23:47Z</time>
      </trkpt>
      <trkpt lat="44.88157" lon="5.44432">
        <ele>1365.4</ele>
        <time>2021-10-08T15:23:48Z</time>
      </trkpt>
      <trkpt lat="44.88157" lon="5.44432">
        <ele>1365.4</ele>
        <time>2021-10-08T15:23:49Z</time>
      </trkpt>
      <trkpt lat="44.88154" lon="5.44427">
        <ele>1364.6</ele>
        <time>2021-10-08T15:24:23Z</time>
      </trkpt>
      <trkpt lat="44.88152" lon="5.44425">
        <ele>1364.6</ele>
        <time>2021-10-08T15:24:24Z</time>
      </trkpt>
      <trkpt lat="44.88151" lon="5.44423">
        <ele>1364.6</ele>
        <time>2021-10-08T15:24:25Z</time>
      </trkpt>
      <trkpt lat="44.88149" lon="5.44421">
        <ele>1364.8</ele>
        <time>2021-10-08T15:24:26Z</time>
      </trkpt>
      <trkpt lat="44.88147" lon="5.44419">
        <ele>1364.8</ele>
        <time>2021-10-08T15:24:27Z</time>
      </trkpt>
      <trkpt lat="44.88146" lon="5.44417">
        <ele>1364.8</ele>
        <time>2021-10-08T15:24:28Z</time>
      </trkpt>
      <trkpt lat="44.88145" lon="5.44415">
        <ele>1364.4</ele>
        <time>2021-10-08T15:24:29Z</time>
      </trkpt>
      <trkpt lat="44.88144" lon="5.44414">
        <ele>1364.4</ele>
        <time>2021-10-08T15:24:30Z</time>
      </trkpt>
      <trkpt lat="44.88143" lon="5.44413">
        <ele>1364.4</ele>
        <time>2021-10-08T15:24:31Z</time>
      </trkpt>
      <trkpt lat="44.88142" lon="5.44414">
        <ele>1364.4</ele>
        <time>2021-10-08T15:24:32Z</time>
      </trkpt>
      <trkpt lat="44.88143" lon="5.44416">
        <ele>1364.4</ele>
        <time>2021-10-08T15:24:33Z</time>
      </trkpt>
      <trkpt lat="44.88144" lon="5.44416">
        <ele>1364.8</ele>
        <time>2021-10-08T15:24:34Z</time>
      </trkpt>
      <trkpt lat="44.88146" lon="5.44418">
        <ele>1364.8</ele>
        <time>2021-10-08T15:24:35Z</time>
      </trkpt>
      <trkpt lat="44.88148" lon="5.4442">
        <ele>1364.8</ele>
        <time>2021-10-08T15:24:36Z</time>
      </trkpt>
      <trkpt lat="44.8815" lon="5.44423">
        <ele>1364.2</ele>
        <time>2021-10-08T15:24:37Z</time>
      </trkpt>
      <trkpt lat="44.88154" lon="5.44425">
        <ele>1364</ele>
        <time>2021-10-08T15:24:38Z</time>
      </trkpt>
      <trkpt lat="44.88158" lon="5.44428">
        <ele>1364</ele>
        <time>2021-10-08T15:24:39Z</time>
      </trkpt>
      <trkpt lat="44.88162" lon="5.44429">
        <ele>1364</ele>
        <time>2021-10-08T15:24:40Z</time>
      </trkpt>
      <trkpt lat="44.88165" lon="5.4443">
        <ele>1364</ele>
        <time>2021-10-08T15:24:41Z</time>
      </trkpt>
      <trkpt lat="44.88169" lon="5.44431">
        <ele>1364.6</ele>
        <time>2021-10-08T15:24:42Z</time>
      </trkpt>
      <trkpt lat="44.88172" lon="5.44432">
        <ele>1364.6</ele>
        <time>2021-10-08T15:24:43Z</time>
      </trkpt>
      <trkpt lat="44.88176" lon="5.44433">
        <ele>1364.6</ele>
        <time>2021-10-08T15:24:44Z</time>
      </trkpt>
      <trkpt lat="44.8818" lon="5.44434">
        <ele>1364.6</ele>
        <time>2021-10-08T15:24:45Z</time>
      </trkpt>
      <trkpt lat="44.88183" lon="5.44434">
        <ele>1364.8</ele>
        <time>2021-10-08T15:24:46Z</time>
      </trkpt>
      <trkpt lat="44.88186" lon="5.44435">
        <ele>1364.8</ele>
        <time>2021-10-08T15:24:47Z</time>
      </trkpt>
      <trkpt lat="44.88188" lon="5.44436">
        <ele>1364.8</ele>
        <time>2021-10-08T15:24:48Z</time>
      </trkpt>
      <trkpt lat="44.88189" lon="5.44436">
        <ele>1365</ele>
        <time>2021-10-08T15:24:49Z</time>
      </trkpt>
      <trkpt lat="44.8819" lon="5.44437">
        <ele>1365</ele>
        <time>2021-10-08T15:24:50Z</time>
      </trkpt>
      <trkpt lat="44.88192" lon="5.44437">
        <ele>1365</ele>
        <time>2021-10-08T15:24:51Z</time>
      </trkpt>
      <trkpt lat="44.88193" lon="5.44437">
        <ele>1365</ele>
        <time>2021-10-08T15:24:52Z</time>
      </trkpt>
      <trkpt lat="44.88194" lon="5.44438">
        <ele>1365</ele>
        <time>2021-10-08T15:24:53Z</time>
      </trkpt>
      <trkpt lat="44.88196" lon="5.44438">
        <ele>1365</ele>
        <time>2021-10-08T15:24:54Z</time>
      </trkpt>
      <trkpt lat="44.88197" lon="5.44438">
        <ele>1365</ele>
        <time>2021-10-08T15:24:55Z</time>
      </trkpt>
      <trkpt lat="44.88197" lon="5.44438">
        <ele>1365</ele>
        <time>2021-10-08T15:24:56Z</time>
      </trkpt>
      <trkpt lat="44.88197" lon="5.44438">
        <ele>1365</ele>
        <time>2021-10-08T15:24:57Z</time>
      </trkpt>
      <trkpt lat="44.8819" lon="5.44435">
        <ele>1365.4</ele>
        <time>2021-10-08T15:25:04Z</time>
      </trkpt>
      <trkpt lat="44.88187" lon="5.44434">
        <ele>1364.8</ele>
        <time>2021-10-08T15:25:05Z</time>
      </trkpt>
      <trkpt lat="44.88184" lon="5.44434">
        <ele>1364.2</ele>
        <time>2021-10-08T15:25:06Z</time>
      </trkpt>
      <trkpt lat="44.8818" lon="5.44432">
        <ele>1364.2</ele>
        <time>2021-10-08T15:25:07Z</time>
      </trkpt>
      <trkpt lat="44.88177" lon="5.4443">
        <ele>1364.2</ele>
        <time>2021-10-08T15:25:08Z</time>
      </trkpt>
      <trkpt lat="44.88174" lon="5.44428">
        <ele>1365</ele>
        <time>2021-10-08T15:25:09Z</time>
      </trkpt>
      <trkpt lat="44.8817" lon="5.44425">
        <ele>1365.2</ele>
        <time>2021-10-08T15:25:10Z</time>
      </trkpt>
      <trkpt lat="44.88167" lon="5.44421">
        <ele>1365.2</ele>
        <time>2021-10-08T15:25:11Z</time>
      </trkpt>
      <trkpt lat="44.88164" lon="5.44417">
        <ele>1365.2</ele>
        <time>2021-10-08T15:25:12Z</time>
      </trkpt>
      <trkpt lat="44.88162" lon="5.44413">
        <ele>1364.4</ele>
        <time>2021-10-08T15:25:13Z</time>
      </trkpt>
      <trkpt lat="44.88161" lon="5.44409">
        <ele>1365</ele>
        <time>2021-10-08T15:25:14Z</time>
      </trkpt>
      <trkpt lat="44.88161" lon="5.44405">
        <ele>1365</ele>
        <time>2021-10-08T15:25:15Z</time>
      </trkpt>
      <trkpt lat="44.88161" lon="5.44402">
        <ele>1365</ele>
        <time>2021-10-08T15:25:16Z</time>
      </trkpt>
      <trkpt lat="44.88159" lon="5.44399">
        <ele>1365.2</ele>
        <time>2021-10-08T15:25:17Z</time>
      </trkpt>
      <trkpt lat="44.88158" lon="5.44397">
        <ele>1365</ele>
        <time>2021-10-08T15:25:18Z</time>
      </trkpt>
      <trkpt lat="44.88157" lon="5.44395">
        <ele>1365</ele>
        <time>2021-10-08T15:25:19Z</time>
      </trkpt>
      <trkpt lat="44.88158" lon="5.44393">
        <ele>1365</ele>
        <time>2021-10-08T15:25:20Z</time>
      </trkpt>
      <trkpt lat="44.88157" lon="5.4439">
        <ele>1365</ele>
        <time>2021-10-08T15:25:21Z</time>
      </trkpt>
      <trkpt lat="44.88156" lon="5.44387">
        <ele>1365.2</ele>
        <time>2021-10-08T15:25:22Z</time>
      </trkpt>
      <trkpt lat="44.88155" lon="5.44384">
        <ele>1365.2</ele>
        <time>2021-10-08T15:25:23Z</time>
      </trkpt>
      <trkpt lat="44.88154" lon="5.44381">
        <ele>1365.2</ele>
        <time>2021-10-08T15:25:24Z</time>
      </trkpt>
      <trkpt lat="44.88152" lon="5.44379">
        <ele>1365.2</ele>
        <time>2021-10-08T15:25:25Z</time>
      </trkpt>
      <trkpt lat="44.88151" lon="5.44376">
        <ele>1365.4</ele>
        <time>2021-10-08T15:25:26Z</time>
      </trkpt>
      <trkpt lat="44.88151" lon="5.44373">
        <ele>1365.4</ele>
        <time>2021-10-08T15:25:27Z</time>
      </trkpt>
      <trkpt lat="44.8815" lon="5.44369">
        <ele>1365.4</ele>
        <time>2021-10-08T15:25:28Z</time>
      </trkpt>
      <trkpt lat="44.88149" lon="5.44365">
        <ele>1365.4</ele>
        <time>2021-10-08T15:25:29Z</time>
      </trkpt>
      <trkpt lat="44.88149" lon="5.44361">
        <ele>1365.2</ele>
        <time>2021-10-08T15:25:30Z</time>
      </trkpt>
      <trkpt lat="44.88148" lon="5.44357">
        <ele>1365.2</ele>
        <time>2021-10-08T15:25:31Z</time>
      </trkpt>
      <trkpt lat="44.88148" lon="5.44353">
        <ele>1365.2</ele>
        <time>2021-10-08T15:25:32Z</time>
      </trkpt>
      <trkpt lat="44.88147" lon="5.44349">
        <ele>1364.2</ele>
        <time>2021-10-08T15:25:33Z</time>
      </trkpt>
      <trkpt lat="44.88147" lon="5.44345">
        <ele>1363.8</ele>
        <time>2021-10-08T15:25:34Z</time>
      </trkpt>
      <trkpt lat="44.88147" lon="5.44341">
        <ele>1363.8</ele>
        <time>2021-10-08T15:25:35Z</time>
      </trkpt>
      <trkpt lat="44.88147" lon="5.44337">
        <ele>1363.8</ele>
        <time>2021-10-08T15:25:36Z</time>
      </trkpt>
      <trkpt lat="44.88148" lon="5.44333">
        <ele>1363.4</ele>
        <time>2021-10-08T15:25:37Z</time>
      </trkpt>
      <trkpt lat="44.88149" lon="5.44329">
        <ele>1363.4</ele>
        <time>2021-10-08T15:25:38Z</time>
      </trkpt>
      <trkpt lat="44.8815" lon="5.44325">
        <ele>1363.4</ele>
        <time>2021-10-08T15:25:39Z</time>
      </trkpt>
      <trkpt lat="44.88152" lon="5.44321">
        <ele>1363.4</ele>
        <time>2021-10-08T15:25:40Z</time>
      </trkpt>
      <trkpt lat="44.88154" lon="5.44319">
        <ele>1363.4</ele>
        <time>2021-10-08T15:25:41Z</time>
      </trkpt>
      <trkpt lat="44.88156" lon="5.44317">
        <ele>1365.4</ele>
        <time>2021-10-08T15:25:42Z</time>
      </trkpt>
      <trkpt lat="44.88156" lon="5.44314">
        <ele>1365.4</ele>
        <time>2021-10-08T15:25:43Z</time>
      </trkpt>
      <trkpt lat="44.88155" lon="5.44313">
        <ele>1365.4</ele>
        <time>2021-10-08T15:25:44Z</time>
      </trkpt>
      <trkpt lat="44.88155" lon="5.44311">
        <ele>1366.2</ele>
        <time>2021-10-08T15:25:45Z</time>
      </trkpt>
      <trkpt lat="44.88156" lon="5.4431">
        <ele>1366</ele>
        <time>2021-10-08T15:25:46Z</time>
      </trkpt>
      <trkpt lat="44.88155" lon="5.44309">
        <ele>1366</ele>
        <time>2021-10-08T15:25:47Z</time>
      </trkpt>
      <trkpt lat="44.88155" lon="5.44309">
        <ele>1366</ele>
        <time>2021-10-08T15:25:48Z</time>
      </trkpt>
      <trkpt lat="44.88157" lon="5.44315">
        <ele>1365.8</ele>
        <time>2021-10-08T15:26:12Z</time>
      </trkpt>
      <trkpt lat="44.88156" lon="5.44317">
        <ele>1364.8</ele>
        <time>2021-10-08T15:26:13Z</time>
      </trkpt>
      <trkpt lat="44.88154" lon="5.44318">
        <ele>1364.8</ele>
        <time>2021-10-08T15:26:14Z</time>
      </trkpt>
      <trkpt lat="44.88153" lon="5.44319">
        <ele>1364.8</ele>
        <time>2021-10-08T15:26:15Z</time>
      </trkpt>
      <trkpt lat="44.88151" lon="5.4432">
        <ele>1364.8</ele>
        <time>2021-10-08T15:26:16Z</time>
      </trkpt>
      <trkpt lat="44.8815" lon="5.44322">
        <ele>1364.2</ele>
        <time>2021-10-08T15:26:17Z</time>
      </trkpt>
      <trkpt lat="44.8815" lon="5.44324">
        <ele>1364.4</ele>
        <time>2021-10-08T15:26:18Z</time>
      </trkpt>
      <trkpt lat="44.8815" lon="5.44326">
        <ele>1364.4</ele>
        <time>2021-10-08T15:26:19Z</time>
      </trkpt>
      <trkpt lat="44.88149" lon="5.44328">
        <ele>1364.4</ele>
        <time>2021-10-08T15:26:20Z</time>
      </trkpt>
      <trkpt lat="44.88149" lon="5.4433">
        <ele>1364</ele>
        <time>2021-10-08T15:26:21Z</time>
      </trkpt>
      <trkpt lat="44.88148" lon="5.44331">
        <ele>1364.4</ele>
        <time>2021-10-08T15:26:22Z</time>
      </trkpt>
      <trkpt lat="44.88148" lon="5.44333">
        <ele>1364.4</ele>
        <time>2021-10-08T15:26:23Z</time>
      </trkpt>
      <trkpt lat="44.88148" lon="5.44335">
        <ele>1364.4</ele>
        <time>2021-10-08T15:26:24Z</time>
      </trkpt>
      <trkpt lat="44.88148" lon="5.44336">
        <ele>1364.4</ele>
        <time>2021-10-08T15:26:25Z</time>
      </trkpt>
      <trkpt lat="44.88148" lon="5.44338">
        <ele>1364.6</ele>
        <time>2021-10-08T15:26:26Z</time>
      </trkpt>
      <trkpt lat="44.88147" lon="5.4434">
        <ele>1364.6</ele>
        <time>2021-10-08T15:26:27Z</time>
      </trkpt>
      <trkpt lat="44.88147" lon="5.44341">
        <ele>1364.6</ele>
        <time>2021-10-08T15:26:28Z</time>
      </trkpt>
      <trkpt lat="44.88147" lon="5.44343">
        <ele>1364.6</ele>
        <time>2021-10-08T15:26:29Z</time>
      </trkpt>
      <trkpt lat="44.88147" lon="5.44344">
        <ele>1364.8</ele>
        <time>2021-10-08T15:26:30Z</time>
      </trkpt>
      <trkpt lat="44.88147" lon="5.44346">
        <ele>1364.8</ele>
        <time>2021-10-08T15:26:31Z</time>
      </trkpt>
      <trkpt lat="44.88148" lon="5.44348">
        <ele>1364.8</ele>
        <time>2021-10-08T15:26:32Z</time>
      </trkpt>
      <trkpt lat="44.88148" lon="5.4435">
        <ele>1364.8</ele>
        <time>2021-10-08T15:26:33Z</time>
      </trkpt>
      <trkpt lat="44.88148" lon="5.44352">
        <ele>1364.6</ele>
        <time>2021-10-08T15:26:34Z</time>
      </trkpt>
      <trkpt lat="44.88148" lon="5.44354">
        <ele>1364.6</ele>
        <time>2021-10-08T15:26:35Z</time>
      </trkpt>
      <trkpt lat="44.88149" lon="5.44356">
        <ele>1364.6</ele>
        <time>2021-10-08T15:26:36Z</time>
      </trkpt>
      <trkpt lat="44.88149" lon="5.44357">
        <ele>1364.6</ele>
        <time>2021-10-08T15:26:37Z</time>
      </trkpt>
      <trkpt lat="44.8815" lon="5.44359">
        <ele>1365.2</ele>
        <time>2021-10-08T15:26:38Z</time>
      </trkpt>
      <trkpt lat="44.8815" lon="5.4436">
        <ele>1365.2</ele>
        <time>2021-10-08T15:26:39Z</time>
      </trkpt>
      <trkpt lat="44.8815" lon="5.44362">
        <ele>1365.2</ele>
        <time>2021-10-08T15:26:40Z</time>
      </trkpt>
      <trkpt lat="44.8815" lon="5.44364">
        <ele>1365.2</ele>
        <time>2021-10-08T15:26:41Z</time>
      </trkpt>
      <trkpt lat="44.8815" lon="5.44365">
        <ele>1365.8</ele>
        <time>2021-10-08T15:26:42Z</time>
      </trkpt>
      <trkpt lat="44.8815" lon="5.44366">
        <ele>1365.8</ele>
        <time>2021-10-08T15:26:43Z</time>
      </trkpt>
      <trkpt lat="44.88151" lon="5.44368">
        <ele>1365.8</ele>
        <time>2021-10-08T15:26:44Z</time>
      </trkpt>
      <trkpt lat="44.88151" lon="5.44369">
        <ele>1365.8</ele>
        <time>2021-10-08T15:26:45Z</time>
      </trkpt>
      <trkpt lat="44.88151" lon="5.44371">
        <ele>1365.8</ele>
        <time>2021-10-08T15:26:46Z</time>
      </trkpt>
      <trkpt lat="44.88151" lon="5.44372">
        <ele>1365.8</ele>
        <time>2021-10-08T15:26:47Z</time>
      </trkpt>
      <trkpt lat="44.88152" lon="5.44373">
        <ele>1365.8</ele>
        <time>2021-10-08T15:26:48Z</time>
      </trkpt>
      <trkpt lat="44.88152" lon="5.44375">
        <ele>1365.8</ele>
        <time>2021-10-08T15:26:49Z</time>
      </trkpt>
      <trkpt lat="44.88152" lon="5.44376">
        <ele>1366.2</ele>
        <time>2021-10-08T15:26:50Z</time>
      </trkpt>
      <trkpt lat="44.88152" lon="5.44378">
        <ele>1366.2</ele>
        <time>2021-10-08T15:26:51Z</time>
      </trkpt>
      <trkpt lat="44.88153" lon="5.44379">
        <ele>1366.2</ele>
        <time>2021-10-08T15:26:52Z</time>
      </trkpt>
      <trkpt lat="44.88154" lon="5.4438">
        <ele>1365.4</ele>
        <time>2021-10-08T15:26:53Z</time>
      </trkpt>
      <trkpt lat="44.88155" lon="5.4438">
        <ele>1365.8</ele>
        <time>2021-10-08T15:26:54Z</time>
      </trkpt>
      <trkpt lat="44.88155" lon="5.44379">
        <ele>1365.8</ele>
        <time>2021-10-08T15:26:55Z</time>
      </trkpt>
      <trkpt lat="44.88155" lon="5.44387">
        <ele>1365.4</ele>
        <time>2021-10-08T15:32:37Z</time>
      </trkpt>
      <trkpt lat="44.88155" lon="5.4439">
        <ele>1365.6</ele>
        <time>2021-10-08T15:32:38Z</time>
      </trkpt>
      <trkpt lat="44.88156" lon="5.44392">
        <ele>1365.6</ele>
        <time>2021-10-08T15:32:39Z</time>
      </trkpt>
      <trkpt lat="44.88157" lon="5.44395">
        <ele>1365.6</ele>
        <time>2021-10-08T15:32:40Z</time>
      </trkpt>
      <trkpt lat="44.88158" lon="5.44398">
        <ele>1365.6</ele>
        <time>2021-10-08T15:32:41Z</time>
      </trkpt>
      <trkpt lat="44.8816" lon="5.44401">
        <ele>1365.4</ele>
        <time>2021-10-08T15:32:42Z</time>
      </trkpt>
      <trkpt lat="44.8816" lon="5.44405">
        <ele>1365.4</ele>
        <time>2021-10-08T15:32:43Z</time>
      </trkpt>
      <trkpt lat="44.8816" lon="5.44408">
        <ele>1365.4</ele>
        <time>2021-10-08T15:32:44Z</time>
      </trkpt>
      <trkpt lat="44.8816" lon="5.44412">
        <ele>1365.4</ele>
        <time>2021-10-08T15:32:45Z</time>
      </trkpt>
      <trkpt lat="44.88161" lon="5.44415">
        <ele>1365.4</ele>
        <time>2021-10-08T15:32:46Z</time>
      </trkpt>
      <trkpt lat="44.88163" lon="5.44418">
        <ele>1365.4</ele>
        <time>2021-10-08T15:32:47Z</time>
      </trkpt>
      <trkpt lat="44.88165" lon="5.44421">
        <ele>1365.4</ele>
        <time>2021-10-08T15:32:48Z</time>
      </trkpt>
      <trkpt lat="44.88168" lon="5.44424">
        <ele>1365.4</ele>
        <time>2021-10-08T15:32:49Z</time>
      </trkpt>
      <trkpt lat="44.88171" lon="5.44427">
        <ele>1365.2</ele>
        <time>2021-10-08T15:32:50Z</time>
      </trkpt>
      <trkpt lat="44.88174" lon="5.44428">
        <ele>1365.2</ele>
        <time>2021-10-08T15:32:51Z</time>
      </trkpt>
      <trkpt lat="44.88178" lon="5.4443">
        <ele>1365.2</ele>
        <time>2021-10-08T15:32:52Z</time>
      </trkpt>
      <trkpt lat="44.88182" lon="5.44431">
        <ele>1364.4</ele>
        <time>2021-10-08T15:32:53Z</time>
      </trkpt>
      <trkpt lat="44.88186" lon="5.44433">
        <ele>1364.6</ele>
        <time>2021-10-08T15:32:54Z</time>
      </trkpt>
      <trkpt lat="44.8819" lon="5.44434">
        <ele>1364.6</ele>
        <time>2021-10-08T15:32:55Z</time>
      </trkpt>
      <trkpt lat="44.88194" lon="5.44435">
        <ele>1364.6</ele>
        <time>2021-10-08T15:32:56Z</time>
      </trkpt>
      <trkpt lat="44.88198" lon="5.44436">
        <ele>1364.2</ele>
        <time>2021-10-08T15:32:57Z</time>
      </trkpt>
      <trkpt lat="44.88202" lon="5.44437">
        <ele>1364.4</ele>
        <time>2021-10-08T15:32:58Z</time>
      </trkpt>
      <trkpt lat="44.88206" lon="5.44438">
        <ele>1364.4</ele>
        <time>2021-10-08T15:32:59Z</time>
      </trkpt>
      <trkpt lat="44.88209" lon="5.44439">
        <ele>1364.4</ele>
        <time>2021-10-08T15:33:00Z</time>
      </trkpt>
      <trkpt lat="44.88213" lon="5.4444">
        <ele>1364.8</ele>
        <time>2021-10-08T15:33:01Z</time>
      </trkpt>
      <trkpt lat="44.88216" lon="5.44441">
        <ele>1365.2</ele>
        <time>2021-10-08T15:33:02Z</time>
      </trkpt>
      <trkpt lat="44.8822" lon="5.44442">
        <ele>1365.2</ele>
        <time>2021-10-08T15:33:03Z</time>
      </trkpt>
      <trkpt lat="44.88223" lon="5.44443">
        <ele>1365.2</ele>
        <time>2021-10-08T15:33:04Z</time>
      </trkpt>
      <trkpt lat="44.88227" lon="5.44444">
        <ele>1365.2</ele>
        <time>2021-10-08T15:33:05Z</time>
      </trkpt>
      <trkpt lat="44.88231" lon="5.44445">
        <ele>1364</ele>
        <time>2021-10-08T15:33:06Z</time>
      </trkpt>
      <trkpt lat="44.88236" lon="5.44446">
        <ele>1364</ele>
        <time>2021-10-08T15:33:07Z</time>
      </trkpt>
      <trkpt lat="44.8824" lon="5.44448">
        <ele>1364</ele>
        <time>2021-10-08T15:33:08Z</time>
      </trkpt>
      <trkpt lat="44.88244" lon="5.4445">
        <ele>1363.2</ele>
        <time>2021-10-08T15:33:09Z</time>
      </trkpt>
      <trkpt lat="44.88248" lon="5.44453">
        <ele>1363.2</ele>
        <time>2021-10-08T15:33:10Z</time>
      </trkpt>
      <trkpt lat="44.88252" lon="5.44457">
        <ele>1363.2</ele>
        <time>2021-10-08T15:33:11Z</time>
      </trkpt>
      <trkpt lat="44.88256" lon="5.44462">
        <ele>1363.2</ele>
        <time>2021-10-08T15:33:12Z</time>
      </trkpt>
      <trkpt lat="44.88261" lon="5.44467">
        <ele>1362.2</ele>
        <time>2021-10-08T15:33:13Z</time>
      </trkpt>
      <trkpt lat="44.88265" lon="5.44472">
        <ele>1361.2</ele>
        <time>2021-10-08T15:33:14Z</time>
      </trkpt>
      <trkpt lat="44.88268" lon="5.44477">
        <ele>1361.2</ele>
        <time>2021-10-08T15:33:15Z</time>
      </trkpt>
      <trkpt lat="44.88272" lon="5.44484">
        <ele>1361.2</ele>
        <time>2021-10-08T15:33:16Z</time>
      </trkpt>
      <trkpt lat="44.88276" lon="5.4449">
        <ele>1360.2</ele>
        <time>2021-10-08T15:33:17Z</time>
      </trkpt>
      <trkpt lat="44.88281" lon="5.44497">
        <ele>1359.4</ele>
        <time>2021-10-08T15:33:18Z</time>
      </trkpt>
      <trkpt lat="44.88284" lon="5.44504">
        <ele>1359.4</ele>
        <time>2021-10-08T15:33:19Z</time>
      </trkpt>
      <trkpt lat="44.88288" lon="5.44511">
        <ele>1359.4</ele>
        <time>2021-10-08T15:33:20Z</time>
      </trkpt>
      <trkpt lat="44.88292" lon="5.44517">
        <ele>1358.4</ele>
        <time>2021-10-08T15:33:21Z</time>
      </trkpt>
      <trkpt lat="44.88297" lon="5.44522">
        <ele>1357.2</ele>
        <time>2021-10-08T15:33:22Z</time>
      </trkpt>
      <trkpt lat="44.88303" lon="5.44524">
        <ele>1357.2</ele>
        <time>2021-10-08T15:33:23Z</time>
      </trkpt>
      <trkpt lat="44.8831" lon="5.44525">
        <ele>1357.2</ele>
        <time>2021-10-08T15:33:24Z</time>
      </trkpt>
      <trkpt lat="44.88318" lon="5.44524">
        <ele>1356.2</ele>
        <time>2021-10-08T15:33:25Z</time>
      </trkpt>
      <trkpt lat="44.88325" lon="5.44521">
        <ele>1354</ele>
        <time>2021-10-08T15:33:26Z</time>
      </trkpt>
      <trkpt lat="44.88332" lon="5.44518">
        <ele>1354</ele>
        <time>2021-10-08T15:33:27Z</time>
      </trkpt>
      <trkpt lat="44.88339" lon="5.44514">
        <ele>1354</ele>
        <time>2021-10-08T15:33:28Z</time>
      </trkpt>
      <trkpt lat="44.88346" lon="5.44511">
        <ele>1353</ele>
        <time>2021-10-08T15:33:29Z</time>
      </trkpt>
      <trkpt lat="44.88354" lon="5.44507">
        <ele>1350.2</ele>
        <time>2021-10-08T15:33:30Z</time>
      </trkpt>
      <trkpt lat="44.88362" lon="5.44504">
        <ele>1350.2</ele>
        <time>2021-10-08T15:33:31Z</time>
      </trkpt>
      <trkpt lat="44.8837" lon="5.44501">
        <ele>1350.2</ele>
        <time>2021-10-08T15:33:32Z</time>
      </trkpt>
      <trkpt lat="44.88379" lon="5.44498">
        <ele>1349.2</ele>
        <time>2021-10-08T15:33:33Z</time>
      </trkpt>
      <trkpt lat="44.88387" lon="5.44494">
        <ele>1349</ele>
        <time>2021-10-08T15:33:34Z</time>
      </trkpt>
      <trkpt lat="44.88395" lon="5.44489">
        <ele>1349</ele>
        <time>2021-10-08T15:33:35Z</time>
      </trkpt>
      <trkpt lat="44.88402" lon="5.44484">
        <ele>1349</ele>
        <time>2021-10-08T15:33:36Z</time>
      </trkpt>
      <trkpt lat="44.88409" lon="5.44477">
        <ele>1349</ele>
        <time>2021-10-08T15:33:37Z</time>
      </trkpt>
      <trkpt lat="44.88415" lon="5.4447">
        <ele>1349.4</ele>
        <time>2021-10-08T15:33:38Z</time>
      </trkpt>
      <trkpt lat="44.8842" lon="5.44463">
        <ele>1349.4</ele>
        <time>2021-10-08T15:33:39Z</time>
      </trkpt>
      <trkpt lat="44.88425" lon="5.44456">
        <ele>1349.4</ele>
        <time>2021-10-08T15:33:40Z</time>
      </trkpt>
      <trkpt lat="44.8843" lon="5.44448">
        <ele>1348.4</ele>
        <time>2021-10-08T15:33:41Z</time>
      </trkpt>
      <trkpt lat="44.88434" lon="5.4444">
        <ele>1348.2</ele>
        <time>2021-10-08T15:33:42Z</time>
      </trkpt>
      <trkpt lat="44.88438" lon="5.44433">
        <ele>1348.2</ele>
        <time>2021-10-08T15:33:43Z</time>
      </trkpt>
      <trkpt lat="44.88442" lon="5.44427">
        <ele>1348.2</ele>
        <time>2021-10-08T15:33:44Z</time>
      </trkpt>
      <trkpt lat="44.88446" lon="5.4442">
        <ele>1348.2</ele>
        <time>2021-10-08T15:33:45Z</time>
      </trkpt>
      <trkpt lat="44.8845" lon="5.44414">
        <ele>1348.4</ele>
        <time>2021-10-08T15:33:46Z</time>
      </trkpt>
      <trkpt lat="44.88454" lon="5.44407">
        <ele>1348.4</ele>
        <time>2021-10-08T15:33:47Z</time>
      </trkpt>
      <trkpt lat="44.88459" lon="5.44401">
        <ele>1348.4</ele>
        <time>2021-10-08T15:33:48Z</time>
      </trkpt>
      <trkpt lat="44.88462" lon="5.44394">
        <ele>1347.6</ele>
        <time>2021-10-08T15:33:49Z</time>
      </trkpt>
      <trkpt lat="44.88467" lon="5.44387">
        <ele>1347.4</ele>
        <time>2021-10-08T15:33:50Z</time>
      </trkpt>
      <trkpt lat="44.8847" lon="5.4438">
        <ele>1347.4</ele>
        <time>2021-10-08T15:33:51Z</time>
      </trkpt>
      <trkpt lat="44.88474" lon="5.44373">
        <ele>1347.4</ele>
        <time>2021-10-08T15:33:52Z</time>
      </trkpt>
      <trkpt lat="44.88478" lon="5.44366">
        <ele>1347.2</ele>
        <time>2021-10-08T15:33:53Z</time>
      </trkpt>
      <trkpt lat="44.88482" lon="5.44358">
        <ele>1347</ele>
        <time>2021-10-08T15:33:54Z</time>
      </trkpt>
      <trkpt lat="44.88486" lon="5.44351">
        <ele>1347</ele>
        <time>2021-10-08T15:33:55Z</time>
      </trkpt>
      <trkpt lat="44.8849" lon="5.44344">
        <ele>1347</ele>
        <time>2021-10-08T15:33:56Z</time>
      </trkpt>
      <trkpt lat="44.88493" lon="5.44337">
        <ele>1347.2</ele>
        <time>2021-10-08T15:33:57Z</time>
      </trkpt>
      <trkpt lat="44.88497" lon="5.4433">
        <ele>1347.8</ele>
        <time>2021-10-08T15:33:58Z</time>
      </trkpt>
      <trkpt lat="44.88501" lon="5.44323">
        <ele>1347.8</ele>
        <time>2021-10-08T15:33:59Z</time>
      </trkpt>
      <trkpt lat="44.88504" lon="5.44316">
        <ele>1347.8</ele>
        <time>2021-10-08T15:34:00Z</time>
      </trkpt>
      <trkpt lat="44.88509" lon="5.4431">
        <ele>1347.4</ele>
        <time>2021-10-08T15:34:01Z</time>
      </trkpt>
      <trkpt lat="44.88512" lon="5.44303">
        <ele>1347.8</ele>
        <time>2021-10-08T15:34:02Z</time>
      </trkpt>
      <trkpt lat="44.88516" lon="5.44296">
        <ele>1347.8</ele>
        <time>2021-10-08T15:34:03Z</time>
      </trkpt>
      <trkpt lat="44.88519" lon="5.4429">
        <ele>1347.8</ele>
        <time>2021-10-08T15:34:04Z</time>
      </trkpt>
      <trkpt lat="44.88523" lon="5.44284">
        <ele>1347.8</ele>
        <time>2021-10-08T15:34:05Z</time>
      </trkpt>
      <trkpt lat="44.88527" lon="5.44278">
        <ele>1347.8</ele>
        <time>2021-10-08T15:34:06Z</time>
      </trkpt>
      <trkpt lat="44.88531" lon="5.44273">
        <ele>1347.8</ele>
        <time>2021-10-08T15:34:07Z</time>
      </trkpt>
      <trkpt lat="44.88534" lon="5.44268">
        <ele>1347.8</ele>
        <time>2021-10-08T15:34:08Z</time>
      </trkpt>
      <trkpt lat="44.88537" lon="5.44264">
        <ele>1348.8</ele>
        <time>2021-10-08T15:34:09Z</time>
      </trkpt>
      <trkpt lat="44.88539" lon="5.44261">
        <ele>1349.2</ele>
        <time>2021-10-08T15:34:10Z</time>
      </trkpt>
      <trkpt lat="44.88541" lon="5.44258">
        <ele>1349.2</ele>
        <time>2021-10-08T15:34:11Z</time>
      </trkpt>
      <trkpt lat="44.88543" lon="5.44255">
        <ele>1349.2</ele>
        <time>2021-10-08T15:34:12Z</time>
      </trkpt>
      <trkpt lat="44.88545" lon="5.44254">
        <ele>1349.2</ele>
        <time>2021-10-08T15:34:13Z</time>
      </trkpt>
      <trkpt lat="44.88547" lon="5.44253">
        <ele>1349.2</ele>
        <time>2021-10-08T15:34:14Z</time>
      </trkpt>
      <trkpt lat="44.88549" lon="5.44251">
        <ele>1349.2</ele>
        <time>2021-10-08T15:34:15Z</time>
      </trkpt>
      <trkpt lat="44.88552" lon="5.4425">
        <ele>1349.2</ele>
        <time>2021-10-08T15:34:16Z</time>
      </trkpt>
      <trkpt lat="44.88555" lon="5.44249">
        <ele>1349.2</ele>
        <time>2021-10-08T15:34:17Z</time>
      </trkpt>
      <trkpt lat="44.88558" lon="5.44247">
        <ele>1348.6</ele>
        <time>2021-10-08T15:34:18Z</time>
      </trkpt>
      <trkpt lat="44.88562" lon="5.44245">
        <ele>1348.6</ele>
        <time>2021-10-08T15:34:19Z</time>
      </trkpt>
      <trkpt lat="44.88566" lon="5.44244">
        <ele>1348.6</ele>
        <time>2021-10-08T15:34:20Z</time>
      </trkpt>
      <trkpt lat="44.8857" lon="5.44242">
        <ele>1348.6</ele>
        <time>2021-10-08T15:34:21Z</time>
      </trkpt>
      <trkpt lat="44.88574" lon="5.44241">
        <ele>1348.2</ele>
        <time>2021-10-08T15:34:22Z</time>
      </trkpt>
      <trkpt lat="44.88578" lon="5.4424">
        <ele>1348.2</ele>
        <time>2021-10-08T15:34:23Z</time>
      </trkpt>
      <trkpt lat="44.88582" lon="5.44239">
        <ele>1348.2</ele>
        <time>2021-10-08T15:34:24Z</time>
      </trkpt>
      <trkpt lat="44.88587" lon="5.44238">
        <ele>1348.2</ele>
        <time>2021-10-08T15:34:25Z</time>
      </trkpt>
      <trkpt lat="44.8859" lon="5.44237">
        <ele>1348.4</ele>
        <time>2021-10-08T15:34:26Z</time>
      </trkpt>
      <trkpt lat="44.88594" lon="5.44236">
        <ele>1348.4</ele>
        <time>2021-10-08T15:34:27Z</time>
      </trkpt>
      <trkpt lat="44.88597" lon="5.44235">
        <ele>1348.4</ele>
        <time>2021-10-08T15:34:28Z</time>
      </trkpt>
      <trkpt lat="44.88601" lon="5.44234">
        <ele>1348.4</ele>
        <time>2021-10-08T15:34:29Z</time>
      </trkpt>
      <trkpt lat="44.88605" lon="5.44233">
        <ele>1347.8</ele>
        <time>2021-10-08T15:34:30Z</time>
      </trkpt>
      <trkpt lat="44.88609" lon="5.44232">
        <ele>1347.8</ele>
        <time>2021-10-08T15:34:31Z</time>
      </trkpt>
      <trkpt lat="44.88613" lon="5.4423">
        <ele>1347.8</ele>
        <time>2021-10-08T15:34:32Z</time>
      </trkpt>
      <trkpt lat="44.88616" lon="5.44228">
        <ele>1348</ele>
        <time>2021-10-08T15:34:33Z</time>
      </trkpt>
      <trkpt lat="44.8862" lon="5.44228">
        <ele>1347.2</ele>
        <time>2021-10-08T15:34:34Z</time>
      </trkpt>
      <trkpt lat="44.88625" lon="5.44227">
        <ele>1347.2</ele>
        <time>2021-10-08T15:34:35Z</time>
      </trkpt>
      <trkpt lat="44.88629" lon="5.44225">
        <ele>1347.2</ele>
        <time>2021-10-08T15:34:36Z</time>
      </trkpt>
      <trkpt lat="44.88632" lon="5.44222">
        <ele>1347.2</ele>
        <time>2021-10-08T15:34:37Z</time>
      </trkpt>
      <trkpt lat="44.88635" lon="5.44219">
        <ele>1347.2</ele>
        <time>2021-10-08T15:34:38Z</time>
      </trkpt>
      <trkpt lat="44.88638" lon="5.44215">
        <ele>1347.2</ele>
        <time>2021-10-08T15:34:39Z</time>
      </trkpt>
      <trkpt lat="44.8864" lon="5.44211">
        <ele>1347.2</ele>
        <time>2021-10-08T15:34:40Z</time>
      </trkpt>
      <trkpt lat="44.88641" lon="5.44208">
        <ele>1347.2</ele>
        <time>2021-10-08T15:34:41Z</time>
      </trkpt>
      <trkpt lat="44.88643" lon="5.44203">
        <ele>1345.6</ele>
        <time>2021-10-08T15:34:42Z</time>
      </trkpt>
      <trkpt lat="44.88645" lon="5.44198">
        <ele>1345.6</ele>
        <time>2021-10-08T15:34:43Z</time>
      </trkpt>
      <trkpt lat="44.88647" lon="5.44193">
        <ele>1345.6</ele>
        <time>2021-10-08T15:34:44Z</time>
      </trkpt>
      <trkpt lat="44.8865" lon="5.44188">
        <ele>1345.6</ele>
        <time>2021-10-08T15:34:45Z</time>
      </trkpt>
      <trkpt lat="44.88651" lon="5.44182">
        <ele>1343.8</ele>
        <time>2021-10-08T15:34:46Z</time>
      </trkpt>
      <trkpt lat="44.88652" lon="5.44175">
        <ele>1343.8</ele>
        <time>2021-10-08T15:34:47Z</time>
      </trkpt>
      <trkpt lat="44.88654" lon="5.44167">
        <ele>1343.8</ele>
        <time>2021-10-08T15:34:48Z</time>
      </trkpt>
      <trkpt lat="44.88655" lon="5.44159">
        <ele>1342.8</ele>
        <time>2021-10-08T15:34:49Z</time>
      </trkpt>
      <trkpt lat="44.88656" lon="5.44152">
        <ele>1341</ele>
        <time>2021-10-08T15:34:50Z</time>
      </trkpt>
      <trkpt lat="44.88657" lon="5.44143">
        <ele>1341</ele>
        <time>2021-10-08T15:34:51Z</time>
      </trkpt>
      <trkpt lat="44.88656" lon="5.44134">
        <ele>1341</ele>
        <time>2021-10-08T15:34:52Z</time>
      </trkpt>
      <trkpt lat="44.88656" lon="5.44126">
        <ele>1340</ele>
        <time>2021-10-08T15:34:53Z</time>
      </trkpt>
      <trkpt lat="44.88655" lon="5.44117">
        <ele>1339.2</ele>
        <time>2021-10-08T15:34:54Z</time>
      </trkpt>
      <trkpt lat="44.88655" lon="5.44109">
        <ele>1339.2</ele>
        <time>2021-10-08T15:34:55Z</time>
      </trkpt>
      <trkpt lat="44.88653" lon="5.44101">
        <ele>1339.2</ele>
        <time>2021-10-08T15:34:56Z</time>
      </trkpt>
      <trkpt lat="44.8865" lon="5.44093">
        <ele>1338.2</ele>
        <time>2021-10-08T15:34:57Z</time>
      </trkpt>
      <trkpt lat="44.88646" lon="5.44086">
        <ele>1336.4</ele>
        <time>2021-10-08T15:34:58Z</time>
      </trkpt>
      <trkpt lat="44.88642" lon="5.44078">
        <ele>1336.4</ele>
        <time>2021-10-08T15:34:59Z</time>
      </trkpt>
      <trkpt lat="44.8864" lon="5.4407">
        <ele>1336.4</ele>
        <time>2021-10-08T15:35:00Z</time>
      </trkpt>
      <trkpt lat="44.88638" lon="5.44062">
        <ele>1335.4</ele>
        <time>2021-10-08T15:35:01Z</time>
      </trkpt>
      <trkpt lat="44.88637" lon="5.44055">
        <ele>1334.2</ele>
        <time>2021-10-08T15:35:02Z</time>
      </trkpt>
      <trkpt lat="44.88637" lon="5.44046">
        <ele>1334.2</ele>
        <time>2021-10-08T15:35:03Z</time>
      </trkpt>
      <trkpt lat="44.8864" lon="5.44038">
        <ele>1334.2</ele>
        <time>2021-10-08T15:35:04Z</time>
      </trkpt>
      <trkpt lat="44.88644" lon="5.4403">
        <ele>1333.2</ele>
        <time>2021-10-08T15:35:05Z</time>
      </trkpt>
      <trkpt lat="44.88647" lon="5.44022">
        <ele>1330.8</ele>
        <time>2021-10-08T15:35:06Z</time>
      </trkpt>
      <trkpt lat="44.88651" lon="5.44014">
        <ele>1330.8</ele>
        <time>2021-10-08T15:35:07Z</time>
      </trkpt>
      <trkpt lat="44.88655" lon="5.44005">
        <ele>1330.8</ele>
        <time>2021-10-08T15:35:08Z</time>
      </trkpt>
      <trkpt lat="44.88659" lon="5.43996">
        <ele>1329.8</ele>
        <time>2021-10-08T15:35:09Z</time>
      </trkpt>
      <trkpt lat="44.88661" lon="5.43987">
        <ele>1328</ele>
        <time>2021-10-08T15:35:10Z</time>
      </trkpt>
      <trkpt lat="44.88663" lon="5.43976">
        <ele>1328</ele>
        <time>2021-10-08T15:35:11Z</time>
      </trkpt>
      <trkpt lat="44.88662" lon="5.43964">
        <ele>1328</ele>
        <time>2021-10-08T15:35:12Z</time>
      </trkpt>
      <trkpt lat="44.88662" lon="5.43953">
        <ele>1327</ele>
        <time>2021-10-08T15:35:13Z</time>
      </trkpt>
      <trkpt lat="44.88662" lon="5.43942">
        <ele>1324.2</ele>
        <time>2021-10-08T15:35:14Z</time>
      </trkpt>
      <trkpt lat="44.88662" lon="5.4393">
        <ele>1324.2</ele>
        <time>2021-10-08T15:35:15Z</time>
      </trkpt>
      <trkpt lat="44.88663" lon="5.43918">
        <ele>1324.2</ele>
        <time>2021-10-08T15:35:16Z</time>
      </trkpt>
      <trkpt lat="44.88664" lon="5.43908">
        <ele>1323.2</ele>
        <time>2021-10-08T15:35:17Z</time>
      </trkpt>
      <trkpt lat="44.88665" lon="5.43897">
        <ele>1321.2</ele>
        <time>2021-10-08T15:35:18Z</time>
      </trkpt>
      <trkpt lat="44.88664" lon="5.43885">
        <ele>1321.2</ele>
        <time>2021-10-08T15:35:19Z</time>
      </trkpt>
      <trkpt lat="44.88662" lon="5.43874">
        <ele>1321.2</ele>
        <time>2021-10-08T15:35:20Z</time>
      </trkpt>
      <trkpt lat="44.88659" lon="5.43862">
        <ele>1320.2</ele>
        <time>2021-10-08T15:35:21Z</time>
      </trkpt>
      <trkpt lat="44.88657" lon="5.4385">
        <ele>1317.2</ele>
        <time>2021-10-08T15:35:22Z</time>
      </trkpt>
      <trkpt lat="44.88653" lon="5.43838">
        <ele>1317.2</ele>
        <time>2021-10-08T15:35:23Z</time>
      </trkpt>
      <trkpt lat="44.8865" lon="5.43826">
        <ele>1317.2</ele>
        <time>2021-10-08T15:35:24Z</time>
      </trkpt>
      <trkpt lat="44.88646" lon="5.43814">
        <ele>1316.2</ele>
        <time>2021-10-08T15:35:25Z</time>
      </trkpt>
      <trkpt lat="44.88642" lon="5.43802">
        <ele>1313.2</ele>
        <time>2021-10-08T15:35:26Z</time>
      </trkpt>
      <trkpt lat="44.88636" lon="5.4379">
        <ele>1313.2</ele>
        <time>2021-10-08T15:35:27Z</time>
      </trkpt>
      <trkpt lat="44.8863" lon="5.43779">
        <ele>1313.2</ele>
        <time>2021-10-08T15:35:28Z</time>
      </trkpt>
      <trkpt lat="44.88624" lon="5.43769">
        <ele>1312.2</ele>
        <time>2021-10-08T15:35:29Z</time>
      </trkpt>
      <trkpt lat="44.88619" lon="5.43761">
        <ele>1312.4</ele>
        <time>2021-10-08T15:35:30Z</time>
      </trkpt>
      <trkpt lat="44.88614" lon="5.43753">
        <ele>1312.4</ele>
        <time>2021-10-08T15:35:31Z</time>
      </trkpt>
      <trkpt lat="44.88612" lon="5.43745">
        <ele>1312.4</ele>
        <time>2021-10-08T15:35:32Z</time>
      </trkpt>
      <trkpt lat="44.88612" lon="5.43737">
        <ele>1312</ele>
        <time>2021-10-08T15:35:33Z</time>
      </trkpt>
      <trkpt lat="44.88614" lon="5.43731">
        <ele>1311.6</ele>
        <time>2021-10-08T15:35:34Z</time>
      </trkpt>
      <trkpt lat="44.88618" lon="5.43726">
        <ele>1311.6</ele>
        <time>2021-10-08T15:35:35Z</time>
      </trkpt>
      <trkpt lat="44.88622" lon="5.43723">
        <ele>1311.6</ele>
        <time>2021-10-08T15:35:36Z</time>
      </trkpt>
      <trkpt lat="44.88626" lon="5.43722">
        <ele>1311</ele>
        <time>2021-10-08T15:35:37Z</time>
      </trkpt>
      <trkpt lat="44.8863" lon="5.43722">
        <ele>1311</ele>
        <time>2021-10-08T15:35:38Z</time>
      </trkpt>
      <trkpt lat="44.88634" lon="5.43721">
        <ele>1311</ele>
        <time>2021-10-08T15:35:39Z</time>
      </trkpt>
      <trkpt lat="44.88636" lon="5.43721">
        <ele>1311</ele>
        <time>2021-10-08T15:35:40Z</time>
      </trkpt>
      <trkpt lat="44.88639" lon="5.43722">
        <ele>1310.4</ele>
        <time>2021-10-08T15:35:41Z</time>
      </trkpt>
      <trkpt lat="44.88641" lon="5.43723">
        <ele>1310</ele>
        <time>2021-10-08T15:35:42Z</time>
      </trkpt>
      <trkpt lat="44.88644" lon="5.43724">
        <ele>1310</ele>
        <time>2021-10-08T15:35:43Z</time>
      </trkpt>
      <trkpt lat="44.88647" lon="5.43725">
        <ele>1310</ele>
        <time>2021-10-08T15:35:44Z</time>
      </trkpt>
      <trkpt lat="44.88651" lon="5.43726">
        <ele>1309</ele>
        <time>2021-10-08T15:35:45Z</time>
      </trkpt>
      <trkpt lat="44.88655" lon="5.43728">
        <ele>1308.4</ele>
        <time>2021-10-08T15:35:46Z</time>
      </trkpt>
      <trkpt lat="44.8866" lon="5.4373">
        <ele>1308.4</ele>
        <time>2021-10-08T15:35:47Z</time>
      </trkpt>
      <trkpt lat="44.88665" lon="5.43732">
        <ele>1308.4</ele>
        <time>2021-10-08T15:35:48Z</time>
      </trkpt>
      <trkpt lat="44.8867" lon="5.43733">
        <ele>1307.4</ele>
        <time>2021-10-08T15:35:49Z</time>
      </trkpt>
      <trkpt lat="44.88676" lon="5.43736">
        <ele>1305.4</ele>
        <time>2021-10-08T15:35:50Z</time>
      </trkpt>
      <trkpt lat="44.88681" lon="5.43739">
        <ele>1305.4</ele>
        <time>2021-10-08T15:35:51Z</time>
      </trkpt>
      <trkpt lat="44.88687" lon="5.43742">
        <ele>1305.4</ele>
        <time>2021-10-08T15:35:52Z</time>
      </trkpt>
      <trkpt lat="44.88693" lon="5.43745">
        <ele>1304.4</ele>
        <time>2021-10-08T15:35:53Z</time>
      </trkpt>
      <trkpt lat="44.88698" lon="5.4375">
        <ele>1303.6</ele>
        <time>2021-10-08T15:35:54Z</time>
      </trkpt>
      <trkpt lat="44.887" lon="5.43756">
        <ele>1303.6</ele>
        <time>2021-10-08T15:35:55Z</time>
      </trkpt>
      <trkpt lat="44.88703" lon="5.43764">
        <ele>1303.6</ele>
        <time>2021-10-08T15:35:56Z</time>
      </trkpt>
      <trkpt lat="44.88703" lon="5.43772">
        <ele>1302.6</ele>
        <time>2021-10-08T15:35:57Z</time>
      </trkpt>
      <trkpt lat="44.88702" lon="5.4378">
        <ele>1301.8</ele>
        <time>2021-10-08T15:35:58Z</time>
      </trkpt>
      <trkpt lat="44.88702" lon="5.43788">
        <ele>1301.8</ele>
        <time>2021-10-08T15:35:59Z</time>
      </trkpt>
      <trkpt lat="44.88701" lon="5.43797">
        <ele>1301.8</ele>
        <time>2021-10-08T15:36:00Z</time>
      </trkpt>
      <trkpt lat="44.88698" lon="5.43806">
        <ele>1300.8</ele>
        <time>2021-10-08T15:36:01Z</time>
      </trkpt>
      <trkpt lat="44.88695" lon="5.43815">
        <ele>1298.6</ele>
        <time>2021-10-08T15:36:02Z</time>
      </trkpt>
      <trkpt lat="44.88693" lon="5.43824">
        <ele>1298.6</ele>
        <time>2021-10-08T15:36:03Z</time>
      </trkpt>
      <trkpt lat="44.88692" lon="5.43833">
        <ele>1298.6</ele>
        <time>2021-10-08T15:36:04Z</time>
      </trkpt>
      <trkpt lat="44.88695" lon="5.43843">
        <ele>1297.6</ele>
        <time>2021-10-08T15:36:05Z</time>
      </trkpt>
      <trkpt lat="44.88698" lon="5.43852">
        <ele>1295.6</ele>
        <time>2021-10-08T15:36:06Z</time>
      </trkpt>
      <trkpt lat="44.88702" lon="5.43861">
        <ele>1295.6</ele>
        <time>2021-10-08T15:36:07Z</time>
      </trkpt>
      <trkpt lat="44.88708" lon="5.4387">
        <ele>1295.6</ele>
        <time>2021-10-08T15:36:08Z</time>
      </trkpt>
      <trkpt lat="44.88714" lon="5.43877">
        <ele>1294.6</ele>
        <time>2021-10-08T15:36:09Z</time>
      </trkpt>
      <trkpt lat="44.8872" lon="5.43885">
        <ele>1292.8</ele>
        <time>2021-10-08T15:36:10Z</time>
      </trkpt>
      <trkpt lat="44.88726" lon="5.43892">
        <ele>1292.8</ele>
        <time>2021-10-08T15:36:11Z</time>
      </trkpt>
      <trkpt lat="44.88731" lon="5.43898">
        <ele>1292.8</ele>
        <time>2021-10-08T15:36:12Z</time>
      </trkpt>
      <trkpt lat="44.88737" lon="5.43905">
        <ele>1292</ele>
        <time>2021-10-08T15:36:13Z</time>
      </trkpt>
      <trkpt lat="44.88744" lon="5.43911">
        <ele>1292.8</ele>
        <time>2021-10-08T15:36:14Z</time>
      </trkpt>
      <trkpt lat="44.88753" lon="5.43917">
        <ele>1292.8</ele>
        <time>2021-10-08T15:36:15Z</time>
      </trkpt>
      <trkpt lat="44.88761" lon="5.43921">
        <ele>1292.8</ele>
        <time>2021-10-08T15:36:16Z</time>
      </trkpt>
      <trkpt lat="44.88768" lon="5.43926">
        <ele>1292.8</ele>
        <time>2021-10-08T15:36:17Z</time>
      </trkpt>
      <trkpt lat="44.88774" lon="5.43929">
        <ele>1291.8</ele>
        <time>2021-10-08T15:36:18Z</time>
      </trkpt>
      <trkpt lat="44.88781" lon="5.4393">
        <ele>1291.8</ele>
        <time>2021-10-08T15:36:19Z</time>
      </trkpt>
      <trkpt lat="44.88787" lon="5.43929">
        <ele>1291.8</ele>
        <time>2021-10-08T15:36:20Z</time>
      </trkpt>
      <trkpt lat="44.88791" lon="5.43926">
        <ele>1292.8</ele>
        <time>2021-10-08T15:36:21Z</time>
      </trkpt>
      <trkpt lat="44.88798" lon="5.43922">
        <ele>1293</ele>
        <time>2021-10-08T15:36:22Z</time>
      </trkpt>
      <trkpt lat="44.88804" lon="5.43917">
        <ele>1293</ele>
        <time>2021-10-08T15:36:23Z</time>
      </trkpt>
      <trkpt lat="44.88811" lon="5.43912">
        <ele>1293</ele>
        <time>2021-10-08T15:36:24Z</time>
      </trkpt>
      <trkpt lat="44.88817" lon="5.43908">
        <ele>1293</ele>
        <time>2021-10-08T15:36:25Z</time>
      </trkpt>
      <trkpt lat="44.88823" lon="5.43903">
        <ele>1292.8</ele>
        <time>2021-10-08T15:36:26Z</time>
      </trkpt>
      <trkpt lat="44.88828" lon="5.43898">
        <ele>1292.8</ele>
        <time>2021-10-08T15:36:27Z</time>
      </trkpt>
      <trkpt lat="44.88834" lon="5.43891">
        <ele>1292.8</ele>
        <time>2021-10-08T15:36:28Z</time>
      </trkpt>
      <trkpt lat="44.8884" lon="5.43886">
        <ele>1291.8</ele>
        <time>2021-10-08T15:36:29Z</time>
      </trkpt>
      <trkpt lat="44.88847" lon="5.43882">
        <ele>1289.8</ele>
        <time>2021-10-08T15:36:30Z</time>
      </trkpt>
      <trkpt lat="44.88853" lon="5.4388">
        <ele>1289.8</ele>
        <time>2021-10-08T15:36:31Z</time>
      </trkpt>
      <trkpt lat="44.8886" lon="5.4388">
        <ele>1289.8</ele>
        <time>2021-10-08T15:36:32Z</time>
      </trkpt>
      <trkpt lat="44.88867" lon="5.43882">
        <ele>1288.8</ele>
        <time>2021-10-08T15:36:33Z</time>
      </trkpt>
      <trkpt lat="44.88873" lon="5.43884">
        <ele>1286.8</ele>
        <time>2021-10-08T15:36:34Z</time>
      </trkpt>
      <trkpt lat="44.88879" lon="5.43888">
        <ele>1286.8</ele>
        <time>2021-10-08T15:36:35Z</time>
      </trkpt>
      <trkpt lat="44.88886" lon="5.43891">
        <ele>1286.8</ele>
        <time>2021-10-08T15:36:36Z</time>
      </trkpt>
      <trkpt lat="44.88893" lon="5.43895">
        <ele>1285.8</ele>
        <time>2021-10-08T15:36:37Z</time>
      </trkpt>
      <trkpt lat="44.88901" lon="5.439">
        <ele>1284.6</ele>
        <time>2021-10-08T15:36:38Z</time>
      </trkpt>
      <trkpt lat="44.88908" lon="5.43904">
        <ele>1284.6</ele>
        <time>2021-10-08T15:36:39Z</time>
      </trkpt>
      <trkpt lat="44.88914" lon="5.43906">
        <ele>1284.6</ele>
        <time>2021-10-08T15:36:40Z</time>
      </trkpt>
      <trkpt lat="44.8892" lon="5.43907">
        <ele>1284.6</ele>
        <time>2021-10-08T15:36:41Z</time>
      </trkpt>
      <trkpt lat="44.88926" lon="5.43908">
        <ele>1283.6</ele>
        <time>2021-10-08T15:36:42Z</time>
      </trkpt>
      <trkpt lat="44.88932" lon="5.43909">
        <ele>1283.6</ele>
        <time>2021-10-08T15:36:43Z</time>
      </trkpt>
      <trkpt lat="44.88937" lon="5.43909">
        <ele>1283.6</ele>
        <time>2021-10-08T15:36:44Z</time>
      </trkpt>
      <trkpt lat="44.88942" lon="5.43908">
        <ele>1284.4</ele>
        <time>2021-10-08T15:36:45Z</time>
      </trkpt>
      <trkpt lat="44.88946" lon="5.43907">
        <ele>1284.4</ele>
        <time>2021-10-08T15:36:46Z</time>
      </trkpt>
      <trkpt lat="44.88948" lon="5.43905">
        <ele>1284.4</ele>
        <time>2021-10-08T15:36:47Z</time>
      </trkpt>
      <trkpt lat="44.8895" lon="5.43903">
        <ele>1284.4</ele>
        <time>2021-10-08T15:36:48Z</time>
      </trkpt>
      <trkpt lat="44.88951" lon="5.43901">
        <ele>1284.4</ele>
        <time>2021-10-08T15:36:49Z</time>
      </trkpt>
      <trkpt lat="44.88952" lon="5.43899">
        <ele>1284.2</ele>
        <time>2021-10-08T15:36:50Z</time>
      </trkpt>
      <trkpt lat="44.88952" lon="5.43897">
        <ele>1284.2</ele>
        <time>2021-10-08T15:36:51Z</time>
      </trkpt>
      <trkpt lat="44.88952" lon="5.43896">
        <ele>1284.2</ele>
        <time>2021-10-08T15:36:52Z</time>
      </trkpt>
      <trkpt lat="44.88951" lon="5.43896">
        <ele>1284.2</ele>
        <time>2021-10-08T15:36:53Z</time>
      </trkpt>
      <trkpt lat="44.88949" lon="5.4389">
        <ele>1283.4</ele>
        <time>2021-10-08T15:38:19Z</time>
      </trkpt>
      <trkpt lat="44.88947" lon="5.43891">
        <ele>1283.4</ele>
        <time>2021-10-08T15:38:20Z</time>
      </trkpt>
      <trkpt lat="44.88944" lon="5.43891">
        <ele>1282.6</ele>
        <time>2021-10-08T15:38:21Z</time>
      </trkpt>
      <trkpt lat="44.88941" lon="5.4389">
        <ele>1282.6</ele>
        <time>2021-10-08T15:38:22Z</time>
      </trkpt>
      <trkpt lat="44.88938" lon="5.43891">
        <ele>1282.6</ele>
        <time>2021-10-08T15:38:23Z</time>
      </trkpt>
      <trkpt lat="44.88934" lon="5.43891">
        <ele>1282.6</ele>
        <time>2021-10-08T15:38:24Z</time>
      </trkpt>
      <trkpt lat="44.8893" lon="5.4389">
        <ele>1281.6</ele>
        <time>2021-10-08T15:38:25Z</time>
      </trkpt>
      <trkpt lat="44.88926" lon="5.43889">
        <ele>1279.4</ele>
        <time>2021-10-08T15:38:26Z</time>
      </trkpt>
      <trkpt lat="44.88921" lon="5.43887">
        <ele>1279.4</ele>
        <time>2021-10-08T15:38:27Z</time>
      </trkpt>
      <trkpt lat="44.88915" lon="5.43884">
        <ele>1279.4</ele>
        <time>2021-10-08T15:38:28Z</time>
      </trkpt>
      <trkpt lat="44.8891" lon="5.43881">
        <ele>1279.4</ele>
        <time>2021-10-08T15:38:29Z</time>
      </trkpt>
      <trkpt lat="44.88904" lon="5.43878">
        <ele>1277.8</ele>
        <time>2021-10-08T15:38:30Z</time>
      </trkpt>
      <trkpt lat="44.88898" lon="5.43874">
        <ele>1277.8</ele>
        <time>2021-10-08T15:38:31Z</time>
      </trkpt>
      <trkpt lat="44.88893" lon="5.43869">
        <ele>1277.8</ele>
        <time>2021-10-08T15:38:32Z</time>
      </trkpt>
      <trkpt lat="44.88887" lon="5.43865">
        <ele>1276.8</ele>
        <time>2021-10-08T15:38:33Z</time>
      </trkpt>
      <trkpt lat="44.88881" lon="5.43861">
        <ele>1275</ele>
        <time>2021-10-08T15:38:34Z</time>
      </trkpt>
      <trkpt lat="44.88875" lon="5.43857">
        <ele>1275</ele>
        <time>2021-10-08T15:38:35Z</time>
      </trkpt>
      <trkpt lat="44.88869" lon="5.43852">
        <ele>1275</ele>
        <time>2021-10-08T15:38:36Z</time>
      </trkpt>
      <trkpt lat="44.88864" lon="5.43846">
        <ele>1274</ele>
        <time>2021-10-08T15:38:37Z</time>
      </trkpt>
      <trkpt lat="44.88858" lon="5.43839">
        <ele>1272.4</ele>
        <time>2021-10-08T15:38:38Z</time>
      </trkpt>
      <trkpt lat="44.88852" lon="5.43833">
        <ele>1272.4</ele>
        <time>2021-10-08T15:38:39Z</time>
      </trkpt>
      <trkpt lat="44.88846" lon="5.43825">
        <ele>1272.4</ele>
        <time>2021-10-08T15:38:40Z</time>
      </trkpt>
      <trkpt lat="44.8884" lon="5.43818">
        <ele>1271.4</ele>
        <time>2021-10-08T15:38:41Z</time>
      </trkpt>
      <trkpt lat="44.88834" lon="5.4381">
        <ele>1268.2</ele>
        <time>2021-10-08T15:38:42Z</time>
      </trkpt>
      <trkpt lat="44.88828" lon="5.43802">
        <ele>1268.2</ele>
        <time>2021-10-08T15:38:43Z</time>
      </trkpt>
      <trkpt lat="44.88822" lon="5.43795">
        <ele>1268.2</ele>
        <time>2021-10-08T15:38:44Z</time>
      </trkpt>
      <trkpt lat="44.88817" lon="5.43787">
        <ele>1268.2</ele>
        <time>2021-10-08T15:38:45Z</time>
      </trkpt>
      <trkpt lat="44.88814" lon="5.43779">
        <ele>1266</ele>
        <time>2021-10-08T15:38:46Z</time>
      </trkpt>
      <trkpt lat="44.88812" lon="5.43768">
        <ele>1266</ele>
        <time>2021-10-08T15:38:47Z</time>
      </trkpt>
      <trkpt lat="44.8881" lon="5.43759">
        <ele>1266</ele>
        <time>2021-10-08T15:38:48Z</time>
      </trkpt>
      <trkpt lat="44.88807" lon="5.4375">
        <ele>1265</ele>
        <time>2021-10-08T15:38:49Z</time>
      </trkpt>
      <trkpt lat="44.88801" lon="5.43742">
        <ele>1263.2</ele>
        <time>2021-10-08T15:38:50Z</time>
      </trkpt>
      <trkpt lat="44.88795" lon="5.43737">
        <ele>1263.2</ele>
        <time>2021-10-08T15:38:51Z</time>
      </trkpt>
      <trkpt lat="44.88789" lon="5.4373">
        <ele>1263.2</ele>
        <time>2021-10-08T15:38:52Z</time>
      </trkpt>
      <trkpt lat="44.88782" lon="5.43722">
        <ele>1262.2</ele>
        <time>2021-10-08T15:38:53Z</time>
      </trkpt>
      <trkpt lat="44.88776" lon="5.43716">
        <ele>1260.4</ele>
        <time>2021-10-08T15:38:54Z</time>
      </trkpt>
      <trkpt lat="44.88769" lon="5.43711">
        <ele>1260.4</ele>
        <time>2021-10-08T15:38:55Z</time>
      </trkpt>
      <trkpt lat="44.88761" lon="5.43707">
        <ele>1260.4</ele>
        <time>2021-10-08T15:38:56Z</time>
      </trkpt>
      <trkpt lat="44.88753" lon="5.43702">
        <ele>1259.4</ele>
        <time>2021-10-08T15:38:57Z</time>
      </trkpt>
      <trkpt lat="44.88746" lon="5.43694">
        <ele>1256.4</ele>
        <time>2021-10-08T15:38:58Z</time>
      </trkpt>
      <trkpt lat="44.8874" lon="5.43683">
        <ele>1256.4</ele>
        <time>2021-10-08T15:38:59Z</time>
      </trkpt>
      <trkpt lat="44.88734" lon="5.43673">
        <ele>1256.4</ele>
        <time>2021-10-08T15:39:00Z</time>
      </trkpt>
      <trkpt lat="44.88729" lon="5.43662">
        <ele>1255.4</ele>
        <time>2021-10-08T15:39:01Z</time>
      </trkpt>
      <trkpt lat="44.88722" lon="5.43653">
        <ele>1252.6</ele>
        <time>2021-10-08T15:39:02Z</time>
      </trkpt>
      <trkpt lat="44.88715" lon="5.43644">
        <ele>1252.6</ele>
        <time>2021-10-08T15:39:03Z</time>
      </trkpt>
      <trkpt lat="44.88708" lon="5.43634">
        <ele>1252.6</ele>
        <time>2021-10-08T15:39:04Z</time>
      </trkpt>
      <trkpt lat="44.88701" lon="5.43623">
        <ele>1251.6</ele>
        <time>2021-10-08T15:39:05Z</time>
      </trkpt>
      <trkpt lat="44.88694" lon="5.43613">
        <ele>1248.4</ele>
        <time>2021-10-08T15:39:06Z</time>
      </trkpt>
      <trkpt lat="44.88688" lon="5.43601">
        <ele>1248.4</ele>
        <time>2021-10-08T15:39:07Z</time>
      </trkpt>
      <trkpt lat="44.88682" lon="5.43589">
        <ele>1248.4</ele>
        <time>2021-10-08T15:39:08Z</time>
      </trkpt>
      <trkpt lat="44.88678" lon="5.43576">
        <ele>1247.4</ele>
        <time>2021-10-08T15:39:09Z</time>
      </trkpt>
      <trkpt lat="44.88673" lon="5.43563">
        <ele>1244.6</ele>
        <time>2021-10-08T15:39:10Z</time>
      </trkpt>
      <trkpt lat="44.88669" lon="5.4355">
        <ele>1244.6</ele>
        <time>2021-10-08T15:39:11Z</time>
      </trkpt>
      <trkpt lat="44.88665" lon="5.43538">
        <ele>1244.6</ele>
        <time>2021-10-08T15:39:12Z</time>
      </trkpt>
      <trkpt lat="44.88662" lon="5.43524">
        <ele>1243.6</ele>
        <time>2021-10-08T15:39:13Z</time>
      </trkpt>
      <trkpt lat="44.8866" lon="5.43512">
        <ele>1242.4</ele>
        <time>2021-10-08T15:39:14Z</time>
      </trkpt>
      <trkpt lat="44.88657" lon="5.435">
        <ele>1242.4</ele>
        <time>2021-10-08T15:39:15Z</time>
      </trkpt>
      <trkpt lat="44.88656" lon="5.43488">
        <ele>1242.4</ele>
        <time>2021-10-08T15:39:16Z</time>
      </trkpt>
      <trkpt lat="44.88654" lon="5.43475">
        <ele>1241.4</ele>
        <time>2021-10-08T15:39:17Z</time>
      </trkpt>
      <trkpt lat="44.88653" lon="5.43462">
        <ele>1239</ele>
        <time>2021-10-08T15:39:18Z</time>
      </trkpt>
      <trkpt lat="44.88652" lon="5.4345">
        <ele>1239</ele>
        <time>2021-10-08T15:39:19Z</time>
      </trkpt>
      <trkpt lat="44.88648" lon="5.43438">
        <ele>1239</ele>
        <time>2021-10-08T15:39:20Z</time>
      </trkpt>
      <trkpt lat="44.88645" lon="5.43426">
        <ele>1238</ele>
        <time>2021-10-08T15:39:21Z</time>
      </trkpt>
      <trkpt lat="44.88643" lon="5.43414">
        <ele>1236.8</ele>
        <time>2021-10-08T15:39:22Z</time>
      </trkpt>
      <trkpt lat="44.88642" lon="5.43403">
        <ele>1236.8</ele>
        <time>2021-10-08T15:39:23Z</time>
      </trkpt>
      <trkpt lat="44.88642" lon="5.43393">
        <ele>1236.8</ele>
        <time>2021-10-08T15:39:24Z</time>
      </trkpt>
      <trkpt lat="44.88641" lon="5.43384">
        <ele>1237.8</ele>
        <time>2021-10-08T15:39:25Z</time>
      </trkpt>
      <trkpt lat="44.8864" lon="5.43377">
        <ele>1238</ele>
        <time>2021-10-08T15:39:26Z</time>
      </trkpt>
      <trkpt lat="44.88639" lon="5.43371">
        <ele>1238</ele>
        <time>2021-10-08T15:39:27Z</time>
      </trkpt>
      <trkpt lat="44.88638" lon="5.43363">
        <ele>1238</ele>
        <time>2021-10-08T15:39:28Z</time>
      </trkpt>
      <trkpt lat="44.88635" lon="5.43358">
        <ele>1237.4</ele>
        <time>2021-10-08T15:39:29Z</time>
      </trkpt>
      <trkpt lat="44.88632" lon="5.43354">
        <ele>1236.8</ele>
        <time>2021-10-08T15:39:30Z</time>
      </trkpt>
      <trkpt lat="44.88628" lon="5.43352">
        <ele>1236.8</ele>
        <time>2021-10-08T15:39:31Z</time>
      </trkpt>
      <trkpt lat="44.88624" lon="5.4335">
        <ele>1236.8</ele>
        <time>2021-10-08T15:39:32Z</time>
      </trkpt>
      <trkpt lat="44.8862" lon="5.43347">
        <ele>1235.8</ele>
        <time>2021-10-08T15:39:33Z</time>
      </trkpt>
      <trkpt lat="44.88615" lon="5.43344">
        <ele>1233.8</ele>
        <time>2021-10-08T15:39:34Z</time>
      </trkpt>
      <trkpt lat="44.88609" lon="5.4334">
        <ele>1233.8</ele>
        <time>2021-10-08T15:39:35Z</time>
      </trkpt>
      <trkpt lat="44.88604" lon="5.43335">
        <ele>1233.8</ele>
        <time>2021-10-08T15:39:36Z</time>
      </trkpt>
      <trkpt lat="44.88599" lon="5.43328">
        <ele>1232.8</ele>
        <time>2021-10-08T15:39:37Z</time>
      </trkpt>
      <trkpt lat="44.88594" lon="5.43321">
        <ele>1230.2</ele>
        <time>2021-10-08T15:39:38Z</time>
      </trkpt>
      <trkpt lat="44.88591" lon="5.43312">
        <ele>1230.2</ele>
        <time>2021-10-08T15:39:39Z</time>
      </trkpt>
      <trkpt lat="44.88588" lon="5.43304">
        <ele>1230.2</ele>
        <time>2021-10-08T15:39:40Z</time>
      </trkpt>
      <trkpt lat="44.88585" lon="5.43294">
        <ele>1229.2</ele>
        <time>2021-10-08T15:39:41Z</time>
      </trkpt>
      <trkpt lat="44.88584" lon="5.43284">
        <ele>1227.2</ele>
        <time>2021-10-08T15:39:42Z</time>
      </trkpt>
      <trkpt lat="44.88579" lon="5.43276">
        <ele>1227.2</ele>
        <time>2021-10-08T15:39:43Z</time>
      </trkpt>
      <trkpt lat="44.88575" lon="5.43267">
        <ele>1227.2</ele>
        <time>2021-10-08T15:39:44Z</time>
      </trkpt>
      <trkpt lat="44.88571" lon="5.43258">
        <ele>1226.2</ele>
        <time>2021-10-08T15:39:45Z</time>
      </trkpt>
      <trkpt lat="44.88566" lon="5.43248">
        <ele>1224.2</ele>
        <time>2021-10-08T15:39:46Z</time>
      </trkpt>
      <trkpt lat="44.88561" lon="5.43238">
        <ele>1224.2</ele>
        <time>2021-10-08T15:39:47Z</time>
      </trkpt>
      <trkpt lat="44.88556" lon="5.43229">
        <ele>1224.2</ele>
        <time>2021-10-08T15:39:48Z</time>
      </trkpt>
      <trkpt lat="44.8855" lon="5.43219">
        <ele>1223.2</ele>
        <time>2021-10-08T15:39:49Z</time>
      </trkpt>
      <trkpt lat="44.88544" lon="5.4321">
        <ele>1221.4</ele>
        <time>2021-10-08T15:39:50Z</time>
      </trkpt>
      <trkpt lat="44.88538" lon="5.432">
        <ele>1221.4</ele>
        <time>2021-10-08T15:39:51Z</time>
      </trkpt>
      <trkpt lat="44.88532" lon="5.43192">
        <ele>1221.4</ele>
        <time>2021-10-08T15:39:52Z</time>
      </trkpt>
      <trkpt lat="44.88526" lon="5.43184">
        <ele>1220.4</ele>
        <time>2021-10-08T15:39:53Z</time>
      </trkpt>
      <trkpt lat="44.88519" lon="5.43176">
        <ele>1219.2</ele>
        <time>2021-10-08T15:39:54Z</time>
      </trkpt>
      <trkpt lat="44.88512" lon="5.43171">
        <ele>1219.2</ele>
        <time>2021-10-08T15:39:55Z</time>
      </trkpt>
      <trkpt lat="44.88506" lon="5.43165">
        <ele>1219.2</ele>
        <time>2021-10-08T15:39:56Z</time>
      </trkpt>
      <trkpt lat="44.88499" lon="5.43161">
        <ele>1218.2</ele>
        <time>2021-10-08T15:39:57Z</time>
      </trkpt>
      <trkpt lat="44.88493" lon="5.43156">
        <ele>1217.6</ele>
        <time>2021-10-08T15:39:58Z</time>
      </trkpt>
      <trkpt lat="44.88487" lon="5.4315">
        <ele>1217.6</ele>
        <time>2021-10-08T15:39:59Z</time>
      </trkpt>
      <trkpt lat="44.88481" lon="5.43143">
        <ele>1217.6</ele>
        <time>2021-10-08T15:40:00Z</time>
      </trkpt>
      <trkpt lat="44.88475" lon="5.43138">
        <ele>1216.6</ele>
        <time>2021-10-08T15:40:01Z</time>
      </trkpt>
      <trkpt lat="44.88468" lon="5.43133">
        <ele>1213.6</ele>
        <time>2021-10-08T15:40:02Z</time>
      </trkpt>
      <trkpt lat="44.88461" lon="5.43129">
        <ele>1213.6</ele>
        <time>2021-10-08T15:40:03Z</time>
      </trkpt>
      <trkpt lat="44.88453" lon="5.43127">
        <ele>1213.6</ele>
        <time>2021-10-08T15:40:04Z</time>
      </trkpt>
      <trkpt lat="44.88444" lon="5.43126">
        <ele>1212.6</ele>
        <time>2021-10-08T15:40:05Z</time>
      </trkpt>
      <trkpt lat="44.88435" lon="5.43126">
        <ele>1209</ele>
        <time>2021-10-08T15:40:06Z</time>
      </trkpt>
      <trkpt lat="44.88426" lon="5.43127">
        <ele>1209</ele>
        <time>2021-10-08T15:40:07Z</time>
      </trkpt>
      <trkpt lat="44.88418" lon="5.43128">
        <ele>1209</ele>
        <time>2021-10-08T15:40:08Z</time>
      </trkpt>
      <trkpt lat="44.88408" lon="5.43132">
        <ele>1208</ele>
        <time>2021-10-08T15:40:09Z</time>
      </trkpt>
      <trkpt lat="44.884" lon="5.43135">
        <ele>1206.6</ele>
        <time>2021-10-08T15:40:10Z</time>
      </trkpt>
      <trkpt lat="44.88392" lon="5.43137">
        <ele>1206.6</ele>
        <time>2021-10-08T15:40:11Z</time>
      </trkpt>
      <trkpt lat="44.88385" lon="5.43135">
        <ele>1206.6</ele>
        <time>2021-10-08T15:40:12Z</time>
      </trkpt>
      <trkpt lat="44.88377" lon="5.43133">
        <ele>1205.6</ele>
        <time>2021-10-08T15:40:13Z</time>
      </trkpt>
      <trkpt lat="44.8837" lon="5.43132">
        <ele>1203.4</ele>
        <time>2021-10-08T15:40:14Z</time>
      </trkpt>
      <trkpt lat="44.88361" lon="5.43129">
        <ele>1203.4</ele>
        <time>2021-10-08T15:40:15Z</time>
      </trkpt>
      <trkpt lat="44.88353" lon="5.43127">
        <ele>1203.4</ele>
        <time>2021-10-08T15:40:16Z</time>
      </trkpt>
      <trkpt lat="44.88346" lon="5.43124">
        <ele>1202.4</ele>
        <time>2021-10-08T15:40:17Z</time>
      </trkpt>
      <trkpt lat="44.88339" lon="5.43121">
        <ele>1202.2</ele>
        <time>2021-10-08T15:40:18Z</time>
      </trkpt>
      <trkpt lat="44.88333" lon="5.43115">
        <ele>1202.2</ele>
        <time>2021-10-08T15:40:19Z</time>
      </trkpt>
      <trkpt lat="44.88328" lon="5.43109">
        <ele>1202.2</ele>
        <time>2021-10-08T15:40:20Z</time>
      </trkpt>
      <trkpt lat="44.88323" lon="5.43102">
        <ele>1202.2</ele>
        <time>2021-10-08T15:40:21Z</time>
      </trkpt>
      <trkpt lat="44.88317" lon="5.43097">
        <ele>1200.4</ele>
        <time>2021-10-08T15:40:22Z</time>
      </trkpt>
      <trkpt lat="44.8831" lon="5.43093">
        <ele>1200.4</ele>
        <time>2021-10-08T15:40:23Z</time>
      </trkpt>
      <trkpt lat="44.88303" lon="5.43091">
        <ele>1200.4</ele>
        <time>2021-10-08T15:40:24Z</time>
      </trkpt>
      <trkpt lat="44.88296" lon="5.43089">
        <ele>1199.4</ele>
        <time>2021-10-08T15:40:25Z</time>
      </trkpt>
      <trkpt lat="44.88288" lon="5.43086">
        <ele>1197.2</ele>
        <time>2021-10-08T15:40:26Z</time>
      </trkpt>
      <trkpt lat="44.88282" lon="5.43083">
        <ele>1197.2</ele>
        <time>2021-10-08T15:40:27Z</time>
      </trkpt>
      <trkpt lat="44.88276" lon="5.4308">
        <ele>1197.2</ele>
        <time>2021-10-08T15:40:28Z</time>
      </trkpt>
      <trkpt lat="44.88268" lon="5.43076">
        <ele>1196.2</ele>
        <time>2021-10-08T15:40:29Z</time>
      </trkpt>
      <trkpt lat="44.8826" lon="5.43072">
        <ele>1194.6</ele>
        <time>2021-10-08T15:40:30Z</time>
      </trkpt>
      <trkpt lat="44.88252" lon="5.43066">
        <ele>1194.6</ele>
        <time>2021-10-08T15:40:31Z</time>
      </trkpt>
      <trkpt lat="44.88244" lon="5.43062">
        <ele>1194.6</ele>
        <time>2021-10-08T15:40:32Z</time>
      </trkpt>
      <trkpt lat="44.88236" lon="5.43058">
        <ele>1193.6</ele>
        <time>2021-10-08T15:40:33Z</time>
      </trkpt>
      <trkpt lat="44.88227" lon="5.43053">
        <ele>1192.2</ele>
        <time>2021-10-08T15:40:34Z</time>
      </trkpt>
      <trkpt lat="44.88219" lon="5.4305">
        <ele>1192.2</ele>
        <time>2021-10-08T15:40:35Z</time>
      </trkpt>
      <trkpt lat="44.88212" lon="5.43045">
        <ele>1192.2</ele>
        <time>2021-10-08T15:40:36Z</time>
      </trkpt>
      <trkpt lat="44.88207" lon="5.43041">
        <ele>1193.2</ele>
        <time>2021-10-08T15:40:37Z</time>
      </trkpt>
      <trkpt lat="44.88202" lon="5.43039">
        <ele>1194.4</ele>
        <time>2021-10-08T15:40:38Z</time>
      </trkpt>
      <trkpt lat="44.88198" lon="5.43037">
        <ele>1194.4</ele>
        <time>2021-10-08T15:40:39Z</time>
      </trkpt>
      <trkpt lat="44.88193" lon="5.43035">
        <ele>1194.4</ele>
        <time>2021-10-08T15:40:40Z</time>
      </trkpt>
      <trkpt lat="44.8819" lon="5.43034">
        <ele>1193.6</ele>
        <time>2021-10-08T15:40:41Z</time>
      </trkpt>
      <trkpt lat="44.88186" lon="5.43032">
        <ele>1193.2</ele>
        <time>2021-10-08T15:40:42Z</time>
      </trkpt>
      <trkpt lat="44.88182" lon="5.4303">
        <ele>1193.2</ele>
        <time>2021-10-08T15:40:43Z</time>
      </trkpt>
      <trkpt lat="44.88177" lon="5.43029">
        <ele>1193.2</ele>
        <time>2021-10-08T15:40:44Z</time>
      </trkpt>
      <trkpt lat="44.88173" lon="5.43027">
        <ele>1193.2</ele>
        <time>2021-10-08T15:40:45Z</time>
      </trkpt>
      <trkpt lat="44.88171" lon="5.43026">
        <ele>1193</ele>
        <time>2021-10-08T15:40:46Z</time>
      </trkpt>
      <trkpt lat="44.88169" lon="5.43025">
        <ele>1193</ele>
        <time>2021-10-08T15:40:47Z</time>
      </trkpt>
      <trkpt lat="44.88169" lon="5.43025">
        <ele>1193</ele>
        <time>2021-10-08T15:40:48Z</time>
      </trkpt>
      <trkpt lat="44.88169" lon="5.43025">
        <ele>1193.4</ele>
        <time>2021-10-08T15:40:49Z</time>
      </trkpt>
      <trkpt lat="44.88173" lon="5.43019">
        <ele>1193.4</ele>
        <time>2021-10-08T15:42:26Z</time>
      </trkpt>
      <trkpt lat="44.88174" lon="5.4302">
        <ele>1193.4</ele>
        <time>2021-10-08T15:42:27Z</time>
      </trkpt>
      <trkpt lat="44.88176" lon="5.4302">
        <ele>1193.4</ele>
        <time>2021-10-08T15:42:28Z</time>
      </trkpt>
      <trkpt lat="44.88177" lon="5.4302">
        <ele>1193.4</ele>
        <time>2021-10-08T15:42:29Z</time>
      </trkpt>
      <trkpt lat="44.88178" lon="5.43021">
        <ele>1194</ele>
        <time>2021-10-08T15:42:30Z</time>
      </trkpt>
      <trkpt lat="44.88179" lon="5.43022">
        <ele>1194</ele>
        <time>2021-10-08T15:42:31Z</time>
      </trkpt>
      <trkpt lat="44.8818" lon="5.43022">
        <ele>1194</ele>
        <time>2021-10-08T15:42:32Z</time>
      </trkpt>
      <trkpt lat="44.88181" lon="5.43023">
        <ele>1194</ele>
        <time>2021-10-08T15:42:33Z</time>
      </trkpt>
      <trkpt lat="44.88182" lon="5.43025">
        <ele>1194</ele>
        <time>2021-10-08T15:42:34Z</time>
      </trkpt>
      <trkpt lat="44.88183" lon="5.43026">
        <ele>1194</ele>
        <time>2021-10-08T15:42:35Z</time>
      </trkpt>
      <trkpt lat="44.88184" lon="5.43027">
        <ele>1194</ele>
        <time>2021-10-08T15:42:36Z</time>
      </trkpt>
      <trkpt lat="44.88186" lon="5.43029">
        <ele>1194</ele>
        <time>2021-10-08T15:42:37Z</time>
      </trkpt>
      <trkpt lat="44.88187" lon="5.4303">
        <ele>1194.2</ele>
        <time>2021-10-08T15:42:38Z</time>
      </trkpt>
      <trkpt lat="44.88189" lon="5.43031">
        <ele>1194.2</ele>
        <time>2021-10-08T15:42:39Z</time>
      </trkpt>
      <trkpt lat="44.88191" lon="5.43033">
        <ele>1194.2</ele>
        <time>2021-10-08T15:42:40Z</time>
      </trkpt>
      <trkpt lat="44.88194" lon="5.43034">
        <ele>1195</ele>
        <time>2021-10-08T15:42:41Z</time>
      </trkpt>
      <trkpt lat="44.88196" lon="5.43036">
        <ele>1194.8</ele>
        <time>2021-10-08T15:42:42Z</time>
      </trkpt>
      <trkpt lat="44.88199" lon="5.43037">
        <ele>1194.8</ele>
        <time>2021-10-08T15:42:43Z</time>
      </trkpt>
      <trkpt lat="44.88202" lon="5.43037">
        <ele>1194.8</ele>
        <time>2021-10-08T15:42:44Z</time>
      </trkpt>
      <trkpt lat="44.88203" lon="5.43037">
        <ele>1195.6</ele>
        <time>2021-10-08T15:42:45Z</time>
      </trkpt>
      <trkpt lat="44.88205" lon="5.43037">
        <ele>1195.4</ele>
        <time>2021-10-08T15:42:46Z</time>
      </trkpt>
      <trkpt lat="44.88206" lon="5.43037">
        <ele>1195.4</ele>
        <time>2021-10-08T15:42:47Z</time>
      </trkpt>
      <trkpt lat="44.88207" lon="5.43037">
        <ele>1195.4</ele>
        <time>2021-10-08T15:42:48Z</time>
      </trkpt>
      <trkpt lat="44.88208" lon="5.43037">
        <ele>1195.4</ele>
        <time>2021-10-08T15:42:49Z</time>
      </trkpt>
      <trkpt lat="44.88209" lon="5.43037">
        <ele>1194.6</ele>
        <time>2021-10-08T15:42:50Z</time>
      </trkpt>
      <trkpt lat="44.8821" lon="5.43037">
        <ele>1194.6</ele>
        <time>2021-10-08T15:42:51Z</time>
      </trkpt>
      <trkpt lat="44.88211" lon="5.43036">
        <ele>1194.6</ele>
        <time>2021-10-08T15:42:52Z</time>
      </trkpt>
      <trkpt lat="44.88212" lon="5.43036">
        <ele>1193.6</ele>
        <time>2021-10-08T15:42:53Z</time>
      </trkpt>
      <trkpt lat="44.88213" lon="5.43035">
        <ele>1193.4</ele>
        <time>2021-10-08T15:42:54Z</time>
      </trkpt>
      <trkpt lat="44.88215" lon="5.43035">
        <ele>1193.4</ele>
        <time>2021-10-08T15:42:55Z</time>
      </trkpt>
      <trkpt lat="44.88216" lon="5.43035">
        <ele>1193.4</ele>
        <time>2021-10-08T15:42:56Z</time>
      </trkpt>
      <trkpt lat="44.88218" lon="5.43035">
        <ele>1192.4</ele>
        <time>2021-10-08T15:42:57Z</time>
      </trkpt>
      <trkpt lat="44.88219" lon="5.43035">
        <ele>1191</ele>
        <time>2021-10-08T15:42:58Z</time>
      </trkpt>
      <trkpt lat="44.88221" lon="5.43034">
        <ele>1191</ele>
        <time>2021-10-08T15:42:59Z</time>
      </trkpt>
      <trkpt lat="44.88222" lon="5.43033">
        <ele>1191</ele>
        <time>2021-10-08T15:43:00Z</time>
      </trkpt>
      <trkpt lat="44.88223" lon="5.43031">
        <ele>1190</ele>
        <time>2021-10-08T15:43:01Z</time>
      </trkpt>
      <trkpt lat="44.88224" lon="5.4303">
        <ele>1188</ele>
        <time>2021-10-08T15:43:02Z</time>
      </trkpt>
      <trkpt lat="44.88227" lon="5.4303">
        <ele>1188</ele>
        <time>2021-10-08T15:43:03Z</time>
      </trkpt>
      <trkpt lat="44.8823" lon="5.43028">
        <ele>1188</ele>
        <time>2021-10-08T15:43:04Z</time>
      </trkpt>
      <trkpt lat="44.88231" lon="5.43026">
        <ele>1187</ele>
        <time>2021-10-08T15:43:05Z</time>
      </trkpt>
      <trkpt lat="44.88235" lon="5.43024">
        <ele>1184.8</ele>
        <time>2021-10-08T15:43:06Z</time>
      </trkpt>
      <trkpt lat="44.88237" lon="5.43022">
        <ele>1184.8</ele>
        <time>2021-10-08T15:43:07Z</time>
      </trkpt>
      <trkpt lat="44.88239" lon="5.4302">
        <ele>1184.8</ele>
        <time>2021-10-08T15:43:08Z</time>
      </trkpt>
      <trkpt lat="44.88241" lon="5.43019">
        <ele>1184</ele>
        <time>2021-10-08T15:43:09Z</time>
      </trkpt>
      <trkpt lat="44.88242" lon="5.43017">
        <ele>1183</ele>
        <time>2021-10-08T15:43:10Z</time>
      </trkpt>
      <trkpt lat="44.88244" lon="5.43016">
        <ele>1183</ele>
        <time>2021-10-08T15:43:11Z</time>
      </trkpt>
      <trkpt lat="44.88245" lon="5.43014">
        <ele>1183</ele>
        <time>2021-10-08T15:43:12Z</time>
      </trkpt>
      <trkpt lat="44.88247" lon="5.43013">
        <ele>1182</ele>
        <time>2021-10-08T15:43:13Z</time>
      </trkpt>
      <trkpt lat="44.88249" lon="5.43012">
        <ele>1180.6</ele>
        <time>2021-10-08T15:43:14Z</time>
      </trkpt>
      <trkpt lat="44.8825" lon="5.43011">
        <ele>1180.6</ele>
        <time>2021-10-08T15:43:15Z</time>
      </trkpt>
      <trkpt lat="44.88251" lon="5.4301">
        <ele>1180.6</ele>
        <time>2021-10-08T15:43:16Z</time>
      </trkpt>
      <trkpt lat="44.88253" lon="5.4301">
        <ele>1179.6</ele>
        <time>2021-10-08T15:43:17Z</time>
      </trkpt>
      <trkpt lat="44.88255" lon="5.4301">
        <ele>1177.8</ele>
        <time>2021-10-08T15:43:18Z</time>
      </trkpt>
      <trkpt lat="44.88257" lon="5.4301">
        <ele>1177.8</ele>
        <time>2021-10-08T15:43:19Z</time>
      </trkpt>
      <trkpt lat="44.88258" lon="5.43009">
        <ele>1177.8</ele>
        <time>2021-10-08T15:43:20Z</time>
      </trkpt>
      <trkpt lat="44.8826" lon="5.43009">
        <ele>1177.8</ele>
        <time>2021-10-08T15:43:21Z</time>
      </trkpt>
      <trkpt lat="44.88261" lon="5.43008">
        <ele>1175.8</ele>
        <time>2021-10-08T15:43:22Z</time>
      </trkpt>
      <trkpt lat="44.88263" lon="5.43007">
        <ele>1175.8</ele>
        <time>2021-10-08T15:43:23Z</time>
      </trkpt>
      <trkpt lat="44.88265" lon="5.43007">
        <ele>1175.8</ele>
        <time>2021-10-08T15:43:24Z</time>
      </trkpt>
      <trkpt lat="44.88267" lon="5.43005">
        <ele>1174.8</ele>
        <time>2021-10-08T15:43:25Z</time>
      </trkpt>
      <trkpt lat="44.88269" lon="5.43004">
        <ele>1174</ele>
        <time>2021-10-08T15:43:26Z</time>
      </trkpt>
      <trkpt lat="44.8827" lon="5.43003">
        <ele>1174</ele>
        <time>2021-10-08T15:43:27Z</time>
      </trkpt>
      <trkpt lat="44.8827" lon="5.43002">
        <ele>1174</ele>
        <time>2021-10-08T15:43:28Z</time>
      </trkpt>
      <trkpt lat="44.8827" lon="5.43002">
        <ele>1173.4</ele>
        <time>2021-10-08T15:43:29Z</time>
      </trkpt>
      <trkpt lat="44.88286" lon="5.42972">
        <ele>1163.4</ele>
        <time>2021-10-08T15:44:01Z</time>
      </trkpt>
      <trkpt lat="44.88287" lon="5.42971">
        <ele>1163</ele>
        <time>2021-10-08T15:44:02Z</time>
      </trkpt>
      <trkpt lat="44.88288" lon="5.42971">
        <ele>1163</ele>
        <time>2021-10-08T15:44:03Z</time>
      </trkpt>
      <trkpt lat="44.88289" lon="5.42971">
        <ele>1163</ele>
        <time>2021-10-08T15:44:04Z</time>
      </trkpt>
      <trkpt lat="44.8829" lon="5.42972">
        <ele>1163</ele>
        <time>2021-10-08T15:44:05Z</time>
      </trkpt>
      <trkpt lat="44.88291" lon="5.42971">
        <ele>1162</ele>
        <time>2021-10-08T15:44:06Z</time>
      </trkpt>
      <trkpt lat="44.88292" lon="5.42971">
        <ele>1162</ele>
        <time>2021-10-08T15:44:07Z</time>
      </trkpt>
      <trkpt lat="44.88293" lon="5.42972">
        <ele>1162</ele>
        <time>2021-10-08T15:44:08Z</time>
      </trkpt>
      <trkpt lat="44.88295" lon="5.42971">
        <ele>1161.2</ele>
        <time>2021-10-08T15:44:09Z</time>
      </trkpt>
      <trkpt lat="44.88296" lon="5.42971">
        <ele>1161.2</ele>
        <time>2021-10-08T15:44:10Z</time>
      </trkpt>
      <trkpt lat="44.88298" lon="5.42971">
        <ele>1161.2</ele>
        <time>2021-10-08T15:44:11Z</time>
      </trkpt>
      <trkpt lat="44.88299" lon="5.42972">
        <ele>1161.2</ele>
        <time>2021-10-08T15:44:12Z</time>
      </trkpt>
      <trkpt lat="44.88299" lon="5.42972">
        <ele>1161</ele>
        <time>2021-10-08T15:44:13Z</time>
      </trkpt>
      <trkpt lat="44.883" lon="5.42972">
        <ele>1160.6</ele>
        <time>2021-10-08T15:44:14Z</time>
      </trkpt>
      <trkpt lat="44.883" lon="5.42972">
        <ele>1160.6</ele>
        <time>2021-10-08T15:44:15Z</time>
      </trkpt>
      <trkpt lat="44.88312" lon="5.42972">
        <ele>1160</ele>
        <time>2021-10-08T15:44:24Z</time>
      </trkpt>
      <trkpt lat="44.88314" lon="5.42972">
        <ele>1159</ele>
        <time>2021-10-08T15:44:25Z</time>
      </trkpt>
      <trkpt lat="44.88316" lon="5.42972">
        <ele>1158.6</ele>
        <time>2021-10-08T15:44:26Z</time>
      </trkpt>
      <trkpt lat="44.88318" lon="5.42972">
        <ele>1158.6</ele>
        <time>2021-10-08T15:44:27Z</time>
      </trkpt>
      <trkpt lat="44.88319" lon="5.42972">
        <ele>1158.6</ele>
        <time>2021-10-08T15:44:28Z</time>
      </trkpt>
      <trkpt lat="44.88322" lon="5.42973">
        <ele>1157.6</ele>
        <time>2021-10-08T15:44:29Z</time>
      </trkpt>
      <trkpt lat="44.88325" lon="5.42975">
        <ele>1155.8</ele>
        <time>2021-10-08T15:44:30Z</time>
      </trkpt>
      <trkpt lat="44.88328" lon="5.42976">
        <ele>1155.8</ele>
        <time>2021-10-08T15:44:31Z</time>
      </trkpt>
      <trkpt lat="44.88331" lon="5.42977">
        <ele>1155.8</ele>
        <time>2021-10-08T15:44:32Z</time>
      </trkpt>
      <trkpt lat="44.88335" lon="5.4298">
        <ele>1154.8</ele>
        <time>2021-10-08T15:44:33Z</time>
      </trkpt>
      <trkpt lat="44.88339" lon="5.42984">
        <ele>1152.8</ele>
        <time>2021-10-08T15:44:34Z</time>
      </trkpt>
      <trkpt lat="44.88342" lon="5.42988">
        <ele>1152.8</ele>
        <time>2021-10-08T15:44:35Z</time>
      </trkpt>
      <trkpt lat="44.88345" lon="5.4299">
        <ele>1152.8</ele>
        <time>2021-10-08T15:44:36Z</time>
      </trkpt>
      <trkpt lat="44.88347" lon="5.42992">
        <ele>1152.4</ele>
        <time>2021-10-08T15:44:37Z</time>
      </trkpt>
      <trkpt lat="44.8835" lon="5.42993">
        <ele>1152.6</ele>
        <time>2021-10-08T15:44:38Z</time>
      </trkpt>
      <trkpt lat="44.88351" lon="5.42992">
        <ele>1152.6</ele>
        <time>2021-10-08T15:44:39Z</time>
      </trkpt>
      <trkpt lat="44.88352" lon="5.4299">
        <ele>1152.6</ele>
        <time>2021-10-08T15:44:40Z</time>
      </trkpt>
      <trkpt lat="44.88352" lon="5.42989">
        <ele>1151.8</ele>
        <time>2021-10-08T15:44:41Z</time>
      </trkpt>
      <trkpt lat="44.88351" lon="5.42988">
        <ele>1151.4</ele>
        <time>2021-10-08T15:44:42Z</time>
      </trkpt>
      <trkpt lat="44.88352" lon="5.42988">
        <ele>1151.4</ele>
        <time>2021-10-08T15:44:43Z</time>
      </trkpt>
      <trkpt lat="44.88352" lon="5.42988">
        <ele>1151.4</ele>
        <time>2021-10-08T15:44:44Z</time>
      </trkpt>
      <trkpt lat="44.88351" lon="5.4298">
        <ele>1151.2</ele>
        <time>2021-10-08T15:44:56Z</time>
      </trkpt>
      <trkpt lat="44.8835" lon="5.42976">
        <ele>1151.2</ele>
        <time>2021-10-08T15:44:57Z</time>
      </trkpt>
      <trkpt lat="44.88349" lon="5.42971">
        <ele>1149.6</ele>
        <time>2021-10-08T15:44:58Z</time>
      </trkpt>
      <trkpt lat="44.88348" lon="5.42966">
        <ele>1149.6</ele>
        <time>2021-10-08T15:44:59Z</time>
      </trkpt>
      <trkpt lat="44.88347" lon="5.42962">
        <ele>1149.6</ele>
        <time>2021-10-08T15:45:00Z</time>
      </trkpt>
      <trkpt lat="44.88347" lon="5.42957">
        <ele>1148.6</ele>
        <time>2021-10-08T15:45:01Z</time>
      </trkpt>
      <trkpt lat="44.88347" lon="5.42952">
        <ele>1148</ele>
        <time>2021-10-08T15:45:02Z</time>
      </trkpt>
      <trkpt lat="44.88346" lon="5.42947">
        <ele>1148</ele>
        <time>2021-10-08T15:45:03Z</time>
      </trkpt>
      <trkpt lat="44.88344" lon="5.42943">
        <ele>1148</ele>
        <time>2021-10-08T15:45:04Z</time>
      </trkpt>
      <trkpt lat="44.88341" lon="5.42938">
        <ele>1147</ele>
        <time>2021-10-08T15:45:05Z</time>
      </trkpt>
      <trkpt lat="44.88338" lon="5.42934">
        <ele>1145.2</ele>
        <time>2021-10-08T15:45:06Z</time>
      </trkpt>
      <trkpt lat="44.88334" lon="5.42931">
        <ele>1145.2</ele>
        <time>2021-10-08T15:45:07Z</time>
      </trkpt>
      <trkpt lat="44.88331" lon="5.42928">
        <ele>1145.2</ele>
        <time>2021-10-08T15:45:08Z</time>
      </trkpt>
      <trkpt lat="44.88327" lon="5.42925">
        <ele>1145.2</ele>
        <time>2021-10-08T15:45:09Z</time>
      </trkpt>
      <trkpt lat="44.88325" lon="5.42924">
        <ele>1143.6</ele>
        <time>2021-10-08T15:45:10Z</time>
      </trkpt>
      <trkpt lat="44.88322" lon="5.42922">
        <ele>1143.6</ele>
        <time>2021-10-08T15:45:11Z</time>
      </trkpt>
      <trkpt lat="44.88319" lon="5.4292">
        <ele>1143.6</ele>
        <time>2021-10-08T15:45:12Z</time>
      </trkpt>
      <trkpt lat="44.88317" lon="5.42918">
        <ele>1143.6</ele>
        <time>2021-10-08T15:45:13Z</time>
      </trkpt>
      <trkpt lat="44.88315" lon="5.42917">
        <ele>1142.2</ele>
        <time>2021-10-08T15:45:14Z</time>
      </trkpt>
      <trkpt lat="44.88312" lon="5.42915">
        <ele>1142.2</ele>
        <time>2021-10-08T15:45:15Z</time>
      </trkpt>
      <trkpt lat="44.88308" lon="5.42913">
        <ele>1142.2</ele>
        <time>2021-10-08T15:45:16Z</time>
      </trkpt>
      <trkpt lat="44.88304" lon="5.42912">
        <ele>1141.2</ele>
        <time>2021-10-08T15:45:17Z</time>
      </trkpt>
      <trkpt lat="44.883" lon="5.4291">
        <ele>1139.4</ele>
        <time>2021-10-08T15:45:18Z</time>
      </trkpt>
      <trkpt lat="44.88295" lon="5.42909">
        <ele>1139.4</ele>
        <time>2021-10-08T15:45:19Z</time>
      </trkpt>
      <trkpt lat="44.8829" lon="5.42907">
        <ele>1139.4</ele>
        <time>2021-10-08T15:45:20Z</time>
      </trkpt>
      <trkpt lat="44.88287" lon="5.42905">
        <ele>1139.4</ele>
        <time>2021-10-08T15:45:21Z</time>
      </trkpt>
      <trkpt lat="44.88283" lon="5.42903">
        <ele>1137.4</ele>
        <time>2021-10-08T15:45:22Z</time>
      </trkpt>
      <trkpt lat="44.8828" lon="5.42901">
        <ele>1137.4</ele>
        <time>2021-10-08T15:45:23Z</time>
      </trkpt>
      <trkpt lat="44.88277" lon="5.429">
        <ele>1137.4</ele>
        <time>2021-10-08T15:45:24Z</time>
      </trkpt>
      <trkpt lat="44.88274" lon="5.42898">
        <ele>1137.4</ele>
        <time>2021-10-08T15:45:25Z</time>
      </trkpt>
      <trkpt lat="44.8827" lon="5.42898">
        <ele>1137.2</ele>
        <time>2021-10-08T15:45:26Z</time>
      </trkpt>
      <trkpt lat="44.88267" lon="5.42897">
        <ele>1137.2</ele>
        <time>2021-10-08T15:45:27Z</time>
      </trkpt>
      <trkpt lat="44.88262" lon="5.42897">
        <ele>1137.2</ele>
        <time>2021-10-08T15:45:28Z</time>
      </trkpt>
      <trkpt lat="44.88258" lon="5.42896">
        <ele>1136.2</ele>
        <time>2021-10-08T15:45:29Z</time>
      </trkpt>
      <trkpt lat="44.88253" lon="5.42893">
        <ele>1134.2</ele>
        <time>2021-10-08T15:45:30Z</time>
      </trkpt>
      <trkpt lat="44.88249" lon="5.42889">
        <ele>1134.2</ele>
        <time>2021-10-08T15:45:31Z</time>
      </trkpt>
      <trkpt lat="44.88245" lon="5.42887">
        <ele>1134.2</ele>
        <time>2021-10-08T15:45:32Z</time>
      </trkpt>
      <trkpt lat="44.88241" lon="5.42884">
        <ele>1134.2</ele>
        <time>2021-10-08T15:45:33Z</time>
      </trkpt>
      <trkpt lat="44.88237" lon="5.42881">
        <ele>1133.2</ele>
        <time>2021-10-08T15:45:34Z</time>
      </trkpt>
      <trkpt lat="44.88233" lon="5.42878">
        <ele>1133.2</ele>
        <time>2021-10-08T15:45:35Z</time>
      </trkpt>
      <trkpt lat="44.88228" lon="5.42876">
        <ele>1133.2</ele>
        <time>2021-10-08T15:45:36Z</time>
      </trkpt>
      <trkpt lat="44.88223" lon="5.42874">
        <ele>1132.2</ele>
        <time>2021-10-08T15:45:37Z</time>
      </trkpt>
      <trkpt lat="44.88219" lon="5.42873">
        <ele>1131.4</ele>
        <time>2021-10-08T15:45:38Z</time>
      </trkpt>
      <trkpt lat="44.88214" lon="5.42873">
        <ele>1131.4</ele>
        <time>2021-10-08T15:45:39Z</time>
      </trkpt>
      <trkpt lat="44.8821" lon="5.42872">
        <ele>1131.4</ele>
        <time>2021-10-08T15:45:40Z</time>
      </trkpt>
      <trkpt lat="44.88205" lon="5.4287">
        <ele>1131</ele>
        <time>2021-10-08T15:45:41Z</time>
      </trkpt>
      <trkpt lat="44.88201" lon="5.42867">
        <ele>1131.4</ele>
        <time>2021-10-08T15:45:42Z</time>
      </trkpt>
      <trkpt lat="44.88198" lon="5.42864">
        <ele>1131.4</ele>
        <time>2021-10-08T15:45:43Z</time>
      </trkpt>
      <trkpt lat="44.88196" lon="5.42861">
        <ele>1131.4</ele>
        <time>2021-10-08T15:45:44Z</time>
      </trkpt>
      <trkpt lat="44.88194" lon="5.42858">
        <ele>1130.4</ele>
        <time>2021-10-08T15:45:45Z</time>
      </trkpt>
      <trkpt lat="44.88192" lon="5.42854">
        <ele>1128</ele>
        <time>2021-10-08T15:45:46Z</time>
      </trkpt>
      <trkpt lat="44.8819" lon="5.4285">
        <ele>1128</ele>
        <time>2021-10-08T15:45:47Z</time>
      </trkpt>
      <trkpt lat="44.88189" lon="5.42845">
        <ele>1128</ele>
        <time>2021-10-08T15:45:48Z</time>
      </trkpt>
      <trkpt lat="44.88188" lon="5.4284">
        <ele>1128</ele>
        <time>2021-10-08T15:45:49Z</time>
      </trkpt>
      <trkpt lat="44.88186" lon="5.42836">
        <ele>1127</ele>
        <time>2021-10-08T15:45:50Z</time>
      </trkpt>
      <trkpt lat="44.88183" lon="5.42833">
        <ele>1127</ele>
        <time>2021-10-08T15:45:51Z</time>
      </trkpt>
      <trkpt lat="44.8818" lon="5.42829">
        <ele>1127</ele>
        <time>2021-10-08T15:45:52Z</time>
      </trkpt>
      <trkpt lat="44.88176" lon="5.42826">
        <ele>1126</ele>
        <time>2021-10-08T15:45:53Z</time>
      </trkpt>
      <trkpt lat="44.88171" lon="5.42822">
        <ele>1123</ele>
        <time>2021-10-08T15:45:54Z</time>
      </trkpt>
      <trkpt lat="44.88164" lon="5.42819">
        <ele>1123</ele>
        <time>2021-10-08T15:45:55Z</time>
      </trkpt>
      <trkpt lat="44.88161" lon="5.42815">
        <ele>1123</ele>
        <time>2021-10-08T15:45:56Z</time>
      </trkpt>
      <trkpt lat="44.88157" lon="5.42811">
        <ele>1122</ele>
        <time>2021-10-08T15:45:57Z</time>
      </trkpt>
      <trkpt lat="44.88154" lon="5.42806">
        <ele>1120.8</ele>
        <time>2021-10-08T15:45:58Z</time>
      </trkpt>
      <trkpt lat="44.88152" lon="5.42799">
        <ele>1120.8</ele>
        <time>2021-10-08T15:45:59Z</time>
      </trkpt>
      <trkpt lat="44.88149" lon="5.42794">
        <ele>1120.8</ele>
        <time>2021-10-08T15:46:00Z</time>
      </trkpt>
      <trkpt lat="44.88147" lon="5.42787">
        <ele>1119.8</ele>
        <time>2021-10-08T15:46:01Z</time>
      </trkpt>
      <trkpt lat="44.88145" lon="5.4278">
        <ele>1118.4</ele>
        <time>2021-10-08T15:46:02Z</time>
      </trkpt>
      <trkpt lat="44.88142" lon="5.42774">
        <ele>1118.4</ele>
        <time>2021-10-08T15:46:03Z</time>
      </trkpt>
      <trkpt lat="44.88138" lon="5.42767">
        <ele>1118.4</ele>
        <time>2021-10-08T15:46:04Z</time>
      </trkpt>
      <trkpt lat="44.88134" lon="5.42761">
        <ele>1117.4</ele>
        <time>2021-10-08T15:46:05Z</time>
      </trkpt>
      <trkpt lat="44.8813" lon="5.42757">
        <ele>1114</ele>
        <time>2021-10-08T15:46:06Z</time>
      </trkpt>
      <trkpt lat="44.88126" lon="5.42754">
        <ele>1114</ele>
        <time>2021-10-08T15:46:07Z</time>
      </trkpt>
      <trkpt lat="44.88121" lon="5.4275">
        <ele>1114</ele>
        <time>2021-10-08T15:46:08Z</time>
      </trkpt>
      <trkpt lat="44.88117" lon="5.42747">
        <ele>1114.8</ele>
        <time>2021-10-08T15:46:09Z</time>
      </trkpt>
      <trkpt lat="44.88113" lon="5.42744">
        <ele>1114.2</ele>
        <time>2021-10-08T15:46:10Z</time>
      </trkpt>
      <trkpt lat="44.88109" lon="5.42742">
        <ele>1114.2</ele>
        <time>2021-10-08T15:46:11Z</time>
      </trkpt>
      <trkpt lat="44.88103" lon="5.4274">
        <ele>1114.2</ele>
        <time>2021-10-08T15:46:12Z</time>
      </trkpt>
      <trkpt lat="44.88098" lon="5.42738">
        <ele>1114.2</ele>
        <time>2021-10-08T15:46:13Z</time>
      </trkpt>
      <trkpt lat="44.88092" lon="5.42735">
        <ele>1111.4</ele>
        <time>2021-10-08T15:46:14Z</time>
      </trkpt>
      <trkpt lat="44.88087" lon="5.42733">
        <ele>1111.4</ele>
        <time>2021-10-08T15:46:15Z</time>
      </trkpt>
      <trkpt lat="44.88083" lon="5.42732">
        <ele>1111.4</ele>
        <time>2021-10-08T15:46:16Z</time>
      </trkpt>
      <trkpt lat="44.88079" lon="5.42732">
        <ele>1110.4</ele>
        <time>2021-10-08T15:46:17Z</time>
      </trkpt>
      <trkpt lat="44.88075" lon="5.42732">
        <ele>1108.8</ele>
        <time>2021-10-08T15:46:18Z</time>
      </trkpt>
      <trkpt lat="44.88072" lon="5.42731">
        <ele>1108.8</ele>
        <time>2021-10-08T15:46:19Z</time>
      </trkpt>
      <trkpt lat="44.88068" lon="5.42729">
        <ele>1108.8</ele>
        <time>2021-10-08T15:46:20Z</time>
      </trkpt>
      <trkpt lat="44.88062" lon="5.42726">
        <ele>1108.8</ele>
        <time>2021-10-08T15:46:21Z</time>
      </trkpt>
      <trkpt lat="44.88058" lon="5.42724">
        <ele>1106.8</ele>
        <time>2021-10-08T15:46:22Z</time>
      </trkpt>
      <trkpt lat="44.88055" lon="5.4272">
        <ele>1106.8</ele>
        <time>2021-10-08T15:46:23Z</time>
      </trkpt>
      <trkpt lat="44.88053" lon="5.42716">
        <ele>1106.8</ele>
        <time>2021-10-08T15:46:24Z</time>
      </trkpt>
      <trkpt lat="44.8805" lon="5.42711">
        <ele>1105.8</ele>
        <time>2021-10-08T15:46:25Z</time>
      </trkpt>
      <trkpt lat="44.88048" lon="5.42707">
        <ele>1104</ele>
        <time>2021-10-08T15:46:26Z</time>
      </trkpt>
      <trkpt lat="44.88044" lon="5.42702">
        <ele>1104</ele>
        <time>2021-10-08T15:46:27Z</time>
      </trkpt>
      <trkpt lat="44.88042" lon="5.42698">
        <ele>1104</ele>
        <time>2021-10-08T15:46:28Z</time>
      </trkpt>
      <trkpt lat="44.88039" lon="5.42694">
        <ele>1103.8</ele>
        <time>2021-10-08T15:46:29Z</time>
      </trkpt>
      <trkpt lat="44.88036" lon="5.4269">
        <ele>1103</ele>
        <time>2021-10-08T15:46:30Z</time>
      </trkpt>
      <trkpt lat="44.88033" lon="5.42685">
        <ele>1103</ele>
        <time>2021-10-08T15:46:31Z</time>
      </trkpt>
      <trkpt lat="44.88031" lon="5.42681">
        <ele>1103</ele>
        <time>2021-10-08T15:46:32Z</time>
      </trkpt>
      <trkpt lat="44.88029" lon="5.42677">
        <ele>1102</ele>
        <time>2021-10-08T15:46:33Z</time>
      </trkpt>
      <trkpt lat="44.88025" lon="5.42672">
        <ele>1100.6</ele>
        <time>2021-10-08T15:46:34Z</time>
      </trkpt>
      <trkpt lat="44.88022" lon="5.4267">
        <ele>1100.6</ele>
        <time>2021-10-08T15:46:35Z</time>
      </trkpt>
      <trkpt lat="44.88019" lon="5.42667">
        <ele>1100.6</ele>
        <time>2021-10-08T15:46:36Z</time>
      </trkpt>
      <trkpt lat="44.88015" lon="5.42666">
        <ele>1100.6</ele>
        <time>2021-10-08T15:46:37Z</time>
      </trkpt>
      <trkpt lat="44.88012" lon="5.42667">
        <ele>1099</ele>
        <time>2021-10-08T15:46:38Z</time>
      </trkpt>
      <trkpt lat="44.88007" lon="5.42665">
        <ele>1099</ele>
        <time>2021-10-08T15:46:39Z</time>
      </trkpt>
      <trkpt lat="44.88004" lon="5.42665">
        <ele>1099</ele>
        <time>2021-10-08T15:46:40Z</time>
      </trkpt>
      <trkpt lat="44.88001" lon="5.42668">
        <ele>1099</ele>
        <time>2021-10-08T15:46:41Z</time>
      </trkpt>
      <trkpt lat="44.87997" lon="5.42669">
        <ele>1096.8</ele>
        <time>2021-10-08T15:46:42Z</time>
      </trkpt>
      <trkpt lat="44.87991" lon="5.4267">
        <ele>1096.8</ele>
        <time>2021-10-08T15:46:43Z</time>
      </trkpt>
      <trkpt lat="44.87985" lon="5.42669">
        <ele>1096.8</ele>
        <time>2021-10-08T15:46:44Z</time>
      </trkpt>
      <trkpt lat="44.87981" lon="5.42671">
        <ele>1095.8</ele>
        <time>2021-10-08T15:46:45Z</time>
      </trkpt>
      <trkpt lat="44.87974" lon="5.42671">
        <ele>1094.8</ele>
        <time>2021-10-08T15:46:46Z</time>
      </trkpt>
      <trkpt lat="44.87969" lon="5.42668">
        <ele>1094.8</ele>
        <time>2021-10-08T15:46:47Z</time>
      </trkpt>
      <trkpt lat="44.87966" lon="5.42666">
        <ele>1094.8</ele>
        <time>2021-10-08T15:46:48Z</time>
      </trkpt>
      <trkpt lat="44.87961" lon="5.42662">
        <ele>1094.8</ele>
        <time>2021-10-08T15:46:49Z</time>
      </trkpt>
      <trkpt lat="44.87957" lon="5.42659">
        <ele>1092.2</ele>
        <time>2021-10-08T15:46:50Z</time>
      </trkpt>
      <trkpt lat="44.87952" lon="5.42655">
        <ele>1092.2</ele>
        <time>2021-10-08T15:46:51Z</time>
      </trkpt>
      <trkpt lat="44.87946" lon="5.42651">
        <ele>1092.2</ele>
        <time>2021-10-08T15:46:52Z</time>
      </trkpt>
      <trkpt lat="44.87941" lon="5.42649">
        <ele>1091.2</ele>
        <time>2021-10-08T15:46:53Z</time>
      </trkpt>
      <trkpt lat="44.87937" lon="5.42648">
        <ele>1090.8</ele>
        <time>2021-10-08T15:46:54Z</time>
      </trkpt>
      <trkpt lat="44.87934" lon="5.42647">
        <ele>1090.8</ele>
        <time>2021-10-08T15:46:55Z</time>
      </trkpt>
      <trkpt lat="44.8793" lon="5.42647">
        <ele>1090.8</ele>
        <time>2021-10-08T15:46:56Z</time>
      </trkpt>
      <trkpt lat="44.87928" lon="5.42646">
        <ele>1089.8</ele>
        <time>2021-10-08T15:46:57Z</time>
      </trkpt>
      <trkpt lat="44.87927" lon="5.42646">
        <ele>1089.8</ele>
        <time>2021-10-08T15:46:58Z</time>
      </trkpt>
      <trkpt lat="44.87926" lon="5.42645">
        <ele>1089.8</ele>
        <time>2021-10-08T15:46:59Z</time>
      </trkpt>
      <trkpt lat="44.87926" lon="5.42645">
        <ele>1089.8</ele>
        <time>2021-10-08T15:47:00Z</time>
      </trkpt>
      <trkpt lat="44.87904" lon="5.42639">
        <ele>1089</ele>
        <time>2021-10-08T15:48:56Z</time>
      </trkpt>
      <trkpt lat="44.87901" lon="5.42638">
        <ele>1088</ele>
        <time>2021-10-08T15:48:57Z</time>
      </trkpt>
      <trkpt lat="44.87898" lon="5.42635">
        <ele>1086.8</ele>
        <time>2021-10-08T15:48:58Z</time>
      </trkpt>
      <trkpt lat="44.87894" lon="5.42632">
        <ele>1086.8</ele>
        <time>2021-10-08T15:48:59Z</time>
      </trkpt>
      <trkpt lat="44.87892" lon="5.4263">
        <ele>1086.8</ele>
        <time>2021-10-08T15:49:00Z</time>
      </trkpt>
      <trkpt lat="44.87889" lon="5.42627">
        <ele>1086.8</ele>
        <time>2021-10-08T15:49:01Z</time>
      </trkpt>
      <trkpt lat="44.87887" lon="5.42624">
        <ele>1086.6</ele>
        <time>2021-10-08T15:49:02Z</time>
      </trkpt>
      <trkpt lat="44.87885" lon="5.42622">
        <ele>1086.6</ele>
        <time>2021-10-08T15:49:03Z</time>
      </trkpt>
      <trkpt lat="44.87884" lon="5.4262">
        <ele>1086.6</ele>
        <time>2021-10-08T15:49:04Z</time>
      </trkpt>
      <trkpt lat="44.87883" lon="5.42617">
        <ele>1085.6</ele>
        <time>2021-10-08T15:49:05Z</time>
      </trkpt>
      <trkpt lat="44.8788" lon="5.42614">
        <ele>1085</ele>
        <time>2021-10-08T15:49:06Z</time>
      </trkpt>
      <trkpt lat="44.87878" lon="5.42611">
        <ele>1085</ele>
        <time>2021-10-08T15:49:07Z</time>
      </trkpt>
      <trkpt lat="44.87875" lon="5.42609">
        <ele>1085</ele>
        <time>2021-10-08T15:49:08Z</time>
      </trkpt>
      <trkpt lat="44.87873" lon="5.42606">
        <ele>1085</ele>
        <time>2021-10-08T15:49:09Z</time>
      </trkpt>
      <trkpt lat="44.87871" lon="5.42604">
        <ele>1083.2</ele>
        <time>2021-10-08T15:49:10Z</time>
      </trkpt>
      <trkpt lat="44.87869" lon="5.42602">
        <ele>1083.2</ele>
        <time>2021-10-08T15:49:11Z</time>
      </trkpt>
      <trkpt lat="44.87867" lon="5.42599">
        <ele>1083.2</ele>
        <time>2021-10-08T15:49:12Z</time>
      </trkpt>
      <trkpt lat="44.87865" lon="5.42598">
        <ele>1083.2</ele>
        <time>2021-10-08T15:49:13Z</time>
      </trkpt>
      <trkpt lat="44.87863" lon="5.42596">
        <ele>1082</ele>
        <time>2021-10-08T15:49:14Z</time>
      </trkpt>
      <trkpt lat="44.8786" lon="5.42594">
        <ele>1082</ele>
        <time>2021-10-08T15:49:15Z</time>
      </trkpt>
      <trkpt lat="44.87859" lon="5.42593">
        <ele>1082</ele>
        <time>2021-10-08T15:49:16Z</time>
      </trkpt>
      <trkpt lat="44.87857" lon="5.42592">
        <ele>1081.2</ele>
        <time>2021-10-08T15:49:17Z</time>
      </trkpt>
      <trkpt lat="44.87855" lon="5.42591">
        <ele>1081</ele>
        <time>2021-10-08T15:49:18Z</time>
      </trkpt>
      <trkpt lat="44.87854" lon="5.42591">
        <ele>1081</ele>
        <time>2021-10-08T15:49:19Z</time>
      </trkpt>
      <trkpt lat="44.87853" lon="5.4259">
        <ele>1081</ele>
        <time>2021-10-08T15:49:20Z</time>
      </trkpt>
      <trkpt lat="44.87853" lon="5.4259">
        <ele>1080.6</ele>
        <time>2021-10-08T15:49:21Z</time>
      </trkpt>
      <trkpt lat="44.87853" lon="5.4259">
        <ele>1080.6</ele>
        <time>2021-10-08T15:49:22Z</time>
      </trkpt>
      <trkpt lat="44.87846" lon="5.42582">
        <ele>1079.6</ele>
        <time>2021-10-08T15:49:42Z</time>
      </trkpt>
      <trkpt lat="44.87844" lon="5.4258">
        <ele>1079.6</ele>
        <time>2021-10-08T15:49:43Z</time>
      </trkpt>
      <trkpt lat="44.87843" lon="5.42578">
        <ele>1079.6</ele>
        <time>2021-10-08T15:49:44Z</time>
      </trkpt>
      <trkpt lat="44.87841" lon="5.42576">
        <ele>1079</ele>
        <time>2021-10-08T15:49:45Z</time>
      </trkpt>
      <trkpt lat="44.87839" lon="5.42573">
        <ele>1078.2</ele>
        <time>2021-10-08T15:49:46Z</time>
      </trkpt>
      <trkpt lat="44.87836" lon="5.42571">
        <ele>1078.2</ele>
        <time>2021-10-08T15:49:47Z</time>
      </trkpt>
      <trkpt lat="44.87833" lon="5.42569">
        <ele>1078.2</ele>
        <time>2021-10-08T15:49:48Z</time>
      </trkpt>
      <trkpt lat="44.87831" lon="5.42566">
        <ele>1077.2</ele>
        <time>2021-10-08T15:49:49Z</time>
      </trkpt>
      <trkpt lat="44.87829" lon="5.42564">
        <ele>1074.8</ele>
        <time>2021-10-08T15:49:50Z</time>
      </trkpt>
      <trkpt lat="44.87825" lon="5.42561">
        <ele>1074.8</ele>
        <time>2021-10-08T15:49:51Z</time>
      </trkpt>
      <trkpt lat="44.87821" lon="5.42557">
        <ele>1074.8</ele>
        <time>2021-10-08T15:49:52Z</time>
      </trkpt>
      <trkpt lat="44.87817" lon="5.42554">
        <ele>1074.8</ele>
        <time>2021-10-08T15:49:53Z</time>
      </trkpt>
      <trkpt lat="44.87813" lon="5.42551">
        <ele>1072.6</ele>
        <time>2021-10-08T15:49:54Z</time>
      </trkpt>
      <trkpt lat="44.8781" lon="5.42547">
        <ele>1072.6</ele>
        <time>2021-10-08T15:49:55Z</time>
      </trkpt>
      <trkpt lat="44.87806" lon="5.42543">
        <ele>1072.6</ele>
        <time>2021-10-08T15:49:56Z</time>
      </trkpt>
      <trkpt lat="44.87802" lon="5.42539">
        <ele>1071.6</ele>
        <time>2021-10-08T15:49:57Z</time>
      </trkpt>
      <trkpt lat="44.87798" lon="5.42536">
        <ele>1071.4</ele>
        <time>2021-10-08T15:49:58Z</time>
      </trkpt>
      <trkpt lat="44.87794" lon="5.42533">
        <ele>1071.4</ele>
        <time>2021-10-08T15:49:59Z</time>
      </trkpt>
      <trkpt lat="44.87792" lon="5.42529">
        <ele>1071.4</ele>
        <time>2021-10-08T15:50:00Z</time>
      </trkpt>
      <trkpt lat="44.87788" lon="5.42525">
        <ele>1070.4</ele>
        <time>2021-10-08T15:50:01Z</time>
      </trkpt>
      <trkpt lat="44.87784" lon="5.42522">
        <ele>1066.6</ele>
        <time>2021-10-08T15:50:02Z</time>
      </trkpt>
      <trkpt lat="44.87779" lon="5.42518">
        <ele>1066.6</ele>
        <time>2021-10-08T15:50:03Z</time>
      </trkpt>
      <trkpt lat="44.87773" lon="5.42514">
        <ele>1066.6</ele>
        <time>2021-10-08T15:50:04Z</time>
      </trkpt>
      <trkpt lat="44.87767" lon="5.42509">
        <ele>1065.6</ele>
        <time>2021-10-08T15:50:05Z</time>
      </trkpt>
      <trkpt lat="44.87761" lon="5.42505">
        <ele>1063.4</ele>
        <time>2021-10-08T15:50:06Z</time>
      </trkpt>
      <trkpt lat="44.87756" lon="5.42502">
        <ele>1063.4</ele>
        <time>2021-10-08T15:50:07Z</time>
      </trkpt>
      <trkpt lat="44.87752" lon="5.425">
        <ele>1063.4</ele>
        <time>2021-10-08T15:50:08Z</time>
      </trkpt>
      <trkpt lat="44.87748" lon="5.42499">
        <ele>1062.4</ele>
        <time>2021-10-08T15:50:09Z</time>
      </trkpt>
      <trkpt lat="44.87745" lon="5.42499">
        <ele>1061.8</ele>
        <time>2021-10-08T15:50:10Z</time>
      </trkpt>
      <trkpt lat="44.87739" lon="5.42496">
        <ele>1061.8</ele>
        <time>2021-10-08T15:50:11Z</time>
      </trkpt>
      <trkpt lat="44.87735" lon="5.42494">
        <ele>1061.8</ele>
        <time>2021-10-08T15:50:12Z</time>
      </trkpt>
      <trkpt lat="44.87729" lon="5.4249">
        <ele>1060.8</ele>
        <time>2021-10-08T15:50:13Z</time>
      </trkpt>
      <trkpt lat="44.87726" lon="5.42484">
        <ele>1057.4</ele>
        <time>2021-10-08T15:50:14Z</time>
      </trkpt>
      <trkpt lat="44.87721" lon="5.42477">
        <ele>1057.4</ele>
        <time>2021-10-08T15:50:15Z</time>
      </trkpt>
      <trkpt lat="44.87717" lon="5.42471">
        <ele>1057.4</ele>
        <time>2021-10-08T15:50:16Z</time>
      </trkpt>
      <trkpt lat="44.87713" lon="5.42466">
        <ele>1057.4</ele>
        <time>2021-10-08T15:50:17Z</time>
      </trkpt>
      <trkpt lat="44.87709" lon="5.42459">
        <ele>1053.8</ele>
        <time>2021-10-08T15:50:18Z</time>
      </trkpt>
      <trkpt lat="44.87705" lon="5.42454">
        <ele>1053.8</ele>
        <time>2021-10-08T15:50:19Z</time>
      </trkpt>
      <trkpt lat="44.87701" lon="5.42448">
        <ele>1053.8</ele>
        <time>2021-10-08T15:50:20Z</time>
      </trkpt>
      <trkpt lat="44.87699" lon="5.42444">
        <ele>1053.2</ele>
        <time>2021-10-08T15:50:21Z</time>
      </trkpt>
      <trkpt lat="44.87695" lon="5.4244">
        <ele>1052</ele>
        <time>2021-10-08T15:50:22Z</time>
      </trkpt>
      <trkpt lat="44.87693" lon="5.42438">
        <ele>1052</ele>
        <time>2021-10-08T15:50:23Z</time>
      </trkpt>
      <trkpt lat="44.87689" lon="5.42433">
        <ele>1052</ele>
        <time>2021-10-08T15:50:24Z</time>
      </trkpt>
      <trkpt lat="44.87684" lon="5.4243">
        <ele>1052</ele>
        <time>2021-10-08T15:50:25Z</time>
      </trkpt>
      <trkpt lat="44.87678" lon="5.42428">
        <ele>1048.8</ele>
        <time>2021-10-08T15:50:26Z</time>
      </trkpt>
      <trkpt lat="44.8767" lon="5.42423">
        <ele>1048.8</ele>
        <time>2021-10-08T15:50:27Z</time>
      </trkpt>
      <trkpt lat="44.87665" lon="5.42421">
        <ele>1048.8</ele>
        <time>2021-10-08T15:50:28Z</time>
      </trkpt>
      <trkpt lat="44.87659" lon="5.4242">
        <ele>1047.8</ele>
        <time>2021-10-08T15:50:29Z</time>
      </trkpt>
      <trkpt lat="44.87653" lon="5.42418">
        <ele>1046.2</ele>
        <time>2021-10-08T15:50:30Z</time>
      </trkpt>
      <trkpt lat="44.87647" lon="5.42417">
        <ele>1046.2</ele>
        <time>2021-10-08T15:50:31Z</time>
      </trkpt>
      <trkpt lat="44.87642" lon="5.42416">
        <ele>1046.2</ele>
        <time>2021-10-08T15:50:32Z</time>
      </trkpt>
      <trkpt lat="44.87637" lon="5.42413">
        <ele>1045.2</ele>
        <time>2021-10-08T15:50:33Z</time>
      </trkpt>
      <trkpt lat="44.8763" lon="5.42409">
        <ele>1043.2</ele>
        <time>2021-10-08T15:50:34Z</time>
      </trkpt>
      <trkpt lat="44.87625" lon="5.42404">
        <ele>1043.2</ele>
        <time>2021-10-08T15:50:35Z</time>
      </trkpt>
      <trkpt lat="44.87619" lon="5.42401">
        <ele>1043.2</ele>
        <time>2021-10-08T15:50:36Z</time>
      </trkpt>
      <trkpt lat="44.87614" lon="5.42398">
        <ele>1042.4</ele>
        <time>2021-10-08T15:50:37Z</time>
      </trkpt>
      <trkpt lat="44.87609" lon="5.42395">
        <ele>1041.4</ele>
        <time>2021-10-08T15:50:38Z</time>
      </trkpt>
      <trkpt lat="44.87603" lon="5.42391">
        <ele>1041.4</ele>
        <time>2021-10-08T15:50:39Z</time>
      </trkpt>
      <trkpt lat="44.87598" lon="5.42389">
        <ele>1041.4</ele>
        <time>2021-10-08T15:50:40Z</time>
      </trkpt>
      <trkpt lat="44.87592" lon="5.42387">
        <ele>1040.4</ele>
        <time>2021-10-08T15:50:41Z</time>
      </trkpt>
      <trkpt lat="44.87588" lon="5.42386">
        <ele>1039</ele>
        <time>2021-10-08T15:50:42Z</time>
      </trkpt>
      <trkpt lat="44.87583" lon="5.42385">
        <ele>1039</ele>
        <time>2021-10-08T15:50:43Z</time>
      </trkpt>
      <trkpt lat="44.87578" lon="5.42384">
        <ele>1039</ele>
        <time>2021-10-08T15:50:44Z</time>
      </trkpt>
      <trkpt lat="44.87574" lon="5.42383">
        <ele>1038.4</ele>
        <time>2021-10-08T15:50:45Z</time>
      </trkpt>
      <trkpt lat="44.87569" lon="5.42381">
        <ele>1036.8</ele>
        <time>2021-10-08T15:50:46Z</time>
      </trkpt>
      <trkpt lat="44.87565" lon="5.42379">
        <ele>1036.8</ele>
        <time>2021-10-08T15:50:47Z</time>
      </trkpt>
      <trkpt lat="44.87561" lon="5.42378">
        <ele>1036.8</ele>
        <time>2021-10-08T15:50:48Z</time>
      </trkpt>
      <trkpt lat="44.87557" lon="5.42377">
        <ele>1035.8</ele>
        <time>2021-10-08T15:50:49Z</time>
      </trkpt>
      <trkpt lat="44.87552" lon="5.42377">
        <ele>1033.6</ele>
        <time>2021-10-08T15:50:50Z</time>
      </trkpt>
      <trkpt lat="44.87547" lon="5.42375">
        <ele>1033.6</ele>
        <time>2021-10-08T15:50:51Z</time>
      </trkpt>
      <trkpt lat="44.87543" lon="5.42374">
        <ele>1033.6</ele>
        <time>2021-10-08T15:50:52Z</time>
      </trkpt>
      <trkpt lat="44.87539" lon="5.42371">
        <ele>1033.6</ele>
        <time>2021-10-08T15:50:53Z</time>
      </trkpt>
      <trkpt lat="44.87535" lon="5.42367">
        <ele>1030.4</ele>
        <time>2021-10-08T15:50:54Z</time>
      </trkpt>
      <trkpt lat="44.87531" lon="5.42364">
        <ele>1030.4</ele>
        <time>2021-10-08T15:50:55Z</time>
      </trkpt>
      <trkpt lat="44.87526" lon="5.42361">
        <ele>1030.4</ele>
        <time>2021-10-08T15:50:56Z</time>
      </trkpt>
      <trkpt lat="44.87521" lon="5.42358">
        <ele>1030.4</ele>
        <time>2021-10-08T15:50:57Z</time>
      </trkpt>
      <trkpt lat="44.87516" lon="5.42353">
        <ele>1029.6</ele>
        <time>2021-10-08T15:50:58Z</time>
      </trkpt>
      <trkpt lat="44.87513" lon="5.4235">
        <ele>1029.6</ele>
        <time>2021-10-08T15:50:59Z</time>
      </trkpt>
      <trkpt lat="44.87509" lon="5.42347">
        <ele>1029.6</ele>
        <time>2021-10-08T15:51:00Z</time>
      </trkpt>
      <trkpt lat="44.87504" lon="5.42341">
        <ele>1028.6</ele>
        <time>2021-10-08T15:51:01Z</time>
      </trkpt>
      <trkpt lat="44.87499" lon="5.42334">
        <ele>1024</ele>
        <time>2021-10-08T15:51:02Z</time>
      </trkpt>
      <trkpt lat="44.87495" lon="5.42327">
        <ele>1024</ele>
        <time>2021-10-08T15:51:03Z</time>
      </trkpt>
      <trkpt lat="44.8749" lon="5.42319">
        <ele>1024</ele>
        <time>2021-10-08T15:51:04Z</time>
      </trkpt>
      <trkpt lat="44.87486" lon="5.42311">
        <ele>1024</ele>
        <time>2021-10-08T15:51:05Z</time>
      </trkpt>
      <trkpt lat="44.87482" lon="5.42304">
        <ele>1024.8</ele>
        <time>2021-10-08T15:51:06Z</time>
      </trkpt>
      <trkpt lat="44.87478" lon="5.42298">
        <ele>1024.8</ele>
        <time>2021-10-08T15:51:07Z</time>
      </trkpt>
      <trkpt lat="44.87475" lon="5.42291">
        <ele>1024.8</ele>
        <time>2021-10-08T15:51:08Z</time>
      </trkpt>
      <trkpt lat="44.87472" lon="5.42285">
        <ele>1023.8</ele>
        <time>2021-10-08T15:51:09Z</time>
      </trkpt>
      <trkpt lat="44.87469" lon="5.42279">
        <ele>1022.6</ele>
        <time>2021-10-08T15:51:10Z</time>
      </trkpt>
      <trkpt lat="44.87465" lon="5.42273">
        <ele>1022.6</ele>
        <time>2021-10-08T15:51:11Z</time>
      </trkpt>
      <trkpt lat="44.87462" lon="5.42268">
        <ele>1022.6</ele>
        <time>2021-10-08T15:51:12Z</time>
      </trkpt>
      <trkpt lat="44.87458" lon="5.42262">
        <ele>1022.6</ele>
        <time>2021-10-08T15:51:13Z</time>
      </trkpt>
      <trkpt lat="44.87456" lon="5.42259">
        <ele>1023.4</ele>
        <time>2021-10-08T15:51:14Z</time>
      </trkpt>
      <trkpt lat="44.87455" lon="5.42257">
        <ele>1023.4</ele>
        <time>2021-10-08T15:51:15Z</time>
      </trkpt>
      <trkpt lat="44.87453" lon="5.42254">
        <ele>1023.4</ele>
        <time>2021-10-08T15:51:16Z</time>
      </trkpt>
      <trkpt lat="44.87452" lon="5.42251">
        <ele>1023.4</ele>
        <time>2021-10-08T15:51:17Z</time>
      </trkpt>
      <trkpt lat="44.87451" lon="5.42248">
        <ele>1022.6</ele>
        <time>2021-10-08T15:51:18Z</time>
      </trkpt>
      <trkpt lat="44.8745" lon="5.42245">
        <ele>1022.6</ele>
        <time>2021-10-08T15:51:19Z</time>
      </trkpt>
      <trkpt lat="44.87448" lon="5.42242">
        <ele>1022.6</ele>
        <time>2021-10-08T15:51:20Z</time>
      </trkpt>
      <trkpt lat="44.87446" lon="5.4224">
        <ele>1022.6</ele>
        <time>2021-10-08T15:51:21Z</time>
      </trkpt>
      <trkpt lat="44.87445" lon="5.42239">
        <ele>1022.2</ele>
        <time>2021-10-08T15:51:22Z</time>
      </trkpt>
      <trkpt lat="44.87445" lon="5.42239">
        <ele>1022.2</ele>
        <time>2021-10-08T15:51:23Z</time>
      </trkpt>
      <trkpt lat="44.87445" lon="5.42239">
        <ele>1022.2</ele>
        <time>2021-10-08T15:51:24Z</time>
      </trkpt>
      <trkpt lat="44.87431" lon="5.42225">
        <ele>1019.6</ele>
        <time>2021-10-08T15:54:03Z</time>
      </trkpt>
      <trkpt lat="44.87428" lon="5.42224">
        <ele>1019.6</ele>
        <time>2021-10-08T15:54:04Z</time>
      </trkpt>
      <trkpt lat="44.87425" lon="5.42222">
        <ele>1018.8</ele>
        <time>2021-10-08T15:54:05Z</time>
      </trkpt>
      <trkpt lat="44.87422" lon="5.42221">
        <ele>1018.2</ele>
        <time>2021-10-08T15:54:06Z</time>
      </trkpt>
      <trkpt lat="44.8742" lon="5.4222">
        <ele>1018.2</ele>
        <time>2021-10-08T15:54:07Z</time>
      </trkpt>
      <trkpt lat="44.87418" lon="5.4222">
        <ele>1018.2</ele>
        <time>2021-10-08T15:54:08Z</time>
      </trkpt>
      <trkpt lat="44.87416" lon="5.42219">
        <ele>1017.4</ele>
        <time>2021-10-08T15:54:09Z</time>
      </trkpt>
      <trkpt lat="44.87414" lon="5.42219">
        <ele>1017.6</ele>
        <time>2021-10-08T15:54:10Z</time>
      </trkpt>
      <trkpt lat="44.87413" lon="5.42218">
        <ele>1017.6</ele>
        <time>2021-10-08T15:54:11Z</time>
      </trkpt>
      <trkpt lat="44.87412" lon="5.42219">
        <ele>1017.6</ele>
        <time>2021-10-08T15:54:12Z</time>
      </trkpt>
      <trkpt lat="44.87409" lon="5.42218">
        <ele>1016.6</ele>
        <time>2021-10-08T15:54:13Z</time>
      </trkpt>
      <trkpt lat="44.87407" lon="5.42218">
        <ele>1016.2</ele>
        <time>2021-10-08T15:54:14Z</time>
      </trkpt>
      <trkpt lat="44.87405" lon="5.42217">
        <ele>1016.2</ele>
        <time>2021-10-08T15:54:15Z</time>
      </trkpt>
      <trkpt lat="44.87404" lon="5.42217">
        <ele>1016.2</ele>
        <time>2021-10-08T15:54:16Z</time>
      </trkpt>
      <trkpt lat="44.87403" lon="5.42217">
        <ele>1015.2</ele>
        <time>2021-10-08T15:54:17Z</time>
      </trkpt>
      <trkpt lat="44.87402" lon="5.42218">
        <ele>1015.2</ele>
        <time>2021-10-08T15:54:18Z</time>
      </trkpt>
      <trkpt lat="44.87401" lon="5.42219">
        <ele>1015.2</ele>
        <time>2021-10-08T15:54:19Z</time>
      </trkpt>
      <trkpt lat="44.87399" lon="5.4222">
        <ele>1015.2</ele>
        <time>2021-10-08T15:54:20Z</time>
      </trkpt>
      <trkpt lat="44.87398" lon="5.4222">
        <ele>1014.2</ele>
        <time>2021-10-08T15:54:21Z</time>
      </trkpt>
      <trkpt lat="44.87396" lon="5.42221">
        <ele>1012.6</ele>
        <time>2021-10-08T15:54:22Z</time>
      </trkpt>
      <trkpt lat="44.87395" lon="5.4222">
        <ele>1012.6</ele>
        <time>2021-10-08T15:54:23Z</time>
      </trkpt>
      <trkpt lat="44.87394" lon="5.42221">
        <ele>1012.6</ele>
        <time>2021-10-08T15:54:24Z</time>
      </trkpt>
      <trkpt lat="44.87392" lon="5.4222">
        <ele>1011.8</ele>
        <time>2021-10-08T15:54:25Z</time>
      </trkpt>
      <trkpt lat="44.8739" lon="5.4222">
        <ele>1011.2</ele>
        <time>2021-10-08T15:54:26Z</time>
      </trkpt>
      <trkpt lat="44.87388" lon="5.4222">
        <ele>1011.2</ele>
        <time>2021-10-08T15:54:27Z</time>
      </trkpt>
      <trkpt lat="44.87385" lon="5.42221">
        <ele>1011.2</ele>
        <time>2021-10-08T15:54:28Z</time>
      </trkpt>
      <trkpt lat="44.87383" lon="5.42221">
        <ele>1010.2</ele>
        <time>2021-10-08T15:54:29Z</time>
      </trkpt>
      <trkpt lat="44.8738" lon="5.42222">
        <ele>1008.4</ele>
        <time>2021-10-08T15:54:30Z</time>
      </trkpt>
      <trkpt lat="44.87378" lon="5.42223">
        <ele>1008.4</ele>
        <time>2021-10-08T15:54:31Z</time>
      </trkpt>
      <trkpt lat="44.87375" lon="5.42225">
        <ele>1008.4</ele>
        <time>2021-10-08T15:54:32Z</time>
      </trkpt>
      <trkpt lat="44.87372" lon="5.42225">
        <ele>1007.4</ele>
        <time>2021-10-08T15:54:33Z</time>
      </trkpt>
      <trkpt lat="44.8737" lon="5.42226">
        <ele>1005.8</ele>
        <time>2021-10-08T15:54:34Z</time>
      </trkpt>
      <trkpt lat="44.87367" lon="5.42227">
        <ele>1005.8</ele>
        <time>2021-10-08T15:54:35Z</time>
      </trkpt>
      <trkpt lat="44.87364" lon="5.42228">
        <ele>1005.8</ele>
        <time>2021-10-08T15:54:36Z</time>
      </trkpt>
      <trkpt lat="44.87361" lon="5.42229">
        <ele>1004.8</ele>
        <time>2021-10-08T15:54:37Z</time>
      </trkpt>
      <trkpt lat="44.87358" lon="5.42229">
        <ele>1002.4</ele>
        <time>2021-10-08T15:54:38Z</time>
      </trkpt>
      <trkpt lat="44.87353" lon="5.42228">
        <ele>1002.4</ele>
        <time>2021-10-08T15:54:39Z</time>
      </trkpt>
      <trkpt lat="44.8735" lon="5.42228">
        <ele>1002.4</ele>
        <time>2021-10-08T15:54:40Z</time>
      </trkpt>
      <trkpt lat="44.87346" lon="5.42226">
        <ele>1001.4</ele>
        <time>2021-10-08T15:54:41Z</time>
      </trkpt>
      <trkpt lat="44.87343" lon="5.42226">
        <ele>1000.2</ele>
        <time>2021-10-08T15:54:42Z</time>
      </trkpt>
      <trkpt lat="44.87338" lon="5.42225">
        <ele>1000.2</ele>
        <time>2021-10-08T15:54:43Z</time>
      </trkpt>
      <trkpt lat="44.87334" lon="5.42224">
        <ele>1000.2</ele>
        <time>2021-10-08T15:54:44Z</time>
      </trkpt>
      <trkpt lat="44.87329" lon="5.42223">
        <ele>999.2</ele>
        <time>2021-10-08T15:54:45Z</time>
      </trkpt>
      <trkpt lat="44.87324" lon="5.42222">
        <ele>997.2</ele>
        <time>2021-10-08T15:54:46Z</time>
      </trkpt>
      <trkpt lat="44.8732" lon="5.42221">
        <ele>997.2</ele>
        <time>2021-10-08T15:54:47Z</time>
      </trkpt>
      <trkpt lat="44.87316" lon="5.4222">
        <ele>997.2</ele>
        <time>2021-10-08T15:54:48Z</time>
      </trkpt>
      <trkpt lat="44.87312" lon="5.42218">
        <ele>996.2</ele>
        <time>2021-10-08T15:54:49Z</time>
      </trkpt>
      <trkpt lat="44.87308" lon="5.42217">
        <ele>995.4</ele>
        <time>2021-10-08T15:54:50Z</time>
      </trkpt>
      <trkpt lat="44.87305" lon="5.42215">
        <ele>995.4</ele>
        <time>2021-10-08T15:54:51Z</time>
      </trkpt>
      <trkpt lat="44.87302" lon="5.42213">
        <ele>995.4</ele>
        <time>2021-10-08T15:54:52Z</time>
      </trkpt>
      <trkpt lat="44.87299" lon="5.4221">
        <ele>995.4</ele>
        <time>2021-10-08T15:54:53Z</time>
      </trkpt>
      <trkpt lat="44.87295" lon="5.42209">
        <ele>993.6</ele>
        <time>2021-10-08T15:54:54Z</time>
      </trkpt>
      <trkpt lat="44.87291" lon="5.42207">
        <ele>993.6</ele>
        <time>2021-10-08T15:54:55Z</time>
      </trkpt>
      <trkpt lat="44.87288" lon="5.42206">
        <ele>993.6</ele>
        <time>2021-10-08T15:54:56Z</time>
      </trkpt>
      <trkpt lat="44.87285" lon="5.42205">
        <ele>993.6</ele>
        <time>2021-10-08T15:54:57Z</time>
      </trkpt>
      <trkpt lat="44.87282" lon="5.42204">
        <ele>992.4</ele>
        <time>2021-10-08T15:54:58Z</time>
      </trkpt>
      <trkpt lat="44.8728" lon="5.42205">
        <ele>992.4</ele>
        <time>2021-10-08T15:54:59Z</time>
      </trkpt>
      <trkpt lat="44.87278" lon="5.42205">
        <ele>992.4</ele>
        <time>2021-10-08T15:55:00Z</time>
      </trkpt>
      <trkpt lat="44.87278" lon="5.42204">
        <ele>991.8</ele>
        <time>2021-10-08T15:55:01Z</time>
      </trkpt>
      <trkpt lat="44.87277" lon="5.42205">
        <ele>991.6</ele>
        <time>2021-10-08T15:55:02Z</time>
      </trkpt>
      <trkpt lat="44.87276" lon="5.42204">
        <ele>991.6</ele>
        <time>2021-10-08T15:55:03Z</time>
      </trkpt>
      <trkpt lat="44.87276" lon="5.42205">
        <ele>991.6</ele>
        <time>2021-10-08T15:55:04Z</time>
      </trkpt>
      <trkpt lat="44.87276" lon="5.42205">
        <ele>991.6</ele>
        <time>2021-10-08T15:55:05Z</time>
      </trkpt>
      <trkpt lat="44.87275" lon="5.42204">
        <ele>992</ele>
        <time>2021-10-08T15:55:06Z</time>
      </trkpt>
      <trkpt lat="44.87259" lon="5.42203">
        <ele>989.4</ele>
        <time>2021-10-08T15:55:29Z</time>
      </trkpt>
      <trkpt lat="44.87257" lon="5.42202">
        <ele>989.4</ele>
        <time>2021-10-08T15:55:30Z</time>
      </trkpt>
      <trkpt lat="44.87255" lon="5.42202">
        <ele>989.4</ele>
        <time>2021-10-08T15:55:31Z</time>
      </trkpt>
      <trkpt lat="44.87252" lon="5.42202">
        <ele>989.4</ele>
        <time>2021-10-08T15:55:32Z</time>
      </trkpt>
      <trkpt lat="44.8725" lon="5.42202">
        <ele>989.4</ele>
        <time>2021-10-08T15:55:33Z</time>
      </trkpt>
      <trkpt lat="44.87248" lon="5.42202">
        <ele>988.8</ele>
        <time>2021-10-08T15:55:34Z</time>
      </trkpt>
      <trkpt lat="44.87246" lon="5.42202">
        <ele>988.8</ele>
        <time>2021-10-08T15:55:35Z</time>
      </trkpt>
      <trkpt lat="44.87244" lon="5.42201">
        <ele>988.8</ele>
        <time>2021-10-08T15:55:36Z</time>
      </trkpt>
      <trkpt lat="44.87242" lon="5.42201">
        <ele>988.8</ele>
        <time>2021-10-08T15:55:37Z</time>
      </trkpt>
      <trkpt lat="44.8724" lon="5.42201">
        <ele>989.4</ele>
        <time>2021-10-08T15:55:38Z</time>
      </trkpt>
      <trkpt lat="44.8724" lon="5.42201">
        <ele>989.4</ele>
        <time>2021-10-08T15:55:39Z</time>
      </trkpt>
      <trkpt lat="44.8724" lon="5.42201">
        <ele>989.4</ele>
        <time>2021-10-08T15:55:40Z</time>
      </trkpt>
      <trkpt lat="44.8724" lon="5.42201">
        <ele>988.6</ele>
        <time>2021-10-08T15:55:41Z</time>
      </trkpt>
      <trkpt lat="44.87228" lon="5.42201">
        <ele>988.2</ele>
        <time>2021-10-08T15:55:55Z</time>
      </trkpt>
      <trkpt lat="44.87225" lon="5.42201">
        <ele>988.2</ele>
        <time>2021-10-08T15:55:56Z</time>
      </trkpt>
      <trkpt lat="44.87223" lon="5.422">
        <ele>987.2</ele>
        <time>2021-10-08T15:55:57Z</time>
      </trkpt>
      <trkpt lat="44.8722" lon="5.42199">
        <ele>987.2</ele>
        <time>2021-10-08T15:55:58Z</time>
      </trkpt>
      <trkpt lat="44.87216" lon="5.42199">
        <ele>987.2</ele>
        <time>2021-10-08T15:55:59Z</time>
      </trkpt>
      <trkpt lat="44.87213" lon="5.42197">
        <ele>987.2</ele>
        <time>2021-10-08T15:56:00Z</time>
      </trkpt>
      <trkpt lat="44.87211" lon="5.42197">
        <ele>987.2</ele>
        <time>2021-10-08T15:56:01Z</time>
      </trkpt>
      <trkpt lat="44.87209" lon="5.42196">
        <ele>987.2</ele>
        <time>2021-10-08T15:56:02Z</time>
      </trkpt>
      <trkpt lat="44.87206" lon="5.42194">
        <ele>987.2</ele>
        <time>2021-10-08T15:56:03Z</time>
      </trkpt>
      <trkpt lat="44.87203" lon="5.42193">
        <ele>987.2</ele>
        <time>2021-10-08T15:56:04Z</time>
      </trkpt>
      <trkpt lat="44.872" lon="5.42192">
        <ele>986.6</ele>
        <time>2021-10-08T15:56:05Z</time>
      </trkpt>
      <trkpt lat="44.87197" lon="5.42191">
        <ele>986.6</ele>
        <time>2021-10-08T15:56:06Z</time>
      </trkpt>
      <trkpt lat="44.87195" lon="5.42192">
        <ele>986.6</ele>
        <time>2021-10-08T15:56:07Z</time>
      </trkpt>
      <trkpt lat="44.87195" lon="5.42192">
        <ele>986.6</ele>
        <time>2021-10-08T15:56:08Z</time>
      </trkpt>
      <trkpt lat="44.87195" lon="5.42192">
        <ele>987</ele>
        <time>2021-10-08T15:56:09Z</time>
      </trkpt>
      <trkpt lat="44.87179" lon="5.42192">
        <ele>986.6</ele>
        <time>2021-10-08T15:56:32Z</time>
      </trkpt>
      <trkpt lat="44.87178" lon="5.42193">
        <ele>986.6</ele>
        <time>2021-10-08T15:56:33Z</time>
      </trkpt>
      <trkpt lat="44.87175" lon="5.42192">
        <ele>985.6</ele>
        <time>2021-10-08T15:56:34Z</time>
      </trkpt>
      <trkpt lat="44.87174" lon="5.42192">
        <ele>985.6</ele>
        <time>2021-10-08T15:56:35Z</time>
      </trkpt>
      <trkpt lat="44.87172" lon="5.42192">
        <ele>985.6</ele>
        <time>2021-10-08T15:56:36Z</time>
      </trkpt>
      <trkpt lat="44.8717" lon="5.42191">
        <ele>985.4</ele>
        <time>2021-10-08T15:56:37Z</time>
      </trkpt>
      <trkpt lat="44.87168" lon="5.42191">
        <ele>985</ele>
        <time>2021-10-08T15:56:38Z</time>
      </trkpt>
      <trkpt lat="44.87166" lon="5.42191">
        <ele>985</ele>
        <time>2021-10-08T15:56:39Z</time>
      </trkpt>
      <trkpt lat="44.87164" lon="5.42191">
        <ele>985</ele>
        <time>2021-10-08T15:56:40Z</time>
      </trkpt>
      <trkpt lat="44.87162" lon="5.4219">
        <ele>984</ele>
        <time>2021-10-08T15:56:41Z</time>
      </trkpt>
      <trkpt lat="44.8716" lon="5.42189">
        <ele>983.2</ele>
        <time>2021-10-08T15:56:42Z</time>
      </trkpt>
      <trkpt lat="44.87158" lon="5.42188">
        <ele>983.2</ele>
        <time>2021-10-08T15:56:43Z</time>
      </trkpt>
      <trkpt lat="44.87155" lon="5.42187">
        <ele>983.2</ele>
        <time>2021-10-08T15:56:44Z</time>
      </trkpt>
      <trkpt lat="44.87153" lon="5.42187">
        <ele>982.4</ele>
        <time>2021-10-08T15:56:45Z</time>
      </trkpt>
      <trkpt lat="44.8715" lon="5.42185">
        <ele>981.6</ele>
        <time>2021-10-08T15:56:46Z</time>
      </trkpt>
      <trkpt lat="44.87148" lon="5.42185">
        <ele>981.6</ele>
        <time>2021-10-08T15:56:47Z</time>
      </trkpt>
      <trkpt lat="44.87146" lon="5.42184">
        <ele>981.6</ele>
        <time>2021-10-08T15:56:48Z</time>
      </trkpt>
      <trkpt lat="44.87146" lon="5.42184">
        <ele>981.6</ele>
        <time>2021-10-08T15:56:49Z</time>
      </trkpt>
      <trkpt lat="44.87145" lon="5.42183">
        <ele>980.8</ele>
        <time>2021-10-08T15:56:50Z</time>
      </trkpt>
      <trkpt lat="44.87143" lon="5.42182">
        <ele>980.8</ele>
        <time>2021-10-08T15:56:51Z</time>
      </trkpt>
      <trkpt lat="44.87142" lon="5.42181">
        <ele>980.8</ele>
        <time>2021-10-08T15:56:52Z</time>
      </trkpt>
      <trkpt lat="44.87141" lon="5.42181">
        <ele>980.8</ele>
        <time>2021-10-08T15:56:53Z</time>
      </trkpt>
      <trkpt lat="44.87141" lon="5.42181">
        <ele>980.4</ele>
        <time>2021-10-08T15:56:54Z</time>
      </trkpt>
      <trkpt lat="44.87141" lon="5.4218">
        <ele>980.4</ele>
        <time>2021-10-08T15:56:55Z</time>
      </trkpt>
      <trkpt lat="44.8714" lon="5.42179">
        <ele>980.4</ele>
        <time>2021-10-08T15:56:56Z</time>
      </trkpt>
      <trkpt lat="44.87139" lon="5.42179">
        <ele>979.4</ele>
        <time>2021-10-08T15:56:57Z</time>
      </trkpt>
      <trkpt lat="44.87133" lon="5.42167">
        <ele>975.4</ele>
        <time>2021-10-08T15:57:06Z</time>
      </trkpt>
      <trkpt lat="44.8713" lon="5.42164">
        <ele>975.4</ele>
        <time>2021-10-08T15:57:07Z</time>
      </trkpt>
      <trkpt lat="44.87128" lon="5.42163">
        <ele>975.4</ele>
        <time>2021-10-08T15:57:08Z</time>
      </trkpt>
      <trkpt lat="44.87126" lon="5.42162">
        <ele>975.4</ele>
        <time>2021-10-08T15:57:09Z</time>
      </trkpt>
      <trkpt lat="44.87123" lon="5.4216">
        <ele>974.8</ele>
        <time>2021-10-08T15:57:10Z</time>
      </trkpt>
      <trkpt lat="44.8712" lon="5.42158">
        <ele>974.8</ele>
        <time>2021-10-08T15:57:11Z</time>
      </trkpt>
      <trkpt lat="44.87117" lon="5.42158">
        <ele>974.8</ele>
        <time>2021-10-08T15:57:12Z</time>
      </trkpt>
      <trkpt lat="44.87115" lon="5.42157">
        <ele>974</ele>
        <time>2021-10-08T15:57:13Z</time>
      </trkpt>
      <trkpt lat="44.87114" lon="5.42156">
        <ele>973.2</ele>
        <time>2021-10-08T15:57:14Z</time>
      </trkpt>
      <trkpt lat="44.87111" lon="5.42156">
        <ele>973.2</ele>
        <time>2021-10-08T15:57:15Z</time>
      </trkpt>
      <trkpt lat="44.87109" lon="5.42155">
        <ele>973.2</ele>
        <time>2021-10-08T15:57:16Z</time>
      </trkpt>
      <trkpt lat="44.87107" lon="5.42155">
        <ele>973.2</ele>
        <time>2021-10-08T15:57:17Z</time>
      </trkpt>
      <trkpt lat="44.87105" lon="5.42155">
        <ele>973.8</ele>
        <time>2021-10-08T15:57:18Z</time>
      </trkpt>
      <trkpt lat="44.87103" lon="5.42155">
        <ele>973.8</ele>
        <time>2021-10-08T15:57:19Z</time>
      </trkpt>
      <trkpt lat="44.871" lon="5.42154">
        <ele>973.8</ele>
        <time>2021-10-08T15:57:20Z</time>
      </trkpt>
      <trkpt lat="44.87098" lon="5.42153">
        <ele>973.8</ele>
        <time>2021-10-08T15:57:21Z</time>
      </trkpt>
      <trkpt lat="44.87095" lon="5.42152">
        <ele>973.6</ele>
        <time>2021-10-08T15:57:22Z</time>
      </trkpt>
      <trkpt lat="44.87093" lon="5.42152">
        <ele>973.6</ele>
        <time>2021-10-08T15:57:23Z</time>
      </trkpt>
      <trkpt lat="44.87091" lon="5.42151">
        <ele>973.6</ele>
        <time>2021-10-08T15:57:24Z</time>
      </trkpt>
      <trkpt lat="44.87089" lon="5.42149">
        <ele>973.2</ele>
        <time>2021-10-08T15:57:25Z</time>
      </trkpt>
      <trkpt lat="44.87086" lon="5.42147">
        <ele>973.4</ele>
        <time>2021-10-08T15:57:26Z</time>
      </trkpt>
      <trkpt lat="44.87085" lon="5.42145">
        <ele>973.4</ele>
        <time>2021-10-08T15:57:27Z</time>
      </trkpt>
      <trkpt lat="44.87083" lon="5.42143">
        <ele>973.4</ele>
        <time>2021-10-08T15:57:28Z</time>
      </trkpt>
      <trkpt lat="44.87081" lon="5.42141">
        <ele>973.4</ele>
        <time>2021-10-08T15:57:29Z</time>
      </trkpt>
      <trkpt lat="44.8708" lon="5.42141">
        <ele>973.8</ele>
        <time>2021-10-08T15:57:30Z</time>
      </trkpt>
      <trkpt lat="44.8708" lon="5.42141">
        <ele>973.8</ele>
        <time>2021-10-08T15:57:31Z</time>
      </trkpt>
      <trkpt lat="44.8708" lon="5.42141">
        <ele>973.8</ele>
        <time>2021-10-08T15:57:32Z</time>
      </trkpt>
      <trkpt lat="44.87061" lon="5.42131">
        <ele>973.8</ele>
        <time>2021-10-08T15:58:11Z</time>
      </trkpt>
      <trkpt lat="44.8706" lon="5.42131">
        <ele>973.8</ele>
        <time>2021-10-08T15:58:12Z</time>
      </trkpt>
      <trkpt lat="44.87058" lon="5.42132">
        <ele>974.4</ele>
        <time>2021-10-08T15:58:13Z</time>
      </trkpt>
      <trkpt lat="44.87057" lon="5.42133">
        <ele>974.2</ele>
        <time>2021-10-08T15:58:14Z</time>
      </trkpt>
      <trkpt lat="44.87056" lon="5.42133">
        <ele>974.2</ele>
        <time>2021-10-08T15:58:15Z</time>
      </trkpt>
      <trkpt lat="44.87055" lon="5.42134">
        <ele>974.2</ele>
        <time>2021-10-08T15:58:16Z</time>
      </trkpt>
      <trkpt lat="44.87055" lon="5.42136">
        <ele>974.2</ele>
        <time>2021-10-08T15:58:17Z</time>
      </trkpt>
      <trkpt lat="44.87054" lon="5.42138">
        <ele>974.8</ele>
        <time>2021-10-08T15:58:18Z</time>
      </trkpt>
      <trkpt lat="44.87054" lon="5.4214">
        <ele>974.8</ele>
        <time>2021-10-08T15:58:19Z</time>
      </trkpt>
      <trkpt lat="44.87054" lon="5.42141">
        <ele>974.8</ele>
        <time>2021-10-08T15:58:20Z</time>
      </trkpt>
      <trkpt lat="44.87053" lon="5.42143">
        <ele>975.6</ele>
        <time>2021-10-08T15:58:21Z</time>
      </trkpt>
      <trkpt lat="44.87052" lon="5.42144">
        <ele>975.6</ele>
        <time>2021-10-08T15:58:22Z</time>
      </trkpt>
      <trkpt lat="44.87051" lon="5.42146">
        <ele>975.6</ele>
        <time>2021-10-08T15:58:23Z</time>
      </trkpt>
      <trkpt lat="44.87051" lon="5.42147">
        <ele>975.6</ele>
        <time>2021-10-08T15:58:24Z</time>
      </trkpt>
      <trkpt lat="44.87049" lon="5.42148">
        <ele>976.4</ele>
        <time>2021-10-08T15:58:25Z</time>
      </trkpt>
      <trkpt lat="44.87048" lon="5.42149">
        <ele>976.6</ele>
        <time>2021-10-08T15:58:26Z</time>
      </trkpt>
      <trkpt lat="44.87047" lon="5.42149">
        <ele>976.6</ele>
        <time>2021-10-08T15:58:27Z</time>
      </trkpt>
      <trkpt lat="44.87045" lon="5.42149">
        <ele>976.6</ele>
        <time>2021-10-08T15:58:28Z</time>
      </trkpt>
      <trkpt lat="44.87044" lon="5.4215">
        <ele>977.6</ele>
        <time>2021-10-08T15:58:29Z</time>
      </trkpt>
      <trkpt lat="44.87042" lon="5.4215">
        <ele>978</ele>
        <time>2021-10-08T15:58:30Z</time>
      </trkpt>
      <trkpt lat="44.8704" lon="5.4215">
        <ele>978</ele>
        <time>2021-10-08T15:58:31Z</time>
      </trkpt>
      <trkpt lat="44.87039" lon="5.4215">
        <ele>978</ele>
        <time>2021-10-08T15:58:32Z</time>
      </trkpt>
      <trkpt lat="44.87037" lon="5.4215">
        <ele>979</ele>
        <time>2021-10-08T15:58:33Z</time>
      </trkpt>
      <trkpt lat="44.87036" lon="5.4215">
        <ele>979.6</ele>
        <time>2021-10-08T15:58:34Z</time>
      </trkpt>
      <trkpt lat="44.87035" lon="5.42151">
        <ele>979.6</ele>
        <time>2021-10-08T15:58:35Z</time>
      </trkpt>
      <trkpt lat="44.87034" lon="5.42151">
        <ele>979.6</ele>
        <time>2021-10-08T15:58:36Z</time>
      </trkpt>
      <trkpt lat="44.87033" lon="5.42151">
        <ele>979.6</ele>
        <time>2021-10-08T15:58:37Z</time>
      </trkpt>
      <trkpt lat="44.87031" lon="5.4215">
        <ele>979.6</ele>
        <time>2021-10-08T15:58:38Z</time>
      </trkpt>
      <trkpt lat="44.8703" lon="5.42149">
        <ele>979.6</ele>
        <time>2021-10-08T15:58:39Z</time>
      </trkpt>
      <trkpt lat="44.87029" lon="5.42149">
        <ele>979.6</ele>
        <time>2021-10-08T15:58:40Z</time>
      </trkpt>
      <trkpt lat="44.87029" lon="5.42148">
        <ele>980</ele>
        <time>2021-10-08T15:58:41Z</time>
      </trkpt>
      <trkpt lat="44.87028" lon="5.42147">
        <ele>979.4</ele>
        <time>2021-10-08T15:58:42Z</time>
      </trkpt>
      <trkpt lat="44.87026" lon="5.42145">
        <ele>979.4</ele>
        <time>2021-10-08T15:58:43Z</time>
      </trkpt>
      <trkpt lat="44.87025" lon="5.42143">
        <ele>979.4</ele>
        <time>2021-10-08T15:58:44Z</time>
      </trkpt>
      <trkpt lat="44.87023" lon="5.42142">
        <ele>979.4</ele>
        <time>2021-10-08T15:58:45Z</time>
      </trkpt>
      <trkpt lat="44.87021" lon="5.42141">
        <ele>979.4</ele>
        <time>2021-10-08T15:58:46Z</time>
      </trkpt>
      <trkpt lat="44.87019" lon="5.42139">
        <ele>979.4</ele>
        <time>2021-10-08T15:58:47Z</time>
      </trkpt>
      <trkpt lat="44.87017" lon="5.42137">
        <ele>979.4</ele>
        <time>2021-10-08T15:58:48Z</time>
      </trkpt>
      <trkpt lat="44.87015" lon="5.42136">
        <ele>979.4</ele>
        <time>2021-10-08T15:58:49Z</time>
      </trkpt>
      <trkpt lat="44.87013" lon="5.42134">
        <ele>978.6</ele>
        <time>2021-10-08T15:58:50Z</time>
      </trkpt>
      <trkpt lat="44.87011" lon="5.42132">
        <ele>978.6</ele>
        <time>2021-10-08T15:58:51Z</time>
      </trkpt>
      <trkpt lat="44.87009" lon="5.4213">
        <ele>978.6</ele>
        <time>2021-10-08T15:58:52Z</time>
      </trkpt>
      <trkpt lat="44.87007" lon="5.42129">
        <ele>979.4</ele>
        <time>2021-10-08T15:58:53Z</time>
      </trkpt>
      <trkpt lat="44.87006" lon="5.42128">
        <ele>979.6</ele>
        <time>2021-10-08T15:58:54Z</time>
      </trkpt>
      <trkpt lat="44.87005" lon="5.42127">
        <ele>979.6</ele>
        <time>2021-10-08T15:58:55Z</time>
      </trkpt>
      <trkpt lat="44.87005" lon="5.42127">
        <ele>979.6</ele>
        <time>2021-10-08T15:58:56Z</time>
      </trkpt>
      <trkpt lat="44.87005" lon="5.42127">
        <ele>979.6</ele>
        <time>2021-10-08T15:58:57Z</time>
      </trkpt>
    </trkseg>
  </trk>
</gpx>